<?xml version="1.0" encoding="UTF-8"?>
<gpx version="1.1" creator="https://www.youtrack.es" xsi:schemaLocation="http://www.topografix.com/GPX/1/1 http://www.topografix.com/GPX/1/1/gpx.xsd http://www.garmin.com/xmlschemas/GpxExtensions/v3 http://www.garmin.com/xmlschemas/GpxExtensionsv3.xsd http://www.garmin.com/xmlschemas/TrackPointExtension/v1 http://www.garmin.com/xmlschemas/TrackPointExtensionv1.xsd" xmlns:gpxtpx="http://www.garmin.com/xmlschemas/TrackPointExtension/v1" xmlns:gpxx="http://www.garmin.com/xmlschemas/GpxExtensions/v3" xmlns:xsi="http://www.w3.org/2001/XMLSchema-instance">
  <metadata>
    <link href="https://www.youtrack.es">
      <text>YouTrack.es</text>
    </link>
    <time>2026-05-09T03:18:44Z</time>
  </metadata>
  <trk>
    <src>https://www.youtrack.es</src>
    <link href="https://www.youtrack.es/ruta/32097-vuelta-poas">
      <text>YouTrack.es</text>
    </link>
    <trkseg>
      <trkpt lat="9.91179" lon="-84.06601">
        <ele>1172.4</ele>
        <time>2022-05-14 14:16:42</time>
      </trkpt>
      <trkpt lat="9.91178" lon="-84.066">
        <ele>1172.4</ele>
        <time>2022-05-14 14:16:43</time>
      </trkpt>
      <trkpt lat="9.91178" lon="-84.06598">
        <ele>1172.6</ele>
        <time>2022-05-14 14:16:44</time>
      </trkpt>
      <trkpt lat="9.91176" lon="-84.06596">
        <ele>1172.8</ele>
        <time>2022-05-14 14:16:45</time>
      </trkpt>
      <trkpt lat="9.91175" lon="-84.06592">
        <ele>1173.2</ele>
        <time>2022-05-14 14:16:46</time>
      </trkpt>
      <trkpt lat="9.91175" lon="-84.0659">
        <ele>1173.4</ele>
        <time>2022-05-14 14:16:47</time>
      </trkpt>
      <trkpt lat="9.91174" lon="-84.06586">
        <ele>1173.6</ele>
        <time>2022-05-14 14:16:48</time>
      </trkpt>
      <trkpt lat="9.91173" lon="-84.06583">
        <ele>1173.8</ele>
        <time>2022-05-14 14:16:49</time>
      </trkpt>
      <trkpt lat="9.91172" lon="-84.06581">
        <ele>1173.8</ele>
        <time>2022-05-14 14:16:50</time>
      </trkpt>
      <trkpt lat="9.91171" lon="-84.06577">
        <ele>1174</ele>
        <time>2022-05-14 14:16:51</time>
      </trkpt>
      <trkpt lat="9.91171" lon="-84.06577">
        <ele>1174</ele>
        <time>2022-05-14 14:16:52</time>
      </trkpt>
      <trkpt lat="9.91169" lon="-84.06571">
        <ele>1174</ele>
        <time>2022-05-14 14:16:53</time>
      </trkpt>
      <trkpt lat="9.91168" lon="-84.06568">
        <ele>1174.2</ele>
        <time>2022-05-14 14:16:54</time>
      </trkpt>
      <trkpt lat="9.91167" lon="-84.06564">
        <ele>1174.2</ele>
        <time>2022-05-14 14:16:55</time>
      </trkpt>
      <trkpt lat="9.91166" lon="-84.06561">
        <ele>1174.2</ele>
        <time>2022-05-14 14:16:56</time>
      </trkpt>
      <trkpt lat="9.91169" lon="-84.06556">
        <ele>1174.4</ele>
        <time>2022-05-14 14:16:57</time>
      </trkpt>
      <trkpt lat="9.91168" lon="-84.06552">
        <ele>1174.4</ele>
        <time>2022-05-14 14:16:58</time>
      </trkpt>
      <trkpt lat="9.91168" lon="-84.06548">
        <ele>1174.4</ele>
        <time>2022-05-14 14:16:59</time>
      </trkpt>
      <trkpt lat="9.91168" lon="-84.06545">
        <ele>1174.6</ele>
        <time>2022-05-14 14:17:00</time>
      </trkpt>
      <trkpt lat="9.91168" lon="-84.06545">
        <ele>1174.6</ele>
        <time>2022-05-14 14:17:01</time>
      </trkpt>
      <trkpt lat="9.91168" lon="-84.06545">
        <ele>1174.6</ele>
        <time>2022-05-14 14:17:02</time>
      </trkpt>
      <trkpt lat="9.91171" lon="-84.06536">
        <ele>1174.6</ele>
        <time>2022-05-14 14:17:03</time>
      </trkpt>
      <trkpt lat="9.91174" lon="-84.06532">
        <ele>1174.4</ele>
        <time>2022-05-14 14:17:04</time>
      </trkpt>
      <trkpt lat="9.91177" lon="-84.06529">
        <ele>1174.4</ele>
        <time>2022-05-14 14:17:05</time>
      </trkpt>
      <trkpt lat="9.91179" lon="-84.06527">
        <ele>1174.6</ele>
        <time>2022-05-14 14:17:06</time>
      </trkpt>
      <trkpt lat="9.91183" lon="-84.06526">
        <ele>1174.8</ele>
        <time>2022-05-14 14:17:07</time>
      </trkpt>
      <trkpt lat="9.91187" lon="-84.06525">
        <ele>1174.8</ele>
        <time>2022-05-14 14:17:08</time>
      </trkpt>
      <trkpt lat="9.91191" lon="-84.06523">
        <ele>1175</ele>
        <time>2022-05-14 14:17:09</time>
      </trkpt>
      <trkpt lat="9.91196" lon="-84.06521">
        <ele>1175.4</ele>
        <time>2022-05-14 14:17:10</time>
      </trkpt>
      <trkpt lat="9.912" lon="-84.06521">
        <ele>1175.6</ele>
        <time>2022-05-14 14:17:11</time>
      </trkpt>
      <trkpt lat="9.912" lon="-84.06521">
        <ele>1176</ele>
        <time>2022-05-14 14:17:12</time>
      </trkpt>
      <trkpt lat="9.912" lon="-84.06521">
        <ele>1176.2</ele>
        <time>2022-05-14 14:17:13</time>
      </trkpt>
      <trkpt lat="9.9121" lon="-84.0652">
        <ele>1176.4</ele>
        <time>2022-05-14 14:17:14</time>
      </trkpt>
      <trkpt lat="9.91214" lon="-84.06519">
        <ele>1176.4</ele>
        <time>2022-05-14 14:17:15</time>
      </trkpt>
      <trkpt lat="9.91218" lon="-84.06519">
        <ele>1176.6</ele>
        <time>2022-05-14 14:17:16</time>
      </trkpt>
      <trkpt lat="9.91222" lon="-84.06519">
        <ele>1176.6</ele>
        <time>2022-05-14 14:17:17</time>
      </trkpt>
      <trkpt lat="9.91226" lon="-84.06519">
        <ele>1176.6</ele>
        <time>2022-05-14 14:17:18</time>
      </trkpt>
      <trkpt lat="9.91229" lon="-84.0652">
        <ele>1176.6</ele>
        <time>2022-05-14 14:17:19</time>
      </trkpt>
      <trkpt lat="9.91234" lon="-84.06518">
        <ele>1176.8</ele>
        <time>2022-05-14 14:17:20</time>
      </trkpt>
      <trkpt lat="9.91237" lon="-84.06518">
        <ele>1176.6</ele>
        <time>2022-05-14 14:17:21</time>
      </trkpt>
      <trkpt lat="9.91237" lon="-84.06518">
        <ele>1176.6</ele>
        <time>2022-05-14 14:17:22</time>
      </trkpt>
      <trkpt lat="9.91245" lon="-84.06516">
        <ele>1176.6</ele>
        <time>2022-05-14 14:17:23</time>
      </trkpt>
      <trkpt lat="9.91248" lon="-84.06513">
        <ele>1176.6</ele>
        <time>2022-05-14 14:17:24</time>
      </trkpt>
      <trkpt lat="9.91251" lon="-84.06511">
        <ele>1176.6</ele>
        <time>2022-05-14 14:17:25</time>
      </trkpt>
      <trkpt lat="9.91253" lon="-84.06509">
        <ele>1176.6</ele>
        <time>2022-05-14 14:17:26</time>
      </trkpt>
      <trkpt lat="9.91251" lon="-84.06505">
        <ele>1176.6</ele>
        <time>2022-05-14 14:17:27</time>
      </trkpt>
      <trkpt lat="9.91249" lon="-84.06502">
        <ele>1176.6</ele>
        <time>2022-05-14 14:17:28</time>
      </trkpt>
      <trkpt lat="9.91248" lon="-84.06498">
        <ele>1176.8</ele>
        <time>2022-05-14 14:17:29</time>
      </trkpt>
      <trkpt lat="9.91247" lon="-84.06496">
        <ele>1177</ele>
        <time>2022-05-14 14:17:30</time>
      </trkpt>
      <trkpt lat="9.91245" lon="-84.06492">
        <ele>1177.2</ele>
        <time>2022-05-14 14:17:31</time>
      </trkpt>
      <trkpt lat="9.91243" lon="-84.06488">
        <ele>1177.4</ele>
        <time>2022-05-14 14:17:32</time>
      </trkpt>
      <trkpt lat="9.91243" lon="-84.06488">
        <ele>1177.6</ele>
        <time>2022-05-14 14:17:33</time>
      </trkpt>
      <trkpt lat="9.9124" lon="-84.0648">
        <ele>1177.8</ele>
        <time>2022-05-14 14:17:34</time>
      </trkpt>
      <trkpt lat="9.91237" lon="-84.06475">
        <ele>1178</ele>
        <time>2022-05-14 14:17:35</time>
      </trkpt>
      <trkpt lat="9.91235" lon="-84.06471">
        <ele>1178.2</ele>
        <time>2022-05-14 14:17:36</time>
      </trkpt>
      <trkpt lat="9.91233" lon="-84.06467">
        <ele>1178.4</ele>
        <time>2022-05-14 14:17:37</time>
      </trkpt>
      <trkpt lat="9.91231" lon="-84.06462">
        <ele>1178.4</ele>
        <time>2022-05-14 14:17:38</time>
      </trkpt>
      <trkpt lat="9.91229" lon="-84.06458">
        <ele>1178.4</ele>
        <time>2022-05-14 14:17:39</time>
      </trkpt>
      <trkpt lat="9.91227" lon="-84.06453">
        <ele>1178.4</ele>
        <time>2022-05-14 14:17:40</time>
      </trkpt>
      <trkpt lat="9.91225" lon="-84.06449">
        <ele>1178.4</ele>
        <time>2022-05-14 14:17:41</time>
      </trkpt>
      <trkpt lat="9.91225" lon="-84.06449">
        <ele>1178.6</ele>
        <time>2022-05-14 14:17:42</time>
      </trkpt>
      <trkpt lat="9.91225" lon="-84.06449">
        <ele>1178.6</ele>
        <time>2022-05-14 14:17:43</time>
      </trkpt>
      <trkpt lat="9.91219" lon="-84.06433">
        <ele>1178.6</ele>
        <time>2022-05-14 14:17:44</time>
      </trkpt>
      <trkpt lat="9.91217" lon="-84.06428">
        <ele>1178.6</ele>
        <time>2022-05-14 14:17:45</time>
      </trkpt>
      <trkpt lat="9.91215" lon="-84.06423">
        <ele>1178.4</ele>
        <time>2022-05-14 14:17:46</time>
      </trkpt>
      <trkpt lat="9.91213" lon="-84.06418">
        <ele>1178.8</ele>
        <time>2022-05-14 14:17:47</time>
      </trkpt>
      <trkpt lat="9.91211" lon="-84.06413">
        <ele>1178.8</ele>
        <time>2022-05-14 14:17:48</time>
      </trkpt>
      <trkpt lat="9.91209" lon="-84.06408">
        <ele>1179</ele>
        <time>2022-05-14 14:17:49</time>
      </trkpt>
      <trkpt lat="9.91207" lon="-84.06404">
        <ele>1178.8</ele>
        <time>2022-05-14 14:17:50</time>
      </trkpt>
      <trkpt lat="9.91206" lon="-84.06398">
        <ele>1179</ele>
        <time>2022-05-14 14:17:51</time>
      </trkpt>
      <trkpt lat="9.91204" lon="-84.06393">
        <ele>1179.2</ele>
        <time>2022-05-14 14:17:52</time>
      </trkpt>
      <trkpt lat="9.91204" lon="-84.06393">
        <ele>1179.2</ele>
        <time>2022-05-14 14:17:53</time>
      </trkpt>
      <trkpt lat="9.91204" lon="-84.06393">
        <ele>1179.2</ele>
        <time>2022-05-14 14:17:54</time>
      </trkpt>
      <trkpt lat="9.912" lon="-84.06377">
        <ele>1179.4</ele>
        <time>2022-05-14 14:17:55</time>
      </trkpt>
      <trkpt lat="9.91199" lon="-84.06371">
        <ele>1179.4</ele>
        <time>2022-05-14 14:17:56</time>
      </trkpt>
      <trkpt lat="9.91197" lon="-84.06366">
        <ele>1179.4</ele>
        <time>2022-05-14 14:17:57</time>
      </trkpt>
      <trkpt lat="9.91196" lon="-84.06361">
        <ele>1179.4</ele>
        <time>2022-05-14 14:17:58</time>
      </trkpt>
      <trkpt lat="9.91195" lon="-84.06356">
        <ele>1179.4</ele>
        <time>2022-05-14 14:17:59</time>
      </trkpt>
      <trkpt lat="9.91193" lon="-84.06351">
        <ele>1179.6</ele>
        <time>2022-05-14 14:18:00</time>
      </trkpt>
      <trkpt lat="9.91192" lon="-84.06346">
        <ele>1179.6</ele>
        <time>2022-05-14 14:18:01</time>
      </trkpt>
      <trkpt lat="9.91191" lon="-84.06339">
        <ele>1179.6</ele>
        <time>2022-05-14 14:18:02</time>
      </trkpt>
      <trkpt lat="9.91191" lon="-84.06339">
        <ele>1179.4</ele>
        <time>2022-05-14 14:18:03</time>
      </trkpt>
      <trkpt lat="9.91191" lon="-84.06339">
        <ele>1179.2</ele>
        <time>2022-05-14 14:18:04</time>
      </trkpt>
      <trkpt lat="9.91189" lon="-84.06321">
        <ele>1179.2</ele>
        <time>2022-05-14 14:18:05</time>
      </trkpt>
      <trkpt lat="9.91188" lon="-84.06315">
        <ele>1179</ele>
        <time>2022-05-14 14:18:06</time>
      </trkpt>
      <trkpt lat="9.91188" lon="-84.06308">
        <ele>1178.6</ele>
        <time>2022-05-14 14:18:07</time>
      </trkpt>
      <trkpt lat="9.91187" lon="-84.06302">
        <ele>1178.4</ele>
        <time>2022-05-14 14:18:08</time>
      </trkpt>
      <trkpt lat="9.91187" lon="-84.06294">
        <ele>1178.2</ele>
        <time>2022-05-14 14:18:09</time>
      </trkpt>
      <trkpt lat="9.91187" lon="-84.06287">
        <ele>1178</ele>
        <time>2022-05-14 14:18:10</time>
      </trkpt>
      <trkpt lat="9.91188" lon="-84.06281">
        <ele>1177.8</ele>
        <time>2022-05-14 14:18:11</time>
      </trkpt>
      <trkpt lat="9.91187" lon="-84.06274">
        <ele>1177.4</ele>
        <time>2022-05-14 14:18:12</time>
      </trkpt>
      <trkpt lat="9.91187" lon="-84.06267">
        <ele>1177</ele>
        <time>2022-05-14 14:18:13</time>
      </trkpt>
      <trkpt lat="9.91187" lon="-84.06267">
        <ele>1176.8</ele>
        <time>2022-05-14 14:18:14</time>
      </trkpt>
      <trkpt lat="9.91186" lon="-84.06252">
        <ele>1176.6</ele>
        <time>2022-05-14 14:18:15</time>
      </trkpt>
      <trkpt lat="9.91186" lon="-84.06244">
        <ele>1176.4</ele>
        <time>2022-05-14 14:18:16</time>
      </trkpt>
      <trkpt lat="9.91186" lon="-84.06236">
        <ele>1176.2</ele>
        <time>2022-05-14 14:18:17</time>
      </trkpt>
      <trkpt lat="9.91185" lon="-84.06228">
        <ele>1175.8</ele>
        <time>2022-05-14 14:18:18</time>
      </trkpt>
      <trkpt lat="9.91185" lon="-84.0622">
        <ele>1175.6</ele>
        <time>2022-05-14 14:18:19</time>
      </trkpt>
      <trkpt lat="9.91185" lon="-84.06212">
        <ele>1175.6</ele>
        <time>2022-05-14 14:18:20</time>
      </trkpt>
      <trkpt lat="9.91184" lon="-84.06203">
        <ele>1175.4</ele>
        <time>2022-05-14 14:18:21</time>
      </trkpt>
      <trkpt lat="9.91183" lon="-84.06196">
        <ele>1175.4</ele>
        <time>2022-05-14 14:18:22</time>
      </trkpt>
      <trkpt lat="9.91183" lon="-84.06188">
        <ele>1175.2</ele>
        <time>2022-05-14 14:18:23</time>
      </trkpt>
      <trkpt lat="9.91183" lon="-84.06188">
        <ele>1175.2</ele>
        <time>2022-05-14 14:18:24</time>
      </trkpt>
      <trkpt lat="9.91181" lon="-84.06172">
        <ele>1175</ele>
        <time>2022-05-14 14:18:25</time>
      </trkpt>
      <trkpt lat="9.9118" lon="-84.06164">
        <ele>1175</ele>
        <time>2022-05-14 14:18:26</time>
      </trkpt>
      <trkpt lat="9.91179" lon="-84.06156">
        <ele>1175.2</ele>
        <time>2022-05-14 14:18:27</time>
      </trkpt>
      <trkpt lat="9.91178" lon="-84.06149">
        <ele>1175.2</ele>
        <time>2022-05-14 14:18:28</time>
      </trkpt>
      <trkpt lat="9.91177" lon="-84.0614">
        <ele>1175.2</ele>
        <time>2022-05-14 14:18:29</time>
      </trkpt>
      <trkpt lat="9.91176" lon="-84.06133">
        <ele>1175.2</ele>
        <time>2022-05-14 14:18:30</time>
      </trkpt>
      <trkpt lat="9.91175" lon="-84.06125">
        <ele>1175</ele>
        <time>2022-05-14 14:18:31</time>
      </trkpt>
      <trkpt lat="9.91173" lon="-84.06118">
        <ele>1175</ele>
        <time>2022-05-14 14:18:32</time>
      </trkpt>
      <trkpt lat="9.91172" lon="-84.06111">
        <ele>1175</ele>
        <time>2022-05-14 14:18:33</time>
      </trkpt>
      <trkpt lat="9.9117" lon="-84.06104">
        <ele>1175.2</ele>
        <time>2022-05-14 14:18:34</time>
      </trkpt>
      <trkpt lat="9.9117" lon="-84.06104">
        <ele>1175.2</ele>
        <time>2022-05-14 14:18:35</time>
      </trkpt>
      <trkpt lat="9.91166" lon="-84.06089">
        <ele>1175.4</ele>
        <time>2022-05-14 14:18:36</time>
      </trkpt>
      <trkpt lat="9.91165" lon="-84.06082">
        <ele>1175.4</ele>
        <time>2022-05-14 14:18:37</time>
      </trkpt>
      <trkpt lat="9.91164" lon="-84.06075">
        <ele>1175.6</ele>
        <time>2022-05-14 14:18:38</time>
      </trkpt>
      <trkpt lat="9.91162" lon="-84.06067">
        <ele>1175.8</ele>
        <time>2022-05-14 14:18:39</time>
      </trkpt>
      <trkpt lat="9.9116" lon="-84.06061">
        <ele>1175.8</ele>
        <time>2022-05-14 14:18:40</time>
      </trkpt>
      <trkpt lat="9.91158" lon="-84.06053">
        <ele>1175.8</ele>
        <time>2022-05-14 14:18:41</time>
      </trkpt>
      <trkpt lat="9.91157" lon="-84.06046">
        <ele>1176</ele>
        <time>2022-05-14 14:18:42</time>
      </trkpt>
      <trkpt lat="9.91155" lon="-84.06039">
        <ele>1176.2</ele>
        <time>2022-05-14 14:18:43</time>
      </trkpt>
      <trkpt lat="9.91155" lon="-84.06039">
        <ele>1176.4</ele>
        <time>2022-05-14 14:18:44</time>
      </trkpt>
      <trkpt lat="9.91155" lon="-84.06039">
        <ele>1176.6</ele>
        <time>2022-05-14 14:18:45</time>
      </trkpt>
      <trkpt lat="9.91149" lon="-84.06017">
        <ele>1176.6</ele>
        <time>2022-05-14 14:18:46</time>
      </trkpt>
      <trkpt lat="9.91148" lon="-84.0601">
        <ele>1176.8</ele>
        <time>2022-05-14 14:18:47</time>
      </trkpt>
      <trkpt lat="9.91146" lon="-84.06003">
        <ele>1176.8</ele>
        <time>2022-05-14 14:18:48</time>
      </trkpt>
      <trkpt lat="9.91145" lon="-84.05996">
        <ele>1177.2</ele>
        <time>2022-05-14 14:18:49</time>
      </trkpt>
      <trkpt lat="9.91143" lon="-84.05989">
        <ele>1177.6</ele>
        <time>2022-05-14 14:18:50</time>
      </trkpt>
      <trkpt lat="9.91142" lon="-84.05982">
        <ele>1177.8</ele>
        <time>2022-05-14 14:18:51</time>
      </trkpt>
      <trkpt lat="9.91142" lon="-84.05974">
        <ele>1177.8</ele>
        <time>2022-05-14 14:18:52</time>
      </trkpt>
      <trkpt lat="9.9114" lon="-84.05968">
        <ele>1177.8</ele>
        <time>2022-05-14 14:18:53</time>
      </trkpt>
      <trkpt lat="9.9114" lon="-84.0596">
        <ele>1178</ele>
        <time>2022-05-14 14:18:54</time>
      </trkpt>
      <trkpt lat="9.9114" lon="-84.0596">
        <ele>1178.2</ele>
        <time>2022-05-14 14:18:55</time>
      </trkpt>
      <trkpt lat="9.9114" lon="-84.0596">
        <ele>1178.6</ele>
        <time>2022-05-14 14:18:56</time>
      </trkpt>
      <trkpt lat="9.91137" lon="-84.0594">
        <ele>1178.8</ele>
        <time>2022-05-14 14:18:57</time>
      </trkpt>
      <trkpt lat="9.91136" lon="-84.05932">
        <ele>1179.2</ele>
        <time>2022-05-14 14:18:58</time>
      </trkpt>
      <trkpt lat="9.91136" lon="-84.05926">
        <ele>1179.4</ele>
        <time>2022-05-14 14:18:59</time>
      </trkpt>
      <trkpt lat="9.91136" lon="-84.0592">
        <ele>1179.6</ele>
        <time>2022-05-14 14:19:00</time>
      </trkpt>
      <trkpt lat="9.91135" lon="-84.05913">
        <ele>1179.8</ele>
        <time>2022-05-14 14:19:01</time>
      </trkpt>
      <trkpt lat="9.91135" lon="-84.05907">
        <ele>1179.8</ele>
        <time>2022-05-14 14:19:02</time>
      </trkpt>
      <trkpt lat="9.91134" lon="-84.059">
        <ele>1180</ele>
        <time>2022-05-14 14:19:03</time>
      </trkpt>
      <trkpt lat="9.91133" lon="-84.05894">
        <ele>1180.4</ele>
        <time>2022-05-14 14:19:04</time>
      </trkpt>
      <trkpt lat="9.91133" lon="-84.05894">
        <ele>1180.4</ele>
        <time>2022-05-14 14:19:05</time>
      </trkpt>
      <trkpt lat="9.91131" lon="-84.05881">
        <ele>1180.6</ele>
        <time>2022-05-14 14:19:06</time>
      </trkpt>
      <trkpt lat="9.9113" lon="-84.05875">
        <ele>1180.6</ele>
        <time>2022-05-14 14:19:07</time>
      </trkpt>
      <trkpt lat="9.91129" lon="-84.05869">
        <ele>1180.8</ele>
        <time>2022-05-14 14:19:08</time>
      </trkpt>
      <trkpt lat="9.91129" lon="-84.05862">
        <ele>1181</ele>
        <time>2022-05-14 14:19:09</time>
      </trkpt>
      <trkpt lat="9.91127" lon="-84.05856">
        <ele>1181.2</ele>
        <time>2022-05-14 14:19:10</time>
      </trkpt>
      <trkpt lat="9.91126" lon="-84.05849">
        <ele>1181.2</ele>
        <time>2022-05-14 14:19:11</time>
      </trkpt>
      <trkpt lat="9.91125" lon="-84.05842">
        <ele>1181.2</ele>
        <time>2022-05-14 14:19:12</time>
      </trkpt>
      <trkpt lat="9.91123" lon="-84.05837">
        <ele>1181.2</ele>
        <time>2022-05-14 14:19:13</time>
      </trkpt>
      <trkpt lat="9.91122" lon="-84.05829">
        <ele>1181.4</ele>
        <time>2022-05-14 14:19:14</time>
      </trkpt>
      <trkpt lat="9.91121" lon="-84.05822">
        <ele>1181.4</ele>
        <time>2022-05-14 14:19:15</time>
      </trkpt>
      <trkpt lat="9.91121" lon="-84.05822">
        <ele>1181.4</ele>
        <time>2022-05-14 14:19:16</time>
      </trkpt>
      <trkpt lat="9.91118" lon="-84.0581">
        <ele>1181.6</ele>
        <time>2022-05-14 14:19:17</time>
      </trkpt>
      <trkpt lat="9.91116" lon="-84.05804">
        <ele>1181.6</ele>
        <time>2022-05-14 14:19:18</time>
      </trkpt>
      <trkpt lat="9.91113" lon="-84.05797">
        <ele>1181.4</ele>
        <time>2022-05-14 14:19:19</time>
      </trkpt>
      <trkpt lat="9.91111" lon="-84.05793">
        <ele>1181.4</ele>
        <time>2022-05-14 14:19:20</time>
      </trkpt>
      <trkpt lat="9.91109" lon="-84.05787">
        <ele>1181.4</ele>
        <time>2022-05-14 14:19:21</time>
      </trkpt>
      <trkpt lat="9.91106" lon="-84.05784">
        <ele>1181.6</ele>
        <time>2022-05-14 14:19:22</time>
      </trkpt>
      <trkpt lat="9.91104" lon="-84.05781">
        <ele>1181.6</ele>
        <time>2022-05-14 14:19:23</time>
      </trkpt>
      <trkpt lat="9.91103" lon="-84.05778">
        <ele>1181.6</ele>
        <time>2022-05-14 14:19:24</time>
      </trkpt>
      <trkpt lat="9.91103" lon="-84.05778">
        <ele>1181.6</ele>
        <time>2022-05-14 14:19:25</time>
      </trkpt>
      <trkpt lat="9.91103" lon="-84.05778">
        <ele>1181.4</ele>
        <time>2022-05-14 14:19:26</time>
      </trkpt>
      <trkpt lat="9.91099" lon="-84.05772">
        <ele>1181.4</ele>
        <time>2022-05-14 14:19:27</time>
      </trkpt>
      <trkpt lat="9.91098" lon="-84.05771">
        <ele>1181.4</ele>
        <time>2022-05-14 14:19:28</time>
      </trkpt>
      <trkpt lat="9.91098" lon="-84.05769">
        <ele>1181.2</ele>
        <time>2022-05-14 14:19:29</time>
      </trkpt>
      <trkpt lat="9.91098" lon="-84.05768">
        <ele>1181.2</ele>
        <time>2022-05-14 14:19:30</time>
      </trkpt>
      <trkpt lat="9.91098" lon="-84.05768">
        <ele>1181.2</ele>
        <time>2022-05-14 14:19:31</time>
      </trkpt>
      <trkpt lat="9.91097" lon="-84.05768">
        <ele>1181.4</ele>
        <time>2022-05-14 14:19:32</time>
      </trkpt>
      <trkpt lat="9.91097" lon="-84.05768">
        <ele>1181.4</ele>
        <time>2022-05-14 14:19:33</time>
      </trkpt>
      <trkpt lat="9.91092" lon="-84.05769">
        <ele>1181</ele>
        <time>2022-05-14 14:20:08</time>
      </trkpt>
      <trkpt lat="9.91091" lon="-84.05766">
        <ele>1181</ele>
        <time>2022-05-14 14:20:09</time>
      </trkpt>
      <trkpt lat="9.91089" lon="-84.05763">
        <ele>1181.2</ele>
        <time>2022-05-14 14:20:10</time>
      </trkpt>
      <trkpt lat="9.91089" lon="-84.05759">
        <ele>1181.2</ele>
        <time>2022-05-14 14:20:11</time>
      </trkpt>
      <trkpt lat="9.9109" lon="-84.05755">
        <ele>1181.6</ele>
        <time>2022-05-14 14:20:12</time>
      </trkpt>
      <trkpt lat="9.91092" lon="-84.05751">
        <ele>1181.8</ele>
        <time>2022-05-14 14:20:13</time>
      </trkpt>
      <trkpt lat="9.91095" lon="-84.05746">
        <ele>1182</ele>
        <time>2022-05-14 14:20:14</time>
      </trkpt>
      <trkpt lat="9.91099" lon="-84.05743">
        <ele>1181.8</ele>
        <time>2022-05-14 14:20:15</time>
      </trkpt>
      <trkpt lat="9.91103" lon="-84.05739">
        <ele>1181.6</ele>
        <time>2022-05-14 14:20:16</time>
      </trkpt>
      <trkpt lat="9.91108" lon="-84.05737">
        <ele>1181.4</ele>
        <time>2022-05-14 14:20:17</time>
      </trkpt>
      <trkpt lat="9.91108" lon="-84.05737">
        <ele>1181.6</ele>
        <time>2022-05-14 14:20:18</time>
      </trkpt>
      <trkpt lat="9.91118" lon="-84.05732">
        <ele>1181.8</ele>
        <time>2022-05-14 14:20:19</time>
      </trkpt>
      <trkpt lat="9.91125" lon="-84.0573">
        <ele>1181.8</ele>
        <time>2022-05-14 14:20:20</time>
      </trkpt>
      <trkpt lat="9.91131" lon="-84.05728">
        <ele>1181.8</ele>
        <time>2022-05-14 14:20:21</time>
      </trkpt>
      <trkpt lat="9.91136" lon="-84.05725">
        <ele>1181.8</ele>
        <time>2022-05-14 14:20:22</time>
      </trkpt>
      <trkpt lat="9.91142" lon="-84.05723">
        <ele>1181.8</ele>
        <time>2022-05-14 14:20:23</time>
      </trkpt>
      <trkpt lat="9.91149" lon="-84.05721">
        <ele>1181.6</ele>
        <time>2022-05-14 14:20:24</time>
      </trkpt>
      <trkpt lat="9.91155" lon="-84.0572">
        <ele>1181.8</ele>
        <time>2022-05-14 14:20:25</time>
      </trkpt>
      <trkpt lat="9.91161" lon="-84.05718">
        <ele>1181.8</ele>
        <time>2022-05-14 14:20:26</time>
      </trkpt>
      <trkpt lat="9.91167" lon="-84.05716">
        <ele>1181.8</ele>
        <time>2022-05-14 14:20:27</time>
      </trkpt>
      <trkpt lat="9.91167" lon="-84.05716">
        <ele>1181.8</ele>
        <time>2022-05-14 14:20:28</time>
      </trkpt>
      <trkpt lat="9.91181" lon="-84.05712">
        <ele>1181.6</ele>
        <time>2022-05-14 14:20:29</time>
      </trkpt>
      <trkpt lat="9.91187" lon="-84.05709">
        <ele>1181.4</ele>
        <time>2022-05-14 14:20:30</time>
      </trkpt>
      <trkpt lat="9.91194" lon="-84.05707">
        <ele>1181</ele>
        <time>2022-05-14 14:20:31</time>
      </trkpt>
      <trkpt lat="9.91201" lon="-84.05705">
        <ele>1180.6</ele>
        <time>2022-05-14 14:20:32</time>
      </trkpt>
      <trkpt lat="9.9121" lon="-84.05702">
        <ele>1180.4</ele>
        <time>2022-05-14 14:20:33</time>
      </trkpt>
      <trkpt lat="9.91217" lon="-84.057">
        <ele>1180</ele>
        <time>2022-05-14 14:20:34</time>
      </trkpt>
      <trkpt lat="9.91225" lon="-84.05698">
        <ele>1179.6</ele>
        <time>2022-05-14 14:20:35</time>
      </trkpt>
      <trkpt lat="9.91234" lon="-84.05695">
        <ele>1179</ele>
        <time>2022-05-14 14:20:36</time>
      </trkpt>
      <trkpt lat="9.91243" lon="-84.05692">
        <ele>1178.6</ele>
        <time>2022-05-14 14:20:37</time>
      </trkpt>
      <trkpt lat="9.91243" lon="-84.05692">
        <ele>1178</ele>
        <time>2022-05-14 14:20:38</time>
      </trkpt>
      <trkpt lat="9.91243" lon="-84.05692">
        <ele>1177.2</ele>
        <time>2022-05-14 14:20:39</time>
      </trkpt>
      <trkpt lat="9.91273" lon="-84.05683">
        <ele>1176.4</ele>
        <time>2022-05-14 14:20:40</time>
      </trkpt>
      <trkpt lat="9.91283" lon="-84.0568">
        <ele>1175.8</ele>
        <time>2022-05-14 14:20:41</time>
      </trkpt>
      <trkpt lat="9.91294" lon="-84.05677">
        <ele>1175.2</ele>
        <time>2022-05-14 14:20:42</time>
      </trkpt>
      <trkpt lat="9.91305" lon="-84.05674">
        <ele>1174.6</ele>
        <time>2022-05-14 14:20:43</time>
      </trkpt>
      <trkpt lat="9.91315" lon="-84.05671">
        <ele>1174.4</ele>
        <time>2022-05-14 14:20:44</time>
      </trkpt>
      <trkpt lat="9.91326" lon="-84.05669">
        <ele>1174</ele>
        <time>2022-05-14 14:20:45</time>
      </trkpt>
      <trkpt lat="9.91336" lon="-84.05665">
        <ele>1173.8</ele>
        <time>2022-05-14 14:20:46</time>
      </trkpt>
      <trkpt lat="9.91347" lon="-84.05663">
        <ele>1173.8</ele>
        <time>2022-05-14 14:20:47</time>
      </trkpt>
      <trkpt lat="9.91347" lon="-84.05663">
        <ele>1173.6</ele>
        <time>2022-05-14 14:20:48</time>
      </trkpt>
      <trkpt lat="9.91347" lon="-84.05663">
        <ele>1173.6</ele>
        <time>2022-05-14 14:20:49</time>
      </trkpt>
      <trkpt lat="9.91376" lon="-84.05656">
        <ele>1174</ele>
        <time>2022-05-14 14:20:50</time>
      </trkpt>
      <trkpt lat="9.91385" lon="-84.05652">
        <ele>1174</ele>
        <time>2022-05-14 14:20:51</time>
      </trkpt>
      <trkpt lat="9.91394" lon="-84.05649">
        <ele>1174</ele>
        <time>2022-05-14 14:20:52</time>
      </trkpt>
      <trkpt lat="9.91402" lon="-84.05646">
        <ele>1174.2</ele>
        <time>2022-05-14 14:20:53</time>
      </trkpt>
      <trkpt lat="9.91411" lon="-84.05643">
        <ele>1174.2</ele>
        <time>2022-05-14 14:20:54</time>
      </trkpt>
      <trkpt lat="9.9142" lon="-84.05639">
        <ele>1174.2</ele>
        <time>2022-05-14 14:20:55</time>
      </trkpt>
      <trkpt lat="9.91428" lon="-84.05636">
        <ele>1174.2</ele>
        <time>2022-05-14 14:20:56</time>
      </trkpt>
      <trkpt lat="9.91437" lon="-84.05633">
        <ele>1174.4</ele>
        <time>2022-05-14 14:20:57</time>
      </trkpt>
      <trkpt lat="9.91445" lon="-84.05629">
        <ele>1174.6</ele>
        <time>2022-05-14 14:20:58</time>
      </trkpt>
      <trkpt lat="9.91445" lon="-84.05629">
        <ele>1174.8</ele>
        <time>2022-05-14 14:20:59</time>
      </trkpt>
      <trkpt lat="9.91445" lon="-84.05629">
        <ele>1174.8</ele>
        <time>2022-05-14 14:21:00</time>
      </trkpt>
      <trkpt lat="9.91467" lon="-84.05618">
        <ele>1174.8</ele>
        <time>2022-05-14 14:21:01</time>
      </trkpt>
      <trkpt lat="9.91474" lon="-84.05614">
        <ele>1175.4</ele>
        <time>2022-05-14 14:21:02</time>
      </trkpt>
      <trkpt lat="9.9148" lon="-84.0561">
        <ele>1175.6</ele>
        <time>2022-05-14 14:21:03</time>
      </trkpt>
      <trkpt lat="9.91486" lon="-84.05605">
        <ele>1176.8</ele>
        <time>2022-05-14 14:21:04</time>
      </trkpt>
      <trkpt lat="9.91491" lon="-84.056">
        <ele>1177.2</ele>
        <time>2022-05-14 14:21:05</time>
      </trkpt>
      <trkpt lat="9.91496" lon="-84.05596">
        <ele>1178</ele>
        <time>2022-05-14 14:21:06</time>
      </trkpt>
      <trkpt lat="9.91501" lon="-84.05591">
        <ele>1178.2</ele>
        <time>2022-05-14 14:21:07</time>
      </trkpt>
      <trkpt lat="9.91506" lon="-84.05587">
        <ele>1178.2</ele>
        <time>2022-05-14 14:21:08</time>
      </trkpt>
      <trkpt lat="9.91506" lon="-84.05587">
        <ele>1178.8</ele>
        <time>2022-05-14 14:21:09</time>
      </trkpt>
      <trkpt lat="9.91514" lon="-84.05578">
        <ele>1179.2</ele>
        <time>2022-05-14 14:21:10</time>
      </trkpt>
      <trkpt lat="9.91519" lon="-84.05574">
        <ele>1179.8</ele>
        <time>2022-05-14 14:21:11</time>
      </trkpt>
      <trkpt lat="9.91522" lon="-84.0557">
        <ele>1180.2</ele>
        <time>2022-05-14 14:21:12</time>
      </trkpt>
      <trkpt lat="9.91527" lon="-84.05566">
        <ele>1180.6</ele>
        <time>2022-05-14 14:21:13</time>
      </trkpt>
      <trkpt lat="9.9153" lon="-84.05562">
        <ele>1181</ele>
        <time>2022-05-14 14:21:14</time>
      </trkpt>
      <trkpt lat="9.91534" lon="-84.05558">
        <ele>1181.4</ele>
        <time>2022-05-14 14:21:15</time>
      </trkpt>
      <trkpt lat="9.91538" lon="-84.05553">
        <ele>1181.6</ele>
        <time>2022-05-14 14:21:16</time>
      </trkpt>
      <trkpt lat="9.91541" lon="-84.05548">
        <ele>1181.8</ele>
        <time>2022-05-14 14:21:17</time>
      </trkpt>
      <trkpt lat="9.91544" lon="-84.05544">
        <ele>1182</ele>
        <time>2022-05-14 14:21:18</time>
      </trkpt>
      <trkpt lat="9.91548" lon="-84.05538">
        <ele>1182.2</ele>
        <time>2022-05-14 14:21:19</time>
      </trkpt>
      <trkpt lat="9.91548" lon="-84.05538">
        <ele>1182.4</ele>
        <time>2022-05-14 14:21:20</time>
      </trkpt>
      <trkpt lat="9.91554" lon="-84.05528">
        <ele>1182.6</ele>
        <time>2022-05-14 14:21:21</time>
      </trkpt>
      <trkpt lat="9.91558" lon="-84.05524">
        <ele>1182.8</ele>
        <time>2022-05-14 14:21:22</time>
      </trkpt>
      <trkpt lat="9.91562" lon="-84.05518">
        <ele>1183</ele>
        <time>2022-05-14 14:21:23</time>
      </trkpt>
      <trkpt lat="9.91567" lon="-84.05514">
        <ele>1183.2</ele>
        <time>2022-05-14 14:21:24</time>
      </trkpt>
      <trkpt lat="9.91571" lon="-84.05509">
        <ele>1183.4</ele>
        <time>2022-05-14 14:21:25</time>
      </trkpt>
      <trkpt lat="9.91576" lon="-84.05504">
        <ele>1183.6</ele>
        <time>2022-05-14 14:21:26</time>
      </trkpt>
      <trkpt lat="9.9158" lon="-84.055">
        <ele>1183.6</ele>
        <time>2022-05-14 14:21:27</time>
      </trkpt>
      <trkpt lat="9.91585" lon="-84.05495">
        <ele>1183.8</ele>
        <time>2022-05-14 14:21:28</time>
      </trkpt>
      <trkpt lat="9.91585" lon="-84.05495">
        <ele>1183.8</ele>
        <time>2022-05-14 14:21:29</time>
      </trkpt>
      <trkpt lat="9.91585" lon="-84.05495">
        <ele>1183.8</ele>
        <time>2022-05-14 14:21:30</time>
      </trkpt>
      <trkpt lat="9.91601" lon="-84.05482">
        <ele>1183.8</ele>
        <time>2022-05-14 14:21:31</time>
      </trkpt>
      <trkpt lat="9.91607" lon="-84.05479">
        <ele>1183.8</ele>
        <time>2022-05-14 14:21:32</time>
      </trkpt>
      <trkpt lat="9.91613" lon="-84.05475">
        <ele>1183.8</ele>
        <time>2022-05-14 14:21:33</time>
      </trkpt>
      <trkpt lat="9.91619" lon="-84.05472">
        <ele>1184</ele>
        <time>2022-05-14 14:21:34</time>
      </trkpt>
      <trkpt lat="9.91626" lon="-84.05469">
        <ele>1184</ele>
        <time>2022-05-14 14:21:35</time>
      </trkpt>
      <trkpt lat="9.91632" lon="-84.05465">
        <ele>1184.2</ele>
        <time>2022-05-14 14:21:36</time>
      </trkpt>
      <trkpt lat="9.91639" lon="-84.05462">
        <ele>1184.2</ele>
        <time>2022-05-14 14:21:37</time>
      </trkpt>
      <trkpt lat="9.91645" lon="-84.05458">
        <ele>1184.4</ele>
        <time>2022-05-14 14:21:38</time>
      </trkpt>
      <trkpt lat="9.91652" lon="-84.05455">
        <ele>1184.6</ele>
        <time>2022-05-14 14:21:39</time>
      </trkpt>
      <trkpt lat="9.91652" lon="-84.05455">
        <ele>1184.8</ele>
        <time>2022-05-14 14:21:40</time>
      </trkpt>
      <trkpt lat="9.91652" lon="-84.05455">
        <ele>1185</ele>
        <time>2022-05-14 14:21:41</time>
      </trkpt>
      <trkpt lat="9.91672" lon="-84.05445">
        <ele>1185.2</ele>
        <time>2022-05-14 14:21:42</time>
      </trkpt>
      <trkpt lat="9.91679" lon="-84.05443">
        <ele>1185.2</ele>
        <time>2022-05-14 14:21:43</time>
      </trkpt>
      <trkpt lat="9.91687" lon="-84.0544">
        <ele>1185.4</ele>
        <time>2022-05-14 14:21:44</time>
      </trkpt>
      <trkpt lat="9.91694" lon="-84.05437">
        <ele>1185.6</ele>
        <time>2022-05-14 14:21:45</time>
      </trkpt>
      <trkpt lat="9.91701" lon="-84.05435">
        <ele>1185.8</ele>
        <time>2022-05-14 14:21:46</time>
      </trkpt>
      <trkpt lat="9.91709" lon="-84.05434">
        <ele>1185.8</ele>
        <time>2022-05-14 14:21:47</time>
      </trkpt>
      <trkpt lat="9.91716" lon="-84.05432">
        <ele>1186</ele>
        <time>2022-05-14 14:21:48</time>
      </trkpt>
      <trkpt lat="9.91723" lon="-84.0543">
        <ele>1186.2</ele>
        <time>2022-05-14 14:21:49</time>
      </trkpt>
      <trkpt lat="9.91723" lon="-84.0543">
        <ele>1186.2</ele>
        <time>2022-05-14 14:21:50</time>
      </trkpt>
      <trkpt lat="9.91723" lon="-84.0543">
        <ele>1186.6</ele>
        <time>2022-05-14 14:21:51</time>
      </trkpt>
      <trkpt lat="9.91745" lon="-84.05428">
        <ele>1186.8</ele>
        <time>2022-05-14 14:21:52</time>
      </trkpt>
      <trkpt lat="9.91751" lon="-84.05427">
        <ele>1187.2</ele>
        <time>2022-05-14 14:21:53</time>
      </trkpt>
      <trkpt lat="9.91758" lon="-84.05426">
        <ele>1187.4</ele>
        <time>2022-05-14 14:21:54</time>
      </trkpt>
      <trkpt lat="9.91765" lon="-84.05426">
        <ele>1187.8</ele>
        <time>2022-05-14 14:21:55</time>
      </trkpt>
      <trkpt lat="9.91771" lon="-84.05426">
        <ele>1187.8</ele>
        <time>2022-05-14 14:21:56</time>
      </trkpt>
      <trkpt lat="9.91778" lon="-84.05425">
        <ele>1188</ele>
        <time>2022-05-14 14:21:57</time>
      </trkpt>
      <trkpt lat="9.91784" lon="-84.05424">
        <ele>1188.2</ele>
        <time>2022-05-14 14:21:58</time>
      </trkpt>
      <trkpt lat="9.9179" lon="-84.05421">
        <ele>1188.4</ele>
        <time>2022-05-14 14:21:59</time>
      </trkpt>
      <trkpt lat="9.91796" lon="-84.05419">
        <ele>1188.6</ele>
        <time>2022-05-14 14:22:00</time>
      </trkpt>
      <trkpt lat="9.91796" lon="-84.05419">
        <ele>1189</ele>
        <time>2022-05-14 14:22:01</time>
      </trkpt>
      <trkpt lat="9.91808" lon="-84.05414">
        <ele>1189.4</ele>
        <time>2022-05-14 14:22:02</time>
      </trkpt>
      <trkpt lat="9.91814" lon="-84.05412">
        <ele>1189.6</ele>
        <time>2022-05-14 14:22:03</time>
      </trkpt>
      <trkpt lat="9.9182" lon="-84.05408">
        <ele>1189.6</ele>
        <time>2022-05-14 14:22:04</time>
      </trkpt>
      <trkpt lat="9.91826" lon="-84.05406">
        <ele>1189.6</ele>
        <time>2022-05-14 14:22:05</time>
      </trkpt>
      <trkpt lat="9.91832" lon="-84.05403">
        <ele>1189.8</ele>
        <time>2022-05-14 14:22:06</time>
      </trkpt>
      <trkpt lat="9.91838" lon="-84.05399">
        <ele>1190</ele>
        <time>2022-05-14 14:22:07</time>
      </trkpt>
      <trkpt lat="9.91844" lon="-84.05396">
        <ele>1190.2</ele>
        <time>2022-05-14 14:22:08</time>
      </trkpt>
      <trkpt lat="9.9185" lon="-84.05394">
        <ele>1190</ele>
        <time>2022-05-14 14:22:09</time>
      </trkpt>
      <trkpt lat="9.91856" lon="-84.05391">
        <ele>1190</ele>
        <time>2022-05-14 14:22:10</time>
      </trkpt>
      <trkpt lat="9.91856" lon="-84.05391">
        <ele>1190</ele>
        <time>2022-05-14 14:22:11</time>
      </trkpt>
      <trkpt lat="9.9187" lon="-84.05385">
        <ele>1190</ele>
        <time>2022-05-14 14:22:12</time>
      </trkpt>
      <trkpt lat="9.91876" lon="-84.05383">
        <ele>1190</ele>
        <time>2022-05-14 14:22:13</time>
      </trkpt>
      <trkpt lat="9.91883" lon="-84.05381">
        <ele>1190</ele>
        <time>2022-05-14 14:22:14</time>
      </trkpt>
      <trkpt lat="9.9189" lon="-84.05379">
        <ele>1190.2</ele>
        <time>2022-05-14 14:22:15</time>
      </trkpt>
      <trkpt lat="9.91897" lon="-84.05378">
        <ele>1190</ele>
        <time>2022-05-14 14:22:16</time>
      </trkpt>
      <trkpt lat="9.91903" lon="-84.05377">
        <ele>1190</ele>
        <time>2022-05-14 14:22:17</time>
      </trkpt>
      <trkpt lat="9.91911" lon="-84.05376">
        <ele>1190</ele>
        <time>2022-05-14 14:22:18</time>
      </trkpt>
      <trkpt lat="9.91917" lon="-84.05376">
        <ele>1190.2</ele>
        <time>2022-05-14 14:22:19</time>
      </trkpt>
      <trkpt lat="9.91924" lon="-84.05375">
        <ele>1190.4</ele>
        <time>2022-05-14 14:22:20</time>
      </trkpt>
      <trkpt lat="9.9193" lon="-84.05374">
        <ele>1190.4</ele>
        <time>2022-05-14 14:22:21</time>
      </trkpt>
      <trkpt lat="9.9193" lon="-84.05374">
        <ele>1190.2</ele>
        <time>2022-05-14 14:22:22</time>
      </trkpt>
      <trkpt lat="9.91941" lon="-84.05374">
        <ele>1190.4</ele>
        <time>2022-05-14 14:22:23</time>
      </trkpt>
      <trkpt lat="9.91946" lon="-84.05373">
        <ele>1190.6</ele>
        <time>2022-05-14 14:22:24</time>
      </trkpt>
      <trkpt lat="9.9195" lon="-84.05372">
        <ele>1190.8</ele>
        <time>2022-05-14 14:22:25</time>
      </trkpt>
      <trkpt lat="9.91955" lon="-84.05371">
        <ele>1191</ele>
        <time>2022-05-14 14:22:26</time>
      </trkpt>
      <trkpt lat="9.91959" lon="-84.0537">
        <ele>1191.2</ele>
        <time>2022-05-14 14:22:27</time>
      </trkpt>
      <trkpt lat="9.91963" lon="-84.05368">
        <ele>1191.4</ele>
        <time>2022-05-14 14:22:28</time>
      </trkpt>
      <trkpt lat="9.91963" lon="-84.05366">
        <ele>1191.6</ele>
        <time>2022-05-14 14:22:29</time>
      </trkpt>
      <trkpt lat="9.91963" lon="-84.0536">
        <ele>1191.6</ele>
        <time>2022-05-14 14:22:30</time>
      </trkpt>
      <trkpt lat="9.91963" lon="-84.0536">
        <ele>1191.8</ele>
        <time>2022-05-14 14:22:31</time>
      </trkpt>
      <trkpt lat="9.91963" lon="-84.0536">
        <ele>1191.8</ele>
        <time>2022-05-14 14:22:32</time>
      </trkpt>
      <trkpt lat="9.91961" lon="-84.05345">
        <ele>1191.8</ele>
        <time>2022-05-14 14:22:33</time>
      </trkpt>
      <trkpt lat="9.91961" lon="-84.05338">
        <ele>1191.8</ele>
        <time>2022-05-14 14:22:34</time>
      </trkpt>
      <trkpt lat="9.91961" lon="-84.05332">
        <ele>1191.8</ele>
        <time>2022-05-14 14:22:35</time>
      </trkpt>
      <trkpt lat="9.91961" lon="-84.05326">
        <ele>1192</ele>
        <time>2022-05-14 14:22:36</time>
      </trkpt>
      <trkpt lat="9.9196" lon="-84.0532">
        <ele>1191.8</ele>
        <time>2022-05-14 14:22:37</time>
      </trkpt>
      <trkpt lat="9.9196" lon="-84.05315">
        <ele>1191.8</ele>
        <time>2022-05-14 14:22:38</time>
      </trkpt>
      <trkpt lat="9.9196" lon="-84.05309">
        <ele>1191.8</ele>
        <time>2022-05-14 14:22:39</time>
      </trkpt>
      <trkpt lat="9.9196" lon="-84.05302">
        <ele>1191.8</ele>
        <time>2022-05-14 14:22:40</time>
      </trkpt>
      <trkpt lat="9.91959" lon="-84.05296">
        <ele>1192</ele>
        <time>2022-05-14 14:22:41</time>
      </trkpt>
      <trkpt lat="9.91959" lon="-84.05296">
        <ele>1192</ele>
        <time>2022-05-14 14:22:42</time>
      </trkpt>
      <trkpt lat="9.91959" lon="-84.05283">
        <ele>1192.2</ele>
        <time>2022-05-14 14:22:43</time>
      </trkpt>
      <trkpt lat="9.91959" lon="-84.05277">
        <ele>1192.4</ele>
        <time>2022-05-14 14:22:44</time>
      </trkpt>
      <trkpt lat="9.91959" lon="-84.05271">
        <ele>1192.6</ele>
        <time>2022-05-14 14:22:45</time>
      </trkpt>
      <trkpt lat="9.91959" lon="-84.05264">
        <ele>1192.6</ele>
        <time>2022-05-14 14:22:46</time>
      </trkpt>
      <trkpt lat="9.91959" lon="-84.05257">
        <ele>1192.8</ele>
        <time>2022-05-14 14:22:47</time>
      </trkpt>
      <trkpt lat="9.91958" lon="-84.0525">
        <ele>1193</ele>
        <time>2022-05-14 14:22:48</time>
      </trkpt>
      <trkpt lat="9.91957" lon="-84.05243">
        <ele>1193.2</ele>
        <time>2022-05-14 14:22:49</time>
      </trkpt>
      <trkpt lat="9.91957" lon="-84.05236">
        <ele>1193.2</ele>
        <time>2022-05-14 14:22:50</time>
      </trkpt>
      <trkpt lat="9.91957" lon="-84.0523">
        <ele>1193</ele>
        <time>2022-05-14 14:22:51</time>
      </trkpt>
      <trkpt lat="9.91959" lon="-84.05215">
        <ele>1193.2</ele>
        <time>2022-05-14 14:22:52</time>
      </trkpt>
      <trkpt lat="9.91959" lon="-84.05215">
        <ele>1193.2</ele>
        <time>2022-05-14 14:22:53</time>
      </trkpt>
      <trkpt lat="9.9196" lon="-84.05208">
        <ele>1193</ele>
        <time>2022-05-14 14:22:54</time>
      </trkpt>
      <trkpt lat="9.91961" lon="-84.05201">
        <ele>1193.2</ele>
        <time>2022-05-14 14:22:55</time>
      </trkpt>
      <trkpt lat="9.91962" lon="-84.05194">
        <ele>1193.2</ele>
        <time>2022-05-14 14:22:56</time>
      </trkpt>
      <trkpt lat="9.91962" lon="-84.05187">
        <ele>1193.2</ele>
        <time>2022-05-14 14:22:57</time>
      </trkpt>
      <trkpt lat="9.91962" lon="-84.0518">
        <ele>1193</ele>
        <time>2022-05-14 14:22:58</time>
      </trkpt>
      <trkpt lat="9.91962" lon="-84.05173">
        <ele>1193</ele>
        <time>2022-05-14 14:22:59</time>
      </trkpt>
      <trkpt lat="9.91963" lon="-84.05167">
        <ele>1192.8</ele>
        <time>2022-05-14 14:23:00</time>
      </trkpt>
      <trkpt lat="9.91966" lon="-84.05161">
        <ele>1192.8</ele>
        <time>2022-05-14 14:23:01</time>
      </trkpt>
      <trkpt lat="9.91972" lon="-84.0516">
        <ele>1192.6</ele>
        <time>2022-05-14 14:23:02</time>
      </trkpt>
      <trkpt lat="9.91972" lon="-84.0516">
        <ele>1192.4</ele>
        <time>2022-05-14 14:23:03</time>
      </trkpt>
      <trkpt lat="9.91985" lon="-84.05159">
        <ele>1192</ele>
        <time>2022-05-14 14:23:04</time>
      </trkpt>
      <trkpt lat="9.91992" lon="-84.05161">
        <ele>1192</ele>
        <time>2022-05-14 14:23:05</time>
      </trkpt>
      <trkpt lat="9.91999" lon="-84.05164">
        <ele>1191.8</ele>
        <time>2022-05-14 14:23:06</time>
      </trkpt>
      <trkpt lat="9.92006" lon="-84.05168">
        <ele>1191.8</ele>
        <time>2022-05-14 14:23:07</time>
      </trkpt>
      <trkpt lat="9.92012" lon="-84.05173">
        <ele>1191.6</ele>
        <time>2022-05-14 14:23:08</time>
      </trkpt>
      <trkpt lat="9.92018" lon="-84.05177">
        <ele>1191.6</ele>
        <time>2022-05-14 14:23:09</time>
      </trkpt>
      <trkpt lat="9.92024" lon="-84.05183">
        <ele>1191.6</ele>
        <time>2022-05-14 14:23:10</time>
      </trkpt>
      <trkpt lat="9.92029" lon="-84.05188">
        <ele>1191.6</ele>
        <time>2022-05-14 14:23:11</time>
      </trkpt>
      <trkpt lat="9.92035" lon="-84.05193">
        <ele>1191.6</ele>
        <time>2022-05-14 14:23:12</time>
      </trkpt>
      <trkpt lat="9.92049" lon="-84.052">
        <ele>1191.4</ele>
        <time>2022-05-14 14:23:13</time>
      </trkpt>
      <trkpt lat="9.92049" lon="-84.052">
        <ele>1191.4</ele>
        <time>2022-05-14 14:23:14</time>
      </trkpt>
      <trkpt lat="9.92059" lon="-84.05195">
        <ele>1191.4</ele>
        <time>2022-05-14 14:23:15</time>
      </trkpt>
      <trkpt lat="9.92065" lon="-84.0519">
        <ele>1191.4</ele>
        <time>2022-05-14 14:23:16</time>
      </trkpt>
      <trkpt lat="9.92071" lon="-84.05184">
        <ele>1191.4</ele>
        <time>2022-05-14 14:23:17</time>
      </trkpt>
      <trkpt lat="9.92078" lon="-84.05179">
        <ele>1191.4</ele>
        <time>2022-05-14 14:23:18</time>
      </trkpt>
      <trkpt lat="9.92084" lon="-84.05175">
        <ele>1191.6</ele>
        <time>2022-05-14 14:23:19</time>
      </trkpt>
      <trkpt lat="9.92092" lon="-84.05171">
        <ele>1191.6</ele>
        <time>2022-05-14 14:23:20</time>
      </trkpt>
      <trkpt lat="9.92099" lon="-84.05167">
        <ele>1191.4</ele>
        <time>2022-05-14 14:23:21</time>
      </trkpt>
      <trkpt lat="9.92106" lon="-84.05163">
        <ele>1191.4</ele>
        <time>2022-05-14 14:23:22</time>
      </trkpt>
      <trkpt lat="9.92106" lon="-84.05163">
        <ele>1191.4</ele>
        <time>2022-05-14 14:23:23</time>
      </trkpt>
      <trkpt lat="9.92106" lon="-84.05163">
        <ele>1191.6</ele>
        <time>2022-05-14 14:23:24</time>
      </trkpt>
      <trkpt lat="9.92126" lon="-84.0515">
        <ele>1191.6</ele>
        <time>2022-05-14 14:23:25</time>
      </trkpt>
      <trkpt lat="9.92132" lon="-84.05145">
        <ele>1191.6</ele>
        <time>2022-05-14 14:23:26</time>
      </trkpt>
      <trkpt lat="9.92138" lon="-84.05139">
        <ele>1191.6</ele>
        <time>2022-05-14 14:23:27</time>
      </trkpt>
      <trkpt lat="9.92145" lon="-84.05134">
        <ele>1191.6</ele>
        <time>2022-05-14 14:23:28</time>
      </trkpt>
      <trkpt lat="9.9215" lon="-84.05128">
        <ele>1191.6</ele>
        <time>2022-05-14 14:23:29</time>
      </trkpt>
      <trkpt lat="9.92155" lon="-84.05123">
        <ele>1191.8</ele>
        <time>2022-05-14 14:23:30</time>
      </trkpt>
      <trkpt lat="9.92161" lon="-84.05116">
        <ele>1191.8</ele>
        <time>2022-05-14 14:23:31</time>
      </trkpt>
      <trkpt lat="9.92165" lon="-84.0511">
        <ele>1192</ele>
        <time>2022-05-14 14:23:32</time>
      </trkpt>
      <trkpt lat="9.92165" lon="-84.0511">
        <ele>1192</ele>
        <time>2022-05-14 14:23:33</time>
      </trkpt>
      <trkpt lat="9.92179" lon="-84.0509">
        <ele>1192</ele>
        <time>2022-05-14 14:23:34</time>
      </trkpt>
      <trkpt lat="9.92179" lon="-84.0509">
        <ele>1192</ele>
        <time>2022-05-14 14:23:35</time>
      </trkpt>
      <trkpt lat="9.92184" lon="-84.05083">
        <ele>1192</ele>
        <time>2022-05-14 14:23:36</time>
      </trkpt>
      <trkpt lat="9.92189" lon="-84.05076">
        <ele>1192</ele>
        <time>2022-05-14 14:23:37</time>
      </trkpt>
      <trkpt lat="9.92194" lon="-84.0507">
        <ele>1192.2</ele>
        <time>2022-05-14 14:23:38</time>
      </trkpt>
      <trkpt lat="9.92198" lon="-84.05065">
        <ele>1192.2</ele>
        <time>2022-05-14 14:23:39</time>
      </trkpt>
      <trkpt lat="9.92203" lon="-84.05058">
        <ele>1192.6</ele>
        <time>2022-05-14 14:23:40</time>
      </trkpt>
      <trkpt lat="9.92209" lon="-84.05053">
        <ele>1192.6</ele>
        <time>2022-05-14 14:23:41</time>
      </trkpt>
      <trkpt lat="9.92216" lon="-84.05048">
        <ele>1192.8</ele>
        <time>2022-05-14 14:23:42</time>
      </trkpt>
      <trkpt lat="9.92223" lon="-84.05045">
        <ele>1192.8</ele>
        <time>2022-05-14 14:23:43</time>
      </trkpt>
      <trkpt lat="9.92236" lon="-84.05038">
        <ele>1193</ele>
        <time>2022-05-14 14:23:44</time>
      </trkpt>
      <trkpt lat="9.92236" lon="-84.05038">
        <ele>1193.2</ele>
        <time>2022-05-14 14:23:45</time>
      </trkpt>
      <trkpt lat="9.92243" lon="-84.05036">
        <ele>1193.4</ele>
        <time>2022-05-14 14:23:46</time>
      </trkpt>
      <trkpt lat="9.9225" lon="-84.05034">
        <ele>1193.6</ele>
        <time>2022-05-14 14:23:47</time>
      </trkpt>
      <trkpt lat="9.92256" lon="-84.05031">
        <ele>1193.8</ele>
        <time>2022-05-14 14:23:48</time>
      </trkpt>
      <trkpt lat="9.92262" lon="-84.05029">
        <ele>1194.2</ele>
        <time>2022-05-14 14:23:49</time>
      </trkpt>
      <trkpt lat="9.92268" lon="-84.05025">
        <ele>1194.6</ele>
        <time>2022-05-14 14:23:50</time>
      </trkpt>
      <trkpt lat="9.92274" lon="-84.05022">
        <ele>1195</ele>
        <time>2022-05-14 14:23:51</time>
      </trkpt>
      <trkpt lat="9.92279" lon="-84.05017">
        <ele>1195.2</ele>
        <time>2022-05-14 14:23:52</time>
      </trkpt>
      <trkpt lat="9.92279" lon="-84.05017">
        <ele>1195.6</ele>
        <time>2022-05-14 14:23:53</time>
      </trkpt>
      <trkpt lat="9.92287" lon="-84.05">
        <ele>1196</ele>
        <time>2022-05-14 14:23:54</time>
      </trkpt>
      <trkpt lat="9.92289" lon="-84.04995">
        <ele>1196.4</ele>
        <time>2022-05-14 14:23:55</time>
      </trkpt>
      <trkpt lat="9.92289" lon="-84.04995">
        <ele>1196.4</ele>
        <time>2022-05-14 14:23:56</time>
      </trkpt>
      <trkpt lat="9.9229" lon="-84.04989">
        <ele>1197</ele>
        <time>2022-05-14 14:23:57</time>
      </trkpt>
      <trkpt lat="9.92292" lon="-84.04984">
        <ele>1197.4</ele>
        <time>2022-05-14 14:23:58</time>
      </trkpt>
      <trkpt lat="9.92293" lon="-84.04979">
        <ele>1197.6</ele>
        <time>2022-05-14 14:23:59</time>
      </trkpt>
      <trkpt lat="9.92295" lon="-84.04973">
        <ele>1197.6</ele>
        <time>2022-05-14 14:24:00</time>
      </trkpt>
      <trkpt lat="9.92296" lon="-84.04967">
        <ele>1197.8</ele>
        <time>2022-05-14 14:24:01</time>
      </trkpt>
      <trkpt lat="9.92297" lon="-84.04962">
        <ele>1197.6</ele>
        <time>2022-05-14 14:24:02</time>
      </trkpt>
      <trkpt lat="9.92298" lon="-84.04956">
        <ele>1197.8</ele>
        <time>2022-05-14 14:24:03</time>
      </trkpt>
      <trkpt lat="9.92299" lon="-84.04951">
        <ele>1198</ele>
        <time>2022-05-14 14:24:04</time>
      </trkpt>
      <trkpt lat="9.92303" lon="-84.04939">
        <ele>1198.4</ele>
        <time>2022-05-14 14:24:05</time>
      </trkpt>
      <trkpt lat="9.92303" lon="-84.04939">
        <ele>1198.8</ele>
        <time>2022-05-14 14:24:06</time>
      </trkpt>
      <trkpt lat="9.92305" lon="-84.04933">
        <ele>1199.4</ele>
        <time>2022-05-14 14:24:07</time>
      </trkpt>
      <trkpt lat="9.92306" lon="-84.04928">
        <ele>1199.8</ele>
        <time>2022-05-14 14:24:08</time>
      </trkpt>
      <trkpt lat="9.92308" lon="-84.04922">
        <ele>1200.4</ele>
        <time>2022-05-14 14:24:09</time>
      </trkpt>
      <trkpt lat="9.92308" lon="-84.04917">
        <ele>1200.8</ele>
        <time>2022-05-14 14:24:10</time>
      </trkpt>
      <trkpt lat="9.9231" lon="-84.04913">
        <ele>1201</ele>
        <time>2022-05-14 14:24:11</time>
      </trkpt>
      <trkpt lat="9.92311" lon="-84.04907">
        <ele>1201.4</ele>
        <time>2022-05-14 14:24:12</time>
      </trkpt>
      <trkpt lat="9.92313" lon="-84.04903">
        <ele>1201.4</ele>
        <time>2022-05-14 14:24:13</time>
      </trkpt>
      <trkpt lat="9.92313" lon="-84.04903">
        <ele>1201.8</ele>
        <time>2022-05-14 14:24:14</time>
      </trkpt>
      <trkpt lat="9.92317" lon="-84.04886">
        <ele>1202</ele>
        <time>2022-05-14 14:24:15</time>
      </trkpt>
      <trkpt lat="9.92318" lon="-84.04882">
        <ele>1202.2</ele>
        <time>2022-05-14 14:24:16</time>
      </trkpt>
      <trkpt lat="9.92318" lon="-84.04882">
        <ele>1202.2</ele>
        <time>2022-05-14 14:24:17</time>
      </trkpt>
      <trkpt lat="9.9232" lon="-84.04877">
        <ele>1202.6</ele>
        <time>2022-05-14 14:24:18</time>
      </trkpt>
      <trkpt lat="9.92321" lon="-84.04872">
        <ele>1203</ele>
        <time>2022-05-14 14:24:19</time>
      </trkpt>
      <trkpt lat="9.92322" lon="-84.04868">
        <ele>1203.4</ele>
        <time>2022-05-14 14:24:20</time>
      </trkpt>
      <trkpt lat="9.92324" lon="-84.04864">
        <ele>1203.8</ele>
        <time>2022-05-14 14:24:21</time>
      </trkpt>
      <trkpt lat="9.92326" lon="-84.04861">
        <ele>1204</ele>
        <time>2022-05-14 14:24:22</time>
      </trkpt>
      <trkpt lat="9.92328" lon="-84.04856">
        <ele>1204.4</ele>
        <time>2022-05-14 14:24:23</time>
      </trkpt>
      <trkpt lat="9.92329" lon="-84.04852">
        <ele>1204.8</ele>
        <time>2022-05-14 14:24:24</time>
      </trkpt>
      <trkpt lat="9.92329" lon="-84.04852">
        <ele>1205.2</ele>
        <time>2022-05-14 14:24:25</time>
      </trkpt>
      <trkpt lat="9.92332" lon="-84.0484">
        <ele>1205.4</ele>
        <time>2022-05-14 14:24:26</time>
      </trkpt>
      <trkpt lat="9.92332" lon="-84.0484">
        <ele>1205.8</ele>
        <time>2022-05-14 14:24:27</time>
      </trkpt>
      <trkpt lat="9.92333" lon="-84.04836">
        <ele>1206.2</ele>
        <time>2022-05-14 14:24:28</time>
      </trkpt>
      <trkpt lat="9.92334" lon="-84.04832">
        <ele>1206.4</ele>
        <time>2022-05-14 14:24:29</time>
      </trkpt>
      <trkpt lat="9.92335" lon="-84.04829">
        <ele>1206.6</ele>
        <time>2022-05-14 14:24:30</time>
      </trkpt>
      <trkpt lat="9.92336" lon="-84.04825">
        <ele>1206.8</ele>
        <time>2022-05-14 14:24:31</time>
      </trkpt>
      <trkpt lat="9.92336" lon="-84.04822">
        <ele>1207</ele>
        <time>2022-05-14 14:24:32</time>
      </trkpt>
      <trkpt lat="9.92336" lon="-84.04818">
        <ele>1207.2</ele>
        <time>2022-05-14 14:24:33</time>
      </trkpt>
      <trkpt lat="9.92337" lon="-84.04814">
        <ele>1207.2</ele>
        <time>2022-05-14 14:24:34</time>
      </trkpt>
      <trkpt lat="9.92336" lon="-84.04807">
        <ele>1207.4</ele>
        <time>2022-05-14 14:24:35</time>
      </trkpt>
      <trkpt lat="9.92336" lon="-84.04803">
        <ele>1207.4</ele>
        <time>2022-05-14 14:24:36</time>
      </trkpt>
      <trkpt lat="9.92336" lon="-84.04798">
        <ele>1207.6</ele>
        <time>2022-05-14 14:24:37</time>
      </trkpt>
      <trkpt lat="9.92336" lon="-84.04798">
        <ele>1207.6</ele>
        <time>2022-05-14 14:24:38</time>
      </trkpt>
      <trkpt lat="9.92336" lon="-84.04794">
        <ele>1207.6</ele>
        <time>2022-05-14 14:24:39</time>
      </trkpt>
      <trkpt lat="9.92336" lon="-84.0479">
        <ele>1207.8</ele>
        <time>2022-05-14 14:24:40</time>
      </trkpt>
      <trkpt lat="9.92335" lon="-84.04785">
        <ele>1208</ele>
        <time>2022-05-14 14:24:41</time>
      </trkpt>
      <trkpt lat="9.92335" lon="-84.04781">
        <ele>1208</ele>
        <time>2022-05-14 14:24:42</time>
      </trkpt>
      <trkpt lat="9.92334" lon="-84.04777">
        <ele>1208</ele>
        <time>2022-05-14 14:24:43</time>
      </trkpt>
      <trkpt lat="9.92333" lon="-84.04772">
        <ele>1208</ele>
        <time>2022-05-14 14:24:44</time>
      </trkpt>
      <trkpt lat="9.92332" lon="-84.04767">
        <ele>1208.2</ele>
        <time>2022-05-14 14:24:45</time>
      </trkpt>
      <trkpt lat="9.92329" lon="-84.04757">
        <ele>1208.4</ele>
        <time>2022-05-14 14:24:46</time>
      </trkpt>
      <trkpt lat="9.92328" lon="-84.04752">
        <ele>1208.4</ele>
        <time>2022-05-14 14:24:47</time>
      </trkpt>
      <trkpt lat="9.92328" lon="-84.04752">
        <ele>1208.6</ele>
        <time>2022-05-14 14:24:48</time>
      </trkpt>
      <trkpt lat="9.92326" lon="-84.04747">
        <ele>1208.8</ele>
        <time>2022-05-14 14:24:49</time>
      </trkpt>
      <trkpt lat="9.92325" lon="-84.04742">
        <ele>1208.8</ele>
        <time>2022-05-14 14:24:50</time>
      </trkpt>
      <trkpt lat="9.92324" lon="-84.04736">
        <ele>1208.8</ele>
        <time>2022-05-14 14:24:51</time>
      </trkpt>
      <trkpt lat="9.92322" lon="-84.04732">
        <ele>1209</ele>
        <time>2022-05-14 14:24:52</time>
      </trkpt>
      <trkpt lat="9.92321" lon="-84.04727">
        <ele>1209</ele>
        <time>2022-05-14 14:24:53</time>
      </trkpt>
      <trkpt lat="9.92319" lon="-84.04721">
        <ele>1209.2</ele>
        <time>2022-05-14 14:24:54</time>
      </trkpt>
      <trkpt lat="9.92318" lon="-84.04716">
        <ele>1209.2</ele>
        <time>2022-05-14 14:24:55</time>
      </trkpt>
      <trkpt lat="9.92314" lon="-84.04705">
        <ele>1209.4</ele>
        <time>2022-05-14 14:24:56</time>
      </trkpt>
      <trkpt lat="9.92313" lon="-84.047">
        <ele>1209.4</ele>
        <time>2022-05-14 14:24:57</time>
      </trkpt>
      <trkpt lat="9.92311" lon="-84.04694">
        <ele>1209.4</ele>
        <time>2022-05-14 14:24:58</time>
      </trkpt>
      <trkpt lat="9.92311" lon="-84.04694">
        <ele>1209.4</ele>
        <time>2022-05-14 14:24:59</time>
      </trkpt>
      <trkpt lat="9.92309" lon="-84.04689">
        <ele>1209.4</ele>
        <time>2022-05-14 14:25:00</time>
      </trkpt>
      <trkpt lat="9.92307" lon="-84.04684">
        <ele>1209.4</ele>
        <time>2022-05-14 14:25:01</time>
      </trkpt>
      <trkpt lat="9.92305" lon="-84.04678">
        <ele>1209.6</ele>
        <time>2022-05-14 14:25:02</time>
      </trkpt>
      <trkpt lat="9.92304" lon="-84.04674">
        <ele>1209.8</ele>
        <time>2022-05-14 14:25:03</time>
      </trkpt>
      <trkpt lat="9.92303" lon="-84.04668">
        <ele>1209.8</ele>
        <time>2022-05-14 14:25:04</time>
      </trkpt>
      <trkpt lat="9.92302" lon="-84.04662">
        <ele>1209.8</ele>
        <time>2022-05-14 14:25:05</time>
      </trkpt>
      <trkpt lat="9.92302" lon="-84.04662">
        <ele>1210</ele>
        <time>2022-05-14 14:25:06</time>
      </trkpt>
      <trkpt lat="9.92299" lon="-84.04649">
        <ele>1210.2</ele>
        <time>2022-05-14 14:25:07</time>
      </trkpt>
      <trkpt lat="9.923" lon="-84.04644">
        <ele>1210.4</ele>
        <time>2022-05-14 14:25:08</time>
      </trkpt>
      <trkpt lat="9.923" lon="-84.04644">
        <ele>1210.4</ele>
        <time>2022-05-14 14:25:09</time>
      </trkpt>
      <trkpt lat="9.92301" lon="-84.04639">
        <ele>1210.6</ele>
        <time>2022-05-14 14:25:10</time>
      </trkpt>
      <trkpt lat="9.92305" lon="-84.04637">
        <ele>1210.6</ele>
        <time>2022-05-14 14:25:11</time>
      </trkpt>
      <trkpt lat="9.9231" lon="-84.04634">
        <ele>1210.6</ele>
        <time>2022-05-14 14:25:12</time>
      </trkpt>
      <trkpt lat="9.92315" lon="-84.04632">
        <ele>1210.6</ele>
        <time>2022-05-14 14:25:13</time>
      </trkpt>
      <trkpt lat="9.9232" lon="-84.0463">
        <ele>1210.8</ele>
        <time>2022-05-14 14:25:14</time>
      </trkpt>
      <trkpt lat="9.92325" lon="-84.04628">
        <ele>1210.8</ele>
        <time>2022-05-14 14:25:15</time>
      </trkpt>
      <trkpt lat="9.92325" lon="-84.04628">
        <ele>1211</ele>
        <time>2022-05-14 14:25:16</time>
      </trkpt>
      <trkpt lat="9.92341" lon="-84.04623">
        <ele>1211.2</ele>
        <time>2022-05-14 14:25:17</time>
      </trkpt>
      <trkpt lat="9.92346" lon="-84.04621">
        <ele>1211.4</ele>
        <time>2022-05-14 14:25:18</time>
      </trkpt>
      <trkpt lat="9.92352" lon="-84.04619">
        <ele>1211.6</ele>
        <time>2022-05-14 14:25:19</time>
      </trkpt>
      <trkpt lat="9.92352" lon="-84.04619">
        <ele>1211.6</ele>
        <time>2022-05-14 14:25:20</time>
      </trkpt>
      <trkpt lat="9.92357" lon="-84.04618">
        <ele>1211.8</ele>
        <time>2022-05-14 14:25:21</time>
      </trkpt>
      <trkpt lat="9.92362" lon="-84.04617">
        <ele>1212</ele>
        <time>2022-05-14 14:25:22</time>
      </trkpt>
      <trkpt lat="9.92368" lon="-84.04616">
        <ele>1212</ele>
        <time>2022-05-14 14:25:23</time>
      </trkpt>
      <trkpt lat="9.92373" lon="-84.04615">
        <ele>1212.2</ele>
        <time>2022-05-14 14:25:24</time>
      </trkpt>
      <trkpt lat="9.92379" lon="-84.04612">
        <ele>1212.2</ele>
        <time>2022-05-14 14:25:25</time>
      </trkpt>
      <trkpt lat="9.92384" lon="-84.0461">
        <ele>1212.4</ele>
        <time>2022-05-14 14:25:26</time>
      </trkpt>
      <trkpt lat="9.92394" lon="-84.04606">
        <ele>1212.4</ele>
        <time>2022-05-14 14:25:27</time>
      </trkpt>
      <trkpt lat="9.92399" lon="-84.04604">
        <ele>1212.6</ele>
        <time>2022-05-14 14:25:28</time>
      </trkpt>
      <trkpt lat="9.92405" lon="-84.04601">
        <ele>1212.6</ele>
        <time>2022-05-14 14:25:29</time>
      </trkpt>
      <trkpt lat="9.92405" lon="-84.04601">
        <ele>1212.8</ele>
        <time>2022-05-14 14:25:30</time>
      </trkpt>
      <trkpt lat="9.9241" lon="-84.046">
        <ele>1212.8</ele>
        <time>2022-05-14 14:25:31</time>
      </trkpt>
      <trkpt lat="9.92416" lon="-84.04598">
        <ele>1212.8</ele>
        <time>2022-05-14 14:25:32</time>
      </trkpt>
      <trkpt lat="9.92421" lon="-84.04597">
        <ele>1213</ele>
        <time>2022-05-14 14:25:33</time>
      </trkpt>
      <trkpt lat="9.92426" lon="-84.04595">
        <ele>1213</ele>
        <time>2022-05-14 14:25:34</time>
      </trkpt>
      <trkpt lat="9.92431" lon="-84.04593">
        <ele>1213.2</ele>
        <time>2022-05-14 14:25:35</time>
      </trkpt>
      <trkpt lat="9.92436" lon="-84.04591">
        <ele>1213.2</ele>
        <time>2022-05-14 14:25:36</time>
      </trkpt>
      <trkpt lat="9.92446" lon="-84.04587">
        <ele>1213.4</ele>
        <time>2022-05-14 14:25:37</time>
      </trkpt>
      <trkpt lat="9.92451" lon="-84.04584">
        <ele>1213.4</ele>
        <time>2022-05-14 14:25:38</time>
      </trkpt>
      <trkpt lat="9.92456" lon="-84.04582">
        <ele>1213.4</ele>
        <time>2022-05-14 14:25:39</time>
      </trkpt>
      <trkpt lat="9.92461" lon="-84.0458">
        <ele>1213.6</ele>
        <time>2022-05-14 14:25:40</time>
      </trkpt>
      <trkpt lat="9.92461" lon="-84.0458">
        <ele>1213.6</ele>
        <time>2022-05-14 14:25:41</time>
      </trkpt>
      <trkpt lat="9.92465" lon="-84.04577">
        <ele>1213.8</ele>
        <time>2022-05-14 14:25:42</time>
      </trkpt>
      <trkpt lat="9.92471" lon="-84.04575">
        <ele>1214</ele>
        <time>2022-05-14 14:25:43</time>
      </trkpt>
      <trkpt lat="9.92476" lon="-84.04572">
        <ele>1214.2</ele>
        <time>2022-05-14 14:25:44</time>
      </trkpt>
      <trkpt lat="9.9248" lon="-84.0457">
        <ele>1214.2</ele>
        <time>2022-05-14 14:25:45</time>
      </trkpt>
      <trkpt lat="9.92485" lon="-84.04568">
        <ele>1214.2</ele>
        <time>2022-05-14 14:25:46</time>
      </trkpt>
      <trkpt lat="9.92489" lon="-84.04566">
        <ele>1214</ele>
        <time>2022-05-14 14:25:47</time>
      </trkpt>
      <trkpt lat="9.92499" lon="-84.04559">
        <ele>1213.8</ele>
        <time>2022-05-14 14:25:48</time>
      </trkpt>
      <trkpt lat="9.92504" lon="-84.04557">
        <ele>1213.6</ele>
        <time>2022-05-14 14:25:49</time>
      </trkpt>
      <trkpt lat="9.92509" lon="-84.04554">
        <ele>1213.2</ele>
        <time>2022-05-14 14:25:50</time>
      </trkpt>
      <trkpt lat="9.92509" lon="-84.04554">
        <ele>1212.6</ele>
        <time>2022-05-14 14:25:51</time>
      </trkpt>
      <trkpt lat="9.92516" lon="-84.04551">
        <ele>1212</ele>
        <time>2022-05-14 14:25:52</time>
      </trkpt>
      <trkpt lat="9.92523" lon="-84.04548">
        <ele>1211.2</ele>
        <time>2022-05-14 14:25:53</time>
      </trkpt>
      <trkpt lat="9.9253" lon="-84.04543">
        <ele>1210.4</ele>
        <time>2022-05-14 14:25:54</time>
      </trkpt>
      <trkpt lat="9.92537" lon="-84.04539">
        <ele>1209.6</ele>
        <time>2022-05-14 14:25:55</time>
      </trkpt>
      <trkpt lat="9.92545" lon="-84.04535">
        <ele>1208.8</ele>
        <time>2022-05-14 14:25:56</time>
      </trkpt>
      <trkpt lat="9.92545" lon="-84.04535">
        <ele>1208.4</ele>
        <time>2022-05-14 14:25:57</time>
      </trkpt>
      <trkpt lat="9.9257" lon="-84.0452">
        <ele>1208</ele>
        <time>2022-05-14 14:25:58</time>
      </trkpt>
      <trkpt lat="9.92578" lon="-84.04514">
        <ele>1207.8</ele>
        <time>2022-05-14 14:25:59</time>
      </trkpt>
      <trkpt lat="9.92585" lon="-84.0451">
        <ele>1207.6</ele>
        <time>2022-05-14 14:26:00</time>
      </trkpt>
      <trkpt lat="9.92593" lon="-84.04505">
        <ele>1207.6</ele>
        <time>2022-05-14 14:26:01</time>
      </trkpt>
      <trkpt lat="9.92593" lon="-84.04505">
        <ele>1207.6</ele>
        <time>2022-05-14 14:26:02</time>
      </trkpt>
      <trkpt lat="9.926" lon="-84.04501">
        <ele>1207.4</ele>
        <time>2022-05-14 14:26:03</time>
      </trkpt>
      <trkpt lat="9.92606" lon="-84.04496">
        <ele>1207.6</ele>
        <time>2022-05-14 14:26:04</time>
      </trkpt>
      <trkpt lat="9.92612" lon="-84.04492">
        <ele>1207.8</ele>
        <time>2022-05-14 14:26:05</time>
      </trkpt>
      <trkpt lat="9.92618" lon="-84.04488">
        <ele>1208.4</ele>
        <time>2022-05-14 14:26:06</time>
      </trkpt>
      <trkpt lat="9.92624" lon="-84.04485">
        <ele>1208.6</ele>
        <time>2022-05-14 14:26:07</time>
      </trkpt>
      <trkpt lat="9.92624" lon="-84.04485">
        <ele>1208.8</ele>
        <time>2022-05-14 14:26:08</time>
      </trkpt>
      <trkpt lat="9.9264" lon="-84.04474">
        <ele>1208.8</ele>
        <time>2022-05-14 14:26:09</time>
      </trkpt>
      <trkpt lat="9.92645" lon="-84.0447">
        <ele>1209.2</ele>
        <time>2022-05-14 14:26:10</time>
      </trkpt>
      <trkpt lat="9.9265" lon="-84.04465">
        <ele>1209.4</ele>
        <time>2022-05-14 14:26:11</time>
      </trkpt>
      <trkpt lat="9.9265" lon="-84.04465">
        <ele>1209.8</ele>
        <time>2022-05-14 14:26:12</time>
      </trkpt>
      <trkpt lat="9.92655" lon="-84.04462">
        <ele>1210</ele>
        <time>2022-05-14 14:26:13</time>
      </trkpt>
      <trkpt lat="9.92659" lon="-84.04458">
        <ele>1210.2</ele>
        <time>2022-05-14 14:26:14</time>
      </trkpt>
      <trkpt lat="9.92664" lon="-84.04455">
        <ele>1210.4</ele>
        <time>2022-05-14 14:26:15</time>
      </trkpt>
      <trkpt lat="9.92669" lon="-84.04451">
        <ele>1210.6</ele>
        <time>2022-05-14 14:26:16</time>
      </trkpt>
      <trkpt lat="9.92673" lon="-84.04447">
        <ele>1211</ele>
        <time>2022-05-14 14:26:17</time>
      </trkpt>
      <trkpt lat="9.9268" lon="-84.0444">
        <ele>1211</ele>
        <time>2022-05-14 14:26:18</time>
      </trkpt>
      <trkpt lat="9.92684" lon="-84.04436">
        <ele>1211.2</ele>
        <time>2022-05-14 14:26:19</time>
      </trkpt>
      <trkpt lat="9.92688" lon="-84.04432">
        <ele>1211.4</ele>
        <time>2022-05-14 14:26:20</time>
      </trkpt>
      <trkpt lat="9.92691" lon="-84.04428">
        <ele>1211.8</ele>
        <time>2022-05-14 14:26:21</time>
      </trkpt>
      <trkpt lat="9.92694" lon="-84.04424">
        <ele>1212</ele>
        <time>2022-05-14 14:26:22</time>
      </trkpt>
      <trkpt lat="9.92694" lon="-84.04424">
        <ele>1212</ele>
        <time>2022-05-14 14:26:23</time>
      </trkpt>
      <trkpt lat="9.92698" lon="-84.0442">
        <ele>1212.2</ele>
        <time>2022-05-14 14:26:24</time>
      </trkpt>
      <trkpt lat="9.92702" lon="-84.04417">
        <ele>1212.4</ele>
        <time>2022-05-14 14:26:25</time>
      </trkpt>
      <trkpt lat="9.92705" lon="-84.04413">
        <ele>1212.8</ele>
        <time>2022-05-14 14:26:26</time>
      </trkpt>
      <trkpt lat="9.92709" lon="-84.04409">
        <ele>1213.2</ele>
        <time>2022-05-14 14:26:27</time>
      </trkpt>
      <trkpt lat="9.92712" lon="-84.04405">
        <ele>1213.6</ele>
        <time>2022-05-14 14:26:28</time>
      </trkpt>
      <trkpt lat="9.92718" lon="-84.04397">
        <ele>1214</ele>
        <time>2022-05-14 14:26:29</time>
      </trkpt>
      <trkpt lat="9.92721" lon="-84.04393">
        <ele>1214.4</ele>
        <time>2022-05-14 14:26:30</time>
      </trkpt>
      <trkpt lat="9.92723" lon="-84.04389">
        <ele>1214.8</ele>
        <time>2022-05-14 14:26:31</time>
      </trkpt>
      <trkpt lat="9.92726" lon="-84.04385">
        <ele>1215</ele>
        <time>2022-05-14 14:26:32</time>
      </trkpt>
      <trkpt lat="9.92726" lon="-84.04385">
        <ele>1215.4</ele>
        <time>2022-05-14 14:26:33</time>
      </trkpt>
      <trkpt lat="9.92729" lon="-84.04382">
        <ele>1215.8</ele>
        <time>2022-05-14 14:26:34</time>
      </trkpt>
      <trkpt lat="9.92732" lon="-84.04377">
        <ele>1216.2</ele>
        <time>2022-05-14 14:26:35</time>
      </trkpt>
      <trkpt lat="9.92735" lon="-84.04374">
        <ele>1216.6</ele>
        <time>2022-05-14 14:26:36</time>
      </trkpt>
      <trkpt lat="9.92737" lon="-84.04371">
        <ele>1217</ele>
        <time>2022-05-14 14:26:37</time>
      </trkpt>
      <trkpt lat="9.92737" lon="-84.04371">
        <ele>1217.2</ele>
        <time>2022-05-14 14:26:38</time>
      </trkpt>
      <trkpt lat="9.92745" lon="-84.04362">
        <ele>1217.4</ele>
        <time>2022-05-14 14:26:39</time>
      </trkpt>
      <trkpt lat="9.92747" lon="-84.0436">
        <ele>1217.8</ele>
        <time>2022-05-14 14:26:40</time>
      </trkpt>
      <trkpt lat="9.92751" lon="-84.04357">
        <ele>1218.4</ele>
        <time>2022-05-14 14:26:41</time>
      </trkpt>
      <trkpt lat="9.92753" lon="-84.04355">
        <ele>1218.8</ele>
        <time>2022-05-14 14:26:42</time>
      </trkpt>
      <trkpt lat="9.92755" lon="-84.04353">
        <ele>1219.4</ele>
        <time>2022-05-14 14:26:43</time>
      </trkpt>
      <trkpt lat="9.92755" lon="-84.04353">
        <ele>1219.4</ele>
        <time>2022-05-14 14:26:44</time>
      </trkpt>
      <trkpt lat="9.92758" lon="-84.0435">
        <ele>1220</ele>
        <time>2022-05-14 14:26:45</time>
      </trkpt>
      <trkpt lat="9.92761" lon="-84.04346">
        <ele>1220.4</ele>
        <time>2022-05-14 14:26:46</time>
      </trkpt>
      <trkpt lat="9.92764" lon="-84.04344">
        <ele>1221</ele>
        <time>2022-05-14 14:26:47</time>
      </trkpt>
      <trkpt lat="9.92766" lon="-84.04341">
        <ele>1221.4</ele>
        <time>2022-05-14 14:26:48</time>
      </trkpt>
      <trkpt lat="9.92766" lon="-84.04341">
        <ele>1221.8</ele>
        <time>2022-05-14 14:26:49</time>
      </trkpt>
      <trkpt lat="9.92772" lon="-84.04332">
        <ele>1222.2</ele>
        <time>2022-05-14 14:26:50</time>
      </trkpt>
      <trkpt lat="9.92774" lon="-84.0433">
        <ele>1222.4</ele>
        <time>2022-05-14 14:26:51</time>
      </trkpt>
      <trkpt lat="9.92776" lon="-84.04328">
        <ele>1222.8</ele>
        <time>2022-05-14 14:26:52</time>
      </trkpt>
      <trkpt lat="9.92778" lon="-84.04324">
        <ele>1223.2</ele>
        <time>2022-05-14 14:26:53</time>
      </trkpt>
      <trkpt lat="9.92778" lon="-84.04324">
        <ele>1223.6</ele>
        <time>2022-05-14 14:26:54</time>
      </trkpt>
      <trkpt lat="9.9278" lon="-84.04322">
        <ele>1224</ele>
        <time>2022-05-14 14:26:55</time>
      </trkpt>
      <trkpt lat="9.92782" lon="-84.0432">
        <ele>1224.4</ele>
        <time>2022-05-14 14:26:56</time>
      </trkpt>
      <trkpt lat="9.92783" lon="-84.04317">
        <ele>1224.8</ele>
        <time>2022-05-14 14:26:57</time>
      </trkpt>
      <trkpt lat="9.92785" lon="-84.04315">
        <ele>1225</ele>
        <time>2022-05-14 14:26:58</time>
      </trkpt>
      <trkpt lat="9.9279" lon="-84.0431">
        <ele>1225.2</ele>
        <time>2022-05-14 14:26:59</time>
      </trkpt>
      <trkpt lat="9.92793" lon="-84.04308">
        <ele>1225.4</ele>
        <time>2022-05-14 14:27:00</time>
      </trkpt>
      <trkpt lat="9.92795" lon="-84.04306">
        <ele>1225.6</ele>
        <time>2022-05-14 14:27:01</time>
      </trkpt>
      <trkpt lat="9.92798" lon="-84.04303">
        <ele>1225.8</ele>
        <time>2022-05-14 14:27:02</time>
      </trkpt>
      <trkpt lat="9.92799" lon="-84.04301">
        <ele>1226.2</ele>
        <time>2022-05-14 14:27:03</time>
      </trkpt>
      <trkpt lat="9.92802" lon="-84.04297">
        <ele>1226.4</ele>
        <time>2022-05-14 14:27:04</time>
      </trkpt>
      <trkpt lat="9.92802" lon="-84.04297">
        <ele>1226.4</ele>
        <time>2022-05-14 14:27:05</time>
      </trkpt>
      <trkpt lat="9.92804" lon="-84.04295">
        <ele>1226.6</ele>
        <time>2022-05-14 14:27:06</time>
      </trkpt>
      <trkpt lat="9.92805" lon="-84.04293">
        <ele>1227</ele>
        <time>2022-05-14 14:27:07</time>
      </trkpt>
      <trkpt lat="9.92807" lon="-84.04291">
        <ele>1227.2</ele>
        <time>2022-05-14 14:27:08</time>
      </trkpt>
      <trkpt lat="9.92809" lon="-84.04288">
        <ele>1227.4</ele>
        <time>2022-05-14 14:27:09</time>
      </trkpt>
      <trkpt lat="9.92813" lon="-84.04283">
        <ele>1227.6</ele>
        <time>2022-05-14 14:27:10</time>
      </trkpt>
      <trkpt lat="9.92815" lon="-84.04281">
        <ele>1227.8</ele>
        <time>2022-05-14 14:27:11</time>
      </trkpt>
      <trkpt lat="9.92817" lon="-84.04279">
        <ele>1228</ele>
        <time>2022-05-14 14:27:12</time>
      </trkpt>
      <trkpt lat="9.92819" lon="-84.04277">
        <ele>1228.2</ele>
        <time>2022-05-14 14:27:13</time>
      </trkpt>
      <trkpt lat="9.92821" lon="-84.04274">
        <ele>1228.4</ele>
        <time>2022-05-14 14:27:14</time>
      </trkpt>
      <trkpt lat="9.92821" lon="-84.04274">
        <ele>1228.6</ele>
        <time>2022-05-14 14:27:15</time>
      </trkpt>
      <trkpt lat="9.92823" lon="-84.04272">
        <ele>1228.8</ele>
        <time>2022-05-14 14:27:16</time>
      </trkpt>
      <trkpt lat="9.92825" lon="-84.0427">
        <ele>1229</ele>
        <time>2022-05-14 14:27:17</time>
      </trkpt>
      <trkpt lat="9.92827" lon="-84.04268">
        <ele>1229.2</ele>
        <time>2022-05-14 14:27:18</time>
      </trkpt>
      <trkpt lat="9.92827" lon="-84.04268">
        <ele>1229.4</ele>
        <time>2022-05-14 14:27:19</time>
      </trkpt>
      <trkpt lat="9.92834" lon="-84.04264">
        <ele>1229.4</ele>
        <time>2022-05-14 14:27:20</time>
      </trkpt>
      <trkpt lat="9.92835" lon="-84.04263">
        <ele>1229.6</ele>
        <time>2022-05-14 14:27:21</time>
      </trkpt>
      <trkpt lat="9.92836" lon="-84.04261">
        <ele>1229.6</ele>
        <time>2022-05-14 14:27:22</time>
      </trkpt>
      <trkpt lat="9.92837" lon="-84.04259">
        <ele>1229.6</ele>
        <time>2022-05-14 14:27:23</time>
      </trkpt>
      <trkpt lat="9.92839" lon="-84.04259">
        <ele>1229.6</ele>
        <time>2022-05-14 14:27:24</time>
      </trkpt>
      <trkpt lat="9.9284" lon="-84.04257">
        <ele>1229.8</ele>
        <time>2022-05-14 14:27:25</time>
      </trkpt>
      <trkpt lat="9.9284" lon="-84.04257">
        <ele>1229.8</ele>
        <time>2022-05-14 14:27:26</time>
      </trkpt>
      <trkpt lat="9.9284" lon="-84.04257">
        <ele>1229.8</ele>
        <time>2022-05-14 14:27:27</time>
      </trkpt>
      <trkpt lat="9.92842" lon="-84.04257">
        <ele>1229.8</ele>
        <time>2022-05-14 14:27:28</time>
      </trkpt>
      <trkpt lat="9.92842" lon="-84.04256">
        <ele>1229.8</ele>
        <time>2022-05-14 14:27:29</time>
      </trkpt>
      <trkpt lat="9.92842" lon="-84.04256">
        <ele>1229.8</ele>
        <time>2022-05-14 14:27:30</time>
      </trkpt>
      <trkpt lat="9.92844" lon="-84.04253">
        <ele>1229.8</ele>
        <time>2022-05-14 14:27:31</time>
      </trkpt>
      <trkpt lat="9.92844" lon="-84.04252">
        <ele>1230</ele>
        <time>2022-05-14 14:27:32</time>
      </trkpt>
      <trkpt lat="9.92845" lon="-84.04252">
        <ele>1230</ele>
        <time>2022-05-14 14:27:33</time>
      </trkpt>
      <trkpt lat="9.92845" lon="-84.04252">
        <ele>1230</ele>
        <time>2022-05-14 14:27:34</time>
      </trkpt>
      <trkpt lat="9.92848" lon="-84.0425">
        <ele>1230</ele>
        <time>2022-05-14 14:28:03</time>
      </trkpt>
      <trkpt lat="9.92849" lon="-84.0425">
        <ele>1230</ele>
        <time>2022-05-14 14:28:04</time>
      </trkpt>
      <trkpt lat="9.92851" lon="-84.04249">
        <ele>1230</ele>
        <time>2022-05-14 14:28:05</time>
      </trkpt>
      <trkpt lat="9.92853" lon="-84.04247">
        <ele>1230.2</ele>
        <time>2022-05-14 14:28:06</time>
      </trkpt>
      <trkpt lat="9.92855" lon="-84.04247">
        <ele>1230.2</ele>
        <time>2022-05-14 14:28:07</time>
      </trkpt>
      <trkpt lat="9.92855" lon="-84.04247">
        <ele>1230.2</ele>
        <time>2022-05-14 14:28:08</time>
      </trkpt>
      <trkpt lat="9.92859" lon="-84.04246">
        <ele>1230.4</ele>
        <time>2022-05-14 14:28:09</time>
      </trkpt>
      <trkpt lat="9.92862" lon="-84.04247">
        <ele>1230.2</ele>
        <time>2022-05-14 14:28:10</time>
      </trkpt>
      <trkpt lat="9.92865" lon="-84.04247">
        <ele>1230.2</ele>
        <time>2022-05-14 14:28:11</time>
      </trkpt>
      <trkpt lat="9.92873" lon="-84.0425">
        <ele>1230</ele>
        <time>2022-05-14 14:28:12</time>
      </trkpt>
      <trkpt lat="9.92876" lon="-84.04252">
        <ele>1229.8</ele>
        <time>2022-05-14 14:28:13</time>
      </trkpt>
      <trkpt lat="9.9288" lon="-84.04257">
        <ele>1229.6</ele>
        <time>2022-05-14 14:28:14</time>
      </trkpt>
      <trkpt lat="9.92884" lon="-84.04259">
        <ele>1229.4</ele>
        <time>2022-05-14 14:28:15</time>
      </trkpt>
      <trkpt lat="9.92888" lon="-84.04263">
        <ele>1229.2</ele>
        <time>2022-05-14 14:28:16</time>
      </trkpt>
      <trkpt lat="9.92892" lon="-84.04266">
        <ele>1229</ele>
        <time>2022-05-14 14:28:17</time>
      </trkpt>
      <trkpt lat="9.92892" lon="-84.04266">
        <ele>1228.8</ele>
        <time>2022-05-14 14:28:18</time>
      </trkpt>
      <trkpt lat="9.92897" lon="-84.0427">
        <ele>1228.8</ele>
        <time>2022-05-14 14:28:19</time>
      </trkpt>
      <trkpt lat="9.92901" lon="-84.04272">
        <ele>1228.6</ele>
        <time>2022-05-14 14:28:20</time>
      </trkpt>
      <trkpt lat="9.92901" lon="-84.04272">
        <ele>1228.4</ele>
        <time>2022-05-14 14:28:21</time>
      </trkpt>
      <trkpt lat="9.92916" lon="-84.04286">
        <ele>1228.2</ele>
        <time>2022-05-14 14:28:22</time>
      </trkpt>
      <trkpt lat="9.92922" lon="-84.04289">
        <ele>1227.8</ele>
        <time>2022-05-14 14:28:23</time>
      </trkpt>
      <trkpt lat="9.92927" lon="-84.04294">
        <ele>1227.6</ele>
        <time>2022-05-14 14:28:24</time>
      </trkpt>
      <trkpt lat="9.92933" lon="-84.04299">
        <ele>1227.2</ele>
        <time>2022-05-14 14:28:25</time>
      </trkpt>
      <trkpt lat="9.92939" lon="-84.04304">
        <ele>1226.8</ele>
        <time>2022-05-14 14:28:26</time>
      </trkpt>
      <trkpt lat="9.92945" lon="-84.04309">
        <ele>1226.6</ele>
        <time>2022-05-14 14:28:27</time>
      </trkpt>
      <trkpt lat="9.92951" lon="-84.04315">
        <ele>1226.4</ele>
        <time>2022-05-14 14:28:28</time>
      </trkpt>
      <trkpt lat="9.92951" lon="-84.04315">
        <ele>1226.4</ele>
        <time>2022-05-14 14:28:29</time>
      </trkpt>
      <trkpt lat="9.92957" lon="-84.04321">
        <ele>1226</ele>
        <time>2022-05-14 14:28:30</time>
      </trkpt>
      <trkpt lat="9.92962" lon="-84.04326">
        <ele>1226</ele>
        <time>2022-05-14 14:28:31</time>
      </trkpt>
      <trkpt lat="9.92962" lon="-84.04326">
        <ele>1225.6</ele>
        <time>2022-05-14 14:28:32</time>
      </trkpt>
      <trkpt lat="9.92979" lon="-84.04344">
        <ele>1225.6</ele>
        <time>2022-05-14 14:28:33</time>
      </trkpt>
      <trkpt lat="9.92983" lon="-84.04351">
        <ele>1225.4</ele>
        <time>2022-05-14 14:28:34</time>
      </trkpt>
      <trkpt lat="9.92988" lon="-84.04357">
        <ele>1225.4</ele>
        <time>2022-05-14 14:28:35</time>
      </trkpt>
      <trkpt lat="9.92992" lon="-84.04365">
        <ele>1225.2</ele>
        <time>2022-05-14 14:28:36</time>
      </trkpt>
      <trkpt lat="9.92996" lon="-84.04372">
        <ele>1225.4</ele>
        <time>2022-05-14 14:28:37</time>
      </trkpt>
      <trkpt lat="9.92999" lon="-84.04378">
        <ele>1225.4</ele>
        <time>2022-05-14 14:28:38</time>
      </trkpt>
      <trkpt lat="9.92999" lon="-84.04378">
        <ele>1225.6</ele>
        <time>2022-05-14 14:28:39</time>
      </trkpt>
      <trkpt lat="9.93002" lon="-84.04384">
        <ele>1225.6</ele>
        <time>2022-05-14 14:28:40</time>
      </trkpt>
      <trkpt lat="9.93005" lon="-84.04391">
        <ele>1225.8</ele>
        <time>2022-05-14 14:28:41</time>
      </trkpt>
      <trkpt lat="9.93011" lon="-84.04404">
        <ele>1226</ele>
        <time>2022-05-14 14:28:42</time>
      </trkpt>
      <trkpt lat="9.93013" lon="-84.04409">
        <ele>1226.2</ele>
        <time>2022-05-14 14:28:43</time>
      </trkpt>
      <trkpt lat="9.93015" lon="-84.04415">
        <ele>1226.2</ele>
        <time>2022-05-14 14:28:44</time>
      </trkpt>
      <trkpt lat="9.93016" lon="-84.0442">
        <ele>1226.4</ele>
        <time>2022-05-14 14:28:45</time>
      </trkpt>
      <trkpt lat="9.93018" lon="-84.04427">
        <ele>1226.8</ele>
        <time>2022-05-14 14:28:46</time>
      </trkpt>
      <trkpt lat="9.9302" lon="-84.04432">
        <ele>1227.2</ele>
        <time>2022-05-14 14:28:47</time>
      </trkpt>
      <trkpt lat="9.93022" lon="-84.04435">
        <ele>1227.6</ele>
        <time>2022-05-14 14:28:48</time>
      </trkpt>
      <trkpt lat="9.93026" lon="-84.0444">
        <ele>1228</ele>
        <time>2022-05-14 14:28:49</time>
      </trkpt>
      <trkpt lat="9.93026" lon="-84.0444">
        <ele>1228</ele>
        <time>2022-05-14 14:28:50</time>
      </trkpt>
      <trkpt lat="9.93031" lon="-84.04436">
        <ele>1228.6</ele>
        <time>2022-05-14 14:28:51</time>
      </trkpt>
      <trkpt lat="9.93036" lon="-84.04436">
        <ele>1228.8</ele>
        <time>2022-05-14 14:28:52</time>
      </trkpt>
      <trkpt lat="9.93047" lon="-84.04437">
        <ele>1229.2</ele>
        <time>2022-05-14 14:28:53</time>
      </trkpt>
      <trkpt lat="9.93052" lon="-84.04437">
        <ele>1229.6</ele>
        <time>2022-05-14 14:28:54</time>
      </trkpt>
      <trkpt lat="9.93057" lon="-84.04437">
        <ele>1230</ele>
        <time>2022-05-14 14:28:55</time>
      </trkpt>
      <trkpt lat="9.93062" lon="-84.04437">
        <ele>1230.2</ele>
        <time>2022-05-14 14:28:56</time>
      </trkpt>
      <trkpt lat="9.93066" lon="-84.04437">
        <ele>1230.4</ele>
        <time>2022-05-14 14:28:57</time>
      </trkpt>
      <trkpt lat="9.93071" lon="-84.04437">
        <ele>1230.4</ele>
        <time>2022-05-14 14:28:58</time>
      </trkpt>
      <trkpt lat="9.93076" lon="-84.04437">
        <ele>1230.6</ele>
        <time>2022-05-14 14:28:59</time>
      </trkpt>
      <trkpt lat="9.93076" lon="-84.04437">
        <ele>1231</ele>
        <time>2022-05-14 14:29:00</time>
      </trkpt>
      <trkpt lat="9.93081" lon="-84.04437">
        <ele>1231.2</ele>
        <time>2022-05-14 14:29:01</time>
      </trkpt>
      <trkpt lat="9.93081" lon="-84.04437">
        <ele>1231.4</ele>
        <time>2022-05-14 14:29:02</time>
      </trkpt>
      <trkpt lat="9.93096" lon="-84.04437">
        <ele>1231.4</ele>
        <time>2022-05-14 14:29:03</time>
      </trkpt>
      <trkpt lat="9.931" lon="-84.04438">
        <ele>1231.8</ele>
        <time>2022-05-14 14:29:04</time>
      </trkpt>
      <trkpt lat="9.93106" lon="-84.04437">
        <ele>1231.8</ele>
        <time>2022-05-14 14:29:05</time>
      </trkpt>
      <trkpt lat="9.93111" lon="-84.04436">
        <ele>1232</ele>
        <time>2022-05-14 14:29:06</time>
      </trkpt>
      <trkpt lat="9.93117" lon="-84.04436">
        <ele>1232.2</ele>
        <time>2022-05-14 14:29:07</time>
      </trkpt>
      <trkpt lat="9.93122" lon="-84.04435">
        <ele>1232.4</ele>
        <time>2022-05-14 14:29:08</time>
      </trkpt>
      <trkpt lat="9.93128" lon="-84.04434">
        <ele>1232.6</ele>
        <time>2022-05-14 14:29:09</time>
      </trkpt>
      <trkpt lat="9.93133" lon="-84.04434">
        <ele>1232.8</ele>
        <time>2022-05-14 14:29:10</time>
      </trkpt>
      <trkpt lat="9.93133" lon="-84.04434">
        <ele>1232.8</ele>
        <time>2022-05-14 14:29:11</time>
      </trkpt>
      <trkpt lat="9.93138" lon="-84.04433">
        <ele>1233</ele>
        <time>2022-05-14 14:29:12</time>
      </trkpt>
      <trkpt lat="9.93138" lon="-84.04433">
        <ele>1233.2</ele>
        <time>2022-05-14 14:29:13</time>
      </trkpt>
      <trkpt lat="9.93154" lon="-84.04433">
        <ele>1233.2</ele>
        <time>2022-05-14 14:29:14</time>
      </trkpt>
      <trkpt lat="9.93159" lon="-84.04433">
        <ele>1233.4</ele>
        <time>2022-05-14 14:29:15</time>
      </trkpt>
      <trkpt lat="9.93163" lon="-84.04432">
        <ele>1233.6</ele>
        <time>2022-05-14 14:29:16</time>
      </trkpt>
      <trkpt lat="9.93168" lon="-84.04432">
        <ele>1233.6</ele>
        <time>2022-05-14 14:29:17</time>
      </trkpt>
      <trkpt lat="9.93173" lon="-84.04434">
        <ele>1233.8</ele>
        <time>2022-05-14 14:29:18</time>
      </trkpt>
      <trkpt lat="9.93176" lon="-84.04438">
        <ele>1233.8</ele>
        <time>2022-05-14 14:29:19</time>
      </trkpt>
      <trkpt lat="9.93177" lon="-84.04443">
        <ele>1233.8</ele>
        <time>2022-05-14 14:29:20</time>
      </trkpt>
      <trkpt lat="9.93177" lon="-84.04443">
        <ele>1234</ele>
        <time>2022-05-14 14:29:21</time>
      </trkpt>
      <trkpt lat="9.93178" lon="-84.04449">
        <ele>1234</ele>
        <time>2022-05-14 14:29:22</time>
      </trkpt>
      <trkpt lat="9.93178" lon="-84.04449">
        <ele>1233.8</ele>
        <time>2022-05-14 14:29:23</time>
      </trkpt>
      <trkpt lat="9.93182" lon="-84.04465">
        <ele>1233.8</ele>
        <time>2022-05-14 14:29:24</time>
      </trkpt>
      <trkpt lat="9.93182" lon="-84.0447">
        <ele>1233.6</ele>
        <time>2022-05-14 14:29:25</time>
      </trkpt>
      <trkpt lat="9.93183" lon="-84.04476">
        <ele>1233.4</ele>
        <time>2022-05-14 14:29:26</time>
      </trkpt>
      <trkpt lat="9.93184" lon="-84.04481">
        <ele>1233.2</ele>
        <time>2022-05-14 14:29:27</time>
      </trkpt>
      <trkpt lat="9.93185" lon="-84.04487">
        <ele>1233</ele>
        <time>2022-05-14 14:29:28</time>
      </trkpt>
      <trkpt lat="9.93186" lon="-84.04492">
        <ele>1232.8</ele>
        <time>2022-05-14 14:29:29</time>
      </trkpt>
      <trkpt lat="9.93187" lon="-84.04498">
        <ele>1232.8</ele>
        <time>2022-05-14 14:29:30</time>
      </trkpt>
      <trkpt lat="9.93188" lon="-84.04503">
        <ele>1232.6</ele>
        <time>2022-05-14 14:29:31</time>
      </trkpt>
      <trkpt lat="9.93188" lon="-84.04503">
        <ele>1232.6</ele>
        <time>2022-05-14 14:29:32</time>
      </trkpt>
      <trkpt lat="9.93191" lon="-84.04507">
        <ele>1232.4</ele>
        <time>2022-05-14 14:29:33</time>
      </trkpt>
      <trkpt lat="9.93191" lon="-84.04507">
        <ele>1232.4</ele>
        <time>2022-05-14 14:29:34</time>
      </trkpt>
      <trkpt lat="9.93208" lon="-84.04507">
        <ele>1232.4</ele>
        <time>2022-05-14 14:29:35</time>
      </trkpt>
      <trkpt lat="9.93213" lon="-84.04507">
        <ele>1232.4</ele>
        <time>2022-05-14 14:29:36</time>
      </trkpt>
      <trkpt lat="9.93219" lon="-84.04506">
        <ele>1232.4</ele>
        <time>2022-05-14 14:29:37</time>
      </trkpt>
      <trkpt lat="9.93225" lon="-84.04505">
        <ele>1232.4</ele>
        <time>2022-05-14 14:29:38</time>
      </trkpt>
      <trkpt lat="9.93231" lon="-84.04503">
        <ele>1232.8</ele>
        <time>2022-05-14 14:29:39</time>
      </trkpt>
      <trkpt lat="9.93236" lon="-84.04503">
        <ele>1233.2</ele>
        <time>2022-05-14 14:29:40</time>
      </trkpt>
      <trkpt lat="9.93242" lon="-84.04501">
        <ele>1233.6</ele>
        <time>2022-05-14 14:29:41</time>
      </trkpt>
      <trkpt lat="9.93242" lon="-84.04501">
        <ele>1233.6</ele>
        <time>2022-05-14 14:29:42</time>
      </trkpt>
      <trkpt lat="9.93247" lon="-84.04501">
        <ele>1233.8</ele>
        <time>2022-05-14 14:29:43</time>
      </trkpt>
      <trkpt lat="9.93256" lon="-84.045">
        <ele>1233.8</ele>
        <time>2022-05-14 14:29:44</time>
      </trkpt>
      <trkpt lat="9.93261" lon="-84.045">
        <ele>1233.8</ele>
        <time>2022-05-14 14:29:45</time>
      </trkpt>
      <trkpt lat="9.93266" lon="-84.04501">
        <ele>1233.6</ele>
        <time>2022-05-14 14:29:46</time>
      </trkpt>
      <trkpt lat="9.93271" lon="-84.04501">
        <ele>1233.4</ele>
        <time>2022-05-14 14:29:47</time>
      </trkpt>
      <trkpt lat="9.93276" lon="-84.04502">
        <ele>1233</ele>
        <time>2022-05-14 14:29:48</time>
      </trkpt>
      <trkpt lat="9.93282" lon="-84.04503">
        <ele>1232.6</ele>
        <time>2022-05-14 14:29:49</time>
      </trkpt>
      <trkpt lat="9.93288" lon="-84.04505">
        <ele>1232.2</ele>
        <time>2022-05-14 14:29:50</time>
      </trkpt>
      <trkpt lat="9.93295" lon="-84.04507">
        <ele>1231.6</ele>
        <time>2022-05-14 14:29:51</time>
      </trkpt>
      <trkpt lat="9.93302" lon="-84.0451">
        <ele>1231</ele>
        <time>2022-05-14 14:29:52</time>
      </trkpt>
      <trkpt lat="9.93302" lon="-84.0451">
        <ele>1231</ele>
        <time>2022-05-14 14:29:53</time>
      </trkpt>
      <trkpt lat="9.9331" lon="-84.04514">
        <ele>1230.2</ele>
        <time>2022-05-14 14:29:54</time>
      </trkpt>
      <trkpt lat="9.93327" lon="-84.04523">
        <ele>1229.2</ele>
        <time>2022-05-14 14:29:55</time>
      </trkpt>
      <trkpt lat="9.93337" lon="-84.04527">
        <ele>1228.2</ele>
        <time>2022-05-14 14:29:56</time>
      </trkpt>
      <trkpt lat="9.93348" lon="-84.0453">
        <ele>1226.8</ele>
        <time>2022-05-14 14:29:57</time>
      </trkpt>
      <trkpt lat="9.9336" lon="-84.04532">
        <ele>1225.6</ele>
        <time>2022-05-14 14:29:58</time>
      </trkpt>
      <trkpt lat="9.93373" lon="-84.04534">
        <ele>1224</ele>
        <time>2022-05-14 14:29:59</time>
      </trkpt>
      <trkpt lat="9.93385" lon="-84.04536">
        <ele>1222.4</ele>
        <time>2022-05-14 14:30:00</time>
      </trkpt>
      <trkpt lat="9.93398" lon="-84.04536">
        <ele>1221.2</ele>
        <time>2022-05-14 14:30:01</time>
      </trkpt>
      <trkpt lat="9.93408" lon="-84.04534">
        <ele>1220.6</ele>
        <time>2022-05-14 14:30:02</time>
      </trkpt>
      <trkpt lat="9.93408" lon="-84.04534">
        <ele>1220</ele>
        <time>2022-05-14 14:30:03</time>
      </trkpt>
      <trkpt lat="9.93408" lon="-84.04534">
        <ele>1219.4</ele>
        <time>2022-05-14 14:30:04</time>
      </trkpt>
      <trkpt lat="9.93433" lon="-84.04534">
        <ele>1219</ele>
        <time>2022-05-14 14:30:05</time>
      </trkpt>
      <trkpt lat="9.93438" lon="-84.04534">
        <ele>1218.8</ele>
        <time>2022-05-14 14:30:06</time>
      </trkpt>
      <trkpt lat="9.93441" lon="-84.04532">
        <ele>1218.6</ele>
        <time>2022-05-14 14:30:07</time>
      </trkpt>
      <trkpt lat="9.93443" lon="-84.04532">
        <ele>1218.4</ele>
        <time>2022-05-14 14:30:08</time>
      </trkpt>
      <trkpt lat="9.93445" lon="-84.04532">
        <ele>1218.4</ele>
        <time>2022-05-14 14:30:09</time>
      </trkpt>
      <trkpt lat="9.93448" lon="-84.04531">
        <ele>1218.4</ele>
        <time>2022-05-14 14:30:10</time>
      </trkpt>
      <trkpt lat="9.93451" lon="-84.04532">
        <ele>1218.2</ele>
        <time>2022-05-14 14:30:11</time>
      </trkpt>
      <trkpt lat="9.93454" lon="-84.04534">
        <ele>1218.2</ele>
        <time>2022-05-14 14:30:12</time>
      </trkpt>
      <trkpt lat="9.93456" lon="-84.04537">
        <ele>1218</ele>
        <time>2022-05-14 14:30:13</time>
      </trkpt>
      <trkpt lat="9.93456" lon="-84.04537">
        <ele>1218</ele>
        <time>2022-05-14 14:30:14</time>
      </trkpt>
      <trkpt lat="9.93456" lon="-84.04537">
        <ele>1218</ele>
        <time>2022-05-14 14:30:15</time>
      </trkpt>
      <trkpt lat="9.93464" lon="-84.04552">
        <ele>1218.2</ele>
        <time>2022-05-14 14:30:16</time>
      </trkpt>
      <trkpt lat="9.93466" lon="-84.04558">
        <ele>1218</ele>
        <time>2022-05-14 14:30:17</time>
      </trkpt>
      <trkpt lat="9.93468" lon="-84.04564">
        <ele>1217.6</ele>
        <time>2022-05-14 14:30:18</time>
      </trkpt>
      <trkpt lat="9.93469" lon="-84.0457">
        <ele>1217.4</ele>
        <time>2022-05-14 14:30:19</time>
      </trkpt>
      <trkpt lat="9.93471" lon="-84.04575">
        <ele>1217.4</ele>
        <time>2022-05-14 14:30:20</time>
      </trkpt>
      <trkpt lat="9.93472" lon="-84.04582">
        <ele>1217.6</ele>
        <time>2022-05-14 14:30:21</time>
      </trkpt>
      <trkpt lat="9.93473" lon="-84.04589">
        <ele>1217.4</ele>
        <time>2022-05-14 14:30:22</time>
      </trkpt>
      <trkpt lat="9.93474" lon="-84.04596">
        <ele>1217.2</ele>
        <time>2022-05-14 14:30:23</time>
      </trkpt>
      <trkpt lat="9.93474" lon="-84.04596">
        <ele>1217.2</ele>
        <time>2022-05-14 14:30:24</time>
      </trkpt>
      <trkpt lat="9.93477" lon="-84.0461">
        <ele>1217</ele>
        <time>2022-05-14 14:30:25</time>
      </trkpt>
      <trkpt lat="9.93479" lon="-84.04618">
        <ele>1216.8</ele>
        <time>2022-05-14 14:30:26</time>
      </trkpt>
      <trkpt lat="9.9348" lon="-84.04626">
        <ele>1216.6</ele>
        <time>2022-05-14 14:30:27</time>
      </trkpt>
      <trkpt lat="9.93482" lon="-84.04633">
        <ele>1216.4</ele>
        <time>2022-05-14 14:30:28</time>
      </trkpt>
      <trkpt lat="9.93484" lon="-84.04641">
        <ele>1216.2</ele>
        <time>2022-05-14 14:30:29</time>
      </trkpt>
      <trkpt lat="9.93485" lon="-84.04649">
        <ele>1216</ele>
        <time>2022-05-14 14:30:30</time>
      </trkpt>
      <trkpt lat="9.93487" lon="-84.04657">
        <ele>1215.8</ele>
        <time>2022-05-14 14:30:31</time>
      </trkpt>
      <trkpt lat="9.93488" lon="-84.04665">
        <ele>1215.6</ele>
        <time>2022-05-14 14:30:32</time>
      </trkpt>
      <trkpt lat="9.93488" lon="-84.04674">
        <ele>1215.4</ele>
        <time>2022-05-14 14:30:33</time>
      </trkpt>
      <trkpt lat="9.9349" lon="-84.04682">
        <ele>1215</ele>
        <time>2022-05-14 14:30:34</time>
      </trkpt>
      <trkpt lat="9.9349" lon="-84.04682">
        <ele>1215</ele>
        <time>2022-05-14 14:30:35</time>
      </trkpt>
      <trkpt lat="9.9349" lon="-84.04682">
        <ele>1214.8</ele>
        <time>2022-05-14 14:30:36</time>
      </trkpt>
      <trkpt lat="9.93491" lon="-84.04706">
        <ele>1214.6</ele>
        <time>2022-05-14 14:30:37</time>
      </trkpt>
      <trkpt lat="9.93493" lon="-84.04713">
        <ele>1214.6</ele>
        <time>2022-05-14 14:30:38</time>
      </trkpt>
      <trkpt lat="9.93495" lon="-84.04721">
        <ele>1214.4</ele>
        <time>2022-05-14 14:30:39</time>
      </trkpt>
      <trkpt lat="9.93496" lon="-84.04729">
        <ele>1214.4</ele>
        <time>2022-05-14 14:30:40</time>
      </trkpt>
      <trkpt lat="9.93498" lon="-84.04737">
        <ele>1214</ele>
        <time>2022-05-14 14:30:41</time>
      </trkpt>
      <trkpt lat="9.93501" lon="-84.04745">
        <ele>1214</ele>
        <time>2022-05-14 14:30:42</time>
      </trkpt>
      <trkpt lat="9.93503" lon="-84.04752">
        <ele>1213.6</ele>
        <time>2022-05-14 14:30:43</time>
      </trkpt>
      <trkpt lat="9.93506" lon="-84.04759">
        <ele>1213.6</ele>
        <time>2022-05-14 14:30:44</time>
      </trkpt>
      <trkpt lat="9.93506" lon="-84.04759">
        <ele>1213.4</ele>
        <time>2022-05-14 14:30:45</time>
      </trkpt>
      <trkpt lat="9.93511" lon="-84.04773">
        <ele>1213.4</ele>
        <time>2022-05-14 14:30:46</time>
      </trkpt>
      <trkpt lat="9.93516" lon="-84.04777">
        <ele>1213</ele>
        <time>2022-05-14 14:30:47</time>
      </trkpt>
      <trkpt lat="9.93523" lon="-84.04778">
        <ele>1212.8</ele>
        <time>2022-05-14 14:30:48</time>
      </trkpt>
      <trkpt lat="9.93529" lon="-84.04773">
        <ele>1212.6</ele>
        <time>2022-05-14 14:30:49</time>
      </trkpt>
      <trkpt lat="9.93534" lon="-84.04768">
        <ele>1212.8</ele>
        <time>2022-05-14 14:30:50</time>
      </trkpt>
      <trkpt lat="9.93537" lon="-84.04764">
        <ele>1213</ele>
        <time>2022-05-14 14:30:51</time>
      </trkpt>
      <trkpt lat="9.93541" lon="-84.04759">
        <ele>1213.2</ele>
        <time>2022-05-14 14:30:52</time>
      </trkpt>
      <trkpt lat="9.93545" lon="-84.04756">
        <ele>1213.6</ele>
        <time>2022-05-14 14:30:53</time>
      </trkpt>
      <trkpt lat="9.9355" lon="-84.04752">
        <ele>1213.8</ele>
        <time>2022-05-14 14:30:54</time>
      </trkpt>
      <trkpt lat="9.9355" lon="-84.04752">
        <ele>1214</ele>
        <time>2022-05-14 14:30:55</time>
      </trkpt>
      <trkpt lat="9.9355" lon="-84.04752">
        <ele>1214</ele>
        <time>2022-05-14 14:30:56</time>
      </trkpt>
      <trkpt lat="9.93561" lon="-84.04736">
        <ele>1214.2</ele>
        <time>2022-05-14 14:30:57</time>
      </trkpt>
      <trkpt lat="9.93565" lon="-84.04733">
        <ele>1214.6</ele>
        <time>2022-05-14 14:30:58</time>
      </trkpt>
      <trkpt lat="9.93568" lon="-84.04729">
        <ele>1214.8</ele>
        <time>2022-05-14 14:30:59</time>
      </trkpt>
      <trkpt lat="9.93571" lon="-84.04726">
        <ele>1215</ele>
        <time>2022-05-14 14:31:00</time>
      </trkpt>
      <trkpt lat="9.93574" lon="-84.04723">
        <ele>1215.2</ele>
        <time>2022-05-14 14:31:01</time>
      </trkpt>
      <trkpt lat="9.93578" lon="-84.04721">
        <ele>1215.6</ele>
        <time>2022-05-14 14:31:02</time>
      </trkpt>
      <trkpt lat="9.93582" lon="-84.0472">
        <ele>1215.8</ele>
        <time>2022-05-14 14:31:03</time>
      </trkpt>
      <trkpt lat="9.93587" lon="-84.0472">
        <ele>1216.2</ele>
        <time>2022-05-14 14:31:04</time>
      </trkpt>
      <trkpt lat="9.93587" lon="-84.0472">
        <ele>1216.2</ele>
        <time>2022-05-14 14:31:05</time>
      </trkpt>
      <trkpt lat="9.93596" lon="-84.0472">
        <ele>1216.4</ele>
        <time>2022-05-14 14:31:06</time>
      </trkpt>
      <trkpt lat="9.93602" lon="-84.0472">
        <ele>1216.4</ele>
        <time>2022-05-14 14:31:07</time>
      </trkpt>
      <trkpt lat="9.93607" lon="-84.04721">
        <ele>1216.6</ele>
        <time>2022-05-14 14:31:08</time>
      </trkpt>
      <trkpt lat="9.93612" lon="-84.04722">
        <ele>1216.6</ele>
        <time>2022-05-14 14:31:09</time>
      </trkpt>
      <trkpt lat="9.93618" lon="-84.04722">
        <ele>1216.8</ele>
        <time>2022-05-14 14:31:10</time>
      </trkpt>
      <trkpt lat="9.93623" lon="-84.04722">
        <ele>1216.6</ele>
        <time>2022-05-14 14:31:11</time>
      </trkpt>
      <trkpt lat="9.93628" lon="-84.04721">
        <ele>1216.4</ele>
        <time>2022-05-14 14:31:12</time>
      </trkpt>
      <trkpt lat="9.93633" lon="-84.04721">
        <ele>1216.2</ele>
        <time>2022-05-14 14:31:13</time>
      </trkpt>
      <trkpt lat="9.93639" lon="-84.0472">
        <ele>1216</ele>
        <time>2022-05-14 14:31:14</time>
      </trkpt>
      <trkpt lat="9.93645" lon="-84.04718">
        <ele>1216</ele>
        <time>2022-05-14 14:31:15</time>
      </trkpt>
      <trkpt lat="9.93645" lon="-84.04718">
        <ele>1215.8</ele>
        <time>2022-05-14 14:31:16</time>
      </trkpt>
      <trkpt lat="9.93657" lon="-84.04715">
        <ele>1215.8</ele>
        <time>2022-05-14 14:31:17</time>
      </trkpt>
      <trkpt lat="9.93664" lon="-84.04713">
        <ele>1215.8</ele>
        <time>2022-05-14 14:31:18</time>
      </trkpt>
      <trkpt lat="9.93671" lon="-84.04712">
        <ele>1215.4</ele>
        <time>2022-05-14 14:31:19</time>
      </trkpt>
      <trkpt lat="9.93678" lon="-84.04711">
        <ele>1215.2</ele>
        <time>2022-05-14 14:31:20</time>
      </trkpt>
      <trkpt lat="9.93685" lon="-84.04709">
        <ele>1215</ele>
        <time>2022-05-14 14:31:21</time>
      </trkpt>
      <trkpt lat="9.93693" lon="-84.04707">
        <ele>1214.8</ele>
        <time>2022-05-14 14:31:22</time>
      </trkpt>
      <trkpt lat="9.937" lon="-84.04707">
        <ele>1214.6</ele>
        <time>2022-05-14 14:31:23</time>
      </trkpt>
      <trkpt lat="9.93708" lon="-84.04706">
        <ele>1214.4</ele>
        <time>2022-05-14 14:31:24</time>
      </trkpt>
      <trkpt lat="9.93715" lon="-84.04708">
        <ele>1214.2</ele>
        <time>2022-05-14 14:31:25</time>
      </trkpt>
      <trkpt lat="9.93715" lon="-84.04708">
        <ele>1214.2</ele>
        <time>2022-05-14 14:31:26</time>
      </trkpt>
      <trkpt lat="9.93728" lon="-84.04718">
        <ele>1214</ele>
        <time>2022-05-14 14:31:27</time>
      </trkpt>
      <trkpt lat="9.93733" lon="-84.04723">
        <ele>1213.8</ele>
        <time>2022-05-14 14:31:28</time>
      </trkpt>
      <trkpt lat="9.93738" lon="-84.04729">
        <ele>1213.6</ele>
        <time>2022-05-14 14:31:29</time>
      </trkpt>
      <trkpt lat="9.93742" lon="-84.04736">
        <ele>1213.6</ele>
        <time>2022-05-14 14:31:30</time>
      </trkpt>
      <trkpt lat="9.93747" lon="-84.04742">
        <ele>1213.8</ele>
        <time>2022-05-14 14:31:31</time>
      </trkpt>
      <trkpt lat="9.93752" lon="-84.04749">
        <ele>1213.8</ele>
        <time>2022-05-14 14:31:32</time>
      </trkpt>
      <trkpt lat="9.93756" lon="-84.04754">
        <ele>1214</ele>
        <time>2022-05-14 14:31:33</time>
      </trkpt>
      <trkpt lat="9.93761" lon="-84.0476">
        <ele>1214.4</ele>
        <time>2022-05-14 14:31:34</time>
      </trkpt>
      <trkpt lat="9.93765" lon="-84.04765">
        <ele>1214.6</ele>
        <time>2022-05-14 14:31:35</time>
      </trkpt>
      <trkpt lat="9.9377" lon="-84.04769">
        <ele>1215.2</ele>
        <time>2022-05-14 14:31:36</time>
      </trkpt>
      <trkpt lat="9.9377" lon="-84.04769">
        <ele>1215.6</ele>
        <time>2022-05-14 14:31:37</time>
      </trkpt>
      <trkpt lat="9.9378" lon="-84.04776">
        <ele>1215.6</ele>
        <time>2022-05-14 14:31:38</time>
      </trkpt>
      <trkpt lat="9.93785" lon="-84.04779">
        <ele>1216.2</ele>
        <time>2022-05-14 14:31:39</time>
      </trkpt>
      <trkpt lat="9.9379" lon="-84.04781">
        <ele>1216.6</ele>
        <time>2022-05-14 14:31:40</time>
      </trkpt>
      <trkpt lat="9.93795" lon="-84.04783">
        <ele>1217.2</ele>
        <time>2022-05-14 14:31:41</time>
      </trkpt>
      <trkpt lat="9.93799" lon="-84.04787">
        <ele>1217.6</ele>
        <time>2022-05-14 14:31:42</time>
      </trkpt>
      <trkpt lat="9.93803" lon="-84.04789">
        <ele>1217.8</ele>
        <time>2022-05-14 14:31:43</time>
      </trkpt>
      <trkpt lat="9.93808" lon="-84.04791">
        <ele>1218</ele>
        <time>2022-05-14 14:31:44</time>
      </trkpt>
      <trkpt lat="9.93814" lon="-84.04794">
        <ele>1218</ele>
        <time>2022-05-14 14:31:45</time>
      </trkpt>
      <trkpt lat="9.93814" lon="-84.04794">
        <ele>1217.8</ele>
        <time>2022-05-14 14:31:46</time>
      </trkpt>
      <trkpt lat="9.93814" lon="-84.04794">
        <ele>1217.8</ele>
        <time>2022-05-14 14:31:47</time>
      </trkpt>
      <trkpt lat="9.93829" lon="-84.04807">
        <ele>1217.6</ele>
        <time>2022-05-14 14:31:48</time>
      </trkpt>
      <trkpt lat="9.93834" lon="-84.04812">
        <ele>1217.4</ele>
        <time>2022-05-14 14:31:49</time>
      </trkpt>
      <trkpt lat="9.93838" lon="-84.04818">
        <ele>1217.2</ele>
        <time>2022-05-14 14:31:50</time>
      </trkpt>
      <trkpt lat="9.93843" lon="-84.04825">
        <ele>1216.8</ele>
        <time>2022-05-14 14:31:51</time>
      </trkpt>
      <trkpt lat="9.93846" lon="-84.04832">
        <ele>1216.6</ele>
        <time>2022-05-14 14:31:52</time>
      </trkpt>
      <trkpt lat="9.93851" lon="-84.04839">
        <ele>1216</ele>
        <time>2022-05-14 14:31:53</time>
      </trkpt>
      <trkpt lat="9.93855" lon="-84.04846">
        <ele>1215.6</ele>
        <time>2022-05-14 14:31:54</time>
      </trkpt>
      <trkpt lat="9.93859" lon="-84.04854">
        <ele>1215.2</ele>
        <time>2022-05-14 14:31:55</time>
      </trkpt>
      <trkpt lat="9.93863" lon="-84.04862">
        <ele>1214.8</ele>
        <time>2022-05-14 14:31:56</time>
      </trkpt>
      <trkpt lat="9.93863" lon="-84.04862">
        <ele>1214.4</ele>
        <time>2022-05-14 14:31:57</time>
      </trkpt>
      <trkpt lat="9.93863" lon="-84.04862">
        <ele>1214</ele>
        <time>2022-05-14 14:31:58</time>
      </trkpt>
      <trkpt lat="9.93876" lon="-84.04886">
        <ele>1214</ele>
        <time>2022-05-14 14:31:59</time>
      </trkpt>
      <trkpt lat="9.93881" lon="-84.04893">
        <ele>1213.4</ele>
        <time>2022-05-14 14:32:00</time>
      </trkpt>
      <trkpt lat="9.93886" lon="-84.04901">
        <ele>1213</ele>
        <time>2022-05-14 14:32:01</time>
      </trkpt>
      <trkpt lat="9.93891" lon="-84.04909">
        <ele>1212.4</ele>
        <time>2022-05-14 14:32:02</time>
      </trkpt>
      <trkpt lat="9.93897" lon="-84.04915">
        <ele>1212</ele>
        <time>2022-05-14 14:32:03</time>
      </trkpt>
      <trkpt lat="9.93902" lon="-84.04923">
        <ele>1211.8</ele>
        <time>2022-05-14 14:32:04</time>
      </trkpt>
      <trkpt lat="9.93907" lon="-84.04931">
        <ele>1211.6</ele>
        <time>2022-05-14 14:32:05</time>
      </trkpt>
      <trkpt lat="9.93912" lon="-84.04937">
        <ele>1211.6</ele>
        <time>2022-05-14 14:32:06</time>
      </trkpt>
      <trkpt lat="9.93912" lon="-84.04937">
        <ele>1211.6</ele>
        <time>2022-05-14 14:32:07</time>
      </trkpt>
      <trkpt lat="9.93912" lon="-84.04937">
        <ele>1211.8</ele>
        <time>2022-05-14 14:32:08</time>
      </trkpt>
      <trkpt lat="9.93925" lon="-84.04956">
        <ele>1212</ele>
        <time>2022-05-14 14:32:09</time>
      </trkpt>
      <trkpt lat="9.93929" lon="-84.04962">
        <ele>1212.2</ele>
        <time>2022-05-14 14:32:10</time>
      </trkpt>
      <trkpt lat="9.93933" lon="-84.04967">
        <ele>1212.6</ele>
        <time>2022-05-14 14:32:11</time>
      </trkpt>
      <trkpt lat="9.93936" lon="-84.04973">
        <ele>1212.8</ele>
        <time>2022-05-14 14:32:12</time>
      </trkpt>
      <trkpt lat="9.93941" lon="-84.04978">
        <ele>1213</ele>
        <time>2022-05-14 14:32:13</time>
      </trkpt>
      <trkpt lat="9.93945" lon="-84.04981">
        <ele>1213.4</ele>
        <time>2022-05-14 14:32:14</time>
      </trkpt>
      <trkpt lat="9.93953" lon="-84.04978">
        <ele>1213.6</ele>
        <time>2022-05-14 14:32:15</time>
      </trkpt>
      <trkpt lat="9.93959" lon="-84.04976">
        <ele>1213.8</ele>
        <time>2022-05-14 14:32:16</time>
      </trkpt>
      <trkpt lat="9.93965" lon="-84.04973">
        <ele>1214</ele>
        <time>2022-05-14 14:32:17</time>
      </trkpt>
      <trkpt lat="9.93965" lon="-84.04973">
        <ele>1214.2</ele>
        <time>2022-05-14 14:32:18</time>
      </trkpt>
      <trkpt lat="9.93976" lon="-84.04969">
        <ele>1214.6</ele>
        <time>2022-05-14 14:32:19</time>
      </trkpt>
      <trkpt lat="9.93981" lon="-84.04967">
        <ele>1214.6</ele>
        <time>2022-05-14 14:32:20</time>
      </trkpt>
      <trkpt lat="9.93987" lon="-84.04964">
        <ele>1214.8</ele>
        <time>2022-05-14 14:32:21</time>
      </trkpt>
      <trkpt lat="9.93993" lon="-84.04962">
        <ele>1215.2</ele>
        <time>2022-05-14 14:32:22</time>
      </trkpt>
      <trkpt lat="9.93998" lon="-84.04958">
        <ele>1215.4</ele>
        <time>2022-05-14 14:32:23</time>
      </trkpt>
      <trkpt lat="9.94004" lon="-84.04955">
        <ele>1215.6</ele>
        <time>2022-05-14 14:32:24</time>
      </trkpt>
      <trkpt lat="9.9401" lon="-84.04952">
        <ele>1215.8</ele>
        <time>2022-05-14 14:32:25</time>
      </trkpt>
      <trkpt lat="9.94016" lon="-84.0495">
        <ele>1216</ele>
        <time>2022-05-14 14:32:26</time>
      </trkpt>
      <trkpt lat="9.94021" lon="-84.04948">
        <ele>1216.4</ele>
        <time>2022-05-14 14:32:27</time>
      </trkpt>
      <trkpt lat="9.94021" lon="-84.04948">
        <ele>1216.6</ele>
        <time>2022-05-14 14:32:28</time>
      </trkpt>
      <trkpt lat="9.94032" lon="-84.04942">
        <ele>1216.8</ele>
        <time>2022-05-14 14:32:29</time>
      </trkpt>
      <trkpt lat="9.94037" lon="-84.0494">
        <ele>1216.6</ele>
        <time>2022-05-14 14:32:30</time>
      </trkpt>
      <trkpt lat="9.94042" lon="-84.04938">
        <ele>1216.6</ele>
        <time>2022-05-14 14:32:31</time>
      </trkpt>
      <trkpt lat="9.94046" lon="-84.04935">
        <ele>1216.8</ele>
        <time>2022-05-14 14:32:32</time>
      </trkpt>
      <trkpt lat="9.94051" lon="-84.04933">
        <ele>1216.8</ele>
        <time>2022-05-14 14:32:33</time>
      </trkpt>
      <trkpt lat="9.94056" lon="-84.04933">
        <ele>1216.8</ele>
        <time>2022-05-14 14:32:34</time>
      </trkpt>
      <trkpt lat="9.9406" lon="-84.04935">
        <ele>1217</ele>
        <time>2022-05-14 14:32:35</time>
      </trkpt>
      <trkpt lat="9.94063" lon="-84.04937">
        <ele>1217</ele>
        <time>2022-05-14 14:32:36</time>
      </trkpt>
      <trkpt lat="9.94066" lon="-84.04941">
        <ele>1217</ele>
        <time>2022-05-14 14:32:37</time>
      </trkpt>
      <trkpt lat="9.94066" lon="-84.04941">
        <ele>1217</ele>
        <time>2022-05-14 14:32:38</time>
      </trkpt>
      <trkpt lat="9.94066" lon="-84.04941">
        <ele>1217.2</ele>
        <time>2022-05-14 14:32:39</time>
      </trkpt>
      <trkpt lat="9.94074" lon="-84.04955">
        <ele>1217.4</ele>
        <time>2022-05-14 14:32:40</time>
      </trkpt>
      <trkpt lat="9.94077" lon="-84.0496">
        <ele>1217.4</ele>
        <time>2022-05-14 14:32:41</time>
      </trkpt>
      <trkpt lat="9.94081" lon="-84.04964">
        <ele>1217.6</ele>
        <time>2022-05-14 14:32:42</time>
      </trkpt>
      <trkpt lat="9.94085" lon="-84.0497">
        <ele>1217.6</ele>
        <time>2022-05-14 14:32:43</time>
      </trkpt>
      <trkpt lat="9.94088" lon="-84.04974">
        <ele>1217.6</ele>
        <time>2022-05-14 14:32:44</time>
      </trkpt>
      <trkpt lat="9.94092" lon="-84.04979">
        <ele>1217.8</ele>
        <time>2022-05-14 14:32:45</time>
      </trkpt>
      <trkpt lat="9.94096" lon="-84.04984">
        <ele>1218</ele>
        <time>2022-05-14 14:32:46</time>
      </trkpt>
      <trkpt lat="9.94098" lon="-84.04989">
        <ele>1218</ele>
        <time>2022-05-14 14:32:47</time>
      </trkpt>
      <trkpt lat="9.94098" lon="-84.04989">
        <ele>1218.2</ele>
        <time>2022-05-14 14:32:48</time>
      </trkpt>
      <trkpt lat="9.94098" lon="-84.04989">
        <ele>1218.2</ele>
        <time>2022-05-14 14:32:49</time>
      </trkpt>
      <trkpt lat="9.94095" lon="-84.05004">
        <ele>1218.4</ele>
        <time>2022-05-14 14:32:50</time>
      </trkpt>
      <trkpt lat="9.94091" lon="-84.05009">
        <ele>1218.4</ele>
        <time>2022-05-14 14:32:51</time>
      </trkpt>
      <trkpt lat="9.94087" lon="-84.05013">
        <ele>1218.4</ele>
        <time>2022-05-14 14:32:52</time>
      </trkpt>
      <trkpt lat="9.94084" lon="-84.05016">
        <ele>1218.4</ele>
        <time>2022-05-14 14:32:53</time>
      </trkpt>
      <trkpt lat="9.94081" lon="-84.05021">
        <ele>1218.4</ele>
        <time>2022-05-14 14:32:54</time>
      </trkpt>
      <trkpt lat="9.94077" lon="-84.05026">
        <ele>1218.2</ele>
        <time>2022-05-14 14:32:55</time>
      </trkpt>
      <trkpt lat="9.94073" lon="-84.05031">
        <ele>1218.2</ele>
        <time>2022-05-14 14:32:56</time>
      </trkpt>
      <trkpt lat="9.9407" lon="-84.05036">
        <ele>1218.2</ele>
        <time>2022-05-14 14:32:57</time>
      </trkpt>
      <trkpt lat="9.94067" lon="-84.05041">
        <ele>1218.4</ele>
        <time>2022-05-14 14:32:58</time>
      </trkpt>
      <trkpt lat="9.94067" lon="-84.05041">
        <ele>1218.4</ele>
        <time>2022-05-14 14:32:59</time>
      </trkpt>
      <trkpt lat="9.94063" lon="-84.05052">
        <ele>1218.4</ele>
        <time>2022-05-14 14:33:00</time>
      </trkpt>
      <trkpt lat="9.9406" lon="-84.05058">
        <ele>1218.4</ele>
        <time>2022-05-14 14:33:01</time>
      </trkpt>
      <trkpt lat="9.94058" lon="-84.05065">
        <ele>1218.4</ele>
        <time>2022-05-14 14:33:02</time>
      </trkpt>
      <trkpt lat="9.94057" lon="-84.0507">
        <ele>1218.2</ele>
        <time>2022-05-14 14:33:03</time>
      </trkpt>
      <trkpt lat="9.94054" lon="-84.05075">
        <ele>1218.2</ele>
        <time>2022-05-14 14:33:04</time>
      </trkpt>
      <trkpt lat="9.94051" lon="-84.05081">
        <ele>1218.2</ele>
        <time>2022-05-14 14:33:05</time>
      </trkpt>
      <trkpt lat="9.94049" lon="-84.05086">
        <ele>1218.2</ele>
        <time>2022-05-14 14:33:06</time>
      </trkpt>
      <trkpt lat="9.94048" lon="-84.05091">
        <ele>1218.2</ele>
        <time>2022-05-14 14:33:07</time>
      </trkpt>
      <trkpt lat="9.94045" lon="-84.05096">
        <ele>1218.2</ele>
        <time>2022-05-14 14:33:08</time>
      </trkpt>
      <trkpt lat="9.94045" lon="-84.05096">
        <ele>1218</ele>
        <time>2022-05-14 14:33:09</time>
      </trkpt>
      <trkpt lat="9.94041" lon="-84.05105">
        <ele>1218</ele>
        <time>2022-05-14 14:33:10</time>
      </trkpt>
      <trkpt lat="9.94038" lon="-84.05111">
        <ele>1217.8</ele>
        <time>2022-05-14 14:33:11</time>
      </trkpt>
      <trkpt lat="9.94035" lon="-84.05116">
        <ele>1217.8</ele>
        <time>2022-05-14 14:33:12</time>
      </trkpt>
      <trkpt lat="9.94032" lon="-84.05121">
        <ele>1217.8</ele>
        <time>2022-05-14 14:33:13</time>
      </trkpt>
      <trkpt lat="9.94029" lon="-84.05125">
        <ele>1217.6</ele>
        <time>2022-05-14 14:33:14</time>
      </trkpt>
      <trkpt lat="9.94026" lon="-84.0513">
        <ele>1217.4</ele>
        <time>2022-05-14 14:33:15</time>
      </trkpt>
      <trkpt lat="9.94022" lon="-84.05135">
        <ele>1217.4</ele>
        <time>2022-05-14 14:33:16</time>
      </trkpt>
      <trkpt lat="9.94019" lon="-84.05141">
        <ele>1217.2</ele>
        <time>2022-05-14 14:33:17</time>
      </trkpt>
      <trkpt lat="9.94016" lon="-84.05146">
        <ele>1217.2</ele>
        <time>2022-05-14 14:33:18</time>
      </trkpt>
      <trkpt lat="9.94012" lon="-84.05151">
        <ele>1217</ele>
        <time>2022-05-14 14:33:19</time>
      </trkpt>
      <trkpt lat="9.94012" lon="-84.05151">
        <ele>1216.8</ele>
        <time>2022-05-14 14:33:20</time>
      </trkpt>
      <trkpt lat="9.94005" lon="-84.05161">
        <ele>1216.8</ele>
        <time>2022-05-14 14:33:21</time>
      </trkpt>
      <trkpt lat="9.94002" lon="-84.05168">
        <ele>1216.6</ele>
        <time>2022-05-14 14:33:22</time>
      </trkpt>
      <trkpt lat="9.93998" lon="-84.05173">
        <ele>1216.6</ele>
        <time>2022-05-14 14:33:23</time>
      </trkpt>
      <trkpt lat="9.93995" lon="-84.05177">
        <ele>1216.4</ele>
        <time>2022-05-14 14:33:24</time>
      </trkpt>
      <trkpt lat="9.93991" lon="-84.05184">
        <ele>1216.2</ele>
        <time>2022-05-14 14:33:25</time>
      </trkpt>
      <trkpt lat="9.93989" lon="-84.0519">
        <ele>1216</ele>
        <time>2022-05-14 14:33:26</time>
      </trkpt>
      <trkpt lat="9.93992" lon="-84.05195">
        <ele>1215.8</ele>
        <time>2022-05-14 14:33:27</time>
      </trkpt>
      <trkpt lat="9.93995" lon="-84.05198">
        <ele>1215.4</ele>
        <time>2022-05-14 14:33:28</time>
      </trkpt>
      <trkpt lat="9.93995" lon="-84.05198">
        <ele>1214.8</ele>
        <time>2022-05-14 14:33:29</time>
      </trkpt>
      <trkpt lat="9.93995" lon="-84.05198">
        <ele>1214.4</ele>
        <time>2022-05-14 14:33:30</time>
      </trkpt>
      <trkpt lat="9.94016" lon="-84.05199">
        <ele>1213.8</ele>
        <time>2022-05-14 14:33:31</time>
      </trkpt>
      <trkpt lat="9.94024" lon="-84.05199">
        <ele>1213.6</ele>
        <time>2022-05-14 14:33:32</time>
      </trkpt>
      <trkpt lat="9.94032" lon="-84.05198">
        <ele>1213</ele>
        <time>2022-05-14 14:33:33</time>
      </trkpt>
      <trkpt lat="9.9404" lon="-84.05198">
        <ele>1212.6</ele>
        <time>2022-05-14 14:33:34</time>
      </trkpt>
      <trkpt lat="9.9405" lon="-84.05197">
        <ele>1212</ele>
        <time>2022-05-14 14:33:35</time>
      </trkpt>
      <trkpt lat="9.94059" lon="-84.05197">
        <ele>1211.2</ele>
        <time>2022-05-14 14:33:36</time>
      </trkpt>
      <trkpt lat="9.94069" lon="-84.05197">
        <ele>1210.6</ele>
        <time>2022-05-14 14:33:37</time>
      </trkpt>
      <trkpt lat="9.9408" lon="-84.05195">
        <ele>1209.8</ele>
        <time>2022-05-14 14:33:38</time>
      </trkpt>
      <trkpt lat="9.9409" lon="-84.05195">
        <ele>1209</ele>
        <time>2022-05-14 14:33:39</time>
      </trkpt>
      <trkpt lat="9.9409" lon="-84.05195">
        <ele>1207.8</ele>
        <time>2022-05-14 14:33:40</time>
      </trkpt>
      <trkpt lat="9.9409" lon="-84.05195">
        <ele>1207</ele>
        <time>2022-05-14 14:33:41</time>
      </trkpt>
      <trkpt lat="9.94124" lon="-84.05195">
        <ele>1206.2</ele>
        <time>2022-05-14 14:33:42</time>
      </trkpt>
      <trkpt lat="9.94135" lon="-84.05194">
        <ele>1205.6</ele>
        <time>2022-05-14 14:33:43</time>
      </trkpt>
      <trkpt lat="9.94147" lon="-84.05193">
        <ele>1205.6</ele>
        <time>2022-05-14 14:33:44</time>
      </trkpt>
      <trkpt lat="9.94158" lon="-84.05193">
        <ele>1205.2</ele>
        <time>2022-05-14 14:33:45</time>
      </trkpt>
      <trkpt lat="9.94169" lon="-84.05193">
        <ele>1204.6</ele>
        <time>2022-05-14 14:33:46</time>
      </trkpt>
      <trkpt lat="9.9418" lon="-84.05192">
        <ele>1204.2</ele>
        <time>2022-05-14 14:33:47</time>
      </trkpt>
      <trkpt lat="9.9419" lon="-84.0519">
        <ele>1203.8</ele>
        <time>2022-05-14 14:33:48</time>
      </trkpt>
      <trkpt lat="9.94201" lon="-84.05188">
        <ele>1203.6</ele>
        <time>2022-05-14 14:33:49</time>
      </trkpt>
      <trkpt lat="9.94201" lon="-84.05188">
        <ele>1203.4</ele>
        <time>2022-05-14 14:33:50</time>
      </trkpt>
      <trkpt lat="9.94219" lon="-84.05178">
        <ele>1203.2</ele>
        <time>2022-05-14 14:33:51</time>
      </trkpt>
      <trkpt lat="9.94227" lon="-84.05172">
        <ele>1203.2</ele>
        <time>2022-05-14 14:33:52</time>
      </trkpt>
      <trkpt lat="9.94235" lon="-84.05165">
        <ele>1203.2</ele>
        <time>2022-05-14 14:33:53</time>
      </trkpt>
      <trkpt lat="9.94242" lon="-84.05158">
        <ele>1203.2</ele>
        <time>2022-05-14 14:33:54</time>
      </trkpt>
      <trkpt lat="9.9425" lon="-84.05151">
        <ele>1203</ele>
        <time>2022-05-14 14:33:55</time>
      </trkpt>
      <trkpt lat="9.94257" lon="-84.05145">
        <ele>1202.8</ele>
        <time>2022-05-14 14:33:56</time>
      </trkpt>
      <trkpt lat="9.94263" lon="-84.05139">
        <ele>1202.8</ele>
        <time>2022-05-14 14:33:57</time>
      </trkpt>
      <trkpt lat="9.9427" lon="-84.05132">
        <ele>1202.6</ele>
        <time>2022-05-14 14:33:58</time>
      </trkpt>
      <trkpt lat="9.94277" lon="-84.05125">
        <ele>1202.6</ele>
        <time>2022-05-14 14:33:59</time>
      </trkpt>
      <trkpt lat="9.94284" lon="-84.05119">
        <ele>1202.4</ele>
        <time>2022-05-14 14:34:00</time>
      </trkpt>
      <trkpt lat="9.94284" lon="-84.05119">
        <ele>1202.4</ele>
        <time>2022-05-14 14:34:01</time>
      </trkpt>
      <trkpt lat="9.94297" lon="-84.05106">
        <ele>1202.2</ele>
        <time>2022-05-14 14:34:02</time>
      </trkpt>
      <trkpt lat="9.94304" lon="-84.051">
        <ele>1202.2</ele>
        <time>2022-05-14 14:34:03</time>
      </trkpt>
      <trkpt lat="9.94311" lon="-84.05094">
        <ele>1202</ele>
        <time>2022-05-14 14:34:04</time>
      </trkpt>
      <trkpt lat="9.94319" lon="-84.0509">
        <ele>1202</ele>
        <time>2022-05-14 14:34:05</time>
      </trkpt>
      <trkpt lat="9.94327" lon="-84.05088">
        <ele>1202</ele>
        <time>2022-05-14 14:34:06</time>
      </trkpt>
      <trkpt lat="9.94335" lon="-84.05087">
        <ele>1202.4</ele>
        <time>2022-05-14 14:34:07</time>
      </trkpt>
      <trkpt lat="9.94342" lon="-84.05087">
        <ele>1202.6</ele>
        <time>2022-05-14 14:34:08</time>
      </trkpt>
      <trkpt lat="9.94349" lon="-84.05088">
        <ele>1203</ele>
        <time>2022-05-14 14:34:09</time>
      </trkpt>
      <trkpt lat="9.94356" lon="-84.0509">
        <ele>1203.2</ele>
        <time>2022-05-14 14:34:10</time>
      </trkpt>
      <trkpt lat="9.94356" lon="-84.0509">
        <ele>1203.4</ele>
        <time>2022-05-14 14:34:11</time>
      </trkpt>
      <trkpt lat="9.94369" lon="-84.05096">
        <ele>1203.8</ele>
        <time>2022-05-14 14:34:12</time>
      </trkpt>
      <trkpt lat="9.94375" lon="-84.05099">
        <ele>1204.2</ele>
        <time>2022-05-14 14:34:13</time>
      </trkpt>
      <trkpt lat="9.94381" lon="-84.05103">
        <ele>1204.8</ele>
        <time>2022-05-14 14:34:14</time>
      </trkpt>
      <trkpt lat="9.94387" lon="-84.05106">
        <ele>1205.2</ele>
        <time>2022-05-14 14:34:15</time>
      </trkpt>
      <trkpt lat="9.94393" lon="-84.0511">
        <ele>1205.6</ele>
        <time>2022-05-14 14:34:16</time>
      </trkpt>
      <trkpt lat="9.94399" lon="-84.05113">
        <ele>1206</ele>
        <time>2022-05-14 14:34:17</time>
      </trkpt>
      <trkpt lat="9.94405" lon="-84.05117">
        <ele>1206.6</ele>
        <time>2022-05-14 14:34:18</time>
      </trkpt>
      <trkpt lat="9.9441" lon="-84.0512">
        <ele>1207</ele>
        <time>2022-05-14 14:34:19</time>
      </trkpt>
      <trkpt lat="9.94417" lon="-84.05124">
        <ele>1207.6</ele>
        <time>2022-05-14 14:34:20</time>
      </trkpt>
      <trkpt lat="9.94417" lon="-84.05124">
        <ele>1207.8</ele>
        <time>2022-05-14 14:34:21</time>
      </trkpt>
      <trkpt lat="9.94417" lon="-84.05124">
        <ele>1208.2</ele>
        <time>2022-05-14 14:34:22</time>
      </trkpt>
      <trkpt lat="9.94435" lon="-84.05132">
        <ele>1208.4</ele>
        <time>2022-05-14 14:34:23</time>
      </trkpt>
      <trkpt lat="9.94441" lon="-84.05135">
        <ele>1209</ele>
        <time>2022-05-14 14:34:24</time>
      </trkpt>
      <trkpt lat="9.94447" lon="-84.05139">
        <ele>1209.4</ele>
        <time>2022-05-14 14:34:25</time>
      </trkpt>
      <trkpt lat="9.94452" lon="-84.05142">
        <ele>1209.4</ele>
        <time>2022-05-14 14:34:26</time>
      </trkpt>
      <trkpt lat="9.94458" lon="-84.05145">
        <ele>1209.8</ele>
        <time>2022-05-14 14:34:27</time>
      </trkpt>
      <trkpt lat="9.94464" lon="-84.05148">
        <ele>1210.2</ele>
        <time>2022-05-14 14:34:28</time>
      </trkpt>
      <trkpt lat="9.94469" lon="-84.0515">
        <ele>1210.8</ele>
        <time>2022-05-14 14:34:29</time>
      </trkpt>
      <trkpt lat="9.94475" lon="-84.05154">
        <ele>1211.2</ele>
        <time>2022-05-14 14:34:30</time>
      </trkpt>
      <trkpt lat="9.94475" lon="-84.05154">
        <ele>1211.6</ele>
        <time>2022-05-14 14:34:31</time>
      </trkpt>
      <trkpt lat="9.94475" lon="-84.05154">
        <ele>1212</ele>
        <time>2022-05-14 14:34:32</time>
      </trkpt>
      <trkpt lat="9.94491" lon="-84.05161">
        <ele>1212.4</ele>
        <time>2022-05-14 14:34:33</time>
      </trkpt>
      <trkpt lat="9.94496" lon="-84.05164">
        <ele>1212.8</ele>
        <time>2022-05-14 14:34:34</time>
      </trkpt>
      <trkpt lat="9.94501" lon="-84.05167">
        <ele>1213</ele>
        <time>2022-05-14 14:34:35</time>
      </trkpt>
      <trkpt lat="9.94506" lon="-84.0517">
        <ele>1213.4</ele>
        <time>2022-05-14 14:34:36</time>
      </trkpt>
      <trkpt lat="9.94511" lon="-84.05172">
        <ele>1213.8</ele>
        <time>2022-05-14 14:34:37</time>
      </trkpt>
      <trkpt lat="9.94516" lon="-84.05175">
        <ele>1214.2</ele>
        <time>2022-05-14 14:34:38</time>
      </trkpt>
      <trkpt lat="9.94521" lon="-84.05179">
        <ele>1214.6</ele>
        <time>2022-05-14 14:34:39</time>
      </trkpt>
      <trkpt lat="9.94526" lon="-84.05181">
        <ele>1214.8</ele>
        <time>2022-05-14 14:34:40</time>
      </trkpt>
      <trkpt lat="9.9453" lon="-84.05184">
        <ele>1215</ele>
        <time>2022-05-14 14:34:41</time>
      </trkpt>
      <trkpt lat="9.9453" lon="-84.05184">
        <ele>1215</ele>
        <time>2022-05-14 14:34:42</time>
      </trkpt>
      <trkpt lat="9.9454" lon="-84.0519">
        <ele>1215.2</ele>
        <time>2022-05-14 14:34:43</time>
      </trkpt>
      <trkpt lat="9.94545" lon="-84.05193">
        <ele>1215.4</ele>
        <time>2022-05-14 14:34:44</time>
      </trkpt>
      <trkpt lat="9.9455" lon="-84.05195">
        <ele>1215.6</ele>
        <time>2022-05-14 14:34:45</time>
      </trkpt>
      <trkpt lat="9.94556" lon="-84.05199">
        <ele>1215.6</ele>
        <time>2022-05-14 14:34:46</time>
      </trkpt>
      <trkpt lat="9.94561" lon="-84.05202">
        <ele>1215.6</ele>
        <time>2022-05-14 14:34:47</time>
      </trkpt>
      <trkpt lat="9.94567" lon="-84.05206">
        <ele>1215.6</ele>
        <time>2022-05-14 14:34:48</time>
      </trkpt>
      <trkpt lat="9.94573" lon="-84.05208">
        <ele>1215.6</ele>
        <time>2022-05-14 14:34:49</time>
      </trkpt>
      <trkpt lat="9.9458" lon="-84.05212">
        <ele>1215.6</ele>
        <time>2022-05-14 14:34:50</time>
      </trkpt>
      <trkpt lat="9.94587" lon="-84.05215">
        <ele>1215.8</ele>
        <time>2022-05-14 14:34:51</time>
      </trkpt>
      <trkpt lat="9.94587" lon="-84.05215">
        <ele>1215.8</ele>
        <time>2022-05-14 14:34:52</time>
      </trkpt>
      <trkpt lat="9.94601" lon="-84.05224">
        <ele>1215.8</ele>
        <time>2022-05-14 14:34:53</time>
      </trkpt>
      <trkpt lat="9.94608" lon="-84.05228">
        <ele>1215.8</ele>
        <time>2022-05-14 14:34:54</time>
      </trkpt>
      <trkpt lat="9.94615" lon="-84.05231">
        <ele>1215.8</ele>
        <time>2022-05-14 14:34:55</time>
      </trkpt>
      <trkpt lat="9.94621" lon="-84.05235">
        <ele>1215.8</ele>
        <time>2022-05-14 14:34:56</time>
      </trkpt>
      <trkpt lat="9.94628" lon="-84.0524">
        <ele>1215.8</ele>
        <time>2022-05-14 14:34:57</time>
      </trkpt>
      <trkpt lat="9.94635" lon="-84.05244">
        <ele>1216</ele>
        <time>2022-05-14 14:34:58</time>
      </trkpt>
      <trkpt lat="9.94642" lon="-84.05248">
        <ele>1216</ele>
        <time>2022-05-14 14:34:59</time>
      </trkpt>
      <trkpt lat="9.94648" lon="-84.05251">
        <ele>1216</ele>
        <time>2022-05-14 14:35:00</time>
      </trkpt>
      <trkpt lat="9.94655" lon="-84.05255">
        <ele>1216</ele>
        <time>2022-05-14 14:35:01</time>
      </trkpt>
      <trkpt lat="9.9466" lon="-84.05258">
        <ele>1215.8</ele>
        <time>2022-05-14 14:35:02</time>
      </trkpt>
      <trkpt lat="9.9466" lon="-84.05258">
        <ele>1215.8</ele>
        <time>2022-05-14 14:35:03</time>
      </trkpt>
      <trkpt lat="9.9467" lon="-84.05264">
        <ele>1215.8</ele>
        <time>2022-05-14 14:35:04</time>
      </trkpt>
      <trkpt lat="9.94674" lon="-84.05267">
        <ele>1215.6</ele>
        <time>2022-05-14 14:35:05</time>
      </trkpt>
      <trkpt lat="9.94678" lon="-84.05269">
        <ele>1215.6</ele>
        <time>2022-05-14 14:35:06</time>
      </trkpt>
      <trkpt lat="9.94681" lon="-84.0527">
        <ele>1215.6</ele>
        <time>2022-05-14 14:35:07</time>
      </trkpt>
      <trkpt lat="9.94683" lon="-84.05271">
        <ele>1215.6</ele>
        <time>2022-05-14 14:35:08</time>
      </trkpt>
      <trkpt lat="9.94685" lon="-84.05272">
        <ele>1215.4</ele>
        <time>2022-05-14 14:35:09</time>
      </trkpt>
      <trkpt lat="9.94687" lon="-84.05273">
        <ele>1215.4</ele>
        <time>2022-05-14 14:35:10</time>
      </trkpt>
      <trkpt lat="9.94688" lon="-84.05273">
        <ele>1215.4</ele>
        <time>2022-05-14 14:35:11</time>
      </trkpt>
      <trkpt lat="9.94688" lon="-84.05273">
        <ele>1215.4</ele>
        <time>2022-05-14 14:35:12</time>
      </trkpt>
      <trkpt lat="9.94688" lon="-84.05273">
        <ele>1215.4</ele>
        <time>2022-05-14 14:35:13</time>
      </trkpt>
      <trkpt lat="9.94692" lon="-84.05276">
        <ele>1215.2</ele>
        <time>2022-05-14 14:35:14</time>
      </trkpt>
      <trkpt lat="9.94693" lon="-84.05276">
        <ele>1215.2</ele>
        <time>2022-05-14 14:35:15</time>
      </trkpt>
      <trkpt lat="9.94693" lon="-84.05277">
        <ele>1215.2</ele>
        <time>2022-05-14 14:35:16</time>
      </trkpt>
      <trkpt lat="9.94694" lon="-84.05277">
        <ele>1215.2</ele>
        <time>2022-05-14 14:35:17</time>
      </trkpt>
      <trkpt lat="9.94695" lon="-84.05277">
        <ele>1215.2</ele>
        <time>2022-05-14 14:35:18</time>
      </trkpt>
      <trkpt lat="9.94695" lon="-84.05278">
        <ele>1215.2</ele>
        <time>2022-05-14 14:35:19</time>
      </trkpt>
      <trkpt lat="9.94698" lon="-84.05276">
        <ele>1215.4</ele>
        <time>2022-05-14 14:35:59</time>
      </trkpt>
      <trkpt lat="9.947" lon="-84.05278">
        <ele>1215.4</ele>
        <time>2022-05-14 14:36:00</time>
      </trkpt>
      <trkpt lat="9.94702" lon="-84.0528">
        <ele>1215.4</ele>
        <time>2022-05-14 14:36:01</time>
      </trkpt>
      <trkpt lat="9.94704" lon="-84.05281">
        <ele>1215.4</ele>
        <time>2022-05-14 14:36:02</time>
      </trkpt>
      <trkpt lat="9.94707" lon="-84.05282">
        <ele>1215.4</ele>
        <time>2022-05-14 14:36:03</time>
      </trkpt>
      <trkpt lat="9.94707" lon="-84.05282">
        <ele>1215.2</ele>
        <time>2022-05-14 14:36:04</time>
      </trkpt>
      <trkpt lat="9.94707" lon="-84.05282">
        <ele>1215</ele>
        <time>2022-05-14 14:36:05</time>
      </trkpt>
      <trkpt lat="9.94718" lon="-84.05288">
        <ele>1215</ele>
        <time>2022-05-14 14:36:06</time>
      </trkpt>
      <trkpt lat="9.94722" lon="-84.0529">
        <ele>1215</ele>
        <time>2022-05-14 14:36:07</time>
      </trkpt>
      <trkpt lat="9.94727" lon="-84.05294">
        <ele>1215.2</ele>
        <time>2022-05-14 14:36:08</time>
      </trkpt>
      <trkpt lat="9.94732" lon="-84.05297">
        <ele>1215.2</ele>
        <time>2022-05-14 14:36:09</time>
      </trkpt>
      <trkpt lat="9.94737" lon="-84.05301">
        <ele>1215.2</ele>
        <time>2022-05-14 14:36:10</time>
      </trkpt>
      <trkpt lat="9.94743" lon="-84.05304">
        <ele>1215.2</ele>
        <time>2022-05-14 14:36:11</time>
      </trkpt>
      <trkpt lat="9.94749" lon="-84.05307">
        <ele>1215</ele>
        <time>2022-05-14 14:36:12</time>
      </trkpt>
      <trkpt lat="9.94754" lon="-84.0531">
        <ele>1214.8</ele>
        <time>2022-05-14 14:36:13</time>
      </trkpt>
      <trkpt lat="9.94754" lon="-84.0531">
        <ele>1214.6</ele>
        <time>2022-05-14 14:36:14</time>
      </trkpt>
      <trkpt lat="9.94754" lon="-84.0531">
        <ele>1214.4</ele>
        <time>2022-05-14 14:36:15</time>
      </trkpt>
      <trkpt lat="9.94771" lon="-84.0532">
        <ele>1214.2</ele>
        <time>2022-05-14 14:36:16</time>
      </trkpt>
      <trkpt lat="9.94777" lon="-84.05324">
        <ele>1214</ele>
        <time>2022-05-14 14:36:17</time>
      </trkpt>
      <trkpt lat="9.9478" lon="-84.05331">
        <ele>1214</ele>
        <time>2022-05-14 14:36:18</time>
      </trkpt>
      <trkpt lat="9.94779" lon="-84.05338">
        <ele>1213.8</ele>
        <time>2022-05-14 14:36:19</time>
      </trkpt>
      <trkpt lat="9.94777" lon="-84.05344">
        <ele>1213.8</ele>
        <time>2022-05-14 14:36:20</time>
      </trkpt>
      <trkpt lat="9.94775" lon="-84.05349">
        <ele>1214</ele>
        <time>2022-05-14 14:36:21</time>
      </trkpt>
      <trkpt lat="9.94772" lon="-84.05355">
        <ele>1214</ele>
        <time>2022-05-14 14:36:22</time>
      </trkpt>
      <trkpt lat="9.94769" lon="-84.05361">
        <ele>1214</ele>
        <time>2022-05-14 14:36:23</time>
      </trkpt>
      <trkpt lat="9.94766" lon="-84.05367">
        <ele>1213.8</ele>
        <time>2022-05-14 14:36:24</time>
      </trkpt>
      <trkpt lat="9.94766" lon="-84.05367">
        <ele>1213.8</ele>
        <time>2022-05-14 14:36:25</time>
      </trkpt>
      <trkpt lat="9.94766" lon="-84.05367">
        <ele>1213.6</ele>
        <time>2022-05-14 14:36:26</time>
      </trkpt>
      <trkpt lat="9.94757" lon="-84.05385">
        <ele>1213.2</ele>
        <time>2022-05-14 14:36:27</time>
      </trkpt>
      <trkpt lat="9.94755" lon="-84.0539">
        <ele>1213</ele>
        <time>2022-05-14 14:36:28</time>
      </trkpt>
      <trkpt lat="9.94752" lon="-84.05394">
        <ele>1212.8</ele>
        <time>2022-05-14 14:36:29</time>
      </trkpt>
      <trkpt lat="9.9475" lon="-84.05399">
        <ele>1212.8</ele>
        <time>2022-05-14 14:36:30</time>
      </trkpt>
      <trkpt lat="9.94752" lon="-84.05403">
        <ele>1212.6</ele>
        <time>2022-05-14 14:36:31</time>
      </trkpt>
      <trkpt lat="9.94755" lon="-84.05407">
        <ele>1212.6</ele>
        <time>2022-05-14 14:36:32</time>
      </trkpt>
      <trkpt lat="9.94759" lon="-84.0541">
        <ele>1212.6</ele>
        <time>2022-05-14 14:36:33</time>
      </trkpt>
      <trkpt lat="9.94764" lon="-84.05414">
        <ele>1212.4</ele>
        <time>2022-05-14 14:36:34</time>
      </trkpt>
      <trkpt lat="9.94764" lon="-84.05414">
        <ele>1212.2</ele>
        <time>2022-05-14 14:36:35</time>
      </trkpt>
      <trkpt lat="9.94775" lon="-84.05421">
        <ele>1212</ele>
        <time>2022-05-14 14:36:36</time>
      </trkpt>
      <trkpt lat="9.9478" lon="-84.05425">
        <ele>1211.8</ele>
        <time>2022-05-14 14:36:37</time>
      </trkpt>
      <trkpt lat="9.94786" lon="-84.05428">
        <ele>1211.6</ele>
        <time>2022-05-14 14:36:38</time>
      </trkpt>
      <trkpt lat="9.94793" lon="-84.05432">
        <ele>1211.6</ele>
        <time>2022-05-14 14:36:39</time>
      </trkpt>
      <trkpt lat="9.948" lon="-84.05436">
        <ele>1211.4</ele>
        <time>2022-05-14 14:36:40</time>
      </trkpt>
      <trkpt lat="9.94808" lon="-84.05441">
        <ele>1211.2</ele>
        <time>2022-05-14 14:36:41</time>
      </trkpt>
      <trkpt lat="9.94815" lon="-84.05444">
        <ele>1210.8</ele>
        <time>2022-05-14 14:36:42</time>
      </trkpt>
      <trkpt lat="9.94822" lon="-84.05449">
        <ele>1210.4</ele>
        <time>2022-05-14 14:36:43</time>
      </trkpt>
      <trkpt lat="9.9483" lon="-84.05453">
        <ele>1210.2</ele>
        <time>2022-05-14 14:36:44</time>
      </trkpt>
      <trkpt lat="9.94838" lon="-84.05457">
        <ele>1209.8</ele>
        <time>2022-05-14 14:36:45</time>
      </trkpt>
      <trkpt lat="9.94838" lon="-84.05457">
        <ele>1209.4</ele>
        <time>2022-05-14 14:36:46</time>
      </trkpt>
      <trkpt lat="9.94854" lon="-84.05466">
        <ele>1209.2</ele>
        <time>2022-05-14 14:36:47</time>
      </trkpt>
      <trkpt lat="9.94862" lon="-84.05471">
        <ele>1209</ele>
        <time>2022-05-14 14:36:48</time>
      </trkpt>
      <trkpt lat="9.9487" lon="-84.05475">
        <ele>1208.8</ele>
        <time>2022-05-14 14:36:49</time>
      </trkpt>
      <trkpt lat="9.94878" lon="-84.0548">
        <ele>1208.6</ele>
        <time>2022-05-14 14:36:50</time>
      </trkpt>
      <trkpt lat="9.94885" lon="-84.05486">
        <ele>1208.6</ele>
        <time>2022-05-14 14:36:51</time>
      </trkpt>
      <trkpt lat="9.94893" lon="-84.05489">
        <ele>1208.8</ele>
        <time>2022-05-14 14:36:52</time>
      </trkpt>
      <trkpt lat="9.94901" lon="-84.05494">
        <ele>1208.8</ele>
        <time>2022-05-14 14:36:53</time>
      </trkpt>
      <trkpt lat="9.94909" lon="-84.05497">
        <ele>1209</ele>
        <time>2022-05-14 14:36:54</time>
      </trkpt>
      <trkpt lat="9.94909" lon="-84.05497">
        <ele>1209.2</ele>
        <time>2022-05-14 14:36:55</time>
      </trkpt>
      <trkpt lat="9.94909" lon="-84.05497">
        <ele>1209.4</ele>
        <time>2022-05-14 14:36:56</time>
      </trkpt>
      <trkpt lat="9.94932" lon="-84.05509">
        <ele>1209.4</ele>
        <time>2022-05-14 14:36:57</time>
      </trkpt>
      <trkpt lat="9.94939" lon="-84.05513">
        <ele>1209.6</ele>
        <time>2022-05-14 14:36:58</time>
      </trkpt>
      <trkpt lat="9.94946" lon="-84.05517">
        <ele>1209.8</ele>
        <time>2022-05-14 14:36:59</time>
      </trkpt>
      <trkpt lat="9.94953" lon="-84.0552">
        <ele>1210.2</ele>
        <time>2022-05-14 14:37:00</time>
      </trkpt>
      <trkpt lat="9.9496" lon="-84.05524">
        <ele>1210.6</ele>
        <time>2022-05-14 14:37:01</time>
      </trkpt>
      <trkpt lat="9.94967" lon="-84.05527">
        <ele>1210.8</ele>
        <time>2022-05-14 14:37:02</time>
      </trkpt>
      <trkpt lat="9.94975" lon="-84.05531">
        <ele>1210.8</ele>
        <time>2022-05-14 14:37:03</time>
      </trkpt>
      <trkpt lat="9.94982" lon="-84.05535">
        <ele>1211</ele>
        <time>2022-05-14 14:37:04</time>
      </trkpt>
      <trkpt lat="9.94989" lon="-84.05537">
        <ele>1211</ele>
        <time>2022-05-14 14:37:05</time>
      </trkpt>
      <trkpt lat="9.94989" lon="-84.05537">
        <ele>1211</ele>
        <time>2022-05-14 14:37:06</time>
      </trkpt>
      <trkpt lat="9.94989" lon="-84.05537">
        <ele>1211</ele>
        <time>2022-05-14 14:37:07</time>
      </trkpt>
      <trkpt lat="9.9501" lon="-84.05549">
        <ele>1211</ele>
        <time>2022-05-14 14:37:08</time>
      </trkpt>
      <trkpt lat="9.95017" lon="-84.05553">
        <ele>1211</ele>
        <time>2022-05-14 14:37:09</time>
      </trkpt>
      <trkpt lat="9.95024" lon="-84.05557">
        <ele>1211.2</ele>
        <time>2022-05-14 14:37:10</time>
      </trkpt>
      <trkpt lat="9.95032" lon="-84.05561">
        <ele>1211.2</ele>
        <time>2022-05-14 14:37:11</time>
      </trkpt>
      <trkpt lat="9.95039" lon="-84.05565">
        <ele>1211.2</ele>
        <time>2022-05-14 14:37:12</time>
      </trkpt>
      <trkpt lat="9.95046" lon="-84.05569">
        <ele>1211.4</ele>
        <time>2022-05-14 14:37:13</time>
      </trkpt>
      <trkpt lat="9.95053" lon="-84.05572">
        <ele>1211.4</ele>
        <time>2022-05-14 14:37:14</time>
      </trkpt>
      <trkpt lat="9.9506" lon="-84.05576">
        <ele>1211.4</ele>
        <time>2022-05-14 14:37:15</time>
      </trkpt>
      <trkpt lat="9.9506" lon="-84.05576">
        <ele>1211.6</ele>
        <time>2022-05-14 14:37:16</time>
      </trkpt>
      <trkpt lat="9.95074" lon="-84.05583">
        <ele>1211.6</ele>
        <time>2022-05-14 14:37:17</time>
      </trkpt>
      <trkpt lat="9.9508" lon="-84.05586">
        <ele>1211.6</ele>
        <time>2022-05-14 14:37:18</time>
      </trkpt>
      <trkpt lat="9.95086" lon="-84.05589">
        <ele>1211.6</ele>
        <time>2022-05-14 14:37:19</time>
      </trkpt>
      <trkpt lat="9.95092" lon="-84.05592">
        <ele>1211.6</ele>
        <time>2022-05-14 14:37:20</time>
      </trkpt>
      <trkpt lat="9.95098" lon="-84.05596">
        <ele>1211.4</ele>
        <time>2022-05-14 14:37:21</time>
      </trkpt>
      <trkpt lat="9.95103" lon="-84.05598">
        <ele>1211.2</ele>
        <time>2022-05-14 14:37:22</time>
      </trkpt>
      <trkpt lat="9.95108" lon="-84.056">
        <ele>1211.2</ele>
        <time>2022-05-14 14:37:23</time>
      </trkpt>
      <trkpt lat="9.95112" lon="-84.05602">
        <ele>1211</ele>
        <time>2022-05-14 14:37:24</time>
      </trkpt>
      <trkpt lat="9.95117" lon="-84.05603">
        <ele>1210.8</ele>
        <time>2022-05-14 14:37:25</time>
      </trkpt>
      <trkpt lat="9.9512" lon="-84.05604">
        <ele>1210.8</ele>
        <time>2022-05-14 14:37:26</time>
      </trkpt>
      <trkpt lat="9.9512" lon="-84.05604">
        <ele>1210.6</ele>
        <time>2022-05-14 14:37:27</time>
      </trkpt>
      <trkpt lat="9.95125" lon="-84.05604">
        <ele>1210.4</ele>
        <time>2022-05-14 14:37:28</time>
      </trkpt>
      <trkpt lat="9.95128" lon="-84.05604">
        <ele>1210.4</ele>
        <time>2022-05-14 14:37:29</time>
      </trkpt>
      <trkpt lat="9.95129" lon="-84.05604">
        <ele>1210.4</ele>
        <time>2022-05-14 14:37:30</time>
      </trkpt>
      <trkpt lat="9.95129" lon="-84.05604">
        <ele>1210.4</ele>
        <time>2022-05-14 14:37:31</time>
      </trkpt>
      <trkpt lat="9.95131" lon="-84.05604">
        <ele>1210.4</ele>
        <time>2022-05-14 14:37:45</time>
      </trkpt>
      <trkpt lat="9.95134" lon="-84.05604">
        <ele>1210.4</ele>
        <time>2022-05-14 14:37:46</time>
      </trkpt>
      <trkpt lat="9.95137" lon="-84.05604">
        <ele>1210.2</ele>
        <time>2022-05-14 14:37:47</time>
      </trkpt>
      <trkpt lat="9.95137" lon="-84.05604">
        <ele>1210</ele>
        <time>2022-05-14 14:37:48</time>
      </trkpt>
      <trkpt lat="9.95145" lon="-84.05604">
        <ele>1209.6</ele>
        <time>2022-05-14 14:37:49</time>
      </trkpt>
      <trkpt lat="9.95151" lon="-84.05604">
        <ele>1209.2</ele>
        <time>2022-05-14 14:37:50</time>
      </trkpt>
      <trkpt lat="9.95157" lon="-84.05604">
        <ele>1208.8</ele>
        <time>2022-05-14 14:37:51</time>
      </trkpt>
      <trkpt lat="9.95164" lon="-84.05603">
        <ele>1208.6</ele>
        <time>2022-05-14 14:37:52</time>
      </trkpt>
      <trkpt lat="9.95171" lon="-84.05603">
        <ele>1208.4</ele>
        <time>2022-05-14 14:37:53</time>
      </trkpt>
      <trkpt lat="9.95179" lon="-84.05602">
        <ele>1208</ele>
        <time>2022-05-14 14:37:54</time>
      </trkpt>
      <trkpt lat="9.95187" lon="-84.05599">
        <ele>1208</ele>
        <time>2022-05-14 14:37:55</time>
      </trkpt>
      <trkpt lat="9.95195" lon="-84.05597">
        <ele>1207.4</ele>
        <time>2022-05-14 14:37:56</time>
      </trkpt>
      <trkpt lat="9.95195" lon="-84.05597">
        <ele>1207.4</ele>
        <time>2022-05-14 14:37:57</time>
      </trkpt>
      <trkpt lat="9.95195" lon="-84.05597">
        <ele>1206.8</ele>
        <time>2022-05-14 14:37:58</time>
      </trkpt>
      <trkpt lat="9.9522" lon="-84.05585">
        <ele>1206</ele>
        <time>2022-05-14 14:37:59</time>
      </trkpt>
      <trkpt lat="9.95228" lon="-84.0558">
        <ele>1205.8</ele>
        <time>2022-05-14 14:38:00</time>
      </trkpt>
      <trkpt lat="9.95236" lon="-84.05576">
        <ele>1205.6</ele>
        <time>2022-05-14 14:38:01</time>
      </trkpt>
      <trkpt lat="9.95244" lon="-84.05571">
        <ele>1205</ele>
        <time>2022-05-14 14:38:02</time>
      </trkpt>
      <trkpt lat="9.95252" lon="-84.05566">
        <ele>1204.8</ele>
        <time>2022-05-14 14:38:03</time>
      </trkpt>
      <trkpt lat="9.95261" lon="-84.05561">
        <ele>1204.4</ele>
        <time>2022-05-14 14:38:04</time>
      </trkpt>
      <trkpt lat="9.9527" lon="-84.05558">
        <ele>1204.2</ele>
        <time>2022-05-14 14:38:05</time>
      </trkpt>
      <trkpt lat="9.95279" lon="-84.05555">
        <ele>1203.4</ele>
        <time>2022-05-14 14:38:06</time>
      </trkpt>
      <trkpt lat="9.95289" lon="-84.05553">
        <ele>1202.6</ele>
        <time>2022-05-14 14:38:07</time>
      </trkpt>
      <trkpt lat="9.95289" lon="-84.05553">
        <ele>1202</ele>
        <time>2022-05-14 14:38:08</time>
      </trkpt>
      <trkpt lat="9.95289" lon="-84.05553">
        <ele>1201.4</ele>
        <time>2022-05-14 14:38:09</time>
      </trkpt>
      <trkpt lat="9.9532" lon="-84.05546">
        <ele>1201</ele>
        <time>2022-05-14 14:38:10</time>
      </trkpt>
      <trkpt lat="9.9533" lon="-84.05544">
        <ele>1200.8</ele>
        <time>2022-05-14 14:38:11</time>
      </trkpt>
      <trkpt lat="9.9534" lon="-84.05541">
        <ele>1200.4</ele>
        <time>2022-05-14 14:38:12</time>
      </trkpt>
      <trkpt lat="9.9535" lon="-84.0554">
        <ele>1200.4</ele>
        <time>2022-05-14 14:38:13</time>
      </trkpt>
      <trkpt lat="9.95359" lon="-84.05537">
        <ele>1200.4</ele>
        <time>2022-05-14 14:38:14</time>
      </trkpt>
      <trkpt lat="9.95368" lon="-84.05535">
        <ele>1200.4</ele>
        <time>2022-05-14 14:38:15</time>
      </trkpt>
      <trkpt lat="9.95376" lon="-84.05532">
        <ele>1200.6</ele>
        <time>2022-05-14 14:38:16</time>
      </trkpt>
      <trkpt lat="9.95384" lon="-84.05529">
        <ele>1200.6</ele>
        <time>2022-05-14 14:38:17</time>
      </trkpt>
      <trkpt lat="9.95384" lon="-84.05529">
        <ele>1200.6</ele>
        <time>2022-05-14 14:38:18</time>
      </trkpt>
      <trkpt lat="9.95399" lon="-84.05525">
        <ele>1201</ele>
        <time>2022-05-14 14:38:19</time>
      </trkpt>
      <trkpt lat="9.95406" lon="-84.05523">
        <ele>1201</ele>
        <time>2022-05-14 14:38:20</time>
      </trkpt>
      <trkpt lat="9.95413" lon="-84.05521">
        <ele>1201.4</ele>
        <time>2022-05-14 14:38:21</time>
      </trkpt>
      <trkpt lat="9.95419" lon="-84.05519">
        <ele>1201.8</ele>
        <time>2022-05-14 14:38:22</time>
      </trkpt>
      <trkpt lat="9.95425" lon="-84.05517">
        <ele>1202.2</ele>
        <time>2022-05-14 14:38:23</time>
      </trkpt>
      <trkpt lat="9.95431" lon="-84.05515">
        <ele>1202.4</ele>
        <time>2022-05-14 14:38:24</time>
      </trkpt>
      <trkpt lat="9.95437" lon="-84.05513">
        <ele>1202.6</ele>
        <time>2022-05-14 14:38:25</time>
      </trkpt>
      <trkpt lat="9.95443" lon="-84.05511">
        <ele>1203</ele>
        <time>2022-05-14 14:38:26</time>
      </trkpt>
      <trkpt lat="9.95449" lon="-84.0551">
        <ele>1203.6</ele>
        <time>2022-05-14 14:38:27</time>
      </trkpt>
      <trkpt lat="9.95455" lon="-84.05508">
        <ele>1204</ele>
        <time>2022-05-14 14:38:28</time>
      </trkpt>
      <trkpt lat="9.95455" lon="-84.05508">
        <ele>1204.4</ele>
        <time>2022-05-14 14:38:29</time>
      </trkpt>
      <trkpt lat="9.95467" lon="-84.05504">
        <ele>1204.8</ele>
        <time>2022-05-14 14:38:30</time>
      </trkpt>
      <trkpt lat="9.95473" lon="-84.05503">
        <ele>1205.2</ele>
        <time>2022-05-14 14:38:31</time>
      </trkpt>
      <trkpt lat="9.95478" lon="-84.055">
        <ele>1205.4</ele>
        <time>2022-05-14 14:38:32</time>
      </trkpt>
      <trkpt lat="9.95484" lon="-84.05499">
        <ele>1206</ele>
        <time>2022-05-14 14:38:33</time>
      </trkpt>
      <trkpt lat="9.9549" lon="-84.05497">
        <ele>1206.2</ele>
        <time>2022-05-14 14:38:34</time>
      </trkpt>
      <trkpt lat="9.95496" lon="-84.05495">
        <ele>1206.6</ele>
        <time>2022-05-14 14:38:35</time>
      </trkpt>
      <trkpt lat="9.95501" lon="-84.05493">
        <ele>1206.8</ele>
        <time>2022-05-14 14:38:36</time>
      </trkpt>
      <trkpt lat="9.95507" lon="-84.05491">
        <ele>1207</ele>
        <time>2022-05-14 14:38:37</time>
      </trkpt>
      <trkpt lat="9.95507" lon="-84.05491">
        <ele>1207.6</ele>
        <time>2022-05-14 14:38:38</time>
      </trkpt>
      <trkpt lat="9.95507" lon="-84.05491">
        <ele>1207.6</ele>
        <time>2022-05-14 14:38:39</time>
      </trkpt>
      <trkpt lat="9.95525" lon="-84.05488">
        <ele>1208</ele>
        <time>2022-05-14 14:38:40</time>
      </trkpt>
      <trkpt lat="9.95532" lon="-84.05488">
        <ele>1208.4</ele>
        <time>2022-05-14 14:38:41</time>
      </trkpt>
      <trkpt lat="9.95538" lon="-84.05487">
        <ele>1208.6</ele>
        <time>2022-05-14 14:38:42</time>
      </trkpt>
      <trkpt lat="9.95545" lon="-84.05486">
        <ele>1209</ele>
        <time>2022-05-14 14:38:43</time>
      </trkpt>
      <trkpt lat="9.95551" lon="-84.05486">
        <ele>1209.2</ele>
        <time>2022-05-14 14:38:44</time>
      </trkpt>
      <trkpt lat="9.95557" lon="-84.05486">
        <ele>1209.4</ele>
        <time>2022-05-14 14:38:45</time>
      </trkpt>
      <trkpt lat="9.95563" lon="-84.05485">
        <ele>1209.6</ele>
        <time>2022-05-14 14:38:46</time>
      </trkpt>
      <trkpt lat="9.95569" lon="-84.05484">
        <ele>1209.8</ele>
        <time>2022-05-14 14:38:47</time>
      </trkpt>
      <trkpt lat="9.95575" lon="-84.05483">
        <ele>1210</ele>
        <time>2022-05-14 14:38:48</time>
      </trkpt>
      <trkpt lat="9.95575" lon="-84.05483">
        <ele>1210.2</ele>
        <time>2022-05-14 14:38:49</time>
      </trkpt>
      <trkpt lat="9.95575" lon="-84.05483">
        <ele>1210.4</ele>
        <time>2022-05-14 14:38:50</time>
      </trkpt>
      <trkpt lat="9.95593" lon="-84.05483">
        <ele>1210.8</ele>
        <time>2022-05-14 14:38:51</time>
      </trkpt>
      <trkpt lat="9.95599" lon="-84.05483">
        <ele>1211</ele>
        <time>2022-05-14 14:38:52</time>
      </trkpt>
      <trkpt lat="9.95605" lon="-84.05482">
        <ele>1211</ele>
        <time>2022-05-14 14:38:53</time>
      </trkpt>
      <trkpt lat="9.95612" lon="-84.05482">
        <ele>1211.2</ele>
        <time>2022-05-14 14:38:54</time>
      </trkpt>
      <trkpt lat="9.95618" lon="-84.05482">
        <ele>1211.2</ele>
        <time>2022-05-14 14:38:55</time>
      </trkpt>
      <trkpt lat="9.95625" lon="-84.05482">
        <ele>1211.2</ele>
        <time>2022-05-14 14:38:56</time>
      </trkpt>
      <trkpt lat="9.95631" lon="-84.05482">
        <ele>1211</ele>
        <time>2022-05-14 14:38:57</time>
      </trkpt>
      <trkpt lat="9.95638" lon="-84.05483">
        <ele>1211.2</ele>
        <time>2022-05-14 14:38:58</time>
      </trkpt>
      <trkpt lat="9.95638" lon="-84.05483">
        <ele>1211.2</ele>
        <time>2022-05-14 14:38:59</time>
      </trkpt>
      <trkpt lat="9.95638" lon="-84.05483">
        <ele>1211.2</ele>
        <time>2022-05-14 14:39:00</time>
      </trkpt>
      <trkpt lat="9.95659" lon="-84.05484">
        <ele>1211.4</ele>
        <time>2022-05-14 14:39:01</time>
      </trkpt>
      <trkpt lat="9.95666" lon="-84.05484">
        <ele>1211.4</ele>
        <time>2022-05-14 14:39:02</time>
      </trkpt>
      <trkpt lat="9.95672" lon="-84.05485">
        <ele>1211.4</ele>
        <time>2022-05-14 14:39:03</time>
      </trkpt>
      <trkpt lat="9.95679" lon="-84.05484">
        <ele>1211.6</ele>
        <time>2022-05-14 14:39:04</time>
      </trkpt>
      <trkpt lat="9.95686" lon="-84.05485">
        <ele>1211.6</ele>
        <time>2022-05-14 14:39:05</time>
      </trkpt>
      <trkpt lat="9.95693" lon="-84.05484">
        <ele>1211.8</ele>
        <time>2022-05-14 14:39:06</time>
      </trkpt>
      <trkpt lat="9.957" lon="-84.05484">
        <ele>1212</ele>
        <time>2022-05-14 14:39:07</time>
      </trkpt>
      <trkpt lat="9.95706" lon="-84.05484">
        <ele>1212.2</ele>
        <time>2022-05-14 14:39:08</time>
      </trkpt>
      <trkpt lat="9.95712" lon="-84.05485">
        <ele>1212.4</ele>
        <time>2022-05-14 14:39:09</time>
      </trkpt>
      <trkpt lat="9.95712" lon="-84.05485">
        <ele>1212.6</ele>
        <time>2022-05-14 14:39:10</time>
      </trkpt>
      <trkpt lat="9.95725" lon="-84.05485">
        <ele>1212.8</ele>
        <time>2022-05-14 14:39:11</time>
      </trkpt>
      <trkpt lat="9.95731" lon="-84.05485">
        <ele>1213</ele>
        <time>2022-05-14 14:39:12</time>
      </trkpt>
      <trkpt lat="9.95737" lon="-84.05485">
        <ele>1213.2</ele>
        <time>2022-05-14 14:39:13</time>
      </trkpt>
      <trkpt lat="9.95743" lon="-84.05484">
        <ele>1213.2</ele>
        <time>2022-05-14 14:39:14</time>
      </trkpt>
      <trkpt lat="9.95749" lon="-84.05484">
        <ele>1213.4</ele>
        <time>2022-05-14 14:39:15</time>
      </trkpt>
      <trkpt lat="9.95755" lon="-84.05484">
        <ele>1213.6</ele>
        <time>2022-05-14 14:39:16</time>
      </trkpt>
      <trkpt lat="9.95761" lon="-84.05484">
        <ele>1214</ele>
        <time>2022-05-14 14:39:17</time>
      </trkpt>
      <trkpt lat="9.95767" lon="-84.05484">
        <ele>1214.2</ele>
        <time>2022-05-14 14:39:18</time>
      </trkpt>
      <trkpt lat="9.95774" lon="-84.05483">
        <ele>1214.6</ele>
        <time>2022-05-14 14:39:19</time>
      </trkpt>
      <trkpt lat="9.95785" lon="-84.05483">
        <ele>1214.8</ele>
        <time>2022-05-14 14:39:20</time>
      </trkpt>
      <trkpt lat="9.95785" lon="-84.05483">
        <ele>1214.8</ele>
        <time>2022-05-14 14:39:21</time>
      </trkpt>
      <trkpt lat="9.9579" lon="-84.05483">
        <ele>1215</ele>
        <time>2022-05-14 14:39:22</time>
      </trkpt>
      <trkpt lat="9.95796" lon="-84.05483">
        <ele>1215.4</ele>
        <time>2022-05-14 14:39:23</time>
      </trkpt>
      <trkpt lat="9.95801" lon="-84.05482">
        <ele>1215.8</ele>
        <time>2022-05-14 14:39:24</time>
      </trkpt>
      <trkpt lat="9.95807" lon="-84.05482">
        <ele>1216.2</ele>
        <time>2022-05-14 14:39:25</time>
      </trkpt>
      <trkpt lat="9.95812" lon="-84.05482">
        <ele>1216.4</ele>
        <time>2022-05-14 14:39:26</time>
      </trkpt>
      <trkpt lat="9.95817" lon="-84.05482">
        <ele>1216.6</ele>
        <time>2022-05-14 14:39:27</time>
      </trkpt>
      <trkpt lat="9.95821" lon="-84.05482">
        <ele>1217</ele>
        <time>2022-05-14 14:39:28</time>
      </trkpt>
      <trkpt lat="9.95826" lon="-84.05483">
        <ele>1217.2</ele>
        <time>2022-05-14 14:39:29</time>
      </trkpt>
      <trkpt lat="9.95826" lon="-84.05483">
        <ele>1217.6</ele>
        <time>2022-05-14 14:39:30</time>
      </trkpt>
      <trkpt lat="9.95826" lon="-84.05483">
        <ele>1217.8</ele>
        <time>2022-05-14 14:39:31</time>
      </trkpt>
      <trkpt lat="9.95841" lon="-84.05483">
        <ele>1218</ele>
        <time>2022-05-14 14:39:32</time>
      </trkpt>
      <trkpt lat="9.95846" lon="-84.05483">
        <ele>1218</ele>
        <time>2022-05-14 14:39:33</time>
      </trkpt>
      <trkpt lat="9.95851" lon="-84.05483">
        <ele>1218.2</ele>
        <time>2022-05-14 14:39:34</time>
      </trkpt>
      <trkpt lat="9.95856" lon="-84.05483">
        <ele>1218.4</ele>
        <time>2022-05-14 14:39:35</time>
      </trkpt>
      <trkpt lat="9.9586" lon="-84.05483">
        <ele>1218.6</ele>
        <time>2022-05-14 14:39:36</time>
      </trkpt>
      <trkpt lat="9.95866" lon="-84.05483">
        <ele>1218.8</ele>
        <time>2022-05-14 14:39:37</time>
      </trkpt>
      <trkpt lat="9.95871" lon="-84.05483">
        <ele>1219</ele>
        <time>2022-05-14 14:39:38</time>
      </trkpt>
      <trkpt lat="9.95877" lon="-84.05483">
        <ele>1219.2</ele>
        <time>2022-05-14 14:39:39</time>
      </trkpt>
      <trkpt lat="9.95877" lon="-84.05483">
        <ele>1219.2</ele>
        <time>2022-05-14 14:39:40</time>
      </trkpt>
      <trkpt lat="9.95893" lon="-84.05484">
        <ele>1219.4</ele>
        <time>2022-05-14 14:39:41</time>
      </trkpt>
      <trkpt lat="9.95893" lon="-84.05484">
        <ele>1219.4</ele>
        <time>2022-05-14 14:39:42</time>
      </trkpt>
      <trkpt lat="9.95899" lon="-84.05484">
        <ele>1219.4</ele>
        <time>2022-05-14 14:39:43</time>
      </trkpt>
      <trkpt lat="9.95905" lon="-84.05484">
        <ele>1219.6</ele>
        <time>2022-05-14 14:39:44</time>
      </trkpt>
      <trkpt lat="9.9591" lon="-84.05484">
        <ele>1220</ele>
        <time>2022-05-14 14:39:45</time>
      </trkpt>
      <trkpt lat="9.95916" lon="-84.05484">
        <ele>1220</ele>
        <time>2022-05-14 14:39:46</time>
      </trkpt>
      <trkpt lat="9.95922" lon="-84.05485">
        <ele>1220.2</ele>
        <time>2022-05-14 14:39:47</time>
      </trkpt>
      <trkpt lat="9.95927" lon="-84.05485">
        <ele>1220.4</ele>
        <time>2022-05-14 14:39:48</time>
      </trkpt>
      <trkpt lat="9.95933" lon="-84.05485">
        <ele>1220.6</ele>
        <time>2022-05-14 14:39:49</time>
      </trkpt>
      <trkpt lat="9.95939" lon="-84.05485">
        <ele>1220.8</ele>
        <time>2022-05-14 14:39:50</time>
      </trkpt>
      <trkpt lat="9.95939" lon="-84.05485">
        <ele>1220.8</ele>
        <time>2022-05-14 14:39:51</time>
      </trkpt>
      <trkpt lat="9.95939" lon="-84.05485">
        <ele>1221</ele>
        <time>2022-05-14 14:39:52</time>
      </trkpt>
      <trkpt lat="9.95957" lon="-84.05484">
        <ele>1221.2</ele>
        <time>2022-05-14 14:39:53</time>
      </trkpt>
      <trkpt lat="9.95963" lon="-84.05484">
        <ele>1221.4</ele>
        <time>2022-05-14 14:39:54</time>
      </trkpt>
      <trkpt lat="9.95969" lon="-84.05484">
        <ele>1221.6</ele>
        <time>2022-05-14 14:39:55</time>
      </trkpt>
      <trkpt lat="9.95975" lon="-84.05484">
        <ele>1221.8</ele>
        <time>2022-05-14 14:39:56</time>
      </trkpt>
      <trkpt lat="9.9598" lon="-84.05484">
        <ele>1221.8</ele>
        <time>2022-05-14 14:39:57</time>
      </trkpt>
      <trkpt lat="9.95987" lon="-84.05483">
        <ele>1222</ele>
        <time>2022-05-14 14:39:58</time>
      </trkpt>
      <trkpt lat="9.95993" lon="-84.05483">
        <ele>1222</ele>
        <time>2022-05-14 14:39:59</time>
      </trkpt>
      <trkpt lat="9.95999" lon="-84.05482">
        <ele>1222</ele>
        <time>2022-05-14 14:40:00</time>
      </trkpt>
      <trkpt lat="9.96011" lon="-84.05482">
        <ele>1222.2</ele>
        <time>2022-05-14 14:40:01</time>
      </trkpt>
      <trkpt lat="9.96017" lon="-84.05482">
        <ele>1222</ele>
        <time>2022-05-14 14:40:02</time>
      </trkpt>
      <trkpt lat="9.96017" lon="-84.05482">
        <ele>1222</ele>
        <time>2022-05-14 14:40:03</time>
      </trkpt>
      <trkpt lat="9.96023" lon="-84.05482">
        <ele>1222.2</ele>
        <time>2022-05-14 14:40:04</time>
      </trkpt>
      <trkpt lat="9.9603" lon="-84.05482">
        <ele>1222.2</ele>
        <time>2022-05-14 14:40:05</time>
      </trkpt>
      <trkpt lat="9.96036" lon="-84.05483">
        <ele>1222.4</ele>
        <time>2022-05-14 14:40:06</time>
      </trkpt>
      <trkpt lat="9.96043" lon="-84.05483">
        <ele>1222.4</ele>
        <time>2022-05-14 14:40:07</time>
      </trkpt>
      <trkpt lat="9.96049" lon="-84.05483">
        <ele>1222.6</ele>
        <time>2022-05-14 14:40:08</time>
      </trkpt>
      <trkpt lat="9.96055" lon="-84.05484">
        <ele>1222.8</ele>
        <time>2022-05-14 14:40:09</time>
      </trkpt>
      <trkpt lat="9.96062" lon="-84.05484">
        <ele>1222.8</ele>
        <time>2022-05-14 14:40:10</time>
      </trkpt>
      <trkpt lat="9.96068" lon="-84.05484">
        <ele>1223</ele>
        <time>2022-05-14 14:40:11</time>
      </trkpt>
      <trkpt lat="9.96082" lon="-84.05485">
        <ele>1223.2</ele>
        <time>2022-05-14 14:40:12</time>
      </trkpt>
      <trkpt lat="9.96082" lon="-84.05485">
        <ele>1223.4</ele>
        <time>2022-05-14 14:40:13</time>
      </trkpt>
      <trkpt lat="9.9609" lon="-84.05485">
        <ele>1223.4</ele>
        <time>2022-05-14 14:40:14</time>
      </trkpt>
      <trkpt lat="9.96097" lon="-84.05484">
        <ele>1223.6</ele>
        <time>2022-05-14 14:40:15</time>
      </trkpt>
      <trkpt lat="9.96104" lon="-84.05484">
        <ele>1223.6</ele>
        <time>2022-05-14 14:40:16</time>
      </trkpt>
      <trkpt lat="9.96111" lon="-84.05483">
        <ele>1223.8</ele>
        <time>2022-05-14 14:40:17</time>
      </trkpt>
      <trkpt lat="9.96118" lon="-84.05483">
        <ele>1224</ele>
        <time>2022-05-14 14:40:18</time>
      </trkpt>
      <trkpt lat="9.96125" lon="-84.05483">
        <ele>1224</ele>
        <time>2022-05-14 14:40:19</time>
      </trkpt>
      <trkpt lat="9.96131" lon="-84.05484">
        <ele>1224</ele>
        <time>2022-05-14 14:40:20</time>
      </trkpt>
      <trkpt lat="9.96131" lon="-84.05484">
        <ele>1224.2</ele>
        <time>2022-05-14 14:40:21</time>
      </trkpt>
      <trkpt lat="9.96151" lon="-84.05484">
        <ele>1224.2</ele>
        <time>2022-05-14 14:40:22</time>
      </trkpt>
      <trkpt lat="9.96158" lon="-84.05485">
        <ele>1224.2</ele>
        <time>2022-05-14 14:40:23</time>
      </trkpt>
      <trkpt lat="9.96158" lon="-84.05485">
        <ele>1224.2</ele>
        <time>2022-05-14 14:40:24</time>
      </trkpt>
      <trkpt lat="9.96165" lon="-84.05485">
        <ele>1224.2</ele>
        <time>2022-05-14 14:40:25</time>
      </trkpt>
      <trkpt lat="9.96171" lon="-84.05485">
        <ele>1224.4</ele>
        <time>2022-05-14 14:40:26</time>
      </trkpt>
      <trkpt lat="9.96177" lon="-84.05485">
        <ele>1224.4</ele>
        <time>2022-05-14 14:40:27</time>
      </trkpt>
      <trkpt lat="9.96184" lon="-84.05486">
        <ele>1224.6</ele>
        <time>2022-05-14 14:40:28</time>
      </trkpt>
      <trkpt lat="9.9619" lon="-84.05486">
        <ele>1224.8</ele>
        <time>2022-05-14 14:40:29</time>
      </trkpt>
      <trkpt lat="9.96197" lon="-84.05486">
        <ele>1224.8</ele>
        <time>2022-05-14 14:40:30</time>
      </trkpt>
      <trkpt lat="9.96203" lon="-84.05486">
        <ele>1225</ele>
        <time>2022-05-14 14:40:31</time>
      </trkpt>
      <trkpt lat="9.96203" lon="-84.05486">
        <ele>1225</ele>
        <time>2022-05-14 14:40:32</time>
      </trkpt>
      <trkpt lat="9.96222" lon="-84.05486">
        <ele>1225.2</ele>
        <time>2022-05-14 14:40:33</time>
      </trkpt>
      <trkpt lat="9.96222" lon="-84.05486">
        <ele>1225.2</ele>
        <time>2022-05-14 14:40:34</time>
      </trkpt>
      <trkpt lat="9.96229" lon="-84.05486">
        <ele>1225.6</ele>
        <time>2022-05-14 14:40:35</time>
      </trkpt>
      <trkpt lat="9.96235" lon="-84.05486">
        <ele>1225.8</ele>
        <time>2022-05-14 14:40:36</time>
      </trkpt>
      <trkpt lat="9.96242" lon="-84.05486">
        <ele>1225.8</ele>
        <time>2022-05-14 14:40:37</time>
      </trkpt>
      <trkpt lat="9.96249" lon="-84.05486">
        <ele>1226</ele>
        <time>2022-05-14 14:40:38</time>
      </trkpt>
      <trkpt lat="9.96256" lon="-84.05486">
        <ele>1226</ele>
        <time>2022-05-14 14:40:39</time>
      </trkpt>
      <trkpt lat="9.96263" lon="-84.05486">
        <ele>1226.2</ele>
        <time>2022-05-14 14:40:40</time>
      </trkpt>
      <trkpt lat="9.9627" lon="-84.05486">
        <ele>1226.2</ele>
        <time>2022-05-14 14:40:41</time>
      </trkpt>
      <trkpt lat="9.9627" lon="-84.05486">
        <ele>1226.2</ele>
        <time>2022-05-14 14:40:42</time>
      </trkpt>
      <trkpt lat="9.96291" lon="-84.05486">
        <ele>1226.4</ele>
        <time>2022-05-14 14:40:43</time>
      </trkpt>
      <trkpt lat="9.96298" lon="-84.05486">
        <ele>1226.4</ele>
        <time>2022-05-14 14:40:44</time>
      </trkpt>
      <trkpt lat="9.96298" lon="-84.05486">
        <ele>1226.4</ele>
        <time>2022-05-14 14:40:45</time>
      </trkpt>
      <trkpt lat="9.96305" lon="-84.05487">
        <ele>1226.4</ele>
        <time>2022-05-14 14:40:46</time>
      </trkpt>
      <trkpt lat="9.96312" lon="-84.05487">
        <ele>1226.4</ele>
        <time>2022-05-14 14:40:47</time>
      </trkpt>
      <trkpt lat="9.96318" lon="-84.05488">
        <ele>1226.2</ele>
        <time>2022-05-14 14:40:48</time>
      </trkpt>
      <trkpt lat="9.96324" lon="-84.05493">
        <ele>1226</ele>
        <time>2022-05-14 14:40:49</time>
      </trkpt>
      <trkpt lat="9.96329" lon="-84.05499">
        <ele>1225.4</ele>
        <time>2022-05-14 14:40:50</time>
      </trkpt>
      <trkpt lat="9.96333" lon="-84.05506">
        <ele>1225</ele>
        <time>2022-05-14 14:40:51</time>
      </trkpt>
      <trkpt lat="9.96335" lon="-84.05514">
        <ele>1224.6</ele>
        <time>2022-05-14 14:40:52</time>
      </trkpt>
      <trkpt lat="9.96336" lon="-84.05531">
        <ele>1224</ele>
        <time>2022-05-14 14:40:53</time>
      </trkpt>
      <trkpt lat="9.96336" lon="-84.05541">
        <ele>1223</ele>
        <time>2022-05-14 14:40:54</time>
      </trkpt>
      <trkpt lat="9.96336" lon="-84.05541">
        <ele>1222.4</ele>
        <time>2022-05-14 14:40:55</time>
      </trkpt>
      <trkpt lat="9.96335" lon="-84.05552">
        <ele>1221.6</ele>
        <time>2022-05-14 14:40:56</time>
      </trkpt>
      <trkpt lat="9.96334" lon="-84.05562">
        <ele>1220.8</ele>
        <time>2022-05-14 14:40:57</time>
      </trkpt>
      <trkpt lat="9.96333" lon="-84.05572">
        <ele>1220</ele>
        <time>2022-05-14 14:40:58</time>
      </trkpt>
      <trkpt lat="9.96332" lon="-84.05582">
        <ele>1219.2</ele>
        <time>2022-05-14 14:40:59</time>
      </trkpt>
      <trkpt lat="9.9633" lon="-84.05591">
        <ele>1218.6</ele>
        <time>2022-05-14 14:41:00</time>
      </trkpt>
      <trkpt lat="9.96329" lon="-84.056">
        <ele>1218</ele>
        <time>2022-05-14 14:41:01</time>
      </trkpt>
      <trkpt lat="9.96327" lon="-84.0561">
        <ele>1217.2</ele>
        <time>2022-05-14 14:41:02</time>
      </trkpt>
      <trkpt lat="9.96322" lon="-84.0563">
        <ele>1216.4</ele>
        <time>2022-05-14 14:41:03</time>
      </trkpt>
      <trkpt lat="9.96319" lon="-84.0564">
        <ele>1215.4</ele>
        <time>2022-05-14 14:41:04</time>
      </trkpt>
      <trkpt lat="9.96315" lon="-84.05651">
        <ele>1214.6</ele>
        <time>2022-05-14 14:41:05</time>
      </trkpt>
      <trkpt lat="9.96315" lon="-84.05651">
        <ele>1214.6</ele>
        <time>2022-05-14 14:41:06</time>
      </trkpt>
      <trkpt lat="9.96311" lon="-84.05662">
        <ele>1213.6</ele>
        <time>2022-05-14 14:41:07</time>
      </trkpt>
      <trkpt lat="9.96306" lon="-84.05673">
        <ele>1212.2</ele>
        <time>2022-05-14 14:41:08</time>
      </trkpt>
      <trkpt lat="9.96301" lon="-84.05685">
        <ele>1211</ele>
        <time>2022-05-14 14:41:09</time>
      </trkpt>
      <trkpt lat="9.96296" lon="-84.05698">
        <ele>1209.8</ele>
        <time>2022-05-14 14:41:10</time>
      </trkpt>
      <trkpt lat="9.96291" lon="-84.0571">
        <ele>1208.4</ele>
        <time>2022-05-14 14:41:11</time>
      </trkpt>
      <trkpt lat="9.96285" lon="-84.05723">
        <ele>1207.4</ele>
        <time>2022-05-14 14:41:12</time>
      </trkpt>
      <trkpt lat="9.96285" lon="-84.05723">
        <ele>1206.4</ele>
        <time>2022-05-14 14:41:13</time>
      </trkpt>
      <trkpt lat="9.96273" lon="-84.05762">
        <ele>1205.8</ele>
        <time>2022-05-14 14:41:14</time>
      </trkpt>
      <trkpt lat="9.9627" lon="-84.05776">
        <ele>1205.2</ele>
        <time>2022-05-14 14:41:15</time>
      </trkpt>
      <trkpt lat="9.9627" lon="-84.05776">
        <ele>1204.2</ele>
        <time>2022-05-14 14:41:16</time>
      </trkpt>
      <trkpt lat="9.96268" lon="-84.05791">
        <ele>1203.2</ele>
        <time>2022-05-14 14:41:17</time>
      </trkpt>
      <trkpt lat="9.96266" lon="-84.05804">
        <ele>1202.2</ele>
        <time>2022-05-14 14:41:18</time>
      </trkpt>
      <trkpt lat="9.96266" lon="-84.05818">
        <ele>1201.4</ele>
        <time>2022-05-14 14:41:19</time>
      </trkpt>
      <trkpt lat="9.96266" lon="-84.05833">
        <ele>1200.8</ele>
        <time>2022-05-14 14:41:20</time>
      </trkpt>
      <trkpt lat="9.96266" lon="-84.05846">
        <ele>1200.4</ele>
        <time>2022-05-14 14:41:21</time>
      </trkpt>
      <trkpt lat="9.96266" lon="-84.0586">
        <ele>1199.8</ele>
        <time>2022-05-14 14:41:22</time>
      </trkpt>
      <trkpt lat="9.96266" lon="-84.0586">
        <ele>1199.6</ele>
        <time>2022-05-14 14:41:23</time>
      </trkpt>
      <trkpt lat="9.96268" lon="-84.05895">
        <ele>1199.6</ele>
        <time>2022-05-14 14:41:24</time>
      </trkpt>
      <trkpt lat="9.96268" lon="-84.05905">
        <ele>1199.8</ele>
        <time>2022-05-14 14:41:25</time>
      </trkpt>
      <trkpt lat="9.96269" lon="-84.05915">
        <ele>1199.8</ele>
        <time>2022-05-14 14:41:26</time>
      </trkpt>
      <trkpt lat="9.96269" lon="-84.05915">
        <ele>1199.8</ele>
        <time>2022-05-14 14:41:27</time>
      </trkpt>
      <trkpt lat="9.9627" lon="-84.05923">
        <ele>1199.8</ele>
        <time>2022-05-14 14:41:28</time>
      </trkpt>
      <trkpt lat="9.9627" lon="-84.0593">
        <ele>1199.6</ele>
        <time>2022-05-14 14:41:29</time>
      </trkpt>
      <trkpt lat="9.9627" lon="-84.05938">
        <ele>1199.6</ele>
        <time>2022-05-14 14:41:30</time>
      </trkpt>
      <trkpt lat="9.9627" lon="-84.05945">
        <ele>1199.6</ele>
        <time>2022-05-14 14:41:31</time>
      </trkpt>
      <trkpt lat="9.96271" lon="-84.05952">
        <ele>1199.4</ele>
        <time>2022-05-14 14:41:32</time>
      </trkpt>
      <trkpt lat="9.96272" lon="-84.0596">
        <ele>1199.4</ele>
        <time>2022-05-14 14:41:33</time>
      </trkpt>
      <trkpt lat="9.96272" lon="-84.0596">
        <ele>1199.2</ele>
        <time>2022-05-14 14:41:34</time>
      </trkpt>
      <trkpt lat="9.96273" lon="-84.05984">
        <ele>1198.8</ele>
        <time>2022-05-14 14:41:35</time>
      </trkpt>
      <trkpt lat="9.96274" lon="-84.05992">
        <ele>1198.6</ele>
        <time>2022-05-14 14:41:36</time>
      </trkpt>
      <trkpt lat="9.96274" lon="-84.05992">
        <ele>1198.4</ele>
        <time>2022-05-14 14:41:37</time>
      </trkpt>
      <trkpt lat="9.96274" lon="-84.06001">
        <ele>1198.2</ele>
        <time>2022-05-14 14:41:38</time>
      </trkpt>
      <trkpt lat="9.96274" lon="-84.06009">
        <ele>1198.2</ele>
        <time>2022-05-14 14:41:39</time>
      </trkpt>
      <trkpt lat="9.96275" lon="-84.06017">
        <ele>1197.8</ele>
        <time>2022-05-14 14:41:40</time>
      </trkpt>
      <trkpt lat="9.96275" lon="-84.06026">
        <ele>1197.6</ele>
        <time>2022-05-14 14:41:41</time>
      </trkpt>
      <trkpt lat="9.96276" lon="-84.06035">
        <ele>1197.4</ele>
        <time>2022-05-14 14:41:42</time>
      </trkpt>
      <trkpt lat="9.96276" lon="-84.06043">
        <ele>1197.4</ele>
        <time>2022-05-14 14:41:43</time>
      </trkpt>
      <trkpt lat="9.96277" lon="-84.0606">
        <ele>1197.4</ele>
        <time>2022-05-14 14:41:44</time>
      </trkpt>
      <trkpt lat="9.96278" lon="-84.06069">
        <ele>1197.2</ele>
        <time>2022-05-14 14:41:45</time>
      </trkpt>
      <trkpt lat="9.96278" lon="-84.06078">
        <ele>1197</ele>
        <time>2022-05-14 14:41:46</time>
      </trkpt>
      <trkpt lat="9.96278" lon="-84.06087">
        <ele>1197</ele>
        <time>2022-05-14 14:41:47</time>
      </trkpt>
      <trkpt lat="9.96278" lon="-84.06087">
        <ele>1197</ele>
        <time>2022-05-14 14:41:48</time>
      </trkpt>
      <trkpt lat="9.96278" lon="-84.06095">
        <ele>1197</ele>
        <time>2022-05-14 14:41:49</time>
      </trkpt>
      <trkpt lat="9.96278" lon="-84.06104">
        <ele>1196.6</ele>
        <time>2022-05-14 14:41:50</time>
      </trkpt>
      <trkpt lat="9.96277" lon="-84.06113">
        <ele>1196.4</ele>
        <time>2022-05-14 14:41:51</time>
      </trkpt>
      <trkpt lat="9.96276" lon="-84.0612">
        <ele>1196.2</ele>
        <time>2022-05-14 14:41:52</time>
      </trkpt>
      <trkpt lat="9.96274" lon="-84.06129">
        <ele>1196.6</ele>
        <time>2022-05-14 14:41:53</time>
      </trkpt>
      <trkpt lat="9.96272" lon="-84.06137">
        <ele>1196.6</ele>
        <time>2022-05-14 14:41:54</time>
      </trkpt>
      <trkpt lat="9.96266" lon="-84.06154">
        <ele>1196.4</ele>
        <time>2022-05-14 14:41:55</time>
      </trkpt>
      <trkpt lat="9.96262" lon="-84.06162">
        <ele>1196.4</ele>
        <time>2022-05-14 14:41:56</time>
      </trkpt>
      <trkpt lat="9.96258" lon="-84.06169">
        <ele>1196.4</ele>
        <time>2022-05-14 14:41:57</time>
      </trkpt>
      <trkpt lat="9.96258" lon="-84.06169">
        <ele>1196.2</ele>
        <time>2022-05-14 14:41:58</time>
      </trkpt>
      <trkpt lat="9.96253" lon="-84.06176">
        <ele>1196</ele>
        <time>2022-05-14 14:41:59</time>
      </trkpt>
      <trkpt lat="9.96248" lon="-84.06183">
        <ele>1196</ele>
        <time>2022-05-14 14:42:00</time>
      </trkpt>
      <trkpt lat="9.96242" lon="-84.0619">
        <ele>1195.6</ele>
        <time>2022-05-14 14:42:01</time>
      </trkpt>
      <trkpt lat="9.96237" lon="-84.06196">
        <ele>1195.4</ele>
        <time>2022-05-14 14:42:02</time>
      </trkpt>
      <trkpt lat="9.96232" lon="-84.06203">
        <ele>1195.2</ele>
        <time>2022-05-14 14:42:03</time>
      </trkpt>
      <trkpt lat="9.96227" lon="-84.06209">
        <ele>1195.2</ele>
        <time>2022-05-14 14:42:04</time>
      </trkpt>
      <trkpt lat="9.96216" lon="-84.06222">
        <ele>1195.2</ele>
        <time>2022-05-14 14:42:05</time>
      </trkpt>
      <trkpt lat="9.96211" lon="-84.06227">
        <ele>1195</ele>
        <time>2022-05-14 14:42:06</time>
      </trkpt>
      <trkpt lat="9.96206" lon="-84.06232">
        <ele>1195</ele>
        <time>2022-05-14 14:42:07</time>
      </trkpt>
      <trkpt lat="9.96201" lon="-84.06238">
        <ele>1195</ele>
        <time>2022-05-14 14:42:08</time>
      </trkpt>
      <trkpt lat="9.96201" lon="-84.06238">
        <ele>1195</ele>
        <time>2022-05-14 14:42:09</time>
      </trkpt>
      <trkpt lat="9.96197" lon="-84.06243">
        <ele>1194.8</ele>
        <time>2022-05-14 14:42:10</time>
      </trkpt>
      <trkpt lat="9.96193" lon="-84.06246">
        <ele>1194.8</ele>
        <time>2022-05-14 14:42:11</time>
      </trkpt>
      <trkpt lat="9.96192" lon="-84.06252">
        <ele>1194.8</ele>
        <time>2022-05-14 14:42:12</time>
      </trkpt>
      <trkpt lat="9.96191" lon="-84.06259">
        <ele>1194.8</ele>
        <time>2022-05-14 14:42:13</time>
      </trkpt>
      <trkpt lat="9.96191" lon="-84.06265">
        <ele>1195</ele>
        <time>2022-05-14 14:42:14</time>
      </trkpt>
      <trkpt lat="9.96191" lon="-84.06265">
        <ele>1195</ele>
        <time>2022-05-14 14:42:15</time>
      </trkpt>
      <trkpt lat="9.9619" lon="-84.06285">
        <ele>1195.2</ele>
        <time>2022-05-14 14:42:16</time>
      </trkpt>
      <trkpt lat="9.9619" lon="-84.06292">
        <ele>1195</ele>
        <time>2022-05-14 14:42:17</time>
      </trkpt>
      <trkpt lat="9.96191" lon="-84.06299">
        <ele>1195.2</ele>
        <time>2022-05-14 14:42:18</time>
      </trkpt>
      <trkpt lat="9.96191" lon="-84.06299">
        <ele>1195.4</ele>
        <time>2022-05-14 14:42:19</time>
      </trkpt>
      <trkpt lat="9.96191" lon="-84.06306">
        <ele>1195.8</ele>
        <time>2022-05-14 14:42:20</time>
      </trkpt>
      <trkpt lat="9.96192" lon="-84.06313">
        <ele>1196</ele>
        <time>2022-05-14 14:42:21</time>
      </trkpt>
      <trkpt lat="9.96193" lon="-84.0632">
        <ele>1196.2</ele>
        <time>2022-05-14 14:42:22</time>
      </trkpt>
      <trkpt lat="9.96193" lon="-84.06328">
        <ele>1196.6</ele>
        <time>2022-05-14 14:42:23</time>
      </trkpt>
      <trkpt lat="9.96193" lon="-84.06335">
        <ele>1196.8</ele>
        <time>2022-05-14 14:42:24</time>
      </trkpt>
      <trkpt lat="9.96193" lon="-84.06335">
        <ele>1197</ele>
        <time>2022-05-14 14:42:25</time>
      </trkpt>
      <trkpt lat="9.96194" lon="-84.06357">
        <ele>1197</ele>
        <time>2022-05-14 14:42:26</time>
      </trkpt>
      <trkpt lat="9.96194" lon="-84.06365">
        <ele>1197.2</ele>
        <time>2022-05-14 14:42:27</time>
      </trkpt>
      <trkpt lat="9.96194" lon="-84.06374">
        <ele>1197.2</ele>
        <time>2022-05-14 14:42:28</time>
      </trkpt>
      <trkpt lat="9.96194" lon="-84.0638">
        <ele>1197.4</ele>
        <time>2022-05-14 14:42:29</time>
      </trkpt>
      <trkpt lat="9.96194" lon="-84.0638">
        <ele>1197.4</ele>
        <time>2022-05-14 14:42:30</time>
      </trkpt>
      <trkpt lat="9.96195" lon="-84.06389">
        <ele>1197.4</ele>
        <time>2022-05-14 14:42:31</time>
      </trkpt>
      <trkpt lat="9.96195" lon="-84.06395">
        <ele>1197.4</ele>
        <time>2022-05-14 14:42:32</time>
      </trkpt>
      <trkpt lat="9.96195" lon="-84.06404">
        <ele>1197.4</ele>
        <time>2022-05-14 14:42:33</time>
      </trkpt>
      <trkpt lat="9.96195" lon="-84.0641">
        <ele>1197.2</ele>
        <time>2022-05-14 14:42:34</time>
      </trkpt>
      <trkpt lat="9.96195" lon="-84.06417">
        <ele>1197</ele>
        <time>2022-05-14 14:42:35</time>
      </trkpt>
      <trkpt lat="9.96196" lon="-84.06429">
        <ele>1196.8</ele>
        <time>2022-05-14 14:42:36</time>
      </trkpt>
      <trkpt lat="9.96196" lon="-84.06435">
        <ele>1196.6</ele>
        <time>2022-05-14 14:42:37</time>
      </trkpt>
      <trkpt lat="9.96196" lon="-84.0644">
        <ele>1196.4</ele>
        <time>2022-05-14 14:42:38</time>
      </trkpt>
      <trkpt lat="9.96196" lon="-84.06447">
        <ele>1196.4</ele>
        <time>2022-05-14 14:42:39</time>
      </trkpt>
      <trkpt lat="9.96196" lon="-84.06447">
        <ele>1196.2</ele>
        <time>2022-05-14 14:42:40</time>
      </trkpt>
      <trkpt lat="9.96197" lon="-84.06452">
        <ele>1196.2</ele>
        <time>2022-05-14 14:42:41</time>
      </trkpt>
      <trkpt lat="9.96198" lon="-84.06459">
        <ele>1196</ele>
        <time>2022-05-14 14:42:42</time>
      </trkpt>
      <trkpt lat="9.96198" lon="-84.06467">
        <ele>1195.8</ele>
        <time>2022-05-14 14:42:43</time>
      </trkpt>
      <trkpt lat="9.96198" lon="-84.06473">
        <ele>1195.8</ele>
        <time>2022-05-14 14:42:44</time>
      </trkpt>
      <trkpt lat="9.96198" lon="-84.06481">
        <ele>1195.8</ele>
        <time>2022-05-14 14:42:45</time>
      </trkpt>
      <trkpt lat="9.96198" lon="-84.06496">
        <ele>1195.6</ele>
        <time>2022-05-14 14:42:46</time>
      </trkpt>
      <trkpt lat="9.96198" lon="-84.06504">
        <ele>1195.6</ele>
        <time>2022-05-14 14:42:47</time>
      </trkpt>
      <trkpt lat="9.96198" lon="-84.06512">
        <ele>1195.4</ele>
        <time>2022-05-14 14:42:48</time>
      </trkpt>
      <trkpt lat="9.96198" lon="-84.0652">
        <ele>1195.2</ele>
        <time>2022-05-14 14:42:49</time>
      </trkpt>
      <trkpt lat="9.96198" lon="-84.06529">
        <ele>1195</ele>
        <time>2022-05-14 14:42:50</time>
      </trkpt>
      <trkpt lat="9.96198" lon="-84.06529">
        <ele>1195</ele>
        <time>2022-05-14 14:42:51</time>
      </trkpt>
      <trkpt lat="9.96198" lon="-84.06537">
        <ele>1194.8</ele>
        <time>2022-05-14 14:42:52</time>
      </trkpt>
      <trkpt lat="9.96198" lon="-84.06545">
        <ele>1194.6</ele>
        <time>2022-05-14 14:42:53</time>
      </trkpt>
      <trkpt lat="9.96198" lon="-84.06553">
        <ele>1194.4</ele>
        <time>2022-05-14 14:42:54</time>
      </trkpt>
      <trkpt lat="9.96198" lon="-84.06561">
        <ele>1194.2</ele>
        <time>2022-05-14 14:42:55</time>
      </trkpt>
      <trkpt lat="9.96198" lon="-84.0657">
        <ele>1193.8</ele>
        <time>2022-05-14 14:42:56</time>
      </trkpt>
      <trkpt lat="9.96199" lon="-84.06586">
        <ele>1193.8</ele>
        <time>2022-05-14 14:42:57</time>
      </trkpt>
      <trkpt lat="9.962" lon="-84.06595">
        <ele>1193.6</ele>
        <time>2022-05-14 14:42:58</time>
      </trkpt>
      <trkpt lat="9.962" lon="-84.06603">
        <ele>1193.6</ele>
        <time>2022-05-14 14:42:59</time>
      </trkpt>
      <trkpt lat="9.962" lon="-84.06612">
        <ele>1193.4</ele>
        <time>2022-05-14 14:43:00</time>
      </trkpt>
      <trkpt lat="9.962" lon="-84.06612">
        <ele>1193.2</ele>
        <time>2022-05-14 14:43:01</time>
      </trkpt>
      <trkpt lat="9.962" lon="-84.06621">
        <ele>1192.8</ele>
        <time>2022-05-14 14:43:02</time>
      </trkpt>
      <trkpt lat="9.962" lon="-84.0663">
        <ele>1192.6</ele>
        <time>2022-05-14 14:43:03</time>
      </trkpt>
      <trkpt lat="9.962" lon="-84.06639">
        <ele>1192.4</ele>
        <time>2022-05-14 14:43:04</time>
      </trkpt>
      <trkpt lat="9.962" lon="-84.06648">
        <ele>1192.4</ele>
        <time>2022-05-14 14:43:05</time>
      </trkpt>
      <trkpt lat="9.962" lon="-84.06648">
        <ele>1192.2</ele>
        <time>2022-05-14 14:43:06</time>
      </trkpt>
      <trkpt lat="9.96201" lon="-84.06675">
        <ele>1192</ele>
        <time>2022-05-14 14:43:07</time>
      </trkpt>
      <trkpt lat="9.96201" lon="-84.06684">
        <ele>1192</ele>
        <time>2022-05-14 14:43:08</time>
      </trkpt>
      <trkpt lat="9.96202" lon="-84.06693">
        <ele>1191.8</ele>
        <time>2022-05-14 14:43:09</time>
      </trkpt>
      <trkpt lat="9.96202" lon="-84.06702">
        <ele>1191.6</ele>
        <time>2022-05-14 14:43:10</time>
      </trkpt>
      <trkpt lat="9.96202" lon="-84.06711">
        <ele>1191.4</ele>
        <time>2022-05-14 14:43:11</time>
      </trkpt>
      <trkpt lat="9.96202" lon="-84.06711">
        <ele>1191.4</ele>
        <time>2022-05-14 14:43:12</time>
      </trkpt>
      <trkpt lat="9.96202" lon="-84.0672">
        <ele>1191.2</ele>
        <time>2022-05-14 14:43:13</time>
      </trkpt>
      <trkpt lat="9.96203" lon="-84.06729">
        <ele>1191.2</ele>
        <time>2022-05-14 14:43:14</time>
      </trkpt>
      <trkpt lat="9.96203" lon="-84.06738">
        <ele>1191.2</ele>
        <time>2022-05-14 14:43:15</time>
      </trkpt>
      <trkpt lat="9.96203" lon="-84.06747">
        <ele>1191.2</ele>
        <time>2022-05-14 14:43:16</time>
      </trkpt>
      <trkpt lat="9.96203" lon="-84.06747">
        <ele>1190.8</ele>
        <time>2022-05-14 14:43:17</time>
      </trkpt>
      <trkpt lat="9.96204" lon="-84.06773">
        <ele>1190.6</ele>
        <time>2022-05-14 14:43:18</time>
      </trkpt>
      <trkpt lat="9.96204" lon="-84.06781">
        <ele>1190.6</ele>
        <time>2022-05-14 14:43:19</time>
      </trkpt>
      <trkpt lat="9.96204" lon="-84.06789">
        <ele>1190.6</ele>
        <time>2022-05-14 14:43:20</time>
      </trkpt>
      <trkpt lat="9.96204" lon="-84.06798">
        <ele>1190.4</ele>
        <time>2022-05-14 14:43:21</time>
      </trkpt>
      <trkpt lat="9.96204" lon="-84.06798">
        <ele>1190.2</ele>
        <time>2022-05-14 14:43:22</time>
      </trkpt>
      <trkpt lat="9.96205" lon="-84.06805">
        <ele>1190.2</ele>
        <time>2022-05-14 14:43:23</time>
      </trkpt>
      <trkpt lat="9.96205" lon="-84.06813">
        <ele>1190.2</ele>
        <time>2022-05-14 14:43:24</time>
      </trkpt>
      <trkpt lat="9.96205" lon="-84.06821">
        <ele>1189.6</ele>
        <time>2022-05-14 14:43:25</time>
      </trkpt>
      <trkpt lat="9.96206" lon="-84.06829">
        <ele>1189.4</ele>
        <time>2022-05-14 14:43:26</time>
      </trkpt>
      <trkpt lat="9.96206" lon="-84.06844">
        <ele>1189.4</ele>
        <time>2022-05-14 14:43:27</time>
      </trkpt>
      <trkpt lat="9.96206" lon="-84.06851">
        <ele>1189.8</ele>
        <time>2022-05-14 14:43:28</time>
      </trkpt>
      <trkpt lat="9.96206" lon="-84.06859">
        <ele>1189.8</ele>
        <time>2022-05-14 14:43:29</time>
      </trkpt>
      <trkpt lat="9.96206" lon="-84.06865">
        <ele>1189.8</ele>
        <time>2022-05-14 14:43:30</time>
      </trkpt>
      <trkpt lat="9.96206" lon="-84.06871">
        <ele>1189.6</ele>
        <time>2022-05-14 14:43:31</time>
      </trkpt>
      <trkpt lat="9.96207" lon="-84.06876">
        <ele>1189.6</ele>
        <time>2022-05-14 14:43:32</time>
      </trkpt>
      <trkpt lat="9.96207" lon="-84.06876">
        <ele>1189.6</ele>
        <time>2022-05-14 14:43:33</time>
      </trkpt>
      <trkpt lat="9.96207" lon="-84.06882">
        <ele>1189.4</ele>
        <time>2022-05-14 14:43:34</time>
      </trkpt>
      <trkpt lat="9.96207" lon="-84.06885">
        <ele>1189.2</ele>
        <time>2022-05-14 14:43:35</time>
      </trkpt>
      <trkpt lat="9.96208" lon="-84.06891">
        <ele>1189</ele>
        <time>2022-05-14 14:43:36</time>
      </trkpt>
      <trkpt lat="9.96208" lon="-84.06896">
        <ele>1189</ele>
        <time>2022-05-14 14:43:37</time>
      </trkpt>
      <trkpt lat="9.96209" lon="-84.06908">
        <ele>1189</ele>
        <time>2022-05-14 14:43:38</time>
      </trkpt>
      <trkpt lat="9.96208" lon="-84.06915">
        <ele>1188.8</ele>
        <time>2022-05-14 14:43:39</time>
      </trkpt>
      <trkpt lat="9.96207" lon="-84.06921">
        <ele>1188.6</ele>
        <time>2022-05-14 14:43:40</time>
      </trkpt>
      <trkpt lat="9.96208" lon="-84.06928">
        <ele>1188.6</ele>
        <time>2022-05-14 14:43:41</time>
      </trkpt>
      <trkpt lat="9.96207" lon="-84.06935">
        <ele>1188.8</ele>
        <time>2022-05-14 14:43:42</time>
      </trkpt>
      <trkpt lat="9.96207" lon="-84.06935">
        <ele>1188.8</ele>
        <time>2022-05-14 14:43:43</time>
      </trkpt>
      <trkpt lat="9.96208" lon="-84.06942">
        <ele>1189</ele>
        <time>2022-05-14 14:43:44</time>
      </trkpt>
      <trkpt lat="9.96208" lon="-84.06949">
        <ele>1188.8</ele>
        <time>2022-05-14 14:43:45</time>
      </trkpt>
      <trkpt lat="9.96209" lon="-84.06957">
        <ele>1188.8</ele>
        <time>2022-05-14 14:43:46</time>
      </trkpt>
      <trkpt lat="9.96209" lon="-84.06957">
        <ele>1188.4</ele>
        <time>2022-05-14 14:43:47</time>
      </trkpt>
      <trkpt lat="9.9621" lon="-84.06979">
        <ele>1188.2</ele>
        <time>2022-05-14 14:43:48</time>
      </trkpt>
      <trkpt lat="9.9621" lon="-84.06987">
        <ele>1188</ele>
        <time>2022-05-14 14:43:49</time>
      </trkpt>
      <trkpt lat="9.9621" lon="-84.06995">
        <ele>1188</ele>
        <time>2022-05-14 14:43:50</time>
      </trkpt>
      <trkpt lat="9.9621" lon="-84.07003">
        <ele>1187.8</ele>
        <time>2022-05-14 14:43:51</time>
      </trkpt>
      <trkpt lat="9.96211" lon="-84.07011">
        <ele>1187.6</ele>
        <time>2022-05-14 14:43:52</time>
      </trkpt>
      <trkpt lat="9.96211" lon="-84.07019">
        <ele>1187.4</ele>
        <time>2022-05-14 14:43:53</time>
      </trkpt>
      <trkpt lat="9.96211" lon="-84.07019">
        <ele>1187.4</ele>
        <time>2022-05-14 14:43:54</time>
      </trkpt>
      <trkpt lat="9.96211" lon="-84.07027">
        <ele>1187.4</ele>
        <time>2022-05-14 14:43:55</time>
      </trkpt>
      <trkpt lat="9.96212" lon="-84.07035">
        <ele>1187.4</ele>
        <time>2022-05-14 14:43:56</time>
      </trkpt>
      <trkpt lat="9.96212" lon="-84.07042">
        <ele>1187</ele>
        <time>2022-05-14 14:43:57</time>
      </trkpt>
      <trkpt lat="9.96212" lon="-84.07042">
        <ele>1186.8</ele>
        <time>2022-05-14 14:43:58</time>
      </trkpt>
      <trkpt lat="9.96212" lon="-84.07068">
        <ele>1186.6</ele>
        <time>2022-05-14 14:43:59</time>
      </trkpt>
      <trkpt lat="9.96212" lon="-84.07076">
        <ele>1186.6</ele>
        <time>2022-05-14 14:44:00</time>
      </trkpt>
      <trkpt lat="9.96212" lon="-84.07085">
        <ele>1186.4</ele>
        <time>2022-05-14 14:44:01</time>
      </trkpt>
      <trkpt lat="9.96213" lon="-84.07093">
        <ele>1186.4</ele>
        <time>2022-05-14 14:44:02</time>
      </trkpt>
      <trkpt lat="9.96213" lon="-84.07101">
        <ele>1186.2</ele>
        <time>2022-05-14 14:44:03</time>
      </trkpt>
      <trkpt lat="9.96213" lon="-84.07101">
        <ele>1186</ele>
        <time>2022-05-14 14:44:04</time>
      </trkpt>
      <trkpt lat="9.96214" lon="-84.0711">
        <ele>1185.6</ele>
        <time>2022-05-14 14:44:05</time>
      </trkpt>
      <trkpt lat="9.96214" lon="-84.07118">
        <ele>1185.4</ele>
        <time>2022-05-14 14:44:06</time>
      </trkpt>
      <trkpt lat="9.96214" lon="-84.07127">
        <ele>1185.2</ele>
        <time>2022-05-14 14:44:07</time>
      </trkpt>
      <trkpt lat="9.96214" lon="-84.07127">
        <ele>1185</ele>
        <time>2022-05-14 14:44:08</time>
      </trkpt>
      <trkpt lat="9.96216" lon="-84.07153">
        <ele>1184.8</ele>
        <time>2022-05-14 14:44:09</time>
      </trkpt>
      <trkpt lat="9.96216" lon="-84.07162">
        <ele>1184.6</ele>
        <time>2022-05-14 14:44:10</time>
      </trkpt>
      <trkpt lat="9.96215" lon="-84.07171">
        <ele>1184.4</ele>
        <time>2022-05-14 14:44:11</time>
      </trkpt>
      <trkpt lat="9.96216" lon="-84.07179">
        <ele>1184</ele>
        <time>2022-05-14 14:44:12</time>
      </trkpt>
      <trkpt lat="9.96216" lon="-84.07188">
        <ele>1183.6</ele>
        <time>2022-05-14 14:44:13</time>
      </trkpt>
      <trkpt lat="9.96216" lon="-84.07197">
        <ele>1183.4</ele>
        <time>2022-05-14 14:44:14</time>
      </trkpt>
      <trkpt lat="9.96216" lon="-84.07197">
        <ele>1183.4</ele>
        <time>2022-05-14 14:44:15</time>
      </trkpt>
      <trkpt lat="9.96217" lon="-84.07207">
        <ele>1183.2</ele>
        <time>2022-05-14 14:44:16</time>
      </trkpt>
      <trkpt lat="9.96217" lon="-84.07216">
        <ele>1183</ele>
        <time>2022-05-14 14:44:17</time>
      </trkpt>
      <trkpt lat="9.96217" lon="-84.07225">
        <ele>1182.8</ele>
        <time>2022-05-14 14:44:18</time>
      </trkpt>
      <trkpt lat="9.96217" lon="-84.07244">
        <ele>1182.6</ele>
        <time>2022-05-14 14:44:19</time>
      </trkpt>
      <trkpt lat="9.96217" lon="-84.07253">
        <ele>1182.4</ele>
        <time>2022-05-14 14:44:20</time>
      </trkpt>
      <trkpt lat="9.96218" lon="-84.07262">
        <ele>1182.2</ele>
        <time>2022-05-14 14:44:21</time>
      </trkpt>
      <trkpt lat="9.96218" lon="-84.07273">
        <ele>1182</ele>
        <time>2022-05-14 14:44:22</time>
      </trkpt>
      <trkpt lat="9.96218" lon="-84.07282">
        <ele>1181.8</ele>
        <time>2022-05-14 14:44:23</time>
      </trkpt>
      <trkpt lat="9.96219" lon="-84.07292">
        <ele>1181.6</ele>
        <time>2022-05-14 14:44:24</time>
      </trkpt>
      <trkpt lat="9.96219" lon="-84.07292">
        <ele>1181.4</ele>
        <time>2022-05-14 14:44:25</time>
      </trkpt>
      <trkpt lat="9.96219" lon="-84.073">
        <ele>1181.2</ele>
        <time>2022-05-14 14:44:26</time>
      </trkpt>
      <trkpt lat="9.96219" lon="-84.07308">
        <ele>1181</ele>
        <time>2022-05-14 14:44:27</time>
      </trkpt>
      <trkpt lat="9.9622" lon="-84.07317">
        <ele>1181</ele>
        <time>2022-05-14 14:44:28</time>
      </trkpt>
      <trkpt lat="9.9622" lon="-84.07335">
        <ele>1180.8</ele>
        <time>2022-05-14 14:44:29</time>
      </trkpt>
      <trkpt lat="9.9622" lon="-84.07343">
        <ele>1180.8</ele>
        <time>2022-05-14 14:44:30</time>
      </trkpt>
      <trkpt lat="9.9622" lon="-84.07351">
        <ele>1180.6</ele>
        <time>2022-05-14 14:44:31</time>
      </trkpt>
      <trkpt lat="9.96221" lon="-84.07361">
        <ele>1180.4</ele>
        <time>2022-05-14 14:44:32</time>
      </trkpt>
      <trkpt lat="9.96221" lon="-84.07369">
        <ele>1180.4</ele>
        <time>2022-05-14 14:44:33</time>
      </trkpt>
      <trkpt lat="9.96221" lon="-84.07378">
        <ele>1180.4</ele>
        <time>2022-05-14 14:44:34</time>
      </trkpt>
      <trkpt lat="9.96222" lon="-84.07387">
        <ele>1180.4</ele>
        <time>2022-05-14 14:44:35</time>
      </trkpt>
      <trkpt lat="9.96222" lon="-84.07387">
        <ele>1180.4</ele>
        <time>2022-05-14 14:44:36</time>
      </trkpt>
      <trkpt lat="9.96222" lon="-84.07395">
        <ele>1180.2</ele>
        <time>2022-05-14 14:44:37</time>
      </trkpt>
      <trkpt lat="9.96223" lon="-84.07403">
        <ele>1180</ele>
        <time>2022-05-14 14:44:38</time>
      </trkpt>
      <trkpt lat="9.96223" lon="-84.07413">
        <ele>1179.6</ele>
        <time>2022-05-14 14:44:39</time>
      </trkpt>
      <trkpt lat="9.96224" lon="-84.0743">
        <ele>1179.4</ele>
        <time>2022-05-14 14:44:40</time>
      </trkpt>
      <trkpt lat="9.96224" lon="-84.07439">
        <ele>1179</ele>
        <time>2022-05-14 14:44:41</time>
      </trkpt>
      <trkpt lat="9.96224" lon="-84.07446">
        <ele>1178.8</ele>
        <time>2022-05-14 14:44:42</time>
      </trkpt>
      <trkpt lat="9.96224" lon="-84.07454">
        <ele>1178.4</ele>
        <time>2022-05-14 14:44:43</time>
      </trkpt>
      <trkpt lat="9.96224" lon="-84.07462">
        <ele>1178.6</ele>
        <time>2022-05-14 14:44:44</time>
      </trkpt>
      <trkpt lat="9.96224" lon="-84.07469">
        <ele>1178.8</ele>
        <time>2022-05-14 14:44:45</time>
      </trkpt>
      <trkpt lat="9.96224" lon="-84.07469">
        <ele>1179</ele>
        <time>2022-05-14 14:44:46</time>
      </trkpt>
      <trkpt lat="9.96228" lon="-84.07474">
        <ele>1178.8</ele>
        <time>2022-05-14 14:44:47</time>
      </trkpt>
      <trkpt lat="9.96233" lon="-84.07476">
        <ele>1178.6</ele>
        <time>2022-05-14 14:44:48</time>
      </trkpt>
      <trkpt lat="9.96233" lon="-84.07476">
        <ele>1178.6</ele>
        <time>2022-05-14 14:44:49</time>
      </trkpt>
      <trkpt lat="9.96252" lon="-84.07475">
        <ele>1178.8</ele>
        <time>2022-05-14 14:44:50</time>
      </trkpt>
      <trkpt lat="9.96259" lon="-84.07474">
        <ele>1179</ele>
        <time>2022-05-14 14:44:51</time>
      </trkpt>
      <trkpt lat="9.96265" lon="-84.07475">
        <ele>1179.2</ele>
        <time>2022-05-14 14:44:52</time>
      </trkpt>
      <trkpt lat="9.96271" lon="-84.07475">
        <ele>1179.4</ele>
        <time>2022-05-14 14:44:53</time>
      </trkpt>
      <trkpt lat="9.96277" lon="-84.07474">
        <ele>1179.6</ele>
        <time>2022-05-14 14:44:54</time>
      </trkpt>
      <trkpt lat="9.96283" lon="-84.07474">
        <ele>1179.8</ele>
        <time>2022-05-14 14:44:55</time>
      </trkpt>
      <trkpt lat="9.96289" lon="-84.07474">
        <ele>1180</ele>
        <time>2022-05-14 14:44:56</time>
      </trkpt>
      <trkpt lat="9.96289" lon="-84.07474">
        <ele>1180</ele>
        <time>2022-05-14 14:44:57</time>
      </trkpt>
      <trkpt lat="9.96293" lon="-84.07474">
        <ele>1180.2</ele>
        <time>2022-05-14 14:44:58</time>
      </trkpt>
      <trkpt lat="9.96298" lon="-84.07474">
        <ele>1180.2</ele>
        <time>2022-05-14 14:44:59</time>
      </trkpt>
      <trkpt lat="9.96298" lon="-84.07474">
        <ele>1180.4</ele>
        <time>2022-05-14 14:45:00</time>
      </trkpt>
      <trkpt lat="9.96302" lon="-84.07474">
        <ele>1180.4</ele>
        <time>2022-05-14 14:45:01</time>
      </trkpt>
      <trkpt lat="9.96303" lon="-84.07474">
        <ele>1180.4</ele>
        <time>2022-05-14 14:45:02</time>
      </trkpt>
      <trkpt lat="9.96304" lon="-84.07474">
        <ele>1180.4</ele>
        <time>2022-05-14 14:45:03</time>
      </trkpt>
      <trkpt lat="9.96305" lon="-84.07474">
        <ele>1180.4</ele>
        <time>2022-05-14 14:45:04</time>
      </trkpt>
      <trkpt lat="9.96307" lon="-84.07477">
        <ele>1180.4</ele>
        <time>2022-05-14 14:45:05</time>
      </trkpt>
      <trkpt lat="9.96308" lon="-84.0748">
        <ele>1180.4</ele>
        <time>2022-05-14 14:45:06</time>
      </trkpt>
      <trkpt lat="9.96308" lon="-84.0748">
        <ele>1180.4</ele>
        <time>2022-05-14 14:45:07</time>
      </trkpt>
      <trkpt lat="9.96309" lon="-84.07482">
        <ele>1180.4</ele>
        <time>2022-05-14 14:45:08</time>
      </trkpt>
      <trkpt lat="9.96309" lon="-84.07485">
        <ele>1180.2</ele>
        <time>2022-05-14 14:45:09</time>
      </trkpt>
      <trkpt lat="9.9631" lon="-84.07493">
        <ele>1180.2</ele>
        <time>2022-05-14 14:45:10</time>
      </trkpt>
      <trkpt lat="9.9631" lon="-84.07498">
        <ele>1180.2</ele>
        <time>2022-05-14 14:45:11</time>
      </trkpt>
      <trkpt lat="9.9631" lon="-84.07502">
        <ele>1180.2</ele>
        <time>2022-05-14 14:45:12</time>
      </trkpt>
      <trkpt lat="9.9631" lon="-84.07508">
        <ele>1180.2</ele>
        <time>2022-05-14 14:45:13</time>
      </trkpt>
      <trkpt lat="9.96311" lon="-84.07512">
        <ele>1180</ele>
        <time>2022-05-14 14:45:14</time>
      </trkpt>
      <trkpt lat="9.96311" lon="-84.07517">
        <ele>1180</ele>
        <time>2022-05-14 14:45:15</time>
      </trkpt>
      <trkpt lat="9.96311" lon="-84.07522">
        <ele>1180</ele>
        <time>2022-05-14 14:45:16</time>
      </trkpt>
      <trkpt lat="9.96311" lon="-84.07527">
        <ele>1180</ele>
        <time>2022-05-14 14:45:17</time>
      </trkpt>
      <trkpt lat="9.96311" lon="-84.07527">
        <ele>1180</ele>
        <time>2022-05-14 14:45:18</time>
      </trkpt>
      <trkpt lat="9.96312" lon="-84.07533">
        <ele>1179.8</ele>
        <time>2022-05-14 14:45:19</time>
      </trkpt>
      <trkpt lat="9.96312" lon="-84.07539">
        <ele>1179.8</ele>
        <time>2022-05-14 14:45:20</time>
      </trkpt>
      <trkpt lat="9.96312" lon="-84.07551">
        <ele>1179.8</ele>
        <time>2022-05-14 14:45:21</time>
      </trkpt>
      <trkpt lat="9.96312" lon="-84.07557">
        <ele>1179.6</ele>
        <time>2022-05-14 14:45:22</time>
      </trkpt>
      <trkpt lat="9.96312" lon="-84.07564">
        <ele>1179.6</ele>
        <time>2022-05-14 14:45:23</time>
      </trkpt>
      <trkpt lat="9.96312" lon="-84.07571">
        <ele>1179.4</ele>
        <time>2022-05-14 14:45:24</time>
      </trkpt>
      <trkpt lat="9.96312" lon="-84.07577">
        <ele>1179.4</ele>
        <time>2022-05-14 14:45:25</time>
      </trkpt>
      <trkpt lat="9.96312" lon="-84.07584">
        <ele>1179.4</ele>
        <time>2022-05-14 14:45:26</time>
      </trkpt>
      <trkpt lat="9.96312" lon="-84.07591">
        <ele>1179.2</ele>
        <time>2022-05-14 14:45:27</time>
      </trkpt>
      <trkpt lat="9.96312" lon="-84.07591">
        <ele>1179.2</ele>
        <time>2022-05-14 14:45:28</time>
      </trkpt>
      <trkpt lat="9.96312" lon="-84.07598">
        <ele>1179</ele>
        <time>2022-05-14 14:45:29</time>
      </trkpt>
      <trkpt lat="9.96312" lon="-84.07605">
        <ele>1179</ele>
        <time>2022-05-14 14:45:30</time>
      </trkpt>
      <trkpt lat="9.96313" lon="-84.0762">
        <ele>1178.8</ele>
        <time>2022-05-14 14:45:31</time>
      </trkpt>
      <trkpt lat="9.96313" lon="-84.07626">
        <ele>1178.8</ele>
        <time>2022-05-14 14:45:32</time>
      </trkpt>
      <trkpt lat="9.96313" lon="-84.07634">
        <ele>1178.8</ele>
        <time>2022-05-14 14:45:33</time>
      </trkpt>
      <trkpt lat="9.96313" lon="-84.07642">
        <ele>1178.6</ele>
        <time>2022-05-14 14:45:34</time>
      </trkpt>
      <trkpt lat="9.96313" lon="-84.07649">
        <ele>1178.8</ele>
        <time>2022-05-14 14:45:35</time>
      </trkpt>
      <trkpt lat="9.96313" lon="-84.07656">
        <ele>1178.6</ele>
        <time>2022-05-14 14:45:36</time>
      </trkpt>
      <trkpt lat="9.96313" lon="-84.07663">
        <ele>1178.4</ele>
        <time>2022-05-14 14:45:37</time>
      </trkpt>
      <trkpt lat="9.96313" lon="-84.0767">
        <ele>1178.2</ele>
        <time>2022-05-14 14:45:38</time>
      </trkpt>
      <trkpt lat="9.96313" lon="-84.0767">
        <ele>1178.2</ele>
        <time>2022-05-14 14:45:39</time>
      </trkpt>
      <trkpt lat="9.96314" lon="-84.07678">
        <ele>1178</ele>
        <time>2022-05-14 14:45:40</time>
      </trkpt>
      <trkpt lat="9.96314" lon="-84.07678">
        <ele>1178.2</ele>
        <time>2022-05-14 14:45:41</time>
      </trkpt>
      <trkpt lat="9.96315" lon="-84.077">
        <ele>1178.2</ele>
        <time>2022-05-14 14:45:42</time>
      </trkpt>
      <trkpt lat="9.96315" lon="-84.07708">
        <ele>1178</ele>
        <time>2022-05-14 14:45:43</time>
      </trkpt>
      <trkpt lat="9.96315" lon="-84.07716">
        <ele>1178</ele>
        <time>2022-05-14 14:45:44</time>
      </trkpt>
      <trkpt lat="9.96316" lon="-84.07725">
        <ele>1177.8</ele>
        <time>2022-05-14 14:45:45</time>
      </trkpt>
      <trkpt lat="9.96317" lon="-84.07732">
        <ele>1177.6</ele>
        <time>2022-05-14 14:45:46</time>
      </trkpt>
      <trkpt lat="9.96317" lon="-84.07741">
        <ele>1177.4</ele>
        <time>2022-05-14 14:45:47</time>
      </trkpt>
      <trkpt lat="9.96318" lon="-84.07749">
        <ele>1177.2</ele>
        <time>2022-05-14 14:45:48</time>
      </trkpt>
      <trkpt lat="9.96318" lon="-84.07749">
        <ele>1177</ele>
        <time>2022-05-14 14:45:49</time>
      </trkpt>
      <trkpt lat="9.96318" lon="-84.07759">
        <ele>1176.8</ele>
        <time>2022-05-14 14:45:50</time>
      </trkpt>
      <trkpt lat="9.96318" lon="-84.07759">
        <ele>1176.6</ele>
        <time>2022-05-14 14:45:51</time>
      </trkpt>
      <trkpt lat="9.96319" lon="-84.07785">
        <ele>1176.4</ele>
        <time>2022-05-14 14:45:52</time>
      </trkpt>
      <trkpt lat="9.96319" lon="-84.07794">
        <ele>1176.2</ele>
        <time>2022-05-14 14:45:53</time>
      </trkpt>
      <trkpt lat="9.96319" lon="-84.07803">
        <ele>1176</ele>
        <time>2022-05-14 14:45:54</time>
      </trkpt>
      <trkpt lat="9.9632" lon="-84.07812">
        <ele>1176</ele>
        <time>2022-05-14 14:45:55</time>
      </trkpt>
      <trkpt lat="9.9632" lon="-84.07822">
        <ele>1175.6</ele>
        <time>2022-05-14 14:45:56</time>
      </trkpt>
      <trkpt lat="9.9632" lon="-84.07831">
        <ele>1175.4</ele>
        <time>2022-05-14 14:45:57</time>
      </trkpt>
      <trkpt lat="9.9632" lon="-84.07841">
        <ele>1175.2</ele>
        <time>2022-05-14 14:45:58</time>
      </trkpt>
      <trkpt lat="9.96321" lon="-84.0785">
        <ele>1175</ele>
        <time>2022-05-14 14:45:59</time>
      </trkpt>
      <trkpt lat="9.96321" lon="-84.0785">
        <ele>1175</ele>
        <time>2022-05-14 14:46:00</time>
      </trkpt>
      <trkpt lat="9.96321" lon="-84.0786">
        <ele>1174.8</ele>
        <time>2022-05-14 14:46:01</time>
      </trkpt>
      <trkpt lat="9.96321" lon="-84.0786">
        <ele>1174.6</ele>
        <time>2022-05-14 14:46:02</time>
      </trkpt>
      <trkpt lat="9.96322" lon="-84.07889">
        <ele>1174.2</ele>
        <time>2022-05-14 14:46:03</time>
      </trkpt>
      <trkpt lat="9.96323" lon="-84.079">
        <ele>1173.8</ele>
        <time>2022-05-14 14:46:04</time>
      </trkpt>
      <trkpt lat="9.96323" lon="-84.07909">
        <ele>1173.6</ele>
        <time>2022-05-14 14:46:05</time>
      </trkpt>
      <trkpt lat="9.96324" lon="-84.0792">
        <ele>1173.2</ele>
        <time>2022-05-14 14:46:06</time>
      </trkpt>
      <trkpt lat="9.96324" lon="-84.0793">
        <ele>1172.8</ele>
        <time>2022-05-14 14:46:07</time>
      </trkpt>
      <trkpt lat="9.96324" lon="-84.0794">
        <ele>1172.6</ele>
        <time>2022-05-14 14:46:08</time>
      </trkpt>
      <trkpt lat="9.96325" lon="-84.0795">
        <ele>1172.2</ele>
        <time>2022-05-14 14:46:09</time>
      </trkpt>
      <trkpt lat="9.96325" lon="-84.0795">
        <ele>1171.8</ele>
        <time>2022-05-14 14:46:10</time>
      </trkpt>
      <trkpt lat="9.96325" lon="-84.0796">
        <ele>1171.2</ele>
        <time>2022-05-14 14:46:11</time>
      </trkpt>
      <trkpt lat="9.96326" lon="-84.07982">
        <ele>1171</ele>
        <time>2022-05-14 14:46:12</time>
      </trkpt>
      <trkpt lat="9.96326" lon="-84.07992">
        <ele>1170.8</ele>
        <time>2022-05-14 14:46:13</time>
      </trkpt>
      <trkpt lat="9.96326" lon="-84.08003">
        <ele>1170.4</ele>
        <time>2022-05-14 14:46:14</time>
      </trkpt>
      <trkpt lat="9.96327" lon="-84.08013">
        <ele>1170.2</ele>
        <time>2022-05-14 14:46:15</time>
      </trkpt>
      <trkpt lat="9.96327" lon="-84.08023">
        <ele>1169.8</ele>
        <time>2022-05-14 14:46:16</time>
      </trkpt>
      <trkpt lat="9.96326" lon="-84.08034">
        <ele>1169.4</ele>
        <time>2022-05-14 14:46:17</time>
      </trkpt>
      <trkpt lat="9.96327" lon="-84.08045">
        <ele>1169.2</ele>
        <time>2022-05-14 14:46:18</time>
      </trkpt>
      <trkpt lat="9.96327" lon="-84.08054">
        <ele>1168.6</ele>
        <time>2022-05-14 14:46:19</time>
      </trkpt>
      <trkpt lat="9.96327" lon="-84.08065">
        <ele>1168.2</ele>
        <time>2022-05-14 14:46:20</time>
      </trkpt>
      <trkpt lat="9.96327" lon="-84.08065">
        <ele>1168.2</ele>
        <time>2022-05-14 14:46:21</time>
      </trkpt>
      <trkpt lat="9.96328" lon="-84.08076">
        <ele>1167.8</ele>
        <time>2022-05-14 14:46:22</time>
      </trkpt>
      <trkpt lat="9.96328" lon="-84.08097">
        <ele>1167.6</ele>
        <time>2022-05-14 14:46:23</time>
      </trkpt>
      <trkpt lat="9.96329" lon="-84.08108">
        <ele>1167.2</ele>
        <time>2022-05-14 14:46:24</time>
      </trkpt>
      <trkpt lat="9.96329" lon="-84.08119">
        <ele>1166.8</ele>
        <time>2022-05-14 14:46:25</time>
      </trkpt>
      <trkpt lat="9.96329" lon="-84.08129">
        <ele>1166.4</ele>
        <time>2022-05-14 14:46:26</time>
      </trkpt>
      <trkpt lat="9.96329" lon="-84.0814">
        <ele>1165.8</ele>
        <time>2022-05-14 14:46:27</time>
      </trkpt>
      <trkpt lat="9.96329" lon="-84.08151">
        <ele>1165.6</ele>
        <time>2022-05-14 14:46:28</time>
      </trkpt>
      <trkpt lat="9.9633" lon="-84.08162">
        <ele>1165.2</ele>
        <time>2022-05-14 14:46:29</time>
      </trkpt>
      <trkpt lat="9.9633" lon="-84.08173">
        <ele>1165</ele>
        <time>2022-05-14 14:46:30</time>
      </trkpt>
      <trkpt lat="9.9633" lon="-84.08173">
        <ele>1164.8</ele>
        <time>2022-05-14 14:46:31</time>
      </trkpt>
      <trkpt lat="9.9633" lon="-84.08173">
        <ele>1164.4</ele>
        <time>2022-05-14 14:46:32</time>
      </trkpt>
      <trkpt lat="9.96331" lon="-84.08205">
        <ele>1164</ele>
        <time>2022-05-14 14:46:33</time>
      </trkpt>
      <trkpt lat="9.96332" lon="-84.08216">
        <ele>1163.6</ele>
        <time>2022-05-14 14:46:34</time>
      </trkpt>
      <trkpt lat="9.96333" lon="-84.08227">
        <ele>1163.2</ele>
        <time>2022-05-14 14:46:35</time>
      </trkpt>
      <trkpt lat="9.96333" lon="-84.08238">
        <ele>1162.8</ele>
        <time>2022-05-14 14:46:36</time>
      </trkpt>
      <trkpt lat="9.96333" lon="-84.08249">
        <ele>1162.4</ele>
        <time>2022-05-14 14:46:37</time>
      </trkpt>
      <trkpt lat="9.96333" lon="-84.0826">
        <ele>1162.2</ele>
        <time>2022-05-14 14:46:38</time>
      </trkpt>
      <trkpt lat="9.96334" lon="-84.08271">
        <ele>1161.8</ele>
        <time>2022-05-14 14:46:39</time>
      </trkpt>
      <trkpt lat="9.96334" lon="-84.08282">
        <ele>1161.4</ele>
        <time>2022-05-14 14:46:40</time>
      </trkpt>
      <trkpt lat="9.96334" lon="-84.08293">
        <ele>1161</ele>
        <time>2022-05-14 14:46:41</time>
      </trkpt>
      <trkpt lat="9.96334" lon="-84.08293">
        <ele>1161</ele>
        <time>2022-05-14 14:46:42</time>
      </trkpt>
      <trkpt lat="9.96334" lon="-84.08293">
        <ele>1160.6</ele>
        <time>2022-05-14 14:46:43</time>
      </trkpt>
      <trkpt lat="9.96335" lon="-84.08327">
        <ele>1160</ele>
        <time>2022-05-14 14:46:44</time>
      </trkpt>
      <trkpt lat="9.96335" lon="-84.08338">
        <ele>1159.6</ele>
        <time>2022-05-14 14:46:45</time>
      </trkpt>
      <trkpt lat="9.96335" lon="-84.0835">
        <ele>1159</ele>
        <time>2022-05-14 14:46:46</time>
      </trkpt>
      <trkpt lat="9.96335" lon="-84.08361">
        <ele>1158.6</ele>
        <time>2022-05-14 14:46:47</time>
      </trkpt>
      <trkpt lat="9.96335" lon="-84.08372">
        <ele>1158.2</ele>
        <time>2022-05-14 14:46:48</time>
      </trkpt>
      <trkpt lat="9.96336" lon="-84.08384">
        <ele>1157.8</ele>
        <time>2022-05-14 14:46:49</time>
      </trkpt>
      <trkpt lat="9.96336" lon="-84.08395">
        <ele>1157.4</ele>
        <time>2022-05-14 14:46:50</time>
      </trkpt>
      <trkpt lat="9.96336" lon="-84.08407">
        <ele>1157</ele>
        <time>2022-05-14 14:46:51</time>
      </trkpt>
      <trkpt lat="9.96336" lon="-84.08407">
        <ele>1156.4</ele>
        <time>2022-05-14 14:46:52</time>
      </trkpt>
      <trkpt lat="9.96337" lon="-84.0843">
        <ele>1155.8</ele>
        <time>2022-05-14 14:46:53</time>
      </trkpt>
      <trkpt lat="9.96337" lon="-84.08442">
        <ele>1155.4</ele>
        <time>2022-05-14 14:46:54</time>
      </trkpt>
      <trkpt lat="9.96338" lon="-84.08453">
        <ele>1155</ele>
        <time>2022-05-14 14:46:55</time>
      </trkpt>
      <trkpt lat="9.96338" lon="-84.08465">
        <ele>1154.6</ele>
        <time>2022-05-14 14:46:56</time>
      </trkpt>
      <trkpt lat="9.96338" lon="-84.08476">
        <ele>1154.2</ele>
        <time>2022-05-14 14:46:57</time>
      </trkpt>
      <trkpt lat="9.96338" lon="-84.08488">
        <ele>1153.8</ele>
        <time>2022-05-14 14:46:58</time>
      </trkpt>
      <trkpt lat="9.96339" lon="-84.08499">
        <ele>1153.4</ele>
        <time>2022-05-14 14:46:59</time>
      </trkpt>
      <trkpt lat="9.96339" lon="-84.08511">
        <ele>1152.8</ele>
        <time>2022-05-14 14:47:00</time>
      </trkpt>
      <trkpt lat="9.96339" lon="-84.08522">
        <ele>1152.4</ele>
        <time>2022-05-14 14:47:01</time>
      </trkpt>
      <trkpt lat="9.9634" lon="-84.08533">
        <ele>1152</ele>
        <time>2022-05-14 14:47:02</time>
      </trkpt>
      <trkpt lat="9.9634" lon="-84.08533">
        <ele>1152</ele>
        <time>2022-05-14 14:47:03</time>
      </trkpt>
      <trkpt lat="9.96341" lon="-84.08553">
        <ele>1151.8</ele>
        <time>2022-05-14 14:47:04</time>
      </trkpt>
      <trkpt lat="9.96341" lon="-84.08563">
        <ele>1151.6</ele>
        <time>2022-05-14 14:47:05</time>
      </trkpt>
      <trkpt lat="9.96341" lon="-84.08572">
        <ele>1151</ele>
        <time>2022-05-14 14:47:06</time>
      </trkpt>
      <trkpt lat="9.9634" lon="-84.0858">
        <ele>1150.4</ele>
        <time>2022-05-14 14:47:07</time>
      </trkpt>
      <trkpt lat="9.96341" lon="-84.08587">
        <ele>1149.8</ele>
        <time>2022-05-14 14:47:08</time>
      </trkpt>
      <trkpt lat="9.96341" lon="-84.08594">
        <ele>1149</ele>
        <time>2022-05-14 14:47:09</time>
      </trkpt>
      <trkpt lat="9.96342" lon="-84.08599">
        <ele>1148.6</ele>
        <time>2022-05-14 14:47:10</time>
      </trkpt>
      <trkpt lat="9.96342" lon="-84.08603">
        <ele>1148</ele>
        <time>2022-05-14 14:47:11</time>
      </trkpt>
      <trkpt lat="9.96342" lon="-84.08607">
        <ele>1147.8</ele>
        <time>2022-05-14 14:47:12</time>
      </trkpt>
      <trkpt lat="9.96342" lon="-84.08607">
        <ele>1147.6</ele>
        <time>2022-05-14 14:47:13</time>
      </trkpt>
      <trkpt lat="9.96345" lon="-84.08613">
        <ele>1147.4</ele>
        <time>2022-05-14 14:47:14</time>
      </trkpt>
      <trkpt lat="9.9635" lon="-84.08614">
        <ele>1147.2</ele>
        <time>2022-05-14 14:47:15</time>
      </trkpt>
      <trkpt lat="9.96356" lon="-84.08614">
        <ele>1147</ele>
        <time>2022-05-14 14:47:16</time>
      </trkpt>
      <trkpt lat="9.96361" lon="-84.08614">
        <ele>1146.6</ele>
        <time>2022-05-14 14:47:17</time>
      </trkpt>
      <trkpt lat="9.96367" lon="-84.08614">
        <ele>1146.4</ele>
        <time>2022-05-14 14:47:18</time>
      </trkpt>
      <trkpt lat="9.96374" lon="-84.08614">
        <ele>1146</ele>
        <time>2022-05-14 14:47:19</time>
      </trkpt>
      <trkpt lat="9.96381" lon="-84.08614">
        <ele>1145.6</ele>
        <time>2022-05-14 14:47:20</time>
      </trkpt>
      <trkpt lat="9.96388" lon="-84.08614">
        <ele>1145</ele>
        <time>2022-05-14 14:47:21</time>
      </trkpt>
      <trkpt lat="9.96396" lon="-84.08613">
        <ele>1144.6</ele>
        <time>2022-05-14 14:47:22</time>
      </trkpt>
      <trkpt lat="9.96396" lon="-84.08613">
        <ele>1144</ele>
        <time>2022-05-14 14:47:23</time>
      </trkpt>
      <trkpt lat="9.96396" lon="-84.08613">
        <ele>1144</ele>
        <time>2022-05-14 14:47:24</time>
      </trkpt>
      <trkpt lat="9.96422" lon="-84.08612">
        <ele>1143.4</ele>
        <time>2022-05-14 14:47:25</time>
      </trkpt>
      <trkpt lat="9.96431" lon="-84.08612">
        <ele>1142.8</ele>
        <time>2022-05-14 14:47:26</time>
      </trkpt>
      <trkpt lat="9.9644" lon="-84.08612">
        <ele>1142.4</ele>
        <time>2022-05-14 14:47:27</time>
      </trkpt>
      <trkpt lat="9.9645" lon="-84.0861">
        <ele>1141.6</ele>
        <time>2022-05-14 14:47:28</time>
      </trkpt>
      <trkpt lat="9.96461" lon="-84.08608">
        <ele>1141</ele>
        <time>2022-05-14 14:47:29</time>
      </trkpt>
      <trkpt lat="9.96471" lon="-84.08607">
        <ele>1139.8</ele>
        <time>2022-05-14 14:47:30</time>
      </trkpt>
      <trkpt lat="9.96482" lon="-84.08603">
        <ele>1138.8</ele>
        <time>2022-05-14 14:47:31</time>
      </trkpt>
      <trkpt lat="9.96494" lon="-84.08601">
        <ele>1137.8</ele>
        <time>2022-05-14 14:47:32</time>
      </trkpt>
      <trkpt lat="9.96494" lon="-84.08601">
        <ele>1136.8</ele>
        <time>2022-05-14 14:47:33</time>
      </trkpt>
      <trkpt lat="9.96494" lon="-84.08601">
        <ele>1135.6</ele>
        <time>2022-05-14 14:47:34</time>
      </trkpt>
      <trkpt lat="9.9653" lon="-84.08594">
        <ele>1134.2</ele>
        <time>2022-05-14 14:47:35</time>
      </trkpt>
      <trkpt lat="9.96542" lon="-84.08592">
        <ele>1133</ele>
        <time>2022-05-14 14:47:36</time>
      </trkpt>
      <trkpt lat="9.96554" lon="-84.08589">
        <ele>1131.8</ele>
        <time>2022-05-14 14:47:37</time>
      </trkpt>
      <trkpt lat="9.96566" lon="-84.08587">
        <ele>1130.6</ele>
        <time>2022-05-14 14:47:38</time>
      </trkpt>
      <trkpt lat="9.96577" lon="-84.08584">
        <ele>1129.6</ele>
        <time>2022-05-14 14:47:39</time>
      </trkpt>
      <trkpt lat="9.96589" lon="-84.08579">
        <ele>1128.6</ele>
        <time>2022-05-14 14:47:40</time>
      </trkpt>
      <trkpt lat="9.966" lon="-84.08573">
        <ele>1127.4</ele>
        <time>2022-05-14 14:47:41</time>
      </trkpt>
      <trkpt lat="9.96609" lon="-84.08564">
        <ele>1126.4</ele>
        <time>2022-05-14 14:47:42</time>
      </trkpt>
      <trkpt lat="9.96618" lon="-84.08556">
        <ele>1125.6</ele>
        <time>2022-05-14 14:47:43</time>
      </trkpt>
      <trkpt lat="9.96618" lon="-84.08556">
        <ele>1125</ele>
        <time>2022-05-14 14:47:44</time>
      </trkpt>
      <trkpt lat="9.96632" lon="-84.08536">
        <ele>1125</ele>
        <time>2022-05-14 14:47:45</time>
      </trkpt>
      <trkpt lat="9.9664" lon="-84.08526">
        <ele>1124.2</ele>
        <time>2022-05-14 14:47:46</time>
      </trkpt>
      <trkpt lat="9.96648" lon="-84.08517">
        <ele>1123.4</ele>
        <time>2022-05-14 14:47:47</time>
      </trkpt>
      <trkpt lat="9.96657" lon="-84.08509">
        <ele>1122.6</ele>
        <time>2022-05-14 14:47:48</time>
      </trkpt>
      <trkpt lat="9.96666" lon="-84.08502">
        <ele>1122</ele>
        <time>2022-05-14 14:47:49</time>
      </trkpt>
      <trkpt lat="9.96676" lon="-84.08496">
        <ele>1121.4</ele>
        <time>2022-05-14 14:47:50</time>
      </trkpt>
      <trkpt lat="9.96688" lon="-84.08495">
        <ele>1120.8</ele>
        <time>2022-05-14 14:47:51</time>
      </trkpt>
      <trkpt lat="9.96698" lon="-84.08493">
        <ele>1120</ele>
        <time>2022-05-14 14:47:52</time>
      </trkpt>
      <trkpt lat="9.96709" lon="-84.08491">
        <ele>1119.2</ele>
        <time>2022-05-14 14:47:53</time>
      </trkpt>
      <trkpt lat="9.96709" lon="-84.08491">
        <ele>1118.2</ele>
        <time>2022-05-14 14:47:54</time>
      </trkpt>
      <trkpt lat="9.9673" lon="-84.08484">
        <ele>1117</ele>
        <time>2022-05-14 14:47:55</time>
      </trkpt>
      <trkpt lat="9.96739" lon="-84.08478">
        <ele>1115.4</ele>
        <time>2022-05-14 14:47:56</time>
      </trkpt>
      <trkpt lat="9.96747" lon="-84.08471">
        <ele>1114</ele>
        <time>2022-05-14 14:47:57</time>
      </trkpt>
      <trkpt lat="9.96756" lon="-84.08465">
        <ele>1112.6</ele>
        <time>2022-05-14 14:47:58</time>
      </trkpt>
      <trkpt lat="9.96763" lon="-84.08457">
        <ele>1111.6</ele>
        <time>2022-05-14 14:47:59</time>
      </trkpt>
      <trkpt lat="9.9677" lon="-84.08451">
        <ele>1110.8</ele>
        <time>2022-05-14 14:48:00</time>
      </trkpt>
      <trkpt lat="9.96778" lon="-84.08446">
        <ele>1109.8</ele>
        <time>2022-05-14 14:48:01</time>
      </trkpt>
      <trkpt lat="9.96786" lon="-84.08443">
        <ele>1108.8</ele>
        <time>2022-05-14 14:48:02</time>
      </trkpt>
      <trkpt lat="9.96796" lon="-84.08444">
        <ele>1107.8</ele>
        <time>2022-05-14 14:48:03</time>
      </trkpt>
      <trkpt lat="9.96804" lon="-84.08444">
        <ele>1107</ele>
        <time>2022-05-14 14:48:04</time>
      </trkpt>
      <trkpt lat="9.96804" lon="-84.08444">
        <ele>1106</ele>
        <time>2022-05-14 14:48:05</time>
      </trkpt>
      <trkpt lat="9.96822" lon="-84.08454">
        <ele>1106</ele>
        <time>2022-05-14 14:48:06</time>
      </trkpt>
      <trkpt lat="9.96827" lon="-84.08463">
        <ele>1105.4</ele>
        <time>2022-05-14 14:48:07</time>
      </trkpt>
      <trkpt lat="9.96831" lon="-84.08472">
        <ele>1104.2</ele>
        <time>2022-05-14 14:48:08</time>
      </trkpt>
      <trkpt lat="9.96836" lon="-84.0848">
        <ele>1104</ele>
        <time>2022-05-14 14:48:09</time>
      </trkpt>
      <trkpt lat="9.9684" lon="-84.08488">
        <ele>1103.6</ele>
        <time>2022-05-14 14:48:10</time>
      </trkpt>
      <trkpt lat="9.96845" lon="-84.08495">
        <ele>1104.2</ele>
        <time>2022-05-14 14:48:11</time>
      </trkpt>
      <trkpt lat="9.9685" lon="-84.08503">
        <ele>1104.4</ele>
        <time>2022-05-14 14:48:12</time>
      </trkpt>
      <trkpt lat="9.96855" lon="-84.08511">
        <ele>1104.6</ele>
        <time>2022-05-14 14:48:13</time>
      </trkpt>
      <trkpt lat="9.96855" lon="-84.08511">
        <ele>1105</ele>
        <time>2022-05-14 14:48:14</time>
      </trkpt>
      <trkpt lat="9.96855" lon="-84.08511">
        <ele>1105</ele>
        <time>2022-05-14 14:48:15</time>
      </trkpt>
      <trkpt lat="9.96869" lon="-84.08531">
        <ele>1105.6</ele>
        <time>2022-05-14 14:48:16</time>
      </trkpt>
      <trkpt lat="9.96873" lon="-84.08536">
        <ele>1106.2</ele>
        <time>2022-05-14 14:48:17</time>
      </trkpt>
      <trkpt lat="9.96877" lon="-84.0854">
        <ele>1107</ele>
        <time>2022-05-14 14:48:18</time>
      </trkpt>
      <trkpt lat="9.96881" lon="-84.08543">
        <ele>1107.6</ele>
        <time>2022-05-14 14:48:19</time>
      </trkpt>
      <trkpt lat="9.96885" lon="-84.08547">
        <ele>1108.4</ele>
        <time>2022-05-14 14:48:20</time>
      </trkpt>
      <trkpt lat="9.96888" lon="-84.08549">
        <ele>1109</ele>
        <time>2022-05-14 14:48:21</time>
      </trkpt>
      <trkpt lat="9.96892" lon="-84.08552">
        <ele>1109.4</ele>
        <time>2022-05-14 14:48:22</time>
      </trkpt>
      <trkpt lat="9.96895" lon="-84.08555">
        <ele>1110.2</ele>
        <time>2022-05-14 14:48:23</time>
      </trkpt>
      <trkpt lat="9.96899" lon="-84.08557">
        <ele>1110.8</ele>
        <time>2022-05-14 14:48:24</time>
      </trkpt>
      <trkpt lat="9.96899" lon="-84.08557">
        <ele>1111.4</ele>
        <time>2022-05-14 14:48:25</time>
      </trkpt>
      <trkpt lat="9.96899" lon="-84.08557">
        <ele>1112</ele>
        <time>2022-05-14 14:48:26</time>
      </trkpt>
      <trkpt lat="9.9691" lon="-84.08564">
        <ele>1112</ele>
        <time>2022-05-14 14:48:27</time>
      </trkpt>
      <trkpt lat="9.96914" lon="-84.08565">
        <ele>1112.8</ele>
        <time>2022-05-14 14:48:28</time>
      </trkpt>
      <trkpt lat="9.96918" lon="-84.08568">
        <ele>1113.4</ele>
        <time>2022-05-14 14:48:29</time>
      </trkpt>
      <trkpt lat="9.96922" lon="-84.0857">
        <ele>1114.2</ele>
        <time>2022-05-14 14:48:30</time>
      </trkpt>
      <trkpt lat="9.96925" lon="-84.08572">
        <ele>1114.8</ele>
        <time>2022-05-14 14:48:31</time>
      </trkpt>
      <trkpt lat="9.96929" lon="-84.08574">
        <ele>1115.6</ele>
        <time>2022-05-14 14:48:32</time>
      </trkpt>
      <trkpt lat="9.96933" lon="-84.08576">
        <ele>1116.2</ele>
        <time>2022-05-14 14:48:33</time>
      </trkpt>
      <trkpt lat="9.96937" lon="-84.08577">
        <ele>1116.8</ele>
        <time>2022-05-14 14:48:34</time>
      </trkpt>
      <trkpt lat="9.96937" lon="-84.08577">
        <ele>1117.6</ele>
        <time>2022-05-14 14:48:35</time>
      </trkpt>
      <trkpt lat="9.96944" lon="-84.08581">
        <ele>1118.4</ele>
        <time>2022-05-14 14:48:36</time>
      </trkpt>
      <trkpt lat="9.96948" lon="-84.08583">
        <ele>1119</ele>
        <time>2022-05-14 14:48:37</time>
      </trkpt>
      <trkpt lat="9.96951" lon="-84.08585">
        <ele>1119.6</ele>
        <time>2022-05-14 14:48:38</time>
      </trkpt>
      <trkpt lat="9.96955" lon="-84.08587">
        <ele>1120.4</ele>
        <time>2022-05-14 14:48:39</time>
      </trkpt>
      <trkpt lat="9.96958" lon="-84.0859">
        <ele>1121.2</ele>
        <time>2022-05-14 14:48:40</time>
      </trkpt>
      <trkpt lat="9.96962" lon="-84.08592">
        <ele>1121.8</ele>
        <time>2022-05-14 14:48:41</time>
      </trkpt>
      <trkpt lat="9.96965" lon="-84.08594">
        <ele>1122.4</ele>
        <time>2022-05-14 14:48:42</time>
      </trkpt>
      <trkpt lat="9.96968" lon="-84.08598">
        <ele>1123</ele>
        <time>2022-05-14 14:48:43</time>
      </trkpt>
      <trkpt lat="9.96971" lon="-84.08601">
        <ele>1123.6</ele>
        <time>2022-05-14 14:48:44</time>
      </trkpt>
      <trkpt lat="9.96974" lon="-84.08603">
        <ele>1124.4</ele>
        <time>2022-05-14 14:48:45</time>
      </trkpt>
      <trkpt lat="9.96974" lon="-84.08603">
        <ele>1125</ele>
        <time>2022-05-14 14:48:46</time>
      </trkpt>
      <trkpt lat="9.9698" lon="-84.0861">
        <ele>1125.8</ele>
        <time>2022-05-14 14:48:47</time>
      </trkpt>
      <trkpt lat="9.96982" lon="-84.08614">
        <ele>1125.8</ele>
        <time>2022-05-14 14:48:48</time>
      </trkpt>
      <trkpt lat="9.96985" lon="-84.08617">
        <ele>1126.2</ele>
        <time>2022-05-14 14:48:49</time>
      </trkpt>
      <trkpt lat="9.96987" lon="-84.08621">
        <ele>1127</ele>
        <time>2022-05-14 14:48:50</time>
      </trkpt>
      <trkpt lat="9.96989" lon="-84.08625">
        <ele>1127.6</ele>
        <time>2022-05-14 14:48:51</time>
      </trkpt>
      <trkpt lat="9.96991" lon="-84.08629">
        <ele>1128.2</ele>
        <time>2022-05-14 14:48:52</time>
      </trkpt>
      <trkpt lat="9.96994" lon="-84.08632">
        <ele>1128.8</ele>
        <time>2022-05-14 14:48:53</time>
      </trkpt>
      <trkpt lat="9.96996" lon="-84.08636">
        <ele>1129.4</ele>
        <time>2022-05-14 14:48:54</time>
      </trkpt>
      <trkpt lat="9.96998" lon="-84.08641">
        <ele>1130</ele>
        <time>2022-05-14 14:48:55</time>
      </trkpt>
      <trkpt lat="9.96998" lon="-84.08641">
        <ele>1130.8</ele>
        <time>2022-05-14 14:48:56</time>
      </trkpt>
      <trkpt lat="9.97002" lon="-84.08648">
        <ele>1131.2</ele>
        <time>2022-05-14 14:48:57</time>
      </trkpt>
      <trkpt lat="9.97004" lon="-84.08652">
        <ele>1131.8</ele>
        <time>2022-05-14 14:48:58</time>
      </trkpt>
      <trkpt lat="9.97006" lon="-84.08656">
        <ele>1132</ele>
        <time>2022-05-14 14:48:59</time>
      </trkpt>
      <trkpt lat="9.97007" lon="-84.0866">
        <ele>1132.6</ele>
        <time>2022-05-14 14:49:00</time>
      </trkpt>
      <trkpt lat="9.97009" lon="-84.08665">
        <ele>1133</ele>
        <time>2022-05-14 14:49:01</time>
      </trkpt>
      <trkpt lat="9.97011" lon="-84.08668">
        <ele>1133.4</ele>
        <time>2022-05-14 14:49:02</time>
      </trkpt>
      <trkpt lat="9.97013" lon="-84.08673">
        <ele>1133.8</ele>
        <time>2022-05-14 14:49:03</time>
      </trkpt>
      <trkpt lat="9.97014" lon="-84.08678">
        <ele>1134</ele>
        <time>2022-05-14 14:49:04</time>
      </trkpt>
      <trkpt lat="9.97016" lon="-84.08681">
        <ele>1134.6</ele>
        <time>2022-05-14 14:49:05</time>
      </trkpt>
      <trkpt lat="9.97016" lon="-84.08681">
        <ele>1135</ele>
        <time>2022-05-14 14:49:06</time>
      </trkpt>
      <trkpt lat="9.97016" lon="-84.08681">
        <ele>1135.6</ele>
        <time>2022-05-14 14:49:07</time>
      </trkpt>
      <trkpt lat="9.97021" lon="-84.08695">
        <ele>1136</ele>
        <time>2022-05-14 14:49:08</time>
      </trkpt>
      <trkpt lat="9.97023" lon="-84.08699">
        <ele>1136</ele>
        <time>2022-05-14 14:49:09</time>
      </trkpt>
      <trkpt lat="9.97024" lon="-84.08704">
        <ele>1136.4</ele>
        <time>2022-05-14 14:49:10</time>
      </trkpt>
      <trkpt lat="9.97026" lon="-84.08708">
        <ele>1136.8</ele>
        <time>2022-05-14 14:49:11</time>
      </trkpt>
      <trkpt lat="9.97027" lon="-84.08712">
        <ele>1137.2</ele>
        <time>2022-05-14 14:49:12</time>
      </trkpt>
      <trkpt lat="9.97029" lon="-84.08717">
        <ele>1137.6</ele>
        <time>2022-05-14 14:49:13</time>
      </trkpt>
      <trkpt lat="9.9703" lon="-84.08721">
        <ele>1138</ele>
        <time>2022-05-14 14:49:14</time>
      </trkpt>
      <trkpt lat="9.97031" lon="-84.08726">
        <ele>1138.4</ele>
        <time>2022-05-14 14:49:15</time>
      </trkpt>
      <trkpt lat="9.97031" lon="-84.08726">
        <ele>1138.8</ele>
        <time>2022-05-14 14:49:16</time>
      </trkpt>
      <trkpt lat="9.97031" lon="-84.08726">
        <ele>1139.2</ele>
        <time>2022-05-14 14:49:17</time>
      </trkpt>
      <trkpt lat="9.97034" lon="-84.08739">
        <ele>1139.6</ele>
        <time>2022-05-14 14:49:18</time>
      </trkpt>
      <trkpt lat="9.97034" lon="-84.08744">
        <ele>1140</ele>
        <time>2022-05-14 14:49:19</time>
      </trkpt>
      <trkpt lat="9.97035" lon="-84.08748">
        <ele>1140.2</ele>
        <time>2022-05-14 14:49:20</time>
      </trkpt>
      <trkpt lat="9.97036" lon="-84.08753">
        <ele>1140.8</ele>
        <time>2022-05-14 14:49:21</time>
      </trkpt>
      <trkpt lat="9.97036" lon="-84.08758">
        <ele>1141.2</ele>
        <time>2022-05-14 14:49:22</time>
      </trkpt>
      <trkpt lat="9.97036" lon="-84.08763">
        <ele>1141.8</ele>
        <time>2022-05-14 14:49:23</time>
      </trkpt>
      <trkpt lat="9.97037" lon="-84.08768">
        <ele>1142.2</ele>
        <time>2022-05-14 14:49:24</time>
      </trkpt>
      <trkpt lat="9.97037" lon="-84.08772">
        <ele>1142.6</ele>
        <time>2022-05-14 14:49:25</time>
      </trkpt>
      <trkpt lat="9.97037" lon="-84.08777">
        <ele>1143</ele>
        <time>2022-05-14 14:49:26</time>
      </trkpt>
      <trkpt lat="9.97037" lon="-84.08777">
        <ele>1143.4</ele>
        <time>2022-05-14 14:49:27</time>
      </trkpt>
      <trkpt lat="9.97037" lon="-84.08777">
        <ele>1144</ele>
        <time>2022-05-14 14:49:28</time>
      </trkpt>
      <trkpt lat="9.97037" lon="-84.08791">
        <ele>1144.4</ele>
        <time>2022-05-14 14:49:29</time>
      </trkpt>
      <trkpt lat="9.97037" lon="-84.08797">
        <ele>1144.4</ele>
        <time>2022-05-14 14:49:30</time>
      </trkpt>
      <trkpt lat="9.97037" lon="-84.08801">
        <ele>1145</ele>
        <time>2022-05-14 14:49:31</time>
      </trkpt>
      <trkpt lat="9.97037" lon="-84.08806">
        <ele>1145.4</ele>
        <time>2022-05-14 14:49:32</time>
      </trkpt>
      <trkpt lat="9.97038" lon="-84.08811">
        <ele>1145.6</ele>
        <time>2022-05-14 14:49:33</time>
      </trkpt>
      <trkpt lat="9.97038" lon="-84.08816">
        <ele>1146</ele>
        <time>2022-05-14 14:49:34</time>
      </trkpt>
      <trkpt lat="9.97038" lon="-84.0882">
        <ele>1146.6</ele>
        <time>2022-05-14 14:49:35</time>
      </trkpt>
      <trkpt lat="9.97039" lon="-84.08825">
        <ele>1147</ele>
        <time>2022-05-14 14:49:36</time>
      </trkpt>
      <trkpt lat="9.97039" lon="-84.08825">
        <ele>1147.2</ele>
        <time>2022-05-14 14:49:37</time>
      </trkpt>
      <trkpt lat="9.97043" lon="-84.08834">
        <ele>1147.6</ele>
        <time>2022-05-14 14:49:38</time>
      </trkpt>
      <trkpt lat="9.97046" lon="-84.08838">
        <ele>1147.8</ele>
        <time>2022-05-14 14:49:39</time>
      </trkpt>
      <trkpt lat="9.97049" lon="-84.08842">
        <ele>1148</ele>
        <time>2022-05-14 14:49:40</time>
      </trkpt>
      <trkpt lat="9.97053" lon="-84.08845">
        <ele>1148.2</ele>
        <time>2022-05-14 14:49:41</time>
      </trkpt>
      <trkpt lat="9.97057" lon="-84.08848">
        <ele>1148.6</ele>
        <time>2022-05-14 14:49:42</time>
      </trkpt>
      <trkpt lat="9.97061" lon="-84.08849">
        <ele>1148.8</ele>
        <time>2022-05-14 14:49:43</time>
      </trkpt>
      <trkpt lat="9.97066" lon="-84.08852">
        <ele>1148.8</ele>
        <time>2022-05-14 14:49:44</time>
      </trkpt>
      <trkpt lat="9.9707" lon="-84.08853">
        <ele>1148.8</ele>
        <time>2022-05-14 14:49:45</time>
      </trkpt>
      <trkpt lat="9.97075" lon="-84.08854">
        <ele>1148.8</ele>
        <time>2022-05-14 14:49:46</time>
      </trkpt>
      <trkpt lat="9.9708" lon="-84.08856">
        <ele>1148.8</ele>
        <time>2022-05-14 14:49:47</time>
      </trkpt>
      <trkpt lat="9.9708" lon="-84.08856">
        <ele>1148.8</ele>
        <time>2022-05-14 14:49:48</time>
      </trkpt>
      <trkpt lat="9.9709" lon="-84.08858">
        <ele>1148.8</ele>
        <time>2022-05-14 14:49:49</time>
      </trkpt>
      <trkpt lat="9.97095" lon="-84.08858">
        <ele>1149</ele>
        <time>2022-05-14 14:49:50</time>
      </trkpt>
      <trkpt lat="9.971" lon="-84.0886">
        <ele>1149</ele>
        <time>2022-05-14 14:49:51</time>
      </trkpt>
      <trkpt lat="9.97105" lon="-84.08862">
        <ele>1149</ele>
        <time>2022-05-14 14:49:52</time>
      </trkpt>
      <trkpt lat="9.9711" lon="-84.08862">
        <ele>1149</ele>
        <time>2022-05-14 14:49:53</time>
      </trkpt>
      <trkpt lat="9.97115" lon="-84.08864">
        <ele>1149</ele>
        <time>2022-05-14 14:49:54</time>
      </trkpt>
      <trkpt lat="9.9712" lon="-84.08865">
        <ele>1149</ele>
        <time>2022-05-14 14:49:55</time>
      </trkpt>
      <trkpt lat="9.97126" lon="-84.08866">
        <ele>1149</ele>
        <time>2022-05-14 14:49:56</time>
      </trkpt>
      <trkpt lat="9.97126" lon="-84.08866">
        <ele>1149</ele>
        <time>2022-05-14 14:49:57</time>
      </trkpt>
      <trkpt lat="9.97126" lon="-84.08866">
        <ele>1149.2</ele>
        <time>2022-05-14 14:49:58</time>
      </trkpt>
      <trkpt lat="9.97144" lon="-84.08872">
        <ele>1149.2</ele>
        <time>2022-05-14 14:49:59</time>
      </trkpt>
      <trkpt lat="9.9715" lon="-84.08873">
        <ele>1149.2</ele>
        <time>2022-05-14 14:50:00</time>
      </trkpt>
      <trkpt lat="9.97157" lon="-84.08874">
        <ele>1149.2</ele>
        <time>2022-05-14 14:50:01</time>
      </trkpt>
      <trkpt lat="9.97163" lon="-84.08876">
        <ele>1149.2</ele>
        <time>2022-05-14 14:50:02</time>
      </trkpt>
      <trkpt lat="9.9717" lon="-84.08878">
        <ele>1149.2</ele>
        <time>2022-05-14 14:50:03</time>
      </trkpt>
      <trkpt lat="9.97177" lon="-84.08879">
        <ele>1149.4</ele>
        <time>2022-05-14 14:50:04</time>
      </trkpt>
      <trkpt lat="9.97183" lon="-84.08881">
        <ele>1149.4</ele>
        <time>2022-05-14 14:50:05</time>
      </trkpt>
      <trkpt lat="9.9719" lon="-84.08882">
        <ele>1149.4</ele>
        <time>2022-05-14 14:50:06</time>
      </trkpt>
      <trkpt lat="9.97197" lon="-84.08885">
        <ele>1149.4</ele>
        <time>2022-05-14 14:50:07</time>
      </trkpt>
      <trkpt lat="9.97197" lon="-84.08885">
        <ele>1149.4</ele>
        <time>2022-05-14 14:50:08</time>
      </trkpt>
      <trkpt lat="9.97197" lon="-84.08885">
        <ele>1149.4</ele>
        <time>2022-05-14 14:50:09</time>
      </trkpt>
      <trkpt lat="9.97218" lon="-84.0889">
        <ele>1149.4</ele>
        <time>2022-05-14 14:50:10</time>
      </trkpt>
      <trkpt lat="9.97225" lon="-84.08892">
        <ele>1149.4</ele>
        <time>2022-05-14 14:50:11</time>
      </trkpt>
      <trkpt lat="9.97232" lon="-84.08894">
        <ele>1149.4</ele>
        <time>2022-05-14 14:50:12</time>
      </trkpt>
      <trkpt lat="9.97239" lon="-84.08896">
        <ele>1149.4</ele>
        <time>2022-05-14 14:50:13</time>
      </trkpt>
      <trkpt lat="9.97246" lon="-84.08897">
        <ele>1149.4</ele>
        <time>2022-05-14 14:50:14</time>
      </trkpt>
      <trkpt lat="9.97253" lon="-84.089">
        <ele>1149.4</ele>
        <time>2022-05-14 14:50:15</time>
      </trkpt>
      <trkpt lat="9.9726" lon="-84.08901">
        <ele>1149.6</ele>
        <time>2022-05-14 14:50:16</time>
      </trkpt>
      <trkpt lat="9.97267" lon="-84.08903">
        <ele>1149.6</ele>
        <time>2022-05-14 14:50:17</time>
      </trkpt>
      <trkpt lat="9.97267" lon="-84.08903">
        <ele>1149.6</ele>
        <time>2022-05-14 14:50:18</time>
      </trkpt>
      <trkpt lat="9.97281" lon="-84.08907">
        <ele>1149.6</ele>
        <time>2022-05-14 14:50:19</time>
      </trkpt>
      <trkpt lat="9.97288" lon="-84.08909">
        <ele>1149.6</ele>
        <time>2022-05-14 14:50:20</time>
      </trkpt>
      <trkpt lat="9.97295" lon="-84.0891">
        <ele>1149.8</ele>
        <time>2022-05-14 14:50:21</time>
      </trkpt>
      <trkpt lat="9.97303" lon="-84.08912">
        <ele>1149.8</ele>
        <time>2022-05-14 14:50:22</time>
      </trkpt>
      <trkpt lat="9.9731" lon="-84.08914">
        <ele>1149.6</ele>
        <time>2022-05-14 14:50:23</time>
      </trkpt>
      <trkpt lat="9.97317" lon="-84.08916">
        <ele>1149.6</ele>
        <time>2022-05-14 14:50:24</time>
      </trkpt>
      <trkpt lat="9.97324" lon="-84.08918">
        <ele>1149.6</ele>
        <time>2022-05-14 14:50:25</time>
      </trkpt>
      <trkpt lat="9.97332" lon="-84.08919">
        <ele>1149.6</ele>
        <time>2022-05-14 14:50:26</time>
      </trkpt>
      <trkpt lat="9.97339" lon="-84.08922">
        <ele>1149.6</ele>
        <time>2022-05-14 14:50:27</time>
      </trkpt>
      <trkpt lat="9.97346" lon="-84.08924">
        <ele>1149.6</ele>
        <time>2022-05-14 14:50:28</time>
      </trkpt>
      <trkpt lat="9.97346" lon="-84.08924">
        <ele>1149.6</ele>
        <time>2022-05-14 14:50:29</time>
      </trkpt>
      <trkpt lat="9.97361" lon="-84.08927">
        <ele>1149.8</ele>
        <time>2022-05-14 14:50:30</time>
      </trkpt>
      <trkpt lat="9.97368" lon="-84.08929">
        <ele>1150</ele>
        <time>2022-05-14 14:50:31</time>
      </trkpt>
      <trkpt lat="9.97375" lon="-84.0893">
        <ele>1150.2</ele>
        <time>2022-05-14 14:50:32</time>
      </trkpt>
      <trkpt lat="9.97382" lon="-84.08932">
        <ele>1150.2</ele>
        <time>2022-05-14 14:50:33</time>
      </trkpt>
      <trkpt lat="9.97389" lon="-84.08934">
        <ele>1150.2</ele>
        <time>2022-05-14 14:50:34</time>
      </trkpt>
      <trkpt lat="9.97396" lon="-84.08936">
        <ele>1150.2</ele>
        <time>2022-05-14 14:50:35</time>
      </trkpt>
      <trkpt lat="9.97403" lon="-84.08937">
        <ele>1150.4</ele>
        <time>2022-05-14 14:50:36</time>
      </trkpt>
      <trkpt lat="9.9741" lon="-84.08939">
        <ele>1150.6</ele>
        <time>2022-05-14 14:50:37</time>
      </trkpt>
      <trkpt lat="9.97417" lon="-84.08941">
        <ele>1150.8</ele>
        <time>2022-05-14 14:50:38</time>
      </trkpt>
      <trkpt lat="9.97417" lon="-84.08941">
        <ele>1151</ele>
        <time>2022-05-14 14:50:39</time>
      </trkpt>
      <trkpt lat="9.97431" lon="-84.08945">
        <ele>1151.2</ele>
        <time>2022-05-14 14:50:40</time>
      </trkpt>
      <trkpt lat="9.97437" lon="-84.08946">
        <ele>1151.4</ele>
        <time>2022-05-14 14:50:41</time>
      </trkpt>
      <trkpt lat="9.97444" lon="-84.08948">
        <ele>1151.6</ele>
        <time>2022-05-14 14:50:42</time>
      </trkpt>
      <trkpt lat="9.97451" lon="-84.0895">
        <ele>1151.6</ele>
        <time>2022-05-14 14:50:43</time>
      </trkpt>
      <trkpt lat="9.97458" lon="-84.08952">
        <ele>1152</ele>
        <time>2022-05-14 14:50:44</time>
      </trkpt>
      <trkpt lat="9.97464" lon="-84.08952">
        <ele>1152.2</ele>
        <time>2022-05-14 14:50:45</time>
      </trkpt>
      <trkpt lat="9.97471" lon="-84.08954">
        <ele>1152.8</ele>
        <time>2022-05-14 14:50:46</time>
      </trkpt>
      <trkpt lat="9.97477" lon="-84.08956">
        <ele>1152.8</ele>
        <time>2022-05-14 14:50:47</time>
      </trkpt>
      <trkpt lat="9.97484" lon="-84.08958">
        <ele>1153</ele>
        <time>2022-05-14 14:50:48</time>
      </trkpt>
      <trkpt lat="9.97484" lon="-84.08958">
        <ele>1153.2</ele>
        <time>2022-05-14 14:50:49</time>
      </trkpt>
      <trkpt lat="9.97484" lon="-84.08958">
        <ele>1153.6</ele>
        <time>2022-05-14 14:50:50</time>
      </trkpt>
      <trkpt lat="9.97502" lon="-84.08961">
        <ele>1153.8</ele>
        <time>2022-05-14 14:50:51</time>
      </trkpt>
      <trkpt lat="9.97508" lon="-84.08963">
        <ele>1154.2</ele>
        <time>2022-05-14 14:50:52</time>
      </trkpt>
      <trkpt lat="9.97514" lon="-84.08965">
        <ele>1154.4</ele>
        <time>2022-05-14 14:50:53</time>
      </trkpt>
      <trkpt lat="9.9752" lon="-84.08967">
        <ele>1154.4</ele>
        <time>2022-05-14 14:50:54</time>
      </trkpt>
      <trkpt lat="9.97526" lon="-84.08968">
        <ele>1154.8</ele>
        <time>2022-05-14 14:50:55</time>
      </trkpt>
      <trkpt lat="9.97532" lon="-84.08969">
        <ele>1155.2</ele>
        <time>2022-05-14 14:50:56</time>
      </trkpt>
      <trkpt lat="9.97538" lon="-84.0897">
        <ele>1155.8</ele>
        <time>2022-05-14 14:50:57</time>
      </trkpt>
      <trkpt lat="9.97544" lon="-84.08972">
        <ele>1156.2</ele>
        <time>2022-05-14 14:50:58</time>
      </trkpt>
      <trkpt lat="9.97544" lon="-84.08972">
        <ele>1156.8</ele>
        <time>2022-05-14 14:50:59</time>
      </trkpt>
      <trkpt lat="9.97544" lon="-84.08972">
        <ele>1157.2</ele>
        <time>2022-05-14 14:51:00</time>
      </trkpt>
      <trkpt lat="9.97563" lon="-84.08977">
        <ele>1157.6</ele>
        <time>2022-05-14 14:51:01</time>
      </trkpt>
      <trkpt lat="9.97569" lon="-84.08978">
        <ele>1158.2</ele>
        <time>2022-05-14 14:51:02</time>
      </trkpt>
      <trkpt lat="9.97575" lon="-84.08981">
        <ele>1158.6</ele>
        <time>2022-05-14 14:51:03</time>
      </trkpt>
      <trkpt lat="9.9758" lon="-84.08982">
        <ele>1159.2</ele>
        <time>2022-05-14 14:51:04</time>
      </trkpt>
      <trkpt lat="9.97586" lon="-84.08984">
        <ele>1159.4</ele>
        <time>2022-05-14 14:51:05</time>
      </trkpt>
      <trkpt lat="9.97592" lon="-84.08986">
        <ele>1160</ele>
        <time>2022-05-14 14:51:06</time>
      </trkpt>
      <trkpt lat="9.97597" lon="-84.08987">
        <ele>1160.2</ele>
        <time>2022-05-14 14:51:07</time>
      </trkpt>
      <trkpt lat="9.97603" lon="-84.08988">
        <ele>1160.6</ele>
        <time>2022-05-14 14:51:08</time>
      </trkpt>
      <trkpt lat="9.97609" lon="-84.0899">
        <ele>1161</ele>
        <time>2022-05-14 14:51:09</time>
      </trkpt>
      <trkpt lat="9.97609" lon="-84.0899">
        <ele>1161.2</ele>
        <time>2022-05-14 14:51:10</time>
      </trkpt>
      <trkpt lat="9.97609" lon="-84.0899">
        <ele>1161.6</ele>
        <time>2022-05-14 14:51:11</time>
      </trkpt>
      <trkpt lat="9.97627" lon="-84.08992">
        <ele>1161.8</ele>
        <time>2022-05-14 14:51:12</time>
      </trkpt>
      <trkpt lat="9.97633" lon="-84.08993">
        <ele>1162.2</ele>
        <time>2022-05-14 14:51:13</time>
      </trkpt>
      <trkpt lat="9.97639" lon="-84.08993">
        <ele>1162.2</ele>
        <time>2022-05-14 14:51:14</time>
      </trkpt>
      <trkpt lat="9.97646" lon="-84.08992">
        <ele>1162.2</ele>
        <time>2022-05-14 14:51:15</time>
      </trkpt>
      <trkpt lat="9.97652" lon="-84.08992">
        <ele>1162.4</ele>
        <time>2022-05-14 14:51:16</time>
      </trkpt>
      <trkpt lat="9.97658" lon="-84.08992">
        <ele>1162.6</ele>
        <time>2022-05-14 14:51:17</time>
      </trkpt>
      <trkpt lat="9.97664" lon="-84.08992">
        <ele>1162.8</ele>
        <time>2022-05-14 14:51:18</time>
      </trkpt>
      <trkpt lat="9.97671" lon="-84.08992">
        <ele>1163</ele>
        <time>2022-05-14 14:51:19</time>
      </trkpt>
      <trkpt lat="9.97671" lon="-84.08992">
        <ele>1163.2</ele>
        <time>2022-05-14 14:51:20</time>
      </trkpt>
      <trkpt lat="9.97684" lon="-84.08991">
        <ele>1163.6</ele>
        <time>2022-05-14 14:51:21</time>
      </trkpt>
      <trkpt lat="9.9769" lon="-84.08991">
        <ele>1163.8</ele>
        <time>2022-05-14 14:51:22</time>
      </trkpt>
      <trkpt lat="9.97696" lon="-84.0899">
        <ele>1164.2</ele>
        <time>2022-05-14 14:51:23</time>
      </trkpt>
      <trkpt lat="9.97702" lon="-84.0899">
        <ele>1164.6</ele>
        <time>2022-05-14 14:51:24</time>
      </trkpt>
      <trkpt lat="9.97708" lon="-84.0899">
        <ele>1164.8</ele>
        <time>2022-05-14 14:51:25</time>
      </trkpt>
      <trkpt lat="9.97714" lon="-84.0899">
        <ele>1165</ele>
        <time>2022-05-14 14:51:26</time>
      </trkpt>
      <trkpt lat="9.9772" lon="-84.08989">
        <ele>1165.8</ele>
        <time>2022-05-14 14:51:27</time>
      </trkpt>
      <trkpt lat="9.97726" lon="-84.08988">
        <ele>1166.2</ele>
        <time>2022-05-14 14:51:28</time>
      </trkpt>
      <trkpt lat="9.97731" lon="-84.08988">
        <ele>1166.8</ele>
        <time>2022-05-14 14:51:29</time>
      </trkpt>
      <trkpt lat="9.97737" lon="-84.08987">
        <ele>1167.2</ele>
        <time>2022-05-14 14:51:30</time>
      </trkpt>
      <trkpt lat="9.97737" lon="-84.08987">
        <ele>1167.6</ele>
        <time>2022-05-14 14:51:31</time>
      </trkpt>
      <trkpt lat="9.97748" lon="-84.08986">
        <ele>1168</ele>
        <time>2022-05-14 14:51:32</time>
      </trkpt>
      <trkpt lat="9.97754" lon="-84.08986">
        <ele>1168.8</ele>
        <time>2022-05-14 14:51:33</time>
      </trkpt>
      <trkpt lat="9.9776" lon="-84.08986">
        <ele>1169.4</ele>
        <time>2022-05-14 14:51:34</time>
      </trkpt>
      <trkpt lat="9.97766" lon="-84.08986">
        <ele>1169.8</ele>
        <time>2022-05-14 14:51:35</time>
      </trkpt>
      <trkpt lat="9.97772" lon="-84.08985">
        <ele>1169.8</ele>
        <time>2022-05-14 14:51:36</time>
      </trkpt>
      <trkpt lat="9.97777" lon="-84.08985">
        <ele>1169.8</ele>
        <time>2022-05-14 14:51:37</time>
      </trkpt>
      <trkpt lat="9.97783" lon="-84.08984">
        <ele>1170.2</ele>
        <time>2022-05-14 14:51:38</time>
      </trkpt>
      <trkpt lat="9.97789" lon="-84.08984">
        <ele>1170.6</ele>
        <time>2022-05-14 14:51:39</time>
      </trkpt>
      <trkpt lat="9.97789" lon="-84.08984">
        <ele>1171</ele>
        <time>2022-05-14 14:51:40</time>
      </trkpt>
      <trkpt lat="9.97789" lon="-84.08984">
        <ele>1171.2</ele>
        <time>2022-05-14 14:51:41</time>
      </trkpt>
      <trkpt lat="9.97807" lon="-84.08983">
        <ele>1171.4</ele>
        <time>2022-05-14 14:51:42</time>
      </trkpt>
      <trkpt lat="9.97813" lon="-84.08982">
        <ele>1171.8</ele>
        <time>2022-05-14 14:51:43</time>
      </trkpt>
      <trkpt lat="9.97819" lon="-84.08982">
        <ele>1172.2</ele>
        <time>2022-05-14 14:51:44</time>
      </trkpt>
      <trkpt lat="9.97825" lon="-84.08981">
        <ele>1172.4</ele>
        <time>2022-05-14 14:51:45</time>
      </trkpt>
      <trkpt lat="9.97832" lon="-84.08981">
        <ele>1172.8</ele>
        <time>2022-05-14 14:51:46</time>
      </trkpt>
      <trkpt lat="9.97838" lon="-84.08981">
        <ele>1173.2</ele>
        <time>2022-05-14 14:51:47</time>
      </trkpt>
      <trkpt lat="9.97843" lon="-84.08981">
        <ele>1173.8</ele>
        <time>2022-05-14 14:51:48</time>
      </trkpt>
      <trkpt lat="9.97849" lon="-84.08981">
        <ele>1174</ele>
        <time>2022-05-14 14:51:49</time>
      </trkpt>
      <trkpt lat="9.97855" lon="-84.08981">
        <ele>1174.4</ele>
        <time>2022-05-14 14:51:50</time>
      </trkpt>
      <trkpt lat="9.97855" lon="-84.08981">
        <ele>1174.6</ele>
        <time>2022-05-14 14:51:51</time>
      </trkpt>
      <trkpt lat="9.97855" lon="-84.08981">
        <ele>1174.8</ele>
        <time>2022-05-14 14:51:52</time>
      </trkpt>
      <trkpt lat="9.97872" lon="-84.08981">
        <ele>1175</ele>
        <time>2022-05-14 14:51:53</time>
      </trkpt>
      <trkpt lat="9.97878" lon="-84.08981">
        <ele>1175.2</ele>
        <time>2022-05-14 14:51:54</time>
      </trkpt>
      <trkpt lat="9.97884" lon="-84.08981">
        <ele>1175.4</ele>
        <time>2022-05-14 14:51:55</time>
      </trkpt>
      <trkpt lat="9.97889" lon="-84.0898">
        <ele>1175.6</ele>
        <time>2022-05-14 14:51:56</time>
      </trkpt>
      <trkpt lat="9.97894" lon="-84.0898">
        <ele>1175.6</ele>
        <time>2022-05-14 14:51:57</time>
      </trkpt>
      <trkpt lat="9.97898" lon="-84.08979">
        <ele>1175.6</ele>
        <time>2022-05-14 14:51:58</time>
      </trkpt>
      <trkpt lat="9.97903" lon="-84.08979">
        <ele>1175.8</ele>
        <time>2022-05-14 14:51:59</time>
      </trkpt>
      <trkpt lat="9.97907" lon="-84.08979">
        <ele>1176</ele>
        <time>2022-05-14 14:52:00</time>
      </trkpt>
      <trkpt lat="9.97907" lon="-84.08979">
        <ele>1176.2</ele>
        <time>2022-05-14 14:52:01</time>
      </trkpt>
      <trkpt lat="9.97915" lon="-84.08977">
        <ele>1176.2</ele>
        <time>2022-05-14 14:52:02</time>
      </trkpt>
      <trkpt lat="9.97918" lon="-84.08977">
        <ele>1176.4</ele>
        <time>2022-05-14 14:52:03</time>
      </trkpt>
      <trkpt lat="9.97923" lon="-84.08977">
        <ele>1176.6</ele>
        <time>2022-05-14 14:52:04</time>
      </trkpt>
      <trkpt lat="9.97927" lon="-84.08977">
        <ele>1176.8</ele>
        <time>2022-05-14 14:52:05</time>
      </trkpt>
      <trkpt lat="9.97932" lon="-84.08976">
        <ele>1177</ele>
        <time>2022-05-14 14:52:06</time>
      </trkpt>
      <trkpt lat="9.97937" lon="-84.08975">
        <ele>1177.2</ele>
        <time>2022-05-14 14:52:07</time>
      </trkpt>
      <trkpt lat="9.97941" lon="-84.08975">
        <ele>1177.4</ele>
        <time>2022-05-14 14:52:08</time>
      </trkpt>
      <trkpt lat="9.97947" lon="-84.08975">
        <ele>1177.4</ele>
        <time>2022-05-14 14:52:09</time>
      </trkpt>
      <trkpt lat="9.97952" lon="-84.08975">
        <ele>1177.4</ele>
        <time>2022-05-14 14:52:10</time>
      </trkpt>
      <trkpt lat="9.97957" lon="-84.08975">
        <ele>1177.4</ele>
        <time>2022-05-14 14:52:11</time>
      </trkpt>
      <trkpt lat="9.97957" lon="-84.08975">
        <ele>1177.6</ele>
        <time>2022-05-14 14:52:12</time>
      </trkpt>
      <trkpt lat="9.97967" lon="-84.08973">
        <ele>1177.8</ele>
        <time>2022-05-14 14:52:13</time>
      </trkpt>
      <trkpt lat="9.97972" lon="-84.08972">
        <ele>1177.8</ele>
        <time>2022-05-14 14:52:14</time>
      </trkpt>
      <trkpt lat="9.97978" lon="-84.08972">
        <ele>1178</ele>
        <time>2022-05-14 14:52:15</time>
      </trkpt>
      <trkpt lat="9.97983" lon="-84.08971">
        <ele>1178</ele>
        <time>2022-05-14 14:52:16</time>
      </trkpt>
      <trkpt lat="9.97988" lon="-84.08971">
        <ele>1178.2</ele>
        <time>2022-05-14 14:52:17</time>
      </trkpt>
      <trkpt lat="9.97993" lon="-84.0897">
        <ele>1178.2</ele>
        <time>2022-05-14 14:52:18</time>
      </trkpt>
      <trkpt lat="9.97998" lon="-84.0897">
        <ele>1178.2</ele>
        <time>2022-05-14 14:52:19</time>
      </trkpt>
      <trkpt lat="9.98004" lon="-84.08969">
        <ele>1178.2</ele>
        <time>2022-05-14 14:52:20</time>
      </trkpt>
      <trkpt lat="9.98009" lon="-84.08969">
        <ele>1178.4</ele>
        <time>2022-05-14 14:52:21</time>
      </trkpt>
      <trkpt lat="9.98009" lon="-84.08969">
        <ele>1178.4</ele>
        <time>2022-05-14 14:52:22</time>
      </trkpt>
      <trkpt lat="9.98019" lon="-84.08967">
        <ele>1178.4</ele>
        <time>2022-05-14 14:52:23</time>
      </trkpt>
      <trkpt lat="9.98024" lon="-84.08967">
        <ele>1178.6</ele>
        <time>2022-05-14 14:52:24</time>
      </trkpt>
      <trkpt lat="9.9803" lon="-84.08966">
        <ele>1178.6</ele>
        <time>2022-05-14 14:52:25</time>
      </trkpt>
      <trkpt lat="9.98035" lon="-84.08965">
        <ele>1178.6</ele>
        <time>2022-05-14 14:52:26</time>
      </trkpt>
      <trkpt lat="9.9804" lon="-84.08965">
        <ele>1178.6</ele>
        <time>2022-05-14 14:52:27</time>
      </trkpt>
      <trkpt lat="9.98046" lon="-84.08965">
        <ele>1178.6</ele>
        <time>2022-05-14 14:52:28</time>
      </trkpt>
      <trkpt lat="9.98051" lon="-84.08965">
        <ele>1178.8</ele>
        <time>2022-05-14 14:52:29</time>
      </trkpt>
      <trkpt lat="9.98056" lon="-84.08964">
        <ele>1178.8</ele>
        <time>2022-05-14 14:52:30</time>
      </trkpt>
      <trkpt lat="9.98062" lon="-84.08964">
        <ele>1178.8</ele>
        <time>2022-05-14 14:52:31</time>
      </trkpt>
      <trkpt lat="9.98062" lon="-84.08964">
        <ele>1178.8</ele>
        <time>2022-05-14 14:52:32</time>
      </trkpt>
      <trkpt lat="9.98062" lon="-84.08964">
        <ele>1178.8</ele>
        <time>2022-05-14 14:52:33</time>
      </trkpt>
      <trkpt lat="9.98079" lon="-84.08963">
        <ele>1179</ele>
        <time>2022-05-14 14:52:34</time>
      </trkpt>
      <trkpt lat="9.98085" lon="-84.08963">
        <ele>1178.8</ele>
        <time>2022-05-14 14:52:35</time>
      </trkpt>
      <trkpt lat="9.98091" lon="-84.08962">
        <ele>1178.8</ele>
        <time>2022-05-14 14:52:36</time>
      </trkpt>
      <trkpt lat="9.98097" lon="-84.08961">
        <ele>1178.8</ele>
        <time>2022-05-14 14:52:37</time>
      </trkpt>
      <trkpt lat="9.98103" lon="-84.08961">
        <ele>1179</ele>
        <time>2022-05-14 14:52:38</time>
      </trkpt>
      <trkpt lat="9.98109" lon="-84.0896">
        <ele>1179</ele>
        <time>2022-05-14 14:52:39</time>
      </trkpt>
      <trkpt lat="9.98115" lon="-84.08959">
        <ele>1179.4</ele>
        <time>2022-05-14 14:52:40</time>
      </trkpt>
      <trkpt lat="9.98121" lon="-84.08959">
        <ele>1179.4</ele>
        <time>2022-05-14 14:52:41</time>
      </trkpt>
      <trkpt lat="9.98121" lon="-84.08959">
        <ele>1179.4</ele>
        <time>2022-05-14 14:52:42</time>
      </trkpt>
      <trkpt lat="9.98121" lon="-84.08959">
        <ele>1179.2</ele>
        <time>2022-05-14 14:52:43</time>
      </trkpt>
      <trkpt lat="9.98141" lon="-84.08958">
        <ele>1179.2</ele>
        <time>2022-05-14 14:52:44</time>
      </trkpt>
      <trkpt lat="9.98147" lon="-84.08957">
        <ele>1179.2</ele>
        <time>2022-05-14 14:52:45</time>
      </trkpt>
      <trkpt lat="9.98154" lon="-84.08956">
        <ele>1179</ele>
        <time>2022-05-14 14:52:46</time>
      </trkpt>
      <trkpt lat="9.98161" lon="-84.08955">
        <ele>1179</ele>
        <time>2022-05-14 14:52:47</time>
      </trkpt>
      <trkpt lat="9.98167" lon="-84.08955">
        <ele>1179</ele>
        <time>2022-05-14 14:52:48</time>
      </trkpt>
      <trkpt lat="9.98174" lon="-84.08955">
        <ele>1179</ele>
        <time>2022-05-14 14:52:49</time>
      </trkpt>
      <trkpt lat="9.98181" lon="-84.08955">
        <ele>1179</ele>
        <time>2022-05-14 14:52:50</time>
      </trkpt>
      <trkpt lat="9.98188" lon="-84.08954">
        <ele>1179</ele>
        <time>2022-05-14 14:52:51</time>
      </trkpt>
      <trkpt lat="9.98194" lon="-84.08954">
        <ele>1179.2</ele>
        <time>2022-05-14 14:52:52</time>
      </trkpt>
      <trkpt lat="9.98194" lon="-84.08954">
        <ele>1179.2</ele>
        <time>2022-05-14 14:52:53</time>
      </trkpt>
      <trkpt lat="9.98208" lon="-84.08952">
        <ele>1179.2</ele>
        <time>2022-05-14 14:52:54</time>
      </trkpt>
      <trkpt lat="9.98214" lon="-84.08952">
        <ele>1179.2</ele>
        <time>2022-05-14 14:52:55</time>
      </trkpt>
      <trkpt lat="9.98221" lon="-84.08951">
        <ele>1179.2</ele>
        <time>2022-05-14 14:52:56</time>
      </trkpt>
      <trkpt lat="9.98227" lon="-84.0895">
        <ele>1179.4</ele>
        <time>2022-05-14 14:52:57</time>
      </trkpt>
      <trkpt lat="9.98234" lon="-84.0895">
        <ele>1179.4</ele>
        <time>2022-05-14 14:52:58</time>
      </trkpt>
      <trkpt lat="9.9824" lon="-84.08949">
        <ele>1179.6</ele>
        <time>2022-05-14 14:52:59</time>
      </trkpt>
      <trkpt lat="9.98246" lon="-84.08949">
        <ele>1179.6</ele>
        <time>2022-05-14 14:53:00</time>
      </trkpt>
      <trkpt lat="9.98251" lon="-84.08948">
        <ele>1179.8</ele>
        <time>2022-05-14 14:53:01</time>
      </trkpt>
      <trkpt lat="9.98257" lon="-84.08948">
        <ele>1179.8</ele>
        <time>2022-05-14 14:53:02</time>
      </trkpt>
      <trkpt lat="9.98257" lon="-84.08948">
        <ele>1179.8</ele>
        <time>2022-05-14 14:53:03</time>
      </trkpt>
      <trkpt lat="9.98267" lon="-84.08947">
        <ele>1179.8</ele>
        <time>2022-05-14 14:53:04</time>
      </trkpt>
      <trkpt lat="9.98272" lon="-84.08946">
        <ele>1180</ele>
        <time>2022-05-14 14:53:05</time>
      </trkpt>
      <trkpt lat="9.98276" lon="-84.08946">
        <ele>1180.2</ele>
        <time>2022-05-14 14:53:06</time>
      </trkpt>
      <trkpt lat="9.98281" lon="-84.08948">
        <ele>1180.4</ele>
        <time>2022-05-14 14:53:07</time>
      </trkpt>
      <trkpt lat="9.98284" lon="-84.08952">
        <ele>1180.4</ele>
        <time>2022-05-14 14:53:08</time>
      </trkpt>
      <trkpt lat="9.98286" lon="-84.08956">
        <ele>1180.4</ele>
        <time>2022-05-14 14:53:09</time>
      </trkpt>
      <trkpt lat="9.98288" lon="-84.08961">
        <ele>1180.2</ele>
        <time>2022-05-14 14:53:10</time>
      </trkpt>
      <trkpt lat="9.98289" lon="-84.08968">
        <ele>1180</ele>
        <time>2022-05-14 14:53:11</time>
      </trkpt>
      <trkpt lat="9.9829" lon="-84.08974">
        <ele>1179.8</ele>
        <time>2022-05-14 14:53:12</time>
      </trkpt>
      <trkpt lat="9.98291" lon="-84.08981">
        <ele>1179.4</ele>
        <time>2022-05-14 14:53:13</time>
      </trkpt>
      <trkpt lat="9.98291" lon="-84.08981">
        <ele>1179.2</ele>
        <time>2022-05-14 14:53:14</time>
      </trkpt>
      <trkpt lat="9.98292" lon="-84.08996">
        <ele>1178.8</ele>
        <time>2022-05-14 14:53:15</time>
      </trkpt>
      <trkpt lat="9.98293" lon="-84.09004">
        <ele>1178.6</ele>
        <time>2022-05-14 14:53:16</time>
      </trkpt>
      <trkpt lat="9.98294" lon="-84.09012">
        <ele>1178.4</ele>
        <time>2022-05-14 14:53:17</time>
      </trkpt>
      <trkpt lat="9.98295" lon="-84.09019">
        <ele>1178.2</ele>
        <time>2022-05-14 14:53:18</time>
      </trkpt>
      <trkpt lat="9.98296" lon="-84.09028">
        <ele>1177.8</ele>
        <time>2022-05-14 14:53:19</time>
      </trkpt>
      <trkpt lat="9.98297" lon="-84.09037">
        <ele>1177.4</ele>
        <time>2022-05-14 14:53:20</time>
      </trkpt>
      <trkpt lat="9.98297" lon="-84.09046">
        <ele>1177.4</ele>
        <time>2022-05-14 14:53:21</time>
      </trkpt>
      <trkpt lat="9.98298" lon="-84.09055">
        <ele>1177.2</ele>
        <time>2022-05-14 14:53:22</time>
      </trkpt>
      <trkpt lat="9.98298" lon="-84.09055">
        <ele>1177</ele>
        <time>2022-05-14 14:53:23</time>
      </trkpt>
      <trkpt lat="9.98298" lon="-84.09055">
        <ele>1176.6</ele>
        <time>2022-05-14 14:53:24</time>
      </trkpt>
      <trkpt lat="9.98301" lon="-84.09084">
        <ele>1176.2</ele>
        <time>2022-05-14 14:53:25</time>
      </trkpt>
      <trkpt lat="9.98301" lon="-84.09093">
        <ele>1176</ele>
        <time>2022-05-14 14:53:26</time>
      </trkpt>
      <trkpt lat="9.98302" lon="-84.09103">
        <ele>1175.6</ele>
        <time>2022-05-14 14:53:27</time>
      </trkpt>
      <trkpt lat="9.98303" lon="-84.09113">
        <ele>1175.4</ele>
        <time>2022-05-14 14:53:28</time>
      </trkpt>
      <trkpt lat="9.98304" lon="-84.09123">
        <ele>1175</ele>
        <time>2022-05-14 14:53:29</time>
      </trkpt>
      <trkpt lat="9.98304" lon="-84.09133">
        <ele>1174.6</ele>
        <time>2022-05-14 14:53:30</time>
      </trkpt>
      <trkpt lat="9.98305" lon="-84.09143">
        <ele>1174.2</ele>
        <time>2022-05-14 14:53:31</time>
      </trkpt>
      <trkpt lat="9.98306" lon="-84.09154">
        <ele>1174.2</ele>
        <time>2022-05-14 14:53:32</time>
      </trkpt>
      <trkpt lat="9.98307" lon="-84.09164">
        <ele>1173.8</ele>
        <time>2022-05-14 14:53:33</time>
      </trkpt>
      <trkpt lat="9.98307" lon="-84.09164">
        <ele>1173.8</ele>
        <time>2022-05-14 14:53:34</time>
      </trkpt>
      <trkpt lat="9.98307" lon="-84.09164">
        <ele>1173.4</ele>
        <time>2022-05-14 14:53:35</time>
      </trkpt>
      <trkpt lat="9.9831" lon="-84.09194">
        <ele>1173.2</ele>
        <time>2022-05-14 14:53:36</time>
      </trkpt>
      <trkpt lat="9.9831" lon="-84.09203">
        <ele>1172.8</ele>
        <time>2022-05-14 14:53:37</time>
      </trkpt>
      <trkpt lat="9.98311" lon="-84.09213">
        <ele>1172.8</ele>
        <time>2022-05-14 14:53:38</time>
      </trkpt>
      <trkpt lat="9.98312" lon="-84.09223">
        <ele>1172.6</ele>
        <time>2022-05-14 14:53:39</time>
      </trkpt>
      <trkpt lat="9.98313" lon="-84.09233">
        <ele>1172.4</ele>
        <time>2022-05-14 14:53:40</time>
      </trkpt>
      <trkpt lat="9.98314" lon="-84.09243">
        <ele>1172.2</ele>
        <time>2022-05-14 14:53:41</time>
      </trkpt>
      <trkpt lat="9.98315" lon="-84.09252">
        <ele>1172.2</ele>
        <time>2022-05-14 14:53:42</time>
      </trkpt>
      <trkpt lat="9.98316" lon="-84.09262">
        <ele>1172</ele>
        <time>2022-05-14 14:53:43</time>
      </trkpt>
      <trkpt lat="9.98316" lon="-84.09262">
        <ele>1171.8</ele>
        <time>2022-05-14 14:53:44</time>
      </trkpt>
      <trkpt lat="9.98317" lon="-84.09281">
        <ele>1171.4</ele>
        <time>2022-05-14 14:53:45</time>
      </trkpt>
      <trkpt lat="9.98318" lon="-84.09291">
        <ele>1171.2</ele>
        <time>2022-05-14 14:53:46</time>
      </trkpt>
      <trkpt lat="9.98318" lon="-84.093">
        <ele>1171</ele>
        <time>2022-05-14 14:53:47</time>
      </trkpt>
      <trkpt lat="9.98318" lon="-84.0931">
        <ele>1171</ele>
        <time>2022-05-14 14:53:48</time>
      </trkpt>
      <trkpt lat="9.98319" lon="-84.09319">
        <ele>1171</ele>
        <time>2022-05-14 14:53:49</time>
      </trkpt>
      <trkpt lat="9.9832" lon="-84.09328">
        <ele>1170.8</ele>
        <time>2022-05-14 14:53:50</time>
      </trkpt>
      <trkpt lat="9.9832" lon="-84.09338">
        <ele>1170.6</ele>
        <time>2022-05-14 14:53:51</time>
      </trkpt>
      <trkpt lat="9.98321" lon="-84.09347">
        <ele>1170.6</ele>
        <time>2022-05-14 14:53:52</time>
      </trkpt>
      <trkpt lat="9.98321" lon="-84.09356">
        <ele>1170.4</ele>
        <time>2022-05-14 14:53:53</time>
      </trkpt>
      <trkpt lat="9.98322" lon="-84.09365">
        <ele>1170.2</ele>
        <time>2022-05-14 14:53:54</time>
      </trkpt>
      <trkpt lat="9.98322" lon="-84.09365">
        <ele>1169.8</ele>
        <time>2022-05-14 14:53:55</time>
      </trkpt>
      <trkpt lat="9.98326" lon="-84.09384">
        <ele>1169.4</ele>
        <time>2022-05-14 14:53:56</time>
      </trkpt>
      <trkpt lat="9.98328" lon="-84.09393">
        <ele>1169</ele>
        <time>2022-05-14 14:53:57</time>
      </trkpt>
      <trkpt lat="9.9833" lon="-84.09402">
        <ele>1169</ele>
        <time>2022-05-14 14:53:58</time>
      </trkpt>
      <trkpt lat="9.98333" lon="-84.09412">
        <ele>1168.6</ele>
        <time>2022-05-14 14:53:59</time>
      </trkpt>
      <trkpt lat="9.98338" lon="-84.09422">
        <ele>1168</ele>
        <time>2022-05-14 14:54:00</time>
      </trkpt>
      <trkpt lat="9.98345" lon="-84.0943">
        <ele>1167.2</ele>
        <time>2022-05-14 14:54:01</time>
      </trkpt>
      <trkpt lat="9.98353" lon="-84.09438">
        <ele>1166.2</ele>
        <time>2022-05-14 14:54:02</time>
      </trkpt>
      <trkpt lat="9.98362" lon="-84.09445">
        <ele>1166.2</ele>
        <time>2022-05-14 14:54:03</time>
      </trkpt>
      <trkpt lat="9.98371" lon="-84.09452">
        <ele>1165.2</ele>
        <time>2022-05-14 14:54:04</time>
      </trkpt>
      <trkpt lat="9.98371" lon="-84.09452">
        <ele>1164</ele>
        <time>2022-05-14 14:54:05</time>
      </trkpt>
      <trkpt lat="9.98391" lon="-84.09467">
        <ele>1162.8</ele>
        <time>2022-05-14 14:54:06</time>
      </trkpt>
      <trkpt lat="9.98401" lon="-84.09476">
        <ele>1161.6</ele>
        <time>2022-05-14 14:54:07</time>
      </trkpt>
      <trkpt lat="9.98412" lon="-84.09483">
        <ele>1160</ele>
        <time>2022-05-14 14:54:08</time>
      </trkpt>
      <trkpt lat="9.98423" lon="-84.09492">
        <ele>1158.6</ele>
        <time>2022-05-14 14:54:09</time>
      </trkpt>
      <trkpt lat="9.98434" lon="-84.095">
        <ele>1157</ele>
        <time>2022-05-14 14:54:10</time>
      </trkpt>
      <trkpt lat="9.98445" lon="-84.09508">
        <ele>1155.4</ele>
        <time>2022-05-14 14:54:11</time>
      </trkpt>
      <trkpt lat="9.98457" lon="-84.09517">
        <ele>1154.4</ele>
        <time>2022-05-14 14:54:12</time>
      </trkpt>
      <trkpt lat="9.98468" lon="-84.09526">
        <ele>1153.4</ele>
        <time>2022-05-14 14:54:13</time>
      </trkpt>
      <trkpt lat="9.9848" lon="-84.09534">
        <ele>1152.6</ele>
        <time>2022-05-14 14:54:14</time>
      </trkpt>
      <trkpt lat="9.9848" lon="-84.09534">
        <ele>1152.2</ele>
        <time>2022-05-14 14:54:15</time>
      </trkpt>
      <trkpt lat="9.9848" lon="-84.09534">
        <ele>1151.8</ele>
        <time>2022-05-14 14:54:16</time>
      </trkpt>
      <trkpt lat="9.98515" lon="-84.09561">
        <ele>1151.8</ele>
        <time>2022-05-14 14:54:17</time>
      </trkpt>
      <trkpt lat="9.98526" lon="-84.09569">
        <ele>1151.8</ele>
        <time>2022-05-14 14:54:18</time>
      </trkpt>
      <trkpt lat="9.98536" lon="-84.09577">
        <ele>1152.2</ele>
        <time>2022-05-14 14:54:19</time>
      </trkpt>
      <trkpt lat="9.98547" lon="-84.09585">
        <ele>1153</ele>
        <time>2022-05-14 14:54:20</time>
      </trkpt>
      <trkpt lat="9.98557" lon="-84.09593">
        <ele>1154.4</ele>
        <time>2022-05-14 14:54:21</time>
      </trkpt>
      <trkpt lat="9.98567" lon="-84.096">
        <ele>1155.8</ele>
        <time>2022-05-14 14:54:22</time>
      </trkpt>
      <trkpt lat="9.98577" lon="-84.09608">
        <ele>1157.2</ele>
        <time>2022-05-14 14:54:23</time>
      </trkpt>
      <trkpt lat="9.98587" lon="-84.09614">
        <ele>1157.2</ele>
        <time>2022-05-14 14:54:24</time>
      </trkpt>
      <trkpt lat="9.98587" lon="-84.09614">
        <ele>1158.2</ele>
        <time>2022-05-14 14:54:25</time>
      </trkpt>
      <trkpt lat="9.98587" lon="-84.09614">
        <ele>1159.4</ele>
        <time>2022-05-14 14:54:26</time>
      </trkpt>
      <trkpt lat="9.98612" lon="-84.09631">
        <ele>1160.6</ele>
        <time>2022-05-14 14:54:27</time>
      </trkpt>
      <trkpt lat="9.9862" lon="-84.09636">
        <ele>1161.8</ele>
        <time>2022-05-14 14:54:28</time>
      </trkpt>
      <trkpt lat="9.98627" lon="-84.0964">
        <ele>1162.8</ele>
        <time>2022-05-14 14:54:29</time>
      </trkpt>
      <trkpt lat="9.98635" lon="-84.09644">
        <ele>1163.6</ele>
        <time>2022-05-14 14:54:30</time>
      </trkpt>
      <trkpt lat="9.98641" lon="-84.09648">
        <ele>1164.4</ele>
        <time>2022-05-14 14:54:31</time>
      </trkpt>
      <trkpt lat="9.98647" lon="-84.09651">
        <ele>1165</ele>
        <time>2022-05-14 14:54:32</time>
      </trkpt>
      <trkpt lat="9.98653" lon="-84.09655">
        <ele>1165.6</ele>
        <time>2022-05-14 14:54:33</time>
      </trkpt>
      <trkpt lat="9.98658" lon="-84.09659">
        <ele>1165.8</ele>
        <time>2022-05-14 14:54:34</time>
      </trkpt>
      <trkpt lat="9.98664" lon="-84.09662">
        <ele>1166.2</ele>
        <time>2022-05-14 14:54:35</time>
      </trkpt>
      <trkpt lat="9.98664" lon="-84.09662">
        <ele>1166.8</ele>
        <time>2022-05-14 14:54:36</time>
      </trkpt>
      <trkpt lat="9.98664" lon="-84.09662">
        <ele>1167.4</ele>
        <time>2022-05-14 14:54:37</time>
      </trkpt>
      <trkpt lat="9.98679" lon="-84.09674">
        <ele>1167.8</ele>
        <time>2022-05-14 14:54:38</time>
      </trkpt>
      <trkpt lat="9.98684" lon="-84.09679">
        <ele>1168</ele>
        <time>2022-05-14 14:54:39</time>
      </trkpt>
      <trkpt lat="9.98688" lon="-84.09684">
        <ele>1168</ele>
        <time>2022-05-14 14:54:40</time>
      </trkpt>
      <trkpt lat="9.98693" lon="-84.09689">
        <ele>1168.2</ele>
        <time>2022-05-14 14:54:41</time>
      </trkpt>
      <trkpt lat="9.98697" lon="-84.09695">
        <ele>1168.6</ele>
        <time>2022-05-14 14:54:42</time>
      </trkpt>
      <trkpt lat="9.98701" lon="-84.097">
        <ele>1168.6</ele>
        <time>2022-05-14 14:54:43</time>
      </trkpt>
      <trkpt lat="9.98705" lon="-84.09705">
        <ele>1168.6</ele>
        <time>2022-05-14 14:54:44</time>
      </trkpt>
      <trkpt lat="9.98709" lon="-84.09711">
        <ele>1168.6</ele>
        <time>2022-05-14 14:54:45</time>
      </trkpt>
      <trkpt lat="9.98709" lon="-84.09711">
        <ele>1168.6</ele>
        <time>2022-05-14 14:54:46</time>
      </trkpt>
      <trkpt lat="9.98719" lon="-84.09722">
        <ele>1168.8</ele>
        <time>2022-05-14 14:54:47</time>
      </trkpt>
      <trkpt lat="9.98723" lon="-84.09727">
        <ele>1168.8</ele>
        <time>2022-05-14 14:54:48</time>
      </trkpt>
      <trkpt lat="9.98728" lon="-84.09734">
        <ele>1169</ele>
        <time>2022-05-14 14:54:49</time>
      </trkpt>
      <trkpt lat="9.98732" lon="-84.09739">
        <ele>1169</ele>
        <time>2022-05-14 14:54:50</time>
      </trkpt>
      <trkpt lat="9.98737" lon="-84.09745">
        <ele>1169.2</ele>
        <time>2022-05-14 14:54:51</time>
      </trkpt>
      <trkpt lat="9.98742" lon="-84.0975">
        <ele>1169.4</ele>
        <time>2022-05-14 14:54:52</time>
      </trkpt>
      <trkpt lat="9.98746" lon="-84.09756">
        <ele>1169.6</ele>
        <time>2022-05-14 14:54:53</time>
      </trkpt>
      <trkpt lat="9.98751" lon="-84.0976">
        <ele>1169.6</ele>
        <time>2022-05-14 14:54:54</time>
      </trkpt>
      <trkpt lat="9.98757" lon="-84.09764">
        <ele>1169.8</ele>
        <time>2022-05-14 14:54:55</time>
      </trkpt>
      <trkpt lat="9.98764" lon="-84.09769">
        <ele>1170</ele>
        <time>2022-05-14 14:54:56</time>
      </trkpt>
      <trkpt lat="9.98764" lon="-84.09769">
        <ele>1170</ele>
        <time>2022-05-14 14:54:57</time>
      </trkpt>
      <trkpt lat="9.98776" lon="-84.09776">
        <ele>1170.2</ele>
        <time>2022-05-14 14:54:58</time>
      </trkpt>
      <trkpt lat="9.98782" lon="-84.09779">
        <ele>1170.4</ele>
        <time>2022-05-14 14:54:59</time>
      </trkpt>
      <trkpt lat="9.98788" lon="-84.09783">
        <ele>1170.6</ele>
        <time>2022-05-14 14:55:00</time>
      </trkpt>
      <trkpt lat="9.98794" lon="-84.09787">
        <ele>1170.6</ele>
        <time>2022-05-14 14:55:01</time>
      </trkpt>
      <trkpt lat="9.98799" lon="-84.09791">
        <ele>1170.8</ele>
        <time>2022-05-14 14:55:02</time>
      </trkpt>
      <trkpt lat="9.98805" lon="-84.09794">
        <ele>1171.2</ele>
        <time>2022-05-14 14:55:03</time>
      </trkpt>
      <trkpt lat="9.9881" lon="-84.09798">
        <ele>1171.4</ele>
        <time>2022-05-14 14:55:04</time>
      </trkpt>
      <trkpt lat="9.98815" lon="-84.09801">
        <ele>1172.2</ele>
        <time>2022-05-14 14:55:05</time>
      </trkpt>
      <trkpt lat="9.98815" lon="-84.09801">
        <ele>1172.2</ele>
        <time>2022-05-14 14:55:06</time>
      </trkpt>
      <trkpt lat="9.98815" lon="-84.09801">
        <ele>1172.6</ele>
        <time>2022-05-14 14:55:07</time>
      </trkpt>
      <trkpt lat="9.98831" lon="-84.09809">
        <ele>1173</ele>
        <time>2022-05-14 14:55:08</time>
      </trkpt>
      <trkpt lat="9.98837" lon="-84.09812">
        <ele>1173.2</ele>
        <time>2022-05-14 14:55:09</time>
      </trkpt>
      <trkpt lat="9.98842" lon="-84.09814">
        <ele>1173.4</ele>
        <time>2022-05-14 14:55:10</time>
      </trkpt>
      <trkpt lat="9.98847" lon="-84.09819">
        <ele>1173.4</ele>
        <time>2022-05-14 14:55:11</time>
      </trkpt>
      <trkpt lat="9.98852" lon="-84.09821">
        <ele>1173.6</ele>
        <time>2022-05-14 14:55:12</time>
      </trkpt>
      <trkpt lat="9.98857" lon="-84.09824">
        <ele>1174.2</ele>
        <time>2022-05-14 14:55:13</time>
      </trkpt>
      <trkpt lat="9.98862" lon="-84.09828">
        <ele>1174.8</ele>
        <time>2022-05-14 14:55:14</time>
      </trkpt>
      <trkpt lat="9.98868" lon="-84.0983">
        <ele>1175.2</ele>
        <time>2022-05-14 14:55:15</time>
      </trkpt>
      <trkpt lat="9.98873" lon="-84.09833">
        <ele>1175.4</ele>
        <time>2022-05-14 14:55:16</time>
      </trkpt>
      <trkpt lat="9.98873" lon="-84.09833">
        <ele>1175.8</ele>
        <time>2022-05-14 14:55:17</time>
      </trkpt>
      <trkpt lat="9.98873" lon="-84.09833">
        <ele>1176.2</ele>
        <time>2022-05-14 14:55:18</time>
      </trkpt>
      <trkpt lat="9.98889" lon="-84.09842">
        <ele>1176.6</ele>
        <time>2022-05-14 14:55:19</time>
      </trkpt>
      <trkpt lat="9.98894" lon="-84.09845">
        <ele>1177</ele>
        <time>2022-05-14 14:55:20</time>
      </trkpt>
      <trkpt lat="9.98899" lon="-84.09847">
        <ele>1177.4</ele>
        <time>2022-05-14 14:55:21</time>
      </trkpt>
      <trkpt lat="9.98904" lon="-84.0985">
        <ele>1177.6</ele>
        <time>2022-05-14 14:55:22</time>
      </trkpt>
      <trkpt lat="9.9891" lon="-84.09852">
        <ele>1177.6</ele>
        <time>2022-05-14 14:55:23</time>
      </trkpt>
      <trkpt lat="9.98916" lon="-84.09854">
        <ele>1177.8</ele>
        <time>2022-05-14 14:55:24</time>
      </trkpt>
      <trkpt lat="9.98922" lon="-84.09857">
        <ele>1178</ele>
        <time>2022-05-14 14:55:25</time>
      </trkpt>
      <trkpt lat="9.98928" lon="-84.09859">
        <ele>1178.2</ele>
        <time>2022-05-14 14:55:26</time>
      </trkpt>
      <trkpt lat="9.98928" lon="-84.09859">
        <ele>1178.2</ele>
        <time>2022-05-14 14:55:27</time>
      </trkpt>
      <trkpt lat="9.98941" lon="-84.09863">
        <ele>1178.2</ele>
        <time>2022-05-14 14:55:28</time>
      </trkpt>
      <trkpt lat="9.98947" lon="-84.09865">
        <ele>1178.2</ele>
        <time>2022-05-14 14:55:29</time>
      </trkpt>
      <trkpt lat="9.98953" lon="-84.09867">
        <ele>1178.4</ele>
        <time>2022-05-14 14:55:30</time>
      </trkpt>
      <trkpt lat="9.9896" lon="-84.0987">
        <ele>1178.2</ele>
        <time>2022-05-14 14:55:31</time>
      </trkpt>
      <trkpt lat="9.98966" lon="-84.09872">
        <ele>1178.6</ele>
        <time>2022-05-14 14:55:32</time>
      </trkpt>
      <trkpt lat="9.98972" lon="-84.09875">
        <ele>1178.8</ele>
        <time>2022-05-14 14:55:33</time>
      </trkpt>
      <trkpt lat="9.98978" lon="-84.09879">
        <ele>1179</ele>
        <time>2022-05-14 14:55:34</time>
      </trkpt>
      <trkpt lat="9.98983" lon="-84.09883">
        <ele>1179</ele>
        <time>2022-05-14 14:55:35</time>
      </trkpt>
      <trkpt lat="9.98989" lon="-84.09888">
        <ele>1179</ele>
        <time>2022-05-14 14:55:36</time>
      </trkpt>
      <trkpt lat="9.98995" lon="-84.09891">
        <ele>1179</ele>
        <time>2022-05-14 14:55:37</time>
      </trkpt>
      <trkpt lat="9.98995" lon="-84.09891">
        <ele>1179</ele>
        <time>2022-05-14 14:55:38</time>
      </trkpt>
      <trkpt lat="9.99006" lon="-84.099">
        <ele>1179.2</ele>
        <time>2022-05-14 14:55:39</time>
      </trkpt>
      <trkpt lat="9.99012" lon="-84.09904">
        <ele>1179.2</ele>
        <time>2022-05-14 14:55:40</time>
      </trkpt>
      <trkpt lat="9.99018" lon="-84.09908">
        <ele>1179.4</ele>
        <time>2022-05-14 14:55:41</time>
      </trkpt>
      <trkpt lat="9.99024" lon="-84.09913">
        <ele>1179.6</ele>
        <time>2022-05-14 14:55:42</time>
      </trkpt>
      <trkpt lat="9.99029" lon="-84.09917">
        <ele>1179.8</ele>
        <time>2022-05-14 14:55:43</time>
      </trkpt>
      <trkpt lat="9.99035" lon="-84.09922">
        <ele>1180</ele>
        <time>2022-05-14 14:55:44</time>
      </trkpt>
      <trkpt lat="9.9904" lon="-84.09926">
        <ele>1180.2</ele>
        <time>2022-05-14 14:55:45</time>
      </trkpt>
      <trkpt lat="9.99046" lon="-84.0993">
        <ele>1180.4</ele>
        <time>2022-05-14 14:55:46</time>
      </trkpt>
      <trkpt lat="9.99051" lon="-84.09934">
        <ele>1180.6</ele>
        <time>2022-05-14 14:55:47</time>
      </trkpt>
      <trkpt lat="9.99051" lon="-84.09934">
        <ele>1180.6</ele>
        <time>2022-05-14 14:55:48</time>
      </trkpt>
      <trkpt lat="9.99063" lon="-84.09942">
        <ele>1180.8</ele>
        <time>2022-05-14 14:55:49</time>
      </trkpt>
      <trkpt lat="9.99068" lon="-84.09946">
        <ele>1181</ele>
        <time>2022-05-14 14:55:50</time>
      </trkpt>
      <trkpt lat="9.99073" lon="-84.09951">
        <ele>1181.2</ele>
        <time>2022-05-14 14:55:51</time>
      </trkpt>
      <trkpt lat="9.99079" lon="-84.09956">
        <ele>1181.6</ele>
        <time>2022-05-14 14:55:52</time>
      </trkpt>
      <trkpt lat="9.99084" lon="-84.0996">
        <ele>1181.4</ele>
        <time>2022-05-14 14:55:53</time>
      </trkpt>
      <trkpt lat="9.9909" lon="-84.09963">
        <ele>1181.6</ele>
        <time>2022-05-14 14:55:54</time>
      </trkpt>
      <trkpt lat="9.99095" lon="-84.09967">
        <ele>1181.8</ele>
        <time>2022-05-14 14:55:55</time>
      </trkpt>
      <trkpt lat="9.99101" lon="-84.0997">
        <ele>1182.4</ele>
        <time>2022-05-14 14:55:56</time>
      </trkpt>
      <trkpt lat="9.99106" lon="-84.09974">
        <ele>1182.6</ele>
        <time>2022-05-14 14:55:57</time>
      </trkpt>
      <trkpt lat="9.99106" lon="-84.09974">
        <ele>1182.8</ele>
        <time>2022-05-14 14:55:58</time>
      </trkpt>
      <trkpt lat="9.99106" lon="-84.09974">
        <ele>1183</ele>
        <time>2022-05-14 14:55:59</time>
      </trkpt>
      <trkpt lat="9.99121" lon="-84.09986">
        <ele>1183.2</ele>
        <time>2022-05-14 14:56:00</time>
      </trkpt>
      <trkpt lat="9.99126" lon="-84.09991">
        <ele>1183.2</ele>
        <time>2022-05-14 14:56:01</time>
      </trkpt>
      <trkpt lat="9.99131" lon="-84.09995">
        <ele>1183.4</ele>
        <time>2022-05-14 14:56:02</time>
      </trkpt>
      <trkpt lat="9.99136" lon="-84.1">
        <ele>1183.2</ele>
        <time>2022-05-14 14:56:03</time>
      </trkpt>
      <trkpt lat="9.9914" lon="-84.10005">
        <ele>1183.4</ele>
        <time>2022-05-14 14:56:04</time>
      </trkpt>
      <trkpt lat="9.99144" lon="-84.10011">
        <ele>1183.4</ele>
        <time>2022-05-14 14:56:05</time>
      </trkpt>
      <trkpt lat="9.99147" lon="-84.10016">
        <ele>1183.6</ele>
        <time>2022-05-14 14:56:06</time>
      </trkpt>
      <trkpt lat="9.9915" lon="-84.10023">
        <ele>1183.6</ele>
        <time>2022-05-14 14:56:07</time>
      </trkpt>
      <trkpt lat="9.9915" lon="-84.10023">
        <ele>1183.6</ele>
        <time>2022-05-14 14:56:08</time>
      </trkpt>
      <trkpt lat="9.9915" lon="-84.10023">
        <ele>1183.6</ele>
        <time>2022-05-14 14:56:09</time>
      </trkpt>
      <trkpt lat="9.99159" lon="-84.10042">
        <ele>1183.6</ele>
        <time>2022-05-14 14:56:10</time>
      </trkpt>
      <trkpt lat="9.99162" lon="-84.10048">
        <ele>1183.8</ele>
        <time>2022-05-14 14:56:11</time>
      </trkpt>
      <trkpt lat="9.99165" lon="-84.10054">
        <ele>1183.8</ele>
        <time>2022-05-14 14:56:12</time>
      </trkpt>
      <trkpt lat="9.9917" lon="-84.10059">
        <ele>1184</ele>
        <time>2022-05-14 14:56:13</time>
      </trkpt>
      <trkpt lat="9.99176" lon="-84.10063">
        <ele>1184.2</ele>
        <time>2022-05-14 14:56:14</time>
      </trkpt>
      <trkpt lat="9.99183" lon="-84.10065">
        <ele>1184.4</ele>
        <time>2022-05-14 14:56:15</time>
      </trkpt>
      <trkpt lat="9.99189" lon="-84.10066">
        <ele>1184.6</ele>
        <time>2022-05-14 14:56:16</time>
      </trkpt>
      <trkpt lat="9.99196" lon="-84.10068">
        <ele>1184.8</ele>
        <time>2022-05-14 14:56:17</time>
      </trkpt>
      <trkpt lat="9.99202" lon="-84.10069">
        <ele>1184.8</ele>
        <time>2022-05-14 14:56:18</time>
      </trkpt>
      <trkpt lat="9.99202" lon="-84.10069">
        <ele>1185.2</ele>
        <time>2022-05-14 14:56:19</time>
      </trkpt>
      <trkpt lat="9.99202" lon="-84.10069">
        <ele>1185.6</ele>
        <time>2022-05-14 14:56:20</time>
      </trkpt>
      <trkpt lat="9.99221" lon="-84.10073">
        <ele>1185.8</ele>
        <time>2022-05-14 14:56:21</time>
      </trkpt>
      <trkpt lat="9.99227" lon="-84.10074">
        <ele>1186.2</ele>
        <time>2022-05-14 14:56:22</time>
      </trkpt>
      <trkpt lat="9.99232" lon="-84.10075">
        <ele>1186.4</ele>
        <time>2022-05-14 14:56:23</time>
      </trkpt>
      <trkpt lat="9.99238" lon="-84.10076">
        <ele>1186.8</ele>
        <time>2022-05-14 14:56:24</time>
      </trkpt>
      <trkpt lat="9.99244" lon="-84.10077">
        <ele>1187</ele>
        <time>2022-05-14 14:56:25</time>
      </trkpt>
      <trkpt lat="9.9925" lon="-84.10078">
        <ele>1187.4</ele>
        <time>2022-05-14 14:56:26</time>
      </trkpt>
      <trkpt lat="9.99255" lon="-84.10079">
        <ele>1188</ele>
        <time>2022-05-14 14:56:27</time>
      </trkpt>
      <trkpt lat="9.99261" lon="-84.1008">
        <ele>1188.2</ele>
        <time>2022-05-14 14:56:28</time>
      </trkpt>
      <trkpt lat="9.99271" lon="-84.10083">
        <ele>1188.6</ele>
        <time>2022-05-14 14:56:29</time>
      </trkpt>
      <trkpt lat="9.99271" lon="-84.10083">
        <ele>1188.6</ele>
        <time>2022-05-14 14:56:30</time>
      </trkpt>
      <trkpt lat="9.99277" lon="-84.10085">
        <ele>1188.6</ele>
        <time>2022-05-14 14:56:31</time>
      </trkpt>
      <trkpt lat="9.99282" lon="-84.10085">
        <ele>1188.8</ele>
        <time>2022-05-14 14:56:32</time>
      </trkpt>
      <trkpt lat="9.99287" lon="-84.10087">
        <ele>1188.8</ele>
        <time>2022-05-14 14:56:33</time>
      </trkpt>
      <trkpt lat="9.99293" lon="-84.10088">
        <ele>1188.8</ele>
        <time>2022-05-14 14:56:34</time>
      </trkpt>
      <trkpt lat="9.99299" lon="-84.1009">
        <ele>1189</ele>
        <time>2022-05-14 14:56:35</time>
      </trkpt>
      <trkpt lat="9.99305" lon="-84.10091">
        <ele>1189</ele>
        <time>2022-05-14 14:56:36</time>
      </trkpt>
      <trkpt lat="9.99312" lon="-84.10092">
        <ele>1189.2</ele>
        <time>2022-05-14 14:56:37</time>
      </trkpt>
      <trkpt lat="9.99318" lon="-84.10093">
        <ele>1189.2</ele>
        <time>2022-05-14 14:56:38</time>
      </trkpt>
      <trkpt lat="9.99318" lon="-84.10093">
        <ele>1189.4</ele>
        <time>2022-05-14 14:56:39</time>
      </trkpt>
      <trkpt lat="9.99318" lon="-84.10093">
        <ele>1189.6</ele>
        <time>2022-05-14 14:56:40</time>
      </trkpt>
      <trkpt lat="9.99337" lon="-84.10096">
        <ele>1189.8</ele>
        <time>2022-05-14 14:56:41</time>
      </trkpt>
      <trkpt lat="9.99343" lon="-84.10097">
        <ele>1190</ele>
        <time>2022-05-14 14:56:42</time>
      </trkpt>
      <trkpt lat="9.99349" lon="-84.10098">
        <ele>1190.2</ele>
        <time>2022-05-14 14:56:43</time>
      </trkpt>
      <trkpt lat="9.99354" lon="-84.10099">
        <ele>1190.4</ele>
        <time>2022-05-14 14:56:44</time>
      </trkpt>
      <trkpt lat="9.99356" lon="-84.101">
        <ele>1190.4</ele>
        <time>2022-05-14 14:56:45</time>
      </trkpt>
      <trkpt lat="9.99359" lon="-84.10101">
        <ele>1190.6</ele>
        <time>2022-05-14 14:56:46</time>
      </trkpt>
      <trkpt lat="9.9936" lon="-84.10101">
        <ele>1190.6</ele>
        <time>2022-05-14 14:56:47</time>
      </trkpt>
      <trkpt lat="9.99361" lon="-84.10101">
        <ele>1190.8</ele>
        <time>2022-05-14 14:56:48</time>
      </trkpt>
      <trkpt lat="9.99361" lon="-84.10101">
        <ele>1190.8</ele>
        <time>2022-05-14 14:56:49</time>
      </trkpt>
      <trkpt lat="9.99362" lon="-84.10101">
        <ele>1190.8</ele>
        <time>2022-05-14 14:56:50</time>
      </trkpt>
      <trkpt lat="9.99363" lon="-84.10101">
        <ele>1190.6</ele>
        <time>2022-05-14 14:56:56</time>
      </trkpt>
      <trkpt lat="9.99364" lon="-84.10101">
        <ele>1190.6</ele>
        <time>2022-05-14 14:56:57</time>
      </trkpt>
      <trkpt lat="9.99366" lon="-84.10101">
        <ele>1190.6</ele>
        <time>2022-05-14 14:56:58</time>
      </trkpt>
      <trkpt lat="9.99367" lon="-84.10101">
        <ele>1190.8</ele>
        <time>2022-05-14 14:56:59</time>
      </trkpt>
      <trkpt lat="9.99367" lon="-84.10101">
        <ele>1190.8</ele>
        <time>2022-05-14 14:57:00</time>
      </trkpt>
      <trkpt lat="9.99367" lon="-84.10101">
        <ele>1190.8</ele>
        <time>2022-05-14 14:57:01</time>
      </trkpt>
      <trkpt lat="9.99373" lon="-84.10104">
        <ele>1191</ele>
        <time>2022-05-14 14:57:02</time>
      </trkpt>
      <trkpt lat="9.99375" lon="-84.10107">
        <ele>1191.2</ele>
        <time>2022-05-14 14:57:03</time>
      </trkpt>
      <trkpt lat="9.99376" lon="-84.1011">
        <ele>1191.4</ele>
        <time>2022-05-14 14:57:04</time>
      </trkpt>
      <trkpt lat="9.99377" lon="-84.10114">
        <ele>1191.4</ele>
        <time>2022-05-14 14:57:05</time>
      </trkpt>
      <trkpt lat="9.99377" lon="-84.10117">
        <ele>1191.6</ele>
        <time>2022-05-14 14:57:06</time>
      </trkpt>
      <trkpt lat="9.99377" lon="-84.10121">
        <ele>1191.6</ele>
        <time>2022-05-14 14:57:07</time>
      </trkpt>
      <trkpt lat="9.99377" lon="-84.10126">
        <ele>1191.8</ele>
        <time>2022-05-14 14:57:08</time>
      </trkpt>
      <trkpt lat="9.99377" lon="-84.1013">
        <ele>1192</ele>
        <time>2022-05-14 14:57:09</time>
      </trkpt>
      <trkpt lat="9.99378" lon="-84.10139">
        <ele>1192</ele>
        <time>2022-05-14 14:57:10</time>
      </trkpt>
      <trkpt lat="9.9938" lon="-84.10144">
        <ele>1192.2</ele>
        <time>2022-05-14 14:57:11</time>
      </trkpt>
      <trkpt lat="9.9938" lon="-84.10144">
        <ele>1192.2</ele>
        <time>2022-05-14 14:57:12</time>
      </trkpt>
      <trkpt lat="9.99382" lon="-84.10148">
        <ele>1192.4</ele>
        <time>2022-05-14 14:57:13</time>
      </trkpt>
      <trkpt lat="9.99382" lon="-84.10153">
        <ele>1192.6</ele>
        <time>2022-05-14 14:57:14</time>
      </trkpt>
      <trkpt lat="9.99382" lon="-84.10159">
        <ele>1192.6</ele>
        <time>2022-05-14 14:57:15</time>
      </trkpt>
      <trkpt lat="9.99382" lon="-84.10163">
        <ele>1192.8</ele>
        <time>2022-05-14 14:57:16</time>
      </trkpt>
      <trkpt lat="9.99382" lon="-84.10168">
        <ele>1193</ele>
        <time>2022-05-14 14:57:17</time>
      </trkpt>
      <trkpt lat="9.99382" lon="-84.10173">
        <ele>1193</ele>
        <time>2022-05-14 14:57:18</time>
      </trkpt>
      <trkpt lat="9.99381" lon="-84.10177">
        <ele>1193</ele>
        <time>2022-05-14 14:57:19</time>
      </trkpt>
      <trkpt lat="9.99381" lon="-84.10181">
        <ele>1193</ele>
        <time>2022-05-14 14:57:20</time>
      </trkpt>
      <trkpt lat="9.99382" lon="-84.10191">
        <ele>1193</ele>
        <time>2022-05-14 14:57:21</time>
      </trkpt>
      <trkpt lat="9.99382" lon="-84.10191">
        <ele>1192.8</ele>
        <time>2022-05-14 14:57:22</time>
      </trkpt>
      <trkpt lat="9.99382" lon="-84.10197">
        <ele>1192.6</ele>
        <time>2022-05-14 14:57:23</time>
      </trkpt>
      <trkpt lat="9.99382" lon="-84.10202">
        <ele>1192.2</ele>
        <time>2022-05-14 14:57:24</time>
      </trkpt>
      <trkpt lat="9.99383" lon="-84.10208">
        <ele>1192</ele>
        <time>2022-05-14 14:57:25</time>
      </trkpt>
      <trkpt lat="9.99383" lon="-84.10215">
        <ele>1191.8</ele>
        <time>2022-05-14 14:57:26</time>
      </trkpt>
      <trkpt lat="9.99383" lon="-84.10222">
        <ele>1191.4</ele>
        <time>2022-05-14 14:57:27</time>
      </trkpt>
      <trkpt lat="9.99383" lon="-84.10229">
        <ele>1191</ele>
        <time>2022-05-14 14:57:28</time>
      </trkpt>
      <trkpt lat="9.99384" lon="-84.10236">
        <ele>1190.6</ele>
        <time>2022-05-14 14:57:29</time>
      </trkpt>
      <trkpt lat="9.99384" lon="-84.10244">
        <ele>1190</ele>
        <time>2022-05-14 14:57:30</time>
      </trkpt>
      <trkpt lat="9.99384" lon="-84.10261">
        <ele>1189.4</ele>
        <time>2022-05-14 14:57:31</time>
      </trkpt>
      <trkpt lat="9.99385" lon="-84.1027">
        <ele>1188.4</ele>
        <time>2022-05-14 14:57:32</time>
      </trkpt>
      <trkpt lat="9.99385" lon="-84.1027">
        <ele>1188.4</ele>
        <time>2022-05-14 14:57:33</time>
      </trkpt>
      <trkpt lat="9.99385" lon="-84.1028">
        <ele>1187.4</ele>
        <time>2022-05-14 14:57:34</time>
      </trkpt>
      <trkpt lat="9.99385" lon="-84.10292">
        <ele>1186.2</ele>
        <time>2022-05-14 14:57:35</time>
      </trkpt>
      <trkpt lat="9.99386" lon="-84.10303">
        <ele>1185</ele>
        <time>2022-05-14 14:57:36</time>
      </trkpt>
      <trkpt lat="9.99387" lon="-84.10316">
        <ele>1184</ele>
        <time>2022-05-14 14:57:37</time>
      </trkpt>
      <trkpt lat="9.99389" lon="-84.10327">
        <ele>1183.4</ele>
        <time>2022-05-14 14:57:38</time>
      </trkpt>
      <trkpt lat="9.99392" lon="-84.10339">
        <ele>1183</ele>
        <time>2022-05-14 14:57:39</time>
      </trkpt>
      <trkpt lat="9.99395" lon="-84.10351">
        <ele>1182.4</ele>
        <time>2022-05-14 14:57:40</time>
      </trkpt>
      <trkpt lat="9.99399" lon="-84.10362">
        <ele>1182</ele>
        <time>2022-05-14 14:57:41</time>
      </trkpt>
      <trkpt lat="9.99403" lon="-84.10385">
        <ele>1181.6</ele>
        <time>2022-05-14 14:57:42</time>
      </trkpt>
      <trkpt lat="9.99403" lon="-84.10385">
        <ele>1181.2</ele>
        <time>2022-05-14 14:57:43</time>
      </trkpt>
      <trkpt lat="9.99405" lon="-84.10394">
        <ele>1180.8</ele>
        <time>2022-05-14 14:57:44</time>
      </trkpt>
      <trkpt lat="9.99407" lon="-84.10401">
        <ele>1180.6</ele>
        <time>2022-05-14 14:57:45</time>
      </trkpt>
      <trkpt lat="9.99409" lon="-84.10408">
        <ele>1180.6</ele>
        <time>2022-05-14 14:57:46</time>
      </trkpt>
      <trkpt lat="9.9941" lon="-84.10415">
        <ele>1180.6</ele>
        <time>2022-05-14 14:57:47</time>
      </trkpt>
      <trkpt lat="9.9941" lon="-84.10421">
        <ele>1180.2</ele>
        <time>2022-05-14 14:57:48</time>
      </trkpt>
      <trkpt lat="9.9941" lon="-84.10428">
        <ele>1180</ele>
        <time>2022-05-14 14:57:49</time>
      </trkpt>
      <trkpt lat="9.9941" lon="-84.10435">
        <ele>1179.8</ele>
        <time>2022-05-14 14:57:50</time>
      </trkpt>
      <trkpt lat="9.9941" lon="-84.10435">
        <ele>1179.6</ele>
        <time>2022-05-14 14:57:51</time>
      </trkpt>
      <trkpt lat="9.99408" lon="-84.10455">
        <ele>1179.6</ele>
        <time>2022-05-14 14:57:52</time>
      </trkpt>
      <trkpt lat="9.99408" lon="-84.10461">
        <ele>1179.6</ele>
        <time>2022-05-14 14:57:53</time>
      </trkpt>
      <trkpt lat="9.99408" lon="-84.10461">
        <ele>1179.6</ele>
        <time>2022-05-14 14:57:54</time>
      </trkpt>
      <trkpt lat="9.99407" lon="-84.10468">
        <ele>1179.4</ele>
        <time>2022-05-14 14:57:55</time>
      </trkpt>
      <trkpt lat="9.99406" lon="-84.10475">
        <ele>1179.2</ele>
        <time>2022-05-14 14:57:56</time>
      </trkpt>
      <trkpt lat="9.99405" lon="-84.10483">
        <ele>1179</ele>
        <time>2022-05-14 14:57:57</time>
      </trkpt>
      <trkpt lat="9.99405" lon="-84.1049">
        <ele>1178.8</ele>
        <time>2022-05-14 14:57:58</time>
      </trkpt>
      <trkpt lat="9.99405" lon="-84.10497">
        <ele>1178.6</ele>
        <time>2022-05-14 14:57:59</time>
      </trkpt>
      <trkpt lat="9.99406" lon="-84.10505">
        <ele>1178.4</ele>
        <time>2022-05-14 14:58:00</time>
      </trkpt>
      <trkpt lat="9.99407" lon="-84.10513">
        <ele>1178</ele>
        <time>2022-05-14 14:58:01</time>
      </trkpt>
      <trkpt lat="9.99407" lon="-84.10513">
        <ele>1177.6</ele>
        <time>2022-05-14 14:58:02</time>
      </trkpt>
      <trkpt lat="9.99408" lon="-84.1054">
        <ele>1177</ele>
        <time>2022-05-14 14:58:03</time>
      </trkpt>
      <trkpt lat="9.99408" lon="-84.1054">
        <ele>1176.6</ele>
        <time>2022-05-14 14:58:04</time>
      </trkpt>
      <trkpt lat="9.99409" lon="-84.10549">
        <ele>1175.8</ele>
        <time>2022-05-14 14:58:05</time>
      </trkpt>
      <trkpt lat="9.99408" lon="-84.10559">
        <ele>1174.8</ele>
        <time>2022-05-14 14:58:06</time>
      </trkpt>
      <trkpt lat="9.99407" lon="-84.10569">
        <ele>1173.8</ele>
        <time>2022-05-14 14:58:07</time>
      </trkpt>
      <trkpt lat="9.99406" lon="-84.10578">
        <ele>1173.2</ele>
        <time>2022-05-14 14:58:08</time>
      </trkpt>
      <trkpt lat="9.99406" lon="-84.10586">
        <ele>1172.6</ele>
        <time>2022-05-14 14:58:09</time>
      </trkpt>
      <trkpt lat="9.99405" lon="-84.10593">
        <ele>1172.4</ele>
        <time>2022-05-14 14:58:10</time>
      </trkpt>
      <trkpt lat="9.99403" lon="-84.106">
        <ele>1172</ele>
        <time>2022-05-14 14:58:11</time>
      </trkpt>
      <trkpt lat="9.99401" lon="-84.10616">
        <ele>1171.8</ele>
        <time>2022-05-14 14:58:12</time>
      </trkpt>
      <trkpt lat="9.99401" lon="-84.10623">
        <ele>1171.4</ele>
        <time>2022-05-14 14:58:13</time>
      </trkpt>
      <trkpt lat="9.994" lon="-84.10632">
        <ele>1170.4</ele>
        <time>2022-05-14 14:58:14</time>
      </trkpt>
      <trkpt lat="9.994" lon="-84.10632">
        <ele>1170.4</ele>
        <time>2022-05-14 14:58:15</time>
      </trkpt>
      <trkpt lat="9.994" lon="-84.10641">
        <ele>1170.2</ele>
        <time>2022-05-14 14:58:16</time>
      </trkpt>
      <trkpt lat="9.99399" lon="-84.1065">
        <ele>1170</ele>
        <time>2022-05-14 14:58:17</time>
      </trkpt>
      <trkpt lat="9.99399" lon="-84.10659">
        <ele>1170.4</ele>
        <time>2022-05-14 14:58:18</time>
      </trkpt>
      <trkpt lat="9.99399" lon="-84.10668">
        <ele>1169.8</ele>
        <time>2022-05-14 14:58:19</time>
      </trkpt>
      <trkpt lat="9.994" lon="-84.10678">
        <ele>1169.2</ele>
        <time>2022-05-14 14:58:20</time>
      </trkpt>
      <trkpt lat="9.994" lon="-84.10688">
        <ele>1168.6</ele>
        <time>2022-05-14 14:58:21</time>
      </trkpt>
      <trkpt lat="9.99401" lon="-84.10699">
        <ele>1167.8</ele>
        <time>2022-05-14 14:58:22</time>
      </trkpt>
      <trkpt lat="9.99402" lon="-84.10721">
        <ele>1166.8</ele>
        <time>2022-05-14 14:58:23</time>
      </trkpt>
      <trkpt lat="9.99402" lon="-84.10733">
        <ele>1166</ele>
        <time>2022-05-14 14:58:24</time>
      </trkpt>
      <trkpt lat="9.99402" lon="-84.10733">
        <ele>1165.2</ele>
        <time>2022-05-14 14:58:25</time>
      </trkpt>
      <trkpt lat="9.99403" lon="-84.10744">
        <ele>1164.6</ele>
        <time>2022-05-14 14:58:26</time>
      </trkpt>
      <trkpt lat="9.99403" lon="-84.10757">
        <ele>1164</ele>
        <time>2022-05-14 14:58:27</time>
      </trkpt>
      <trkpt lat="9.99403" lon="-84.10768">
        <ele>1163.6</ele>
        <time>2022-05-14 14:58:28</time>
      </trkpt>
      <trkpt lat="9.99403" lon="-84.1078">
        <ele>1163.2</ele>
        <time>2022-05-14 14:58:29</time>
      </trkpt>
      <trkpt lat="9.99405" lon="-84.10792">
        <ele>1162.8</ele>
        <time>2022-05-14 14:58:30</time>
      </trkpt>
      <trkpt lat="9.99407" lon="-84.10803">
        <ele>1162.6</ele>
        <time>2022-05-14 14:58:31</time>
      </trkpt>
      <trkpt lat="9.99407" lon="-84.10803">
        <ele>1162.2</ele>
        <time>2022-05-14 14:58:32</time>
      </trkpt>
      <trkpt lat="9.99409" lon="-84.10838">
        <ele>1161.8</ele>
        <time>2022-05-14 14:58:33</time>
      </trkpt>
      <trkpt lat="9.9941" lon="-84.1085">
        <ele>1161.4</ele>
        <time>2022-05-14 14:58:34</time>
      </trkpt>
      <trkpt lat="9.99411" lon="-84.10861">
        <ele>1161</ele>
        <time>2022-05-14 14:58:35</time>
      </trkpt>
      <trkpt lat="9.99411" lon="-84.10861">
        <ele>1161</ele>
        <time>2022-05-14 14:58:36</time>
      </trkpt>
      <trkpt lat="9.99412" lon="-84.10873">
        <ele>1160.6</ele>
        <time>2022-05-14 14:58:37</time>
      </trkpt>
      <trkpt lat="9.99412" lon="-84.10883">
        <ele>1160.4</ele>
        <time>2022-05-14 14:58:38</time>
      </trkpt>
      <trkpt lat="9.99413" lon="-84.10895">
        <ele>1160</ele>
        <time>2022-05-14 14:58:39</time>
      </trkpt>
      <trkpt lat="9.99414" lon="-84.10906">
        <ele>1159.6</ele>
        <time>2022-05-14 14:58:40</time>
      </trkpt>
      <trkpt lat="9.99415" lon="-84.10917">
        <ele>1159.2</ele>
        <time>2022-05-14 14:58:41</time>
      </trkpt>
      <trkpt lat="9.99415" lon="-84.10928">
        <ele>1159</ele>
        <time>2022-05-14 14:58:42</time>
      </trkpt>
      <trkpt lat="9.99415" lon="-84.10928">
        <ele>1158.4</ele>
        <time>2022-05-14 14:58:43</time>
      </trkpt>
      <trkpt lat="9.99415" lon="-84.10963">
        <ele>1158</ele>
        <time>2022-05-14 14:58:44</time>
      </trkpt>
      <trkpt lat="9.99415" lon="-84.10974">
        <ele>1157</ele>
        <time>2022-05-14 14:58:45</time>
      </trkpt>
      <trkpt lat="9.99415" lon="-84.10974">
        <ele>1155.8</ele>
        <time>2022-05-14 14:58:46</time>
      </trkpt>
      <trkpt lat="9.99415" lon="-84.10986">
        <ele>1154.6</ele>
        <time>2022-05-14 14:58:47</time>
      </trkpt>
      <trkpt lat="9.99416" lon="-84.10999">
        <ele>1153.6</ele>
        <time>2022-05-14 14:58:48</time>
      </trkpt>
      <trkpt lat="9.99416" lon="-84.11012">
        <ele>1152.8</ele>
        <time>2022-05-14 14:58:49</time>
      </trkpt>
      <trkpt lat="9.9942" lon="-84.11025">
        <ele>1152</ele>
        <time>2022-05-14 14:58:50</time>
      </trkpt>
      <trkpt lat="9.99426" lon="-84.11036">
        <ele>1151.2</ele>
        <time>2022-05-14 14:58:51</time>
      </trkpt>
      <trkpt lat="9.99433" lon="-84.11046">
        <ele>1150.2</ele>
        <time>2022-05-14 14:58:52</time>
      </trkpt>
      <trkpt lat="9.99447" lon="-84.11069">
        <ele>1149</ele>
        <time>2022-05-14 14:58:53</time>
      </trkpt>
      <trkpt lat="9.99455" lon="-84.11079">
        <ele>1147.8</ele>
        <time>2022-05-14 14:58:54</time>
      </trkpt>
      <trkpt lat="9.99464" lon="-84.11089">
        <ele>1146.8</ele>
        <time>2022-05-14 14:58:55</time>
      </trkpt>
      <trkpt lat="9.99473" lon="-84.11099">
        <ele>1145.8</ele>
        <time>2022-05-14 14:58:56</time>
      </trkpt>
      <trkpt lat="9.99473" lon="-84.11099">
        <ele>1145.8</ele>
        <time>2022-05-14 14:58:57</time>
      </trkpt>
      <trkpt lat="9.99481" lon="-84.11108">
        <ele>1144.6</ele>
        <time>2022-05-14 14:58:58</time>
      </trkpt>
      <trkpt lat="9.99487" lon="-84.1112">
        <ele>1143.6</ele>
        <time>2022-05-14 14:58:59</time>
      </trkpt>
      <trkpt lat="9.99491" lon="-84.11131">
        <ele>1142.6</ele>
        <time>2022-05-14 14:59:00</time>
      </trkpt>
      <trkpt lat="9.99493" lon="-84.11142">
        <ele>1141.8</ele>
        <time>2022-05-14 14:59:01</time>
      </trkpt>
      <trkpt lat="9.99494" lon="-84.11153">
        <ele>1141.2</ele>
        <time>2022-05-14 14:59:02</time>
      </trkpt>
      <trkpt lat="9.99494" lon="-84.11162">
        <ele>1140.6</ele>
        <time>2022-05-14 14:59:03</time>
      </trkpt>
      <trkpt lat="9.99494" lon="-84.11177">
        <ele>1140.4</ele>
        <time>2022-05-14 14:59:04</time>
      </trkpt>
      <trkpt lat="9.99494" lon="-84.11183">
        <ele>1140.2</ele>
        <time>2022-05-14 14:59:05</time>
      </trkpt>
      <trkpt lat="9.99494" lon="-84.11188">
        <ele>1140</ele>
        <time>2022-05-14 14:59:06</time>
      </trkpt>
      <trkpt lat="9.99494" lon="-84.11188">
        <ele>1140</ele>
        <time>2022-05-14 14:59:07</time>
      </trkpt>
      <trkpt lat="9.99494" lon="-84.11191">
        <ele>1140</ele>
        <time>2022-05-14 14:59:08</time>
      </trkpt>
      <trkpt lat="9.99494" lon="-84.11194">
        <ele>1140</ele>
        <time>2022-05-14 14:59:09</time>
      </trkpt>
      <trkpt lat="9.99494" lon="-84.11196">
        <ele>1140.2</ele>
        <time>2022-05-14 14:59:10</time>
      </trkpt>
      <trkpt lat="9.99494" lon="-84.11198">
        <ele>1140.2</ele>
        <time>2022-05-14 14:59:11</time>
      </trkpt>
      <trkpt lat="9.99494" lon="-84.11201">
        <ele>1140.2</ele>
        <time>2022-05-14 14:59:12</time>
      </trkpt>
      <trkpt lat="9.99494" lon="-84.11204">
        <ele>1140.2</ele>
        <time>2022-05-14 14:59:13</time>
      </trkpt>
      <trkpt lat="9.99498" lon="-84.11209">
        <ele>1140.2</ele>
        <time>2022-05-14 14:59:14</time>
      </trkpt>
      <trkpt lat="9.99501" lon="-84.11211">
        <ele>1140.4</ele>
        <time>2022-05-14 14:59:15</time>
      </trkpt>
      <trkpt lat="9.99504" lon="-84.11214">
        <ele>1140.2</ele>
        <time>2022-05-14 14:59:16</time>
      </trkpt>
      <trkpt lat="9.99507" lon="-84.11216">
        <ele>1140.2</ele>
        <time>2022-05-14 14:59:17</time>
      </trkpt>
      <trkpt lat="9.99507" lon="-84.11216">
        <ele>1140.2</ele>
        <time>2022-05-14 14:59:18</time>
      </trkpt>
      <trkpt lat="9.99509" lon="-84.1122">
        <ele>1140.2</ele>
        <time>2022-05-14 14:59:19</time>
      </trkpt>
      <trkpt lat="9.99512" lon="-84.11223">
        <ele>1140.4</ele>
        <time>2022-05-14 14:59:20</time>
      </trkpt>
      <trkpt lat="9.99515" lon="-84.11226">
        <ele>1140.4</ele>
        <time>2022-05-14 14:59:21</time>
      </trkpt>
      <trkpt lat="9.99518" lon="-84.11229">
        <ele>1140.4</ele>
        <time>2022-05-14 14:59:22</time>
      </trkpt>
      <trkpt lat="9.99522" lon="-84.11231">
        <ele>1140.6</ele>
        <time>2022-05-14 14:59:23</time>
      </trkpt>
      <trkpt lat="9.99526" lon="-84.11234">
        <ele>1140.8</ele>
        <time>2022-05-14 14:59:24</time>
      </trkpt>
      <trkpt lat="9.99534" lon="-84.11236">
        <ele>1141</ele>
        <time>2022-05-14 14:59:25</time>
      </trkpt>
      <trkpt lat="9.99538" lon="-84.11237">
        <ele>1141.2</ele>
        <time>2022-05-14 14:59:26</time>
      </trkpt>
      <trkpt lat="9.99543" lon="-84.11237">
        <ele>1141.4</ele>
        <time>2022-05-14 14:59:27</time>
      </trkpt>
      <trkpt lat="9.99543" lon="-84.11237">
        <ele>1141.6</ele>
        <time>2022-05-14 14:59:28</time>
      </trkpt>
      <trkpt lat="9.99547" lon="-84.11237">
        <ele>1141.8</ele>
        <time>2022-05-14 14:59:29</time>
      </trkpt>
      <trkpt lat="9.99551" lon="-84.11237">
        <ele>1142.2</ele>
        <time>2022-05-14 14:59:30</time>
      </trkpt>
      <trkpt lat="9.99556" lon="-84.11237">
        <ele>1142.6</ele>
        <time>2022-05-14 14:59:31</time>
      </trkpt>
      <trkpt lat="9.9956" lon="-84.11237">
        <ele>1143</ele>
        <time>2022-05-14 14:59:32</time>
      </trkpt>
      <trkpt lat="9.99564" lon="-84.11237">
        <ele>1143.6</ele>
        <time>2022-05-14 14:59:33</time>
      </trkpt>
      <trkpt lat="9.99564" lon="-84.11237">
        <ele>1143.8</ele>
        <time>2022-05-14 14:59:34</time>
      </trkpt>
      <trkpt lat="9.99577" lon="-84.11238">
        <ele>1144.2</ele>
        <time>2022-05-14 14:59:35</time>
      </trkpt>
      <trkpt lat="9.99582" lon="-84.11237">
        <ele>1144.6</ele>
        <time>2022-05-14 14:59:36</time>
      </trkpt>
      <trkpt lat="9.99586" lon="-84.11237">
        <ele>1144.6</ele>
        <time>2022-05-14 14:59:37</time>
      </trkpt>
      <trkpt lat="9.99591" lon="-84.11237">
        <ele>1144.6</ele>
        <time>2022-05-14 14:59:38</time>
      </trkpt>
      <trkpt lat="9.99591" lon="-84.11237">
        <ele>1144.6</ele>
        <time>2022-05-14 14:59:39</time>
      </trkpt>
      <trkpt lat="9.99595" lon="-84.11238">
        <ele>1144.6</ele>
        <time>2022-05-14 14:59:40</time>
      </trkpt>
      <trkpt lat="9.99599" lon="-84.11238">
        <ele>1144.8</ele>
        <time>2022-05-14 14:59:41</time>
      </trkpt>
      <trkpt lat="9.99604" lon="-84.11239">
        <ele>1145</ele>
        <time>2022-05-14 14:59:42</time>
      </trkpt>
      <trkpt lat="9.99608" lon="-84.11239">
        <ele>1145</ele>
        <time>2022-05-14 14:59:43</time>
      </trkpt>
      <trkpt lat="9.99612" lon="-84.11237">
        <ele>1145.4</ele>
        <time>2022-05-14 14:59:44</time>
      </trkpt>
      <trkpt lat="9.99621" lon="-84.11236">
        <ele>1145.6</ele>
        <time>2022-05-14 14:59:45</time>
      </trkpt>
      <trkpt lat="9.99625" lon="-84.11237">
        <ele>1146</ele>
        <time>2022-05-14 14:59:46</time>
      </trkpt>
      <trkpt lat="9.99629" lon="-84.11237">
        <ele>1146.2</ele>
        <time>2022-05-14 14:59:47</time>
      </trkpt>
      <trkpt lat="9.99633" lon="-84.11238">
        <ele>1146.6</ele>
        <time>2022-05-14 14:59:48</time>
      </trkpt>
      <trkpt lat="9.99633" lon="-84.11238">
        <ele>1147</ele>
        <time>2022-05-14 14:59:49</time>
      </trkpt>
      <trkpt lat="9.99637" lon="-84.11238">
        <ele>1147.6</ele>
        <time>2022-05-14 14:59:50</time>
      </trkpt>
      <trkpt lat="9.99641" lon="-84.11239">
        <ele>1148</ele>
        <time>2022-05-14 14:59:51</time>
      </trkpt>
      <trkpt lat="9.99645" lon="-84.11238">
        <ele>1148.4</ele>
        <time>2022-05-14 14:59:52</time>
      </trkpt>
      <trkpt lat="9.9965" lon="-84.1124">
        <ele>1148.6</ele>
        <time>2022-05-14 14:59:53</time>
      </trkpt>
      <trkpt lat="9.99654" lon="-84.1124">
        <ele>1149</ele>
        <time>2022-05-14 14:59:54</time>
      </trkpt>
      <trkpt lat="9.99662" lon="-84.1124">
        <ele>1149.2</ele>
        <time>2022-05-14 14:59:55</time>
      </trkpt>
      <trkpt lat="9.99666" lon="-84.1124">
        <ele>1149.8</ele>
        <time>2022-05-14 14:59:56</time>
      </trkpt>
      <trkpt lat="9.9967" lon="-84.1124">
        <ele>1150</ele>
        <time>2022-05-14 14:59:57</time>
      </trkpt>
      <trkpt lat="9.99674" lon="-84.11241">
        <ele>1150.2</ele>
        <time>2022-05-14 14:59:58</time>
      </trkpt>
      <trkpt lat="9.99679" lon="-84.1124">
        <ele>1150.2</ele>
        <time>2022-05-14 14:59:59</time>
      </trkpt>
      <trkpt lat="9.99679" lon="-84.1124">
        <ele>1150.2</ele>
        <time>2022-05-14 15:00:00</time>
      </trkpt>
      <trkpt lat="9.99683" lon="-84.1124">
        <ele>1150.2</ele>
        <time>2022-05-14 15:00:01</time>
      </trkpt>
      <trkpt lat="9.99688" lon="-84.11239">
        <ele>1150.4</ele>
        <time>2022-05-14 15:00:02</time>
      </trkpt>
      <trkpt lat="9.99692" lon="-84.11239">
        <ele>1150.6</ele>
        <time>2022-05-14 15:00:03</time>
      </trkpt>
      <trkpt lat="9.99697" lon="-84.11239">
        <ele>1151</ele>
        <time>2022-05-14 15:00:04</time>
      </trkpt>
      <trkpt lat="9.99702" lon="-84.11239">
        <ele>1151.2</ele>
        <time>2022-05-14 15:00:05</time>
      </trkpt>
      <trkpt lat="9.99712" lon="-84.11239">
        <ele>1151.4</ele>
        <time>2022-05-14 15:00:06</time>
      </trkpt>
      <trkpt lat="9.99716" lon="-84.11238">
        <ele>1151.4</ele>
        <time>2022-05-14 15:00:07</time>
      </trkpt>
      <trkpt lat="9.99721" lon="-84.11238">
        <ele>1151.8</ele>
        <time>2022-05-14 15:00:08</time>
      </trkpt>
      <trkpt lat="9.99726" lon="-84.11239">
        <ele>1152</ele>
        <time>2022-05-14 15:00:09</time>
      </trkpt>
      <trkpt lat="9.99726" lon="-84.11239">
        <ele>1152.4</ele>
        <time>2022-05-14 15:00:10</time>
      </trkpt>
      <trkpt lat="9.9973" lon="-84.11239">
        <ele>1152.8</ele>
        <time>2022-05-14 15:00:11</time>
      </trkpt>
      <trkpt lat="9.99735" lon="-84.11238">
        <ele>1153</ele>
        <time>2022-05-14 15:00:12</time>
      </trkpt>
      <trkpt lat="9.99739" lon="-84.11238">
        <ele>1153.4</ele>
        <time>2022-05-14 15:00:13</time>
      </trkpt>
      <trkpt lat="9.99744" lon="-84.11238">
        <ele>1153.8</ele>
        <time>2022-05-14 15:00:14</time>
      </trkpt>
      <trkpt lat="9.99744" lon="-84.11238">
        <ele>1154.4</ele>
        <time>2022-05-14 15:00:15</time>
      </trkpt>
      <trkpt lat="9.99757" lon="-84.11237">
        <ele>1154.6</ele>
        <time>2022-05-14 15:00:16</time>
      </trkpt>
      <trkpt lat="9.99761" lon="-84.11238">
        <ele>1154.8</ele>
        <time>2022-05-14 15:00:17</time>
      </trkpt>
      <trkpt lat="9.99766" lon="-84.11238">
        <ele>1155</ele>
        <time>2022-05-14 15:00:18</time>
      </trkpt>
      <trkpt lat="9.9977" lon="-84.11238">
        <ele>1155.4</ele>
        <time>2022-05-14 15:00:19</time>
      </trkpt>
      <trkpt lat="9.99775" lon="-84.11238">
        <ele>1156</ele>
        <time>2022-05-14 15:00:20</time>
      </trkpt>
      <trkpt lat="9.99775" lon="-84.11238">
        <ele>1156</ele>
        <time>2022-05-14 15:00:21</time>
      </trkpt>
      <trkpt lat="9.99779" lon="-84.11238">
        <ele>1156.4</ele>
        <time>2022-05-14 15:00:22</time>
      </trkpt>
      <trkpt lat="9.99783" lon="-84.11239">
        <ele>1156.8</ele>
        <time>2022-05-14 15:00:23</time>
      </trkpt>
      <trkpt lat="9.99788" lon="-84.11239">
        <ele>1157.2</ele>
        <time>2022-05-14 15:00:24</time>
      </trkpt>
      <trkpt lat="9.99792" lon="-84.11239">
        <ele>1157.8</ele>
        <time>2022-05-14 15:00:25</time>
      </trkpt>
      <trkpt lat="9.99792" lon="-84.11239">
        <ele>1158.2</ele>
        <time>2022-05-14 15:00:26</time>
      </trkpt>
      <trkpt lat="9.99805" lon="-84.1124">
        <ele>1158.6</ele>
        <time>2022-05-14 15:00:27</time>
      </trkpt>
      <trkpt lat="9.99809" lon="-84.1124">
        <ele>1158.8</ele>
        <time>2022-05-14 15:00:28</time>
      </trkpt>
      <trkpt lat="9.99813" lon="-84.1124">
        <ele>1159.2</ele>
        <time>2022-05-14 15:00:29</time>
      </trkpt>
      <trkpt lat="9.99817" lon="-84.1124">
        <ele>1159.6</ele>
        <time>2022-05-14 15:00:30</time>
      </trkpt>
      <trkpt lat="9.99817" lon="-84.1124">
        <ele>1159.8</ele>
        <time>2022-05-14 15:00:31</time>
      </trkpt>
      <trkpt lat="9.99821" lon="-84.1124">
        <ele>1160.2</ele>
        <time>2022-05-14 15:00:32</time>
      </trkpt>
      <trkpt lat="9.99825" lon="-84.1124">
        <ele>1160.6</ele>
        <time>2022-05-14 15:00:33</time>
      </trkpt>
      <trkpt lat="9.99828" lon="-84.1124">
        <ele>1161</ele>
        <time>2022-05-14 15:00:34</time>
      </trkpt>
      <trkpt lat="9.99832" lon="-84.1124">
        <ele>1161.2</ele>
        <time>2022-05-14 15:00:35</time>
      </trkpt>
      <trkpt lat="9.99839" lon="-84.11239">
        <ele>1161.6</ele>
        <time>2022-05-14 15:00:36</time>
      </trkpt>
      <trkpt lat="9.99842" lon="-84.11238">
        <ele>1161.8</ele>
        <time>2022-05-14 15:00:37</time>
      </trkpt>
      <trkpt lat="9.99844" lon="-84.11237">
        <ele>1162</ele>
        <time>2022-05-14 15:00:38</time>
      </trkpt>
      <trkpt lat="9.99846" lon="-84.11237">
        <ele>1162</ele>
        <time>2022-05-14 15:00:39</time>
      </trkpt>
      <trkpt lat="9.99848" lon="-84.11237">
        <ele>1162</ele>
        <time>2022-05-14 15:00:40</time>
      </trkpt>
      <trkpt lat="9.9985" lon="-84.11237">
        <ele>1162</ele>
        <time>2022-05-14 15:00:41</time>
      </trkpt>
      <trkpt lat="9.9985" lon="-84.11237">
        <ele>1162</ele>
        <time>2022-05-14 15:00:42</time>
      </trkpt>
      <trkpt lat="9.99851" lon="-84.11237">
        <ele>1162</ele>
        <time>2022-05-14 15:00:43</time>
      </trkpt>
      <trkpt lat="9.99852" lon="-84.11236">
        <ele>1162</ele>
        <time>2022-05-14 15:00:44</time>
      </trkpt>
      <trkpt lat="9.99852" lon="-84.11236">
        <ele>1162</ele>
        <time>2022-05-14 15:00:45</time>
      </trkpt>
      <trkpt lat="9.99852" lon="-84.11235">
        <ele>1162.2</ele>
        <time>2022-05-14 15:00:46</time>
      </trkpt>
      <trkpt lat="9.99851" lon="-84.11234">
        <ele>1162.4</ele>
        <time>2022-05-14 15:00:47</time>
      </trkpt>
      <trkpt lat="9.9985" lon="-84.11232">
        <ele>1162.4</ele>
        <time>2022-05-14 15:00:48</time>
      </trkpt>
      <trkpt lat="9.9985" lon="-84.11231">
        <ele>1162.6</ele>
        <time>2022-05-14 15:00:49</time>
      </trkpt>
      <trkpt lat="9.99849" lon="-84.11231">
        <ele>1162.4</ele>
        <time>2022-05-14 15:00:50</time>
      </trkpt>
      <trkpt lat="9.99848" lon="-84.1123">
        <ele>1162.4</ele>
        <time>2022-05-14 15:00:51</time>
      </trkpt>
      <trkpt lat="9.99848" lon="-84.1123">
        <ele>1162.4</ele>
        <time>2022-05-14 15:00:52</time>
      </trkpt>
      <trkpt lat="9.99848" lon="-84.1123">
        <ele>1162.4</ele>
        <time>2022-05-14 15:00:53</time>
      </trkpt>
      <trkpt lat="9.99848" lon="-84.11229">
        <ele>1162.4</ele>
        <time>2022-05-14 15:00:54</time>
      </trkpt>
      <trkpt lat="9.99847" lon="-84.11229">
        <ele>1162.4</ele>
        <time>2022-05-14 15:00:55</time>
      </trkpt>
      <trkpt lat="9.99847" lon="-84.11228">
        <ele>1162.4</ele>
        <time>2022-05-14 15:00:56</time>
      </trkpt>
      <trkpt lat="9.99846" lon="-84.11227">
        <ele>1162.4</ele>
        <time>2022-05-14 15:00:57</time>
      </trkpt>
      <trkpt lat="9.99848" lon="-84.11229">
        <ele>1162.4</ele>
        <time>2022-05-14 15:01:02</time>
      </trkpt>
      <trkpt lat="9.99848" lon="-84.11229">
        <ele>1162.4</ele>
        <time>2022-05-14 15:01:03</time>
      </trkpt>
      <trkpt lat="9.99849" lon="-84.1123">
        <ele>1162.2</ele>
        <time>2022-05-14 15:01:04</time>
      </trkpt>
      <trkpt lat="9.9985" lon="-84.11231">
        <ele>1162.2</ele>
        <time>2022-05-14 15:01:05</time>
      </trkpt>
      <trkpt lat="9.99851" lon="-84.11234">
        <ele>1162.2</ele>
        <time>2022-05-14 15:01:06</time>
      </trkpt>
      <trkpt lat="9.99851" lon="-84.11234">
        <ele>1162</ele>
        <time>2022-05-14 15:01:07</time>
      </trkpt>
      <trkpt lat="9.99854" lon="-84.11238">
        <ele>1162.2</ele>
        <time>2022-05-14 15:01:08</time>
      </trkpt>
      <trkpt lat="9.99856" lon="-84.11239">
        <ele>1162.2</ele>
        <time>2022-05-14 15:01:09</time>
      </trkpt>
      <trkpt lat="9.99858" lon="-84.11239">
        <ele>1162.2</ele>
        <time>2022-05-14 15:01:10</time>
      </trkpt>
      <trkpt lat="9.9986" lon="-84.11239">
        <ele>1162.2</ele>
        <time>2022-05-14 15:01:11</time>
      </trkpt>
      <trkpt lat="9.99862" lon="-84.1124">
        <ele>1162.4</ele>
        <time>2022-05-14 15:01:12</time>
      </trkpt>
      <trkpt lat="9.99862" lon="-84.1124">
        <ele>1162.6</ele>
        <time>2022-05-14 15:01:13</time>
      </trkpt>
      <trkpt lat="9.99864" lon="-84.1124">
        <ele>1162.8</ele>
        <time>2022-05-14 15:01:14</time>
      </trkpt>
      <trkpt lat="9.99866" lon="-84.1124">
        <ele>1163</ele>
        <time>2022-05-14 15:01:15</time>
      </trkpt>
      <trkpt lat="9.99869" lon="-84.1124">
        <ele>1163.2</ele>
        <time>2022-05-14 15:01:16</time>
      </trkpt>
      <trkpt lat="9.99869" lon="-84.1124">
        <ele>1163.4</ele>
        <time>2022-05-14 15:01:17</time>
      </trkpt>
      <trkpt lat="9.99876" lon="-84.1124">
        <ele>1163.6</ele>
        <time>2022-05-14 15:01:18</time>
      </trkpt>
      <trkpt lat="9.99879" lon="-84.1124">
        <ele>1163.8</ele>
        <time>2022-05-14 15:01:19</time>
      </trkpt>
      <trkpt lat="9.99881" lon="-84.11241">
        <ele>1164.2</ele>
        <time>2022-05-14 15:01:20</time>
      </trkpt>
      <trkpt lat="9.99883" lon="-84.11241">
        <ele>1164.4</ele>
        <time>2022-05-14 15:01:21</time>
      </trkpt>
      <trkpt lat="9.99886" lon="-84.11241">
        <ele>1164.6</ele>
        <time>2022-05-14 15:01:22</time>
      </trkpt>
      <trkpt lat="9.99888" lon="-84.11241">
        <ele>1164.6</ele>
        <time>2022-05-14 15:01:23</time>
      </trkpt>
      <trkpt lat="9.99888" lon="-84.11241">
        <ele>1164.6</ele>
        <time>2022-05-14 15:01:24</time>
      </trkpt>
      <trkpt lat="9.99891" lon="-84.11241">
        <ele>1164.8</ele>
        <time>2022-05-14 15:01:25</time>
      </trkpt>
      <trkpt lat="9.99894" lon="-84.11241">
        <ele>1165</ele>
        <time>2022-05-14 15:01:26</time>
      </trkpt>
      <trkpt lat="9.99896" lon="-84.11241">
        <ele>1165.2</ele>
        <time>2022-05-14 15:01:27</time>
      </trkpt>
      <trkpt lat="9.99896" lon="-84.11241">
        <ele>1165.4</ele>
        <time>2022-05-14 15:01:28</time>
      </trkpt>
      <trkpt lat="9.99905" lon="-84.11241">
        <ele>1165.6</ele>
        <time>2022-05-14 15:01:29</time>
      </trkpt>
      <trkpt lat="9.99907" lon="-84.11241">
        <ele>1165.8</ele>
        <time>2022-05-14 15:01:30</time>
      </trkpt>
      <trkpt lat="9.99911" lon="-84.11241">
        <ele>1166</ele>
        <time>2022-05-14 15:01:31</time>
      </trkpt>
      <trkpt lat="9.99914" lon="-84.11241">
        <ele>1166.2</ele>
        <time>2022-05-14 15:01:32</time>
      </trkpt>
      <trkpt lat="9.99917" lon="-84.11241">
        <ele>1166.4</ele>
        <time>2022-05-14 15:01:33</time>
      </trkpt>
      <trkpt lat="9.99917" lon="-84.11241">
        <ele>1166.8</ele>
        <time>2022-05-14 15:01:34</time>
      </trkpt>
      <trkpt lat="9.99921" lon="-84.11241">
        <ele>1167</ele>
        <time>2022-05-14 15:01:35</time>
      </trkpt>
      <trkpt lat="9.99924" lon="-84.1124">
        <ele>1167.2</ele>
        <time>2022-05-14 15:01:36</time>
      </trkpt>
      <trkpt lat="9.99928" lon="-84.11241">
        <ele>1167.2</ele>
        <time>2022-05-14 15:01:37</time>
      </trkpt>
      <trkpt lat="9.99935" lon="-84.11241">
        <ele>1167.4</ele>
        <time>2022-05-14 15:01:38</time>
      </trkpt>
      <trkpt lat="9.99939" lon="-84.11241">
        <ele>1167.6</ele>
        <time>2022-05-14 15:01:39</time>
      </trkpt>
      <trkpt lat="9.99943" lon="-84.1124">
        <ele>1167.8</ele>
        <time>2022-05-14 15:01:40</time>
      </trkpt>
      <trkpt lat="9.99947" lon="-84.1124">
        <ele>1168</ele>
        <time>2022-05-14 15:01:41</time>
      </trkpt>
      <trkpt lat="9.99951" lon="-84.1124">
        <ele>1168.2</ele>
        <time>2022-05-14 15:01:42</time>
      </trkpt>
      <trkpt lat="9.99955" lon="-84.11239">
        <ele>1168.4</ele>
        <time>2022-05-14 15:01:43</time>
      </trkpt>
      <trkpt lat="9.99959" lon="-84.11238">
        <ele>1168.6</ele>
        <time>2022-05-14 15:01:44</time>
      </trkpt>
      <trkpt lat="9.99959" lon="-84.11238">
        <ele>1168.6</ele>
        <time>2022-05-14 15:01:45</time>
      </trkpt>
      <trkpt lat="9.99963" lon="-84.11238">
        <ele>1168.8</ele>
        <time>2022-05-14 15:01:46</time>
      </trkpt>
      <trkpt lat="9.99967" lon="-84.11238">
        <ele>1169</ele>
        <time>2022-05-14 15:01:47</time>
      </trkpt>
      <trkpt lat="9.9997" lon="-84.11239">
        <ele>1169.2</ele>
        <time>2022-05-14 15:01:48</time>
      </trkpt>
      <trkpt lat="9.99978" lon="-84.1124">
        <ele>1169.2</ele>
        <time>2022-05-14 15:01:49</time>
      </trkpt>
      <trkpt lat="9.99982" lon="-84.1124">
        <ele>1169.4</ele>
        <time>2022-05-14 15:01:50</time>
      </trkpt>
      <trkpt lat="9.99986" lon="-84.11241">
        <ele>1169.6</ele>
        <time>2022-05-14 15:01:51</time>
      </trkpt>
      <trkpt lat="9.9999" lon="-84.11241">
        <ele>1169.8</ele>
        <time>2022-05-14 15:01:52</time>
      </trkpt>
      <trkpt lat="9.99994" lon="-84.11241">
        <ele>1170</ele>
        <time>2022-05-14 15:01:53</time>
      </trkpt>
      <trkpt lat="9.99998" lon="-84.11241">
        <ele>1170.2</ele>
        <time>2022-05-14 15:01:54</time>
      </trkpt>
      <trkpt lat="9.99998" lon="-84.11241">
        <ele>1170.4</ele>
        <time>2022-05-14 15:01:55</time>
      </trkpt>
      <trkpt lat="10.00002" lon="-84.1124">
        <ele>1170.8</ele>
        <time>2022-05-14 15:01:56</time>
      </trkpt>
      <trkpt lat="10.00006" lon="-84.1124">
        <ele>1171</ele>
        <time>2022-05-14 15:01:57</time>
      </trkpt>
      <trkpt lat="10.00006" lon="-84.1124">
        <ele>1171.2</ele>
        <time>2022-05-14 15:01:58</time>
      </trkpt>
      <trkpt lat="10.00018" lon="-84.11241">
        <ele>1171.4</ele>
        <time>2022-05-14 15:01:59</time>
      </trkpt>
      <trkpt lat="10.00022" lon="-84.11241">
        <ele>1171.6</ele>
        <time>2022-05-14 15:02:00</time>
      </trkpt>
      <trkpt lat="10.00026" lon="-84.11241">
        <ele>1171.6</ele>
        <time>2022-05-14 15:02:01</time>
      </trkpt>
      <trkpt lat="10.0003" lon="-84.11241">
        <ele>1172</ele>
        <time>2022-05-14 15:02:02</time>
      </trkpt>
      <trkpt lat="10.00034" lon="-84.11241">
        <ele>1172</ele>
        <time>2022-05-14 15:02:03</time>
      </trkpt>
      <trkpt lat="10.00038" lon="-84.11241">
        <ele>1172.2</ele>
        <time>2022-05-14 15:02:04</time>
      </trkpt>
      <trkpt lat="10.00042" lon="-84.11241">
        <ele>1172.2</ele>
        <time>2022-05-14 15:02:05</time>
      </trkpt>
      <trkpt lat="10.00042" lon="-84.11241">
        <ele>1172.2</ele>
        <time>2022-05-14 15:02:06</time>
      </trkpt>
      <trkpt lat="10.00046" lon="-84.11241">
        <ele>1172.4</ele>
        <time>2022-05-14 15:02:07</time>
      </trkpt>
      <trkpt lat="10.0005" lon="-84.11241">
        <ele>1172.6</ele>
        <time>2022-05-14 15:02:08</time>
      </trkpt>
      <trkpt lat="10.0005" lon="-84.11241">
        <ele>1172.8</ele>
        <time>2022-05-14 15:02:09</time>
      </trkpt>
      <trkpt lat="10.00063" lon="-84.1124">
        <ele>1173.2</ele>
        <time>2022-05-14 15:02:10</time>
      </trkpt>
      <trkpt lat="10.00067" lon="-84.1124">
        <ele>1173.6</ele>
        <time>2022-05-14 15:02:11</time>
      </trkpt>
      <trkpt lat="10.00071" lon="-84.1124">
        <ele>1174</ele>
        <time>2022-05-14 15:02:12</time>
      </trkpt>
      <trkpt lat="10.00075" lon="-84.1124">
        <ele>1174</ele>
        <time>2022-05-14 15:02:13</time>
      </trkpt>
      <trkpt lat="10.00079" lon="-84.1124">
        <ele>1174.2</ele>
        <time>2022-05-14 15:02:14</time>
      </trkpt>
      <trkpt lat="10.00082" lon="-84.1124">
        <ele>1174.4</ele>
        <time>2022-05-14 15:02:15</time>
      </trkpt>
      <trkpt lat="10.00082" lon="-84.1124">
        <ele>1174.6</ele>
        <time>2022-05-14 15:02:16</time>
      </trkpt>
      <trkpt lat="10.00086" lon="-84.11239">
        <ele>1174.8</ele>
        <time>2022-05-14 15:02:17</time>
      </trkpt>
      <trkpt lat="10.0009" lon="-84.11239">
        <ele>1175.2</ele>
        <time>2022-05-14 15:02:18</time>
      </trkpt>
      <trkpt lat="10.0009" lon="-84.11239">
        <ele>1175.4</ele>
        <time>2022-05-14 15:02:19</time>
      </trkpt>
      <trkpt lat="10.00101" lon="-84.11238">
        <ele>1175.6</ele>
        <time>2022-05-14 15:02:20</time>
      </trkpt>
      <trkpt lat="10.00105" lon="-84.11238">
        <ele>1175.8</ele>
        <time>2022-05-14 15:02:21</time>
      </trkpt>
      <trkpt lat="10.00109" lon="-84.11239">
        <ele>1176.2</ele>
        <time>2022-05-14 15:02:22</time>
      </trkpt>
      <trkpt lat="10.00113" lon="-84.11239">
        <ele>1176.4</ele>
        <time>2022-05-14 15:02:23</time>
      </trkpt>
      <trkpt lat="10.00117" lon="-84.11239">
        <ele>1176.6</ele>
        <time>2022-05-14 15:02:24</time>
      </trkpt>
      <trkpt lat="10.00121" lon="-84.11239">
        <ele>1176.6</ele>
        <time>2022-05-14 15:02:25</time>
      </trkpt>
      <trkpt lat="10.00125" lon="-84.11239">
        <ele>1176.6</ele>
        <time>2022-05-14 15:02:26</time>
      </trkpt>
      <trkpt lat="10.00125" lon="-84.11239">
        <ele>1176.6</ele>
        <time>2022-05-14 15:02:27</time>
      </trkpt>
      <trkpt lat="10.00129" lon="-84.11239">
        <ele>1176.6</ele>
        <time>2022-05-14 15:02:28</time>
      </trkpt>
      <trkpt lat="10.00133" lon="-84.1124">
        <ele>1176.8</ele>
        <time>2022-05-14 15:02:29</time>
      </trkpt>
      <trkpt lat="10.00141" lon="-84.11239">
        <ele>1177</ele>
        <time>2022-05-14 15:02:30</time>
      </trkpt>
      <trkpt lat="10.00145" lon="-84.11239">
        <ele>1177.4</ele>
        <time>2022-05-14 15:02:31</time>
      </trkpt>
      <trkpt lat="10.00149" lon="-84.11239">
        <ele>1177.6</ele>
        <time>2022-05-14 15:02:32</time>
      </trkpt>
      <trkpt lat="10.00153" lon="-84.11239">
        <ele>1177.8</ele>
        <time>2022-05-14 15:02:33</time>
      </trkpt>
      <trkpt lat="10.00158" lon="-84.1124">
        <ele>1178</ele>
        <time>2022-05-14 15:02:34</time>
      </trkpt>
      <trkpt lat="10.00162" lon="-84.1124">
        <ele>1178.2</ele>
        <time>2022-05-14 15:02:35</time>
      </trkpt>
      <trkpt lat="10.00166" lon="-84.1124">
        <ele>1178.4</ele>
        <time>2022-05-14 15:02:36</time>
      </trkpt>
      <trkpt lat="10.00166" lon="-84.1124">
        <ele>1178.6</ele>
        <time>2022-05-14 15:02:37</time>
      </trkpt>
      <trkpt lat="10.0017" lon="-84.1124">
        <ele>1178.6</ele>
        <time>2022-05-14 15:02:38</time>
      </trkpt>
      <trkpt lat="10.00174" lon="-84.1124">
        <ele>1178.8</ele>
        <time>2022-05-14 15:02:39</time>
      </trkpt>
      <trkpt lat="10.00183" lon="-84.1124">
        <ele>1178.8</ele>
        <time>2022-05-14 15:02:40</time>
      </trkpt>
      <trkpt lat="10.00188" lon="-84.1124">
        <ele>1178.8</ele>
        <time>2022-05-14 15:02:41</time>
      </trkpt>
      <trkpt lat="10.00192" lon="-84.1124">
        <ele>1178.8</ele>
        <time>2022-05-14 15:02:42</time>
      </trkpt>
      <trkpt lat="10.00197" lon="-84.1124">
        <ele>1179</ele>
        <time>2022-05-14 15:02:43</time>
      </trkpt>
      <trkpt lat="10.00202" lon="-84.1124">
        <ele>1179</ele>
        <time>2022-05-14 15:02:44</time>
      </trkpt>
      <trkpt lat="10.00206" lon="-84.1124">
        <ele>1179</ele>
        <time>2022-05-14 15:02:45</time>
      </trkpt>
      <trkpt lat="10.00211" lon="-84.1124">
        <ele>1179.2</ele>
        <time>2022-05-14 15:02:46</time>
      </trkpt>
      <trkpt lat="10.00217" lon="-84.11241">
        <ele>1179.2</ele>
        <time>2022-05-14 15:02:47</time>
      </trkpt>
      <trkpt lat="10.00217" lon="-84.11241">
        <ele>1179.2</ele>
        <time>2022-05-14 15:02:48</time>
      </trkpt>
      <trkpt lat="10.00222" lon="-84.11241">
        <ele>1179</ele>
        <time>2022-05-14 15:02:49</time>
      </trkpt>
      <trkpt lat="10.00222" lon="-84.11241">
        <ele>1179</ele>
        <time>2022-05-14 15:02:50</time>
      </trkpt>
      <trkpt lat="10.00237" lon="-84.11241">
        <ele>1179</ele>
        <time>2022-05-14 15:02:51</time>
      </trkpt>
      <trkpt lat="10.00243" lon="-84.11241">
        <ele>1179</ele>
        <time>2022-05-14 15:02:52</time>
      </trkpt>
      <trkpt lat="10.00248" lon="-84.11241">
        <ele>1179.2</ele>
        <time>2022-05-14 15:02:53</time>
      </trkpt>
      <trkpt lat="10.00253" lon="-84.11241">
        <ele>1179.2</ele>
        <time>2022-05-14 15:02:54</time>
      </trkpt>
      <trkpt lat="10.00258" lon="-84.11241">
        <ele>1179.4</ele>
        <time>2022-05-14 15:02:55</time>
      </trkpt>
      <trkpt lat="10.00263" lon="-84.11241">
        <ele>1179.6</ele>
        <time>2022-05-14 15:02:56</time>
      </trkpt>
      <trkpt lat="10.00268" lon="-84.11241">
        <ele>1179.6</ele>
        <time>2022-05-14 15:02:57</time>
      </trkpt>
      <trkpt lat="10.00268" lon="-84.11241">
        <ele>1179.8</ele>
        <time>2022-05-14 15:02:58</time>
      </trkpt>
      <trkpt lat="10.00274" lon="-84.11241">
        <ele>1180</ele>
        <time>2022-05-14 15:02:59</time>
      </trkpt>
      <trkpt lat="10.00274" lon="-84.11241">
        <ele>1180.2</ele>
        <time>2022-05-14 15:03:00</time>
      </trkpt>
      <trkpt lat="10.00288" lon="-84.11241">
        <ele>1180.4</ele>
        <time>2022-05-14 15:03:01</time>
      </trkpt>
      <trkpt lat="10.00294" lon="-84.11241">
        <ele>1180.6</ele>
        <time>2022-05-14 15:03:02</time>
      </trkpt>
      <trkpt lat="10.00298" lon="-84.11241">
        <ele>1180.8</ele>
        <time>2022-05-14 15:03:03</time>
      </trkpt>
      <trkpt lat="10.00303" lon="-84.11241">
        <ele>1181</ele>
        <time>2022-05-14 15:03:04</time>
      </trkpt>
      <trkpt lat="10.00308" lon="-84.11241">
        <ele>1181.4</ele>
        <time>2022-05-14 15:03:05</time>
      </trkpt>
      <trkpt lat="10.00313" lon="-84.11241">
        <ele>1181.4</ele>
        <time>2022-05-14 15:03:06</time>
      </trkpt>
      <trkpt lat="10.00318" lon="-84.11241">
        <ele>1181.6</ele>
        <time>2022-05-14 15:03:07</time>
      </trkpt>
      <trkpt lat="10.00322" lon="-84.11241">
        <ele>1181.8</ele>
        <time>2022-05-14 15:03:08</time>
      </trkpt>
      <trkpt lat="10.00322" lon="-84.11241">
        <ele>1181.8</ele>
        <time>2022-05-14 15:03:09</time>
      </trkpt>
      <trkpt lat="10.00327" lon="-84.11241">
        <ele>1182</ele>
        <time>2022-05-14 15:03:10</time>
      </trkpt>
      <trkpt lat="10.00327" lon="-84.11241">
        <ele>1182</ele>
        <time>2022-05-14 15:03:11</time>
      </trkpt>
      <trkpt lat="10.00341" lon="-84.11241">
        <ele>1182</ele>
        <time>2022-05-14 15:03:12</time>
      </trkpt>
      <trkpt lat="10.00346" lon="-84.11241">
        <ele>1182.6</ele>
        <time>2022-05-14 15:03:13</time>
      </trkpt>
      <trkpt lat="10.0035" lon="-84.11241">
        <ele>1183</ele>
        <time>2022-05-14 15:03:14</time>
      </trkpt>
      <trkpt lat="10.00355" lon="-84.11241">
        <ele>1183.2</ele>
        <time>2022-05-14 15:03:15</time>
      </trkpt>
      <trkpt lat="10.00359" lon="-84.11241">
        <ele>1183.2</ele>
        <time>2022-05-14 15:03:16</time>
      </trkpt>
      <trkpt lat="10.00364" lon="-84.11241">
        <ele>1183.2</ele>
        <time>2022-05-14 15:03:17</time>
      </trkpt>
      <trkpt lat="10.00368" lon="-84.11242">
        <ele>1183.4</ele>
        <time>2022-05-14 15:03:18</time>
      </trkpt>
      <trkpt lat="10.00368" lon="-84.11242">
        <ele>1183.8</ele>
        <time>2022-05-14 15:03:19</time>
      </trkpt>
      <trkpt lat="10.00373" lon="-84.11243">
        <ele>1184</ele>
        <time>2022-05-14 15:03:20</time>
      </trkpt>
      <trkpt lat="10.00382" lon="-84.11244">
        <ele>1184.2</ele>
        <time>2022-05-14 15:03:21</time>
      </trkpt>
      <trkpt lat="10.00387" lon="-84.11245">
        <ele>1184.2</ele>
        <time>2022-05-14 15:03:22</time>
      </trkpt>
      <trkpt lat="10.00391" lon="-84.11247">
        <ele>1184.4</ele>
        <time>2022-05-14 15:03:23</time>
      </trkpt>
      <trkpt lat="10.00396" lon="-84.11247">
        <ele>1184.6</ele>
        <time>2022-05-14 15:03:24</time>
      </trkpt>
      <trkpt lat="10.004" lon="-84.11247">
        <ele>1185</ele>
        <time>2022-05-14 15:03:25</time>
      </trkpt>
      <trkpt lat="10.00404" lon="-84.11247">
        <ele>1185</ele>
        <time>2022-05-14 15:03:26</time>
      </trkpt>
      <trkpt lat="10.00409" lon="-84.11248">
        <ele>1185.2</ele>
        <time>2022-05-14 15:03:27</time>
      </trkpt>
      <trkpt lat="10.00412" lon="-84.11248">
        <ele>1185.4</ele>
        <time>2022-05-14 15:03:28</time>
      </trkpt>
      <trkpt lat="10.00416" lon="-84.11249">
        <ele>1185.6</ele>
        <time>2022-05-14 15:03:29</time>
      </trkpt>
      <trkpt lat="10.00416" lon="-84.11249">
        <ele>1185.6</ele>
        <time>2022-05-14 15:03:30</time>
      </trkpt>
      <trkpt lat="10.0042" lon="-84.11249">
        <ele>1185.8</ele>
        <time>2022-05-14 15:03:31</time>
      </trkpt>
      <trkpt lat="10.00426" lon="-84.11252">
        <ele>1186</ele>
        <time>2022-05-14 15:03:32</time>
      </trkpt>
      <trkpt lat="10.00428" lon="-84.11255">
        <ele>1186.2</ele>
        <time>2022-05-14 15:03:33</time>
      </trkpt>
      <trkpt lat="10.0043" lon="-84.11258">
        <ele>1186.2</ele>
        <time>2022-05-14 15:03:34</time>
      </trkpt>
      <trkpt lat="10.00432" lon="-84.11261">
        <ele>1186.4</ele>
        <time>2022-05-14 15:03:35</time>
      </trkpt>
      <trkpt lat="10.00432" lon="-84.11265">
        <ele>1186.4</ele>
        <time>2022-05-14 15:03:36</time>
      </trkpt>
      <trkpt lat="10.00433" lon="-84.1127">
        <ele>1186.4</ele>
        <time>2022-05-14 15:03:37</time>
      </trkpt>
      <trkpt lat="10.00434" lon="-84.11274">
        <ele>1186.6</ele>
        <time>2022-05-14 15:03:38</time>
      </trkpt>
      <trkpt lat="10.00435" lon="-84.11279">
        <ele>1186.6</ele>
        <time>2022-05-14 15:03:39</time>
      </trkpt>
      <trkpt lat="10.00435" lon="-84.11279">
        <ele>1186.8</ele>
        <time>2022-05-14 15:03:40</time>
      </trkpt>
      <trkpt lat="10.00435" lon="-84.11279">
        <ele>1186.8</ele>
        <time>2022-05-14 15:03:41</time>
      </trkpt>
      <trkpt lat="10.00436" lon="-84.11292">
        <ele>1186.8</ele>
        <time>2022-05-14 15:03:42</time>
      </trkpt>
      <trkpt lat="10.00437" lon="-84.11296">
        <ele>1186.8</ele>
        <time>2022-05-14 15:03:43</time>
      </trkpt>
      <trkpt lat="10.00438" lon="-84.11301">
        <ele>1186.8</ele>
        <time>2022-05-14 15:03:44</time>
      </trkpt>
      <trkpt lat="10.00438" lon="-84.11305">
        <ele>1186.8</ele>
        <time>2022-05-14 15:03:45</time>
      </trkpt>
      <trkpt lat="10.00439" lon="-84.1131">
        <ele>1186.6</ele>
        <time>2022-05-14 15:03:46</time>
      </trkpt>
      <trkpt lat="10.00439" lon="-84.11315">
        <ele>1186.4</ele>
        <time>2022-05-14 15:03:47</time>
      </trkpt>
      <trkpt lat="10.0044" lon="-84.11321">
        <ele>1186.4</ele>
        <time>2022-05-14 15:03:48</time>
      </trkpt>
      <trkpt lat="10.0044" lon="-84.11326">
        <ele>1186.2</ele>
        <time>2022-05-14 15:03:49</time>
      </trkpt>
      <trkpt lat="10.00441" lon="-84.11331">
        <ele>1186.2</ele>
        <time>2022-05-14 15:03:50</time>
      </trkpt>
      <trkpt lat="10.00441" lon="-84.11331">
        <ele>1186.2</ele>
        <time>2022-05-14 15:03:51</time>
      </trkpt>
      <trkpt lat="10.00441" lon="-84.11331">
        <ele>1186</ele>
        <time>2022-05-14 15:03:52</time>
      </trkpt>
      <trkpt lat="10.00443" lon="-84.11347">
        <ele>1186</ele>
        <time>2022-05-14 15:03:53</time>
      </trkpt>
      <trkpt lat="10.00443" lon="-84.11353">
        <ele>1186</ele>
        <time>2022-05-14 15:03:54</time>
      </trkpt>
      <trkpt lat="10.00444" lon="-84.11358">
        <ele>1186</ele>
        <time>2022-05-14 15:03:55</time>
      </trkpt>
      <trkpt lat="10.00445" lon="-84.11363">
        <ele>1186</ele>
        <time>2022-05-14 15:03:56</time>
      </trkpt>
      <trkpt lat="10.00445" lon="-84.11368">
        <ele>1185.8</ele>
        <time>2022-05-14 15:03:57</time>
      </trkpt>
      <trkpt lat="10.00446" lon="-84.11374">
        <ele>1185.8</ele>
        <time>2022-05-14 15:03:58</time>
      </trkpt>
      <trkpt lat="10.00447" lon="-84.11379">
        <ele>1185.4</ele>
        <time>2022-05-14 15:03:59</time>
      </trkpt>
      <trkpt lat="10.00448" lon="-84.11384">
        <ele>1185.6</ele>
        <time>2022-05-14 15:04:00</time>
      </trkpt>
      <trkpt lat="10.00448" lon="-84.11384">
        <ele>1185.6</ele>
        <time>2022-05-14 15:04:01</time>
      </trkpt>
      <trkpt lat="10.00448" lon="-84.11384">
        <ele>1186</ele>
        <time>2022-05-14 15:04:02</time>
      </trkpt>
      <trkpt lat="10.0045" lon="-84.114">
        <ele>1186</ele>
        <time>2022-05-14 15:04:03</time>
      </trkpt>
      <trkpt lat="10.0045" lon="-84.11405">
        <ele>1186</ele>
        <time>2022-05-14 15:04:04</time>
      </trkpt>
      <trkpt lat="10.00451" lon="-84.11411">
        <ele>1185.8</ele>
        <time>2022-05-14 15:04:05</time>
      </trkpt>
      <trkpt lat="10.00451" lon="-84.11416">
        <ele>1185.8</ele>
        <time>2022-05-14 15:04:06</time>
      </trkpt>
      <trkpt lat="10.00452" lon="-84.11421">
        <ele>1185.8</ele>
        <time>2022-05-14 15:04:07</time>
      </trkpt>
      <trkpt lat="10.00452" lon="-84.11427">
        <ele>1185.6</ele>
        <time>2022-05-14 15:04:08</time>
      </trkpt>
      <trkpt lat="10.00454" lon="-84.11432">
        <ele>1185.4</ele>
        <time>2022-05-14 15:04:09</time>
      </trkpt>
      <trkpt lat="10.00454" lon="-84.11438">
        <ele>1185.2</ele>
        <time>2022-05-14 15:04:10</time>
      </trkpt>
      <trkpt lat="10.00455" lon="-84.11444">
        <ele>1185</ele>
        <time>2022-05-14 15:04:11</time>
      </trkpt>
      <trkpt lat="10.00455" lon="-84.11444">
        <ele>1185</ele>
        <time>2022-05-14 15:04:12</time>
      </trkpt>
      <trkpt lat="10.00456" lon="-84.11457">
        <ele>1184.8</ele>
        <time>2022-05-14 15:04:13</time>
      </trkpt>
      <trkpt lat="10.00457" lon="-84.11463">
        <ele>1184.8</ele>
        <time>2022-05-14 15:04:14</time>
      </trkpt>
      <trkpt lat="10.00457" lon="-84.1147">
        <ele>1184.6</ele>
        <time>2022-05-14 15:04:15</time>
      </trkpt>
      <trkpt lat="10.00458" lon="-84.11476">
        <ele>1184.4</ele>
        <time>2022-05-14 15:04:16</time>
      </trkpt>
      <trkpt lat="10.00459" lon="-84.11482">
        <ele>1184.2</ele>
        <time>2022-05-14 15:04:17</time>
      </trkpt>
      <trkpt lat="10.00459" lon="-84.11489">
        <ele>1184.2</ele>
        <time>2022-05-14 15:04:18</time>
      </trkpt>
      <trkpt lat="10.0046" lon="-84.11495">
        <ele>1184</ele>
        <time>2022-05-14 15:04:19</time>
      </trkpt>
      <trkpt lat="10.00461" lon="-84.11502">
        <ele>1184</ele>
        <time>2022-05-14 15:04:20</time>
      </trkpt>
      <trkpt lat="10.00462" lon="-84.11508">
        <ele>1184.2</ele>
        <time>2022-05-14 15:04:21</time>
      </trkpt>
      <trkpt lat="10.00462" lon="-84.11508">
        <ele>1184.2</ele>
        <time>2022-05-14 15:04:22</time>
      </trkpt>
      <trkpt lat="10.00463" lon="-84.11521">
        <ele>1184.2</ele>
        <time>2022-05-14 15:04:23</time>
      </trkpt>
      <trkpt lat="10.00463" lon="-84.11527">
        <ele>1184</ele>
        <time>2022-05-14 15:04:24</time>
      </trkpt>
      <trkpt lat="10.00464" lon="-84.11534">
        <ele>1184.2</ele>
        <time>2022-05-14 15:04:25</time>
      </trkpt>
      <trkpt lat="10.00464" lon="-84.1154">
        <ele>1184.2</ele>
        <time>2022-05-14 15:04:26</time>
      </trkpt>
      <trkpt lat="10.00465" lon="-84.11546">
        <ele>1184.2</ele>
        <time>2022-05-14 15:04:27</time>
      </trkpt>
      <trkpt lat="10.00465" lon="-84.11552">
        <ele>1184.2</ele>
        <time>2022-05-14 15:04:28</time>
      </trkpt>
      <trkpt lat="10.00466" lon="-84.11559">
        <ele>1184.2</ele>
        <time>2022-05-14 15:04:29</time>
      </trkpt>
      <trkpt lat="10.00466" lon="-84.11565">
        <ele>1184.2</ele>
        <time>2022-05-14 15:04:30</time>
      </trkpt>
      <trkpt lat="10.00467" lon="-84.11571">
        <ele>1184.2</ele>
        <time>2022-05-14 15:04:31</time>
      </trkpt>
      <trkpt lat="10.00467" lon="-84.11577">
        <ele>1184</ele>
        <time>2022-05-14 15:04:32</time>
      </trkpt>
      <trkpt lat="10.00467" lon="-84.11577">
        <ele>1184</ele>
        <time>2022-05-14 15:04:33</time>
      </trkpt>
      <trkpt lat="10.00468" lon="-84.11589">
        <ele>1184</ele>
        <time>2022-05-14 15:04:34</time>
      </trkpt>
      <trkpt lat="10.00469" lon="-84.11595">
        <ele>1184</ele>
        <time>2022-05-14 15:04:35</time>
      </trkpt>
      <trkpt lat="10.00469" lon="-84.11601">
        <ele>1184</ele>
        <time>2022-05-14 15:04:36</time>
      </trkpt>
      <trkpt lat="10.00469" lon="-84.11608">
        <ele>1183.8</ele>
        <time>2022-05-14 15:04:37</time>
      </trkpt>
      <trkpt lat="10.0047" lon="-84.11614">
        <ele>1183.4</ele>
        <time>2022-05-14 15:04:38</time>
      </trkpt>
      <trkpt lat="10.0047" lon="-84.11621">
        <ele>1183.2</ele>
        <time>2022-05-14 15:04:39</time>
      </trkpt>
      <trkpt lat="10.00471" lon="-84.11628">
        <ele>1182.8</ele>
        <time>2022-05-14 15:04:40</time>
      </trkpt>
      <trkpt lat="10.00471" lon="-84.11635">
        <ele>1182.8</ele>
        <time>2022-05-14 15:04:41</time>
      </trkpt>
      <trkpt lat="10.00471" lon="-84.11635">
        <ele>1182.2</ele>
        <time>2022-05-14 15:04:42</time>
      </trkpt>
      <trkpt lat="10.00471" lon="-84.11635">
        <ele>1181.8</ele>
        <time>2022-05-14 15:04:43</time>
      </trkpt>
      <trkpt lat="10.00473" lon="-84.11654">
        <ele>1181.2</ele>
        <time>2022-05-14 15:04:44</time>
      </trkpt>
      <trkpt lat="10.00474" lon="-84.11659">
        <ele>1180.8</ele>
        <time>2022-05-14 15:04:45</time>
      </trkpt>
      <trkpt lat="10.00474" lon="-84.11664">
        <ele>1180.4</ele>
        <time>2022-05-14 15:04:46</time>
      </trkpt>
      <trkpt lat="10.00475" lon="-84.1167">
        <ele>1180</ele>
        <time>2022-05-14 15:04:47</time>
      </trkpt>
      <trkpt lat="10.00475" lon="-84.11674">
        <ele>1179.8</ele>
        <time>2022-05-14 15:04:48</time>
      </trkpt>
      <trkpt lat="10.00478" lon="-84.11677">
        <ele>1179.6</ele>
        <time>2022-05-14 15:04:49</time>
      </trkpt>
      <trkpt lat="10.00483" lon="-84.11678">
        <ele>1179.6</ele>
        <time>2022-05-14 15:04:50</time>
      </trkpt>
      <trkpt lat="10.00487" lon="-84.11679">
        <ele>1179.8</ele>
        <time>2022-05-14 15:04:51</time>
      </trkpt>
      <trkpt lat="10.00491" lon="-84.1168">
        <ele>1179.8</ele>
        <time>2022-05-14 15:04:52</time>
      </trkpt>
      <trkpt lat="10.00491" lon="-84.1168">
        <ele>1180</ele>
        <time>2022-05-14 15:04:53</time>
      </trkpt>
      <trkpt lat="10.00491" lon="-84.1168">
        <ele>1180</ele>
        <time>2022-05-14 15:04:54</time>
      </trkpt>
      <trkpt lat="10.00504" lon="-84.11679">
        <ele>1180.2</ele>
        <time>2022-05-14 15:04:55</time>
      </trkpt>
      <trkpt lat="10.00508" lon="-84.11679">
        <ele>1180.2</ele>
        <time>2022-05-14 15:04:56</time>
      </trkpt>
      <trkpt lat="10.00512" lon="-84.1168">
        <ele>1180.4</ele>
        <time>2022-05-14 15:04:57</time>
      </trkpt>
      <trkpt lat="10.00516" lon="-84.11681">
        <ele>1180.6</ele>
        <time>2022-05-14 15:04:58</time>
      </trkpt>
      <trkpt lat="10.0052" lon="-84.11682">
        <ele>1180.8</ele>
        <time>2022-05-14 15:04:59</time>
      </trkpt>
      <trkpt lat="10.00525" lon="-84.11682">
        <ele>1181</ele>
        <time>2022-05-14 15:05:00</time>
      </trkpt>
      <trkpt lat="10.00529" lon="-84.11682">
        <ele>1181.2</ele>
        <time>2022-05-14 15:05:01</time>
      </trkpt>
      <trkpt lat="10.00534" lon="-84.11682">
        <ele>1181.4</ele>
        <time>2022-05-14 15:05:02</time>
      </trkpt>
      <trkpt lat="10.00534" lon="-84.11682">
        <ele>1181.4</ele>
        <time>2022-05-14 15:05:03</time>
      </trkpt>
      <trkpt lat="10.00543" lon="-84.11682">
        <ele>1181.8</ele>
        <time>2022-05-14 15:05:04</time>
      </trkpt>
      <trkpt lat="10.00547" lon="-84.11682">
        <ele>1182.2</ele>
        <time>2022-05-14 15:05:05</time>
      </trkpt>
      <trkpt lat="10.00551" lon="-84.11682">
        <ele>1182.6</ele>
        <time>2022-05-14 15:05:06</time>
      </trkpt>
      <trkpt lat="10.00556" lon="-84.11682">
        <ele>1182.8</ele>
        <time>2022-05-14 15:05:07</time>
      </trkpt>
      <trkpt lat="10.0056" lon="-84.11682">
        <ele>1183.2</ele>
        <time>2022-05-14 15:05:08</time>
      </trkpt>
      <trkpt lat="10.00564" lon="-84.11682">
        <ele>1183.4</ele>
        <time>2022-05-14 15:05:09</time>
      </trkpt>
      <trkpt lat="10.00569" lon="-84.11682">
        <ele>1183.8</ele>
        <time>2022-05-14 15:05:10</time>
      </trkpt>
      <trkpt lat="10.00573" lon="-84.11682">
        <ele>1184.2</ele>
        <time>2022-05-14 15:05:11</time>
      </trkpt>
      <trkpt lat="10.00577" lon="-84.11683">
        <ele>1184.6</ele>
        <time>2022-05-14 15:05:12</time>
      </trkpt>
      <trkpt lat="10.00581" lon="-84.11683">
        <ele>1185</ele>
        <time>2022-05-14 15:05:13</time>
      </trkpt>
      <trkpt lat="10.00581" lon="-84.11683">
        <ele>1185.2</ele>
        <time>2022-05-14 15:05:14</time>
      </trkpt>
      <trkpt lat="10.0059" lon="-84.11684">
        <ele>1185.2</ele>
        <time>2022-05-14 15:05:15</time>
      </trkpt>
      <trkpt lat="10.00594" lon="-84.11685">
        <ele>1185.4</ele>
        <time>2022-05-14 15:05:16</time>
      </trkpt>
      <trkpt lat="10.00598" lon="-84.11686">
        <ele>1185.8</ele>
        <time>2022-05-14 15:05:17</time>
      </trkpt>
      <trkpt lat="10.00602" lon="-84.11687">
        <ele>1186</ele>
        <time>2022-05-14 15:05:18</time>
      </trkpt>
      <trkpt lat="10.00606" lon="-84.11688">
        <ele>1186.4</ele>
        <time>2022-05-14 15:05:19</time>
      </trkpt>
      <trkpt lat="10.0061" lon="-84.1169">
        <ele>1186.4</ele>
        <time>2022-05-14 15:05:20</time>
      </trkpt>
      <trkpt lat="10.00614" lon="-84.11692">
        <ele>1186.8</ele>
        <time>2022-05-14 15:05:21</time>
      </trkpt>
      <trkpt lat="10.00618" lon="-84.11693">
        <ele>1187</ele>
        <time>2022-05-14 15:05:22</time>
      </trkpt>
      <trkpt lat="10.00621" lon="-84.11695">
        <ele>1187.2</ele>
        <time>2022-05-14 15:05:23</time>
      </trkpt>
      <trkpt lat="10.00621" lon="-84.11695">
        <ele>1187.4</ele>
        <time>2022-05-14 15:05:24</time>
      </trkpt>
      <trkpt lat="10.0063" lon="-84.11698">
        <ele>1187.6</ele>
        <time>2022-05-14 15:05:25</time>
      </trkpt>
      <trkpt lat="10.00634" lon="-84.117">
        <ele>1187.8</ele>
        <time>2022-05-14 15:05:26</time>
      </trkpt>
      <trkpt lat="10.00638" lon="-84.11701">
        <ele>1188</ele>
        <time>2022-05-14 15:05:27</time>
      </trkpt>
      <trkpt lat="10.00642" lon="-84.11703">
        <ele>1188</ele>
        <time>2022-05-14 15:05:28</time>
      </trkpt>
      <trkpt lat="10.00646" lon="-84.11705">
        <ele>1188.2</ele>
        <time>2022-05-14 15:05:29</time>
      </trkpt>
      <trkpt lat="10.0065" lon="-84.11707">
        <ele>1188.2</ele>
        <time>2022-05-14 15:05:30</time>
      </trkpt>
      <trkpt lat="10.00655" lon="-84.11708">
        <ele>1188.4</ele>
        <time>2022-05-14 15:05:31</time>
      </trkpt>
      <trkpt lat="10.00659" lon="-84.11711">
        <ele>1188.6</ele>
        <time>2022-05-14 15:05:32</time>
      </trkpt>
      <trkpt lat="10.00663" lon="-84.11712">
        <ele>1188.6</ele>
        <time>2022-05-14 15:05:33</time>
      </trkpt>
      <trkpt lat="10.00663" lon="-84.11712">
        <ele>1188.4</ele>
        <time>2022-05-14 15:05:34</time>
      </trkpt>
      <trkpt lat="10.00663" lon="-84.11712">
        <ele>1188.2</ele>
        <time>2022-05-14 15:05:35</time>
      </trkpt>
      <trkpt lat="10.00677" lon="-84.11717">
        <ele>1188.2</ele>
        <time>2022-05-14 15:05:36</time>
      </trkpt>
      <trkpt lat="10.00682" lon="-84.11719">
        <ele>1188.2</ele>
        <time>2022-05-14 15:05:37</time>
      </trkpt>
      <trkpt lat="10.00687" lon="-84.11721">
        <ele>1188.2</ele>
        <time>2022-05-14 15:05:38</time>
      </trkpt>
      <trkpt lat="10.00692" lon="-84.11723">
        <ele>1188</ele>
        <time>2022-05-14 15:05:39</time>
      </trkpt>
      <trkpt lat="10.00698" lon="-84.11726">
        <ele>1187.8</ele>
        <time>2022-05-14 15:05:40</time>
      </trkpt>
      <trkpt lat="10.00704" lon="-84.11728">
        <ele>1187.6</ele>
        <time>2022-05-14 15:05:41</time>
      </trkpt>
      <trkpt lat="10.0071" lon="-84.1173">
        <ele>1187.4</ele>
        <time>2022-05-14 15:05:42</time>
      </trkpt>
      <trkpt lat="10.00716" lon="-84.11733">
        <ele>1187.2</ele>
        <time>2022-05-14 15:05:43</time>
      </trkpt>
      <trkpt lat="10.00716" lon="-84.11733">
        <ele>1187</ele>
        <time>2022-05-14 15:05:44</time>
      </trkpt>
      <trkpt lat="10.00716" lon="-84.11733">
        <ele>1186.6</ele>
        <time>2022-05-14 15:05:45</time>
      </trkpt>
      <trkpt lat="10.00737" lon="-84.11742">
        <ele>1186.2</ele>
        <time>2022-05-14 15:05:46</time>
      </trkpt>
      <trkpt lat="10.00745" lon="-84.11745">
        <ele>1185.6</ele>
        <time>2022-05-14 15:05:47</time>
      </trkpt>
      <trkpt lat="10.00753" lon="-84.11748">
        <ele>1185</ele>
        <time>2022-05-14 15:05:48</time>
      </trkpt>
      <trkpt lat="10.00761" lon="-84.11751">
        <ele>1184.6</ele>
        <time>2022-05-14 15:05:49</time>
      </trkpt>
      <trkpt lat="10.00769" lon="-84.11755">
        <ele>1184</ele>
        <time>2022-05-14 15:05:50</time>
      </trkpt>
      <trkpt lat="10.00777" lon="-84.11758">
        <ele>1183.6</ele>
        <time>2022-05-14 15:05:51</time>
      </trkpt>
      <trkpt lat="10.00786" lon="-84.11762">
        <ele>1183</ele>
        <time>2022-05-14 15:05:52</time>
      </trkpt>
      <trkpt lat="10.00794" lon="-84.11766">
        <ele>1182.6</ele>
        <time>2022-05-14 15:05:53</time>
      </trkpt>
      <trkpt lat="10.00803" lon="-84.1177">
        <ele>1182.4</ele>
        <time>2022-05-14 15:05:54</time>
      </trkpt>
      <trkpt lat="10.00803" lon="-84.1177">
        <ele>1182</ele>
        <time>2022-05-14 15:05:55</time>
      </trkpt>
      <trkpt lat="10.0082" lon="-84.11777">
        <ele>1181.8</ele>
        <time>2022-05-14 15:05:56</time>
      </trkpt>
      <trkpt lat="10.00828" lon="-84.1178">
        <ele>1181.8</ele>
        <time>2022-05-14 15:05:57</time>
      </trkpt>
      <trkpt lat="10.00836" lon="-84.11784">
        <ele>1181.4</ele>
        <time>2022-05-14 15:05:58</time>
      </trkpt>
      <trkpt lat="10.00845" lon="-84.11787">
        <ele>1181.2</ele>
        <time>2022-05-14 15:05:59</time>
      </trkpt>
      <trkpt lat="10.00852" lon="-84.1179">
        <ele>1181</ele>
        <time>2022-05-14 15:06:00</time>
      </trkpt>
      <trkpt lat="10.0086" lon="-84.11794">
        <ele>1181.2</ele>
        <time>2022-05-14 15:06:01</time>
      </trkpt>
      <trkpt lat="10.00867" lon="-84.11797">
        <ele>1181.4</ele>
        <time>2022-05-14 15:06:02</time>
      </trkpt>
      <trkpt lat="10.00875" lon="-84.11801">
        <ele>1181.8</ele>
        <time>2022-05-14 15:06:03</time>
      </trkpt>
      <trkpt lat="10.00881" lon="-84.11805">
        <ele>1182.2</ele>
        <time>2022-05-14 15:06:04</time>
      </trkpt>
      <trkpt lat="10.00881" lon="-84.11805">
        <ele>1182.6</ele>
        <time>2022-05-14 15:06:05</time>
      </trkpt>
      <trkpt lat="10.00894" lon="-84.11811">
        <ele>1183</ele>
        <time>2022-05-14 15:06:06</time>
      </trkpt>
      <trkpt lat="10.00899" lon="-84.11814">
        <ele>1183.2</ele>
        <time>2022-05-14 15:06:07</time>
      </trkpt>
      <trkpt lat="10.00905" lon="-84.11816">
        <ele>1183.6</ele>
        <time>2022-05-14 15:06:08</time>
      </trkpt>
      <trkpt lat="10.00911" lon="-84.11819">
        <ele>1183.8</ele>
        <time>2022-05-14 15:06:09</time>
      </trkpt>
      <trkpt lat="10.00916" lon="-84.11823">
        <ele>1184.2</ele>
        <time>2022-05-14 15:06:10</time>
      </trkpt>
      <trkpt lat="10.00922" lon="-84.11825">
        <ele>1184.6</ele>
        <time>2022-05-14 15:06:11</time>
      </trkpt>
      <trkpt lat="10.00927" lon="-84.11827">
        <ele>1185</ele>
        <time>2022-05-14 15:06:12</time>
      </trkpt>
      <trkpt lat="10.00932" lon="-84.11829">
        <ele>1185.6</ele>
        <time>2022-05-14 15:06:13</time>
      </trkpt>
      <trkpt lat="10.00937" lon="-84.11832">
        <ele>1186</ele>
        <time>2022-05-14 15:06:14</time>
      </trkpt>
      <trkpt lat="10.00942" lon="-84.11834">
        <ele>1186.4</ele>
        <time>2022-05-14 15:06:15</time>
      </trkpt>
      <trkpt lat="10.00942" lon="-84.11834">
        <ele>1186.8</ele>
        <time>2022-05-14 15:06:16</time>
      </trkpt>
      <trkpt lat="10.00952" lon="-84.1184">
        <ele>1187.4</ele>
        <time>2022-05-14 15:06:17</time>
      </trkpt>
      <trkpt lat="10.00956" lon="-84.11843">
        <ele>1187.4</ele>
        <time>2022-05-14 15:06:18</time>
      </trkpt>
      <trkpt lat="10.00962" lon="-84.11845">
        <ele>1187.8</ele>
        <time>2022-05-14 15:06:19</time>
      </trkpt>
      <trkpt lat="10.00966" lon="-84.11848">
        <ele>1188.2</ele>
        <time>2022-05-14 15:06:20</time>
      </trkpt>
      <trkpt lat="10.00971" lon="-84.1185">
        <ele>1188.6</ele>
        <time>2022-05-14 15:06:21</time>
      </trkpt>
      <trkpt lat="10.00976" lon="-84.11853">
        <ele>1189</ele>
        <time>2022-05-14 15:06:22</time>
      </trkpt>
      <trkpt lat="10.0098" lon="-84.11855">
        <ele>1189.4</ele>
        <time>2022-05-14 15:06:23</time>
      </trkpt>
      <trkpt lat="10.00984" lon="-84.11859">
        <ele>1189.8</ele>
        <time>2022-05-14 15:06:24</time>
      </trkpt>
      <trkpt lat="10.00984" lon="-84.11859">
        <ele>1190.2</ele>
        <time>2022-05-14 15:06:25</time>
      </trkpt>
      <trkpt lat="10.00984" lon="-84.11859">
        <ele>1190.6</ele>
        <time>2022-05-14 15:06:26</time>
      </trkpt>
      <trkpt lat="10.00998" lon="-84.11865">
        <ele>1190.8</ele>
        <time>2022-05-14 15:06:27</time>
      </trkpt>
      <trkpt lat="10.01002" lon="-84.11867">
        <ele>1191</ele>
        <time>2022-05-14 15:06:28</time>
      </trkpt>
      <trkpt lat="10.01007" lon="-84.11869">
        <ele>1191.2</ele>
        <time>2022-05-14 15:06:29</time>
      </trkpt>
      <trkpt lat="10.01011" lon="-84.11871">
        <ele>1191.6</ele>
        <time>2022-05-14 15:06:30</time>
      </trkpt>
      <trkpt lat="10.01015" lon="-84.11874">
        <ele>1191.8</ele>
        <time>2022-05-14 15:06:31</time>
      </trkpt>
      <trkpt lat="10.0102" lon="-84.11876">
        <ele>1191.8</ele>
        <time>2022-05-14 15:06:32</time>
      </trkpt>
      <trkpt lat="10.01024" lon="-84.11878">
        <ele>1191.8</ele>
        <time>2022-05-14 15:06:33</time>
      </trkpt>
      <trkpt lat="10.01029" lon="-84.11881">
        <ele>1191.6</ele>
        <time>2022-05-14 15:06:34</time>
      </trkpt>
      <trkpt lat="10.01034" lon="-84.11883">
        <ele>1191.6</ele>
        <time>2022-05-14 15:06:35</time>
      </trkpt>
      <trkpt lat="10.01034" lon="-84.11883">
        <ele>1191.2</ele>
        <time>2022-05-14 15:06:36</time>
      </trkpt>
      <trkpt lat="10.01044" lon="-84.11889">
        <ele>1190.8</ele>
        <time>2022-05-14 15:06:37</time>
      </trkpt>
      <trkpt lat="10.0105" lon="-84.11893">
        <ele>1190.4</ele>
        <time>2022-05-14 15:06:38</time>
      </trkpt>
      <trkpt lat="10.01057" lon="-84.11897">
        <ele>1190.4</ele>
        <time>2022-05-14 15:06:39</time>
      </trkpt>
      <trkpt lat="10.01064" lon="-84.119">
        <ele>1190</ele>
        <time>2022-05-14 15:06:40</time>
      </trkpt>
      <trkpt lat="10.01071" lon="-84.11904">
        <ele>1189.4</ele>
        <time>2022-05-14 15:06:41</time>
      </trkpt>
      <trkpt lat="10.01078" lon="-84.11908">
        <ele>1189</ele>
        <time>2022-05-14 15:06:42</time>
      </trkpt>
      <trkpt lat="10.01086" lon="-84.11911">
        <ele>1188.6</ele>
        <time>2022-05-14 15:06:43</time>
      </trkpt>
      <trkpt lat="10.01094" lon="-84.11915">
        <ele>1188</ele>
        <time>2022-05-14 15:06:44</time>
      </trkpt>
      <trkpt lat="10.01102" lon="-84.11918">
        <ele>1187.6</ele>
        <time>2022-05-14 15:06:45</time>
      </trkpt>
      <trkpt lat="10.01102" lon="-84.11918">
        <ele>1187.2</ele>
        <time>2022-05-14 15:06:46</time>
      </trkpt>
      <trkpt lat="10.01119" lon="-84.11923">
        <ele>1187</ele>
        <time>2022-05-14 15:06:47</time>
      </trkpt>
      <trkpt lat="10.01128" lon="-84.11926">
        <ele>1186.6</ele>
        <time>2022-05-14 15:06:48</time>
      </trkpt>
      <trkpt lat="10.01137" lon="-84.11928">
        <ele>1186.4</ele>
        <time>2022-05-14 15:06:49</time>
      </trkpt>
      <trkpt lat="10.01146" lon="-84.11932">
        <ele>1186.2</ele>
        <time>2022-05-14 15:06:50</time>
      </trkpt>
      <trkpt lat="10.01154" lon="-84.11935">
        <ele>1186.2</ele>
        <time>2022-05-14 15:06:51</time>
      </trkpt>
      <trkpt lat="10.01163" lon="-84.11939">
        <ele>1186.2</ele>
        <time>2022-05-14 15:06:52</time>
      </trkpt>
      <trkpt lat="10.01171" lon="-84.11942">
        <ele>1186.2</ele>
        <time>2022-05-14 15:06:53</time>
      </trkpt>
      <trkpt lat="10.01178" lon="-84.11946">
        <ele>1186.4</ele>
        <time>2022-05-14 15:06:54</time>
      </trkpt>
      <trkpt lat="10.01185" lon="-84.11951">
        <ele>1186.4</ele>
        <time>2022-05-14 15:06:55</time>
      </trkpt>
      <trkpt lat="10.01192" lon="-84.11955">
        <ele>1186.4</ele>
        <time>2022-05-14 15:06:56</time>
      </trkpt>
      <trkpt lat="10.01192" lon="-84.11955">
        <ele>1186.2</ele>
        <time>2022-05-14 15:06:57</time>
      </trkpt>
      <trkpt lat="10.01205" lon="-84.11966">
        <ele>1186</ele>
        <time>2022-05-14 15:06:58</time>
      </trkpt>
      <trkpt lat="10.01212" lon="-84.11972">
        <ele>1186</ele>
        <time>2022-05-14 15:06:59</time>
      </trkpt>
      <trkpt lat="10.01219" lon="-84.11977">
        <ele>1186</ele>
        <time>2022-05-14 15:07:00</time>
      </trkpt>
      <trkpt lat="10.01226" lon="-84.11982">
        <ele>1186</ele>
        <time>2022-05-14 15:07:01</time>
      </trkpt>
      <trkpt lat="10.01233" lon="-84.11987">
        <ele>1186</ele>
        <time>2022-05-14 15:07:02</time>
      </trkpt>
      <trkpt lat="10.0124" lon="-84.11992">
        <ele>1185.8</ele>
        <time>2022-05-14 15:07:03</time>
      </trkpt>
      <trkpt lat="10.01247" lon="-84.11997">
        <ele>1185.8</ele>
        <time>2022-05-14 15:07:04</time>
      </trkpt>
      <trkpt lat="10.01254" lon="-84.12002">
        <ele>1185.8</ele>
        <time>2022-05-14 15:07:05</time>
      </trkpt>
      <trkpt lat="10.01254" lon="-84.12002">
        <ele>1185.8</ele>
        <time>2022-05-14 15:07:06</time>
      </trkpt>
      <trkpt lat="10.01254" lon="-84.12002">
        <ele>1185.8</ele>
        <time>2022-05-14 15:07:07</time>
      </trkpt>
      <trkpt lat="10.01274" lon="-84.12018">
        <ele>1185.8</ele>
        <time>2022-05-14 15:07:08</time>
      </trkpt>
      <trkpt lat="10.0128" lon="-84.12023">
        <ele>1185.8</ele>
        <time>2022-05-14 15:07:09</time>
      </trkpt>
      <trkpt lat="10.01287" lon="-84.12028">
        <ele>1185.8</ele>
        <time>2022-05-14 15:07:10</time>
      </trkpt>
      <trkpt lat="10.01294" lon="-84.12033">
        <ele>1185.8</ele>
        <time>2022-05-14 15:07:11</time>
      </trkpt>
      <trkpt lat="10.01301" lon="-84.12038">
        <ele>1185.8</ele>
        <time>2022-05-14 15:07:12</time>
      </trkpt>
      <trkpt lat="10.01307" lon="-84.12043">
        <ele>1186</ele>
        <time>2022-05-14 15:07:13</time>
      </trkpt>
      <trkpt lat="10.01313" lon="-84.12049">
        <ele>1186.2</ele>
        <time>2022-05-14 15:07:14</time>
      </trkpt>
      <trkpt lat="10.0132" lon="-84.12053">
        <ele>1186.4</ele>
        <time>2022-05-14 15:07:15</time>
      </trkpt>
      <trkpt lat="10.01326" lon="-84.12058">
        <ele>1186.4</ele>
        <time>2022-05-14 15:07:16</time>
      </trkpt>
      <trkpt lat="10.01326" lon="-84.12058">
        <ele>1186.4</ele>
        <time>2022-05-14 15:07:17</time>
      </trkpt>
      <trkpt lat="10.01326" lon="-84.12058">
        <ele>1186.2</ele>
        <time>2022-05-14 15:07:18</time>
      </trkpt>
      <trkpt lat="10.01346" lon="-84.12072">
        <ele>1186.4</ele>
        <time>2022-05-14 15:07:19</time>
      </trkpt>
      <trkpt lat="10.01352" lon="-84.12076">
        <ele>1186.2</ele>
        <time>2022-05-14 15:07:20</time>
      </trkpt>
      <trkpt lat="10.01359" lon="-84.12081">
        <ele>1186.2</ele>
        <time>2022-05-14 15:07:21</time>
      </trkpt>
      <trkpt lat="10.01366" lon="-84.12086">
        <ele>1186</ele>
        <time>2022-05-14 15:07:22</time>
      </trkpt>
      <trkpt lat="10.01373" lon="-84.1209">
        <ele>1185.8</ele>
        <time>2022-05-14 15:07:23</time>
      </trkpt>
      <trkpt lat="10.0138" lon="-84.12096">
        <ele>1185.6</ele>
        <time>2022-05-14 15:07:24</time>
      </trkpt>
      <trkpt lat="10.01388" lon="-84.121">
        <ele>1185.2</ele>
        <time>2022-05-14 15:07:25</time>
      </trkpt>
      <trkpt lat="10.01395" lon="-84.12105">
        <ele>1184.6</ele>
        <time>2022-05-14 15:07:26</time>
      </trkpt>
      <trkpt lat="10.01395" lon="-84.12105">
        <ele>1183.8</ele>
        <time>2022-05-14 15:07:27</time>
      </trkpt>
      <trkpt lat="10.01413" lon="-84.12116">
        <ele>1183.2</ele>
        <time>2022-05-14 15:07:28</time>
      </trkpt>
      <trkpt lat="10.01422" lon="-84.12121">
        <ele>1182.6</ele>
        <time>2022-05-14 15:07:29</time>
      </trkpt>
      <trkpt lat="10.01431" lon="-84.12128">
        <ele>1182</ele>
        <time>2022-05-14 15:07:30</time>
      </trkpt>
      <trkpt lat="10.0144" lon="-84.12133">
        <ele>1181.2</ele>
        <time>2022-05-14 15:07:31</time>
      </trkpt>
      <trkpt lat="10.0145" lon="-84.12138">
        <ele>1180.4</ele>
        <time>2022-05-14 15:07:32</time>
      </trkpt>
      <trkpt lat="10.0146" lon="-84.12145">
        <ele>1179.8</ele>
        <time>2022-05-14 15:07:33</time>
      </trkpt>
      <trkpt lat="10.0147" lon="-84.1215">
        <ele>1179.2</ele>
        <time>2022-05-14 15:07:34</time>
      </trkpt>
      <trkpt lat="10.01479" lon="-84.12156">
        <ele>1179</ele>
        <time>2022-05-14 15:07:35</time>
      </trkpt>
      <trkpt lat="10.01489" lon="-84.12162">
        <ele>1178.6</ele>
        <time>2022-05-14 15:07:36</time>
      </trkpt>
      <trkpt lat="10.01498" lon="-84.12168">
        <ele>1178.4</ele>
        <time>2022-05-14 15:07:37</time>
      </trkpt>
      <trkpt lat="10.01498" lon="-84.12168">
        <ele>1178.2</ele>
        <time>2022-05-14 15:07:38</time>
      </trkpt>
      <trkpt lat="10.01515" lon="-84.12179">
        <ele>1178.2</ele>
        <time>2022-05-14 15:07:39</time>
      </trkpt>
      <trkpt lat="10.01524" lon="-84.12185">
        <ele>1178</ele>
        <time>2022-05-14 15:07:40</time>
      </trkpt>
      <trkpt lat="10.01533" lon="-84.1219">
        <ele>1177.8</ele>
        <time>2022-05-14 15:07:41</time>
      </trkpt>
      <trkpt lat="10.01542" lon="-84.12196">
        <ele>1177.8</ele>
        <time>2022-05-14 15:07:42</time>
      </trkpt>
      <trkpt lat="10.0155" lon="-84.12201">
        <ele>1177.2</ele>
        <time>2022-05-14 15:07:43</time>
      </trkpt>
      <trkpt lat="10.01559" lon="-84.12206">
        <ele>1177</ele>
        <time>2022-05-14 15:07:44</time>
      </trkpt>
      <trkpt lat="10.01568" lon="-84.12212">
        <ele>1176.4</ele>
        <time>2022-05-14 15:07:45</time>
      </trkpt>
      <trkpt lat="10.01578" lon="-84.12217">
        <ele>1175.8</ele>
        <time>2022-05-14 15:07:46</time>
      </trkpt>
      <trkpt lat="10.01578" lon="-84.12217">
        <ele>1175</ele>
        <time>2022-05-14 15:07:47</time>
      </trkpt>
      <trkpt lat="10.01578" lon="-84.12217">
        <ele>1174.2</ele>
        <time>2022-05-14 15:07:48</time>
      </trkpt>
      <trkpt lat="10.01608" lon="-84.12235">
        <ele>1173.4</ele>
        <time>2022-05-14 15:07:49</time>
      </trkpt>
      <trkpt lat="10.01619" lon="-84.12241">
        <ele>1172.8</ele>
        <time>2022-05-14 15:07:50</time>
      </trkpt>
      <trkpt lat="10.01629" lon="-84.12246">
        <ele>1172.4</ele>
        <time>2022-05-14 15:07:51</time>
      </trkpt>
      <trkpt lat="10.01639" lon="-84.12252">
        <ele>1172.4</ele>
        <time>2022-05-14 15:07:52</time>
      </trkpt>
      <trkpt lat="10.01649" lon="-84.12257">
        <ele>1172.2</ele>
        <time>2022-05-14 15:07:53</time>
      </trkpt>
      <trkpt lat="10.01658" lon="-84.12263">
        <ele>1172.4</ele>
        <time>2022-05-14 15:07:54</time>
      </trkpt>
      <trkpt lat="10.01667" lon="-84.12268">
        <ele>1172.8</ele>
        <time>2022-05-14 15:07:55</time>
      </trkpt>
      <trkpt lat="10.01676" lon="-84.12273">
        <ele>1173.2</ele>
        <time>2022-05-14 15:07:56</time>
      </trkpt>
      <trkpt lat="10.01685" lon="-84.12277">
        <ele>1174</ele>
        <time>2022-05-14 15:07:57</time>
      </trkpt>
      <trkpt lat="10.01685" lon="-84.12277">
        <ele>1174.6</ele>
        <time>2022-05-14 15:07:58</time>
      </trkpt>
      <trkpt lat="10.01685" lon="-84.12277">
        <ele>1175.4</ele>
        <time>2022-05-14 15:07:59</time>
      </trkpt>
      <trkpt lat="10.01706" lon="-84.12289">
        <ele>1176.2</ele>
        <time>2022-05-14 15:08:00</time>
      </trkpt>
      <trkpt lat="10.01712" lon="-84.12292">
        <ele>1176.8</ele>
        <time>2022-05-14 15:08:01</time>
      </trkpt>
      <trkpt lat="10.01718" lon="-84.12295">
        <ele>1177.2</ele>
        <time>2022-05-14 15:08:02</time>
      </trkpt>
      <trkpt lat="10.01723" lon="-84.12297">
        <ele>1177.2</ele>
        <time>2022-05-14 15:08:03</time>
      </trkpt>
      <trkpt lat="10.01728" lon="-84.123">
        <ele>1177.6</ele>
        <time>2022-05-14 15:08:04</time>
      </trkpt>
      <trkpt lat="10.01733" lon="-84.12302">
        <ele>1178</ele>
        <time>2022-05-14 15:08:05</time>
      </trkpt>
      <trkpt lat="10.01738" lon="-84.12304">
        <ele>1178.6</ele>
        <time>2022-05-14 15:08:06</time>
      </trkpt>
      <trkpt lat="10.01742" lon="-84.12307">
        <ele>1179</ele>
        <time>2022-05-14 15:08:07</time>
      </trkpt>
      <trkpt lat="10.01742" lon="-84.12307">
        <ele>1179.4</ele>
        <time>2022-05-14 15:08:08</time>
      </trkpt>
      <trkpt lat="10.01742" lon="-84.12307">
        <ele>1180</ele>
        <time>2022-05-14 15:08:09</time>
      </trkpt>
      <trkpt lat="10.01755" lon="-84.12313">
        <ele>1180.4</ele>
        <time>2022-05-14 15:08:10</time>
      </trkpt>
      <trkpt lat="10.0176" lon="-84.12315">
        <ele>1180.8</ele>
        <time>2022-05-14 15:08:11</time>
      </trkpt>
      <trkpt lat="10.01764" lon="-84.12318">
        <ele>1181.4</ele>
        <time>2022-05-14 15:08:12</time>
      </trkpt>
      <trkpt lat="10.01768" lon="-84.1232">
        <ele>1181.8</ele>
        <time>2022-05-14 15:08:13</time>
      </trkpt>
      <trkpt lat="10.01772" lon="-84.12322">
        <ele>1182.2</ele>
        <time>2022-05-14 15:08:14</time>
      </trkpt>
      <trkpt lat="10.01776" lon="-84.12323">
        <ele>1182.6</ele>
        <time>2022-05-14 15:08:15</time>
      </trkpt>
      <trkpt lat="10.01781" lon="-84.12325">
        <ele>1183.2</ele>
        <time>2022-05-14 15:08:16</time>
      </trkpt>
      <trkpt lat="10.01785" lon="-84.12326">
        <ele>1183.8</ele>
        <time>2022-05-14 15:08:17</time>
      </trkpt>
      <trkpt lat="10.01789" lon="-84.12327">
        <ele>1184.4</ele>
        <time>2022-05-14 15:08:18</time>
      </trkpt>
      <trkpt lat="10.01789" lon="-84.12327">
        <ele>1185</ele>
        <time>2022-05-14 15:08:19</time>
      </trkpt>
      <trkpt lat="10.01799" lon="-84.12329">
        <ele>1185.4</ele>
        <time>2022-05-14 15:08:20</time>
      </trkpt>
      <trkpt lat="10.01804" lon="-84.1233">
        <ele>1185.8</ele>
        <time>2022-05-14 15:08:21</time>
      </trkpt>
      <trkpt lat="10.01808" lon="-84.12331">
        <ele>1186</ele>
        <time>2022-05-14 15:08:22</time>
      </trkpt>
      <trkpt lat="10.01813" lon="-84.12332">
        <ele>1186.4</ele>
        <time>2022-05-14 15:08:23</time>
      </trkpt>
      <trkpt lat="10.01818" lon="-84.12333">
        <ele>1186.4</ele>
        <time>2022-05-14 15:08:24</time>
      </trkpt>
      <trkpt lat="10.01822" lon="-84.12334">
        <ele>1186.8</ele>
        <time>2022-05-14 15:08:25</time>
      </trkpt>
      <trkpt lat="10.01827" lon="-84.12335">
        <ele>1187.2</ele>
        <time>2022-05-14 15:08:26</time>
      </trkpt>
      <trkpt lat="10.01832" lon="-84.12336">
        <ele>1187.6</ele>
        <time>2022-05-14 15:08:27</time>
      </trkpt>
      <trkpt lat="10.01837" lon="-84.12337">
        <ele>1188</ele>
        <time>2022-05-14 15:08:28</time>
      </trkpt>
      <trkpt lat="10.01837" lon="-84.12337">
        <ele>1188.2</ele>
        <time>2022-05-14 15:08:29</time>
      </trkpt>
      <trkpt lat="10.01847" lon="-84.12338">
        <ele>1188.6</ele>
        <time>2022-05-14 15:08:30</time>
      </trkpt>
      <trkpt lat="10.01852" lon="-84.12339">
        <ele>1188.8</ele>
        <time>2022-05-14 15:08:31</time>
      </trkpt>
      <trkpt lat="10.01857" lon="-84.12338">
        <ele>1189.2</ele>
        <time>2022-05-14 15:08:32</time>
      </trkpt>
      <trkpt lat="10.01862" lon="-84.12339">
        <ele>1189.4</ele>
        <time>2022-05-14 15:08:33</time>
      </trkpt>
      <trkpt lat="10.01867" lon="-84.1234">
        <ele>1189.4</ele>
        <time>2022-05-14 15:08:34</time>
      </trkpt>
      <trkpt lat="10.01873" lon="-84.12341">
        <ele>1189.4</ele>
        <time>2022-05-14 15:08:35</time>
      </trkpt>
      <trkpt lat="10.01878" lon="-84.12343">
        <ele>1189.4</ele>
        <time>2022-05-14 15:08:36</time>
      </trkpt>
      <trkpt lat="10.01884" lon="-84.12344">
        <ele>1189.4</ele>
        <time>2022-05-14 15:08:37</time>
      </trkpt>
      <trkpt lat="10.0189" lon="-84.12345">
        <ele>1189.4</ele>
        <time>2022-05-14 15:08:38</time>
      </trkpt>
      <trkpt lat="10.0189" lon="-84.12345">
        <ele>1189.2</ele>
        <time>2022-05-14 15:08:39</time>
      </trkpt>
      <trkpt lat="10.0189" lon="-84.12345">
        <ele>1189.2</ele>
        <time>2022-05-14 15:08:40</time>
      </trkpt>
      <trkpt lat="10.01907" lon="-84.12349">
        <ele>1189.2</ele>
        <time>2022-05-14 15:08:41</time>
      </trkpt>
      <trkpt lat="10.01913" lon="-84.12349">
        <ele>1189.2</ele>
        <time>2022-05-14 15:08:42</time>
      </trkpt>
      <trkpt lat="10.01919" lon="-84.12351">
        <ele>1189.2</ele>
        <time>2022-05-14 15:08:43</time>
      </trkpt>
      <trkpt lat="10.01925" lon="-84.12351">
        <ele>1189.2</ele>
        <time>2022-05-14 15:08:44</time>
      </trkpt>
      <trkpt lat="10.01931" lon="-84.12352">
        <ele>1189.4</ele>
        <time>2022-05-14 15:08:45</time>
      </trkpt>
      <trkpt lat="10.01937" lon="-84.12354">
        <ele>1189.4</ele>
        <time>2022-05-14 15:08:46</time>
      </trkpt>
      <trkpt lat="10.01943" lon="-84.12354">
        <ele>1189.4</ele>
        <time>2022-05-14 15:08:47</time>
      </trkpt>
      <trkpt lat="10.0195" lon="-84.12355">
        <ele>1189.4</ele>
        <time>2022-05-14 15:08:48</time>
      </trkpt>
      <trkpt lat="10.0195" lon="-84.12355">
        <ele>1189.2</ele>
        <time>2022-05-14 15:08:49</time>
      </trkpt>
      <trkpt lat="10.0195" lon="-84.12355">
        <ele>1189.2</ele>
        <time>2022-05-14 15:08:50</time>
      </trkpt>
      <trkpt lat="10.01969" lon="-84.12358">
        <ele>1189.2</ele>
        <time>2022-05-14 15:08:51</time>
      </trkpt>
      <trkpt lat="10.01975" lon="-84.12358">
        <ele>1189</ele>
        <time>2022-05-14 15:08:52</time>
      </trkpt>
      <trkpt lat="10.01982" lon="-84.1236">
        <ele>1189</ele>
        <time>2022-05-14 15:08:53</time>
      </trkpt>
      <trkpt lat="10.01988" lon="-84.1236">
        <ele>1189</ele>
        <time>2022-05-14 15:08:54</time>
      </trkpt>
      <trkpt lat="10.01994" lon="-84.12361">
        <ele>1188.8</ele>
        <time>2022-05-14 15:08:55</time>
      </trkpt>
      <trkpt lat="10.02" lon="-84.12363">
        <ele>1188.8</ele>
        <time>2022-05-14 15:08:56</time>
      </trkpt>
      <trkpt lat="10.02006" lon="-84.12364">
        <ele>1188.8</ele>
        <time>2022-05-14 15:08:57</time>
      </trkpt>
      <trkpt lat="10.02012" lon="-84.12365">
        <ele>1188.8</ele>
        <time>2022-05-14 15:08:58</time>
      </trkpt>
      <trkpt lat="10.02018" lon="-84.12366">
        <ele>1188.6</ele>
        <time>2022-05-14 15:08:59</time>
      </trkpt>
      <trkpt lat="10.02018" lon="-84.12366">
        <ele>1188.6</ele>
        <time>2022-05-14 15:09:00</time>
      </trkpt>
      <trkpt lat="10.0203" lon="-84.12367">
        <ele>1188.6</ele>
        <time>2022-05-14 15:09:01</time>
      </trkpt>
      <trkpt lat="10.02036" lon="-84.12367">
        <ele>1188.4</ele>
        <time>2022-05-14 15:09:02</time>
      </trkpt>
      <trkpt lat="10.02042" lon="-84.12368">
        <ele>1188.4</ele>
        <time>2022-05-14 15:09:03</time>
      </trkpt>
      <trkpt lat="10.02049" lon="-84.12368">
        <ele>1188.2</ele>
        <time>2022-05-14 15:09:04</time>
      </trkpt>
      <trkpt lat="10.02055" lon="-84.12369">
        <ele>1188.2</ele>
        <time>2022-05-14 15:09:05</time>
      </trkpt>
      <trkpt lat="10.02062" lon="-84.1237">
        <ele>1188.2</ele>
        <time>2022-05-14 15:09:06</time>
      </trkpt>
      <trkpt lat="10.02069" lon="-84.12371">
        <ele>1188.2</ele>
        <time>2022-05-14 15:09:07</time>
      </trkpt>
      <trkpt lat="10.02076" lon="-84.12372">
        <ele>1188.2</ele>
        <time>2022-05-14 15:09:08</time>
      </trkpt>
      <trkpt lat="10.02083" lon="-84.12374">
        <ele>1188</ele>
        <time>2022-05-14 15:09:09</time>
      </trkpt>
      <trkpt lat="10.02083" lon="-84.12374">
        <ele>1188</ele>
        <time>2022-05-14 15:09:10</time>
      </trkpt>
      <trkpt lat="10.02096" lon="-84.12375">
        <ele>1187.8</ele>
        <time>2022-05-14 15:09:11</time>
      </trkpt>
      <trkpt lat="10.02103" lon="-84.12376">
        <ele>1187.8</ele>
        <time>2022-05-14 15:09:12</time>
      </trkpt>
      <trkpt lat="10.02111" lon="-84.12377">
        <ele>1187.8</ele>
        <time>2022-05-14 15:09:13</time>
      </trkpt>
      <trkpt lat="10.02118" lon="-84.12377">
        <ele>1187.6</ele>
        <time>2022-05-14 15:09:14</time>
      </trkpt>
      <trkpt lat="10.02125" lon="-84.12378">
        <ele>1187.2</ele>
        <time>2022-05-14 15:09:15</time>
      </trkpt>
      <trkpt lat="10.02132" lon="-84.12378">
        <ele>1187</ele>
        <time>2022-05-14 15:09:16</time>
      </trkpt>
      <trkpt lat="10.02139" lon="-84.1238">
        <ele>1186.8</ele>
        <time>2022-05-14 15:09:17</time>
      </trkpt>
      <trkpt lat="10.02147" lon="-84.1238">
        <ele>1186.8</ele>
        <time>2022-05-14 15:09:18</time>
      </trkpt>
      <trkpt lat="10.02154" lon="-84.12381">
        <ele>1186.6</ele>
        <time>2022-05-14 15:09:19</time>
      </trkpt>
      <trkpt lat="10.02161" lon="-84.12382">
        <ele>1186.4</ele>
        <time>2022-05-14 15:09:20</time>
      </trkpt>
      <trkpt lat="10.02161" lon="-84.12382">
        <ele>1186.2</ele>
        <time>2022-05-14 15:09:21</time>
      </trkpt>
      <trkpt lat="10.02176" lon="-84.12383">
        <ele>1186</ele>
        <time>2022-05-14 15:09:22</time>
      </trkpt>
      <trkpt lat="10.02184" lon="-84.12384">
        <ele>1185.6</ele>
        <time>2022-05-14 15:09:23</time>
      </trkpt>
      <trkpt lat="10.02192" lon="-84.12385">
        <ele>1185.2</ele>
        <time>2022-05-14 15:09:24</time>
      </trkpt>
      <trkpt lat="10.022" lon="-84.12385">
        <ele>1184.8</ele>
        <time>2022-05-14 15:09:25</time>
      </trkpt>
      <trkpt lat="10.02208" lon="-84.12386">
        <ele>1184.8</ele>
        <time>2022-05-14 15:09:26</time>
      </trkpt>
      <trkpt lat="10.02216" lon="-84.12387">
        <ele>1184.6</ele>
        <time>2022-05-14 15:09:27</time>
      </trkpt>
      <trkpt lat="10.02224" lon="-84.12388">
        <ele>1184.6</ele>
        <time>2022-05-14 15:09:28</time>
      </trkpt>
      <trkpt lat="10.02232" lon="-84.12389">
        <ele>1184.8</ele>
        <time>2022-05-14 15:09:29</time>
      </trkpt>
      <trkpt lat="10.02232" lon="-84.12389">
        <ele>1184.8</ele>
        <time>2022-05-14 15:09:30</time>
      </trkpt>
      <trkpt lat="10.02232" lon="-84.12389">
        <ele>1184.8</ele>
        <time>2022-05-14 15:09:31</time>
      </trkpt>
      <trkpt lat="10.02254" lon="-84.12392">
        <ele>1185</ele>
        <time>2022-05-14 15:09:32</time>
      </trkpt>
      <trkpt lat="10.02262" lon="-84.12392">
        <ele>1185.2</ele>
        <time>2022-05-14 15:09:33</time>
      </trkpt>
      <trkpt lat="10.02268" lon="-84.12393">
        <ele>1185.2</ele>
        <time>2022-05-14 15:09:34</time>
      </trkpt>
      <trkpt lat="10.02275" lon="-84.12395">
        <ele>1185.4</ele>
        <time>2022-05-14 15:09:35</time>
      </trkpt>
      <trkpt lat="10.02282" lon="-84.12396">
        <ele>1185.6</ele>
        <time>2022-05-14 15:09:36</time>
      </trkpt>
      <trkpt lat="10.02289" lon="-84.12396">
        <ele>1185.8</ele>
        <time>2022-05-14 15:09:37</time>
      </trkpt>
      <trkpt lat="10.02295" lon="-84.12397">
        <ele>1186.2</ele>
        <time>2022-05-14 15:09:38</time>
      </trkpt>
      <trkpt lat="10.02301" lon="-84.12398">
        <ele>1186.4</ele>
        <time>2022-05-14 15:09:39</time>
      </trkpt>
      <trkpt lat="10.02307" lon="-84.12398">
        <ele>1186.6</ele>
        <time>2022-05-14 15:09:40</time>
      </trkpt>
      <trkpt lat="10.02307" lon="-84.12398">
        <ele>1187</ele>
        <time>2022-05-14 15:09:41</time>
      </trkpt>
      <trkpt lat="10.02307" lon="-84.12398">
        <ele>1187.4</ele>
        <time>2022-05-14 15:09:42</time>
      </trkpt>
      <trkpt lat="10.02324" lon="-84.12399">
        <ele>1187.6</ele>
        <time>2022-05-14 15:09:43</time>
      </trkpt>
      <trkpt lat="10.02328" lon="-84.124">
        <ele>1188</ele>
        <time>2022-05-14 15:09:44</time>
      </trkpt>
      <trkpt lat="10.02333" lon="-84.12401">
        <ele>1188.4</ele>
        <time>2022-05-14 15:09:45</time>
      </trkpt>
      <trkpt lat="10.02337" lon="-84.12401">
        <ele>1188.6</ele>
        <time>2022-05-14 15:09:46</time>
      </trkpt>
      <trkpt lat="10.02342" lon="-84.12401">
        <ele>1188.6</ele>
        <time>2022-05-14 15:09:47</time>
      </trkpt>
      <trkpt lat="10.02346" lon="-84.12403">
        <ele>1189</ele>
        <time>2022-05-14 15:09:48</time>
      </trkpt>
      <trkpt lat="10.0235" lon="-84.12403">
        <ele>1189.4</ele>
        <time>2022-05-14 15:09:49</time>
      </trkpt>
      <trkpt lat="10.02354" lon="-84.12403">
        <ele>1189.8</ele>
        <time>2022-05-14 15:09:50</time>
      </trkpt>
      <trkpt lat="10.02354" lon="-84.12403">
        <ele>1190.2</ele>
        <time>2022-05-14 15:09:51</time>
      </trkpt>
      <trkpt lat="10.02362" lon="-84.12404">
        <ele>1190.6</ele>
        <time>2022-05-14 15:09:52</time>
      </trkpt>
      <trkpt lat="10.02366" lon="-84.12404">
        <ele>1191</ele>
        <time>2022-05-14 15:09:53</time>
      </trkpt>
      <trkpt lat="10.02369" lon="-84.12405">
        <ele>1191.4</ele>
        <time>2022-05-14 15:09:54</time>
      </trkpt>
      <trkpt lat="10.02373" lon="-84.12405">
        <ele>1191.8</ele>
        <time>2022-05-14 15:09:55</time>
      </trkpt>
      <trkpt lat="10.02376" lon="-84.12405">
        <ele>1192.2</ele>
        <time>2022-05-14 15:09:56</time>
      </trkpt>
      <trkpt lat="10.0238" lon="-84.12406">
        <ele>1192.6</ele>
        <time>2022-05-14 15:09:57</time>
      </trkpt>
      <trkpt lat="10.02383" lon="-84.12406">
        <ele>1193</ele>
        <time>2022-05-14 15:09:58</time>
      </trkpt>
      <trkpt lat="10.02387" lon="-84.12407">
        <ele>1193.4</ele>
        <time>2022-05-14 15:09:59</time>
      </trkpt>
      <trkpt lat="10.0239" lon="-84.12408">
        <ele>1193.8</ele>
        <time>2022-05-14 15:10:00</time>
      </trkpt>
      <trkpt lat="10.02394" lon="-84.12408">
        <ele>1194.2</ele>
        <time>2022-05-14 15:10:01</time>
      </trkpt>
      <trkpt lat="10.02394" lon="-84.12408">
        <ele>1194.6</ele>
        <time>2022-05-14 15:10:02</time>
      </trkpt>
      <trkpt lat="10.02401" lon="-84.12409">
        <ele>1195</ele>
        <time>2022-05-14 15:10:03</time>
      </trkpt>
      <trkpt lat="10.02404" lon="-84.1241">
        <ele>1195.4</ele>
        <time>2022-05-14 15:10:04</time>
      </trkpt>
      <trkpt lat="10.02407" lon="-84.12411">
        <ele>1195.6</ele>
        <time>2022-05-14 15:10:05</time>
      </trkpt>
      <trkpt lat="10.02411" lon="-84.12412">
        <ele>1196</ele>
        <time>2022-05-14 15:10:06</time>
      </trkpt>
      <trkpt lat="10.02415" lon="-84.12413">
        <ele>1196.4</ele>
        <time>2022-05-14 15:10:07</time>
      </trkpt>
      <trkpt lat="10.02418" lon="-84.12414">
        <ele>1196.4</ele>
        <time>2022-05-14 15:10:08</time>
      </trkpt>
      <trkpt lat="10.02422" lon="-84.12414">
        <ele>1196.8</ele>
        <time>2022-05-14 15:10:09</time>
      </trkpt>
      <trkpt lat="10.02425" lon="-84.12414">
        <ele>1197</ele>
        <time>2022-05-14 15:10:10</time>
      </trkpt>
      <trkpt lat="10.02425" lon="-84.12414">
        <ele>1197.4</ele>
        <time>2022-05-14 15:10:11</time>
      </trkpt>
      <trkpt lat="10.02425" lon="-84.12414">
        <ele>1197.6</ele>
        <time>2022-05-14 15:10:12</time>
      </trkpt>
      <trkpt lat="10.02435" lon="-84.12413">
        <ele>1197.8</ele>
        <time>2022-05-14 15:10:13</time>
      </trkpt>
      <trkpt lat="10.02439" lon="-84.12414">
        <ele>1198</ele>
        <time>2022-05-14 15:10:14</time>
      </trkpt>
      <trkpt lat="10.02442" lon="-84.12414">
        <ele>1198.2</ele>
        <time>2022-05-14 15:10:15</time>
      </trkpt>
      <trkpt lat="10.02445" lon="-84.12415">
        <ele>1198.6</ele>
        <time>2022-05-14 15:10:16</time>
      </trkpt>
      <trkpt lat="10.02448" lon="-84.12415">
        <ele>1198.8</ele>
        <time>2022-05-14 15:10:17</time>
      </trkpt>
      <trkpt lat="10.02452" lon="-84.12417">
        <ele>1199</ele>
        <time>2022-05-14 15:10:18</time>
      </trkpt>
      <trkpt lat="10.02455" lon="-84.12417">
        <ele>1199.4</ele>
        <time>2022-05-14 15:10:19</time>
      </trkpt>
      <trkpt lat="10.02459" lon="-84.12418">
        <ele>1199.6</ele>
        <time>2022-05-14 15:10:20</time>
      </trkpt>
      <trkpt lat="10.02463" lon="-84.12419">
        <ele>1199.8</ele>
        <time>2022-05-14 15:10:21</time>
      </trkpt>
      <trkpt lat="10.02463" lon="-84.12419">
        <ele>1200</ele>
        <time>2022-05-14 15:10:22</time>
      </trkpt>
      <trkpt lat="10.02463" lon="-84.12419">
        <ele>1200.4</ele>
        <time>2022-05-14 15:10:23</time>
      </trkpt>
      <trkpt lat="10.02474" lon="-84.12421">
        <ele>1200.8</ele>
        <time>2022-05-14 15:10:24</time>
      </trkpt>
      <trkpt lat="10.02477" lon="-84.12422">
        <ele>1201.2</ele>
        <time>2022-05-14 15:10:25</time>
      </trkpt>
      <trkpt lat="10.02481" lon="-84.12422">
        <ele>1201.6</ele>
        <time>2022-05-14 15:10:26</time>
      </trkpt>
      <trkpt lat="10.02484" lon="-84.12423">
        <ele>1202</ele>
        <time>2022-05-14 15:10:27</time>
      </trkpt>
      <trkpt lat="10.02487" lon="-84.12423">
        <ele>1202.4</ele>
        <time>2022-05-14 15:10:28</time>
      </trkpt>
      <trkpt lat="10.02491" lon="-84.12423">
        <ele>1202.4</ele>
        <time>2022-05-14 15:10:29</time>
      </trkpt>
      <trkpt lat="10.02494" lon="-84.12425">
        <ele>1202.8</ele>
        <time>2022-05-14 15:10:30</time>
      </trkpt>
      <trkpt lat="10.02497" lon="-84.12425">
        <ele>1203.2</ele>
        <time>2022-05-14 15:10:31</time>
      </trkpt>
      <trkpt lat="10.02497" lon="-84.12425">
        <ele>1203.6</ele>
        <time>2022-05-14 15:10:32</time>
      </trkpt>
      <trkpt lat="10.02497" lon="-84.12425">
        <ele>1203.8</ele>
        <time>2022-05-14 15:10:33</time>
      </trkpt>
      <trkpt lat="10.02507" lon="-84.12426">
        <ele>1204</ele>
        <time>2022-05-14 15:10:34</time>
      </trkpt>
      <trkpt lat="10.02511" lon="-84.12427">
        <ele>1204.4</ele>
        <time>2022-05-14 15:10:35</time>
      </trkpt>
      <trkpt lat="10.02514" lon="-84.12427">
        <ele>1204.6</ele>
        <time>2022-05-14 15:10:36</time>
      </trkpt>
      <trkpt lat="10.02517" lon="-84.12428">
        <ele>1204.8</ele>
        <time>2022-05-14 15:10:37</time>
      </trkpt>
      <trkpt lat="10.0252" lon="-84.12428">
        <ele>1205</ele>
        <time>2022-05-14 15:10:38</time>
      </trkpt>
      <trkpt lat="10.02523" lon="-84.12428">
        <ele>1205.4</ele>
        <time>2022-05-14 15:10:39</time>
      </trkpt>
      <trkpt lat="10.02526" lon="-84.12429">
        <ele>1205.6</ele>
        <time>2022-05-14 15:10:40</time>
      </trkpt>
      <trkpt lat="10.02529" lon="-84.12429">
        <ele>1205.8</ele>
        <time>2022-05-14 15:10:41</time>
      </trkpt>
      <trkpt lat="10.02532" lon="-84.1243">
        <ele>1206.2</ele>
        <time>2022-05-14 15:10:42</time>
      </trkpt>
      <trkpt lat="10.02532" lon="-84.1243">
        <ele>1206.4</ele>
        <time>2022-05-14 15:10:43</time>
      </trkpt>
      <trkpt lat="10.02538" lon="-84.12432">
        <ele>1206.8</ele>
        <time>2022-05-14 15:10:44</time>
      </trkpt>
      <trkpt lat="10.02542" lon="-84.12433">
        <ele>1207</ele>
        <time>2022-05-14 15:10:45</time>
      </trkpt>
      <trkpt lat="10.02544" lon="-84.12434">
        <ele>1207</ele>
        <time>2022-05-14 15:10:46</time>
      </trkpt>
      <trkpt lat="10.02547" lon="-84.12435">
        <ele>1207.2</ele>
        <time>2022-05-14 15:10:47</time>
      </trkpt>
      <trkpt lat="10.0255" lon="-84.12437">
        <ele>1207.4</ele>
        <time>2022-05-14 15:10:48</time>
      </trkpt>
      <trkpt lat="10.02552" lon="-84.1244">
        <ele>1207.6</ele>
        <time>2022-05-14 15:10:49</time>
      </trkpt>
      <trkpt lat="10.02555" lon="-84.12442">
        <ele>1207.6</ele>
        <time>2022-05-14 15:10:50</time>
      </trkpt>
      <trkpt lat="10.02557" lon="-84.12445">
        <ele>1207.8</ele>
        <time>2022-05-14 15:10:51</time>
      </trkpt>
      <trkpt lat="10.0256" lon="-84.12448">
        <ele>1208</ele>
        <time>2022-05-14 15:10:52</time>
      </trkpt>
      <trkpt lat="10.0256" lon="-84.12448">
        <ele>1208.2</ele>
        <time>2022-05-14 15:10:53</time>
      </trkpt>
      <trkpt lat="10.02566" lon="-84.12454">
        <ele>1208.4</ele>
        <time>2022-05-14 15:10:54</time>
      </trkpt>
      <trkpt lat="10.02569" lon="-84.12456">
        <ele>1208.8</ele>
        <time>2022-05-14 15:10:55</time>
      </trkpt>
      <trkpt lat="10.02573" lon="-84.12458">
        <ele>1209.2</ele>
        <time>2022-05-14 15:10:56</time>
      </trkpt>
      <trkpt lat="10.02576" lon="-84.12459">
        <ele>1209.4</ele>
        <time>2022-05-14 15:10:57</time>
      </trkpt>
      <trkpt lat="10.0258" lon="-84.12461">
        <ele>1209.8</ele>
        <time>2022-05-14 15:10:58</time>
      </trkpt>
      <trkpt lat="10.02584" lon="-84.12462">
        <ele>1210</ele>
        <time>2022-05-14 15:10:59</time>
      </trkpt>
      <trkpt lat="10.02587" lon="-84.12463">
        <ele>1210.4</ele>
        <time>2022-05-14 15:11:00</time>
      </trkpt>
      <trkpt lat="10.0259" lon="-84.12463">
        <ele>1210.8</ele>
        <time>2022-05-14 15:11:01</time>
      </trkpt>
      <trkpt lat="10.02594" lon="-84.12463">
        <ele>1211</ele>
        <time>2022-05-14 15:11:02</time>
      </trkpt>
      <trkpt lat="10.02598" lon="-84.12463">
        <ele>1211.4</ele>
        <time>2022-05-14 15:11:03</time>
      </trkpt>
      <trkpt lat="10.02598" lon="-84.12463">
        <ele>1211.6</ele>
        <time>2022-05-14 15:11:04</time>
      </trkpt>
      <trkpt lat="10.02604" lon="-84.12463">
        <ele>1212</ele>
        <time>2022-05-14 15:11:05</time>
      </trkpt>
      <trkpt lat="10.02607" lon="-84.12463">
        <ele>1212.2</ele>
        <time>2022-05-14 15:11:06</time>
      </trkpt>
      <trkpt lat="10.0261" lon="-84.12463">
        <ele>1212.6</ele>
        <time>2022-05-14 15:11:07</time>
      </trkpt>
      <trkpt lat="10.02613" lon="-84.12463">
        <ele>1212.8</ele>
        <time>2022-05-14 15:11:08</time>
      </trkpt>
      <trkpt lat="10.02616" lon="-84.12464">
        <ele>1213.2</ele>
        <time>2022-05-14 15:11:09</time>
      </trkpt>
      <trkpt lat="10.02619" lon="-84.12463">
        <ele>1213.4</ele>
        <time>2022-05-14 15:11:10</time>
      </trkpt>
      <trkpt lat="10.02622" lon="-84.12463">
        <ele>1213.4</ele>
        <time>2022-05-14 15:11:11</time>
      </trkpt>
      <trkpt lat="10.02625" lon="-84.12463">
        <ele>1213.8</ele>
        <time>2022-05-14 15:11:12</time>
      </trkpt>
      <trkpt lat="10.02625" lon="-84.12463">
        <ele>1214</ele>
        <time>2022-05-14 15:11:13</time>
      </trkpt>
      <trkpt lat="10.02625" lon="-84.12463">
        <ele>1214.2</ele>
        <time>2022-05-14 15:11:14</time>
      </trkpt>
      <trkpt lat="10.02635" lon="-84.12463">
        <ele>1214.4</ele>
        <time>2022-05-14 15:11:15</time>
      </trkpt>
      <trkpt lat="10.02639" lon="-84.12463">
        <ele>1214.8</ele>
        <time>2022-05-14 15:11:16</time>
      </trkpt>
      <trkpt lat="10.02642" lon="-84.12463">
        <ele>1215.2</ele>
        <time>2022-05-14 15:11:17</time>
      </trkpt>
      <trkpt lat="10.02645" lon="-84.12462">
        <ele>1215.6</ele>
        <time>2022-05-14 15:11:18</time>
      </trkpt>
      <trkpt lat="10.02648" lon="-84.12462">
        <ele>1215.8</ele>
        <time>2022-05-14 15:11:19</time>
      </trkpt>
      <trkpt lat="10.02651" lon="-84.12462">
        <ele>1216</ele>
        <time>2022-05-14 15:11:20</time>
      </trkpt>
      <trkpt lat="10.02654" lon="-84.12462">
        <ele>1216.2</ele>
        <time>2022-05-14 15:11:21</time>
      </trkpt>
      <trkpt lat="10.02657" lon="-84.12462">
        <ele>1216.4</ele>
        <time>2022-05-14 15:11:22</time>
      </trkpt>
      <trkpt lat="10.0266" lon="-84.12462">
        <ele>1216.8</ele>
        <time>2022-05-14 15:11:23</time>
      </trkpt>
      <trkpt lat="10.0266" lon="-84.12462">
        <ele>1217</ele>
        <time>2022-05-14 15:11:24</time>
      </trkpt>
      <trkpt lat="10.0266" lon="-84.12462">
        <ele>1217.4</ele>
        <time>2022-05-14 15:11:25</time>
      </trkpt>
      <trkpt lat="10.02669" lon="-84.12462">
        <ele>1217.6</ele>
        <time>2022-05-14 15:11:26</time>
      </trkpt>
      <trkpt lat="10.02672" lon="-84.12462">
        <ele>1218</ele>
        <time>2022-05-14 15:11:27</time>
      </trkpt>
      <trkpt lat="10.02674" lon="-84.12463">
        <ele>1218.2</ele>
        <time>2022-05-14 15:11:28</time>
      </trkpt>
      <trkpt lat="10.02677" lon="-84.12463">
        <ele>1218.6</ele>
        <time>2022-05-14 15:11:29</time>
      </trkpt>
      <trkpt lat="10.0268" lon="-84.12463">
        <ele>1218.8</ele>
        <time>2022-05-14 15:11:30</time>
      </trkpt>
      <trkpt lat="10.02683" lon="-84.12463">
        <ele>1219</ele>
        <time>2022-05-14 15:11:31</time>
      </trkpt>
      <trkpt lat="10.02686" lon="-84.12463">
        <ele>1219</ele>
        <time>2022-05-14 15:11:32</time>
      </trkpt>
      <trkpt lat="10.02689" lon="-84.12463">
        <ele>1219.4</ele>
        <time>2022-05-14 15:11:33</time>
      </trkpt>
      <trkpt lat="10.02689" lon="-84.12463">
        <ele>1219.6</ele>
        <time>2022-05-14 15:11:34</time>
      </trkpt>
      <trkpt lat="10.02695" lon="-84.12464">
        <ele>1220</ele>
        <time>2022-05-14 15:11:35</time>
      </trkpt>
      <trkpt lat="10.02698" lon="-84.12465">
        <ele>1220.2</ele>
        <time>2022-05-14 15:11:36</time>
      </trkpt>
      <trkpt lat="10.02701" lon="-84.12465">
        <ele>1220.6</ele>
        <time>2022-05-14 15:11:37</time>
      </trkpt>
      <trkpt lat="10.02704" lon="-84.12466">
        <ele>1220.8</ele>
        <time>2022-05-14 15:11:38</time>
      </trkpt>
      <trkpt lat="10.02707" lon="-84.12466">
        <ele>1221</ele>
        <time>2022-05-14 15:11:39</time>
      </trkpt>
      <trkpt lat="10.02711" lon="-84.12467">
        <ele>1221.4</ele>
        <time>2022-05-14 15:11:40</time>
      </trkpt>
      <trkpt lat="10.02714" lon="-84.12468">
        <ele>1221.6</ele>
        <time>2022-05-14 15:11:41</time>
      </trkpt>
      <trkpt lat="10.02717" lon="-84.12469">
        <ele>1222</ele>
        <time>2022-05-14 15:11:42</time>
      </trkpt>
      <trkpt lat="10.0272" lon="-84.1247">
        <ele>1222.2</ele>
        <time>2022-05-14 15:11:43</time>
      </trkpt>
      <trkpt lat="10.02723" lon="-84.12471">
        <ele>1222.4</ele>
        <time>2022-05-14 15:11:44</time>
      </trkpt>
      <trkpt lat="10.02723" lon="-84.12471">
        <ele>1222.8</ele>
        <time>2022-05-14 15:11:45</time>
      </trkpt>
      <trkpt lat="10.02729" lon="-84.12473">
        <ele>1223</ele>
        <time>2022-05-14 15:11:46</time>
      </trkpt>
      <trkpt lat="10.02732" lon="-84.12475">
        <ele>1223.4</ele>
        <time>2022-05-14 15:11:47</time>
      </trkpt>
      <trkpt lat="10.02734" lon="-84.12477">
        <ele>1223.6</ele>
        <time>2022-05-14 15:11:48</time>
      </trkpt>
      <trkpt lat="10.02737" lon="-84.12479">
        <ele>1223.8</ele>
        <time>2022-05-14 15:11:49</time>
      </trkpt>
      <trkpt lat="10.02739" lon="-84.12483">
        <ele>1224</ele>
        <time>2022-05-14 15:11:50</time>
      </trkpt>
      <trkpt lat="10.02741" lon="-84.12486">
        <ele>1224</ele>
        <time>2022-05-14 15:11:51</time>
      </trkpt>
      <trkpt lat="10.02742" lon="-84.12489">
        <ele>1224.2</ele>
        <time>2022-05-14 15:11:52</time>
      </trkpt>
      <trkpt lat="10.02743" lon="-84.12493">
        <ele>1224.2</ele>
        <time>2022-05-14 15:11:53</time>
      </trkpt>
      <trkpt lat="10.02743" lon="-84.12493">
        <ele>1224.4</ele>
        <time>2022-05-14 15:11:54</time>
      </trkpt>
      <trkpt lat="10.02743" lon="-84.12493">
        <ele>1224.6</ele>
        <time>2022-05-14 15:11:55</time>
      </trkpt>
      <trkpt lat="10.02743" lon="-84.12506">
        <ele>1224.6</ele>
        <time>2022-05-14 15:11:56</time>
      </trkpt>
      <trkpt lat="10.02743" lon="-84.12509">
        <ele>1224.8</ele>
        <time>2022-05-14 15:11:57</time>
      </trkpt>
      <trkpt lat="10.02743" lon="-84.12513">
        <ele>1224.8</ele>
        <time>2022-05-14 15:11:58</time>
      </trkpt>
      <trkpt lat="10.02743" lon="-84.12517">
        <ele>1225</ele>
        <time>2022-05-14 15:11:59</time>
      </trkpt>
      <trkpt lat="10.02743" lon="-84.12521">
        <ele>1225.2</ele>
        <time>2022-05-14 15:12:00</time>
      </trkpt>
      <trkpt lat="10.02744" lon="-84.12526">
        <ele>1225.4</ele>
        <time>2022-05-14 15:12:01</time>
      </trkpt>
      <trkpt lat="10.02745" lon="-84.12529">
        <ele>1225.8</ele>
        <time>2022-05-14 15:12:02</time>
      </trkpt>
      <trkpt lat="10.02746" lon="-84.12533">
        <ele>1226</ele>
        <time>2022-05-14 15:12:03</time>
      </trkpt>
      <trkpt lat="10.02748" lon="-84.12537">
        <ele>1226</ele>
        <time>2022-05-14 15:12:04</time>
      </trkpt>
      <trkpt lat="10.02748" lon="-84.12537">
        <ele>1226.2</ele>
        <time>2022-05-14 15:12:05</time>
      </trkpt>
      <trkpt lat="10.02748" lon="-84.12537">
        <ele>1226.6</ele>
        <time>2022-05-14 15:12:06</time>
      </trkpt>
      <trkpt lat="10.02754" lon="-84.12545">
        <ele>1226.8</ele>
        <time>2022-05-14 15:12:07</time>
      </trkpt>
      <trkpt lat="10.02756" lon="-84.12547">
        <ele>1227.2</ele>
        <time>2022-05-14 15:12:08</time>
      </trkpt>
      <trkpt lat="10.02759" lon="-84.12548">
        <ele>1227.4</ele>
        <time>2022-05-14 15:12:09</time>
      </trkpt>
      <trkpt lat="10.02761" lon="-84.1255">
        <ele>1227.6</ele>
        <time>2022-05-14 15:12:10</time>
      </trkpt>
      <trkpt lat="10.02763" lon="-84.1255">
        <ele>1227.8</ele>
        <time>2022-05-14 15:12:11</time>
      </trkpt>
      <trkpt lat="10.02766" lon="-84.12552">
        <ele>1228</ele>
        <time>2022-05-14 15:12:12</time>
      </trkpt>
      <trkpt lat="10.02769" lon="-84.12553">
        <ele>1228.2</ele>
        <time>2022-05-14 15:12:13</time>
      </trkpt>
      <trkpt lat="10.02772" lon="-84.12553">
        <ele>1228.2</ele>
        <time>2022-05-14 15:12:14</time>
      </trkpt>
      <trkpt lat="10.02772" lon="-84.12553">
        <ele>1228.4</ele>
        <time>2022-05-14 15:12:15</time>
      </trkpt>
      <trkpt lat="10.02772" lon="-84.12553">
        <ele>1228.4</ele>
        <time>2022-05-14 15:12:16</time>
      </trkpt>
      <trkpt lat="10.02782" lon="-84.12557">
        <ele>1228.6</ele>
        <time>2022-05-14 15:12:17</time>
      </trkpt>
      <trkpt lat="10.02785" lon="-84.12557">
        <ele>1228.8</ele>
        <time>2022-05-14 15:12:18</time>
      </trkpt>
      <trkpt lat="10.02789" lon="-84.12559">
        <ele>1229.2</ele>
        <time>2022-05-14 15:12:19</time>
      </trkpt>
      <trkpt lat="10.02792" lon="-84.1256">
        <ele>1229.4</ele>
        <time>2022-05-14 15:12:20</time>
      </trkpt>
      <trkpt lat="10.02795" lon="-84.12561">
        <ele>1229.6</ele>
        <time>2022-05-14 15:12:21</time>
      </trkpt>
      <trkpt lat="10.02799" lon="-84.12562">
        <ele>1229.8</ele>
        <time>2022-05-14 15:12:22</time>
      </trkpt>
      <trkpt lat="10.02804" lon="-84.12562">
        <ele>1230</ele>
        <time>2022-05-14 15:12:23</time>
      </trkpt>
      <trkpt lat="10.0281" lon="-84.12564">
        <ele>1230.2</ele>
        <time>2022-05-14 15:12:24</time>
      </trkpt>
      <trkpt lat="10.02815" lon="-84.12566">
        <ele>1230.4</ele>
        <time>2022-05-14 15:12:25</time>
      </trkpt>
      <trkpt lat="10.02815" lon="-84.12566">
        <ele>1230.6</ele>
        <time>2022-05-14 15:12:26</time>
      </trkpt>
      <trkpt lat="10.02815" lon="-84.12566">
        <ele>1230.8</ele>
        <time>2022-05-14 15:12:27</time>
      </trkpt>
      <trkpt lat="10.02834" lon="-84.12572">
        <ele>1231</ele>
        <time>2022-05-14 15:12:28</time>
      </trkpt>
      <trkpt lat="10.02841" lon="-84.12574">
        <ele>1231</ele>
        <time>2022-05-14 15:12:29</time>
      </trkpt>
      <trkpt lat="10.02847" lon="-84.12575">
        <ele>1231.2</ele>
        <time>2022-05-14 15:12:30</time>
      </trkpt>
      <trkpt lat="10.02852" lon="-84.12577">
        <ele>1231.4</ele>
        <time>2022-05-14 15:12:31</time>
      </trkpt>
      <trkpt lat="10.02857" lon="-84.12579">
        <ele>1231.4</ele>
        <time>2022-05-14 15:12:32</time>
      </trkpt>
      <trkpt lat="10.02864" lon="-84.1258">
        <ele>1231.8</ele>
        <time>2022-05-14 15:12:33</time>
      </trkpt>
      <trkpt lat="10.0287" lon="-84.12582">
        <ele>1232</ele>
        <time>2022-05-14 15:12:34</time>
      </trkpt>
      <trkpt lat="10.02877" lon="-84.12584">
        <ele>1232</ele>
        <time>2022-05-14 15:12:35</time>
      </trkpt>
      <trkpt lat="10.02877" lon="-84.12584">
        <ele>1232.4</ele>
        <time>2022-05-14 15:12:36</time>
      </trkpt>
      <trkpt lat="10.02893" lon="-84.12587">
        <ele>1232.4</ele>
        <time>2022-05-14 15:12:37</time>
      </trkpt>
      <trkpt lat="10.02902" lon="-84.12589">
        <ele>1232.8</ele>
        <time>2022-05-14 15:12:38</time>
      </trkpt>
      <trkpt lat="10.0291" lon="-84.1259">
        <ele>1233.2</ele>
        <time>2022-05-14 15:12:39</time>
      </trkpt>
      <trkpt lat="10.02917" lon="-84.12591">
        <ele>1234</ele>
        <time>2022-05-14 15:12:40</time>
      </trkpt>
      <trkpt lat="10.02924" lon="-84.12592">
        <ele>1234.4</ele>
        <time>2022-05-14 15:12:41</time>
      </trkpt>
      <trkpt lat="10.02931" lon="-84.12593">
        <ele>1235</ele>
        <time>2022-05-14 15:12:42</time>
      </trkpt>
      <trkpt lat="10.02938" lon="-84.12594">
        <ele>1235.2</ele>
        <time>2022-05-14 15:12:43</time>
      </trkpt>
      <trkpt lat="10.02944" lon="-84.12594">
        <ele>1235.6</ele>
        <time>2022-05-14 15:12:44</time>
      </trkpt>
      <trkpt lat="10.02951" lon="-84.12595">
        <ele>1236</ele>
        <time>2022-05-14 15:12:45</time>
      </trkpt>
      <trkpt lat="10.02958" lon="-84.12595">
        <ele>1236.4</ele>
        <time>2022-05-14 15:12:46</time>
      </trkpt>
      <trkpt lat="10.02958" lon="-84.12595">
        <ele>1236.8</ele>
        <time>2022-05-14 15:12:47</time>
      </trkpt>
      <trkpt lat="10.02971" lon="-84.12596">
        <ele>1237.2</ele>
        <time>2022-05-14 15:12:48</time>
      </trkpt>
      <trkpt lat="10.02977" lon="-84.12597">
        <ele>1237.6</ele>
        <time>2022-05-14 15:12:49</time>
      </trkpt>
      <trkpt lat="10.02983" lon="-84.12598">
        <ele>1237.6</ele>
        <time>2022-05-14 15:12:50</time>
      </trkpt>
      <trkpt lat="10.02989" lon="-84.12598">
        <ele>1237.8</ele>
        <time>2022-05-14 15:12:51</time>
      </trkpt>
      <trkpt lat="10.02994" lon="-84.12598">
        <ele>1238</ele>
        <time>2022-05-14 15:12:52</time>
      </trkpt>
      <trkpt lat="10.02999" lon="-84.12599">
        <ele>1238.4</ele>
        <time>2022-05-14 15:12:53</time>
      </trkpt>
      <trkpt lat="10.03004" lon="-84.126">
        <ele>1238.6</ele>
        <time>2022-05-14 15:12:54</time>
      </trkpt>
      <trkpt lat="10.03009" lon="-84.126">
        <ele>1238.6</ele>
        <time>2022-05-14 15:12:55</time>
      </trkpt>
      <trkpt lat="10.03009" lon="-84.126">
        <ele>1238.6</ele>
        <time>2022-05-14 15:12:56</time>
      </trkpt>
      <trkpt lat="10.03009" lon="-84.126">
        <ele>1238.6</ele>
        <time>2022-05-14 15:12:57</time>
      </trkpt>
      <trkpt lat="10.03025" lon="-84.12602">
        <ele>1238.4</ele>
        <time>2022-05-14 15:12:58</time>
      </trkpt>
      <trkpt lat="10.0303" lon="-84.12603">
        <ele>1238.4</ele>
        <time>2022-05-14 15:12:59</time>
      </trkpt>
      <trkpt lat="10.03036" lon="-84.12604">
        <ele>1238</ele>
        <time>2022-05-14 15:13:00</time>
      </trkpt>
      <trkpt lat="10.03043" lon="-84.12604">
        <ele>1237.8</ele>
        <time>2022-05-14 15:13:01</time>
      </trkpt>
      <trkpt lat="10.0305" lon="-84.12605">
        <ele>1237.4</ele>
        <time>2022-05-14 15:13:02</time>
      </trkpt>
      <trkpt lat="10.03057" lon="-84.12605">
        <ele>1236.8</ele>
        <time>2022-05-14 15:13:03</time>
      </trkpt>
      <trkpt lat="10.03066" lon="-84.12606">
        <ele>1236</ele>
        <time>2022-05-14 15:13:04</time>
      </trkpt>
      <trkpt lat="10.03074" lon="-84.12606">
        <ele>1235.2</ele>
        <time>2022-05-14 15:13:05</time>
      </trkpt>
      <trkpt lat="10.03084" lon="-84.12605">
        <ele>1234.4</ele>
        <time>2022-05-14 15:13:06</time>
      </trkpt>
      <trkpt lat="10.03084" lon="-84.12605">
        <ele>1233.6</ele>
        <time>2022-05-14 15:13:07</time>
      </trkpt>
      <trkpt lat="10.03084" lon="-84.12605">
        <ele>1232.6</ele>
        <time>2022-05-14 15:13:08</time>
      </trkpt>
      <trkpt lat="10.03115" lon="-84.12603">
        <ele>1231.6</ele>
        <time>2022-05-14 15:13:09</time>
      </trkpt>
      <trkpt lat="10.03127" lon="-84.12602">
        <ele>1230.8</ele>
        <time>2022-05-14 15:13:10</time>
      </trkpt>
      <trkpt lat="10.03139" lon="-84.12602">
        <ele>1229.6</ele>
        <time>2022-05-14 15:13:11</time>
      </trkpt>
      <trkpt lat="10.03152" lon="-84.12602">
        <ele>1228.6</ele>
        <time>2022-05-14 15:13:12</time>
      </trkpt>
      <trkpt lat="10.03165" lon="-84.12603">
        <ele>1227.8</ele>
        <time>2022-05-14 15:13:13</time>
      </trkpt>
      <trkpt lat="10.03178" lon="-84.12604">
        <ele>1227.2</ele>
        <time>2022-05-14 15:13:14</time>
      </trkpt>
      <trkpt lat="10.03189" lon="-84.12604">
        <ele>1227.2</ele>
        <time>2022-05-14 15:13:15</time>
      </trkpt>
      <trkpt lat="10.03201" lon="-84.12607">
        <ele>1227</ele>
        <time>2022-05-14 15:13:16</time>
      </trkpt>
      <trkpt lat="10.03201" lon="-84.12607">
        <ele>1227</ele>
        <time>2022-05-14 15:13:17</time>
      </trkpt>
      <trkpt lat="10.03217" lon="-84.1262">
        <ele>1227.2</ele>
        <time>2022-05-14 15:13:18</time>
      </trkpt>
      <trkpt lat="10.03223" lon="-84.12628">
        <ele>1227.4</ele>
        <time>2022-05-14 15:13:19</time>
      </trkpt>
      <trkpt lat="10.03226" lon="-84.12636">
        <ele>1227.8</ele>
        <time>2022-05-14 15:13:20</time>
      </trkpt>
      <trkpt lat="10.03229" lon="-84.12644">
        <ele>1228.2</ele>
        <time>2022-05-14 15:13:21</time>
      </trkpt>
      <trkpt lat="10.03232" lon="-84.12653">
        <ele>1228.4</ele>
        <time>2022-05-14 15:13:22</time>
      </trkpt>
      <trkpt lat="10.03233" lon="-84.12661">
        <ele>1228.6</ele>
        <time>2022-05-14 15:13:23</time>
      </trkpt>
      <trkpt lat="10.03235" lon="-84.12669">
        <ele>1228.6</ele>
        <time>2022-05-14 15:13:24</time>
      </trkpt>
      <trkpt lat="10.03237" lon="-84.12677">
        <ele>1228.8</ele>
        <time>2022-05-14 15:13:25</time>
      </trkpt>
      <trkpt lat="10.0324" lon="-84.12684">
        <ele>1229.2</ele>
        <time>2022-05-14 15:13:26</time>
      </trkpt>
      <trkpt lat="10.03243" lon="-84.12691">
        <ele>1229.4</ele>
        <time>2022-05-14 15:13:27</time>
      </trkpt>
      <trkpt lat="10.03243" lon="-84.12691">
        <ele>1229.6</ele>
        <time>2022-05-14 15:13:28</time>
      </trkpt>
      <trkpt lat="10.0325" lon="-84.12703">
        <ele>1229.8</ele>
        <time>2022-05-14 15:13:29</time>
      </trkpt>
      <trkpt lat="10.03253" lon="-84.12708">
        <ele>1230</ele>
        <time>2022-05-14 15:13:30</time>
      </trkpt>
      <trkpt lat="10.03257" lon="-84.12714">
        <ele>1230.2</ele>
        <time>2022-05-14 15:13:31</time>
      </trkpt>
      <trkpt lat="10.03261" lon="-84.12719">
        <ele>1230.4</ele>
        <time>2022-05-14 15:13:32</time>
      </trkpt>
      <trkpt lat="10.03265" lon="-84.12723">
        <ele>1230.4</ele>
        <time>2022-05-14 15:13:33</time>
      </trkpt>
      <trkpt lat="10.03268" lon="-84.12729">
        <ele>1230.6</ele>
        <time>2022-05-14 15:13:34</time>
      </trkpt>
      <trkpt lat="10.03272" lon="-84.12734">
        <ele>1230.8</ele>
        <time>2022-05-14 15:13:35</time>
      </trkpt>
      <trkpt lat="10.03275" lon="-84.12738">
        <ele>1231</ele>
        <time>2022-05-14 15:13:36</time>
      </trkpt>
      <trkpt lat="10.03279" lon="-84.12742">
        <ele>1231.2</ele>
        <time>2022-05-14 15:13:37</time>
      </trkpt>
      <trkpt lat="10.03279" lon="-84.12742">
        <ele>1231.2</ele>
        <time>2022-05-14 15:13:38</time>
      </trkpt>
      <trkpt lat="10.03286" lon="-84.1275">
        <ele>1231.4</ele>
        <time>2022-05-14 15:13:39</time>
      </trkpt>
      <trkpt lat="10.03289" lon="-84.12753">
        <ele>1231.6</ele>
        <time>2022-05-14 15:13:40</time>
      </trkpt>
      <trkpt lat="10.03293" lon="-84.12757">
        <ele>1232</ele>
        <time>2022-05-14 15:13:41</time>
      </trkpt>
      <trkpt lat="10.03296" lon="-84.12761">
        <ele>1232.2</ele>
        <time>2022-05-14 15:13:42</time>
      </trkpt>
      <trkpt lat="10.033" lon="-84.12764">
        <ele>1232.4</ele>
        <time>2022-05-14 15:13:43</time>
      </trkpt>
      <trkpt lat="10.03304" lon="-84.12768">
        <ele>1232.6</ele>
        <time>2022-05-14 15:13:44</time>
      </trkpt>
      <trkpt lat="10.03308" lon="-84.12771">
        <ele>1232.8</ele>
        <time>2022-05-14 15:13:45</time>
      </trkpt>
      <trkpt lat="10.03312" lon="-84.12774">
        <ele>1233.2</ele>
        <time>2022-05-14 15:13:46</time>
      </trkpt>
      <trkpt lat="10.03316" lon="-84.12777">
        <ele>1233.4</ele>
        <time>2022-05-14 15:13:47</time>
      </trkpt>
      <trkpt lat="10.03316" lon="-84.12777">
        <ele>1234</ele>
        <time>2022-05-14 15:13:48</time>
      </trkpt>
      <trkpt lat="10.03316" lon="-84.12777">
        <ele>1234.4</ele>
        <time>2022-05-14 15:13:49</time>
      </trkpt>
      <trkpt lat="10.03327" lon="-84.12786">
        <ele>1234.8</ele>
        <time>2022-05-14 15:13:50</time>
      </trkpt>
      <trkpt lat="10.0333" lon="-84.12788">
        <ele>1235.4</ele>
        <time>2022-05-14 15:13:51</time>
      </trkpt>
      <trkpt lat="10.03334" lon="-84.1279">
        <ele>1235.8</ele>
        <time>2022-05-14 15:13:52</time>
      </trkpt>
      <trkpt lat="10.03338" lon="-84.12793">
        <ele>1236.4</ele>
        <time>2022-05-14 15:13:53</time>
      </trkpt>
      <trkpt lat="10.03342" lon="-84.12796">
        <ele>1237</ele>
        <time>2022-05-14 15:13:54</time>
      </trkpt>
      <trkpt lat="10.03347" lon="-84.12797">
        <ele>1237.6</ele>
        <time>2022-05-14 15:13:55</time>
      </trkpt>
      <trkpt lat="10.0335" lon="-84.12799">
        <ele>1238</ele>
        <time>2022-05-14 15:13:56</time>
      </trkpt>
      <trkpt lat="10.03354" lon="-84.128">
        <ele>1238.6</ele>
        <time>2022-05-14 15:13:57</time>
      </trkpt>
      <trkpt lat="10.03354" lon="-84.128">
        <ele>1239</ele>
        <time>2022-05-14 15:13:58</time>
      </trkpt>
      <trkpt lat="10.03354" lon="-84.128">
        <ele>1239</ele>
        <time>2022-05-14 15:13:59</time>
      </trkpt>
      <trkpt lat="10.03365" lon="-84.12804">
        <ele>1239.4</ele>
        <time>2022-05-14 15:14:00</time>
      </trkpt>
      <trkpt lat="10.03368" lon="-84.12805">
        <ele>1239.8</ele>
        <time>2022-05-14 15:14:01</time>
      </trkpt>
      <trkpt lat="10.03372" lon="-84.12807">
        <ele>1240</ele>
        <time>2022-05-14 15:14:02</time>
      </trkpt>
      <trkpt lat="10.03375" lon="-84.12808">
        <ele>1240.2</ele>
        <time>2022-05-14 15:14:03</time>
      </trkpt>
      <trkpt lat="10.03378" lon="-84.12808">
        <ele>1240.6</ele>
        <time>2022-05-14 15:14:04</time>
      </trkpt>
      <trkpt lat="10.03382" lon="-84.12809">
        <ele>1240.8</ele>
        <time>2022-05-14 15:14:05</time>
      </trkpt>
      <trkpt lat="10.03385" lon="-84.1281">
        <ele>1241</ele>
        <time>2022-05-14 15:14:06</time>
      </trkpt>
      <trkpt lat="10.03389" lon="-84.1281">
        <ele>1241</ele>
        <time>2022-05-14 15:14:07</time>
      </trkpt>
      <trkpt lat="10.03393" lon="-84.1281">
        <ele>1241.2</ele>
        <time>2022-05-14 15:14:08</time>
      </trkpt>
      <trkpt lat="10.03393" lon="-84.1281">
        <ele>1241.2</ele>
        <time>2022-05-14 15:14:09</time>
      </trkpt>
      <trkpt lat="10.034" lon="-84.12812">
        <ele>1241.2</ele>
        <time>2022-05-14 15:14:10</time>
      </trkpt>
      <trkpt lat="10.03404" lon="-84.12812">
        <ele>1241.4</ele>
        <time>2022-05-14 15:14:11</time>
      </trkpt>
      <trkpt lat="10.03407" lon="-84.12813">
        <ele>1241.4</ele>
        <time>2022-05-14 15:14:12</time>
      </trkpt>
      <trkpt lat="10.03411" lon="-84.12813">
        <ele>1241.2</ele>
        <time>2022-05-14 15:14:13</time>
      </trkpt>
      <trkpt lat="10.03415" lon="-84.12813">
        <ele>1241.2</ele>
        <time>2022-05-14 15:14:14</time>
      </trkpt>
      <trkpt lat="10.03419" lon="-84.12812">
        <ele>1241</ele>
        <time>2022-05-14 15:14:15</time>
      </trkpt>
      <trkpt lat="10.03423" lon="-84.12812">
        <ele>1241</ele>
        <time>2022-05-14 15:14:16</time>
      </trkpt>
      <trkpt lat="10.03427" lon="-84.12811">
        <ele>1240.6</ele>
        <time>2022-05-14 15:14:17</time>
      </trkpt>
      <trkpt lat="10.03432" lon="-84.1281">
        <ele>1240.4</ele>
        <time>2022-05-14 15:14:18</time>
      </trkpt>
      <trkpt lat="10.03442" lon="-84.12805">
        <ele>1240</ele>
        <time>2022-05-14 15:14:19</time>
      </trkpt>
      <trkpt lat="10.03442" lon="-84.12805">
        <ele>1240</ele>
        <time>2022-05-14 15:14:20</time>
      </trkpt>
      <trkpt lat="10.03448" lon="-84.12803">
        <ele>1239.8</ele>
        <time>2022-05-14 15:14:21</time>
      </trkpt>
      <trkpt lat="10.03454" lon="-84.12801">
        <ele>1239.2</ele>
        <time>2022-05-14 15:14:22</time>
      </trkpt>
      <trkpt lat="10.03461" lon="-84.12799">
        <ele>1238.6</ele>
        <time>2022-05-14 15:14:23</time>
      </trkpt>
      <trkpt lat="10.03468" lon="-84.128">
        <ele>1238</ele>
        <time>2022-05-14 15:14:24</time>
      </trkpt>
      <trkpt lat="10.03474" lon="-84.12802">
        <ele>1237</ele>
        <time>2022-05-14 15:14:25</time>
      </trkpt>
      <trkpt lat="10.03479" lon="-84.12812">
        <ele>1236.2</ele>
        <time>2022-05-14 15:14:26</time>
      </trkpt>
      <trkpt lat="10.03481" lon="-84.1282">
        <ele>1235.4</ele>
        <time>2022-05-14 15:14:27</time>
      </trkpt>
      <trkpt lat="10.03483" lon="-84.1283">
        <ele>1234.6</ele>
        <time>2022-05-14 15:14:28</time>
      </trkpt>
      <trkpt lat="10.03487" lon="-84.12839">
        <ele>1233.6</ele>
        <time>2022-05-14 15:14:29</time>
      </trkpt>
      <trkpt lat="10.03487" lon="-84.12839">
        <ele>1232.4</ele>
        <time>2022-05-14 15:14:30</time>
      </trkpt>
      <trkpt lat="10.035" lon="-84.12856">
        <ele>1231.2</ele>
        <time>2022-05-14 15:14:31</time>
      </trkpt>
      <trkpt lat="10.03511" lon="-84.12858">
        <ele>1230.4</ele>
        <time>2022-05-14 15:14:32</time>
      </trkpt>
      <trkpt lat="10.03521" lon="-84.12862">
        <ele>1230.2</ele>
        <time>2022-05-14 15:14:33</time>
      </trkpt>
      <trkpt lat="10.03531" lon="-84.12866">
        <ele>1230.4</ele>
        <time>2022-05-14 15:14:34</time>
      </trkpt>
      <trkpt lat="10.03539" lon="-84.12871">
        <ele>1230.6</ele>
        <time>2022-05-14 15:14:35</time>
      </trkpt>
      <trkpt lat="10.03547" lon="-84.12876">
        <ele>1231</ele>
        <time>2022-05-14 15:14:36</time>
      </trkpt>
      <trkpt lat="10.03554" lon="-84.12882">
        <ele>1231.4</ele>
        <time>2022-05-14 15:14:37</time>
      </trkpt>
      <trkpt lat="10.0356" lon="-84.12888">
        <ele>1231.8</ele>
        <time>2022-05-14 15:14:38</time>
      </trkpt>
      <trkpt lat="10.0356" lon="-84.12888">
        <ele>1232.2</ele>
        <time>2022-05-14 15:14:39</time>
      </trkpt>
      <trkpt lat="10.03579" lon="-84.12899">
        <ele>1232.6</ele>
        <time>2022-05-14 15:14:40</time>
      </trkpt>
      <trkpt lat="10.03579" lon="-84.12899">
        <ele>1232.6</ele>
        <time>2022-05-14 15:14:41</time>
      </trkpt>
      <trkpt lat="10.03585" lon="-84.129">
        <ele>1233</ele>
        <time>2022-05-14 15:14:42</time>
      </trkpt>
      <trkpt lat="10.0359" lon="-84.12903">
        <ele>1233.4</ele>
        <time>2022-05-14 15:14:43</time>
      </trkpt>
      <trkpt lat="10.03596" lon="-84.12904">
        <ele>1233.8</ele>
        <time>2022-05-14 15:14:44</time>
      </trkpt>
      <trkpt lat="10.03601" lon="-84.12906">
        <ele>1234.2</ele>
        <time>2022-05-14 15:14:45</time>
      </trkpt>
      <trkpt lat="10.03607" lon="-84.12907">
        <ele>1234.6</ele>
        <time>2022-05-14 15:14:46</time>
      </trkpt>
      <trkpt lat="10.03612" lon="-84.12908">
        <ele>1235</ele>
        <time>2022-05-14 15:14:47</time>
      </trkpt>
      <trkpt lat="10.03617" lon="-84.12909">
        <ele>1235.2</ele>
        <time>2022-05-14 15:14:48</time>
      </trkpt>
      <trkpt lat="10.03622" lon="-84.1291">
        <ele>1235.4</ele>
        <time>2022-05-14 15:14:49</time>
      </trkpt>
      <trkpt lat="10.03622" lon="-84.1291">
        <ele>1235.8</ele>
        <time>2022-05-14 15:14:50</time>
      </trkpt>
      <trkpt lat="10.03622" lon="-84.1291">
        <ele>1236.2</ele>
        <time>2022-05-14 15:14:51</time>
      </trkpt>
      <trkpt lat="10.03635" lon="-84.12913">
        <ele>1236.6</ele>
        <time>2022-05-14 15:14:52</time>
      </trkpt>
      <trkpt lat="10.0364" lon="-84.12913">
        <ele>1236.8</ele>
        <time>2022-05-14 15:14:53</time>
      </trkpt>
      <trkpt lat="10.03644" lon="-84.12915">
        <ele>1237.2</ele>
        <time>2022-05-14 15:14:54</time>
      </trkpt>
      <trkpt lat="10.03649" lon="-84.12916">
        <ele>1237.4</ele>
        <time>2022-05-14 15:14:55</time>
      </trkpt>
      <trkpt lat="10.03654" lon="-84.12916">
        <ele>1237.6</ele>
        <time>2022-05-14 15:14:56</time>
      </trkpt>
      <trkpt lat="10.03659" lon="-84.12918">
        <ele>1238</ele>
        <time>2022-05-14 15:14:57</time>
      </trkpt>
      <trkpt lat="10.03663" lon="-84.12918">
        <ele>1238.2</ele>
        <time>2022-05-14 15:14:58</time>
      </trkpt>
      <trkpt lat="10.03668" lon="-84.12919">
        <ele>1238.4</ele>
        <time>2022-05-14 15:14:59</time>
      </trkpt>
      <trkpt lat="10.03678" lon="-84.1292">
        <ele>1238.8</ele>
        <time>2022-05-14 15:15:00</time>
      </trkpt>
      <trkpt lat="10.03682" lon="-84.12921">
        <ele>1239.2</ele>
        <time>2022-05-14 15:15:01</time>
      </trkpt>
      <trkpt lat="10.03682" lon="-84.12921">
        <ele>1239.2</ele>
        <time>2022-05-14 15:15:02</time>
      </trkpt>
      <trkpt lat="10.03687" lon="-84.12922">
        <ele>1239.4</ele>
        <time>2022-05-14 15:15:03</time>
      </trkpt>
      <trkpt lat="10.03692" lon="-84.12923">
        <ele>1239.8</ele>
        <time>2022-05-14 15:15:04</time>
      </trkpt>
      <trkpt lat="10.03697" lon="-84.12923">
        <ele>1240</ele>
        <time>2022-05-14 15:15:05</time>
      </trkpt>
      <trkpt lat="10.03701" lon="-84.12923">
        <ele>1240.2</ele>
        <time>2022-05-14 15:15:06</time>
      </trkpt>
      <trkpt lat="10.03706" lon="-84.12925">
        <ele>1240.4</ele>
        <time>2022-05-14 15:15:07</time>
      </trkpt>
      <trkpt lat="10.03711" lon="-84.12926">
        <ele>1240.8</ele>
        <time>2022-05-14 15:15:08</time>
      </trkpt>
      <trkpt lat="10.03716" lon="-84.12927">
        <ele>1241</ele>
        <time>2022-05-14 15:15:09</time>
      </trkpt>
      <trkpt lat="10.03721" lon="-84.12928">
        <ele>1241.2</ele>
        <time>2022-05-14 15:15:10</time>
      </trkpt>
      <trkpt lat="10.03731" lon="-84.1293">
        <ele>1241.2</ele>
        <time>2022-05-14 15:15:11</time>
      </trkpt>
      <trkpt lat="10.03731" lon="-84.1293">
        <ele>1241.4</ele>
        <time>2022-05-14 15:15:12</time>
      </trkpt>
      <trkpt lat="10.03736" lon="-84.12931">
        <ele>1241.6</ele>
        <time>2022-05-14 15:15:13</time>
      </trkpt>
      <trkpt lat="10.03741" lon="-84.12933">
        <ele>1241.6</ele>
        <time>2022-05-14 15:15:14</time>
      </trkpt>
      <trkpt lat="10.03746" lon="-84.12934">
        <ele>1241.8</ele>
        <time>2022-05-14 15:15:15</time>
      </trkpt>
      <trkpt lat="10.03751" lon="-84.12936">
        <ele>1241.6</ele>
        <time>2022-05-14 15:15:16</time>
      </trkpt>
      <trkpt lat="10.03757" lon="-84.12937">
        <ele>1241.6</ele>
        <time>2022-05-14 15:15:17</time>
      </trkpt>
      <trkpt lat="10.03763" lon="-84.12938">
        <ele>1241.6</ele>
        <time>2022-05-14 15:15:18</time>
      </trkpt>
      <trkpt lat="10.03768" lon="-84.1294">
        <ele>1241.6</ele>
        <time>2022-05-14 15:15:19</time>
      </trkpt>
      <trkpt lat="10.03774" lon="-84.12942">
        <ele>1241.6</ele>
        <time>2022-05-14 15:15:20</time>
      </trkpt>
      <trkpt lat="10.03785" lon="-84.12945">
        <ele>1241.4</ele>
        <time>2022-05-14 15:15:21</time>
      </trkpt>
      <trkpt lat="10.03791" lon="-84.12948">
        <ele>1241.4</ele>
        <time>2022-05-14 15:15:22</time>
      </trkpt>
      <trkpt lat="10.03791" lon="-84.12948">
        <ele>1241.4</ele>
        <time>2022-05-14 15:15:23</time>
      </trkpt>
      <trkpt lat="10.03796" lon="-84.12949">
        <ele>1241.4</ele>
        <time>2022-05-14 15:15:24</time>
      </trkpt>
      <trkpt lat="10.03802" lon="-84.12951">
        <ele>1241.4</ele>
        <time>2022-05-14 15:15:25</time>
      </trkpt>
      <trkpt lat="10.03807" lon="-84.12952">
        <ele>1241.4</ele>
        <time>2022-05-14 15:15:26</time>
      </trkpt>
      <trkpt lat="10.03812" lon="-84.12954">
        <ele>1241.6</ele>
        <time>2022-05-14 15:15:27</time>
      </trkpt>
      <trkpt lat="10.03817" lon="-84.12956">
        <ele>1242</ele>
        <time>2022-05-14 15:15:28</time>
      </trkpt>
      <trkpt lat="10.03822" lon="-84.12957">
        <ele>1242.2</ele>
        <time>2022-05-14 15:15:29</time>
      </trkpt>
      <trkpt lat="10.03827" lon="-84.12959">
        <ele>1242.4</ele>
        <time>2022-05-14 15:15:30</time>
      </trkpt>
      <trkpt lat="10.03827" lon="-84.12959">
        <ele>1242.6</ele>
        <time>2022-05-14 15:15:31</time>
      </trkpt>
      <trkpt lat="10.0384" lon="-84.12966">
        <ele>1243</ele>
        <time>2022-05-14 15:15:32</time>
      </trkpt>
      <trkpt lat="10.0384" lon="-84.12966">
        <ele>1243.2</ele>
        <time>2022-05-14 15:15:33</time>
      </trkpt>
      <trkpt lat="10.03844" lon="-84.12969">
        <ele>1243.6</ele>
        <time>2022-05-14 15:15:34</time>
      </trkpt>
      <trkpt lat="10.03848" lon="-84.12972">
        <ele>1243.8</ele>
        <time>2022-05-14 15:15:35</time>
      </trkpt>
      <trkpt lat="10.03851" lon="-84.12974">
        <ele>1244.2</ele>
        <time>2022-05-14 15:15:36</time>
      </trkpt>
      <trkpt lat="10.03854" lon="-84.12978">
        <ele>1244.6</ele>
        <time>2022-05-14 15:15:37</time>
      </trkpt>
      <trkpt lat="10.03858" lon="-84.12981">
        <ele>1245</ele>
        <time>2022-05-14 15:15:38</time>
      </trkpt>
      <trkpt lat="10.03861" lon="-84.12984">
        <ele>1245.4</ele>
        <time>2022-05-14 15:15:39</time>
      </trkpt>
      <trkpt lat="10.03865" lon="-84.12987">
        <ele>1245.8</ele>
        <time>2022-05-14 15:15:40</time>
      </trkpt>
      <trkpt lat="10.03865" lon="-84.12987">
        <ele>1246.2</ele>
        <time>2022-05-14 15:15:41</time>
      </trkpt>
      <trkpt lat="10.03876" lon="-84.12995">
        <ele>1246.6</ele>
        <time>2022-05-14 15:15:42</time>
      </trkpt>
      <trkpt lat="10.0388" lon="-84.12997">
        <ele>1246.8</ele>
        <time>2022-05-14 15:15:43</time>
      </trkpt>
      <trkpt lat="10.0388" lon="-84.12997">
        <ele>1246.8</ele>
        <time>2022-05-14 15:15:44</time>
      </trkpt>
      <trkpt lat="10.03883" lon="-84.13001">
        <ele>1247.2</ele>
        <time>2022-05-14 15:15:45</time>
      </trkpt>
      <trkpt lat="10.03887" lon="-84.13003">
        <ele>1247.2</ele>
        <time>2022-05-14 15:15:46</time>
      </trkpt>
      <trkpt lat="10.03891" lon="-84.13007">
        <ele>1247.6</ele>
        <time>2022-05-14 15:15:47</time>
      </trkpt>
      <trkpt lat="10.03895" lon="-84.1301">
        <ele>1247.8</ele>
        <time>2022-05-14 15:15:48</time>
      </trkpt>
      <trkpt lat="10.03898" lon="-84.13014">
        <ele>1248.2</ele>
        <time>2022-05-14 15:15:49</time>
      </trkpt>
      <trkpt lat="10.03902" lon="-84.13018">
        <ele>1248.4</ele>
        <time>2022-05-14 15:15:50</time>
      </trkpt>
      <trkpt lat="10.03905" lon="-84.13022">
        <ele>1248.8</ele>
        <time>2022-05-14 15:15:51</time>
      </trkpt>
      <trkpt lat="10.03905" lon="-84.13022">
        <ele>1248.8</ele>
        <time>2022-05-14 15:15:52</time>
      </trkpt>
      <trkpt lat="10.03917" lon="-84.13033">
        <ele>1249</ele>
        <time>2022-05-14 15:15:53</time>
      </trkpt>
      <trkpt lat="10.03917" lon="-84.13033">
        <ele>1249</ele>
        <time>2022-05-14 15:15:54</time>
      </trkpt>
      <trkpt lat="10.03921" lon="-84.13038">
        <ele>1249.2</ele>
        <time>2022-05-14 15:15:55</time>
      </trkpt>
      <trkpt lat="10.03925" lon="-84.13041">
        <ele>1249.4</ele>
        <time>2022-05-14 15:15:56</time>
      </trkpt>
      <trkpt lat="10.03929" lon="-84.13045">
        <ele>1249.4</ele>
        <time>2022-05-14 15:15:57</time>
      </trkpt>
      <trkpt lat="10.03933" lon="-84.13048">
        <ele>1249.6</ele>
        <time>2022-05-14 15:15:58</time>
      </trkpt>
      <trkpt lat="10.03937" lon="-84.13053">
        <ele>1249.8</ele>
        <time>2022-05-14 15:15:59</time>
      </trkpt>
      <trkpt lat="10.03942" lon="-84.13057">
        <ele>1250</ele>
        <time>2022-05-14 15:16:00</time>
      </trkpt>
      <trkpt lat="10.03946" lon="-84.13061">
        <ele>1250.2</ele>
        <time>2022-05-14 15:16:01</time>
      </trkpt>
      <trkpt lat="10.03953" lon="-84.13068">
        <ele>1250.4</ele>
        <time>2022-05-14 15:16:02</time>
      </trkpt>
      <trkpt lat="10.03957" lon="-84.13073">
        <ele>1250.4</ele>
        <time>2022-05-14 15:16:03</time>
      </trkpt>
      <trkpt lat="10.03962" lon="-84.13077">
        <ele>1250.6</ele>
        <time>2022-05-14 15:16:04</time>
      </trkpt>
      <trkpt lat="10.03962" lon="-84.13077">
        <ele>1250.6</ele>
        <time>2022-05-14 15:16:05</time>
      </trkpt>
      <trkpt lat="10.03966" lon="-84.13081">
        <ele>1250.8</ele>
        <time>2022-05-14 15:16:06</time>
      </trkpt>
      <trkpt lat="10.0397" lon="-84.13085">
        <ele>1250.8</ele>
        <time>2022-05-14 15:16:07</time>
      </trkpt>
      <trkpt lat="10.03975" lon="-84.13089">
        <ele>1251</ele>
        <time>2022-05-14 15:16:08</time>
      </trkpt>
      <trkpt lat="10.03979" lon="-84.13093">
        <ele>1251.2</ele>
        <time>2022-05-14 15:16:09</time>
      </trkpt>
      <trkpt lat="10.03983" lon="-84.13096">
        <ele>1251.4</ele>
        <time>2022-05-14 15:16:10</time>
      </trkpt>
      <trkpt lat="10.03988" lon="-84.13099">
        <ele>1251.4</ele>
        <time>2022-05-14 15:16:11</time>
      </trkpt>
      <trkpt lat="10.03993" lon="-84.13104">
        <ele>1251.6</ele>
        <time>2022-05-14 15:16:12</time>
      </trkpt>
      <trkpt lat="10.04003" lon="-84.13108">
        <ele>1251.8</ele>
        <time>2022-05-14 15:16:13</time>
      </trkpt>
      <trkpt lat="10.04009" lon="-84.1311">
        <ele>1252</ele>
        <time>2022-05-14 15:16:14</time>
      </trkpt>
      <trkpt lat="10.04009" lon="-84.1311">
        <ele>1252</ele>
        <time>2022-05-14 15:16:15</time>
      </trkpt>
      <trkpt lat="10.04014" lon="-84.1311">
        <ele>1252</ele>
        <time>2022-05-14 15:16:16</time>
      </trkpt>
      <trkpt lat="10.0402" lon="-84.13111">
        <ele>1252</ele>
        <time>2022-05-14 15:16:17</time>
      </trkpt>
      <trkpt lat="10.04026" lon="-84.13112">
        <ele>1252</ele>
        <time>2022-05-14 15:16:18</time>
      </trkpt>
      <trkpt lat="10.04032" lon="-84.13112">
        <ele>1252.2</ele>
        <time>2022-05-14 15:16:19</time>
      </trkpt>
      <trkpt lat="10.04038" lon="-84.13111">
        <ele>1252.2</ele>
        <time>2022-05-14 15:16:20</time>
      </trkpt>
      <trkpt lat="10.04044" lon="-84.13111">
        <ele>1252.2</ele>
        <time>2022-05-14 15:16:21</time>
      </trkpt>
      <trkpt lat="10.04044" lon="-84.13111">
        <ele>1252.2</ele>
        <time>2022-05-14 15:16:22</time>
      </trkpt>
      <trkpt lat="10.04061" lon="-84.13109">
        <ele>1252.4</ele>
        <time>2022-05-14 15:16:23</time>
      </trkpt>
      <trkpt lat="10.04068" lon="-84.13108">
        <ele>1252.4</ele>
        <time>2022-05-14 15:16:24</time>
      </trkpt>
      <trkpt lat="10.04073" lon="-84.13107">
        <ele>1252.6</ele>
        <time>2022-05-14 15:16:25</time>
      </trkpt>
      <trkpt lat="10.04073" lon="-84.13107">
        <ele>1252.6</ele>
        <time>2022-05-14 15:16:26</time>
      </trkpt>
      <trkpt lat="10.04079" lon="-84.13106">
        <ele>1252.6</ele>
        <time>2022-05-14 15:16:27</time>
      </trkpt>
      <trkpt lat="10.04085" lon="-84.13106">
        <ele>1252.8</ele>
        <time>2022-05-14 15:16:28</time>
      </trkpt>
      <trkpt lat="10.04091" lon="-84.13106">
        <ele>1252.8</ele>
        <time>2022-05-14 15:16:29</time>
      </trkpt>
      <trkpt lat="10.04097" lon="-84.13107">
        <ele>1252.8</ele>
        <time>2022-05-14 15:16:30</time>
      </trkpt>
      <trkpt lat="10.04103" lon="-84.13108">
        <ele>1252.8</ele>
        <time>2022-05-14 15:16:31</time>
      </trkpt>
      <trkpt lat="10.04109" lon="-84.1311">
        <ele>1253</ele>
        <time>2022-05-14 15:16:32</time>
      </trkpt>
      <trkpt lat="10.04109" lon="-84.1311">
        <ele>1253</ele>
        <time>2022-05-14 15:16:33</time>
      </trkpt>
      <trkpt lat="10.04126" lon="-84.13116">
        <ele>1253.2</ele>
        <time>2022-05-14 15:16:34</time>
      </trkpt>
      <trkpt lat="10.04131" lon="-84.13118">
        <ele>1253.2</ele>
        <time>2022-05-14 15:16:35</time>
      </trkpt>
      <trkpt lat="10.04131" lon="-84.13118">
        <ele>1253.4</ele>
        <time>2022-05-14 15:16:36</time>
      </trkpt>
      <trkpt lat="10.04136" lon="-84.13119">
        <ele>1253.6</ele>
        <time>2022-05-14 15:16:37</time>
      </trkpt>
      <trkpt lat="10.04141" lon="-84.13121">
        <ele>1254</ele>
        <time>2022-05-14 15:16:38</time>
      </trkpt>
      <trkpt lat="10.04146" lon="-84.13124">
        <ele>1254.2</ele>
        <time>2022-05-14 15:16:39</time>
      </trkpt>
      <trkpt lat="10.04151" lon="-84.13125">
        <ele>1254.4</ele>
        <time>2022-05-14 15:16:40</time>
      </trkpt>
      <trkpt lat="10.04156" lon="-84.13126">
        <ele>1254.8</ele>
        <time>2022-05-14 15:16:41</time>
      </trkpt>
      <trkpt lat="10.04161" lon="-84.13128">
        <ele>1255</ele>
        <time>2022-05-14 15:16:42</time>
      </trkpt>
      <trkpt lat="10.04171" lon="-84.13131">
        <ele>1255.2</ele>
        <time>2022-05-14 15:16:43</time>
      </trkpt>
      <trkpt lat="10.04175" lon="-84.13133">
        <ele>1255.4</ele>
        <time>2022-05-14 15:16:44</time>
      </trkpt>
      <trkpt lat="10.04179" lon="-84.13134">
        <ele>1255.8</ele>
        <time>2022-05-14 15:16:45</time>
      </trkpt>
      <trkpt lat="10.04184" lon="-84.13135">
        <ele>1256</ele>
        <time>2022-05-14 15:16:46</time>
      </trkpt>
      <trkpt lat="10.04184" lon="-84.13135">
        <ele>1256</ele>
        <time>2022-05-14 15:16:47</time>
      </trkpt>
      <trkpt lat="10.04188" lon="-84.13136">
        <ele>1256.4</ele>
        <time>2022-05-14 15:16:48</time>
      </trkpt>
      <trkpt lat="10.04192" lon="-84.13138">
        <ele>1256.6</ele>
        <time>2022-05-14 15:16:49</time>
      </trkpt>
      <trkpt lat="10.04196" lon="-84.13139">
        <ele>1257</ele>
        <time>2022-05-14 15:16:50</time>
      </trkpt>
      <trkpt lat="10.042" lon="-84.1314">
        <ele>1257.4</ele>
        <time>2022-05-14 15:16:51</time>
      </trkpt>
      <trkpt lat="10.04204" lon="-84.13141">
        <ele>1257.6</ele>
        <time>2022-05-14 15:16:52</time>
      </trkpt>
      <trkpt lat="10.04208" lon="-84.13142">
        <ele>1258</ele>
        <time>2022-05-14 15:16:53</time>
      </trkpt>
      <trkpt lat="10.04215" lon="-84.13144">
        <ele>1258.4</ele>
        <time>2022-05-14 15:16:54</time>
      </trkpt>
      <trkpt lat="10.04218" lon="-84.13146">
        <ele>1258.6</ele>
        <time>2022-05-14 15:16:55</time>
      </trkpt>
      <trkpt lat="10.04222" lon="-84.13147">
        <ele>1259</ele>
        <time>2022-05-14 15:16:56</time>
      </trkpt>
      <trkpt lat="10.04222" lon="-84.13147">
        <ele>1259.4</ele>
        <time>2022-05-14 15:16:57</time>
      </trkpt>
      <trkpt lat="10.04225" lon="-84.13149">
        <ele>1259.6</ele>
        <time>2022-05-14 15:16:58</time>
      </trkpt>
      <trkpt lat="10.04229" lon="-84.13149">
        <ele>1259.8</ele>
        <time>2022-05-14 15:16:59</time>
      </trkpt>
      <trkpt lat="10.04232" lon="-84.13151">
        <ele>1260</ele>
        <time>2022-05-14 15:17:00</time>
      </trkpt>
      <trkpt lat="10.04235" lon="-84.13151">
        <ele>1260.4</ele>
        <time>2022-05-14 15:17:01</time>
      </trkpt>
      <trkpt lat="10.04239" lon="-84.13153">
        <ele>1260.6</ele>
        <time>2022-05-14 15:17:02</time>
      </trkpt>
      <trkpt lat="10.04243" lon="-84.13154">
        <ele>1261</ele>
        <time>2022-05-14 15:17:03</time>
      </trkpt>
      <trkpt lat="10.04251" lon="-84.13156">
        <ele>1261.4</ele>
        <time>2022-05-14 15:17:04</time>
      </trkpt>
      <trkpt lat="10.04255" lon="-84.13158">
        <ele>1261.6</ele>
        <time>2022-05-14 15:17:05</time>
      </trkpt>
      <trkpt lat="10.04259" lon="-84.13158">
        <ele>1261.8</ele>
        <time>2022-05-14 15:17:06</time>
      </trkpt>
      <trkpt lat="10.04263" lon="-84.13159">
        <ele>1262.2</ele>
        <time>2022-05-14 15:17:07</time>
      </trkpt>
      <trkpt lat="10.04263" lon="-84.13159">
        <ele>1262.2</ele>
        <time>2022-05-14 15:17:08</time>
      </trkpt>
      <trkpt lat="10.04266" lon="-84.1316">
        <ele>1262.4</ele>
        <time>2022-05-14 15:17:09</time>
      </trkpt>
      <trkpt lat="10.0427" lon="-84.13162">
        <ele>1262.6</ele>
        <time>2022-05-14 15:17:10</time>
      </trkpt>
      <trkpt lat="10.04274" lon="-84.13162">
        <ele>1262.8</ele>
        <time>2022-05-14 15:17:11</time>
      </trkpt>
      <trkpt lat="10.04278" lon="-84.13164">
        <ele>1263</ele>
        <time>2022-05-14 15:17:12</time>
      </trkpt>
      <trkpt lat="10.04282" lon="-84.13164">
        <ele>1263.2</ele>
        <time>2022-05-14 15:17:13</time>
      </trkpt>
      <trkpt lat="10.04282" lon="-84.13164">
        <ele>1263.6</ele>
        <time>2022-05-14 15:17:14</time>
      </trkpt>
      <trkpt lat="10.04292" lon="-84.13168">
        <ele>1263.8</ele>
        <time>2022-05-14 15:17:15</time>
      </trkpt>
      <trkpt lat="10.04296" lon="-84.13169">
        <ele>1264.2</ele>
        <time>2022-05-14 15:17:16</time>
      </trkpt>
      <trkpt lat="10.04299" lon="-84.13171">
        <ele>1264.4</ele>
        <time>2022-05-14 15:17:17</time>
      </trkpt>
      <trkpt lat="10.04299" lon="-84.13171">
        <ele>1264.6</ele>
        <time>2022-05-14 15:17:18</time>
      </trkpt>
      <trkpt lat="10.04303" lon="-84.13171">
        <ele>1264.8</ele>
        <time>2022-05-14 15:17:19</time>
      </trkpt>
      <trkpt lat="10.04307" lon="-84.13172">
        <ele>1265.2</ele>
        <time>2022-05-14 15:17:20</time>
      </trkpt>
      <trkpt lat="10.04311" lon="-84.13173">
        <ele>1265.6</ele>
        <time>2022-05-14 15:17:21</time>
      </trkpt>
      <trkpt lat="10.04314" lon="-84.13175">
        <ele>1265.8</ele>
        <time>2022-05-14 15:17:22</time>
      </trkpt>
      <trkpt lat="10.04318" lon="-84.13176">
        <ele>1266.2</ele>
        <time>2022-05-14 15:17:23</time>
      </trkpt>
      <trkpt lat="10.04318" lon="-84.13176">
        <ele>1266.4</ele>
        <time>2022-05-14 15:17:24</time>
      </trkpt>
      <trkpt lat="10.04329" lon="-84.1318">
        <ele>1266.8</ele>
        <time>2022-05-14 15:17:25</time>
      </trkpt>
      <trkpt lat="10.04332" lon="-84.1318">
        <ele>1267</ele>
        <time>2022-05-14 15:17:26</time>
      </trkpt>
      <trkpt lat="10.04336" lon="-84.13182">
        <ele>1267.4</ele>
        <time>2022-05-14 15:17:27</time>
      </trkpt>
      <trkpt lat="10.04339" lon="-84.13183">
        <ele>1267.6</ele>
        <time>2022-05-14 15:17:28</time>
      </trkpt>
      <trkpt lat="10.04339" lon="-84.13183">
        <ele>1267.6</ele>
        <time>2022-05-14 15:17:29</time>
      </trkpt>
      <trkpt lat="10.04343" lon="-84.13184">
        <ele>1268</ele>
        <time>2022-05-14 15:17:30</time>
      </trkpt>
      <trkpt lat="10.04346" lon="-84.13185">
        <ele>1268.4</ele>
        <time>2022-05-14 15:17:31</time>
      </trkpt>
      <trkpt lat="10.0435" lon="-84.13186">
        <ele>1268.8</ele>
        <time>2022-05-14 15:17:32</time>
      </trkpt>
      <trkpt lat="10.04353" lon="-84.13187">
        <ele>1269</ele>
        <time>2022-05-14 15:17:33</time>
      </trkpt>
      <trkpt lat="10.04357" lon="-84.13188">
        <ele>1269.2</ele>
        <time>2022-05-14 15:17:34</time>
      </trkpt>
      <trkpt lat="10.04364" lon="-84.13191">
        <ele>1269.4</ele>
        <time>2022-05-14 15:17:35</time>
      </trkpt>
      <trkpt lat="10.04367" lon="-84.13191">
        <ele>1269.8</ele>
        <time>2022-05-14 15:17:36</time>
      </trkpt>
      <trkpt lat="10.04371" lon="-84.13193">
        <ele>1270</ele>
        <time>2022-05-14 15:17:37</time>
      </trkpt>
      <trkpt lat="10.04374" lon="-84.13193">
        <ele>1270.4</ele>
        <time>2022-05-14 15:17:38</time>
      </trkpt>
      <trkpt lat="10.04374" lon="-84.13193">
        <ele>1270.6</ele>
        <time>2022-05-14 15:17:39</time>
      </trkpt>
      <trkpt lat="10.04378" lon="-84.13195">
        <ele>1270.6</ele>
        <time>2022-05-14 15:17:40</time>
      </trkpt>
      <trkpt lat="10.04382" lon="-84.13196">
        <ele>1270.8</ele>
        <time>2022-05-14 15:17:41</time>
      </trkpt>
      <trkpt lat="10.04386" lon="-84.13198">
        <ele>1271</ele>
        <time>2022-05-14 15:17:42</time>
      </trkpt>
      <trkpt lat="10.0439" lon="-84.13198">
        <ele>1271.4</ele>
        <time>2022-05-14 15:17:43</time>
      </trkpt>
      <trkpt lat="10.04393" lon="-84.132">
        <ele>1271.6</ele>
        <time>2022-05-14 15:17:44</time>
      </trkpt>
      <trkpt lat="10.04401" lon="-84.13201">
        <ele>1271.6</ele>
        <time>2022-05-14 15:17:45</time>
      </trkpt>
      <trkpt lat="10.04404" lon="-84.13202">
        <ele>1271.6</ele>
        <time>2022-05-14 15:17:46</time>
      </trkpt>
      <trkpt lat="10.04408" lon="-84.13204">
        <ele>1271.8</ele>
        <time>2022-05-14 15:17:47</time>
      </trkpt>
      <trkpt lat="10.04412" lon="-84.13205">
        <ele>1272</ele>
        <time>2022-05-14 15:17:48</time>
      </trkpt>
      <trkpt lat="10.04416" lon="-84.13207">
        <ele>1272.2</ele>
        <time>2022-05-14 15:17:49</time>
      </trkpt>
      <trkpt lat="10.04416" lon="-84.13207">
        <ele>1272.2</ele>
        <time>2022-05-14 15:17:50</time>
      </trkpt>
      <trkpt lat="10.04419" lon="-84.13207">
        <ele>1272.4</ele>
        <time>2022-05-14 15:17:51</time>
      </trkpt>
      <trkpt lat="10.04423" lon="-84.13209">
        <ele>1272.4</ele>
        <time>2022-05-14 15:17:52</time>
      </trkpt>
      <trkpt lat="10.04426" lon="-84.1321">
        <ele>1272.8</ele>
        <time>2022-05-14 15:17:53</time>
      </trkpt>
      <trkpt lat="10.0443" lon="-84.1321">
        <ele>1272.8</ele>
        <time>2022-05-14 15:17:54</time>
      </trkpt>
      <trkpt lat="10.04434" lon="-84.13212">
        <ele>1273</ele>
        <time>2022-05-14 15:17:55</time>
      </trkpt>
      <trkpt lat="10.04442" lon="-84.13215">
        <ele>1272.8</ele>
        <time>2022-05-14 15:17:56</time>
      </trkpt>
      <trkpt lat="10.04446" lon="-84.13216">
        <ele>1273</ele>
        <time>2022-05-14 15:17:57</time>
      </trkpt>
      <trkpt lat="10.0445" lon="-84.13218">
        <ele>1273.2</ele>
        <time>2022-05-14 15:17:58</time>
      </trkpt>
      <trkpt lat="10.04454" lon="-84.1322">
        <ele>1273.4</ele>
        <time>2022-05-14 15:17:59</time>
      </trkpt>
      <trkpt lat="10.04454" lon="-84.1322">
        <ele>1273.6</ele>
        <time>2022-05-14 15:18:00</time>
      </trkpt>
      <trkpt lat="10.04458" lon="-84.1322">
        <ele>1273.6</ele>
        <time>2022-05-14 15:18:01</time>
      </trkpt>
      <trkpt lat="10.04462" lon="-84.13222">
        <ele>1273.8</ele>
        <time>2022-05-14 15:18:02</time>
      </trkpt>
      <trkpt lat="10.04466" lon="-84.13222">
        <ele>1273.8</ele>
        <time>2022-05-14 15:18:03</time>
      </trkpt>
      <trkpt lat="10.0447" lon="-84.13224">
        <ele>1274</ele>
        <time>2022-05-14 15:18:04</time>
      </trkpt>
      <trkpt lat="10.0447" lon="-84.13224">
        <ele>1274.2</ele>
        <time>2022-05-14 15:18:05</time>
      </trkpt>
      <trkpt lat="10.04482" lon="-84.13227">
        <ele>1274.2</ele>
        <time>2022-05-14 15:18:06</time>
      </trkpt>
      <trkpt lat="10.04485" lon="-84.13229">
        <ele>1274.2</ele>
        <time>2022-05-14 15:18:07</time>
      </trkpt>
      <trkpt lat="10.04489" lon="-84.1323">
        <ele>1274.4</ele>
        <time>2022-05-14 15:18:08</time>
      </trkpt>
      <trkpt lat="10.04493" lon="-84.13231">
        <ele>1274.2</ele>
        <time>2022-05-14 15:18:09</time>
      </trkpt>
      <trkpt lat="10.04496" lon="-84.13232">
        <ele>1274.2</ele>
        <time>2022-05-14 15:18:10</time>
      </trkpt>
      <trkpt lat="10.04496" lon="-84.13232">
        <ele>1274.2</ele>
        <time>2022-05-14 15:18:11</time>
      </trkpt>
      <trkpt lat="10.045" lon="-84.13233">
        <ele>1274.2</ele>
        <time>2022-05-14 15:18:12</time>
      </trkpt>
      <trkpt lat="10.04505" lon="-84.13235">
        <ele>1274.2</ele>
        <time>2022-05-14 15:18:13</time>
      </trkpt>
      <trkpt lat="10.0451" lon="-84.13236">
        <ele>1274.2</ele>
        <time>2022-05-14 15:18:14</time>
      </trkpt>
      <trkpt lat="10.04515" lon="-84.13237">
        <ele>1274</ele>
        <time>2022-05-14 15:18:15</time>
      </trkpt>
      <trkpt lat="10.04515" lon="-84.13237">
        <ele>1273.6</ele>
        <time>2022-05-14 15:18:16</time>
      </trkpt>
      <trkpt lat="10.04531" lon="-84.13241">
        <ele>1273.4</ele>
        <time>2022-05-14 15:18:17</time>
      </trkpt>
      <trkpt lat="10.04537" lon="-84.13242">
        <ele>1273.2</ele>
        <time>2022-05-14 15:18:18</time>
      </trkpt>
      <trkpt lat="10.04543" lon="-84.13244">
        <ele>1272.8</ele>
        <time>2022-05-14 15:18:19</time>
      </trkpt>
      <trkpt lat="10.0455" lon="-84.13245">
        <ele>1272.6</ele>
        <time>2022-05-14 15:18:20</time>
      </trkpt>
      <trkpt lat="10.0455" lon="-84.13245">
        <ele>1272.2</ele>
        <time>2022-05-14 15:18:21</time>
      </trkpt>
      <trkpt lat="10.04557" lon="-84.13247">
        <ele>1272</ele>
        <time>2022-05-14 15:18:22</time>
      </trkpt>
      <trkpt lat="10.04565" lon="-84.13249">
        <ele>1271.6</ele>
        <time>2022-05-14 15:18:23</time>
      </trkpt>
      <trkpt lat="10.04573" lon="-84.13251">
        <ele>1271.4</ele>
        <time>2022-05-14 15:18:24</time>
      </trkpt>
      <trkpt lat="10.04581" lon="-84.13252">
        <ele>1271</ele>
        <time>2022-05-14 15:18:25</time>
      </trkpt>
      <trkpt lat="10.04596" lon="-84.13258">
        <ele>1270.6</ele>
        <time>2022-05-14 15:18:26</time>
      </trkpt>
      <trkpt lat="10.04604" lon="-84.13262">
        <ele>1270.4</ele>
        <time>2022-05-14 15:18:27</time>
      </trkpt>
      <trkpt lat="10.04611" lon="-84.13267">
        <ele>1270</ele>
        <time>2022-05-14 15:18:28</time>
      </trkpt>
      <trkpt lat="10.04618" lon="-84.13272">
        <ele>1269.6</ele>
        <time>2022-05-14 15:18:29</time>
      </trkpt>
      <trkpt lat="10.04624" lon="-84.13278">
        <ele>1269</ele>
        <time>2022-05-14 15:18:30</time>
      </trkpt>
      <trkpt lat="10.0463" lon="-84.13283">
        <ele>1268.8</ele>
        <time>2022-05-14 15:18:31</time>
      </trkpt>
      <trkpt lat="10.0463" lon="-84.13283">
        <ele>1268.8</ele>
        <time>2022-05-14 15:18:32</time>
      </trkpt>
      <trkpt lat="10.04637" lon="-84.13289">
        <ele>1268</ele>
        <time>2022-05-14 15:18:33</time>
      </trkpt>
      <trkpt lat="10.04644" lon="-84.13295">
        <ele>1267.2</ele>
        <time>2022-05-14 15:18:34</time>
      </trkpt>
      <trkpt lat="10.0465" lon="-84.13302">
        <ele>1265.8</ele>
        <time>2022-05-14 15:18:35</time>
      </trkpt>
      <trkpt lat="10.04658" lon="-84.13309">
        <ele>1265.4</ele>
        <time>2022-05-14 15:18:36</time>
      </trkpt>
      <trkpt lat="10.0467" lon="-84.1332">
        <ele>1265.6</ele>
        <time>2022-05-14 15:18:37</time>
      </trkpt>
      <trkpt lat="10.04676" lon="-84.13325">
        <ele>1266.2</ele>
        <time>2022-05-14 15:18:38</time>
      </trkpt>
      <trkpt lat="10.0468" lon="-84.13331">
        <ele>1266.8</ele>
        <time>2022-05-14 15:18:39</time>
      </trkpt>
      <trkpt lat="10.04685" lon="-84.13335">
        <ele>1267.4</ele>
        <time>2022-05-14 15:18:40</time>
      </trkpt>
      <trkpt lat="10.04688" lon="-84.13339">
        <ele>1268.2</ele>
        <time>2022-05-14 15:18:41</time>
      </trkpt>
      <trkpt lat="10.04688" lon="-84.13339">
        <ele>1268.8</ele>
        <time>2022-05-14 15:18:42</time>
      </trkpt>
      <trkpt lat="10.04692" lon="-84.13343">
        <ele>1269.4</ele>
        <time>2022-05-14 15:18:43</time>
      </trkpt>
      <trkpt lat="10.04695" lon="-84.13346">
        <ele>1270</ele>
        <time>2022-05-14 15:18:44</time>
      </trkpt>
      <trkpt lat="10.04698" lon="-84.13348">
        <ele>1270.4</ele>
        <time>2022-05-14 15:18:45</time>
      </trkpt>
      <trkpt lat="10.04701" lon="-84.1335">
        <ele>1271</ele>
        <time>2022-05-14 15:18:46</time>
      </trkpt>
      <trkpt lat="10.04707" lon="-84.13353">
        <ele>1271.4</ele>
        <time>2022-05-14 15:18:47</time>
      </trkpt>
      <trkpt lat="10.0471" lon="-84.13355">
        <ele>1271.8</ele>
        <time>2022-05-14 15:18:48</time>
      </trkpt>
      <trkpt lat="10.04713" lon="-84.13357">
        <ele>1272.2</ele>
        <time>2022-05-14 15:18:49</time>
      </trkpt>
      <trkpt lat="10.04716" lon="-84.13359">
        <ele>1272.8</ele>
        <time>2022-05-14 15:18:50</time>
      </trkpt>
      <trkpt lat="10.04719" lon="-84.1336">
        <ele>1273.2</ele>
        <time>2022-05-14 15:18:51</time>
      </trkpt>
      <trkpt lat="10.04721" lon="-84.13361">
        <ele>1273.4</ele>
        <time>2022-05-14 15:18:52</time>
      </trkpt>
      <trkpt lat="10.04721" lon="-84.13361">
        <ele>1273.4</ele>
        <time>2022-05-14 15:18:53</time>
      </trkpt>
      <trkpt lat="10.04724" lon="-84.13363">
        <ele>1273.8</ele>
        <time>2022-05-14 15:18:54</time>
      </trkpt>
      <trkpt lat="10.04727" lon="-84.13364">
        <ele>1274</ele>
        <time>2022-05-14 15:18:55</time>
      </trkpt>
      <trkpt lat="10.04729" lon="-84.13367">
        <ele>1274.4</ele>
        <time>2022-05-14 15:18:56</time>
      </trkpt>
      <trkpt lat="10.04729" lon="-84.13367">
        <ele>1274.8</ele>
        <time>2022-05-14 15:18:57</time>
      </trkpt>
      <trkpt lat="10.04737" lon="-84.13371">
        <ele>1275.2</ele>
        <time>2022-05-14 15:18:58</time>
      </trkpt>
      <trkpt lat="10.04739" lon="-84.13373">
        <ele>1275.4</ele>
        <time>2022-05-14 15:18:59</time>
      </trkpt>
      <trkpt lat="10.04742" lon="-84.13375">
        <ele>1275.8</ele>
        <time>2022-05-14 15:19:00</time>
      </trkpt>
      <trkpt lat="10.04744" lon="-84.13377">
        <ele>1276.2</ele>
        <time>2022-05-14 15:19:01</time>
      </trkpt>
      <trkpt lat="10.04747" lon="-84.13379">
        <ele>1276.6</ele>
        <time>2022-05-14 15:19:02</time>
      </trkpt>
      <trkpt lat="10.04747" lon="-84.13379">
        <ele>1277</ele>
        <time>2022-05-14 15:19:03</time>
      </trkpt>
      <trkpt lat="10.0475" lon="-84.13381">
        <ele>1277.4</ele>
        <time>2022-05-14 15:19:04</time>
      </trkpt>
      <trkpt lat="10.04753" lon="-84.13384">
        <ele>1277.6</ele>
        <time>2022-05-14 15:19:05</time>
      </trkpt>
      <trkpt lat="10.04755" lon="-84.13385">
        <ele>1278</ele>
        <time>2022-05-14 15:19:06</time>
      </trkpt>
      <trkpt lat="10.04755" lon="-84.13385">
        <ele>1278.2</ele>
        <time>2022-05-14 15:19:07</time>
      </trkpt>
      <trkpt lat="10.04763" lon="-84.13391">
        <ele>1278.6</ele>
        <time>2022-05-14 15:19:08</time>
      </trkpt>
      <trkpt lat="10.04766" lon="-84.13393">
        <ele>1279</ele>
        <time>2022-05-14 15:19:09</time>
      </trkpt>
      <trkpt lat="10.04768" lon="-84.13396">
        <ele>1279.2</ele>
        <time>2022-05-14 15:19:10</time>
      </trkpt>
      <trkpt lat="10.04771" lon="-84.13397">
        <ele>1279.6</ele>
        <time>2022-05-14 15:19:11</time>
      </trkpt>
      <trkpt lat="10.04773" lon="-84.13399">
        <ele>1280</ele>
        <time>2022-05-14 15:19:12</time>
      </trkpt>
      <trkpt lat="10.04776" lon="-84.13402">
        <ele>1280.2</ele>
        <time>2022-05-14 15:19:13</time>
      </trkpt>
      <trkpt lat="10.04776" lon="-84.13402">
        <ele>1280.2</ele>
        <time>2022-05-14 15:19:14</time>
      </trkpt>
      <trkpt lat="10.04778" lon="-84.13405">
        <ele>1280.4</ele>
        <time>2022-05-14 15:19:15</time>
      </trkpt>
      <trkpt lat="10.04781" lon="-84.13407">
        <ele>1280.6</ele>
        <time>2022-05-14 15:19:16</time>
      </trkpt>
      <trkpt lat="10.04784" lon="-84.13408">
        <ele>1281</ele>
        <time>2022-05-14 15:19:17</time>
      </trkpt>
      <trkpt lat="10.04784" lon="-84.13408">
        <ele>1281.2</ele>
        <time>2022-05-14 15:19:18</time>
      </trkpt>
      <trkpt lat="10.04792" lon="-84.13415">
        <ele>1281.4</ele>
        <time>2022-05-14 15:19:19</time>
      </trkpt>
      <trkpt lat="10.04795" lon="-84.13418">
        <ele>1281.8</ele>
        <time>2022-05-14 15:19:20</time>
      </trkpt>
      <trkpt lat="10.04797" lon="-84.13419">
        <ele>1282</ele>
        <time>2022-05-14 15:19:21</time>
      </trkpt>
      <trkpt lat="10.048" lon="-84.13422">
        <ele>1282.2</ele>
        <time>2022-05-14 15:19:22</time>
      </trkpt>
      <trkpt lat="10.04803" lon="-84.13424">
        <ele>1282.6</ele>
        <time>2022-05-14 15:19:23</time>
      </trkpt>
      <trkpt lat="10.04803" lon="-84.13424">
        <ele>1282.8</ele>
        <time>2022-05-14 15:19:24</time>
      </trkpt>
      <trkpt lat="10.04807" lon="-84.13427">
        <ele>1283</ele>
        <time>2022-05-14 15:19:25</time>
      </trkpt>
      <trkpt lat="10.04809" lon="-84.1343">
        <ele>1283.4</ele>
        <time>2022-05-14 15:19:26</time>
      </trkpt>
      <trkpt lat="10.04812" lon="-84.13433">
        <ele>1283.6</ele>
        <time>2022-05-14 15:19:27</time>
      </trkpt>
      <trkpt lat="10.04819" lon="-84.13437">
        <ele>1283.8</ele>
        <time>2022-05-14 15:19:28</time>
      </trkpt>
      <trkpt lat="10.04821" lon="-84.1344">
        <ele>1284</ele>
        <time>2022-05-14 15:19:29</time>
      </trkpt>
      <trkpt lat="10.04825" lon="-84.13442">
        <ele>1284.2</ele>
        <time>2022-05-14 15:19:30</time>
      </trkpt>
      <trkpt lat="10.04828" lon="-84.13444">
        <ele>1284.4</ele>
        <time>2022-05-14 15:19:31</time>
      </trkpt>
      <trkpt lat="10.04831" lon="-84.13447">
        <ele>1284.4</ele>
        <time>2022-05-14 15:19:32</time>
      </trkpt>
      <trkpt lat="10.04835" lon="-84.1345">
        <ele>1284.6</ele>
        <time>2022-05-14 15:19:33</time>
      </trkpt>
      <trkpt lat="10.04838" lon="-84.13452">
        <ele>1284.8</ele>
        <time>2022-05-14 15:19:34</time>
      </trkpt>
      <trkpt lat="10.04838" lon="-84.13452">
        <ele>1284.8</ele>
        <time>2022-05-14 15:19:35</time>
      </trkpt>
      <trkpt lat="10.04841" lon="-84.13455">
        <ele>1284.8</ele>
        <time>2022-05-14 15:19:36</time>
      </trkpt>
      <trkpt lat="10.04845" lon="-84.13458">
        <ele>1285</ele>
        <time>2022-05-14 15:19:37</time>
      </trkpt>
      <trkpt lat="10.04848" lon="-84.1346">
        <ele>1285</ele>
        <time>2022-05-14 15:19:38</time>
      </trkpt>
      <trkpt lat="10.04855" lon="-84.13466">
        <ele>1285.2</ele>
        <time>2022-05-14 15:19:39</time>
      </trkpt>
      <trkpt lat="10.04858" lon="-84.13468">
        <ele>1285.2</ele>
        <time>2022-05-14 15:19:40</time>
      </trkpt>
      <trkpt lat="10.04862" lon="-84.13471">
        <ele>1285.2</ele>
        <time>2022-05-14 15:19:41</time>
      </trkpt>
      <trkpt lat="10.04866" lon="-84.13473">
        <ele>1285.2</ele>
        <time>2022-05-14 15:19:42</time>
      </trkpt>
      <trkpt lat="10.04869" lon="-84.13476">
        <ele>1285.2</ele>
        <time>2022-05-14 15:19:43</time>
      </trkpt>
      <trkpt lat="10.04873" lon="-84.13478">
        <ele>1285.2</ele>
        <time>2022-05-14 15:19:44</time>
      </trkpt>
      <trkpt lat="10.04873" lon="-84.13478">
        <ele>1285</ele>
        <time>2022-05-14 15:19:45</time>
      </trkpt>
      <trkpt lat="10.04877" lon="-84.1348">
        <ele>1284.8</ele>
        <time>2022-05-14 15:19:46</time>
      </trkpt>
      <trkpt lat="10.04881" lon="-84.13482">
        <ele>1284.8</ele>
        <time>2022-05-14 15:19:47</time>
      </trkpt>
      <trkpt lat="10.04881" lon="-84.13482">
        <ele>1284.6</ele>
        <time>2022-05-14 15:19:48</time>
      </trkpt>
      <trkpt lat="10.04894" lon="-84.1349">
        <ele>1284.2</ele>
        <time>2022-05-14 15:19:49</time>
      </trkpt>
      <trkpt lat="10.04898" lon="-84.13493">
        <ele>1284</ele>
        <time>2022-05-14 15:19:50</time>
      </trkpt>
      <trkpt lat="10.04901" lon="-84.13494">
        <ele>1283.6</ele>
        <time>2022-05-14 15:19:51</time>
      </trkpt>
      <trkpt lat="10.04903" lon="-84.13496">
        <ele>1283.4</ele>
        <time>2022-05-14 15:19:52</time>
      </trkpt>
      <trkpt lat="10.04905" lon="-84.13496">
        <ele>1283.2</ele>
        <time>2022-05-14 15:19:53</time>
      </trkpt>
      <trkpt lat="10.04907" lon="-84.13497">
        <ele>1283</ele>
        <time>2022-05-14 15:19:54</time>
      </trkpt>
      <trkpt lat="10.04909" lon="-84.13497">
        <ele>1283</ele>
        <time>2022-05-14 15:19:55</time>
      </trkpt>
      <trkpt lat="10.04909" lon="-84.13497">
        <ele>1283</ele>
        <time>2022-05-14 15:19:56</time>
      </trkpt>
      <trkpt lat="10.0491" lon="-84.13499">
        <ele>1282.8</ele>
        <time>2022-05-14 15:19:57</time>
      </trkpt>
      <trkpt lat="10.04912" lon="-84.135">
        <ele>1282.8</ele>
        <time>2022-05-14 15:19:58</time>
      </trkpt>
      <trkpt lat="10.04912" lon="-84.135">
        <ele>1282.6</ele>
        <time>2022-05-14 15:19:59</time>
      </trkpt>
      <trkpt lat="10.04924" lon="-84.13507">
        <ele>1282.4</ele>
        <time>2022-05-14 15:20:00</time>
      </trkpt>
      <trkpt lat="10.04928" lon="-84.13509">
        <ele>1282.4</ele>
        <time>2022-05-14 15:20:01</time>
      </trkpt>
      <trkpt lat="10.04933" lon="-84.1351">
        <ele>1282.4</ele>
        <time>2022-05-14 15:20:02</time>
      </trkpt>
      <trkpt lat="10.04937" lon="-84.13512">
        <ele>1282.4</ele>
        <time>2022-05-14 15:20:03</time>
      </trkpt>
      <trkpt lat="10.04941" lon="-84.13515">
        <ele>1282.6</ele>
        <time>2022-05-14 15:20:04</time>
      </trkpt>
      <trkpt lat="10.04945" lon="-84.13516">
        <ele>1282.8</ele>
        <time>2022-05-14 15:20:05</time>
      </trkpt>
      <trkpt lat="10.04945" lon="-84.13516">
        <ele>1283.2</ele>
        <time>2022-05-14 15:20:06</time>
      </trkpt>
      <trkpt lat="10.04949" lon="-84.13518">
        <ele>1283.6</ele>
        <time>2022-05-14 15:20:07</time>
      </trkpt>
      <trkpt lat="10.04953" lon="-84.13521">
        <ele>1284</ele>
        <time>2022-05-14 15:20:08</time>
      </trkpt>
      <trkpt lat="10.0496" lon="-84.13525">
        <ele>1284.2</ele>
        <time>2022-05-14 15:20:09</time>
      </trkpt>
      <trkpt lat="10.04964" lon="-84.13526">
        <ele>1284.6</ele>
        <time>2022-05-14 15:20:10</time>
      </trkpt>
      <trkpt lat="10.04967" lon="-84.13527">
        <ele>1284.8</ele>
        <time>2022-05-14 15:20:11</time>
      </trkpt>
      <trkpt lat="10.0497" lon="-84.13529">
        <ele>1285</ele>
        <time>2022-05-14 15:20:12</time>
      </trkpt>
      <trkpt lat="10.04974" lon="-84.13531">
        <ele>1285.2</ele>
        <time>2022-05-14 15:20:13</time>
      </trkpt>
      <trkpt lat="10.04977" lon="-84.13533">
        <ele>1285.6</ele>
        <time>2022-05-14 15:20:14</time>
      </trkpt>
      <trkpt lat="10.04981" lon="-84.13534">
        <ele>1285.8</ele>
        <time>2022-05-14 15:20:15</time>
      </trkpt>
      <trkpt lat="10.04984" lon="-84.13536">
        <ele>1286.2</ele>
        <time>2022-05-14 15:20:16</time>
      </trkpt>
      <trkpt lat="10.04984" lon="-84.13536">
        <ele>1286.2</ele>
        <time>2022-05-14 15:20:17</time>
      </trkpt>
      <trkpt lat="10.04988" lon="-84.13538">
        <ele>1286.4</ele>
        <time>2022-05-14 15:20:18</time>
      </trkpt>
      <trkpt lat="10.04991" lon="-84.1354">
        <ele>1286.6</ele>
        <time>2022-05-14 15:20:19</time>
      </trkpt>
      <trkpt lat="10.04998" lon="-84.13543">
        <ele>1286.8</ele>
        <time>2022-05-14 15:20:20</time>
      </trkpt>
      <trkpt lat="10.05002" lon="-84.13545">
        <ele>1287</ele>
        <time>2022-05-14 15:20:21</time>
      </trkpt>
      <trkpt lat="10.05005" lon="-84.13547">
        <ele>1287.2</ele>
        <time>2022-05-14 15:20:22</time>
      </trkpt>
      <trkpt lat="10.05009" lon="-84.13549">
        <ele>1287.4</ele>
        <time>2022-05-14 15:20:23</time>
      </trkpt>
      <trkpt lat="10.05013" lon="-84.13551">
        <ele>1287.4</ele>
        <time>2022-05-14 15:20:24</time>
      </trkpt>
      <trkpt lat="10.05017" lon="-84.13552">
        <ele>1287.6</ele>
        <time>2022-05-14 15:20:25</time>
      </trkpt>
      <trkpt lat="10.05021" lon="-84.13554">
        <ele>1287.8</ele>
        <time>2022-05-14 15:20:26</time>
      </trkpt>
      <trkpt lat="10.05021" lon="-84.13554">
        <ele>1287.8</ele>
        <time>2022-05-14 15:20:27</time>
      </trkpt>
      <trkpt lat="10.05025" lon="-84.13554">
        <ele>1288</ele>
        <time>2022-05-14 15:20:28</time>
      </trkpt>
      <trkpt lat="10.05029" lon="-84.13556">
        <ele>1288.2</ele>
        <time>2022-05-14 15:20:29</time>
      </trkpt>
      <trkpt lat="10.05038" lon="-84.13556">
        <ele>1288.2</ele>
        <time>2022-05-14 15:20:30</time>
      </trkpt>
      <trkpt lat="10.05042" lon="-84.13556">
        <ele>1288.4</ele>
        <time>2022-05-14 15:20:31</time>
      </trkpt>
      <trkpt lat="10.05046" lon="-84.13558">
        <ele>1288.4</ele>
        <time>2022-05-14 15:20:32</time>
      </trkpt>
      <trkpt lat="10.0505" lon="-84.13558">
        <ele>1288.6</ele>
        <time>2022-05-14 15:20:33</time>
      </trkpt>
      <trkpt lat="10.05054" lon="-84.13558">
        <ele>1288.6</ele>
        <time>2022-05-14 15:20:34</time>
      </trkpt>
      <trkpt lat="10.05059" lon="-84.13558">
        <ele>1288.8</ele>
        <time>2022-05-14 15:20:35</time>
      </trkpt>
      <trkpt lat="10.05064" lon="-84.13556">
        <ele>1289</ele>
        <time>2022-05-14 15:20:36</time>
      </trkpt>
      <trkpt lat="10.05069" lon="-84.13556">
        <ele>1289.2</ele>
        <time>2022-05-14 15:20:37</time>
      </trkpt>
      <trkpt lat="10.05069" lon="-84.13556">
        <ele>1289.2</ele>
        <time>2022-05-14 15:20:38</time>
      </trkpt>
      <trkpt lat="10.05073" lon="-84.13556">
        <ele>1289.4</ele>
        <time>2022-05-14 15:20:39</time>
      </trkpt>
      <trkpt lat="10.05073" lon="-84.13556">
        <ele>1289.4</ele>
        <time>2022-05-14 15:20:40</time>
      </trkpt>
      <trkpt lat="10.05088" lon="-84.13554">
        <ele>1289.6</ele>
        <time>2022-05-14 15:20:41</time>
      </trkpt>
      <trkpt lat="10.05094" lon="-84.13554">
        <ele>1289.8</ele>
        <time>2022-05-14 15:20:42</time>
      </trkpt>
      <trkpt lat="10.05099" lon="-84.13554">
        <ele>1289.8</ele>
        <time>2022-05-14 15:20:43</time>
      </trkpt>
      <trkpt lat="10.05104" lon="-84.13553">
        <ele>1290</ele>
        <time>2022-05-14 15:20:44</time>
      </trkpt>
      <trkpt lat="10.0511" lon="-84.13552">
        <ele>1290</ele>
        <time>2022-05-14 15:20:45</time>
      </trkpt>
      <trkpt lat="10.05115" lon="-84.13552">
        <ele>1290</ele>
        <time>2022-05-14 15:20:46</time>
      </trkpt>
      <trkpt lat="10.0512" lon="-84.13551">
        <ele>1290</ele>
        <time>2022-05-14 15:20:47</time>
      </trkpt>
      <trkpt lat="10.0512" lon="-84.13551">
        <ele>1290</ele>
        <time>2022-05-14 15:20:48</time>
      </trkpt>
      <trkpt lat="10.05125" lon="-84.13551">
        <ele>1290</ele>
        <time>2022-05-14 15:20:49</time>
      </trkpt>
      <trkpt lat="10.05125" lon="-84.13551">
        <ele>1290.2</ele>
        <time>2022-05-14 15:20:50</time>
      </trkpt>
      <trkpt lat="10.05142" lon="-84.13551">
        <ele>1290.2</ele>
        <time>2022-05-14 15:20:51</time>
      </trkpt>
      <trkpt lat="10.05148" lon="-84.13551">
        <ele>1290.2</ele>
        <time>2022-05-14 15:20:52</time>
      </trkpt>
      <trkpt lat="10.05154" lon="-84.13552">
        <ele>1290.2</ele>
        <time>2022-05-14 15:20:53</time>
      </trkpt>
      <trkpt lat="10.0516" lon="-84.13553">
        <ele>1290.2</ele>
        <time>2022-05-14 15:20:54</time>
      </trkpt>
      <trkpt lat="10.05165" lon="-84.13554">
        <ele>1290.2</ele>
        <time>2022-05-14 15:20:55</time>
      </trkpt>
      <trkpt lat="10.05171" lon="-84.13555">
        <ele>1290.2</ele>
        <time>2022-05-14 15:20:56</time>
      </trkpt>
      <trkpt lat="10.05177" lon="-84.13556">
        <ele>1290.2</ele>
        <time>2022-05-14 15:20:57</time>
      </trkpt>
      <trkpt lat="10.05182" lon="-84.13558">
        <ele>1290.2</ele>
        <time>2022-05-14 15:20:58</time>
      </trkpt>
      <trkpt lat="10.05182" lon="-84.13558">
        <ele>1290.2</ele>
        <time>2022-05-14 15:20:59</time>
      </trkpt>
      <trkpt lat="10.05188" lon="-84.13559">
        <ele>1290.4</ele>
        <time>2022-05-14 15:21:00</time>
      </trkpt>
      <trkpt lat="10.05188" lon="-84.13559">
        <ele>1290.4</ele>
        <time>2022-05-14 15:21:01</time>
      </trkpt>
      <trkpt lat="10.05206" lon="-84.13561">
        <ele>1290.2</ele>
        <time>2022-05-14 15:21:02</time>
      </trkpt>
      <trkpt lat="10.05212" lon="-84.1356">
        <ele>1290.2</ele>
        <time>2022-05-14 15:21:03</time>
      </trkpt>
      <trkpt lat="10.05218" lon="-84.13558">
        <ele>1290.2</ele>
        <time>2022-05-14 15:21:04</time>
      </trkpt>
      <trkpt lat="10.05224" lon="-84.13556">
        <ele>1290.2</ele>
        <time>2022-05-14 15:21:05</time>
      </trkpt>
      <trkpt lat="10.0523" lon="-84.13554">
        <ele>1290.2</ele>
        <time>2022-05-14 15:21:06</time>
      </trkpt>
      <trkpt lat="10.05236" lon="-84.13552">
        <ele>1290.2</ele>
        <time>2022-05-14 15:21:07</time>
      </trkpt>
      <trkpt lat="10.05242" lon="-84.1355">
        <ele>1290</ele>
        <time>2022-05-14 15:21:08</time>
      </trkpt>
      <trkpt lat="10.05242" lon="-84.1355">
        <ele>1290</ele>
        <time>2022-05-14 15:21:09</time>
      </trkpt>
      <trkpt lat="10.05248" lon="-84.13547">
        <ele>1290</ele>
        <time>2022-05-14 15:21:10</time>
      </trkpt>
      <trkpt lat="10.05261" lon="-84.13541">
        <ele>1290.2</ele>
        <time>2022-05-14 15:21:11</time>
      </trkpt>
      <trkpt lat="10.05267" lon="-84.13539">
        <ele>1290</ele>
        <time>2022-05-14 15:21:12</time>
      </trkpt>
      <trkpt lat="10.05274" lon="-84.13537">
        <ele>1290</ele>
        <time>2022-05-14 15:21:13</time>
      </trkpt>
      <trkpt lat="10.05281" lon="-84.13534">
        <ele>1289.8</ele>
        <time>2022-05-14 15:21:14</time>
      </trkpt>
      <trkpt lat="10.05288" lon="-84.13532">
        <ele>1289.8</ele>
        <time>2022-05-14 15:21:15</time>
      </trkpt>
      <trkpt lat="10.05295" lon="-84.13531">
        <ele>1289.8</ele>
        <time>2022-05-14 15:21:16</time>
      </trkpt>
      <trkpt lat="10.05302" lon="-84.13529">
        <ele>1289.8</ele>
        <time>2022-05-14 15:21:17</time>
      </trkpt>
      <trkpt lat="10.05309" lon="-84.13529">
        <ele>1290</ele>
        <time>2022-05-14 15:21:18</time>
      </trkpt>
      <trkpt lat="10.05315" lon="-84.13527">
        <ele>1290.2</ele>
        <time>2022-05-14 15:21:19</time>
      </trkpt>
      <trkpt lat="10.05315" lon="-84.13527">
        <ele>1290.2</ele>
        <time>2022-05-14 15:21:20</time>
      </trkpt>
      <trkpt lat="10.05322" lon="-84.13526">
        <ele>1290.2</ele>
        <time>2022-05-14 15:21:21</time>
      </trkpt>
      <trkpt lat="10.05336" lon="-84.13525">
        <ele>1290.4</ele>
        <time>2022-05-14 15:21:22</time>
      </trkpt>
      <trkpt lat="10.05342" lon="-84.13524">
        <ele>1290.4</ele>
        <time>2022-05-14 15:21:23</time>
      </trkpt>
      <trkpt lat="10.05349" lon="-84.13523">
        <ele>1290.4</ele>
        <time>2022-05-14 15:21:24</time>
      </trkpt>
      <trkpt lat="10.05355" lon="-84.13522">
        <ele>1290.6</ele>
        <time>2022-05-14 15:21:25</time>
      </trkpt>
      <trkpt lat="10.05362" lon="-84.13522">
        <ele>1290.6</ele>
        <time>2022-05-14 15:21:26</time>
      </trkpt>
      <trkpt lat="10.05369" lon="-84.13521">
        <ele>1290.8</ele>
        <time>2022-05-14 15:21:27</time>
      </trkpt>
      <trkpt lat="10.05375" lon="-84.1352">
        <ele>1290.6</ele>
        <time>2022-05-14 15:21:28</time>
      </trkpt>
      <trkpt lat="10.05381" lon="-84.13519">
        <ele>1290.6</ele>
        <time>2022-05-14 15:21:29</time>
      </trkpt>
      <trkpt lat="10.05381" lon="-84.13519">
        <ele>1290.6</ele>
        <time>2022-05-14 15:21:30</time>
      </trkpt>
      <trkpt lat="10.05381" lon="-84.13519">
        <ele>1290.8</ele>
        <time>2022-05-14 15:21:31</time>
      </trkpt>
      <trkpt lat="10.05402" lon="-84.13517">
        <ele>1290.8</ele>
        <time>2022-05-14 15:21:32</time>
      </trkpt>
      <trkpt lat="10.05408" lon="-84.13516">
        <ele>1290.8</ele>
        <time>2022-05-14 15:21:33</time>
      </trkpt>
      <trkpt lat="10.05415" lon="-84.13515">
        <ele>1290.8</ele>
        <time>2022-05-14 15:21:34</time>
      </trkpt>
      <trkpt lat="10.05422" lon="-84.13514">
        <ele>1290.8</ele>
        <time>2022-05-14 15:21:35</time>
      </trkpt>
      <trkpt lat="10.05429" lon="-84.13513">
        <ele>1290.6</ele>
        <time>2022-05-14 15:21:36</time>
      </trkpt>
      <trkpt lat="10.05436" lon="-84.13512">
        <ele>1290.6</ele>
        <time>2022-05-14 15:21:37</time>
      </trkpt>
      <trkpt lat="10.05443" lon="-84.13511">
        <ele>1290.6</ele>
        <time>2022-05-14 15:21:38</time>
      </trkpt>
      <trkpt lat="10.05449" lon="-84.1351">
        <ele>1290.8</ele>
        <time>2022-05-14 15:21:39</time>
      </trkpt>
      <trkpt lat="10.05456" lon="-84.13509">
        <ele>1290.8</ele>
        <time>2022-05-14 15:21:40</time>
      </trkpt>
      <trkpt lat="10.05456" lon="-84.13509">
        <ele>1290.8</ele>
        <time>2022-05-14 15:21:41</time>
      </trkpt>
      <trkpt lat="10.05456" lon="-84.13509">
        <ele>1290.8</ele>
        <time>2022-05-14 15:21:42</time>
      </trkpt>
      <trkpt lat="10.05475" lon="-84.13502">
        <ele>1290.6</ele>
        <time>2022-05-14 15:21:43</time>
      </trkpt>
      <trkpt lat="10.05481" lon="-84.13497">
        <ele>1290.6</ele>
        <time>2022-05-14 15:21:44</time>
      </trkpt>
      <trkpt lat="10.05487" lon="-84.13493">
        <ele>1290.4</ele>
        <time>2022-05-14 15:21:45</time>
      </trkpt>
      <trkpt lat="10.05493" lon="-84.13489">
        <ele>1290.2</ele>
        <time>2022-05-14 15:21:46</time>
      </trkpt>
      <trkpt lat="10.05498" lon="-84.13484">
        <ele>1290.2</ele>
        <time>2022-05-14 15:21:47</time>
      </trkpt>
      <trkpt lat="10.05504" lon="-84.1348">
        <ele>1290.2</ele>
        <time>2022-05-14 15:21:48</time>
      </trkpt>
      <trkpt lat="10.0551" lon="-84.13476">
        <ele>1290.2</ele>
        <time>2022-05-14 15:21:49</time>
      </trkpt>
      <trkpt lat="10.05517" lon="-84.13473">
        <ele>1290.4</ele>
        <time>2022-05-14 15:21:50</time>
      </trkpt>
      <trkpt lat="10.05517" lon="-84.13473">
        <ele>1290.4</ele>
        <time>2022-05-14 15:21:51</time>
      </trkpt>
      <trkpt lat="10.0553" lon="-84.1347">
        <ele>1290.4</ele>
        <time>2022-05-14 15:21:52</time>
      </trkpt>
      <trkpt lat="10.05536" lon="-84.13468">
        <ele>1290.4</ele>
        <time>2022-05-14 15:21:53</time>
      </trkpt>
      <trkpt lat="10.05542" lon="-84.13467">
        <ele>1290.6</ele>
        <time>2022-05-14 15:21:54</time>
      </trkpt>
      <trkpt lat="10.05549" lon="-84.13467">
        <ele>1290.6</ele>
        <time>2022-05-14 15:21:55</time>
      </trkpt>
      <trkpt lat="10.05555" lon="-84.13467">
        <ele>1290.8</ele>
        <time>2022-05-14 15:21:56</time>
      </trkpt>
      <trkpt lat="10.05561" lon="-84.13466">
        <ele>1290.8</ele>
        <time>2022-05-14 15:21:57</time>
      </trkpt>
      <trkpt lat="10.05567" lon="-84.13465">
        <ele>1291</ele>
        <time>2022-05-14 15:21:58</time>
      </trkpt>
      <trkpt lat="10.05573" lon="-84.13464">
        <ele>1291</ele>
        <time>2022-05-14 15:21:59</time>
      </trkpt>
      <trkpt lat="10.05579" lon="-84.13464">
        <ele>1291.2</ele>
        <time>2022-05-14 15:22:00</time>
      </trkpt>
      <trkpt lat="10.05585" lon="-84.13464">
        <ele>1291.2</ele>
        <time>2022-05-14 15:22:01</time>
      </trkpt>
      <trkpt lat="10.05585" lon="-84.13464">
        <ele>1291.2</ele>
        <time>2022-05-14 15:22:02</time>
      </trkpt>
      <trkpt lat="10.05597" lon="-84.13463">
        <ele>1291.4</ele>
        <time>2022-05-14 15:22:03</time>
      </trkpt>
      <trkpt lat="10.05602" lon="-84.13462">
        <ele>1291.4</ele>
        <time>2022-05-14 15:22:04</time>
      </trkpt>
      <trkpt lat="10.05608" lon="-84.13464">
        <ele>1291.6</ele>
        <time>2022-05-14 15:22:05</time>
      </trkpt>
      <trkpt lat="10.05614" lon="-84.13467">
        <ele>1291.6</ele>
        <time>2022-05-14 15:22:06</time>
      </trkpt>
      <trkpt lat="10.05619" lon="-84.13471">
        <ele>1291.6</ele>
        <time>2022-05-14 15:22:07</time>
      </trkpt>
      <trkpt lat="10.05624" lon="-84.13474">
        <ele>1291.6</ele>
        <time>2022-05-14 15:22:08</time>
      </trkpt>
      <trkpt lat="10.05628" lon="-84.13479">
        <ele>1291.6</ele>
        <time>2022-05-14 15:22:09</time>
      </trkpt>
      <trkpt lat="10.05628" lon="-84.13484">
        <ele>1291.8</ele>
        <time>2022-05-14 15:22:10</time>
      </trkpt>
      <trkpt lat="10.05628" lon="-84.13484">
        <ele>1291.8</ele>
        <time>2022-05-14 15:22:11</time>
      </trkpt>
      <trkpt lat="10.05628" lon="-84.13484">
        <ele>1292</ele>
        <time>2022-05-14 15:22:12</time>
      </trkpt>
      <trkpt lat="10.05631" lon="-84.135">
        <ele>1292</ele>
        <time>2022-05-14 15:22:13</time>
      </trkpt>
      <trkpt lat="10.0563" lon="-84.13505">
        <ele>1292</ele>
        <time>2022-05-14 15:22:14</time>
      </trkpt>
      <trkpt lat="10.05629" lon="-84.1351">
        <ele>1292.2</ele>
        <time>2022-05-14 15:22:15</time>
      </trkpt>
      <trkpt lat="10.05627" lon="-84.13515">
        <ele>1292.4</ele>
        <time>2022-05-14 15:22:16</time>
      </trkpt>
      <trkpt lat="10.05624" lon="-84.13519">
        <ele>1292.6</ele>
        <time>2022-05-14 15:22:17</time>
      </trkpt>
      <trkpt lat="10.05621" lon="-84.13522">
        <ele>1292.8</ele>
        <time>2022-05-14 15:22:18</time>
      </trkpt>
      <trkpt lat="10.05618" lon="-84.13525">
        <ele>1293</ele>
        <time>2022-05-14 15:22:19</time>
      </trkpt>
      <trkpt lat="10.05614" lon="-84.13529">
        <ele>1293.2</ele>
        <time>2022-05-14 15:22:20</time>
      </trkpt>
      <trkpt lat="10.05611" lon="-84.13531">
        <ele>1293.6</ele>
        <time>2022-05-14 15:22:21</time>
      </trkpt>
      <trkpt lat="10.05611" lon="-84.13531">
        <ele>1293.8</ele>
        <time>2022-05-14 15:22:22</time>
      </trkpt>
      <trkpt lat="10.05611" lon="-84.13531">
        <ele>1293.8</ele>
        <time>2022-05-14 15:22:23</time>
      </trkpt>
      <trkpt lat="10.05603" lon="-84.13538">
        <ele>1294.2</ele>
        <time>2022-05-14 15:22:24</time>
      </trkpt>
      <trkpt lat="10.05601" lon="-84.13541">
        <ele>1294.4</ele>
        <time>2022-05-14 15:22:25</time>
      </trkpt>
      <trkpt lat="10.05599" lon="-84.13543">
        <ele>1294.8</ele>
        <time>2022-05-14 15:22:26</time>
      </trkpt>
      <trkpt lat="10.05597" lon="-84.13545">
        <ele>1295</ele>
        <time>2022-05-14 15:22:27</time>
      </trkpt>
      <trkpt lat="10.05595" lon="-84.13546">
        <ele>1295.2</ele>
        <time>2022-05-14 15:22:28</time>
      </trkpt>
      <trkpt lat="10.05593" lon="-84.13547">
        <ele>1295.4</ele>
        <time>2022-05-14 15:22:29</time>
      </trkpt>
      <trkpt lat="10.05591" lon="-84.13549">
        <ele>1295.8</ele>
        <time>2022-05-14 15:22:30</time>
      </trkpt>
      <trkpt lat="10.05588" lon="-84.13551">
        <ele>1296</ele>
        <time>2022-05-14 15:22:31</time>
      </trkpt>
      <trkpt lat="10.05588" lon="-84.13551">
        <ele>1296.4</ele>
        <time>2022-05-14 15:22:32</time>
      </trkpt>
      <trkpt lat="10.05588" lon="-84.13551">
        <ele>1296.6</ele>
        <time>2022-05-14 15:22:33</time>
      </trkpt>
      <trkpt lat="10.05583" lon="-84.13556">
        <ele>1297</ele>
        <time>2022-05-14 15:22:34</time>
      </trkpt>
      <trkpt lat="10.05581" lon="-84.13558">
        <ele>1297.2</ele>
        <time>2022-05-14 15:22:35</time>
      </trkpt>
      <trkpt lat="10.05579" lon="-84.1356">
        <ele>1297.4</ele>
        <time>2022-05-14 15:22:36</time>
      </trkpt>
      <trkpt lat="10.05578" lon="-84.13562">
        <ele>1297.8</ele>
        <time>2022-05-14 15:22:37</time>
      </trkpt>
      <trkpt lat="10.05576" lon="-84.13562">
        <ele>1298</ele>
        <time>2022-05-14 15:22:38</time>
      </trkpt>
      <trkpt lat="10.05575" lon="-84.13565">
        <ele>1298.2</ele>
        <time>2022-05-14 15:22:39</time>
      </trkpt>
      <trkpt lat="10.05573" lon="-84.13566">
        <ele>1298.4</ele>
        <time>2022-05-14 15:22:40</time>
      </trkpt>
      <trkpt lat="10.05572" lon="-84.13568">
        <ele>1298.8</ele>
        <time>2022-05-14 15:22:41</time>
      </trkpt>
      <trkpt lat="10.0557" lon="-84.1357">
        <ele>1299</ele>
        <time>2022-05-14 15:22:42</time>
      </trkpt>
      <trkpt lat="10.0557" lon="-84.1357">
        <ele>1299.4</ele>
        <time>2022-05-14 15:22:43</time>
      </trkpt>
      <trkpt lat="10.05567" lon="-84.13574">
        <ele>1299.4</ele>
        <time>2022-05-14 15:22:44</time>
      </trkpt>
      <trkpt lat="10.05564" lon="-84.13576">
        <ele>1299.6</ele>
        <time>2022-05-14 15:22:45</time>
      </trkpt>
      <trkpt lat="10.05563" lon="-84.13579">
        <ele>1299.8</ele>
        <time>2022-05-14 15:22:46</time>
      </trkpt>
      <trkpt lat="10.05561" lon="-84.13581">
        <ele>1300</ele>
        <time>2022-05-14 15:22:47</time>
      </trkpt>
      <trkpt lat="10.05559" lon="-84.13583">
        <ele>1300.2</ele>
        <time>2022-05-14 15:22:48</time>
      </trkpt>
      <trkpt lat="10.05558" lon="-84.13585">
        <ele>1300.6</ele>
        <time>2022-05-14 15:22:49</time>
      </trkpt>
      <trkpt lat="10.05556" lon="-84.13587">
        <ele>1300.8</ele>
        <time>2022-05-14 15:22:50</time>
      </trkpt>
      <trkpt lat="10.05554" lon="-84.13589">
        <ele>1301.2</ele>
        <time>2022-05-14 15:22:51</time>
      </trkpt>
      <trkpt lat="10.05552" lon="-84.13591">
        <ele>1301.4</ele>
        <time>2022-05-14 15:22:52</time>
      </trkpt>
      <trkpt lat="10.05552" lon="-84.13591">
        <ele>1301.6</ele>
        <time>2022-05-14 15:22:53</time>
      </trkpt>
      <trkpt lat="10.05548" lon="-84.13596">
        <ele>1302</ele>
        <time>2022-05-14 15:22:54</time>
      </trkpt>
      <trkpt lat="10.05546" lon="-84.13598">
        <ele>1302.2</ele>
        <time>2022-05-14 15:22:55</time>
      </trkpt>
      <trkpt lat="10.05544" lon="-84.13599">
        <ele>1302.4</ele>
        <time>2022-05-14 15:22:56</time>
      </trkpt>
      <trkpt lat="10.05543" lon="-84.13602">
        <ele>1302.6</ele>
        <time>2022-05-14 15:22:57</time>
      </trkpt>
      <trkpt lat="10.05541" lon="-84.13603">
        <ele>1302.8</ele>
        <time>2022-05-14 15:22:58</time>
      </trkpt>
      <trkpt lat="10.0554" lon="-84.13605">
        <ele>1303</ele>
        <time>2022-05-14 15:22:59</time>
      </trkpt>
      <trkpt lat="10.05538" lon="-84.13608">
        <ele>1303.2</ele>
        <time>2022-05-14 15:23:00</time>
      </trkpt>
      <trkpt lat="10.05536" lon="-84.1361">
        <ele>1303.6</ele>
        <time>2022-05-14 15:23:01</time>
      </trkpt>
      <trkpt lat="10.05535" lon="-84.13612">
        <ele>1304</ele>
        <time>2022-05-14 15:23:02</time>
      </trkpt>
      <trkpt lat="10.05533" lon="-84.13614">
        <ele>1304.4</ele>
        <time>2022-05-14 15:23:03</time>
      </trkpt>
      <trkpt lat="10.05533" lon="-84.13614">
        <ele>1304.4</ele>
        <time>2022-05-14 15:23:04</time>
      </trkpt>
      <trkpt lat="10.05529" lon="-84.13619">
        <ele>1304.4</ele>
        <time>2022-05-14 15:23:05</time>
      </trkpt>
      <trkpt lat="10.05527" lon="-84.13621">
        <ele>1304.6</ele>
        <time>2022-05-14 15:23:06</time>
      </trkpt>
      <trkpt lat="10.05525" lon="-84.13624">
        <ele>1305</ele>
        <time>2022-05-14 15:23:07</time>
      </trkpt>
      <trkpt lat="10.05524" lon="-84.13626">
        <ele>1305.2</ele>
        <time>2022-05-14 15:23:08</time>
      </trkpt>
      <trkpt lat="10.05523" lon="-84.13628">
        <ele>1305.4</ele>
        <time>2022-05-14 15:23:09</time>
      </trkpt>
      <trkpt lat="10.05521" lon="-84.1363">
        <ele>1305.6</ele>
        <time>2022-05-14 15:23:10</time>
      </trkpt>
      <trkpt lat="10.05521" lon="-84.13634">
        <ele>1305.8</ele>
        <time>2022-05-14 15:23:11</time>
      </trkpt>
      <trkpt lat="10.05519" lon="-84.13636">
        <ele>1306.2</ele>
        <time>2022-05-14 15:23:12</time>
      </trkpt>
      <trkpt lat="10.05519" lon="-84.13639">
        <ele>1306.4</ele>
        <time>2022-05-14 15:23:13</time>
      </trkpt>
      <trkpt lat="10.05519" lon="-84.13639">
        <ele>1306.6</ele>
        <time>2022-05-14 15:23:14</time>
      </trkpt>
      <trkpt lat="10.05518" lon="-84.13645">
        <ele>1307</ele>
        <time>2022-05-14 15:23:15</time>
      </trkpt>
      <trkpt lat="10.05518" lon="-84.13648">
        <ele>1307.2</ele>
        <time>2022-05-14 15:23:16</time>
      </trkpt>
      <trkpt lat="10.05518" lon="-84.1365">
        <ele>1307.4</ele>
        <time>2022-05-14 15:23:17</time>
      </trkpt>
      <trkpt lat="10.05519" lon="-84.13653">
        <ele>1307.8</ele>
        <time>2022-05-14 15:23:18</time>
      </trkpt>
      <trkpt lat="10.05519" lon="-84.13655">
        <ele>1308.2</ele>
        <time>2022-05-14 15:23:19</time>
      </trkpt>
      <trkpt lat="10.0552" lon="-84.13658">
        <ele>1308.6</ele>
        <time>2022-05-14 15:23:20</time>
      </trkpt>
      <trkpt lat="10.05521" lon="-84.13661">
        <ele>1309</ele>
        <time>2022-05-14 15:23:21</time>
      </trkpt>
      <trkpt lat="10.05521" lon="-84.13663">
        <ele>1309.2</ele>
        <time>2022-05-14 15:23:22</time>
      </trkpt>
      <trkpt lat="10.05522" lon="-84.13665">
        <ele>1309.4</ele>
        <time>2022-05-14 15:23:23</time>
      </trkpt>
      <trkpt lat="10.05522" lon="-84.13665">
        <ele>1309.8</ele>
        <time>2022-05-14 15:23:24</time>
      </trkpt>
      <trkpt lat="10.05522" lon="-84.13665">
        <ele>1310</ele>
        <time>2022-05-14 15:23:25</time>
      </trkpt>
      <trkpt lat="10.05526" lon="-84.13672">
        <ele>1310</ele>
        <time>2022-05-14 15:23:26</time>
      </trkpt>
      <trkpt lat="10.05528" lon="-84.13673">
        <ele>1310.4</ele>
        <time>2022-05-14 15:23:27</time>
      </trkpt>
      <trkpt lat="10.05529" lon="-84.13676">
        <ele>1310.6</ele>
        <time>2022-05-14 15:23:28</time>
      </trkpt>
      <trkpt lat="10.05531" lon="-84.13678">
        <ele>1311</ele>
        <time>2022-05-14 15:23:29</time>
      </trkpt>
      <trkpt lat="10.05533" lon="-84.13679">
        <ele>1311.2</ele>
        <time>2022-05-14 15:23:30</time>
      </trkpt>
      <trkpt lat="10.05535" lon="-84.13682">
        <ele>1311.6</ele>
        <time>2022-05-14 15:23:31</time>
      </trkpt>
      <trkpt lat="10.05536" lon="-84.13683">
        <ele>1311.8</ele>
        <time>2022-05-14 15:23:32</time>
      </trkpt>
      <trkpt lat="10.05538" lon="-84.13685">
        <ele>1312.2</ele>
        <time>2022-05-14 15:23:33</time>
      </trkpt>
      <trkpt lat="10.05538" lon="-84.13685">
        <ele>1312.4</ele>
        <time>2022-05-14 15:23:34</time>
      </trkpt>
      <trkpt lat="10.05542" lon="-84.13689">
        <ele>1312.8</ele>
        <time>2022-05-14 15:23:35</time>
      </trkpt>
      <trkpt lat="10.05544" lon="-84.13691">
        <ele>1313</ele>
        <time>2022-05-14 15:23:36</time>
      </trkpt>
      <trkpt lat="10.05546" lon="-84.13693">
        <ele>1313.4</ele>
        <time>2022-05-14 15:23:37</time>
      </trkpt>
      <trkpt lat="10.05548" lon="-84.13695">
        <ele>1313.6</ele>
        <time>2022-05-14 15:23:38</time>
      </trkpt>
      <trkpt lat="10.0555" lon="-84.13697">
        <ele>1314</ele>
        <time>2022-05-14 15:23:39</time>
      </trkpt>
      <trkpt lat="10.05552" lon="-84.13699">
        <ele>1314.2</ele>
        <time>2022-05-14 15:23:40</time>
      </trkpt>
      <trkpt lat="10.05554" lon="-84.13701">
        <ele>1314.4</ele>
        <time>2022-05-14 15:23:41</time>
      </trkpt>
      <trkpt lat="10.05556" lon="-84.13703">
        <ele>1314.8</ele>
        <time>2022-05-14 15:23:42</time>
      </trkpt>
      <trkpt lat="10.05558" lon="-84.13705">
        <ele>1315</ele>
        <time>2022-05-14 15:23:43</time>
      </trkpt>
      <trkpt lat="10.0556" lon="-84.13707">
        <ele>1315.4</ele>
        <time>2022-05-14 15:23:44</time>
      </trkpt>
      <trkpt lat="10.0556" lon="-84.13707">
        <ele>1315.6</ele>
        <time>2022-05-14 15:23:45</time>
      </trkpt>
      <trkpt lat="10.05565" lon="-84.1371">
        <ele>1316</ele>
        <time>2022-05-14 15:23:46</time>
      </trkpt>
      <trkpt lat="10.05567" lon="-84.13713">
        <ele>1316</ele>
        <time>2022-05-14 15:23:47</time>
      </trkpt>
      <trkpt lat="10.05569" lon="-84.13714">
        <ele>1316.2</ele>
        <time>2022-05-14 15:23:48</time>
      </trkpt>
      <trkpt lat="10.05571" lon="-84.13716">
        <ele>1316.4</ele>
        <time>2022-05-14 15:23:49</time>
      </trkpt>
      <trkpt lat="10.05573" lon="-84.13717">
        <ele>1316.8</ele>
        <time>2022-05-14 15:23:50</time>
      </trkpt>
      <trkpt lat="10.05576" lon="-84.1372">
        <ele>1317</ele>
        <time>2022-05-14 15:23:51</time>
      </trkpt>
      <trkpt lat="10.05578" lon="-84.13722">
        <ele>1317.4</ele>
        <time>2022-05-14 15:23:52</time>
      </trkpt>
      <trkpt lat="10.0558" lon="-84.13724">
        <ele>1317.6</ele>
        <time>2022-05-14 15:23:53</time>
      </trkpt>
      <trkpt lat="10.05582" lon="-84.13726">
        <ele>1317.8</ele>
        <time>2022-05-14 15:23:54</time>
      </trkpt>
      <trkpt lat="10.05582" lon="-84.13726">
        <ele>1318</ele>
        <time>2022-05-14 15:23:55</time>
      </trkpt>
      <trkpt lat="10.05587" lon="-84.1373">
        <ele>1318.4</ele>
        <time>2022-05-14 15:23:56</time>
      </trkpt>
      <trkpt lat="10.0559" lon="-84.13731">
        <ele>1318.6</ele>
        <time>2022-05-14 15:23:57</time>
      </trkpt>
      <trkpt lat="10.05593" lon="-84.13732">
        <ele>1319</ele>
        <time>2022-05-14 15:23:58</time>
      </trkpt>
      <trkpt lat="10.05596" lon="-84.13733">
        <ele>1319.2</ele>
        <time>2022-05-14 15:23:59</time>
      </trkpt>
      <trkpt lat="10.05599" lon="-84.13735">
        <ele>1319.4</ele>
        <time>2022-05-14 15:24:00</time>
      </trkpt>
      <trkpt lat="10.05603" lon="-84.13735">
        <ele>1319.6</ele>
        <time>2022-05-14 15:24:01</time>
      </trkpt>
      <trkpt lat="10.05606" lon="-84.13736">
        <ele>1319.8</ele>
        <time>2022-05-14 15:24:02</time>
      </trkpt>
      <trkpt lat="10.0561" lon="-84.13736">
        <ele>1320</ele>
        <time>2022-05-14 15:24:03</time>
      </trkpt>
      <trkpt lat="10.05614" lon="-84.13735">
        <ele>1320</ele>
        <time>2022-05-14 15:24:04</time>
      </trkpt>
      <trkpt lat="10.05614" lon="-84.13735">
        <ele>1320.2</ele>
        <time>2022-05-14 15:24:05</time>
      </trkpt>
      <trkpt lat="10.05614" lon="-84.13735">
        <ele>1320.2</ele>
        <time>2022-05-14 15:24:06</time>
      </trkpt>
      <trkpt lat="10.05625" lon="-84.13731">
        <ele>1320.4</ele>
        <time>2022-05-14 15:24:07</time>
      </trkpt>
      <trkpt lat="10.05629" lon="-84.1373">
        <ele>1320.4</ele>
        <time>2022-05-14 15:24:08</time>
      </trkpt>
      <trkpt lat="10.05633" lon="-84.13729">
        <ele>1320.4</ele>
        <time>2022-05-14 15:24:09</time>
      </trkpt>
      <trkpt lat="10.05637" lon="-84.13728">
        <ele>1320.4</ele>
        <time>2022-05-14 15:24:10</time>
      </trkpt>
      <trkpt lat="10.05642" lon="-84.13727">
        <ele>1320.2</ele>
        <time>2022-05-14 15:24:11</time>
      </trkpt>
      <trkpt lat="10.05647" lon="-84.13727">
        <ele>1320.2</ele>
        <time>2022-05-14 15:24:12</time>
      </trkpt>
      <trkpt lat="10.05652" lon="-84.13727">
        <ele>1320</ele>
        <time>2022-05-14 15:24:13</time>
      </trkpt>
      <trkpt lat="10.05658" lon="-84.13727">
        <ele>1319.8</ele>
        <time>2022-05-14 15:24:14</time>
      </trkpt>
      <trkpt lat="10.05658" lon="-84.13727">
        <ele>1319.6</ele>
        <time>2022-05-14 15:24:15</time>
      </trkpt>
      <trkpt lat="10.05658" lon="-84.13727">
        <ele>1319.6</ele>
        <time>2022-05-14 15:24:16</time>
      </trkpt>
      <trkpt lat="10.05674" lon="-84.13733">
        <ele>1319.4</ele>
        <time>2022-05-14 15:24:17</time>
      </trkpt>
      <trkpt lat="10.05679" lon="-84.13737">
        <ele>1319</ele>
        <time>2022-05-14 15:24:18</time>
      </trkpt>
      <trkpt lat="10.05684" lon="-84.1374">
        <ele>1318.6</ele>
        <time>2022-05-14 15:24:19</time>
      </trkpt>
      <trkpt lat="10.05689" lon="-84.13744">
        <ele>1318.4</ele>
        <time>2022-05-14 15:24:20</time>
      </trkpt>
      <trkpt lat="10.05694" lon="-84.13749">
        <ele>1318.2</ele>
        <time>2022-05-14 15:24:21</time>
      </trkpt>
      <trkpt lat="10.05699" lon="-84.13753">
        <ele>1318</ele>
        <time>2022-05-14 15:24:22</time>
      </trkpt>
      <trkpt lat="10.05704" lon="-84.13757">
        <ele>1317.8</ele>
        <time>2022-05-14 15:24:23</time>
      </trkpt>
      <trkpt lat="10.05708" lon="-84.13761">
        <ele>1317.6</ele>
        <time>2022-05-14 15:24:24</time>
      </trkpt>
      <trkpt lat="10.05713" lon="-84.13766">
        <ele>1317.6</ele>
        <time>2022-05-14 15:24:25</time>
      </trkpt>
      <trkpt lat="10.05713" lon="-84.13766">
        <ele>1317.8</ele>
        <time>2022-05-14 15:24:26</time>
      </trkpt>
      <trkpt lat="10.05713" lon="-84.13766">
        <ele>1318</ele>
        <time>2022-05-14 15:24:27</time>
      </trkpt>
      <trkpt lat="10.05728" lon="-84.1378">
        <ele>1318.2</ele>
        <time>2022-05-14 15:24:28</time>
      </trkpt>
      <trkpt lat="10.05732" lon="-84.13783">
        <ele>1318.2</ele>
        <time>2022-05-14 15:24:29</time>
      </trkpt>
      <trkpt lat="10.05736" lon="-84.13788">
        <ele>1318.4</ele>
        <time>2022-05-14 15:24:30</time>
      </trkpt>
      <trkpt lat="10.0574" lon="-84.13791">
        <ele>1318.8</ele>
        <time>2022-05-14 15:24:31</time>
      </trkpt>
      <trkpt lat="10.05743" lon="-84.13795">
        <ele>1319</ele>
        <time>2022-05-14 15:24:32</time>
      </trkpt>
      <trkpt lat="10.05747" lon="-84.13798">
        <ele>1319.4</ele>
        <time>2022-05-14 15:24:33</time>
      </trkpt>
      <trkpt lat="10.0575" lon="-84.13802">
        <ele>1319.6</ele>
        <time>2022-05-14 15:24:34</time>
      </trkpt>
      <trkpt lat="10.05753" lon="-84.13805">
        <ele>1320</ele>
        <time>2022-05-14 15:24:35</time>
      </trkpt>
      <trkpt lat="10.05753" lon="-84.13805">
        <ele>1320.4</ele>
        <time>2022-05-14 15:24:36</time>
      </trkpt>
      <trkpt lat="10.05758" lon="-84.13812">
        <ele>1320.6</ele>
        <time>2022-05-14 15:24:37</time>
      </trkpt>
      <trkpt lat="10.0576" lon="-84.13816">
        <ele>1321</ele>
        <time>2022-05-14 15:24:38</time>
      </trkpt>
      <trkpt lat="10.05763" lon="-84.13819">
        <ele>1321.4</ele>
        <time>2022-05-14 15:24:39</time>
      </trkpt>
      <trkpt lat="10.05764" lon="-84.13823">
        <ele>1321.6</ele>
        <time>2022-05-14 15:24:40</time>
      </trkpt>
      <trkpt lat="10.05765" lon="-84.13826">
        <ele>1322</ele>
        <time>2022-05-14 15:24:41</time>
      </trkpt>
      <trkpt lat="10.05765" lon="-84.1383">
        <ele>1322.2</ele>
        <time>2022-05-14 15:24:42</time>
      </trkpt>
      <trkpt lat="10.05766" lon="-84.13833">
        <ele>1322.4</ele>
        <time>2022-05-14 15:24:43</time>
      </trkpt>
      <trkpt lat="10.05767" lon="-84.13836">
        <ele>1322.6</ele>
        <time>2022-05-14 15:24:44</time>
      </trkpt>
      <trkpt lat="10.05768" lon="-84.13839">
        <ele>1322.8</ele>
        <time>2022-05-14 15:24:45</time>
      </trkpt>
      <trkpt lat="10.05768" lon="-84.13842">
        <ele>1323.2</ele>
        <time>2022-05-14 15:24:46</time>
      </trkpt>
      <trkpt lat="10.05768" lon="-84.13842">
        <ele>1323.4</ele>
        <time>2022-05-14 15:24:47</time>
      </trkpt>
      <trkpt lat="10.05768" lon="-84.13849">
        <ele>1323.8</ele>
        <time>2022-05-14 15:24:48</time>
      </trkpt>
      <trkpt lat="10.05768" lon="-84.13852">
        <ele>1324</ele>
        <time>2022-05-14 15:24:49</time>
      </trkpt>
      <trkpt lat="10.05767" lon="-84.13855">
        <ele>1324</ele>
        <time>2022-05-14 15:24:50</time>
      </trkpt>
      <trkpt lat="10.05767" lon="-84.13858">
        <ele>1324.2</ele>
        <time>2022-05-14 15:24:51</time>
      </trkpt>
      <trkpt lat="10.05767" lon="-84.13861">
        <ele>1324.6</ele>
        <time>2022-05-14 15:24:52</time>
      </trkpt>
      <trkpt lat="10.05767" lon="-84.13864">
        <ele>1324.8</ele>
        <time>2022-05-14 15:24:53</time>
      </trkpt>
      <trkpt lat="10.05766" lon="-84.13867">
        <ele>1325.2</ele>
        <time>2022-05-14 15:24:54</time>
      </trkpt>
      <trkpt lat="10.05766" lon="-84.1387">
        <ele>1325.4</ele>
        <time>2022-05-14 15:24:55</time>
      </trkpt>
      <trkpt lat="10.05766" lon="-84.1387">
        <ele>1325.8</ele>
        <time>2022-05-14 15:24:56</time>
      </trkpt>
      <trkpt lat="10.05766" lon="-84.1387">
        <ele>1326</ele>
        <time>2022-05-14 15:24:57</time>
      </trkpt>
      <trkpt lat="10.05765" lon="-84.1388">
        <ele>1326.4</ele>
        <time>2022-05-14 15:24:58</time>
      </trkpt>
      <trkpt lat="10.05765" lon="-84.13883">
        <ele>1326.6</ele>
        <time>2022-05-14 15:24:59</time>
      </trkpt>
      <trkpt lat="10.05766" lon="-84.13886">
        <ele>1326.8</ele>
        <time>2022-05-14 15:25:00</time>
      </trkpt>
      <trkpt lat="10.05766" lon="-84.1389">
        <ele>1327.2</ele>
        <time>2022-05-14 15:25:01</time>
      </trkpt>
      <trkpt lat="10.05765" lon="-84.13893">
        <ele>1327.4</ele>
        <time>2022-05-14 15:25:02</time>
      </trkpt>
      <trkpt lat="10.05766" lon="-84.13897">
        <ele>1327.6</ele>
        <time>2022-05-14 15:25:03</time>
      </trkpt>
      <trkpt lat="10.05766" lon="-84.139">
        <ele>1328</ele>
        <time>2022-05-14 15:25:04</time>
      </trkpt>
      <trkpt lat="10.05766" lon="-84.13904">
        <ele>1328.2</ele>
        <time>2022-05-14 15:25:05</time>
      </trkpt>
      <trkpt lat="10.05766" lon="-84.13908">
        <ele>1328.6</ele>
        <time>2022-05-14 15:25:06</time>
      </trkpt>
      <trkpt lat="10.05766" lon="-84.13908">
        <ele>1328.8</ele>
        <time>2022-05-14 15:25:07</time>
      </trkpt>
      <trkpt lat="10.05766" lon="-84.13908">
        <ele>1329</ele>
        <time>2022-05-14 15:25:08</time>
      </trkpt>
      <trkpt lat="10.05767" lon="-84.13919">
        <ele>1329.2</ele>
        <time>2022-05-14 15:25:09</time>
      </trkpt>
      <trkpt lat="10.05767" lon="-84.13921">
        <ele>1329.6</ele>
        <time>2022-05-14 15:25:10</time>
      </trkpt>
      <trkpt lat="10.05767" lon="-84.13925">
        <ele>1329.6</ele>
        <time>2022-05-14 15:25:11</time>
      </trkpt>
      <trkpt lat="10.05768" lon="-84.13928">
        <ele>1330</ele>
        <time>2022-05-14 15:25:12</time>
      </trkpt>
      <trkpt lat="10.05768" lon="-84.13932">
        <ele>1330.2</ele>
        <time>2022-05-14 15:25:13</time>
      </trkpt>
      <trkpt lat="10.05769" lon="-84.13936">
        <ele>1330.6</ele>
        <time>2022-05-14 15:25:14</time>
      </trkpt>
      <trkpt lat="10.05769" lon="-84.13939">
        <ele>1330.8</ele>
        <time>2022-05-14 15:25:15</time>
      </trkpt>
      <trkpt lat="10.0577" lon="-84.13943">
        <ele>1331</ele>
        <time>2022-05-14 15:25:16</time>
      </trkpt>
      <trkpt lat="10.0577" lon="-84.13943">
        <ele>1331.4</ele>
        <time>2022-05-14 15:25:17</time>
      </trkpt>
      <trkpt lat="10.05771" lon="-84.1395">
        <ele>1331.6</ele>
        <time>2022-05-14 15:25:18</time>
      </trkpt>
      <trkpt lat="10.05771" lon="-84.13953">
        <ele>1332</ele>
        <time>2022-05-14 15:25:19</time>
      </trkpt>
      <trkpt lat="10.05772" lon="-84.13957">
        <ele>1332.2</ele>
        <time>2022-05-14 15:25:20</time>
      </trkpt>
      <trkpt lat="10.05773" lon="-84.1396">
        <ele>1332.4</ele>
        <time>2022-05-14 15:25:21</time>
      </trkpt>
      <trkpt lat="10.05774" lon="-84.13964">
        <ele>1332.8</ele>
        <time>2022-05-14 15:25:22</time>
      </trkpt>
      <trkpt lat="10.05775" lon="-84.13968">
        <ele>1333</ele>
        <time>2022-05-14 15:25:23</time>
      </trkpt>
      <trkpt lat="10.05776" lon="-84.13972">
        <ele>1333.4</ele>
        <time>2022-05-14 15:25:24</time>
      </trkpt>
      <trkpt lat="10.05777" lon="-84.13975">
        <ele>1333.6</ele>
        <time>2022-05-14 15:25:25</time>
      </trkpt>
      <trkpt lat="10.05779" lon="-84.13979">
        <ele>1333.8</ele>
        <time>2022-05-14 15:25:26</time>
      </trkpt>
      <trkpt lat="10.0578" lon="-84.13983">
        <ele>1334</ele>
        <time>2022-05-14 15:25:27</time>
      </trkpt>
      <trkpt lat="10.0578" lon="-84.13983">
        <ele>1334.2</ele>
        <time>2022-05-14 15:25:28</time>
      </trkpt>
      <trkpt lat="10.05783" lon="-84.1399">
        <ele>1334.2</ele>
        <time>2022-05-14 15:25:29</time>
      </trkpt>
      <trkpt lat="10.05785" lon="-84.13994">
        <ele>1334.4</ele>
        <time>2022-05-14 15:25:30</time>
      </trkpt>
      <trkpt lat="10.05787" lon="-84.13997">
        <ele>1334.4</ele>
        <time>2022-05-14 15:25:31</time>
      </trkpt>
      <trkpt lat="10.0579" lon="-84.14003">
        <ele>1334.4</ele>
        <time>2022-05-14 15:25:32</time>
      </trkpt>
      <trkpt lat="10.05792" lon="-84.14007">
        <ele>1334.4</ele>
        <time>2022-05-14 15:25:33</time>
      </trkpt>
      <trkpt lat="10.05794" lon="-84.14011">
        <ele>1334.4</ele>
        <time>2022-05-14 15:25:34</time>
      </trkpt>
      <trkpt lat="10.05797" lon="-84.14015">
        <ele>1334.4</ele>
        <time>2022-05-14 15:25:35</time>
      </trkpt>
      <trkpt lat="10.058" lon="-84.1402">
        <ele>1334.2</ele>
        <time>2022-05-14 15:25:36</time>
      </trkpt>
      <trkpt lat="10.05802" lon="-84.14024">
        <ele>1334.2</ele>
        <time>2022-05-14 15:25:37</time>
      </trkpt>
      <trkpt lat="10.05802" lon="-84.14024">
        <ele>1334</ele>
        <time>2022-05-14 15:25:38</time>
      </trkpt>
      <trkpt lat="10.05809" lon="-84.14034">
        <ele>1333.8</ele>
        <time>2022-05-14 15:25:39</time>
      </trkpt>
      <trkpt lat="10.05812" lon="-84.1404">
        <ele>1333.4</ele>
        <time>2022-05-14 15:25:40</time>
      </trkpt>
      <trkpt lat="10.05815" lon="-84.14046">
        <ele>1333.2</ele>
        <time>2022-05-14 15:25:41</time>
      </trkpt>
      <trkpt lat="10.05817" lon="-84.14051">
        <ele>1333</ele>
        <time>2022-05-14 15:25:42</time>
      </trkpt>
      <trkpt lat="10.05819" lon="-84.14057">
        <ele>1332.8</ele>
        <time>2022-05-14 15:25:43</time>
      </trkpt>
      <trkpt lat="10.05822" lon="-84.14063">
        <ele>1332.6</ele>
        <time>2022-05-14 15:25:44</time>
      </trkpt>
      <trkpt lat="10.05824" lon="-84.1407">
        <ele>1332.4</ele>
        <time>2022-05-14 15:25:45</time>
      </trkpt>
      <trkpt lat="10.05826" lon="-84.14076">
        <ele>1332.4</ele>
        <time>2022-05-14 15:25:46</time>
      </trkpt>
      <trkpt lat="10.05828" lon="-84.14082">
        <ele>1332.2</ele>
        <time>2022-05-14 15:25:47</time>
      </trkpt>
      <trkpt lat="10.05828" lon="-84.14082">
        <ele>1332</ele>
        <time>2022-05-14 15:25:48</time>
      </trkpt>
      <trkpt lat="10.05828" lon="-84.14082">
        <ele>1332</ele>
        <time>2022-05-14 15:25:49</time>
      </trkpt>
      <trkpt lat="10.05834" lon="-84.14102">
        <ele>1332</ele>
        <time>2022-05-14 15:25:50</time>
      </trkpt>
      <trkpt lat="10.05835" lon="-84.14108">
        <ele>1332</ele>
        <time>2022-05-14 15:25:51</time>
      </trkpt>
      <trkpt lat="10.05837" lon="-84.14114">
        <ele>1331.8</ele>
        <time>2022-05-14 15:25:52</time>
      </trkpt>
      <trkpt lat="10.05839" lon="-84.1412">
        <ele>1331.8</ele>
        <time>2022-05-14 15:25:53</time>
      </trkpt>
      <trkpt lat="10.05841" lon="-84.14127">
        <ele>1331.8</ele>
        <time>2022-05-14 15:25:54</time>
      </trkpt>
      <trkpt lat="10.05843" lon="-84.14133">
        <ele>1332</ele>
        <time>2022-05-14 15:25:55</time>
      </trkpt>
      <trkpt lat="10.05845" lon="-84.14139">
        <ele>1332.2</ele>
        <time>2022-05-14 15:25:56</time>
      </trkpt>
      <trkpt lat="10.05847" lon="-84.14144">
        <ele>1332.4</ele>
        <time>2022-05-14 15:25:57</time>
      </trkpt>
      <trkpt lat="10.05847" lon="-84.14144">
        <ele>1332.8</ele>
        <time>2022-05-14 15:25:58</time>
      </trkpt>
      <trkpt lat="10.05847" lon="-84.14144">
        <ele>1333</ele>
        <time>2022-05-14 15:25:59</time>
      </trkpt>
      <trkpt lat="10.05855" lon="-84.14159">
        <ele>1333.4</ele>
        <time>2022-05-14 15:26:00</time>
      </trkpt>
      <trkpt lat="10.05858" lon="-84.14162">
        <ele>1333.6</ele>
        <time>2022-05-14 15:26:01</time>
      </trkpt>
      <trkpt lat="10.05862" lon="-84.14165">
        <ele>1334.2</ele>
        <time>2022-05-14 15:26:02</time>
      </trkpt>
      <trkpt lat="10.05864" lon="-84.14168">
        <ele>1334.6</ele>
        <time>2022-05-14 15:26:03</time>
      </trkpt>
      <trkpt lat="10.05867" lon="-84.14171">
        <ele>1335</ele>
        <time>2022-05-14 15:26:04</time>
      </trkpt>
      <trkpt lat="10.05869" lon="-84.14174">
        <ele>1335.2</ele>
        <time>2022-05-14 15:26:05</time>
      </trkpt>
      <trkpt lat="10.05872" lon="-84.14177">
        <ele>1335.6</ele>
        <time>2022-05-14 15:26:06</time>
      </trkpt>
      <trkpt lat="10.05874" lon="-84.1418">
        <ele>1335.8</ele>
        <time>2022-05-14 15:26:07</time>
      </trkpt>
      <trkpt lat="10.05877" lon="-84.14182">
        <ele>1336.2</ele>
        <time>2022-05-14 15:26:08</time>
      </trkpt>
      <trkpt lat="10.05877" lon="-84.14182">
        <ele>1336.6</ele>
        <time>2022-05-14 15:26:09</time>
      </trkpt>
      <trkpt lat="10.05877" lon="-84.14182">
        <ele>1336.8</ele>
        <time>2022-05-14 15:26:10</time>
      </trkpt>
      <trkpt lat="10.05884" lon="-84.14189">
        <ele>1337.2</ele>
        <time>2022-05-14 15:26:11</time>
      </trkpt>
      <trkpt lat="10.05886" lon="-84.14192">
        <ele>1337.6</ele>
        <time>2022-05-14 15:26:12</time>
      </trkpt>
      <trkpt lat="10.05889" lon="-84.14193">
        <ele>1337.8</ele>
        <time>2022-05-14 15:26:13</time>
      </trkpt>
      <trkpt lat="10.05892" lon="-84.14195">
        <ele>1337.8</ele>
        <time>2022-05-14 15:26:14</time>
      </trkpt>
      <trkpt lat="10.05895" lon="-84.14198">
        <ele>1338.2</ele>
        <time>2022-05-14 15:26:15</time>
      </trkpt>
      <trkpt lat="10.05898" lon="-84.142">
        <ele>1338.6</ele>
        <time>2022-05-14 15:26:16</time>
      </trkpt>
      <trkpt lat="10.05901" lon="-84.14201">
        <ele>1339</ele>
        <time>2022-05-14 15:26:17</time>
      </trkpt>
      <trkpt lat="10.05904" lon="-84.14203">
        <ele>1339.2</ele>
        <time>2022-05-14 15:26:18</time>
      </trkpt>
      <trkpt lat="10.05904" lon="-84.14203">
        <ele>1339.6</ele>
        <time>2022-05-14 15:26:19</time>
      </trkpt>
      <trkpt lat="10.0591" lon="-84.14208">
        <ele>1339.8</ele>
        <time>2022-05-14 15:26:20</time>
      </trkpt>
      <trkpt lat="10.05912" lon="-84.1421">
        <ele>1340.2</ele>
        <time>2022-05-14 15:26:21</time>
      </trkpt>
      <trkpt lat="10.05915" lon="-84.14212">
        <ele>1340.4</ele>
        <time>2022-05-14 15:26:22</time>
      </trkpt>
      <trkpt lat="10.05918" lon="-84.14214">
        <ele>1340.6</ele>
        <time>2022-05-14 15:26:23</time>
      </trkpt>
      <trkpt lat="10.05921" lon="-84.14215">
        <ele>1340.8</ele>
        <time>2022-05-14 15:26:24</time>
      </trkpt>
      <trkpt lat="10.05924" lon="-84.14217">
        <ele>1341.2</ele>
        <time>2022-05-14 15:26:25</time>
      </trkpt>
      <trkpt lat="10.05927" lon="-84.14218">
        <ele>1341.4</ele>
        <time>2022-05-14 15:26:26</time>
      </trkpt>
      <trkpt lat="10.0593" lon="-84.14219">
        <ele>1341.6</ele>
        <time>2022-05-14 15:26:27</time>
      </trkpt>
      <trkpt lat="10.05933" lon="-84.14221">
        <ele>1341.8</ele>
        <time>2022-05-14 15:26:28</time>
      </trkpt>
      <trkpt lat="10.05936" lon="-84.14222">
        <ele>1342</ele>
        <time>2022-05-14 15:26:29</time>
      </trkpt>
      <trkpt lat="10.05936" lon="-84.14222">
        <ele>1342.2</ele>
        <time>2022-05-14 15:26:30</time>
      </trkpt>
      <trkpt lat="10.05942" lon="-84.14224">
        <ele>1342.6</ele>
        <time>2022-05-14 15:26:31</time>
      </trkpt>
      <trkpt lat="10.05945" lon="-84.14225">
        <ele>1342.8</ele>
        <time>2022-05-14 15:26:32</time>
      </trkpt>
      <trkpt lat="10.05948" lon="-84.14226">
        <ele>1343</ele>
        <time>2022-05-14 15:26:33</time>
      </trkpt>
      <trkpt lat="10.05952" lon="-84.14226">
        <ele>1343.2</ele>
        <time>2022-05-14 15:26:34</time>
      </trkpt>
      <trkpt lat="10.05955" lon="-84.14228">
        <ele>1343.2</ele>
        <time>2022-05-14 15:26:35</time>
      </trkpt>
      <trkpt lat="10.05958" lon="-84.14228">
        <ele>1343.4</ele>
        <time>2022-05-14 15:26:36</time>
      </trkpt>
      <trkpt lat="10.05962" lon="-84.14228">
        <ele>1343.8</ele>
        <time>2022-05-14 15:26:37</time>
      </trkpt>
      <trkpt lat="10.05966" lon="-84.14228">
        <ele>1344</ele>
        <time>2022-05-14 15:26:38</time>
      </trkpt>
      <trkpt lat="10.05966" lon="-84.14228">
        <ele>1344.4</ele>
        <time>2022-05-14 15:26:39</time>
      </trkpt>
      <trkpt lat="10.05966" lon="-84.14228">
        <ele>1344.6</ele>
        <time>2022-05-14 15:26:40</time>
      </trkpt>
      <trkpt lat="10.05977" lon="-84.14228">
        <ele>1345</ele>
        <time>2022-05-14 15:26:41</time>
      </trkpt>
      <trkpt lat="10.0598" lon="-84.14228">
        <ele>1345.2</ele>
        <time>2022-05-14 15:26:42</time>
      </trkpt>
      <trkpt lat="10.05984" lon="-84.14228">
        <ele>1345.6</ele>
        <time>2022-05-14 15:26:43</time>
      </trkpt>
      <trkpt lat="10.05988" lon="-84.14228">
        <ele>1345.8</ele>
        <time>2022-05-14 15:26:44</time>
      </trkpt>
      <trkpt lat="10.05991" lon="-84.14228">
        <ele>1346.2</ele>
        <time>2022-05-14 15:26:45</time>
      </trkpt>
      <trkpt lat="10.05995" lon="-84.14228">
        <ele>1346.6</ele>
        <time>2022-05-14 15:26:46</time>
      </trkpt>
      <trkpt lat="10.05998" lon="-84.14228">
        <ele>1346.8</ele>
        <time>2022-05-14 15:26:47</time>
      </trkpt>
      <trkpt lat="10.06002" lon="-84.14228">
        <ele>1347.2</ele>
        <time>2022-05-14 15:26:48</time>
      </trkpt>
      <trkpt lat="10.06006" lon="-84.14228">
        <ele>1347.6</ele>
        <time>2022-05-14 15:26:49</time>
      </trkpt>
      <trkpt lat="10.06006" lon="-84.14228">
        <ele>1347.8</ele>
        <time>2022-05-14 15:26:50</time>
      </trkpt>
      <trkpt lat="10.06006" lon="-84.14228">
        <ele>1348.2</ele>
        <time>2022-05-14 15:26:51</time>
      </trkpt>
      <trkpt lat="10.06017" lon="-84.14228">
        <ele>1348.4</ele>
        <time>2022-05-14 15:26:52</time>
      </trkpt>
      <trkpt lat="10.0602" lon="-84.14229">
        <ele>1348.8</ele>
        <time>2022-05-14 15:26:53</time>
      </trkpt>
      <trkpt lat="10.06024" lon="-84.14229">
        <ele>1349</ele>
        <time>2022-05-14 15:26:54</time>
      </trkpt>
      <trkpt lat="10.06027" lon="-84.1423">
        <ele>1349.4</ele>
        <time>2022-05-14 15:26:55</time>
      </trkpt>
      <trkpt lat="10.0603" lon="-84.1423">
        <ele>1349.4</ele>
        <time>2022-05-14 15:26:56</time>
      </trkpt>
      <trkpt lat="10.06034" lon="-84.14231">
        <ele>1349.6</ele>
        <time>2022-05-14 15:26:57</time>
      </trkpt>
      <trkpt lat="10.06037" lon="-84.14232">
        <ele>1349.8</ele>
        <time>2022-05-14 15:26:58</time>
      </trkpt>
      <trkpt lat="10.0604" lon="-84.14233">
        <ele>1350.2</ele>
        <time>2022-05-14 15:26:59</time>
      </trkpt>
      <trkpt lat="10.0604" lon="-84.14233">
        <ele>1350.4</ele>
        <time>2022-05-14 15:27:00</time>
      </trkpt>
      <trkpt lat="10.06047" lon="-84.14236">
        <ele>1350.8</ele>
        <time>2022-05-14 15:27:01</time>
      </trkpt>
      <trkpt lat="10.0605" lon="-84.14237">
        <ele>1351</ele>
        <time>2022-05-14 15:27:02</time>
      </trkpt>
      <trkpt lat="10.06054" lon="-84.14237">
        <ele>1351.4</ele>
        <time>2022-05-14 15:27:03</time>
      </trkpt>
      <trkpt lat="10.06057" lon="-84.14239">
        <ele>1351.6</ele>
        <time>2022-05-14 15:27:04</time>
      </trkpt>
      <trkpt lat="10.0606" lon="-84.14239">
        <ele>1351.8</ele>
        <time>2022-05-14 15:27:05</time>
      </trkpt>
      <trkpt lat="10.06064" lon="-84.14241">
        <ele>1352.2</ele>
        <time>2022-05-14 15:27:06</time>
      </trkpt>
      <trkpt lat="10.06067" lon="-84.14243">
        <ele>1352.4</ele>
        <time>2022-05-14 15:27:07</time>
      </trkpt>
      <trkpt lat="10.0607" lon="-84.14245">
        <ele>1352.8</ele>
        <time>2022-05-14 15:27:08</time>
      </trkpt>
      <trkpt lat="10.06073" lon="-84.14246">
        <ele>1353.2</ele>
        <time>2022-05-14 15:27:09</time>
      </trkpt>
      <trkpt lat="10.06076" lon="-84.14248">
        <ele>1353.4</ele>
        <time>2022-05-14 15:27:10</time>
      </trkpt>
      <trkpt lat="10.06076" lon="-84.14248">
        <ele>1353.8</ele>
        <time>2022-05-14 15:27:11</time>
      </trkpt>
      <trkpt lat="10.06082" lon="-84.14252">
        <ele>1354.2</ele>
        <time>2022-05-14 15:27:12</time>
      </trkpt>
      <trkpt lat="10.06085" lon="-84.14255">
        <ele>1354.4</ele>
        <time>2022-05-14 15:27:13</time>
      </trkpt>
      <trkpt lat="10.06088" lon="-84.14257">
        <ele>1354.8</ele>
        <time>2022-05-14 15:27:14</time>
      </trkpt>
      <trkpt lat="10.06091" lon="-84.14259">
        <ele>1355</ele>
        <time>2022-05-14 15:27:15</time>
      </trkpt>
      <trkpt lat="10.06094" lon="-84.14262">
        <ele>1355.4</ele>
        <time>2022-05-14 15:27:16</time>
      </trkpt>
      <trkpt lat="10.06097" lon="-84.14264">
        <ele>1355.4</ele>
        <time>2022-05-14 15:27:17</time>
      </trkpt>
      <trkpt lat="10.061" lon="-84.14266">
        <ele>1355.8</ele>
        <time>2022-05-14 15:27:18</time>
      </trkpt>
      <trkpt lat="10.06103" lon="-84.14268">
        <ele>1356</ele>
        <time>2022-05-14 15:27:19</time>
      </trkpt>
      <trkpt lat="10.06103" lon="-84.14268">
        <ele>1356.4</ele>
        <time>2022-05-14 15:27:20</time>
      </trkpt>
      <trkpt lat="10.06103" lon="-84.14268">
        <ele>1356.6</ele>
        <time>2022-05-14 15:27:21</time>
      </trkpt>
      <trkpt lat="10.06112" lon="-84.14275">
        <ele>1357</ele>
        <time>2022-05-14 15:27:22</time>
      </trkpt>
      <trkpt lat="10.06115" lon="-84.14277">
        <ele>1357.2</ele>
        <time>2022-05-14 15:27:23</time>
      </trkpt>
      <trkpt lat="10.06118" lon="-84.14279">
        <ele>1357.6</ele>
        <time>2022-05-14 15:27:24</time>
      </trkpt>
      <trkpt lat="10.06122" lon="-84.14282">
        <ele>1358</ele>
        <time>2022-05-14 15:27:25</time>
      </trkpt>
      <trkpt lat="10.06124" lon="-84.14284">
        <ele>1358.2</ele>
        <time>2022-05-14 15:27:26</time>
      </trkpt>
      <trkpt lat="10.06128" lon="-84.14286">
        <ele>1358.6</ele>
        <time>2022-05-14 15:27:27</time>
      </trkpt>
      <trkpt lat="10.06131" lon="-84.14288">
        <ele>1359</ele>
        <time>2022-05-14 15:27:28</time>
      </trkpt>
      <trkpt lat="10.06134" lon="-84.14291">
        <ele>1359.4</ele>
        <time>2022-05-14 15:27:29</time>
      </trkpt>
      <trkpt lat="10.06137" lon="-84.14293">
        <ele>1359.8</ele>
        <time>2022-05-14 15:27:30</time>
      </trkpt>
      <trkpt lat="10.06137" lon="-84.14293">
        <ele>1360</ele>
        <time>2022-05-14 15:27:31</time>
      </trkpt>
      <trkpt lat="10.06137" lon="-84.14293">
        <ele>1360.4</ele>
        <time>2022-05-14 15:27:32</time>
      </trkpt>
      <trkpt lat="10.06147" lon="-84.143">
        <ele>1360.6</ele>
        <time>2022-05-14 15:27:33</time>
      </trkpt>
      <trkpt lat="10.0615" lon="-84.14302">
        <ele>1361</ele>
        <time>2022-05-14 15:27:34</time>
      </trkpt>
      <trkpt lat="10.06153" lon="-84.14304">
        <ele>1361.4</ele>
        <time>2022-05-14 15:27:35</time>
      </trkpt>
      <trkpt lat="10.06156" lon="-84.14306">
        <ele>1361.6</ele>
        <time>2022-05-14 15:27:36</time>
      </trkpt>
      <trkpt lat="10.06159" lon="-84.14309">
        <ele>1361.8</ele>
        <time>2022-05-14 15:27:37</time>
      </trkpt>
      <trkpt lat="10.06162" lon="-84.14311">
        <ele>1361.8</ele>
        <time>2022-05-14 15:27:38</time>
      </trkpt>
      <trkpt lat="10.06165" lon="-84.14313">
        <ele>1362</ele>
        <time>2022-05-14 15:27:39</time>
      </trkpt>
      <trkpt lat="10.06169" lon="-84.14316">
        <ele>1362</ele>
        <time>2022-05-14 15:27:40</time>
      </trkpt>
      <trkpt lat="10.06169" lon="-84.14316">
        <ele>1362</ele>
        <time>2022-05-14 15:27:41</time>
      </trkpt>
      <trkpt lat="10.06169" lon="-84.14316">
        <ele>1362</ele>
        <time>2022-05-14 15:27:42</time>
      </trkpt>
      <trkpt lat="10.06179" lon="-84.14325">
        <ele>1361.8</ele>
        <time>2022-05-14 15:27:43</time>
      </trkpt>
      <trkpt lat="10.06184" lon="-84.14329">
        <ele>1361.6</ele>
        <time>2022-05-14 15:27:44</time>
      </trkpt>
      <trkpt lat="10.06188" lon="-84.14333">
        <ele>1361.2</ele>
        <time>2022-05-14 15:27:45</time>
      </trkpt>
      <trkpt lat="10.06192" lon="-84.14336">
        <ele>1360.8</ele>
        <time>2022-05-14 15:27:46</time>
      </trkpt>
      <trkpt lat="10.06197" lon="-84.14341">
        <ele>1360.4</ele>
        <time>2022-05-14 15:27:47</time>
      </trkpt>
      <trkpt lat="10.06202" lon="-84.14346">
        <ele>1360</ele>
        <time>2022-05-14 15:27:48</time>
      </trkpt>
      <trkpt lat="10.06208" lon="-84.14351">
        <ele>1359.6</ele>
        <time>2022-05-14 15:27:49</time>
      </trkpt>
      <trkpt lat="10.06214" lon="-84.14355">
        <ele>1359</ele>
        <time>2022-05-14 15:27:50</time>
      </trkpt>
      <trkpt lat="10.0622" lon="-84.1436">
        <ele>1358.8</ele>
        <time>2022-05-14 15:27:51</time>
      </trkpt>
      <trkpt lat="10.0622" lon="-84.1436">
        <ele>1358.2</ele>
        <time>2022-05-14 15:27:52</time>
      </trkpt>
      <trkpt lat="10.0622" lon="-84.1436">
        <ele>1357.8</ele>
        <time>2022-05-14 15:27:53</time>
      </trkpt>
      <trkpt lat="10.06238" lon="-84.14376">
        <ele>1357.4</ele>
        <time>2022-05-14 15:27:54</time>
      </trkpt>
      <trkpt lat="10.06244" lon="-84.14382">
        <ele>1357.2</ele>
        <time>2022-05-14 15:27:55</time>
      </trkpt>
      <trkpt lat="10.0625" lon="-84.14387">
        <ele>1357</ele>
        <time>2022-05-14 15:27:56</time>
      </trkpt>
      <trkpt lat="10.06256" lon="-84.14392">
        <ele>1356.8</ele>
        <time>2022-05-14 15:27:57</time>
      </trkpt>
      <trkpt lat="10.06262" lon="-84.14398">
        <ele>1356.4</ele>
        <time>2022-05-14 15:27:58</time>
      </trkpt>
      <trkpt lat="10.06269" lon="-84.14403">
        <ele>1356.4</ele>
        <time>2022-05-14 15:27:59</time>
      </trkpt>
      <trkpt lat="10.06275" lon="-84.14408">
        <ele>1356.4</ele>
        <time>2022-05-14 15:28:00</time>
      </trkpt>
      <trkpt lat="10.06281" lon="-84.14414">
        <ele>1356.2</ele>
        <time>2022-05-14 15:28:01</time>
      </trkpt>
      <trkpt lat="10.06281" lon="-84.14414">
        <ele>1356.2</ele>
        <time>2022-05-14 15:28:02</time>
      </trkpt>
      <trkpt lat="10.06293" lon="-84.14425">
        <ele>1356</ele>
        <time>2022-05-14 15:28:03</time>
      </trkpt>
      <trkpt lat="10.063" lon="-84.14431">
        <ele>1355.8</ele>
        <time>2022-05-14 15:28:04</time>
      </trkpt>
      <trkpt lat="10.06306" lon="-84.14436">
        <ele>1355.8</ele>
        <time>2022-05-14 15:28:05</time>
      </trkpt>
      <trkpt lat="10.06313" lon="-84.14442">
        <ele>1355.6</ele>
        <time>2022-05-14 15:28:06</time>
      </trkpt>
      <trkpt lat="10.06319" lon="-84.14448">
        <ele>1355.6</ele>
        <time>2022-05-14 15:28:07</time>
      </trkpt>
      <trkpt lat="10.06326" lon="-84.14453">
        <ele>1355.4</ele>
        <time>2022-05-14 15:28:08</time>
      </trkpt>
      <trkpt lat="10.06332" lon="-84.14459">
        <ele>1355.4</ele>
        <time>2022-05-14 15:28:09</time>
      </trkpt>
      <trkpt lat="10.06338" lon="-84.14465">
        <ele>1355.2</ele>
        <time>2022-05-14 15:28:10</time>
      </trkpt>
      <trkpt lat="10.06345" lon="-84.14471">
        <ele>1355</ele>
        <time>2022-05-14 15:28:11</time>
      </trkpt>
      <trkpt lat="10.06351" lon="-84.14476">
        <ele>1355</ele>
        <time>2022-05-14 15:28:12</time>
      </trkpt>
      <trkpt lat="10.06351" lon="-84.14476">
        <ele>1354.8</ele>
        <time>2022-05-14 15:28:13</time>
      </trkpt>
      <trkpt lat="10.06364" lon="-84.14488">
        <ele>1354.8</ele>
        <time>2022-05-14 15:28:14</time>
      </trkpt>
      <trkpt lat="10.0637" lon="-84.14494">
        <ele>1354.6</ele>
        <time>2022-05-14 15:28:15</time>
      </trkpt>
      <trkpt lat="10.06376" lon="-84.14501">
        <ele>1354.6</ele>
        <time>2022-05-14 15:28:16</time>
      </trkpt>
      <trkpt lat="10.06381" lon="-84.14508">
        <ele>1354.4</ele>
        <time>2022-05-14 15:28:17</time>
      </trkpt>
      <trkpt lat="10.06385" lon="-84.14515">
        <ele>1354.4</ele>
        <time>2022-05-14 15:28:18</time>
      </trkpt>
      <trkpt lat="10.06389" lon="-84.14523">
        <ele>1354.2</ele>
        <time>2022-05-14 15:28:19</time>
      </trkpt>
      <trkpt lat="10.06393" lon="-84.1453">
        <ele>1354.2</ele>
        <time>2022-05-14 15:28:20</time>
      </trkpt>
      <trkpt lat="10.06397" lon="-84.14538">
        <ele>1354.2</ele>
        <time>2022-05-14 15:28:21</time>
      </trkpt>
      <trkpt lat="10.06397" lon="-84.14538">
        <ele>1354</ele>
        <time>2022-05-14 15:28:22</time>
      </trkpt>
      <trkpt lat="10.06397" lon="-84.14538">
        <ele>1354</ele>
        <time>2022-05-14 15:28:23</time>
      </trkpt>
      <trkpt lat="10.06406" lon="-84.1456">
        <ele>1354</ele>
        <time>2022-05-14 15:28:24</time>
      </trkpt>
      <trkpt lat="10.06409" lon="-84.14568">
        <ele>1354</ele>
        <time>2022-05-14 15:28:25</time>
      </trkpt>
      <trkpt lat="10.06412" lon="-84.14575">
        <ele>1353.8</ele>
        <time>2022-05-14 15:28:26</time>
      </trkpt>
      <trkpt lat="10.06416" lon="-84.14582">
        <ele>1353.8</ele>
        <time>2022-05-14 15:28:27</time>
      </trkpt>
      <trkpt lat="10.06419" lon="-84.1459">
        <ele>1353.6</ele>
        <time>2022-05-14 15:28:28</time>
      </trkpt>
      <trkpt lat="10.06422" lon="-84.14597">
        <ele>1353.6</ele>
        <time>2022-05-14 15:28:29</time>
      </trkpt>
      <trkpt lat="10.06425" lon="-84.14605">
        <ele>1353.6</ele>
        <time>2022-05-14 15:28:30</time>
      </trkpt>
      <trkpt lat="10.06429" lon="-84.14612">
        <ele>1353.6</ele>
        <time>2022-05-14 15:28:31</time>
      </trkpt>
      <trkpt lat="10.06432" lon="-84.1462">
        <ele>1353.8</ele>
        <time>2022-05-14 15:28:32</time>
      </trkpt>
      <trkpt lat="10.06432" lon="-84.1462">
        <ele>1353.6</ele>
        <time>2022-05-14 15:28:33</time>
      </trkpt>
      <trkpt lat="10.06432" lon="-84.1462">
        <ele>1353.8</ele>
        <time>2022-05-14 15:28:34</time>
      </trkpt>
      <trkpt lat="10.06441" lon="-84.14641">
        <ele>1353.6</ele>
        <time>2022-05-14 15:28:35</time>
      </trkpt>
      <trkpt lat="10.06444" lon="-84.14649">
        <ele>1353.8</ele>
        <time>2022-05-14 15:28:36</time>
      </trkpt>
      <trkpt lat="10.06448" lon="-84.14655">
        <ele>1353.6</ele>
        <time>2022-05-14 15:28:37</time>
      </trkpt>
      <trkpt lat="10.06451" lon="-84.14663">
        <ele>1353.6</ele>
        <time>2022-05-14 15:28:38</time>
      </trkpt>
      <trkpt lat="10.06454" lon="-84.14671">
        <ele>1353.8</ele>
        <time>2022-05-14 15:28:39</time>
      </trkpt>
      <trkpt lat="10.06457" lon="-84.14678">
        <ele>1353.8</ele>
        <time>2022-05-14 15:28:40</time>
      </trkpt>
      <trkpt lat="10.0646" lon="-84.14685">
        <ele>1353.8</ele>
        <time>2022-05-14 15:28:41</time>
      </trkpt>
      <trkpt lat="10.06463" lon="-84.14693">
        <ele>1353.6</ele>
        <time>2022-05-14 15:28:42</time>
      </trkpt>
      <trkpt lat="10.06463" lon="-84.14693">
        <ele>1353.6</ele>
        <time>2022-05-14 15:28:43</time>
      </trkpt>
      <trkpt lat="10.06469" lon="-84.14707">
        <ele>1353.6</ele>
        <time>2022-05-14 15:28:44</time>
      </trkpt>
      <trkpt lat="10.06472" lon="-84.14715">
        <ele>1353.6</ele>
        <time>2022-05-14 15:28:45</time>
      </trkpt>
      <trkpt lat="10.06475" lon="-84.14722">
        <ele>1353.6</ele>
        <time>2022-05-14 15:28:46</time>
      </trkpt>
      <trkpt lat="10.06478" lon="-84.14729">
        <ele>1353.6</ele>
        <time>2022-05-14 15:28:47</time>
      </trkpt>
      <trkpt lat="10.06482" lon="-84.14736">
        <ele>1353.8</ele>
        <time>2022-05-14 15:28:48</time>
      </trkpt>
      <trkpt lat="10.06484" lon="-84.14744">
        <ele>1353.6</ele>
        <time>2022-05-14 15:28:49</time>
      </trkpt>
      <trkpt lat="10.06487" lon="-84.14752">
        <ele>1353.6</ele>
        <time>2022-05-14 15:28:50</time>
      </trkpt>
      <trkpt lat="10.06489" lon="-84.14758">
        <ele>1353.4</ele>
        <time>2022-05-14 15:28:51</time>
      </trkpt>
      <trkpt lat="10.06492" lon="-84.14766">
        <ele>1353.4</ele>
        <time>2022-05-14 15:28:52</time>
      </trkpt>
      <trkpt lat="10.06496" lon="-84.14773">
        <ele>1353.2</ele>
        <time>2022-05-14 15:28:53</time>
      </trkpt>
      <trkpt lat="10.06496" lon="-84.14773">
        <ele>1353</ele>
        <time>2022-05-14 15:28:54</time>
      </trkpt>
      <trkpt lat="10.06502" lon="-84.14787">
        <ele>1352.8</ele>
        <time>2022-05-14 15:28:55</time>
      </trkpt>
      <trkpt lat="10.06505" lon="-84.14795">
        <ele>1352.4</ele>
        <time>2022-05-14 15:28:56</time>
      </trkpt>
      <trkpt lat="10.06509" lon="-84.14803">
        <ele>1351.8</ele>
        <time>2022-05-14 15:28:57</time>
      </trkpt>
      <trkpt lat="10.06513" lon="-84.14811">
        <ele>1351.2</ele>
        <time>2022-05-14 15:28:58</time>
      </trkpt>
      <trkpt lat="10.06516" lon="-84.14819">
        <ele>1350.6</ele>
        <time>2022-05-14 15:28:59</time>
      </trkpt>
      <trkpt lat="10.0652" lon="-84.14828">
        <ele>1350</ele>
        <time>2022-05-14 15:29:00</time>
      </trkpt>
      <trkpt lat="10.06524" lon="-84.14837">
        <ele>1349.6</ele>
        <time>2022-05-14 15:29:01</time>
      </trkpt>
      <trkpt lat="10.06529" lon="-84.14846">
        <ele>1349.6</ele>
        <time>2022-05-14 15:29:02</time>
      </trkpt>
      <trkpt lat="10.06533" lon="-84.14855">
        <ele>1348.8</ele>
        <time>2022-05-14 15:29:03</time>
      </trkpt>
      <trkpt lat="10.06533" lon="-84.14855">
        <ele>1348.2</ele>
        <time>2022-05-14 15:29:04</time>
      </trkpt>
      <trkpt lat="10.06542" lon="-84.14873">
        <ele>1347.4</ele>
        <time>2022-05-14 15:29:05</time>
      </trkpt>
      <trkpt lat="10.06546" lon="-84.14884">
        <ele>1346.6</ele>
        <time>2022-05-14 15:29:06</time>
      </trkpt>
      <trkpt lat="10.0655" lon="-84.14894">
        <ele>1345.8</ele>
        <time>2022-05-14 15:29:07</time>
      </trkpt>
      <trkpt lat="10.06554" lon="-84.14902">
        <ele>1344.8</ele>
        <time>2022-05-14 15:29:08</time>
      </trkpt>
      <trkpt lat="10.06558" lon="-84.14911">
        <ele>1344</ele>
        <time>2022-05-14 15:29:09</time>
      </trkpt>
      <trkpt lat="10.06562" lon="-84.1492">
        <ele>1343.2</ele>
        <time>2022-05-14 15:29:10</time>
      </trkpt>
      <trkpt lat="10.06567" lon="-84.14929">
        <ele>1342.4</ele>
        <time>2022-05-14 15:29:11</time>
      </trkpt>
      <trkpt lat="10.06573" lon="-84.14936">
        <ele>1341.8</ele>
        <time>2022-05-14 15:29:12</time>
      </trkpt>
      <trkpt lat="10.06581" lon="-84.14942">
        <ele>1341</ele>
        <time>2022-05-14 15:29:13</time>
      </trkpt>
      <trkpt lat="10.06581" lon="-84.14942">
        <ele>1340.2</ele>
        <time>2022-05-14 15:29:14</time>
      </trkpt>
      <trkpt lat="10.06581" lon="-84.14942">
        <ele>1339.6</ele>
        <time>2022-05-14 15:29:15</time>
      </trkpt>
      <trkpt lat="10.06612" lon="-84.14944">
        <ele>1339.4</ele>
        <time>2022-05-14 15:29:16</time>
      </trkpt>
      <trkpt lat="10.06622" lon="-84.14944">
        <ele>1339.2</ele>
        <time>2022-05-14 15:29:17</time>
      </trkpt>
      <trkpt lat="10.06631" lon="-84.14944">
        <ele>1339</ele>
        <time>2022-05-14 15:29:18</time>
      </trkpt>
      <trkpt lat="10.06639" lon="-84.14949">
        <ele>1339</ele>
        <time>2022-05-14 15:29:19</time>
      </trkpt>
      <trkpt lat="10.06646" lon="-84.14956">
        <ele>1339.2</ele>
        <time>2022-05-14 15:29:20</time>
      </trkpt>
      <trkpt lat="10.06651" lon="-84.14964">
        <ele>1339.6</ele>
        <time>2022-05-14 15:29:21</time>
      </trkpt>
      <trkpt lat="10.06649" lon="-84.14971">
        <ele>1340</ele>
        <time>2022-05-14 15:29:22</time>
      </trkpt>
      <trkpt lat="10.06646" lon="-84.14977">
        <ele>1340</ele>
        <time>2022-05-14 15:29:23</time>
      </trkpt>
      <trkpt lat="10.06646" lon="-84.14977">
        <ele>1340.4</ele>
        <time>2022-05-14 15:29:24</time>
      </trkpt>
      <trkpt lat="10.06646" lon="-84.14977">
        <ele>1340.8</ele>
        <time>2022-05-14 15:29:25</time>
      </trkpt>
      <trkpt lat="10.06639" lon="-84.14993">
        <ele>1341</ele>
        <time>2022-05-14 15:29:26</time>
      </trkpt>
      <trkpt lat="10.06635" lon="-84.14998">
        <ele>1341.4</ele>
        <time>2022-05-14 15:29:27</time>
      </trkpt>
      <trkpt lat="10.06632" lon="-84.15002">
        <ele>1341.8</ele>
        <time>2022-05-14 15:29:28</time>
      </trkpt>
      <trkpt lat="10.06629" lon="-84.15005">
        <ele>1342.2</ele>
        <time>2022-05-14 15:29:29</time>
      </trkpt>
      <trkpt lat="10.06626" lon="-84.15009">
        <ele>1342.6</ele>
        <time>2022-05-14 15:29:30</time>
      </trkpt>
      <trkpt lat="10.06624" lon="-84.15014">
        <ele>1343</ele>
        <time>2022-05-14 15:29:31</time>
      </trkpt>
      <trkpt lat="10.06622" lon="-84.15018">
        <ele>1343.4</ele>
        <time>2022-05-14 15:29:32</time>
      </trkpt>
      <trkpt lat="10.0662" lon="-84.15021">
        <ele>1343.6</ele>
        <time>2022-05-14 15:29:33</time>
      </trkpt>
      <trkpt lat="10.06618" lon="-84.15025">
        <ele>1344</ele>
        <time>2022-05-14 15:29:34</time>
      </trkpt>
      <trkpt lat="10.06618" lon="-84.15025">
        <ele>1344.2</ele>
        <time>2022-05-14 15:29:35</time>
      </trkpt>
      <trkpt lat="10.06618" lon="-84.15025">
        <ele>1344.6</ele>
        <time>2022-05-14 15:29:36</time>
      </trkpt>
      <trkpt lat="10.06612" lon="-84.15037">
        <ele>1344.8</ele>
        <time>2022-05-14 15:29:37</time>
      </trkpt>
      <trkpt lat="10.06611" lon="-84.15041">
        <ele>1345.2</ele>
        <time>2022-05-14 15:29:38</time>
      </trkpt>
      <trkpt lat="10.06609" lon="-84.15045">
        <ele>1345.6</ele>
        <time>2022-05-14 15:29:39</time>
      </trkpt>
      <trkpt lat="10.06608" lon="-84.15048">
        <ele>1346</ele>
        <time>2022-05-14 15:29:40</time>
      </trkpt>
      <trkpt lat="10.06606" lon="-84.15052">
        <ele>1346.2</ele>
        <time>2022-05-14 15:29:41</time>
      </trkpt>
      <trkpt lat="10.06605" lon="-84.15056">
        <ele>1346.6</ele>
        <time>2022-05-14 15:29:42</time>
      </trkpt>
      <trkpt lat="10.06604" lon="-84.1506">
        <ele>1347</ele>
        <time>2022-05-14 15:29:43</time>
      </trkpt>
      <trkpt lat="10.06602" lon="-84.15063">
        <ele>1347</ele>
        <time>2022-05-14 15:29:44</time>
      </trkpt>
      <trkpt lat="10.06602" lon="-84.15063">
        <ele>1347.2</ele>
        <time>2022-05-14 15:29:45</time>
      </trkpt>
      <trkpt lat="10.066" lon="-84.15071">
        <ele>1347.6</ele>
        <time>2022-05-14 15:29:46</time>
      </trkpt>
      <trkpt lat="10.06599" lon="-84.15075">
        <ele>1348</ele>
        <time>2022-05-14 15:29:47</time>
      </trkpt>
      <trkpt lat="10.06598" lon="-84.15078">
        <ele>1348.4</ele>
        <time>2022-05-14 15:29:48</time>
      </trkpt>
      <trkpt lat="10.06597" lon="-84.15082">
        <ele>1348.6</ele>
        <time>2022-05-14 15:29:49</time>
      </trkpt>
      <trkpt lat="10.06596" lon="-84.15086">
        <ele>1349</ele>
        <time>2022-05-14 15:29:50</time>
      </trkpt>
      <trkpt lat="10.06594" lon="-84.1509">
        <ele>1349.4</ele>
        <time>2022-05-14 15:29:51</time>
      </trkpt>
      <trkpt lat="10.06594" lon="-84.15093">
        <ele>1349.8</ele>
        <time>2022-05-14 15:29:52</time>
      </trkpt>
      <trkpt lat="10.06593" lon="-84.15097">
        <ele>1350</ele>
        <time>2022-05-14 15:29:53</time>
      </trkpt>
      <trkpt lat="10.06592" lon="-84.15101">
        <ele>1350.2</ele>
        <time>2022-05-14 15:29:54</time>
      </trkpt>
      <trkpt lat="10.06592" lon="-84.15105">
        <ele>1350.4</ele>
        <time>2022-05-14 15:29:55</time>
      </trkpt>
      <trkpt lat="10.06592" lon="-84.15105">
        <ele>1350.8</ele>
        <time>2022-05-14 15:29:56</time>
      </trkpt>
      <trkpt lat="10.0659" lon="-84.15112">
        <ele>1351</ele>
        <time>2022-05-14 15:29:57</time>
      </trkpt>
      <trkpt lat="10.0659" lon="-84.15116">
        <ele>1351.4</ele>
        <time>2022-05-14 15:29:58</time>
      </trkpt>
      <trkpt lat="10.06589" lon="-84.15121">
        <ele>1351.4</ele>
        <time>2022-05-14 15:29:59</time>
      </trkpt>
      <trkpt lat="10.06588" lon="-84.15124">
        <ele>1351.6</ele>
        <time>2022-05-14 15:30:00</time>
      </trkpt>
      <trkpt lat="10.06588" lon="-84.15128">
        <ele>1351.8</ele>
        <time>2022-05-14 15:30:01</time>
      </trkpt>
      <trkpt lat="10.06587" lon="-84.15131">
        <ele>1351.8</ele>
        <time>2022-05-14 15:30:02</time>
      </trkpt>
      <trkpt lat="10.06586" lon="-84.15135">
        <ele>1352</ele>
        <time>2022-05-14 15:30:03</time>
      </trkpt>
      <trkpt lat="10.06585" lon="-84.15139">
        <ele>1352</ele>
        <time>2022-05-14 15:30:04</time>
      </trkpt>
      <trkpt lat="10.06584" lon="-84.15143">
        <ele>1352</ele>
        <time>2022-05-14 15:30:05</time>
      </trkpt>
      <trkpt lat="10.06584" lon="-84.15143">
        <ele>1352</ele>
        <time>2022-05-14 15:30:06</time>
      </trkpt>
      <trkpt lat="10.06584" lon="-84.15152">
        <ele>1351.8</ele>
        <time>2022-05-14 15:30:07</time>
      </trkpt>
      <trkpt lat="10.06583" lon="-84.15157">
        <ele>1351.8</ele>
        <time>2022-05-14 15:30:08</time>
      </trkpt>
      <trkpt lat="10.06583" lon="-84.15163">
        <ele>1351.4</ele>
        <time>2022-05-14 15:30:09</time>
      </trkpt>
      <trkpt lat="10.06582" lon="-84.15169">
        <ele>1351.2</ele>
        <time>2022-05-14 15:30:10</time>
      </trkpt>
      <trkpt lat="10.06582" lon="-84.15174">
        <ele>1350.8</ele>
        <time>2022-05-14 15:30:11</time>
      </trkpt>
      <trkpt lat="10.06581" lon="-84.1518">
        <ele>1350.2</ele>
        <time>2022-05-14 15:30:12</time>
      </trkpt>
      <trkpt lat="10.0658" lon="-84.15187">
        <ele>1349.8</ele>
        <time>2022-05-14 15:30:13</time>
      </trkpt>
      <trkpt lat="10.06581" lon="-84.15194">
        <ele>1349.4</ele>
        <time>2022-05-14 15:30:14</time>
      </trkpt>
      <trkpt lat="10.06583" lon="-84.15201">
        <ele>1349</ele>
        <time>2022-05-14 15:30:15</time>
      </trkpt>
      <trkpt lat="10.06583" lon="-84.15201">
        <ele>1348.2</ele>
        <time>2022-05-14 15:30:16</time>
      </trkpt>
      <trkpt lat="10.06583" lon="-84.15201">
        <ele>1347.6</ele>
        <time>2022-05-14 15:30:17</time>
      </trkpt>
      <trkpt lat="10.06592" lon="-84.15223">
        <ele>1347</ele>
        <time>2022-05-14 15:30:18</time>
      </trkpt>
      <trkpt lat="10.06596" lon="-84.15231">
        <ele>1346.6</ele>
        <time>2022-05-14 15:30:19</time>
      </trkpt>
      <trkpt lat="10.06601" lon="-84.15239">
        <ele>1345.8</ele>
        <time>2022-05-14 15:30:20</time>
      </trkpt>
      <trkpt lat="10.06606" lon="-84.15247">
        <ele>1345</ele>
        <time>2022-05-14 15:30:21</time>
      </trkpt>
      <trkpt lat="10.06612" lon="-84.15255">
        <ele>1344</ele>
        <time>2022-05-14 15:30:22</time>
      </trkpt>
      <trkpt lat="10.06617" lon="-84.15263">
        <ele>1343.2</ele>
        <time>2022-05-14 15:30:23</time>
      </trkpt>
      <trkpt lat="10.06622" lon="-84.15271">
        <ele>1342.4</ele>
        <time>2022-05-14 15:30:24</time>
      </trkpt>
      <trkpt lat="10.06628" lon="-84.1528">
        <ele>1341.4</ele>
        <time>2022-05-14 15:30:25</time>
      </trkpt>
      <trkpt lat="10.06628" lon="-84.1528">
        <ele>1341.4</ele>
        <time>2022-05-14 15:30:26</time>
      </trkpt>
      <trkpt lat="10.06628" lon="-84.1528">
        <ele>1340.4</ele>
        <time>2022-05-14 15:30:27</time>
      </trkpt>
      <trkpt lat="10.06646" lon="-84.15305">
        <ele>1339.4</ele>
        <time>2022-05-14 15:30:28</time>
      </trkpt>
      <trkpt lat="10.06653" lon="-84.15314">
        <ele>1338.6</ele>
        <time>2022-05-14 15:30:29</time>
      </trkpt>
      <trkpt lat="10.0666" lon="-84.15321">
        <ele>1338</ele>
        <time>2022-05-14 15:30:30</time>
      </trkpt>
      <trkpt lat="10.06669" lon="-84.15329">
        <ele>1337.2</ele>
        <time>2022-05-14 15:30:31</time>
      </trkpt>
      <trkpt lat="10.06678" lon="-84.15334">
        <ele>1336.6</ele>
        <time>2022-05-14 15:30:32</time>
      </trkpt>
      <trkpt lat="10.06688" lon="-84.15341">
        <ele>1336</ele>
        <time>2022-05-14 15:30:33</time>
      </trkpt>
      <trkpt lat="10.06697" lon="-84.15347">
        <ele>1335.2</ele>
        <time>2022-05-14 15:30:34</time>
      </trkpt>
      <trkpt lat="10.06706" lon="-84.15354">
        <ele>1334.6</ele>
        <time>2022-05-14 15:30:35</time>
      </trkpt>
      <trkpt lat="10.06715" lon="-84.15359">
        <ele>1334.2</ele>
        <time>2022-05-14 15:30:36</time>
      </trkpt>
      <trkpt lat="10.06715" lon="-84.15359">
        <ele>1333.8</ele>
        <time>2022-05-14 15:30:37</time>
      </trkpt>
      <trkpt lat="10.06732" lon="-84.1537">
        <ele>1333.8</ele>
        <time>2022-05-14 15:30:38</time>
      </trkpt>
      <trkpt lat="10.06741" lon="-84.15375">
        <ele>1333.8</ele>
        <time>2022-05-14 15:30:39</time>
      </trkpt>
      <trkpt lat="10.0675" lon="-84.15378">
        <ele>1334</ele>
        <time>2022-05-14 15:30:40</time>
      </trkpt>
      <trkpt lat="10.06758" lon="-84.1538">
        <ele>1334.2</ele>
        <time>2022-05-14 15:30:41</time>
      </trkpt>
      <trkpt lat="10.06765" lon="-84.15381">
        <ele>1334.8</ele>
        <time>2022-05-14 15:30:42</time>
      </trkpt>
      <trkpt lat="10.06772" lon="-84.15381">
        <ele>1335.2</ele>
        <time>2022-05-14 15:30:43</time>
      </trkpt>
      <trkpt lat="10.06779" lon="-84.1538">
        <ele>1335.4</ele>
        <time>2022-05-14 15:30:44</time>
      </trkpt>
      <trkpt lat="10.06785" lon="-84.15379">
        <ele>1335.6</ele>
        <time>2022-05-14 15:30:45</time>
      </trkpt>
      <trkpt lat="10.06792" lon="-84.15379">
        <ele>1335.8</ele>
        <time>2022-05-14 15:30:46</time>
      </trkpt>
      <trkpt lat="10.06792" lon="-84.15379">
        <ele>1335.8</ele>
        <time>2022-05-14 15:30:47</time>
      </trkpt>
      <trkpt lat="10.06804" lon="-84.15378">
        <ele>1336</ele>
        <time>2022-05-14 15:30:48</time>
      </trkpt>
      <trkpt lat="10.0681" lon="-84.15378">
        <ele>1336</ele>
        <time>2022-05-14 15:30:49</time>
      </trkpt>
      <trkpt lat="10.06816" lon="-84.15377">
        <ele>1336</ele>
        <time>2022-05-14 15:30:50</time>
      </trkpt>
      <trkpt lat="10.06821" lon="-84.15377">
        <ele>1336.2</ele>
        <time>2022-05-14 15:30:51</time>
      </trkpt>
      <trkpt lat="10.06827" lon="-84.15377">
        <ele>1336.2</ele>
        <time>2022-05-14 15:30:52</time>
      </trkpt>
      <trkpt lat="10.06832" lon="-84.15377">
        <ele>1336.4</ele>
        <time>2022-05-14 15:30:53</time>
      </trkpt>
      <trkpt lat="10.06837" lon="-84.15377">
        <ele>1336.8</ele>
        <time>2022-05-14 15:30:54</time>
      </trkpt>
      <trkpt lat="10.06842" lon="-84.15377">
        <ele>1337</ele>
        <time>2022-05-14 15:30:55</time>
      </trkpt>
      <trkpt lat="10.06847" lon="-84.15377">
        <ele>1337.2</ele>
        <time>2022-05-14 15:30:56</time>
      </trkpt>
      <trkpt lat="10.06847" lon="-84.15377">
        <ele>1337.6</ele>
        <time>2022-05-14 15:30:57</time>
      </trkpt>
      <trkpt lat="10.06847" lon="-84.15377">
        <ele>1338</ele>
        <time>2022-05-14 15:30:58</time>
      </trkpt>
      <trkpt lat="10.06861" lon="-84.15376">
        <ele>1338.2</ele>
        <time>2022-05-14 15:30:59</time>
      </trkpt>
      <trkpt lat="10.06865" lon="-84.15376">
        <ele>1338.4</ele>
        <time>2022-05-14 15:31:00</time>
      </trkpt>
      <trkpt lat="10.06869" lon="-84.15376">
        <ele>1338.8</ele>
        <time>2022-05-14 15:31:01</time>
      </trkpt>
      <trkpt lat="10.06874" lon="-84.15376">
        <ele>1339.2</ele>
        <time>2022-05-14 15:31:02</time>
      </trkpt>
      <trkpt lat="10.06878" lon="-84.15376">
        <ele>1339.4</ele>
        <time>2022-05-14 15:31:03</time>
      </trkpt>
      <trkpt lat="10.06882" lon="-84.15376">
        <ele>1339.8</ele>
        <time>2022-05-14 15:31:04</time>
      </trkpt>
      <trkpt lat="10.06886" lon="-84.15376">
        <ele>1340</ele>
        <time>2022-05-14 15:31:05</time>
      </trkpt>
      <trkpt lat="10.0689" lon="-84.15376">
        <ele>1340.2</ele>
        <time>2022-05-14 15:31:06</time>
      </trkpt>
      <trkpt lat="10.0689" lon="-84.15376">
        <ele>1340.2</ele>
        <time>2022-05-14 15:31:07</time>
      </trkpt>
      <trkpt lat="10.0689" lon="-84.15376">
        <ele>1340.2</ele>
        <time>2022-05-14 15:31:08</time>
      </trkpt>
      <trkpt lat="10.06901" lon="-84.15375">
        <ele>1340.4</ele>
        <time>2022-05-14 15:31:09</time>
      </trkpt>
      <trkpt lat="10.06906" lon="-84.15376">
        <ele>1340.6</ele>
        <time>2022-05-14 15:31:10</time>
      </trkpt>
      <trkpt lat="10.0691" lon="-84.15376">
        <ele>1340.8</ele>
        <time>2022-05-14 15:31:11</time>
      </trkpt>
      <trkpt lat="10.06914" lon="-84.15376">
        <ele>1340.8</ele>
        <time>2022-05-14 15:31:12</time>
      </trkpt>
      <trkpt lat="10.06918" lon="-84.15376">
        <ele>1341</ele>
        <time>2022-05-14 15:31:13</time>
      </trkpt>
      <trkpt lat="10.06923" lon="-84.15376">
        <ele>1341</ele>
        <time>2022-05-14 15:31:14</time>
      </trkpt>
      <trkpt lat="10.06927" lon="-84.15377">
        <ele>1341.2</ele>
        <time>2022-05-14 15:31:15</time>
      </trkpt>
      <trkpt lat="10.06932" lon="-84.15378">
        <ele>1341.4</ele>
        <time>2022-05-14 15:31:16</time>
      </trkpt>
      <trkpt lat="10.06937" lon="-84.15379">
        <ele>1341.4</ele>
        <time>2022-05-14 15:31:17</time>
      </trkpt>
      <trkpt lat="10.06937" lon="-84.15379">
        <ele>1341.4</ele>
        <time>2022-05-14 15:31:18</time>
      </trkpt>
      <trkpt lat="10.06937" lon="-84.15379">
        <ele>1341.6</ele>
        <time>2022-05-14 15:31:19</time>
      </trkpt>
      <trkpt lat="10.06952" lon="-84.15384">
        <ele>1341.6</ele>
        <time>2022-05-14 15:31:20</time>
      </trkpt>
      <trkpt lat="10.06956" lon="-84.15386">
        <ele>1341.6</ele>
        <time>2022-05-14 15:31:21</time>
      </trkpt>
      <trkpt lat="10.06961" lon="-84.15388">
        <ele>1341.6</ele>
        <time>2022-05-14 15:31:22</time>
      </trkpt>
      <trkpt lat="10.06966" lon="-84.15391">
        <ele>1341.6</ele>
        <time>2022-05-14 15:31:23</time>
      </trkpt>
      <trkpt lat="10.06971" lon="-84.15393">
        <ele>1341.8</ele>
        <time>2022-05-14 15:31:24</time>
      </trkpt>
      <trkpt lat="10.06975" lon="-84.15396">
        <ele>1341.8</ele>
        <time>2022-05-14 15:31:25</time>
      </trkpt>
      <trkpt lat="10.06979" lon="-84.15399">
        <ele>1341.8</ele>
        <time>2022-05-14 15:31:26</time>
      </trkpt>
      <trkpt lat="10.06984" lon="-84.15401">
        <ele>1342</ele>
        <time>2022-05-14 15:31:27</time>
      </trkpt>
      <trkpt lat="10.06992" lon="-84.15408">
        <ele>1342</ele>
        <time>2022-05-14 15:31:28</time>
      </trkpt>
      <trkpt lat="10.06992" lon="-84.15408">
        <ele>1342</ele>
        <time>2022-05-14 15:31:29</time>
      </trkpt>
      <trkpt lat="10.06996" lon="-84.15411">
        <ele>1342</ele>
        <time>2022-05-14 15:31:30</time>
      </trkpt>
      <trkpt lat="10.06999" lon="-84.15415">
        <ele>1342.2</ele>
        <time>2022-05-14 15:31:31</time>
      </trkpt>
      <trkpt lat="10.07002" lon="-84.15419">
        <ele>1342.2</ele>
        <time>2022-05-14 15:31:32</time>
      </trkpt>
      <trkpt lat="10.07004" lon="-84.15424">
        <ele>1342.4</ele>
        <time>2022-05-14 15:31:33</time>
      </trkpt>
      <trkpt lat="10.07005" lon="-84.15428">
        <ele>1342.6</ele>
        <time>2022-05-14 15:31:34</time>
      </trkpt>
      <trkpt lat="10.07006" lon="-84.15433">
        <ele>1342.8</ele>
        <time>2022-05-14 15:31:35</time>
      </trkpt>
      <trkpt lat="10.07006" lon="-84.15437">
        <ele>1343</ele>
        <time>2022-05-14 15:31:36</time>
      </trkpt>
      <trkpt lat="10.07006" lon="-84.15442">
        <ele>1343.4</ele>
        <time>2022-05-14 15:31:37</time>
      </trkpt>
      <trkpt lat="10.07006" lon="-84.15446">
        <ele>1343.6</ele>
        <time>2022-05-14 15:31:38</time>
      </trkpt>
      <trkpt lat="10.07006" lon="-84.15446">
        <ele>1343.8</ele>
        <time>2022-05-14 15:31:39</time>
      </trkpt>
      <trkpt lat="10.07004" lon="-84.15455">
        <ele>1344.2</ele>
        <time>2022-05-14 15:31:40</time>
      </trkpt>
      <trkpt lat="10.07003" lon="-84.15459">
        <ele>1344.6</ele>
        <time>2022-05-14 15:31:41</time>
      </trkpt>
      <trkpt lat="10.07002" lon="-84.15464">
        <ele>1345</ele>
        <time>2022-05-14 15:31:42</time>
      </trkpt>
      <trkpt lat="10.07001" lon="-84.15467">
        <ele>1345.4</ele>
        <time>2022-05-14 15:31:43</time>
      </trkpt>
      <trkpt lat="10.07" lon="-84.15472">
        <ele>1345.8</ele>
        <time>2022-05-14 15:31:44</time>
      </trkpt>
      <trkpt lat="10.06998" lon="-84.15476">
        <ele>1346.2</ele>
        <time>2022-05-14 15:31:45</time>
      </trkpt>
      <trkpt lat="10.06996" lon="-84.15481">
        <ele>1346.8</ele>
        <time>2022-05-14 15:31:46</time>
      </trkpt>
      <trkpt lat="10.06994" lon="-84.15486">
        <ele>1347.4</ele>
        <time>2022-05-14 15:31:47</time>
      </trkpt>
      <trkpt lat="10.06994" lon="-84.15486">
        <ele>1347.8</ele>
        <time>2022-05-14 15:31:48</time>
      </trkpt>
      <trkpt lat="10.07001" lon="-84.15497">
        <ele>1348.2</ele>
        <time>2022-05-14 15:31:49</time>
      </trkpt>
      <trkpt lat="10.07001" lon="-84.15497">
        <ele>1348.2</ele>
        <time>2022-05-14 15:31:50</time>
      </trkpt>
      <trkpt lat="10.07005" lon="-84.15496">
        <ele>1348.4</ele>
        <time>2022-05-14 15:31:51</time>
      </trkpt>
      <trkpt lat="10.07008" lon="-84.15495">
        <ele>1348.6</ele>
        <time>2022-05-14 15:31:52</time>
      </trkpt>
      <trkpt lat="10.07011" lon="-84.15492">
        <ele>1348.8</ele>
        <time>2022-05-14 15:31:53</time>
      </trkpt>
      <trkpt lat="10.07015" lon="-84.15489">
        <ele>1348.8</ele>
        <time>2022-05-14 15:31:54</time>
      </trkpt>
      <trkpt lat="10.07018" lon="-84.15486">
        <ele>1348.4</ele>
        <time>2022-05-14 15:31:55</time>
      </trkpt>
      <trkpt lat="10.07022" lon="-84.15482">
        <ele>1348.2</ele>
        <time>2022-05-14 15:31:56</time>
      </trkpt>
      <trkpt lat="10.07026" lon="-84.15479">
        <ele>1348</ele>
        <time>2022-05-14 15:31:57</time>
      </trkpt>
      <trkpt lat="10.07031" lon="-84.15475">
        <ele>1348</ele>
        <time>2022-05-14 15:31:58</time>
      </trkpt>
      <trkpt lat="10.07031" lon="-84.15475">
        <ele>1347.8</ele>
        <time>2022-05-14 15:31:59</time>
      </trkpt>
      <trkpt lat="10.07031" lon="-84.15475">
        <ele>1347.6</ele>
        <time>2022-05-14 15:32:00</time>
      </trkpt>
      <trkpt lat="10.07047" lon="-84.15468">
        <ele>1347.2</ele>
        <time>2022-05-14 15:32:01</time>
      </trkpt>
      <trkpt lat="10.07053" lon="-84.15466">
        <ele>1347.2</ele>
        <time>2022-05-14 15:32:02</time>
      </trkpt>
      <trkpt lat="10.07059" lon="-84.15465">
        <ele>1347</ele>
        <time>2022-05-14 15:32:03</time>
      </trkpt>
      <trkpt lat="10.07066" lon="-84.15464">
        <ele>1346.8</ele>
        <time>2022-05-14 15:32:04</time>
      </trkpt>
      <trkpt lat="10.07072" lon="-84.15464">
        <ele>1346.6</ele>
        <time>2022-05-14 15:32:05</time>
      </trkpt>
      <trkpt lat="10.07078" lon="-84.15464">
        <ele>1346.6</ele>
        <time>2022-05-14 15:32:06</time>
      </trkpt>
      <trkpt lat="10.07083" lon="-84.15464">
        <ele>1346.8</ele>
        <time>2022-05-14 15:32:07</time>
      </trkpt>
      <trkpt lat="10.07088" lon="-84.15464">
        <ele>1346.6</ele>
        <time>2022-05-14 15:32:08</time>
      </trkpt>
      <trkpt lat="10.07094" lon="-84.15468">
        <ele>1346.6</ele>
        <time>2022-05-14 15:32:09</time>
      </trkpt>
      <trkpt lat="10.07096" lon="-84.15472">
        <ele>1346.6</ele>
        <time>2022-05-14 15:32:10</time>
      </trkpt>
      <trkpt lat="10.07096" lon="-84.15472">
        <ele>1346.6</ele>
        <time>2022-05-14 15:32:11</time>
      </trkpt>
      <trkpt lat="10.07098" lon="-84.15477">
        <ele>1346.4</ele>
        <time>2022-05-14 15:32:12</time>
      </trkpt>
      <trkpt lat="10.07099" lon="-84.15482">
        <ele>1346.4</ele>
        <time>2022-05-14 15:32:13</time>
      </trkpt>
      <trkpt lat="10.071" lon="-84.15487">
        <ele>1346.4</ele>
        <time>2022-05-14 15:32:14</time>
      </trkpt>
      <trkpt lat="10.071" lon="-84.15491">
        <ele>1346.6</ele>
        <time>2022-05-14 15:32:15</time>
      </trkpt>
      <trkpt lat="10.071" lon="-84.15497">
        <ele>1346.8</ele>
        <time>2022-05-14 15:32:16</time>
      </trkpt>
      <trkpt lat="10.071" lon="-84.15501">
        <ele>1347.2</ele>
        <time>2022-05-14 15:32:17</time>
      </trkpt>
      <trkpt lat="10.071" lon="-84.15505">
        <ele>1347.6</ele>
        <time>2022-05-14 15:32:18</time>
      </trkpt>
      <trkpt lat="10.07099" lon="-84.15509">
        <ele>1347.8</ele>
        <time>2022-05-14 15:32:19</time>
      </trkpt>
      <trkpt lat="10.07097" lon="-84.15516">
        <ele>1348.2</ele>
        <time>2022-05-14 15:32:20</time>
      </trkpt>
      <trkpt lat="10.07097" lon="-84.15516">
        <ele>1348.6</ele>
        <time>2022-05-14 15:32:21</time>
      </trkpt>
      <trkpt lat="10.07096" lon="-84.15519">
        <ele>1348.8</ele>
        <time>2022-05-14 15:32:22</time>
      </trkpt>
      <trkpt lat="10.07095" lon="-84.15522">
        <ele>1349.2</ele>
        <time>2022-05-14 15:32:23</time>
      </trkpt>
      <trkpt lat="10.07094" lon="-84.15524">
        <ele>1349.6</ele>
        <time>2022-05-14 15:32:24</time>
      </trkpt>
      <trkpt lat="10.07093" lon="-84.15527">
        <ele>1349.8</ele>
        <time>2022-05-14 15:32:25</time>
      </trkpt>
      <trkpt lat="10.07092" lon="-84.15531">
        <ele>1350</ele>
        <time>2022-05-14 15:32:26</time>
      </trkpt>
      <trkpt lat="10.07091" lon="-84.15534">
        <ele>1350.2</ele>
        <time>2022-05-14 15:32:27</time>
      </trkpt>
      <trkpt lat="10.07089" lon="-84.15538">
        <ele>1350.6</ele>
        <time>2022-05-14 15:32:28</time>
      </trkpt>
      <trkpt lat="10.07088" lon="-84.15541">
        <ele>1350.8</ele>
        <time>2022-05-14 15:32:29</time>
      </trkpt>
      <trkpt lat="10.07086" lon="-84.15548">
        <ele>1351</ele>
        <time>2022-05-14 15:32:30</time>
      </trkpt>
      <trkpt lat="10.07085" lon="-84.15552">
        <ele>1351.4</ele>
        <time>2022-05-14 15:32:31</time>
      </trkpt>
      <trkpt lat="10.07085" lon="-84.15552">
        <ele>1351.4</ele>
        <time>2022-05-14 15:32:32</time>
      </trkpt>
      <trkpt lat="10.07084" lon="-84.15555">
        <ele>1351.8</ele>
        <time>2022-05-14 15:32:33</time>
      </trkpt>
      <trkpt lat="10.07082" lon="-84.1556">
        <ele>1352</ele>
        <time>2022-05-14 15:32:34</time>
      </trkpt>
      <trkpt lat="10.0708" lon="-84.15563">
        <ele>1352.4</ele>
        <time>2022-05-14 15:32:35</time>
      </trkpt>
      <trkpt lat="10.07079" lon="-84.15567">
        <ele>1352.6</ele>
        <time>2022-05-14 15:32:36</time>
      </trkpt>
      <trkpt lat="10.07078" lon="-84.1557">
        <ele>1352.8</ele>
        <time>2022-05-14 15:32:37</time>
      </trkpt>
      <trkpt lat="10.07077" lon="-84.15574">
        <ele>1353</ele>
        <time>2022-05-14 15:32:38</time>
      </trkpt>
      <trkpt lat="10.07075" lon="-84.15578">
        <ele>1353.2</ele>
        <time>2022-05-14 15:32:39</time>
      </trkpt>
      <trkpt lat="10.07075" lon="-84.15578">
        <ele>1353.6</ele>
        <time>2022-05-14 15:32:40</time>
      </trkpt>
      <trkpt lat="10.07073" lon="-84.15587">
        <ele>1353.8</ele>
        <time>2022-05-14 15:32:41</time>
      </trkpt>
      <trkpt lat="10.07073" lon="-84.15587">
        <ele>1354</ele>
        <time>2022-05-14 15:32:42</time>
      </trkpt>
      <trkpt lat="10.07073" lon="-84.15591">
        <ele>1354.4</ele>
        <time>2022-05-14 15:32:43</time>
      </trkpt>
      <trkpt lat="10.07072" lon="-84.15594">
        <ele>1354.6</ele>
        <time>2022-05-14 15:32:44</time>
      </trkpt>
      <trkpt lat="10.07072" lon="-84.15598">
        <ele>1354.8</ele>
        <time>2022-05-14 15:32:45</time>
      </trkpt>
      <trkpt lat="10.07071" lon="-84.15601">
        <ele>1355</ele>
        <time>2022-05-14 15:32:46</time>
      </trkpt>
      <trkpt lat="10.0707" lon="-84.15604">
        <ele>1355.4</ele>
        <time>2022-05-14 15:32:47</time>
      </trkpt>
      <trkpt lat="10.0707" lon="-84.15607">
        <ele>1355.8</ele>
        <time>2022-05-14 15:32:48</time>
      </trkpt>
      <trkpt lat="10.0707" lon="-84.1561">
        <ele>1356</ele>
        <time>2022-05-14 15:32:49</time>
      </trkpt>
      <trkpt lat="10.0707" lon="-84.1561">
        <ele>1356.4</ele>
        <time>2022-05-14 15:32:50</time>
      </trkpt>
      <trkpt lat="10.07069" lon="-84.15621">
        <ele>1356.8</ele>
        <time>2022-05-14 15:32:51</time>
      </trkpt>
      <trkpt lat="10.07069" lon="-84.15623">
        <ele>1357.2</ele>
        <time>2022-05-14 15:32:52</time>
      </trkpt>
      <trkpt lat="10.07069" lon="-84.15623">
        <ele>1357.2</ele>
        <time>2022-05-14 15:32:53</time>
      </trkpt>
      <trkpt lat="10.07069" lon="-84.15627">
        <ele>1357.4</ele>
        <time>2022-05-14 15:32:54</time>
      </trkpt>
      <trkpt lat="10.07069" lon="-84.1563">
        <ele>1357.6</ele>
        <time>2022-05-14 15:32:55</time>
      </trkpt>
      <trkpt lat="10.0707" lon="-84.15632">
        <ele>1357.8</ele>
        <time>2022-05-14 15:32:56</time>
      </trkpt>
      <trkpt lat="10.0707" lon="-84.15636">
        <ele>1358.2</ele>
        <time>2022-05-14 15:32:57</time>
      </trkpt>
      <trkpt lat="10.07071" lon="-84.15638">
        <ele>1358.6</ele>
        <time>2022-05-14 15:32:58</time>
      </trkpt>
      <trkpt lat="10.07072" lon="-84.15641">
        <ele>1359</ele>
        <time>2022-05-14 15:32:59</time>
      </trkpt>
      <trkpt lat="10.07074" lon="-84.15644">
        <ele>1359.4</ele>
        <time>2022-05-14 15:33:00</time>
      </trkpt>
      <trkpt lat="10.07074" lon="-84.15644">
        <ele>1359.8</ele>
        <time>2022-05-14 15:33:01</time>
      </trkpt>
      <trkpt lat="10.07078" lon="-84.15652">
        <ele>1360</ele>
        <time>2022-05-14 15:33:02</time>
      </trkpt>
      <trkpt lat="10.07078" lon="-84.15652">
        <ele>1360.4</ele>
        <time>2022-05-14 15:33:03</time>
      </trkpt>
      <trkpt lat="10.0708" lon="-84.15654">
        <ele>1360.8</ele>
        <time>2022-05-14 15:33:04</time>
      </trkpt>
      <trkpt lat="10.07082" lon="-84.15656">
        <ele>1361.2</ele>
        <time>2022-05-14 15:33:05</time>
      </trkpt>
      <trkpt lat="10.07084" lon="-84.15659">
        <ele>1361.4</ele>
        <time>2022-05-14 15:33:06</time>
      </trkpt>
      <trkpt lat="10.07086" lon="-84.15661">
        <ele>1361.8</ele>
        <time>2022-05-14 15:33:07</time>
      </trkpt>
      <trkpt lat="10.07088" lon="-84.15663">
        <ele>1362</ele>
        <time>2022-05-14 15:33:08</time>
      </trkpt>
      <trkpt lat="10.07091" lon="-84.15664">
        <ele>1362.4</ele>
        <time>2022-05-14 15:33:09</time>
      </trkpt>
      <trkpt lat="10.07093" lon="-84.15665">
        <ele>1362.6</ele>
        <time>2022-05-14 15:33:10</time>
      </trkpt>
      <trkpt lat="10.07098" lon="-84.15668">
        <ele>1363</ele>
        <time>2022-05-14 15:33:11</time>
      </trkpt>
      <trkpt lat="10.07101" lon="-84.1567">
        <ele>1363.2</ele>
        <time>2022-05-14 15:33:12</time>
      </trkpt>
      <trkpt lat="10.07104" lon="-84.1567">
        <ele>1363.6</ele>
        <time>2022-05-14 15:33:13</time>
      </trkpt>
      <trkpt lat="10.07104" lon="-84.1567">
        <ele>1363.6</ele>
        <time>2022-05-14 15:33:14</time>
      </trkpt>
      <trkpt lat="10.07106" lon="-84.1567">
        <ele>1364</ele>
        <time>2022-05-14 15:33:15</time>
      </trkpt>
      <trkpt lat="10.07109" lon="-84.15671">
        <ele>1364.4</ele>
        <time>2022-05-14 15:33:16</time>
      </trkpt>
      <trkpt lat="10.07112" lon="-84.15671">
        <ele>1364.8</ele>
        <time>2022-05-14 15:33:17</time>
      </trkpt>
      <trkpt lat="10.07115" lon="-84.15671">
        <ele>1365</ele>
        <time>2022-05-14 15:33:18</time>
      </trkpt>
      <trkpt lat="10.07118" lon="-84.15671">
        <ele>1365.4</ele>
        <time>2022-05-14 15:33:19</time>
      </trkpt>
      <trkpt lat="10.07121" lon="-84.15671">
        <ele>1365.6</ele>
        <time>2022-05-14 15:33:20</time>
      </trkpt>
      <trkpt lat="10.07123" lon="-84.1567">
        <ele>1366</ele>
        <time>2022-05-14 15:33:21</time>
      </trkpt>
      <trkpt lat="10.07129" lon="-84.1567">
        <ele>1366.2</ele>
        <time>2022-05-14 15:33:22</time>
      </trkpt>
      <trkpt lat="10.07132" lon="-84.15668">
        <ele>1366.4</ele>
        <time>2022-05-14 15:33:23</time>
      </trkpt>
      <trkpt lat="10.07132" lon="-84.15668">
        <ele>1366.8</ele>
        <time>2022-05-14 15:33:24</time>
      </trkpt>
      <trkpt lat="10.07134" lon="-84.15668">
        <ele>1367</ele>
        <time>2022-05-14 15:33:25</time>
      </trkpt>
      <trkpt lat="10.07137" lon="-84.15667">
        <ele>1367.2</ele>
        <time>2022-05-14 15:33:26</time>
      </trkpt>
      <trkpt lat="10.0714" lon="-84.15665">
        <ele>1367.6</ele>
        <time>2022-05-14 15:33:27</time>
      </trkpt>
      <trkpt lat="10.07142" lon="-84.15665">
        <ele>1368</ele>
        <time>2022-05-14 15:33:28</time>
      </trkpt>
      <trkpt lat="10.07144" lon="-84.15663">
        <ele>1368.2</ele>
        <time>2022-05-14 15:33:29</time>
      </trkpt>
      <trkpt lat="10.07147" lon="-84.15661">
        <ele>1368.4</ele>
        <time>2022-05-14 15:33:30</time>
      </trkpt>
      <trkpt lat="10.07147" lon="-84.15661">
        <ele>1368.6</ele>
        <time>2022-05-14 15:33:31</time>
      </trkpt>
      <trkpt lat="10.07154" lon="-84.15657">
        <ele>1368.8</ele>
        <time>2022-05-14 15:33:32</time>
      </trkpt>
      <trkpt lat="10.07156" lon="-84.15656">
        <ele>1369.2</ele>
        <time>2022-05-14 15:33:33</time>
      </trkpt>
      <trkpt lat="10.07158" lon="-84.15654">
        <ele>1369.4</ele>
        <time>2022-05-14 15:33:34</time>
      </trkpt>
      <trkpt lat="10.07158" lon="-84.15654">
        <ele>1369.4</ele>
        <time>2022-05-14 15:33:35</time>
      </trkpt>
      <trkpt lat="10.0716" lon="-84.15652">
        <ele>1369.6</ele>
        <time>2022-05-14 15:33:36</time>
      </trkpt>
      <trkpt lat="10.07163" lon="-84.1565">
        <ele>1369.8</ele>
        <time>2022-05-14 15:33:37</time>
      </trkpt>
      <trkpt lat="10.07165" lon="-84.15648">
        <ele>1370</ele>
        <time>2022-05-14 15:33:38</time>
      </trkpt>
      <trkpt lat="10.07167" lon="-84.15645">
        <ele>1370.2</ele>
        <time>2022-05-14 15:33:39</time>
      </trkpt>
      <trkpt lat="10.0717" lon="-84.15644">
        <ele>1370.6</ele>
        <time>2022-05-14 15:33:40</time>
      </trkpt>
      <trkpt lat="10.07172" lon="-84.15642">
        <ele>1370.8</ele>
        <time>2022-05-14 15:33:41</time>
      </trkpt>
      <trkpt lat="10.07172" lon="-84.15642">
        <ele>1371</ele>
        <time>2022-05-14 15:33:42</time>
      </trkpt>
      <trkpt lat="10.07179" lon="-84.15635">
        <ele>1371.4</ele>
        <time>2022-05-14 15:33:43</time>
      </trkpt>
      <trkpt lat="10.07181" lon="-84.15634">
        <ele>1371.6</ele>
        <time>2022-05-14 15:33:44</time>
      </trkpt>
      <trkpt lat="10.07181" lon="-84.15634">
        <ele>1371.8</ele>
        <time>2022-05-14 15:33:45</time>
      </trkpt>
      <trkpt lat="10.07184" lon="-84.15631">
        <ele>1372</ele>
        <time>2022-05-14 15:33:46</time>
      </trkpt>
      <trkpt lat="10.07186" lon="-84.15629">
        <ele>1372.2</ele>
        <time>2022-05-14 15:33:47</time>
      </trkpt>
      <trkpt lat="10.07189" lon="-84.15627">
        <ele>1372.6</ele>
        <time>2022-05-14 15:33:48</time>
      </trkpt>
      <trkpt lat="10.07191" lon="-84.15625">
        <ele>1372.8</ele>
        <time>2022-05-14 15:33:49</time>
      </trkpt>
      <trkpt lat="10.07193" lon="-84.15623">
        <ele>1373</ele>
        <time>2022-05-14 15:33:50</time>
      </trkpt>
      <trkpt lat="10.07196" lon="-84.15621">
        <ele>1373.4</ele>
        <time>2022-05-14 15:33:51</time>
      </trkpt>
      <trkpt lat="10.07196" lon="-84.15621">
        <ele>1373.6</ele>
        <time>2022-05-14 15:33:52</time>
      </trkpt>
      <trkpt lat="10.07203" lon="-84.15614">
        <ele>1373.8</ele>
        <time>2022-05-14 15:33:53</time>
      </trkpt>
      <trkpt lat="10.07206" lon="-84.15613">
        <ele>1374</ele>
        <time>2022-05-14 15:33:54</time>
      </trkpt>
      <trkpt lat="10.07208" lon="-84.1561">
        <ele>1374.2</ele>
        <time>2022-05-14 15:33:55</time>
      </trkpt>
      <trkpt lat="10.07208" lon="-84.1561">
        <ele>1374.2</ele>
        <time>2022-05-14 15:33:56</time>
      </trkpt>
      <trkpt lat="10.07211" lon="-84.15609">
        <ele>1374.4</ele>
        <time>2022-05-14 15:33:57</time>
      </trkpt>
      <trkpt lat="10.07214" lon="-84.15607">
        <ele>1374.8</ele>
        <time>2022-05-14 15:33:58</time>
      </trkpt>
      <trkpt lat="10.07216" lon="-84.15605">
        <ele>1375</ele>
        <time>2022-05-14 15:33:59</time>
      </trkpt>
      <trkpt lat="10.07219" lon="-84.15603">
        <ele>1375.2</ele>
        <time>2022-05-14 15:34:00</time>
      </trkpt>
      <trkpt lat="10.07221" lon="-84.15601">
        <ele>1375.4</ele>
        <time>2022-05-14 15:34:01</time>
      </trkpt>
      <trkpt lat="10.07224" lon="-84.15599">
        <ele>1375.8</ele>
        <time>2022-05-14 15:34:02</time>
      </trkpt>
      <trkpt lat="10.07228" lon="-84.15594">
        <ele>1376</ele>
        <time>2022-05-14 15:34:03</time>
      </trkpt>
      <trkpt lat="10.07231" lon="-84.15592">
        <ele>1376.4</ele>
        <time>2022-05-14 15:34:04</time>
      </trkpt>
      <trkpt lat="10.07234" lon="-84.1559">
        <ele>1376.6</ele>
        <time>2022-05-14 15:34:05</time>
      </trkpt>
      <trkpt lat="10.07234" lon="-84.1559">
        <ele>1376.8</ele>
        <time>2022-05-14 15:34:06</time>
      </trkpt>
      <trkpt lat="10.07236" lon="-84.15587">
        <ele>1377</ele>
        <time>2022-05-14 15:34:07</time>
      </trkpt>
      <trkpt lat="10.07239" lon="-84.15585">
        <ele>1377.4</ele>
        <time>2022-05-14 15:34:08</time>
      </trkpt>
      <trkpt lat="10.07242" lon="-84.15583">
        <ele>1377.6</ele>
        <time>2022-05-14 15:34:09</time>
      </trkpt>
      <trkpt lat="10.07244" lon="-84.15581">
        <ele>1378</ele>
        <time>2022-05-14 15:34:10</time>
      </trkpt>
      <trkpt lat="10.07247" lon="-84.15578">
        <ele>1378.2</ele>
        <time>2022-05-14 15:34:11</time>
      </trkpt>
      <trkpt lat="10.07249" lon="-84.15576">
        <ele>1378.4</ele>
        <time>2022-05-14 15:34:12</time>
      </trkpt>
      <trkpt lat="10.07255" lon="-84.15572">
        <ele>1378.6</ele>
        <time>2022-05-14 15:34:13</time>
      </trkpt>
      <trkpt lat="10.07257" lon="-84.1557">
        <ele>1378.8</ele>
        <time>2022-05-14 15:34:14</time>
      </trkpt>
      <trkpt lat="10.0726" lon="-84.15568">
        <ele>1379</ele>
        <time>2022-05-14 15:34:15</time>
      </trkpt>
      <trkpt lat="10.07262" lon="-84.15565">
        <ele>1379.2</ele>
        <time>2022-05-14 15:34:16</time>
      </trkpt>
      <trkpt lat="10.07262" lon="-84.15565">
        <ele>1379.2</ele>
        <time>2022-05-14 15:34:17</time>
      </trkpt>
      <trkpt lat="10.07265" lon="-84.15564">
        <ele>1379.4</ele>
        <time>2022-05-14 15:34:18</time>
      </trkpt>
      <trkpt lat="10.07267" lon="-84.15562">
        <ele>1379.8</ele>
        <time>2022-05-14 15:34:19</time>
      </trkpt>
      <trkpt lat="10.0727" lon="-84.1556">
        <ele>1380</ele>
        <time>2022-05-14 15:34:20</time>
      </trkpt>
      <trkpt lat="10.07273" lon="-84.15558">
        <ele>1380</ele>
        <time>2022-05-14 15:34:21</time>
      </trkpt>
      <trkpt lat="10.07275" lon="-84.15556">
        <ele>1380.2</ele>
        <time>2022-05-14 15:34:22</time>
      </trkpt>
      <trkpt lat="10.07278" lon="-84.15553">
        <ele>1380.4</ele>
        <time>2022-05-14 15:34:23</time>
      </trkpt>
      <trkpt lat="10.07283" lon="-84.15549">
        <ele>1380.6</ele>
        <time>2022-05-14 15:34:24</time>
      </trkpt>
      <trkpt lat="10.07286" lon="-84.15547">
        <ele>1380.8</ele>
        <time>2022-05-14 15:34:25</time>
      </trkpt>
      <trkpt lat="10.07288" lon="-84.15545">
        <ele>1381</ele>
        <time>2022-05-14 15:34:26</time>
      </trkpt>
      <trkpt lat="10.07288" lon="-84.15545">
        <ele>1381.2</ele>
        <time>2022-05-14 15:34:27</time>
      </trkpt>
      <trkpt lat="10.07291" lon="-84.15542">
        <ele>1381.4</ele>
        <time>2022-05-14 15:34:28</time>
      </trkpt>
      <trkpt lat="10.07294" lon="-84.1554">
        <ele>1381.6</ele>
        <time>2022-05-14 15:34:29</time>
      </trkpt>
      <trkpt lat="10.07297" lon="-84.15539">
        <ele>1381.8</ele>
        <time>2022-05-14 15:34:30</time>
      </trkpt>
      <trkpt lat="10.073" lon="-84.15538">
        <ele>1382</ele>
        <time>2022-05-14 15:34:31</time>
      </trkpt>
      <trkpt lat="10.07303" lon="-84.15536">
        <ele>1382.2</ele>
        <time>2022-05-14 15:34:32</time>
      </trkpt>
      <trkpt lat="10.07303" lon="-84.15536">
        <ele>1382.2</ele>
        <time>2022-05-14 15:34:33</time>
      </trkpt>
      <trkpt lat="10.07313" lon="-84.15533">
        <ele>1382.4</ele>
        <time>2022-05-14 15:34:34</time>
      </trkpt>
      <trkpt lat="10.07316" lon="-84.15533">
        <ele>1382.6</ele>
        <time>2022-05-14 15:34:35</time>
      </trkpt>
      <trkpt lat="10.0732" lon="-84.15532">
        <ele>1382.8</ele>
        <time>2022-05-14 15:34:36</time>
      </trkpt>
      <trkpt lat="10.07323" lon="-84.15532">
        <ele>1383</ele>
        <time>2022-05-14 15:34:37</time>
      </trkpt>
      <trkpt lat="10.07323" lon="-84.15532">
        <ele>1383</ele>
        <time>2022-05-14 15:34:38</time>
      </trkpt>
      <trkpt lat="10.07326" lon="-84.15531">
        <ele>1383.2</ele>
        <time>2022-05-14 15:34:39</time>
      </trkpt>
      <trkpt lat="10.07329" lon="-84.15531">
        <ele>1383.6</ele>
        <time>2022-05-14 15:34:40</time>
      </trkpt>
      <trkpt lat="10.07333" lon="-84.15531">
        <ele>1383.8</ele>
        <time>2022-05-14 15:34:41</time>
      </trkpt>
      <trkpt lat="10.07336" lon="-84.15531">
        <ele>1384</ele>
        <time>2022-05-14 15:34:42</time>
      </trkpt>
      <trkpt lat="10.07339" lon="-84.15532">
        <ele>1384.4</ele>
        <time>2022-05-14 15:34:43</time>
      </trkpt>
      <trkpt lat="10.07339" lon="-84.15532">
        <ele>1384.4</ele>
        <time>2022-05-14 15:34:44</time>
      </trkpt>
      <trkpt lat="10.07349" lon="-84.15532">
        <ele>1384.8</ele>
        <time>2022-05-14 15:34:45</time>
      </trkpt>
      <trkpt lat="10.07352" lon="-84.15533">
        <ele>1384.8</ele>
        <time>2022-05-14 15:34:46</time>
      </trkpt>
      <trkpt lat="10.07355" lon="-84.15533">
        <ele>1385.2</ele>
        <time>2022-05-14 15:34:47</time>
      </trkpt>
      <trkpt lat="10.07355" lon="-84.15533">
        <ele>1385.4</ele>
        <time>2022-05-14 15:34:48</time>
      </trkpt>
      <trkpt lat="10.07358" lon="-84.15533">
        <ele>1386</ele>
        <time>2022-05-14 15:34:49</time>
      </trkpt>
      <trkpt lat="10.07361" lon="-84.15533">
        <ele>1386.2</ele>
        <time>2022-05-14 15:34:50</time>
      </trkpt>
      <trkpt lat="10.07364" lon="-84.15533">
        <ele>1386.6</ele>
        <time>2022-05-14 15:34:51</time>
      </trkpt>
      <trkpt lat="10.07367" lon="-84.15533">
        <ele>1386.8</ele>
        <time>2022-05-14 15:34:52</time>
      </trkpt>
      <trkpt lat="10.0737" lon="-84.15533">
        <ele>1387.2</ele>
        <time>2022-05-14 15:34:53</time>
      </trkpt>
      <trkpt lat="10.07376" lon="-84.15533">
        <ele>1387.4</ele>
        <time>2022-05-14 15:34:54</time>
      </trkpt>
      <trkpt lat="10.0738" lon="-84.15533">
        <ele>1387.8</ele>
        <time>2022-05-14 15:34:55</time>
      </trkpt>
      <trkpt lat="10.07383" lon="-84.15532">
        <ele>1388</ele>
        <time>2022-05-14 15:34:56</time>
      </trkpt>
      <trkpt lat="10.07385" lon="-84.15531">
        <ele>1388.4</ele>
        <time>2022-05-14 15:34:57</time>
      </trkpt>
      <trkpt lat="10.07388" lon="-84.15531">
        <ele>1388.6</ele>
        <time>2022-05-14 15:34:58</time>
      </trkpt>
      <trkpt lat="10.07388" lon="-84.15531">
        <ele>1388.6</ele>
        <time>2022-05-14 15:34:59</time>
      </trkpt>
      <trkpt lat="10.07391" lon="-84.15531">
        <ele>1388.8</ele>
        <time>2022-05-14 15:35:00</time>
      </trkpt>
      <trkpt lat="10.07394" lon="-84.15531">
        <ele>1389.2</ele>
        <time>2022-05-14 15:35:01</time>
      </trkpt>
      <trkpt lat="10.07396" lon="-84.15529">
        <ele>1389.4</ele>
        <time>2022-05-14 15:35:02</time>
      </trkpt>
      <trkpt lat="10.07399" lon="-84.15529">
        <ele>1389.8</ele>
        <time>2022-05-14 15:35:03</time>
      </trkpt>
      <trkpt lat="10.07401" lon="-84.15529">
        <ele>1390</ele>
        <time>2022-05-14 15:35:04</time>
      </trkpt>
      <trkpt lat="10.07407" lon="-84.15527">
        <ele>1390.4</ele>
        <time>2022-05-14 15:35:05</time>
      </trkpt>
      <trkpt lat="10.07409" lon="-84.15527">
        <ele>1390.6</ele>
        <time>2022-05-14 15:35:06</time>
      </trkpt>
      <trkpt lat="10.07412" lon="-84.15525">
        <ele>1391</ele>
        <time>2022-05-14 15:35:07</time>
      </trkpt>
      <trkpt lat="10.07414" lon="-84.15524">
        <ele>1391.4</ele>
        <time>2022-05-14 15:35:08</time>
      </trkpt>
      <trkpt lat="10.07414" lon="-84.15524">
        <ele>1391.6</ele>
        <time>2022-05-14 15:35:09</time>
      </trkpt>
      <trkpt lat="10.07416" lon="-84.15524">
        <ele>1392</ele>
        <time>2022-05-14 15:35:10</time>
      </trkpt>
      <trkpt lat="10.07419" lon="-84.15524">
        <ele>1392.2</ele>
        <time>2022-05-14 15:35:11</time>
      </trkpt>
      <trkpt lat="10.07422" lon="-84.15524">
        <ele>1392.6</ele>
        <time>2022-05-14 15:35:12</time>
      </trkpt>
      <trkpt lat="10.07424" lon="-84.15522">
        <ele>1392.8</ele>
        <time>2022-05-14 15:35:13</time>
      </trkpt>
      <trkpt lat="10.07424" lon="-84.15522">
        <ele>1393.2</ele>
        <time>2022-05-14 15:35:14</time>
      </trkpt>
      <trkpt lat="10.07432" lon="-84.1552">
        <ele>1393.6</ele>
        <time>2022-05-14 15:35:15</time>
      </trkpt>
      <trkpt lat="10.07435" lon="-84.15518">
        <ele>1394</ele>
        <time>2022-05-14 15:35:16</time>
      </trkpt>
      <trkpt lat="10.07437" lon="-84.15518">
        <ele>1394.2</ele>
        <time>2022-05-14 15:35:17</time>
      </trkpt>
      <trkpt lat="10.0744" lon="-84.15516">
        <ele>1394.6</ele>
        <time>2022-05-14 15:35:18</time>
      </trkpt>
      <trkpt lat="10.07442" lon="-84.15514">
        <ele>1394.8</ele>
        <time>2022-05-14 15:35:19</time>
      </trkpt>
      <trkpt lat="10.07442" lon="-84.15514">
        <ele>1394.8</ele>
        <time>2022-05-14 15:35:20</time>
      </trkpt>
      <trkpt lat="10.07445" lon="-84.15513">
        <ele>1395.2</ele>
        <time>2022-05-14 15:35:21</time>
      </trkpt>
      <trkpt lat="10.07447" lon="-84.15511">
        <ele>1395.4</ele>
        <time>2022-05-14 15:35:22</time>
      </trkpt>
      <trkpt lat="10.0745" lon="-84.15509">
        <ele>1395.6</ele>
        <time>2022-05-14 15:35:23</time>
      </trkpt>
      <trkpt lat="10.07452" lon="-84.15507">
        <ele>1396</ele>
        <time>2022-05-14 15:35:24</time>
      </trkpt>
      <trkpt lat="10.07452" lon="-84.15507">
        <ele>1396.2</ele>
        <time>2022-05-14 15:35:25</time>
      </trkpt>
      <trkpt lat="10.07459" lon="-84.15502">
        <ele>1396.4</ele>
        <time>2022-05-14 15:35:26</time>
      </trkpt>
      <trkpt lat="10.07462" lon="-84.155">
        <ele>1396.4</ele>
        <time>2022-05-14 15:35:27</time>
      </trkpt>
      <trkpt lat="10.07464" lon="-84.15498">
        <ele>1396.6</ele>
        <time>2022-05-14 15:35:28</time>
      </trkpt>
      <trkpt lat="10.07467" lon="-84.15495">
        <ele>1396.8</ele>
        <time>2022-05-14 15:35:29</time>
      </trkpt>
      <trkpt lat="10.07467" lon="-84.15495">
        <ele>1397</ele>
        <time>2022-05-14 15:35:30</time>
      </trkpt>
      <trkpt lat="10.07469" lon="-84.15491">
        <ele>1397</ele>
        <time>2022-05-14 15:35:31</time>
      </trkpt>
      <trkpt lat="10.07471" lon="-84.15488">
        <ele>1397.2</ele>
        <time>2022-05-14 15:35:32</time>
      </trkpt>
      <trkpt lat="10.07474" lon="-84.15486">
        <ele>1397.2</ele>
        <time>2022-05-14 15:35:33</time>
      </trkpt>
      <trkpt lat="10.07477" lon="-84.15483">
        <ele>1397.2</ele>
        <time>2022-05-14 15:35:34</time>
      </trkpt>
      <trkpt lat="10.07477" lon="-84.15483">
        <ele>1397.2</ele>
        <time>2022-05-14 15:35:35</time>
      </trkpt>
      <trkpt lat="10.07485" lon="-84.15474">
        <ele>1397.2</ele>
        <time>2022-05-14 15:35:36</time>
      </trkpt>
      <trkpt lat="10.07488" lon="-84.15471">
        <ele>1397.2</ele>
        <time>2022-05-14 15:35:37</time>
      </trkpt>
      <trkpt lat="10.07492" lon="-84.15468">
        <ele>1397.2</ele>
        <time>2022-05-14 15:35:38</time>
      </trkpt>
      <trkpt lat="10.07496" lon="-84.15467">
        <ele>1397.2</ele>
        <time>2022-05-14 15:35:39</time>
      </trkpt>
      <trkpt lat="10.07501" lon="-84.15466">
        <ele>1397</ele>
        <time>2022-05-14 15:35:40</time>
      </trkpt>
      <trkpt lat="10.07501" lon="-84.15466">
        <ele>1397</ele>
        <time>2022-05-14 15:35:41</time>
      </trkpt>
      <trkpt lat="10.07506" lon="-84.15464">
        <ele>1397.2</ele>
        <time>2022-05-14 15:35:42</time>
      </trkpt>
      <trkpt lat="10.0751" lon="-84.15464">
        <ele>1397.2</ele>
        <time>2022-05-14 15:35:43</time>
      </trkpt>
      <trkpt lat="10.07515" lon="-84.15464">
        <ele>1397.4</ele>
        <time>2022-05-14 15:35:44</time>
      </trkpt>
      <trkpt lat="10.0752" lon="-84.15464">
        <ele>1397.4</ele>
        <time>2022-05-14 15:35:45</time>
      </trkpt>
      <trkpt lat="10.07529" lon="-84.15464">
        <ele>1397.6</ele>
        <time>2022-05-14 15:35:46</time>
      </trkpt>
      <trkpt lat="10.07534" lon="-84.15464">
        <ele>1397.6</ele>
        <time>2022-05-14 15:35:47</time>
      </trkpt>
      <trkpt lat="10.07539" lon="-84.15464">
        <ele>1397.6</ele>
        <time>2022-05-14 15:35:48</time>
      </trkpt>
      <trkpt lat="10.07543" lon="-84.15464">
        <ele>1397.8</ele>
        <time>2022-05-14 15:35:49</time>
      </trkpt>
      <trkpt lat="10.07547" lon="-84.15464">
        <ele>1398</ele>
        <time>2022-05-14 15:35:50</time>
      </trkpt>
      <trkpt lat="10.07547" lon="-84.15464">
        <ele>1398.2</ele>
        <time>2022-05-14 15:35:51</time>
      </trkpt>
      <trkpt lat="10.07552" lon="-84.15464">
        <ele>1398.4</ele>
        <time>2022-05-14 15:35:52</time>
      </trkpt>
      <trkpt lat="10.07556" lon="-84.15465">
        <ele>1398.6</ele>
        <time>2022-05-14 15:35:53</time>
      </trkpt>
      <trkpt lat="10.0756" lon="-84.15465">
        <ele>1399</ele>
        <time>2022-05-14 15:35:54</time>
      </trkpt>
      <trkpt lat="10.07564" lon="-84.15466">
        <ele>1399.2</ele>
        <time>2022-05-14 15:35:55</time>
      </trkpt>
      <trkpt lat="10.07571" lon="-84.15466">
        <ele>1399.6</ele>
        <time>2022-05-14 15:35:56</time>
      </trkpt>
      <trkpt lat="10.07575" lon="-84.15466">
        <ele>1399.8</ele>
        <time>2022-05-14 15:35:57</time>
      </trkpt>
      <trkpt lat="10.07578" lon="-84.15466">
        <ele>1400.2</ele>
        <time>2022-05-14 15:35:58</time>
      </trkpt>
      <trkpt lat="10.07581" lon="-84.15467">
        <ele>1400.4</ele>
        <time>2022-05-14 15:35:59</time>
      </trkpt>
      <trkpt lat="10.07584" lon="-84.15468">
        <ele>1400.6</ele>
        <time>2022-05-14 15:36:00</time>
      </trkpt>
      <trkpt lat="10.07587" lon="-84.15468">
        <ele>1400.8</ele>
        <time>2022-05-14 15:36:01</time>
      </trkpt>
      <trkpt lat="10.07587" lon="-84.15468">
        <ele>1400.8</ele>
        <time>2022-05-14 15:36:02</time>
      </trkpt>
      <trkpt lat="10.0759" lon="-84.15469">
        <ele>1401.2</ele>
        <time>2022-05-14 15:36:03</time>
      </trkpt>
      <trkpt lat="10.07592" lon="-84.1547">
        <ele>1401.4</ele>
        <time>2022-05-14 15:36:04</time>
      </trkpt>
      <trkpt lat="10.07594" lon="-84.15472">
        <ele>1401.6</ele>
        <time>2022-05-14 15:36:05</time>
      </trkpt>
      <trkpt lat="10.07597" lon="-84.15473">
        <ele>1401.8</ele>
        <time>2022-05-14 15:36:06</time>
      </trkpt>
      <trkpt lat="10.07601" lon="-84.15477">
        <ele>1402</ele>
        <time>2022-05-14 15:36:07</time>
      </trkpt>
      <trkpt lat="10.07604" lon="-84.15479">
        <ele>1402.2</ele>
        <time>2022-05-14 15:36:08</time>
      </trkpt>
      <trkpt lat="10.07606" lon="-84.15482">
        <ele>1402.6</ele>
        <time>2022-05-14 15:36:09</time>
      </trkpt>
      <trkpt lat="10.07608" lon="-84.15484">
        <ele>1403</ele>
        <time>2022-05-14 15:36:10</time>
      </trkpt>
      <trkpt lat="10.0761" lon="-84.15486">
        <ele>1403.4</ele>
        <time>2022-05-14 15:36:11</time>
      </trkpt>
      <trkpt lat="10.0761" lon="-84.15486">
        <ele>1403.4</ele>
        <time>2022-05-14 15:36:12</time>
      </trkpt>
      <trkpt lat="10.07612" lon="-84.15488">
        <ele>1403.6</ele>
        <time>2022-05-14 15:36:13</time>
      </trkpt>
      <trkpt lat="10.07614" lon="-84.15491">
        <ele>1403.8</ele>
        <time>2022-05-14 15:36:14</time>
      </trkpt>
      <trkpt lat="10.07616" lon="-84.15494">
        <ele>1404.2</ele>
        <time>2022-05-14 15:36:15</time>
      </trkpt>
      <trkpt lat="10.07616" lon="-84.15494">
        <ele>1404.4</ele>
        <time>2022-05-14 15:36:16</time>
      </trkpt>
      <trkpt lat="10.07622" lon="-84.15502">
        <ele>1404.6</ele>
        <time>2022-05-14 15:36:17</time>
      </trkpt>
      <trkpt lat="10.07624" lon="-84.15504">
        <ele>1404.8</ele>
        <time>2022-05-14 15:36:18</time>
      </trkpt>
      <trkpt lat="10.07626" lon="-84.15507">
        <ele>1405</ele>
        <time>2022-05-14 15:36:19</time>
      </trkpt>
      <trkpt lat="10.07627" lon="-84.15511">
        <ele>1405</ele>
        <time>2022-05-14 15:36:20</time>
      </trkpt>
      <trkpt lat="10.07629" lon="-84.15514">
        <ele>1405.2</ele>
        <time>2022-05-14 15:36:21</time>
      </trkpt>
      <trkpt lat="10.0763" lon="-84.15518">
        <ele>1405.4</ele>
        <time>2022-05-14 15:36:22</time>
      </trkpt>
      <trkpt lat="10.0763" lon="-84.15518">
        <ele>1405.4</ele>
        <time>2022-05-14 15:36:23</time>
      </trkpt>
      <trkpt lat="10.07632" lon="-84.1552">
        <ele>1405.6</ele>
        <time>2022-05-14 15:36:24</time>
      </trkpt>
      <trkpt lat="10.07633" lon="-84.15524">
        <ele>1405.8</ele>
        <time>2022-05-14 15:36:25</time>
      </trkpt>
      <trkpt lat="10.07634" lon="-84.15527">
        <ele>1406</ele>
        <time>2022-05-14 15:36:26</time>
      </trkpt>
      <trkpt lat="10.07634" lon="-84.15527">
        <ele>1406</ele>
        <time>2022-05-14 15:36:27</time>
      </trkpt>
      <trkpt lat="10.07637" lon="-84.15536">
        <ele>1406.2</ele>
        <time>2022-05-14 15:36:28</time>
      </trkpt>
      <trkpt lat="10.07637" lon="-84.1554">
        <ele>1406.6</ele>
        <time>2022-05-14 15:36:29</time>
      </trkpt>
      <trkpt lat="10.07637" lon="-84.15542">
        <ele>1406.8</ele>
        <time>2022-05-14 15:36:30</time>
      </trkpt>
      <trkpt lat="10.07637" lon="-84.15546">
        <ele>1407</ele>
        <time>2022-05-14 15:36:31</time>
      </trkpt>
      <trkpt lat="10.07638" lon="-84.15549">
        <ele>1407.2</ele>
        <time>2022-05-14 15:36:32</time>
      </trkpt>
      <trkpt lat="10.07638" lon="-84.15549">
        <ele>1407.4</ele>
        <time>2022-05-14 15:36:33</time>
      </trkpt>
      <trkpt lat="10.07639" lon="-84.15553">
        <ele>1407.6</ele>
        <time>2022-05-14 15:36:34</time>
      </trkpt>
      <trkpt lat="10.07639" lon="-84.15556">
        <ele>1408</ele>
        <time>2022-05-14 15:36:35</time>
      </trkpt>
      <trkpt lat="10.0764" lon="-84.1556">
        <ele>1408.2</ele>
        <time>2022-05-14 15:36:36</time>
      </trkpt>
      <trkpt lat="10.07641" lon="-84.15565">
        <ele>1408.4</ele>
        <time>2022-05-14 15:36:37</time>
      </trkpt>
      <trkpt lat="10.07642" lon="-84.15569">
        <ele>1408.6</ele>
        <time>2022-05-14 15:36:38</time>
      </trkpt>
      <trkpt lat="10.07643" lon="-84.15572">
        <ele>1409</ele>
        <time>2022-05-14 15:36:39</time>
      </trkpt>
      <trkpt lat="10.07644" lon="-84.15576">
        <ele>1409.4</ele>
        <time>2022-05-14 15:36:40</time>
      </trkpt>
      <trkpt lat="10.07644" lon="-84.15578">
        <ele>1409.6</ele>
        <time>2022-05-14 15:36:41</time>
      </trkpt>
      <trkpt lat="10.07644" lon="-84.15582">
        <ele>1409.8</ele>
        <time>2022-05-14 15:36:42</time>
      </trkpt>
      <trkpt lat="10.07645" lon="-84.15585">
        <ele>1410.2</ele>
        <time>2022-05-14 15:36:43</time>
      </trkpt>
      <trkpt lat="10.07645" lon="-84.15585">
        <ele>1410.2</ele>
        <time>2022-05-14 15:36:44</time>
      </trkpt>
      <trkpt lat="10.07646" lon="-84.15589">
        <ele>1410.4</ele>
        <time>2022-05-14 15:36:45</time>
      </trkpt>
      <trkpt lat="10.07646" lon="-84.15592">
        <ele>1410.6</ele>
        <time>2022-05-14 15:36:46</time>
      </trkpt>
      <trkpt lat="10.07647" lon="-84.15596">
        <ele>1410.8</ele>
        <time>2022-05-14 15:36:47</time>
      </trkpt>
      <trkpt lat="10.07649" lon="-84.15603">
        <ele>1411.2</ele>
        <time>2022-05-14 15:36:48</time>
      </trkpt>
      <trkpt lat="10.07649" lon="-84.15606">
        <ele>1411.4</ele>
        <time>2022-05-14 15:36:49</time>
      </trkpt>
      <trkpt lat="10.0765" lon="-84.15609">
        <ele>1411.8</ele>
        <time>2022-05-14 15:36:50</time>
      </trkpt>
      <trkpt lat="10.07652" lon="-84.15612">
        <ele>1412</ele>
        <time>2022-05-14 15:36:51</time>
      </trkpt>
      <trkpt lat="10.07653" lon="-84.15616">
        <ele>1412.4</ele>
        <time>2022-05-14 15:36:52</time>
      </trkpt>
      <trkpt lat="10.07654" lon="-84.15618">
        <ele>1412.4</ele>
        <time>2022-05-14 15:36:53</time>
      </trkpt>
      <trkpt lat="10.07654" lon="-84.15618">
        <ele>1412.8</ele>
        <time>2022-05-14 15:36:54</time>
      </trkpt>
      <trkpt lat="10.07655" lon="-84.15621">
        <ele>1413</ele>
        <time>2022-05-14 15:36:55</time>
      </trkpt>
      <trkpt lat="10.07656" lon="-84.15625">
        <ele>1413.4</ele>
        <time>2022-05-14 15:36:56</time>
      </trkpt>
      <trkpt lat="10.07656" lon="-84.15625">
        <ele>1413.8</ele>
        <time>2022-05-14 15:36:57</time>
      </trkpt>
      <trkpt lat="10.0766" lon="-84.15634">
        <ele>1414</ele>
        <time>2022-05-14 15:36:58</time>
      </trkpt>
      <trkpt lat="10.07662" lon="-84.15636">
        <ele>1414.2</ele>
        <time>2022-05-14 15:36:59</time>
      </trkpt>
      <trkpt lat="10.07663" lon="-84.15639">
        <ele>1414.4</ele>
        <time>2022-05-14 15:37:00</time>
      </trkpt>
      <trkpt lat="10.07665" lon="-84.15642">
        <ele>1414.6</ele>
        <time>2022-05-14 15:37:01</time>
      </trkpt>
      <trkpt lat="10.07667" lon="-84.15645">
        <ele>1414.8</ele>
        <time>2022-05-14 15:37:02</time>
      </trkpt>
      <trkpt lat="10.07669" lon="-84.15646">
        <ele>1415.2</ele>
        <time>2022-05-14 15:37:03</time>
      </trkpt>
      <trkpt lat="10.07671" lon="-84.15649">
        <ele>1415.4</ele>
        <time>2022-05-14 15:37:04</time>
      </trkpt>
      <trkpt lat="10.07671" lon="-84.15649">
        <ele>1415.4</ele>
        <time>2022-05-14 15:37:05</time>
      </trkpt>
      <trkpt lat="10.07674" lon="-84.1565">
        <ele>1415.8</ele>
        <time>2022-05-14 15:37:06</time>
      </trkpt>
      <trkpt lat="10.07676" lon="-84.15651">
        <ele>1416</ele>
        <time>2022-05-14 15:37:07</time>
      </trkpt>
      <trkpt lat="10.07676" lon="-84.15651">
        <ele>1416.2</ele>
        <time>2022-05-14 15:37:08</time>
      </trkpt>
      <trkpt lat="10.07684" lon="-84.15652">
        <ele>1416.6</ele>
        <time>2022-05-14 15:37:09</time>
      </trkpt>
      <trkpt lat="10.07687" lon="-84.15651">
        <ele>1417</ele>
        <time>2022-05-14 15:37:10</time>
      </trkpt>
      <trkpt lat="10.0769" lon="-84.1565">
        <ele>1417.2</ele>
        <time>2022-05-14 15:37:11</time>
      </trkpt>
      <trkpt lat="10.07693" lon="-84.15649">
        <ele>1417.6</ele>
        <time>2022-05-14 15:37:12</time>
      </trkpt>
      <trkpt lat="10.07695" lon="-84.15648">
        <ele>1417.8</ele>
        <time>2022-05-14 15:37:13</time>
      </trkpt>
      <trkpt lat="10.07698" lon="-84.15645">
        <ele>1418.2</ele>
        <time>2022-05-14 15:37:14</time>
      </trkpt>
      <trkpt lat="10.07698" lon="-84.15645">
        <ele>1418.6</ele>
        <time>2022-05-14 15:37:15</time>
      </trkpt>
      <trkpt lat="10.07701" lon="-84.15643">
        <ele>1418.8</ele>
        <time>2022-05-14 15:37:16</time>
      </trkpt>
      <trkpt lat="10.07703" lon="-84.1564">
        <ele>1419</ele>
        <time>2022-05-14 15:37:17</time>
      </trkpt>
      <trkpt lat="10.07703" lon="-84.1564">
        <ele>1419</ele>
        <time>2022-05-14 15:37:18</time>
      </trkpt>
      <trkpt lat="10.07711" lon="-84.15632">
        <ele>1419.2</ele>
        <time>2022-05-14 15:37:19</time>
      </trkpt>
      <trkpt lat="10.07713" lon="-84.15631">
        <ele>1419.4</ele>
        <time>2022-05-14 15:37:20</time>
      </trkpt>
      <trkpt lat="10.07717" lon="-84.1563">
        <ele>1419.6</ele>
        <time>2022-05-14 15:37:21</time>
      </trkpt>
      <trkpt lat="10.07721" lon="-84.15629">
        <ele>1419.6</ele>
        <time>2022-05-14 15:37:22</time>
      </trkpt>
      <trkpt lat="10.07725" lon="-84.15629">
        <ele>1419.6</ele>
        <time>2022-05-14 15:37:23</time>
      </trkpt>
      <trkpt lat="10.07729" lon="-84.1563">
        <ele>1419.6</ele>
        <time>2022-05-14 15:37:24</time>
      </trkpt>
      <trkpt lat="10.07733" lon="-84.1563">
        <ele>1419.8</ele>
        <time>2022-05-14 15:37:25</time>
      </trkpt>
      <trkpt lat="10.07733" lon="-84.1563">
        <ele>1419.8</ele>
        <time>2022-05-14 15:37:26</time>
      </trkpt>
      <trkpt lat="10.07737" lon="-84.15632">
        <ele>1419.8</ele>
        <time>2022-05-14 15:37:27</time>
      </trkpt>
      <trkpt lat="10.07741" lon="-84.15632">
        <ele>1420</ele>
        <time>2022-05-14 15:37:28</time>
      </trkpt>
      <trkpt lat="10.07749" lon="-84.15636">
        <ele>1420</ele>
        <time>2022-05-14 15:37:29</time>
      </trkpt>
      <trkpt lat="10.07753" lon="-84.15637">
        <ele>1420</ele>
        <time>2022-05-14 15:37:30</time>
      </trkpt>
      <trkpt lat="10.07757" lon="-84.15637">
        <ele>1420</ele>
        <time>2022-05-14 15:37:31</time>
      </trkpt>
      <trkpt lat="10.07761" lon="-84.15638">
        <ele>1420.2</ele>
        <time>2022-05-14 15:37:32</time>
      </trkpt>
      <trkpt lat="10.07765" lon="-84.15638">
        <ele>1420.2</ele>
        <time>2022-05-14 15:37:33</time>
      </trkpt>
      <trkpt lat="10.07769" lon="-84.15638">
        <ele>1420.4</ele>
        <time>2022-05-14 15:37:34</time>
      </trkpt>
      <trkpt lat="10.07773" lon="-84.15638">
        <ele>1420.4</ele>
        <time>2022-05-14 15:37:35</time>
      </trkpt>
      <trkpt lat="10.07773" lon="-84.15638">
        <ele>1420.4</ele>
        <time>2022-05-14 15:37:36</time>
      </trkpt>
      <trkpt lat="10.07777" lon="-84.15638">
        <ele>1420.2</ele>
        <time>2022-05-14 15:37:37</time>
      </trkpt>
      <trkpt lat="10.07781" lon="-84.15639">
        <ele>1420.2</ele>
        <time>2022-05-14 15:37:38</time>
      </trkpt>
      <trkpt lat="10.07788" lon="-84.15646">
        <ele>1420.2</ele>
        <time>2022-05-14 15:37:39</time>
      </trkpt>
      <trkpt lat="10.0779" lon="-84.15651">
        <ele>1420.2</ele>
        <time>2022-05-14 15:37:40</time>
      </trkpt>
      <trkpt lat="10.07792" lon="-84.15656">
        <ele>1420.2</ele>
        <time>2022-05-14 15:37:41</time>
      </trkpt>
      <trkpt lat="10.07793" lon="-84.15659">
        <ele>1420.4</ele>
        <time>2022-05-14 15:37:42</time>
      </trkpt>
      <trkpt lat="10.07792" lon="-84.15663">
        <ele>1420.8</ele>
        <time>2022-05-14 15:37:43</time>
      </trkpt>
      <trkpt lat="10.07792" lon="-84.15665">
        <ele>1421.2</ele>
        <time>2022-05-14 15:37:44</time>
      </trkpt>
      <trkpt lat="10.07791" lon="-84.15668">
        <ele>1421.6</ele>
        <time>2022-05-14 15:37:45</time>
      </trkpt>
      <trkpt lat="10.07791" lon="-84.15671">
        <ele>1421.8</ele>
        <time>2022-05-14 15:37:46</time>
      </trkpt>
      <trkpt lat="10.07791" lon="-84.15671">
        <ele>1421.8</ele>
        <time>2022-05-14 15:37:47</time>
      </trkpt>
      <trkpt lat="10.0779" lon="-84.15673">
        <ele>1422.2</ele>
        <time>2022-05-14 15:37:48</time>
      </trkpt>
      <trkpt lat="10.07788" lon="-84.15676">
        <ele>1422.4</ele>
        <time>2022-05-14 15:37:49</time>
      </trkpt>
      <trkpt lat="10.07787" lon="-84.15681">
        <ele>1422.8</ele>
        <time>2022-05-14 15:37:50</time>
      </trkpt>
      <trkpt lat="10.07786" lon="-84.15683">
        <ele>1423</ele>
        <time>2022-05-14 15:37:51</time>
      </trkpt>
      <trkpt lat="10.07786" lon="-84.15686">
        <ele>1423.2</ele>
        <time>2022-05-14 15:37:52</time>
      </trkpt>
      <trkpt lat="10.07785" lon="-84.15688">
        <ele>1423.6</ele>
        <time>2022-05-14 15:37:53</time>
      </trkpt>
      <trkpt lat="10.07785" lon="-84.15691">
        <ele>1423.8</ele>
        <time>2022-05-14 15:37:54</time>
      </trkpt>
      <trkpt lat="10.07785" lon="-84.15694">
        <ele>1424</ele>
        <time>2022-05-14 15:37:55</time>
      </trkpt>
      <trkpt lat="10.07786" lon="-84.15697">
        <ele>1424.2</ele>
        <time>2022-05-14 15:37:56</time>
      </trkpt>
      <trkpt lat="10.07786" lon="-84.15697">
        <ele>1424.6</ele>
        <time>2022-05-14 15:37:57</time>
      </trkpt>
      <trkpt lat="10.07786" lon="-84.15699">
        <ele>1424.8</ele>
        <time>2022-05-14 15:37:58</time>
      </trkpt>
      <trkpt lat="10.07786" lon="-84.15699">
        <ele>1425</ele>
        <time>2022-05-14 15:37:59</time>
      </trkpt>
      <trkpt lat="10.07788" lon="-84.15708">
        <ele>1425.2</ele>
        <time>2022-05-14 15:38:00</time>
      </trkpt>
      <trkpt lat="10.07789" lon="-84.1571">
        <ele>1425.4</ele>
        <time>2022-05-14 15:38:01</time>
      </trkpt>
      <trkpt lat="10.0779" lon="-84.15713">
        <ele>1425.6</ele>
        <time>2022-05-14 15:38:02</time>
      </trkpt>
      <trkpt lat="10.07791" lon="-84.15715">
        <ele>1425.8</ele>
        <time>2022-05-14 15:38:03</time>
      </trkpt>
      <trkpt lat="10.07793" lon="-84.15717">
        <ele>1426.2</ele>
        <time>2022-05-14 15:38:04</time>
      </trkpt>
      <trkpt lat="10.07794" lon="-84.15719">
        <ele>1426.6</ele>
        <time>2022-05-14 15:38:05</time>
      </trkpt>
      <trkpt lat="10.07795" lon="-84.15722">
        <ele>1427</ele>
        <time>2022-05-14 15:38:06</time>
      </trkpt>
      <trkpt lat="10.07796" lon="-84.15724">
        <ele>1427.2</ele>
        <time>2022-05-14 15:38:07</time>
      </trkpt>
      <trkpt lat="10.07796" lon="-84.15724">
        <ele>1427.2</ele>
        <time>2022-05-14 15:38:08</time>
      </trkpt>
      <trkpt lat="10.07797" lon="-84.15726">
        <ele>1427.6</ele>
        <time>2022-05-14 15:38:09</time>
      </trkpt>
      <trkpt lat="10.07797" lon="-84.15726">
        <ele>1428</ele>
        <time>2022-05-14 15:38:10</time>
      </trkpt>
      <trkpt lat="10.078" lon="-84.15734">
        <ele>1428.2</ele>
        <time>2022-05-14 15:38:11</time>
      </trkpt>
      <trkpt lat="10.07801" lon="-84.15735">
        <ele>1428.6</ele>
        <time>2022-05-14 15:38:12</time>
      </trkpt>
      <trkpt lat="10.07801" lon="-84.15739">
        <ele>1428.8</ele>
        <time>2022-05-14 15:38:13</time>
      </trkpt>
      <trkpt lat="10.07802" lon="-84.15741">
        <ele>1429.2</ele>
        <time>2022-05-14 15:38:14</time>
      </trkpt>
      <trkpt lat="10.07802" lon="-84.15744">
        <ele>1429.4</ele>
        <time>2022-05-14 15:38:15</time>
      </trkpt>
      <trkpt lat="10.07802" lon="-84.15746">
        <ele>1429.8</ele>
        <time>2022-05-14 15:38:16</time>
      </trkpt>
      <trkpt lat="10.07802" lon="-84.15749">
        <ele>1430</ele>
        <time>2022-05-14 15:38:17</time>
      </trkpt>
      <trkpt lat="10.07802" lon="-84.15749">
        <ele>1430.2</ele>
        <time>2022-05-14 15:38:18</time>
      </trkpt>
      <trkpt lat="10.07802" lon="-84.15752">
        <ele>1430.6</ele>
        <time>2022-05-14 15:38:19</time>
      </trkpt>
      <trkpt lat="10.07801" lon="-84.15757">
        <ele>1430.8</ele>
        <time>2022-05-14 15:38:20</time>
      </trkpt>
      <trkpt lat="10.07801" lon="-84.1576">
        <ele>1430.8</ele>
        <time>2022-05-14 15:38:21</time>
      </trkpt>
      <trkpt lat="10.07801" lon="-84.15763">
        <ele>1431</ele>
        <time>2022-05-14 15:38:22</time>
      </trkpt>
      <trkpt lat="10.078" lon="-84.15766">
        <ele>1431.2</ele>
        <time>2022-05-14 15:38:23</time>
      </trkpt>
      <trkpt lat="10.078" lon="-84.15768">
        <ele>1431.4</ele>
        <time>2022-05-14 15:38:24</time>
      </trkpt>
      <trkpt lat="10.078" lon="-84.15771">
        <ele>1431.4</ele>
        <time>2022-05-14 15:38:25</time>
      </trkpt>
      <trkpt lat="10.078" lon="-84.15775">
        <ele>1431.6</ele>
        <time>2022-05-14 15:38:26</time>
      </trkpt>
      <trkpt lat="10.07801" lon="-84.15777">
        <ele>1431.6</ele>
        <time>2022-05-14 15:38:27</time>
      </trkpt>
      <trkpt lat="10.07802" lon="-84.15781">
        <ele>1432</ele>
        <time>2022-05-14 15:38:28</time>
      </trkpt>
      <trkpt lat="10.07802" lon="-84.15781">
        <ele>1432</ele>
        <time>2022-05-14 15:38:29</time>
      </trkpt>
      <trkpt lat="10.07803" lon="-84.15783">
        <ele>1432.2</ele>
        <time>2022-05-14 15:38:30</time>
      </trkpt>
      <trkpt lat="10.07808" lon="-84.15787">
        <ele>1432.6</ele>
        <time>2022-05-14 15:38:31</time>
      </trkpt>
      <trkpt lat="10.0781" lon="-84.15788">
        <ele>1432.8</ele>
        <time>2022-05-14 15:38:32</time>
      </trkpt>
      <trkpt lat="10.07812" lon="-84.15789">
        <ele>1433.2</ele>
        <time>2022-05-14 15:38:33</time>
      </trkpt>
      <trkpt lat="10.07814" lon="-84.1579">
        <ele>1433.6</ele>
        <time>2022-05-14 15:38:34</time>
      </trkpt>
      <trkpt lat="10.07816" lon="-84.1579">
        <ele>1434</ele>
        <time>2022-05-14 15:38:35</time>
      </trkpt>
      <trkpt lat="10.07819" lon="-84.1579">
        <ele>1434.4</ele>
        <time>2022-05-14 15:38:36</time>
      </trkpt>
      <trkpt lat="10.07821" lon="-84.15789">
        <ele>1434.8</ele>
        <time>2022-05-14 15:38:37</time>
      </trkpt>
      <trkpt lat="10.07823" lon="-84.15789">
        <ele>1435.2</ele>
        <time>2022-05-14 15:38:38</time>
      </trkpt>
      <trkpt lat="10.07823" lon="-84.15789">
        <ele>1435.6</ele>
        <time>2022-05-14 15:38:39</time>
      </trkpt>
      <trkpt lat="10.07825" lon="-84.15788">
        <ele>1436</ele>
        <time>2022-05-14 15:38:40</time>
      </trkpt>
      <trkpt lat="10.07829" lon="-84.15785">
        <ele>1436.4</ele>
        <time>2022-05-14 15:38:41</time>
      </trkpt>
      <trkpt lat="10.07831" lon="-84.15783">
        <ele>1436.8</ele>
        <time>2022-05-14 15:38:42</time>
      </trkpt>
      <trkpt lat="10.07832" lon="-84.15781">
        <ele>1437.2</ele>
        <time>2022-05-14 15:38:43</time>
      </trkpt>
      <trkpt lat="10.07833" lon="-84.15778">
        <ele>1437.6</ele>
        <time>2022-05-14 15:38:44</time>
      </trkpt>
      <trkpt lat="10.07834" lon="-84.15775">
        <ele>1438</ele>
        <time>2022-05-14 15:38:45</time>
      </trkpt>
      <trkpt lat="10.07835" lon="-84.15773">
        <ele>1438.6</ele>
        <time>2022-05-14 15:38:46</time>
      </trkpt>
      <trkpt lat="10.07836" lon="-84.15771">
        <ele>1438.8</ele>
        <time>2022-05-14 15:38:47</time>
      </trkpt>
      <trkpt lat="10.07837" lon="-84.15768">
        <ele>1439</ele>
        <time>2022-05-14 15:38:48</time>
      </trkpt>
      <trkpt lat="10.07838" lon="-84.15766">
        <ele>1439</ele>
        <time>2022-05-14 15:38:49</time>
      </trkpt>
      <trkpt lat="10.07838" lon="-84.15766">
        <ele>1439</ele>
        <time>2022-05-14 15:38:50</time>
      </trkpt>
      <trkpt lat="10.07838" lon="-84.15766">
        <ele>1439.4</ele>
        <time>2022-05-14 15:38:51</time>
      </trkpt>
      <trkpt lat="10.07841" lon="-84.15759">
        <ele>1439.6</ele>
        <time>2022-05-14 15:38:52</time>
      </trkpt>
      <trkpt lat="10.07842" lon="-84.15758">
        <ele>1439.8</ele>
        <time>2022-05-14 15:38:53</time>
      </trkpt>
      <trkpt lat="10.07843" lon="-84.15755">
        <ele>1440.2</ele>
        <time>2022-05-14 15:38:54</time>
      </trkpt>
      <trkpt lat="10.07844" lon="-84.15754">
        <ele>1440.4</ele>
        <time>2022-05-14 15:38:55</time>
      </trkpt>
      <trkpt lat="10.07845" lon="-84.15753">
        <ele>1440.6</ele>
        <time>2022-05-14 15:38:56</time>
      </trkpt>
      <trkpt lat="10.07846" lon="-84.1575">
        <ele>1440.8</ele>
        <time>2022-05-14 15:38:57</time>
      </trkpt>
      <trkpt lat="10.07848" lon="-84.15748">
        <ele>1441</ele>
        <time>2022-05-14 15:38:58</time>
      </trkpt>
      <trkpt lat="10.0785" lon="-84.15747">
        <ele>1441.4</ele>
        <time>2022-05-14 15:38:59</time>
      </trkpt>
      <trkpt lat="10.0785" lon="-84.15747">
        <ele>1441.6</ele>
        <time>2022-05-14 15:39:00</time>
      </trkpt>
      <trkpt lat="10.0785" lon="-84.15747">
        <ele>1442</ele>
        <time>2022-05-14 15:39:01</time>
      </trkpt>
      <trkpt lat="10.07856" lon="-84.15742">
        <ele>1442.2</ele>
        <time>2022-05-14 15:39:02</time>
      </trkpt>
      <trkpt lat="10.07858" lon="-84.15742">
        <ele>1442.4</ele>
        <time>2022-05-14 15:39:03</time>
      </trkpt>
      <trkpt lat="10.07859" lon="-84.15741">
        <ele>1442.8</ele>
        <time>2022-05-14 15:39:04</time>
      </trkpt>
      <trkpt lat="10.07861" lon="-84.1574">
        <ele>1443</ele>
        <time>2022-05-14 15:39:05</time>
      </trkpt>
      <trkpt lat="10.07864" lon="-84.15739">
        <ele>1443.4</ele>
        <time>2022-05-14 15:39:06</time>
      </trkpt>
      <trkpt lat="10.07866" lon="-84.15739">
        <ele>1443.6</ele>
        <time>2022-05-14 15:39:07</time>
      </trkpt>
      <trkpt lat="10.07868" lon="-84.15738">
        <ele>1443.8</ele>
        <time>2022-05-14 15:39:08</time>
      </trkpt>
      <trkpt lat="10.0787" lon="-84.15737">
        <ele>1444</ele>
        <time>2022-05-14 15:39:09</time>
      </trkpt>
      <trkpt lat="10.07872" lon="-84.15737">
        <ele>1444.4</ele>
        <time>2022-05-14 15:39:10</time>
      </trkpt>
      <trkpt lat="10.07872" lon="-84.15737">
        <ele>1444.4</ele>
        <time>2022-05-14 15:39:11</time>
      </trkpt>
      <trkpt lat="10.07876" lon="-84.15735">
        <ele>1440</ele>
        <time>2022-05-14 15:39:12</time>
      </trkpt>
      <trkpt lat="10.07878" lon="-84.15735">
        <ele>1440.4</ele>
        <time>2022-05-14 15:39:13</time>
      </trkpt>
      <trkpt lat="10.0788" lon="-84.15735">
        <ele>1440.6</ele>
        <time>2022-05-14 15:39:14</time>
      </trkpt>
      <trkpt lat="10.07882" lon="-84.15735">
        <ele>1445.6</ele>
        <time>2022-05-14 15:39:15</time>
      </trkpt>
      <trkpt lat="10.07884" lon="-84.15735">
        <ele>1445.6</ele>
        <time>2022-05-14 15:39:16</time>
      </trkpt>
      <trkpt lat="10.07887" lon="-84.15734">
        <ele>1446</ele>
        <time>2022-05-14 15:39:17</time>
      </trkpt>
      <trkpt lat="10.07889" lon="-84.15733">
        <ele>1446.2</ele>
        <time>2022-05-14 15:39:18</time>
      </trkpt>
      <trkpt lat="10.07891" lon="-84.15733">
        <ele>1446.4</ele>
        <time>2022-05-14 15:39:19</time>
      </trkpt>
      <trkpt lat="10.07893" lon="-84.15733">
        <ele>1446.8</ele>
        <time>2022-05-14 15:39:20</time>
      </trkpt>
      <trkpt lat="10.07893" lon="-84.15733">
        <ele>1447</ele>
        <time>2022-05-14 15:39:21</time>
      </trkpt>
      <trkpt lat="10.07897" lon="-84.15732">
        <ele>1447.4</ele>
        <time>2022-05-14 15:39:22</time>
      </trkpt>
      <trkpt lat="10.07899" lon="-84.15731">
        <ele>1447.6</ele>
        <time>2022-05-14 15:39:23</time>
      </trkpt>
      <trkpt lat="10.07901" lon="-84.15731">
        <ele>1447.8</ele>
        <time>2022-05-14 15:39:24</time>
      </trkpt>
      <trkpt lat="10.07903" lon="-84.1573">
        <ele>1448.2</ele>
        <time>2022-05-14 15:39:25</time>
      </trkpt>
      <trkpt lat="10.07906" lon="-84.1573">
        <ele>1448.4</ele>
        <time>2022-05-14 15:39:26</time>
      </trkpt>
      <trkpt lat="10.07908" lon="-84.1573">
        <ele>1448.8</ele>
        <time>2022-05-14 15:39:27</time>
      </trkpt>
      <trkpt lat="10.0791" lon="-84.15729">
        <ele>1449</ele>
        <time>2022-05-14 15:39:28</time>
      </trkpt>
      <trkpt lat="10.07913" lon="-84.15728">
        <ele>1449.4</ele>
        <time>2022-05-14 15:39:29</time>
      </trkpt>
      <trkpt lat="10.07915" lon="-84.15727">
        <ele>1449.6</ele>
        <time>2022-05-14 15:39:30</time>
      </trkpt>
      <trkpt lat="10.07917" lon="-84.15726">
        <ele>1450</ele>
        <time>2022-05-14 15:39:31</time>
      </trkpt>
      <trkpt lat="10.07917" lon="-84.15726">
        <ele>1450</ele>
        <time>2022-05-14 15:39:32</time>
      </trkpt>
      <trkpt lat="10.07922" lon="-84.15726">
        <ele>1450.4</ele>
        <time>2022-05-14 15:39:33</time>
      </trkpt>
      <trkpt lat="10.07924" lon="-84.15725">
        <ele>1450.8</ele>
        <time>2022-05-14 15:39:34</time>
      </trkpt>
      <trkpt lat="10.07926" lon="-84.15725">
        <ele>1451</ele>
        <time>2022-05-14 15:39:35</time>
      </trkpt>
      <trkpt lat="10.07928" lon="-84.15724">
        <ele>1451.4</ele>
        <time>2022-05-14 15:39:36</time>
      </trkpt>
      <trkpt lat="10.07931" lon="-84.15724">
        <ele>1451.6</ele>
        <time>2022-05-14 15:39:37</time>
      </trkpt>
      <trkpt lat="10.07933" lon="-84.15723">
        <ele>1451.8</ele>
        <time>2022-05-14 15:39:38</time>
      </trkpt>
      <trkpt lat="10.07935" lon="-84.15723">
        <ele>1452.2</ele>
        <time>2022-05-14 15:39:39</time>
      </trkpt>
      <trkpt lat="10.07937" lon="-84.15722">
        <ele>1452.4</ele>
        <time>2022-05-14 15:39:40</time>
      </trkpt>
      <trkpt lat="10.07937" lon="-84.15722">
        <ele>1452.8</ele>
        <time>2022-05-14 15:39:41</time>
      </trkpt>
      <trkpt lat="10.07937" lon="-84.15722">
        <ele>1453</ele>
        <time>2022-05-14 15:39:42</time>
      </trkpt>
      <trkpt lat="10.07944" lon="-84.15719">
        <ele>1453.4</ele>
        <time>2022-05-14 15:39:43</time>
      </trkpt>
      <trkpt lat="10.07946" lon="-84.15719">
        <ele>1453.6</ele>
        <time>2022-05-14 15:39:44</time>
      </trkpt>
      <trkpt lat="10.07949" lon="-84.15719">
        <ele>1454</ele>
        <time>2022-05-14 15:39:45</time>
      </trkpt>
      <trkpt lat="10.07951" lon="-84.15718">
        <ele>1454.2</ele>
        <time>2022-05-14 15:39:46</time>
      </trkpt>
      <trkpt lat="10.07953" lon="-84.15717">
        <ele>1454.6</ele>
        <time>2022-05-14 15:39:47</time>
      </trkpt>
      <trkpt lat="10.07955" lon="-84.15717">
        <ele>1454.8</ele>
        <time>2022-05-14 15:39:48</time>
      </trkpt>
      <trkpt lat="10.07957" lon="-84.15716">
        <ele>1455</ele>
        <time>2022-05-14 15:39:49</time>
      </trkpt>
      <trkpt lat="10.07959" lon="-84.15715">
        <ele>1455.4</ele>
        <time>2022-05-14 15:39:50</time>
      </trkpt>
      <trkpt lat="10.07961" lon="-84.15714">
        <ele>1455.8</ele>
        <time>2022-05-14 15:39:51</time>
      </trkpt>
      <trkpt lat="10.07961" lon="-84.15714">
        <ele>1456</ele>
        <time>2022-05-14 15:39:52</time>
      </trkpt>
      <trkpt lat="10.07961" lon="-84.15714">
        <ele>1456</ele>
        <time>2022-05-14 15:39:53</time>
      </trkpt>
      <trkpt lat="10.07967" lon="-84.15712">
        <ele>1456.4</ele>
        <time>2022-05-14 15:39:54</time>
      </trkpt>
      <trkpt lat="10.0797" lon="-84.15711">
        <ele>1456.6</ele>
        <time>2022-05-14 15:39:55</time>
      </trkpt>
      <trkpt lat="10.07972" lon="-84.1571">
        <ele>1457</ele>
        <time>2022-05-14 15:39:56</time>
      </trkpt>
      <trkpt lat="10.07975" lon="-84.1571">
        <ele>1457.2</ele>
        <time>2022-05-14 15:39:57</time>
      </trkpt>
      <trkpt lat="10.07978" lon="-84.15708">
        <ele>1457.6</ele>
        <time>2022-05-14 15:39:58</time>
      </trkpt>
      <trkpt lat="10.07981" lon="-84.15707">
        <ele>1458</ele>
        <time>2022-05-14 15:39:59</time>
      </trkpt>
      <trkpt lat="10.07984" lon="-84.15705">
        <ele>1458.4</ele>
        <time>2022-05-14 15:40:00</time>
      </trkpt>
      <trkpt lat="10.07987" lon="-84.15704">
        <ele>1458.8</ele>
        <time>2022-05-14 15:40:01</time>
      </trkpt>
      <trkpt lat="10.07987" lon="-84.15704">
        <ele>1459.2</ele>
        <time>2022-05-14 15:40:02</time>
      </trkpt>
      <trkpt lat="10.07992" lon="-84.15702">
        <ele>1459.4</ele>
        <time>2022-05-14 15:40:03</time>
      </trkpt>
      <trkpt lat="10.07994" lon="-84.15701">
        <ele>1459.8</ele>
        <time>2022-05-14 15:40:04</time>
      </trkpt>
      <trkpt lat="10.07997" lon="-84.157">
        <ele>1460</ele>
        <time>2022-05-14 15:40:05</time>
      </trkpt>
      <trkpt lat="10.08" lon="-84.15699">
        <ele>1460.4</ele>
        <time>2022-05-14 15:40:06</time>
      </trkpt>
      <trkpt lat="10.08002" lon="-84.15697">
        <ele>1460.8</ele>
        <time>2022-05-14 15:40:07</time>
      </trkpt>
      <trkpt lat="10.08005" lon="-84.15697">
        <ele>1461.2</ele>
        <time>2022-05-14 15:40:08</time>
      </trkpt>
      <trkpt lat="10.08008" lon="-84.15696">
        <ele>1461.6</ele>
        <time>2022-05-14 15:40:09</time>
      </trkpt>
      <trkpt lat="10.08011" lon="-84.15695">
        <ele>1461.8</ele>
        <time>2022-05-14 15:40:10</time>
      </trkpt>
      <trkpt lat="10.08013" lon="-84.15694">
        <ele>1462.2</ele>
        <time>2022-05-14 15:40:11</time>
      </trkpt>
      <trkpt lat="10.08016" lon="-84.15693">
        <ele>1462.4</ele>
        <time>2022-05-14 15:40:12</time>
      </trkpt>
      <trkpt lat="10.08016" lon="-84.15693">
        <ele>1462.8</ele>
        <time>2022-05-14 15:40:13</time>
      </trkpt>
      <trkpt lat="10.08021" lon="-84.1569">
        <ele>1462.8</ele>
        <time>2022-05-14 15:40:14</time>
      </trkpt>
      <trkpt lat="10.08023" lon="-84.15689">
        <ele>1463.2</ele>
        <time>2022-05-14 15:40:15</time>
      </trkpt>
      <trkpt lat="10.08026" lon="-84.15688">
        <ele>1463.6</ele>
        <time>2022-05-14 15:40:16</time>
      </trkpt>
      <trkpt lat="10.08029" lon="-84.15687">
        <ele>1464.2</ele>
        <time>2022-05-14 15:40:17</time>
      </trkpt>
      <trkpt lat="10.08031" lon="-84.15686">
        <ele>1464.6</ele>
        <time>2022-05-14 15:40:18</time>
      </trkpt>
      <trkpt lat="10.08034" lon="-84.15685">
        <ele>1464.8</ele>
        <time>2022-05-14 15:40:19</time>
      </trkpt>
      <trkpt lat="10.08036" lon="-84.15684">
        <ele>1465.2</ele>
        <time>2022-05-14 15:40:20</time>
      </trkpt>
      <trkpt lat="10.08039" lon="-84.15682">
        <ele>1465.6</ele>
        <time>2022-05-14 15:40:21</time>
      </trkpt>
      <trkpt lat="10.08039" lon="-84.15682">
        <ele>1466.2</ele>
        <time>2022-05-14 15:40:22</time>
      </trkpt>
      <trkpt lat="10.08039" lon="-84.15682">
        <ele>1466.4</ele>
        <time>2022-05-14 15:40:23</time>
      </trkpt>
      <trkpt lat="10.08047" lon="-84.15679">
        <ele>1466.8</ele>
        <time>2022-05-14 15:40:24</time>
      </trkpt>
      <trkpt lat="10.0805" lon="-84.15678">
        <ele>1467.2</ele>
        <time>2022-05-14 15:40:25</time>
      </trkpt>
      <trkpt lat="10.08053" lon="-84.15677">
        <ele>1467.6</ele>
        <time>2022-05-14 15:40:26</time>
      </trkpt>
      <trkpt lat="10.08055" lon="-84.15677">
        <ele>1468</ele>
        <time>2022-05-14 15:40:27</time>
      </trkpt>
      <trkpt lat="10.08058" lon="-84.15676">
        <ele>1468.4</ele>
        <time>2022-05-14 15:40:28</time>
      </trkpt>
      <trkpt lat="10.08061" lon="-84.15676">
        <ele>1468.6</ele>
        <time>2022-05-14 15:40:29</time>
      </trkpt>
      <trkpt lat="10.08064" lon="-84.15676">
        <ele>1469</ele>
        <time>2022-05-14 15:40:30</time>
      </trkpt>
      <trkpt lat="10.08067" lon="-84.15676">
        <ele>1469.6</ele>
        <time>2022-05-14 15:40:31</time>
      </trkpt>
      <trkpt lat="10.08069" lon="-84.15676">
        <ele>1470</ele>
        <time>2022-05-14 15:40:32</time>
      </trkpt>
      <trkpt lat="10.08069" lon="-84.15676">
        <ele>1470.4</ele>
        <time>2022-05-14 15:40:33</time>
      </trkpt>
      <trkpt lat="10.08069" lon="-84.15676">
        <ele>1470.8</ele>
        <time>2022-05-14 15:40:34</time>
      </trkpt>
      <trkpt lat="10.08077" lon="-84.15679">
        <ele>1470.8</ele>
        <time>2022-05-14 15:40:35</time>
      </trkpt>
      <trkpt lat="10.08079" lon="-84.15681">
        <ele>1471</ele>
        <time>2022-05-14 15:40:36</time>
      </trkpt>
      <trkpt lat="10.08082" lon="-84.15682">
        <ele>1471.6</ele>
        <time>2022-05-14 15:40:37</time>
      </trkpt>
      <trkpt lat="10.08084" lon="-84.15684">
        <ele>1471.8</ele>
        <time>2022-05-14 15:40:38</time>
      </trkpt>
      <trkpt lat="10.08086" lon="-84.15685">
        <ele>1472.2</ele>
        <time>2022-05-14 15:40:39</time>
      </trkpt>
      <trkpt lat="10.08088" lon="-84.15687">
        <ele>1472.6</ele>
        <time>2022-05-14 15:40:40</time>
      </trkpt>
      <trkpt lat="10.0809" lon="-84.15689">
        <ele>1473</ele>
        <time>2022-05-14 15:40:41</time>
      </trkpt>
      <trkpt lat="10.08091" lon="-84.15691">
        <ele>1473.2</ele>
        <time>2022-05-14 15:40:42</time>
      </trkpt>
      <trkpt lat="10.08091" lon="-84.15691">
        <ele>1473.6</ele>
        <time>2022-05-14 15:40:43</time>
      </trkpt>
      <trkpt lat="10.08091" lon="-84.15691">
        <ele>1473.8</ele>
        <time>2022-05-14 15:40:44</time>
      </trkpt>
      <trkpt lat="10.08096" lon="-84.15697">
        <ele>1474</ele>
        <time>2022-05-14 15:40:45</time>
      </trkpt>
      <trkpt lat="10.08097" lon="-84.15699">
        <ele>1474.4</ele>
        <time>2022-05-14 15:40:46</time>
      </trkpt>
      <trkpt lat="10.08098" lon="-84.15701">
        <ele>1474.8</ele>
        <time>2022-05-14 15:40:47</time>
      </trkpt>
      <trkpt lat="10.081" lon="-84.15703">
        <ele>1475</ele>
        <time>2022-05-14 15:40:48</time>
      </trkpt>
      <trkpt lat="10.08101" lon="-84.15704">
        <ele>1475.2</ele>
        <time>2022-05-14 15:40:49</time>
      </trkpt>
      <trkpt lat="10.08103" lon="-84.15706">
        <ele>1475.4</ele>
        <time>2022-05-14 15:40:50</time>
      </trkpt>
      <trkpt lat="10.08104" lon="-84.15708">
        <ele>1475.6</ele>
        <time>2022-05-14 15:40:51</time>
      </trkpt>
      <trkpt lat="10.08106" lon="-84.1571">
        <ele>1476</ele>
        <time>2022-05-14 15:40:52</time>
      </trkpt>
      <trkpt lat="10.08107" lon="-84.15711">
        <ele>1476.2</ele>
        <time>2022-05-14 15:40:53</time>
      </trkpt>
      <trkpt lat="10.08107" lon="-84.15711">
        <ele>1476.4</ele>
        <time>2022-05-14 15:40:54</time>
      </trkpt>
      <trkpt lat="10.0811" lon="-84.15715">
        <ele>1476.6</ele>
        <time>2022-05-14 15:40:55</time>
      </trkpt>
      <trkpt lat="10.08111" lon="-84.15717">
        <ele>1476.6</ele>
        <time>2022-05-14 15:40:56</time>
      </trkpt>
      <trkpt lat="10.08113" lon="-84.15719">
        <ele>1476.8</ele>
        <time>2022-05-14 15:40:57</time>
      </trkpt>
      <trkpt lat="10.08114" lon="-84.15721">
        <ele>1477.2</ele>
        <time>2022-05-14 15:40:58</time>
      </trkpt>
      <trkpt lat="10.08115" lon="-84.15724">
        <ele>1477.4</ele>
        <time>2022-05-14 15:40:59</time>
      </trkpt>
      <trkpt lat="10.08117" lon="-84.15725">
        <ele>1477.6</ele>
        <time>2022-05-14 15:41:00</time>
      </trkpt>
      <trkpt lat="10.08119" lon="-84.15727">
        <ele>1477.8</ele>
        <time>2022-05-14 15:41:01</time>
      </trkpt>
      <trkpt lat="10.0812" lon="-84.15729">
        <ele>1478</ele>
        <time>2022-05-14 15:41:02</time>
      </trkpt>
      <trkpt lat="10.08121" lon="-84.15731">
        <ele>1478.2</ele>
        <time>2022-05-14 15:41:03</time>
      </trkpt>
      <trkpt lat="10.08121" lon="-84.15731">
        <ele>1478.4</ele>
        <time>2022-05-14 15:41:04</time>
      </trkpt>
      <trkpt lat="10.08124" lon="-84.15735">
        <ele>1478.6</ele>
        <time>2022-05-14 15:41:05</time>
      </trkpt>
      <trkpt lat="10.08125" lon="-84.15738">
        <ele>1479</ele>
        <time>2022-05-14 15:41:06</time>
      </trkpt>
      <trkpt lat="10.08127" lon="-84.15739">
        <ele>1479.4</ele>
        <time>2022-05-14 15:41:07</time>
      </trkpt>
      <trkpt lat="10.08128" lon="-84.15742">
        <ele>1479.8</ele>
        <time>2022-05-14 15:41:08</time>
      </trkpt>
      <trkpt lat="10.0813" lon="-84.15744">
        <ele>1480</ele>
        <time>2022-05-14 15:41:09</time>
      </trkpt>
      <trkpt lat="10.08131" lon="-84.15746">
        <ele>1480</ele>
        <time>2022-05-14 15:41:10</time>
      </trkpt>
      <trkpt lat="10.08132" lon="-84.15748">
        <ele>1480.2</ele>
        <time>2022-05-14 15:41:11</time>
      </trkpt>
      <trkpt lat="10.08132" lon="-84.1575">
        <ele>1480.4</ele>
        <time>2022-05-14 15:41:12</time>
      </trkpt>
      <trkpt lat="10.08134" lon="-84.15753">
        <ele>1480.6</ele>
        <time>2022-05-14 15:41:13</time>
      </trkpt>
      <trkpt lat="10.08134" lon="-84.15755">
        <ele>1480.8</ele>
        <time>2022-05-14 15:41:14</time>
      </trkpt>
      <trkpt lat="10.08134" lon="-84.15755">
        <ele>1481.2</ele>
        <time>2022-05-14 15:41:15</time>
      </trkpt>
      <trkpt lat="10.08137" lon="-84.15759">
        <ele>1481.6</ele>
        <time>2022-05-14 15:41:16</time>
      </trkpt>
      <trkpt lat="10.08138" lon="-84.15761">
        <ele>1481.6</ele>
        <time>2022-05-14 15:41:17</time>
      </trkpt>
      <trkpt lat="10.0814" lon="-84.15762">
        <ele>1481.8</ele>
        <time>2022-05-14 15:41:18</time>
      </trkpt>
      <trkpt lat="10.08141" lon="-84.15764">
        <ele>1482</ele>
        <time>2022-05-14 15:41:19</time>
      </trkpt>
      <trkpt lat="10.08142" lon="-84.15766">
        <ele>1482.2</ele>
        <time>2022-05-14 15:41:20</time>
      </trkpt>
      <trkpt lat="10.08144" lon="-84.15768">
        <ele>1482.6</ele>
        <time>2022-05-14 15:41:21</time>
      </trkpt>
      <trkpt lat="10.08145" lon="-84.1577">
        <ele>1483</ele>
        <time>2022-05-14 15:41:22</time>
      </trkpt>
      <trkpt lat="10.08147" lon="-84.15772">
        <ele>1483.4</ele>
        <time>2022-05-14 15:41:23</time>
      </trkpt>
      <trkpt lat="10.08147" lon="-84.15772">
        <ele>1483.6</ele>
        <time>2022-05-14 15:41:24</time>
      </trkpt>
      <trkpt lat="10.08147" lon="-84.15772">
        <ele>1483.8</ele>
        <time>2022-05-14 15:41:25</time>
      </trkpt>
      <trkpt lat="10.08152" lon="-84.15778">
        <ele>1484</ele>
        <time>2022-05-14 15:41:26</time>
      </trkpt>
      <trkpt lat="10.08154" lon="-84.1578">
        <ele>1484.4</ele>
        <time>2022-05-14 15:41:27</time>
      </trkpt>
      <trkpt lat="10.08156" lon="-84.15782">
        <ele>1484.6</ele>
        <time>2022-05-14 15:41:28</time>
      </trkpt>
      <trkpt lat="10.08158" lon="-84.15783">
        <ele>1485</ele>
        <time>2022-05-14 15:41:29</time>
      </trkpt>
      <trkpt lat="10.0816" lon="-84.15785">
        <ele>1485.2</ele>
        <time>2022-05-14 15:41:30</time>
      </trkpt>
      <trkpt lat="10.08161" lon="-84.15787">
        <ele>1485.6</ele>
        <time>2022-05-14 15:41:31</time>
      </trkpt>
      <trkpt lat="10.08163" lon="-84.15789">
        <ele>1485.8</ele>
        <time>2022-05-14 15:41:32</time>
      </trkpt>
      <trkpt lat="10.08165" lon="-84.15791">
        <ele>1485.8</ele>
        <time>2022-05-14 15:41:33</time>
      </trkpt>
      <trkpt lat="10.08167" lon="-84.15792">
        <ele>1486</ele>
        <time>2022-05-14 15:41:34</time>
      </trkpt>
      <trkpt lat="10.08167" lon="-84.15792">
        <ele>1486.2</ele>
        <time>2022-05-14 15:41:35</time>
      </trkpt>
      <trkpt lat="10.08167" lon="-84.15792">
        <ele>1486.6</ele>
        <time>2022-05-14 15:41:36</time>
      </trkpt>
      <trkpt lat="10.08172" lon="-84.15798">
        <ele>1486.8</ele>
        <time>2022-05-14 15:41:37</time>
      </trkpt>
      <trkpt lat="10.08174" lon="-84.158">
        <ele>1486.8</ele>
        <time>2022-05-14 15:41:38</time>
      </trkpt>
      <trkpt lat="10.08175" lon="-84.15802">
        <ele>1487</ele>
        <time>2022-05-14 15:41:39</time>
      </trkpt>
      <trkpt lat="10.08176" lon="-84.15804">
        <ele>1487.2</ele>
        <time>2022-05-14 15:41:40</time>
      </trkpt>
      <trkpt lat="10.08178" lon="-84.15806">
        <ele>1487.2</ele>
        <time>2022-05-14 15:41:41</time>
      </trkpt>
      <trkpt lat="10.08179" lon="-84.15809">
        <ele>1487.4</ele>
        <time>2022-05-14 15:41:42</time>
      </trkpt>
      <trkpt lat="10.0818" lon="-84.15811">
        <ele>1487.6</ele>
        <time>2022-05-14 15:41:43</time>
      </trkpt>
      <trkpt lat="10.08181" lon="-84.15813">
        <ele>1488</ele>
        <time>2022-05-14 15:41:44</time>
      </trkpt>
      <trkpt lat="10.08181" lon="-84.15813">
        <ele>1488.2</ele>
        <time>2022-05-14 15:41:45</time>
      </trkpt>
      <trkpt lat="10.08183" lon="-84.15818">
        <ele>1488.4</ele>
        <time>2022-05-14 15:41:46</time>
      </trkpt>
      <trkpt lat="10.08183" lon="-84.1582">
        <ele>1488.8</ele>
        <time>2022-05-14 15:41:47</time>
      </trkpt>
      <trkpt lat="10.08184" lon="-84.15823">
        <ele>1489</ele>
        <time>2022-05-14 15:41:48</time>
      </trkpt>
      <trkpt lat="10.08185" lon="-84.15826">
        <ele>1489.2</ele>
        <time>2022-05-14 15:41:49</time>
      </trkpt>
      <trkpt lat="10.08186" lon="-84.15828">
        <ele>1489.4</ele>
        <time>2022-05-14 15:41:50</time>
      </trkpt>
      <trkpt lat="10.08187" lon="-84.1583">
        <ele>1489.6</ele>
        <time>2022-05-14 15:41:51</time>
      </trkpt>
      <trkpt lat="10.08187" lon="-84.15833">
        <ele>1489.8</ele>
        <time>2022-05-14 15:41:52</time>
      </trkpt>
      <trkpt lat="10.08188" lon="-84.15836">
        <ele>1490.2</ele>
        <time>2022-05-14 15:41:53</time>
      </trkpt>
      <trkpt lat="10.08188" lon="-84.15838">
        <ele>1490.6</ele>
        <time>2022-05-14 15:41:54</time>
      </trkpt>
      <trkpt lat="10.08189" lon="-84.15841">
        <ele>1490.8</ele>
        <time>2022-05-14 15:41:55</time>
      </trkpt>
      <trkpt lat="10.08189" lon="-84.15841">
        <ele>1491</ele>
        <time>2022-05-14 15:41:56</time>
      </trkpt>
      <trkpt lat="10.08191" lon="-84.15845">
        <ele>1491.2</ele>
        <time>2022-05-14 15:41:57</time>
      </trkpt>
      <trkpt lat="10.08191" lon="-84.15849">
        <ele>1491.4</ele>
        <time>2022-05-14 15:41:58</time>
      </trkpt>
      <trkpt lat="10.08192" lon="-84.15851">
        <ele>1491.4</ele>
        <time>2022-05-14 15:41:59</time>
      </trkpt>
      <trkpt lat="10.08193" lon="-84.15852">
        <ele>1491.8</ele>
        <time>2022-05-14 15:42:00</time>
      </trkpt>
      <trkpt lat="10.08194" lon="-84.15855">
        <ele>1492</ele>
        <time>2022-05-14 15:42:01</time>
      </trkpt>
      <trkpt lat="10.08196" lon="-84.15857">
        <ele>1492.4</ele>
        <time>2022-05-14 15:42:02</time>
      </trkpt>
      <trkpt lat="10.08198" lon="-84.15858">
        <ele>1492.8</ele>
        <time>2022-05-14 15:42:03</time>
      </trkpt>
      <trkpt lat="10.08199" lon="-84.15861">
        <ele>1493.2</ele>
        <time>2022-05-14 15:42:04</time>
      </trkpt>
      <trkpt lat="10.08201" lon="-84.15862">
        <ele>1493.4</ele>
        <time>2022-05-14 15:42:05</time>
      </trkpt>
      <trkpt lat="10.08201" lon="-84.15862">
        <ele>1493.8</ele>
        <time>2022-05-14 15:42:06</time>
      </trkpt>
      <trkpt lat="10.08204" lon="-84.15865">
        <ele>1494</ele>
        <time>2022-05-14 15:42:07</time>
      </trkpt>
      <trkpt lat="10.08206" lon="-84.15866">
        <ele>1494.2</ele>
        <time>2022-05-14 15:42:08</time>
      </trkpt>
      <trkpt lat="10.08208" lon="-84.15867">
        <ele>1494.6</ele>
        <time>2022-05-14 15:42:09</time>
      </trkpt>
      <trkpt lat="10.0821" lon="-84.15869">
        <ele>1495</ele>
        <time>2022-05-14 15:42:10</time>
      </trkpt>
      <trkpt lat="10.08212" lon="-84.15869">
        <ele>1495</ele>
        <time>2022-05-14 15:42:11</time>
      </trkpt>
      <trkpt lat="10.08214" lon="-84.1587">
        <ele>1495.2</ele>
        <time>2022-05-14 15:42:12</time>
      </trkpt>
      <trkpt lat="10.08216" lon="-84.15871">
        <ele>1495.2</ele>
        <time>2022-05-14 15:42:13</time>
      </trkpt>
      <trkpt lat="10.08219" lon="-84.15871">
        <ele>1495.4</ele>
        <time>2022-05-14 15:42:14</time>
      </trkpt>
      <trkpt lat="10.08221" lon="-84.15872">
        <ele>1495.6</ele>
        <time>2022-05-14 15:42:15</time>
      </trkpt>
      <trkpt lat="10.08221" lon="-84.15872">
        <ele>1495.8</ele>
        <time>2022-05-14 15:42:16</time>
      </trkpt>
      <trkpt lat="10.08221" lon="-84.15872">
        <ele>1495.8</ele>
        <time>2022-05-14 15:42:17</time>
      </trkpt>
      <trkpt lat="10.08228" lon="-84.15874">
        <ele>1496</ele>
        <time>2022-05-14 15:42:18</time>
      </trkpt>
      <trkpt lat="10.0823" lon="-84.15874">
        <ele>1496.2</ele>
        <time>2022-05-14 15:42:19</time>
      </trkpt>
      <trkpt lat="10.08233" lon="-84.15875">
        <ele>1496.2</ele>
        <time>2022-05-14 15:42:20</time>
      </trkpt>
      <trkpt lat="10.08235" lon="-84.15876">
        <ele>1496.4</ele>
        <time>2022-05-14 15:42:21</time>
      </trkpt>
      <trkpt lat="10.08237" lon="-84.15877">
        <ele>1496.4</ele>
        <time>2022-05-14 15:42:22</time>
      </trkpt>
      <trkpt lat="10.0824" lon="-84.15877">
        <ele>1496.6</ele>
        <time>2022-05-14 15:42:23</time>
      </trkpt>
      <trkpt lat="10.08242" lon="-84.15878">
        <ele>1496.6</ele>
        <time>2022-05-14 15:42:24</time>
      </trkpt>
      <trkpt lat="10.08245" lon="-84.15878">
        <ele>1496.8</ele>
        <time>2022-05-14 15:42:25</time>
      </trkpt>
      <trkpt lat="10.08245" lon="-84.15878">
        <ele>1496.8</ele>
        <time>2022-05-14 15:42:26</time>
      </trkpt>
      <trkpt lat="10.08245" lon="-84.15878">
        <ele>1497</ele>
        <time>2022-05-14 15:42:27</time>
      </trkpt>
      <trkpt lat="10.08252" lon="-84.1588">
        <ele>1497</ele>
        <time>2022-05-14 15:42:28</time>
      </trkpt>
      <trkpt lat="10.08255" lon="-84.15881">
        <ele>1497</ele>
        <time>2022-05-14 15:42:29</time>
      </trkpt>
      <trkpt lat="10.08258" lon="-84.15882">
        <ele>1497</ele>
        <time>2022-05-14 15:42:30</time>
      </trkpt>
      <trkpt lat="10.08261" lon="-84.15883">
        <ele>1497</ele>
        <time>2022-05-14 15:42:31</time>
      </trkpt>
      <trkpt lat="10.08263" lon="-84.15883">
        <ele>1497</ele>
        <time>2022-05-14 15:42:32</time>
      </trkpt>
      <trkpt lat="10.08266" lon="-84.15885">
        <ele>1497</ele>
        <time>2022-05-14 15:42:33</time>
      </trkpt>
      <trkpt lat="10.08269" lon="-84.15885">
        <ele>1497</ele>
        <time>2022-05-14 15:42:34</time>
      </trkpt>
      <trkpt lat="10.08272" lon="-84.15886">
        <ele>1497</ele>
        <time>2022-05-14 15:42:35</time>
      </trkpt>
      <trkpt lat="10.08275" lon="-84.15887">
        <ele>1497</ele>
        <time>2022-05-14 15:42:36</time>
      </trkpt>
      <trkpt lat="10.08275" lon="-84.15887">
        <ele>1497</ele>
        <time>2022-05-14 15:42:37</time>
      </trkpt>
      <trkpt lat="10.08275" lon="-84.15887">
        <ele>1497</ele>
        <time>2022-05-14 15:42:38</time>
      </trkpt>
      <trkpt lat="10.08283" lon="-84.15889">
        <ele>1497.2</ele>
        <time>2022-05-14 15:42:39</time>
      </trkpt>
      <trkpt lat="10.08286" lon="-84.1589">
        <ele>1497.2</ele>
        <time>2022-05-14 15:42:40</time>
      </trkpt>
      <trkpt lat="10.08289" lon="-84.15891">
        <ele>1497.2</ele>
        <time>2022-05-14 15:42:41</time>
      </trkpt>
      <trkpt lat="10.08292" lon="-84.15891">
        <ele>1497.2</ele>
        <time>2022-05-14 15:42:42</time>
      </trkpt>
      <trkpt lat="10.08294" lon="-84.15892">
        <ele>1497.4</ele>
        <time>2022-05-14 15:42:43</time>
      </trkpt>
      <trkpt lat="10.08297" lon="-84.15893">
        <ele>1497.4</ele>
        <time>2022-05-14 15:42:44</time>
      </trkpt>
      <trkpt lat="10.083" lon="-84.15894">
        <ele>1497.6</ele>
        <time>2022-05-14 15:42:45</time>
      </trkpt>
      <trkpt lat="10.08302" lon="-84.15894">
        <ele>1497.6</ele>
        <time>2022-05-14 15:42:46</time>
      </trkpt>
      <trkpt lat="10.08302" lon="-84.15894">
        <ele>1497.8</ele>
        <time>2022-05-14 15:42:47</time>
      </trkpt>
      <trkpt lat="10.08308" lon="-84.15895">
        <ele>1497.6</ele>
        <time>2022-05-14 15:42:48</time>
      </trkpt>
      <trkpt lat="10.0831" lon="-84.15896">
        <ele>1497.6</ele>
        <time>2022-05-14 15:42:49</time>
      </trkpt>
      <trkpt lat="10.08313" lon="-84.15896">
        <ele>1497.6</ele>
        <time>2022-05-14 15:42:50</time>
      </trkpt>
      <trkpt lat="10.08315" lon="-84.15897">
        <ele>1497.6</ele>
        <time>2022-05-14 15:42:51</time>
      </trkpt>
      <trkpt lat="10.08317" lon="-84.15898">
        <ele>1497.8</ele>
        <time>2022-05-14 15:42:52</time>
      </trkpt>
      <trkpt lat="10.0832" lon="-84.15899">
        <ele>1497.8</ele>
        <time>2022-05-14 15:42:53</time>
      </trkpt>
      <trkpt lat="10.08322" lon="-84.159">
        <ele>1497.8</ele>
        <time>2022-05-14 15:42:54</time>
      </trkpt>
      <trkpt lat="10.08324" lon="-84.159">
        <ele>1498</ele>
        <time>2022-05-14 15:42:55</time>
      </trkpt>
      <trkpt lat="10.08327" lon="-84.159">
        <ele>1498</ele>
        <time>2022-05-14 15:42:56</time>
      </trkpt>
      <trkpt lat="10.08329" lon="-84.15901">
        <ele>1497.8</ele>
        <time>2022-05-14 15:42:57</time>
      </trkpt>
      <trkpt lat="10.08329" lon="-84.15901">
        <ele>1497.8</ele>
        <time>2022-05-14 15:42:58</time>
      </trkpt>
      <trkpt lat="10.08334" lon="-84.15903">
        <ele>1497.8</ele>
        <time>2022-05-14 15:42:59</time>
      </trkpt>
      <trkpt lat="10.08337" lon="-84.15903">
        <ele>1498</ele>
        <time>2022-05-14 15:43:00</time>
      </trkpt>
      <trkpt lat="10.08339" lon="-84.15903">
        <ele>1498</ele>
        <time>2022-05-14 15:43:01</time>
      </trkpt>
      <trkpt lat="10.08342" lon="-84.15904">
        <ele>1498</ele>
        <time>2022-05-14 15:43:02</time>
      </trkpt>
      <trkpt lat="10.08345" lon="-84.15906">
        <ele>1498.2</ele>
        <time>2022-05-14 15:43:03</time>
      </trkpt>
      <trkpt lat="10.08348" lon="-84.15907">
        <ele>1498.4</ele>
        <time>2022-05-14 15:43:04</time>
      </trkpt>
      <trkpt lat="10.08352" lon="-84.15908">
        <ele>1498.4</ele>
        <time>2022-05-14 15:43:05</time>
      </trkpt>
      <trkpt lat="10.08355" lon="-84.15909">
        <ele>1498.6</ele>
        <time>2022-05-14 15:43:06</time>
      </trkpt>
      <trkpt lat="10.08355" lon="-84.15909">
        <ele>1498.6</ele>
        <time>2022-05-14 15:43:07</time>
      </trkpt>
      <trkpt lat="10.08355" lon="-84.15909">
        <ele>1498.6</ele>
        <time>2022-05-14 15:43:08</time>
      </trkpt>
      <trkpt lat="10.08367" lon="-84.15912">
        <ele>1498.6</ele>
        <time>2022-05-14 15:43:09</time>
      </trkpt>
      <trkpt lat="10.08371" lon="-84.15914">
        <ele>1498.8</ele>
        <time>2022-05-14 15:43:10</time>
      </trkpt>
      <trkpt lat="10.08375" lon="-84.15914">
        <ele>1499</ele>
        <time>2022-05-14 15:43:11</time>
      </trkpt>
      <trkpt lat="10.08379" lon="-84.15916">
        <ele>1499.4</ele>
        <time>2022-05-14 15:43:12</time>
      </trkpt>
      <trkpt lat="10.08383" lon="-84.15916">
        <ele>1499.4</ele>
        <time>2022-05-14 15:43:13</time>
      </trkpt>
      <trkpt lat="10.08387" lon="-84.15917">
        <ele>1499.6</ele>
        <time>2022-05-14 15:43:14</time>
      </trkpt>
      <trkpt lat="10.0839" lon="-84.15918">
        <ele>1499.6</ele>
        <time>2022-05-14 15:43:15</time>
      </trkpt>
      <trkpt lat="10.08394" lon="-84.15919">
        <ele>1499.6</ele>
        <time>2022-05-14 15:43:16</time>
      </trkpt>
      <trkpt lat="10.08397" lon="-84.15919">
        <ele>1499.4</ele>
        <time>2022-05-14 15:43:17</time>
      </trkpt>
      <trkpt lat="10.08397" lon="-84.15919">
        <ele>1499.6</ele>
        <time>2022-05-14 15:43:18</time>
      </trkpt>
      <trkpt lat="10.08397" lon="-84.15919">
        <ele>1499.6</ele>
        <time>2022-05-14 15:43:19</time>
      </trkpt>
      <trkpt lat="10.08408" lon="-84.15923">
        <ele>1499.8</ele>
        <time>2022-05-14 15:43:20</time>
      </trkpt>
      <trkpt lat="10.08411" lon="-84.15923">
        <ele>1500</ele>
        <time>2022-05-14 15:43:21</time>
      </trkpt>
      <trkpt lat="10.08414" lon="-84.15925">
        <ele>1500</ele>
        <time>2022-05-14 15:43:22</time>
      </trkpt>
      <trkpt lat="10.08416" lon="-84.15925">
        <ele>1500</ele>
        <time>2022-05-14 15:43:23</time>
      </trkpt>
      <trkpt lat="10.08419" lon="-84.15927">
        <ele>1500.2</ele>
        <time>2022-05-14 15:43:24</time>
      </trkpt>
      <trkpt lat="10.08422" lon="-84.15928">
        <ele>1500.4</ele>
        <time>2022-05-14 15:43:25</time>
      </trkpt>
      <trkpt lat="10.08425" lon="-84.15928">
        <ele>1500.4</ele>
        <time>2022-05-14 15:43:26</time>
      </trkpt>
      <trkpt lat="10.08428" lon="-84.15929">
        <ele>1500.2</ele>
        <time>2022-05-14 15:43:27</time>
      </trkpt>
      <trkpt lat="10.08428" lon="-84.15929">
        <ele>1500</ele>
        <time>2022-05-14 15:43:28</time>
      </trkpt>
      <trkpt lat="10.08436" lon="-84.15929">
        <ele>1499.8</ele>
        <time>2022-05-14 15:43:29</time>
      </trkpt>
      <trkpt lat="10.0844" lon="-84.15928">
        <ele>1499.4</ele>
        <time>2022-05-14 15:43:30</time>
      </trkpt>
      <trkpt lat="10.08445" lon="-84.15926">
        <ele>1499</ele>
        <time>2022-05-14 15:43:31</time>
      </trkpt>
      <trkpt lat="10.08451" lon="-84.15924">
        <ele>1498.6</ele>
        <time>2022-05-14 15:43:32</time>
      </trkpt>
      <trkpt lat="10.08457" lon="-84.15922">
        <ele>1498</ele>
        <time>2022-05-14 15:43:33</time>
      </trkpt>
      <trkpt lat="10.08461" lon="-84.15918">
        <ele>1497.4</ele>
        <time>2022-05-14 15:43:34</time>
      </trkpt>
      <trkpt lat="10.08466" lon="-84.15914">
        <ele>1496.8</ele>
        <time>2022-05-14 15:43:35</time>
      </trkpt>
      <trkpt lat="10.08469" lon="-84.1591">
        <ele>1496.4</ele>
        <time>2022-05-14 15:43:36</time>
      </trkpt>
      <trkpt lat="10.08473" lon="-84.15907">
        <ele>1495.8</ele>
        <time>2022-05-14 15:43:37</time>
      </trkpt>
      <trkpt lat="10.08477" lon="-84.15903">
        <ele>1495.6</ele>
        <time>2022-05-14 15:43:38</time>
      </trkpt>
      <trkpt lat="10.08477" lon="-84.15903">
        <ele>1495.2</ele>
        <time>2022-05-14 15:43:39</time>
      </trkpt>
      <trkpt lat="10.08487" lon="-84.15896">
        <ele>1494.8</ele>
        <time>2022-05-14 15:43:40</time>
      </trkpt>
      <trkpt lat="10.08492" lon="-84.15893">
        <ele>1494.4</ele>
        <time>2022-05-14 15:43:41</time>
      </trkpt>
      <trkpt lat="10.08498" lon="-84.15891">
        <ele>1493.8</ele>
        <time>2022-05-14 15:43:42</time>
      </trkpt>
      <trkpt lat="10.08504" lon="-84.15888">
        <ele>1493.2</ele>
        <time>2022-05-14 15:43:43</time>
      </trkpt>
      <trkpt lat="10.08512" lon="-84.15887">
        <ele>1493.2</ele>
        <time>2022-05-14 15:43:44</time>
      </trkpt>
      <trkpt lat="10.0852" lon="-84.15886">
        <ele>1492.6</ele>
        <time>2022-05-14 15:43:45</time>
      </trkpt>
      <trkpt lat="10.08528" lon="-84.15885">
        <ele>1492</ele>
        <time>2022-05-14 15:43:46</time>
      </trkpt>
      <trkpt lat="10.08536" lon="-84.15886">
        <ele>1491.4</ele>
        <time>2022-05-14 15:43:47</time>
      </trkpt>
      <trkpt lat="10.08544" lon="-84.15887">
        <ele>1490.8</ele>
        <time>2022-05-14 15:43:48</time>
      </trkpt>
      <trkpt lat="10.08544" lon="-84.15887">
        <ele>1490.2</ele>
        <time>2022-05-14 15:43:49</time>
      </trkpt>
      <trkpt lat="10.0856" lon="-84.1589">
        <ele>1489.4</ele>
        <time>2022-05-14 15:43:50</time>
      </trkpt>
      <trkpt lat="10.08568" lon="-84.15891">
        <ele>1488.6</ele>
        <time>2022-05-14 15:43:51</time>
      </trkpt>
      <trkpt lat="10.08577" lon="-84.15891">
        <ele>1487.8</ele>
        <time>2022-05-14 15:43:52</time>
      </trkpt>
      <trkpt lat="10.08585" lon="-84.15891">
        <ele>1487</ele>
        <time>2022-05-14 15:43:53</time>
      </trkpt>
      <trkpt lat="10.08594" lon="-84.15891">
        <ele>1486.2</ele>
        <time>2022-05-14 15:43:54</time>
      </trkpt>
      <trkpt lat="10.08601" lon="-84.15892">
        <ele>1485.4</ele>
        <time>2022-05-14 15:43:55</time>
      </trkpt>
      <trkpt lat="10.08609" lon="-84.15894">
        <ele>1484.2</ele>
        <time>2022-05-14 15:43:56</time>
      </trkpt>
      <trkpt lat="10.08615" lon="-84.159">
        <ele>1483.2</ele>
        <time>2022-05-14 15:43:57</time>
      </trkpt>
      <trkpt lat="10.08618" lon="-84.15907">
        <ele>1482.2</ele>
        <time>2022-05-14 15:43:58</time>
      </trkpt>
      <trkpt lat="10.08618" lon="-84.15907">
        <ele>1481.2</ele>
        <time>2022-05-14 15:43:59</time>
      </trkpt>
      <trkpt lat="10.08618" lon="-84.15907">
        <ele>1480.2</ele>
        <time>2022-05-14 15:44:00</time>
      </trkpt>
      <trkpt lat="10.08607" lon="-84.15925">
        <ele>1479.2</ele>
        <time>2022-05-14 15:44:01</time>
      </trkpt>
      <trkpt lat="10.08601" lon="-84.1593">
        <ele>1478.4</ele>
        <time>2022-05-14 15:44:02</time>
      </trkpt>
      <trkpt lat="10.08594" lon="-84.15934">
        <ele>1477.4</ele>
        <time>2022-05-14 15:44:03</time>
      </trkpt>
      <trkpt lat="10.0859" lon="-84.15941">
        <ele>1476</ele>
        <time>2022-05-14 15:44:04</time>
      </trkpt>
      <trkpt lat="10.08588" lon="-84.15948">
        <ele>1476</ele>
        <time>2022-05-14 15:44:05</time>
      </trkpt>
      <trkpt lat="10.08593" lon="-84.15954">
        <ele>1474.6</ele>
        <time>2022-05-14 15:44:06</time>
      </trkpt>
      <trkpt lat="10.086" lon="-84.15958">
        <ele>1473</ele>
        <time>2022-05-14 15:44:07</time>
      </trkpt>
      <trkpt lat="10.08609" lon="-84.15959">
        <ele>1471.6</ele>
        <time>2022-05-14 15:44:08</time>
      </trkpt>
      <trkpt lat="10.08609" lon="-84.15959">
        <ele>1470.2</ele>
        <time>2022-05-14 15:44:09</time>
      </trkpt>
      <trkpt lat="10.08609" lon="-84.15959">
        <ele>1469.4</ele>
        <time>2022-05-14 15:44:10</time>
      </trkpt>
      <trkpt lat="10.08633" lon="-84.15943">
        <ele>1468.8</ele>
        <time>2022-05-14 15:44:11</time>
      </trkpt>
      <trkpt lat="10.08638" lon="-84.15936">
        <ele>1468.2</ele>
        <time>2022-05-14 15:44:12</time>
      </trkpt>
      <trkpt lat="10.08646" lon="-84.15931">
        <ele>1467.8</ele>
        <time>2022-05-14 15:44:13</time>
      </trkpt>
      <trkpt lat="10.08654" lon="-84.15931">
        <ele>1467.2</ele>
        <time>2022-05-14 15:44:14</time>
      </trkpt>
      <trkpt lat="10.08661" lon="-84.15933">
        <ele>1466.8</ele>
        <time>2022-05-14 15:44:15</time>
      </trkpt>
      <trkpt lat="10.08667" lon="-84.15937">
        <ele>1466.6</ele>
        <time>2022-05-14 15:44:16</time>
      </trkpt>
      <trkpt lat="10.0867" lon="-84.15943">
        <ele>1466.6</ele>
        <time>2022-05-14 15:44:17</time>
      </trkpt>
      <trkpt lat="10.08672" lon="-84.1595">
        <ele>1466.8</ele>
        <time>2022-05-14 15:44:18</time>
      </trkpt>
      <trkpt lat="10.08673" lon="-84.15957">
        <ele>1466.8</ele>
        <time>2022-05-14 15:44:19</time>
      </trkpt>
      <trkpt lat="10.08673" lon="-84.15957">
        <ele>1466.6</ele>
        <time>2022-05-14 15:44:20</time>
      </trkpt>
      <trkpt lat="10.08673" lon="-84.1597">
        <ele>1466.6</ele>
        <time>2022-05-14 15:44:21</time>
      </trkpt>
      <trkpt lat="10.08672" lon="-84.15976">
        <ele>1466.6</ele>
        <time>2022-05-14 15:44:22</time>
      </trkpt>
      <trkpt lat="10.08671" lon="-84.15981">
        <ele>1466.6</ele>
        <time>2022-05-14 15:44:23</time>
      </trkpt>
      <trkpt lat="10.08669" lon="-84.15988">
        <ele>1466.6</ele>
        <time>2022-05-14 15:44:24</time>
      </trkpt>
      <trkpt lat="10.08662" lon="-84.15992">
        <ele>1466.6</ele>
        <time>2022-05-14 15:44:25</time>
      </trkpt>
      <trkpt lat="10.08657" lon="-84.15997">
        <ele>1466.6</ele>
        <time>2022-05-14 15:44:26</time>
      </trkpt>
      <trkpt lat="10.08652" lon="-84.16">
        <ele>1466.4</ele>
        <time>2022-05-14 15:44:27</time>
      </trkpt>
      <trkpt lat="10.08646" lon="-84.16003">
        <ele>1466.4</ele>
        <time>2022-05-14 15:44:28</time>
      </trkpt>
      <trkpt lat="10.0864" lon="-84.16006">
        <ele>1466.4</ele>
        <time>2022-05-14 15:44:29</time>
      </trkpt>
      <trkpt lat="10.0864" lon="-84.16006">
        <ele>1466.4</ele>
        <time>2022-05-14 15:44:30</time>
      </trkpt>
      <trkpt lat="10.08627" lon="-84.16011">
        <ele>1466.4</ele>
        <time>2022-05-14 15:44:31</time>
      </trkpt>
      <trkpt lat="10.08621" lon="-84.16013">
        <ele>1466.2</ele>
        <time>2022-05-14 15:44:32</time>
      </trkpt>
      <trkpt lat="10.08615" lon="-84.16015">
        <ele>1466.2</ele>
        <time>2022-05-14 15:44:33</time>
      </trkpt>
      <trkpt lat="10.08611" lon="-84.16019">
        <ele>1466.2</ele>
        <time>2022-05-14 15:44:34</time>
      </trkpt>
      <trkpt lat="10.08606" lon="-84.16026">
        <ele>1466.2</ele>
        <time>2022-05-14 15:44:35</time>
      </trkpt>
      <trkpt lat="10.08603" lon="-84.16031">
        <ele>1466.4</ele>
        <time>2022-05-14 15:44:36</time>
      </trkpt>
      <trkpt lat="10.08602" lon="-84.16036">
        <ele>1466.4</ele>
        <time>2022-05-14 15:44:37</time>
      </trkpt>
      <trkpt lat="10.08602" lon="-84.16042">
        <ele>1466.8</ele>
        <time>2022-05-14 15:44:38</time>
      </trkpt>
      <trkpt lat="10.08602" lon="-84.16048">
        <ele>1467</ele>
        <time>2022-05-14 15:44:39</time>
      </trkpt>
      <trkpt lat="10.08603" lon="-84.16054">
        <ele>1467.2</ele>
        <time>2022-05-14 15:44:40</time>
      </trkpt>
      <trkpt lat="10.08603" lon="-84.16054">
        <ele>1467.4</ele>
        <time>2022-05-14 15:44:41</time>
      </trkpt>
      <trkpt lat="10.08607" lon="-84.16064">
        <ele>1467.6</ele>
        <time>2022-05-14 15:44:42</time>
      </trkpt>
      <trkpt lat="10.08609" lon="-84.16068">
        <ele>1468</ele>
        <time>2022-05-14 15:44:43</time>
      </trkpt>
      <trkpt lat="10.08612" lon="-84.16071">
        <ele>1468.2</ele>
        <time>2022-05-14 15:44:44</time>
      </trkpt>
      <trkpt lat="10.08615" lon="-84.16075">
        <ele>1468.6</ele>
        <time>2022-05-14 15:44:45</time>
      </trkpt>
      <trkpt lat="10.08619" lon="-84.16077">
        <ele>1468.8</ele>
        <time>2022-05-14 15:44:46</time>
      </trkpt>
      <trkpt lat="10.08622" lon="-84.1608">
        <ele>1468.8</ele>
        <time>2022-05-14 15:44:47</time>
      </trkpt>
      <trkpt lat="10.08626" lon="-84.16082">
        <ele>1469</ele>
        <time>2022-05-14 15:44:48</time>
      </trkpt>
      <trkpt lat="10.0863" lon="-84.16084">
        <ele>1469.2</ele>
        <time>2022-05-14 15:44:49</time>
      </trkpt>
      <trkpt lat="10.0863" lon="-84.16084">
        <ele>1469.4</ele>
        <time>2022-05-14 15:44:50</time>
      </trkpt>
      <trkpt lat="10.0863" lon="-84.16084">
        <ele>1469.6</ele>
        <time>2022-05-14 15:44:51</time>
      </trkpt>
      <trkpt lat="10.0864" lon="-84.16093">
        <ele>1469.8</ele>
        <time>2022-05-14 15:44:52</time>
      </trkpt>
      <trkpt lat="10.08643" lon="-84.16097">
        <ele>1470</ele>
        <time>2022-05-14 15:44:53</time>
      </trkpt>
      <trkpt lat="10.08647" lon="-84.16099">
        <ele>1470.2</ele>
        <time>2022-05-14 15:44:54</time>
      </trkpt>
      <trkpt lat="10.08651" lon="-84.16102">
        <ele>1470.4</ele>
        <time>2022-05-14 15:44:55</time>
      </trkpt>
      <trkpt lat="10.08654" lon="-84.16105">
        <ele>1470.6</ele>
        <time>2022-05-14 15:44:56</time>
      </trkpt>
      <trkpt lat="10.08657" lon="-84.16107">
        <ele>1470.8</ele>
        <time>2022-05-14 15:44:57</time>
      </trkpt>
      <trkpt lat="10.08661" lon="-84.16109">
        <ele>1471</ele>
        <time>2022-05-14 15:44:58</time>
      </trkpt>
      <trkpt lat="10.08664" lon="-84.16113">
        <ele>1471</ele>
        <time>2022-05-14 15:44:59</time>
      </trkpt>
      <trkpt lat="10.08668" lon="-84.16116">
        <ele>1471.2</ele>
        <time>2022-05-14 15:45:00</time>
      </trkpt>
      <trkpt lat="10.08668" lon="-84.16116">
        <ele>1471.2</ele>
        <time>2022-05-14 15:45:01</time>
      </trkpt>
      <trkpt lat="10.08668" lon="-84.16116">
        <ele>1471.4</ele>
        <time>2022-05-14 15:45:02</time>
      </trkpt>
      <trkpt lat="10.0868" lon="-84.16123">
        <ele>1471.6</ele>
        <time>2022-05-14 15:45:03</time>
      </trkpt>
      <trkpt lat="10.08683" lon="-84.16125">
        <ele>1471.8</ele>
        <time>2022-05-14 15:45:04</time>
      </trkpt>
      <trkpt lat="10.08686" lon="-84.16129">
        <ele>1472</ele>
        <time>2022-05-14 15:45:05</time>
      </trkpt>
      <trkpt lat="10.08689" lon="-84.16132">
        <ele>1472.2</ele>
        <time>2022-05-14 15:45:06</time>
      </trkpt>
      <trkpt lat="10.08692" lon="-84.16136">
        <ele>1472.2</ele>
        <time>2022-05-14 15:45:07</time>
      </trkpt>
      <trkpt lat="10.08694" lon="-84.1614">
        <ele>1472.2</ele>
        <time>2022-05-14 15:45:08</time>
      </trkpt>
      <trkpt lat="10.08695" lon="-84.16145">
        <ele>1472.4</ele>
        <time>2022-05-14 15:45:09</time>
      </trkpt>
      <trkpt lat="10.08695" lon="-84.1615">
        <ele>1472.4</ele>
        <time>2022-05-14 15:45:10</time>
      </trkpt>
      <trkpt lat="10.08695" lon="-84.1615">
        <ele>1472.6</ele>
        <time>2022-05-14 15:45:11</time>
      </trkpt>
      <trkpt lat="10.08696" lon="-84.16159">
        <ele>1472.8</ele>
        <time>2022-05-14 15:45:12</time>
      </trkpt>
      <trkpt lat="10.08696" lon="-84.16165">
        <ele>1473</ele>
        <time>2022-05-14 15:45:13</time>
      </trkpt>
      <trkpt lat="10.08695" lon="-84.16169">
        <ele>1473</ele>
        <time>2022-05-14 15:45:14</time>
      </trkpt>
      <trkpt lat="10.08695" lon="-84.16174">
        <ele>1473.2</ele>
        <time>2022-05-14 15:45:15</time>
      </trkpt>
      <trkpt lat="10.08695" lon="-84.16179">
        <ele>1473.2</ele>
        <time>2022-05-14 15:45:16</time>
      </trkpt>
      <trkpt lat="10.08694" lon="-84.16184">
        <ele>1473.4</ele>
        <time>2022-05-14 15:45:17</time>
      </trkpt>
      <trkpt lat="10.08694" lon="-84.16189">
        <ele>1473.6</ele>
        <time>2022-05-14 15:45:18</time>
      </trkpt>
      <trkpt lat="10.08693" lon="-84.16194">
        <ele>1474</ele>
        <time>2022-05-14 15:45:19</time>
      </trkpt>
      <trkpt lat="10.08693" lon="-84.16199">
        <ele>1474.2</ele>
        <time>2022-05-14 15:45:20</time>
      </trkpt>
      <trkpt lat="10.08692" lon="-84.16203">
        <ele>1474.4</ele>
        <time>2022-05-14 15:45:21</time>
      </trkpt>
      <trkpt lat="10.08692" lon="-84.16203">
        <ele>1474.6</ele>
        <time>2022-05-14 15:45:22</time>
      </trkpt>
      <trkpt lat="10.0869" lon="-84.16212">
        <ele>1474.8</ele>
        <time>2022-05-14 15:45:23</time>
      </trkpt>
      <trkpt lat="10.0869" lon="-84.16217">
        <ele>1475</ele>
        <time>2022-05-14 15:45:24</time>
      </trkpt>
      <trkpt lat="10.08689" lon="-84.16221">
        <ele>1475</ele>
        <time>2022-05-14 15:45:25</time>
      </trkpt>
      <trkpt lat="10.08688" lon="-84.16225">
        <ele>1475.4</ele>
        <time>2022-05-14 15:45:26</time>
      </trkpt>
      <trkpt lat="10.08687" lon="-84.1623">
        <ele>1475.6</ele>
        <time>2022-05-14 15:45:27</time>
      </trkpt>
      <trkpt lat="10.08686" lon="-84.16234">
        <ele>1476</ele>
        <time>2022-05-14 15:45:28</time>
      </trkpt>
      <trkpt lat="10.08685" lon="-84.16239">
        <ele>1476</ele>
        <time>2022-05-14 15:45:29</time>
      </trkpt>
      <trkpt lat="10.08685" lon="-84.16242">
        <ele>1476.2</ele>
        <time>2022-05-14 15:45:30</time>
      </trkpt>
      <trkpt lat="10.08683" lon="-84.16246">
        <ele>1476.4</ele>
        <time>2022-05-14 15:45:31</time>
      </trkpt>
      <trkpt lat="10.08683" lon="-84.16246">
        <ele>1476.6</ele>
        <time>2022-05-14 15:45:32</time>
      </trkpt>
      <trkpt lat="10.08682" lon="-84.16254">
        <ele>1477</ele>
        <time>2022-05-14 15:45:33</time>
      </trkpt>
      <trkpt lat="10.08681" lon="-84.16258">
        <ele>1477</ele>
        <time>2022-05-14 15:45:34</time>
      </trkpt>
      <trkpt lat="10.0868" lon="-84.16263">
        <ele>1477.2</ele>
        <time>2022-05-14 15:45:35</time>
      </trkpt>
      <trkpt lat="10.0868" lon="-84.16267">
        <ele>1477.4</ele>
        <time>2022-05-14 15:45:36</time>
      </trkpt>
      <trkpt lat="10.0868" lon="-84.16271">
        <ele>1477.6</ele>
        <time>2022-05-14 15:45:37</time>
      </trkpt>
      <trkpt lat="10.0868" lon="-84.16276">
        <ele>1477.8</ele>
        <time>2022-05-14 15:45:38</time>
      </trkpt>
      <trkpt lat="10.0868" lon="-84.16279">
        <ele>1477.8</ele>
        <time>2022-05-14 15:45:39</time>
      </trkpt>
      <trkpt lat="10.0868" lon="-84.16284">
        <ele>1477.8</ele>
        <time>2022-05-14 15:45:40</time>
      </trkpt>
      <trkpt lat="10.08679" lon="-84.16289">
        <ele>1478</ele>
        <time>2022-05-14 15:45:41</time>
      </trkpt>
      <trkpt lat="10.08679" lon="-84.16289">
        <ele>1478</ele>
        <time>2022-05-14 15:45:42</time>
      </trkpt>
      <trkpt lat="10.08679" lon="-84.16289">
        <ele>1478.2</ele>
        <time>2022-05-14 15:45:43</time>
      </trkpt>
      <trkpt lat="10.08682" lon="-84.16302">
        <ele>1478.2</ele>
        <time>2022-05-14 15:45:44</time>
      </trkpt>
      <trkpt lat="10.08683" lon="-84.16306">
        <ele>1478.4</ele>
        <time>2022-05-14 15:45:45</time>
      </trkpt>
      <trkpt lat="10.08686" lon="-84.1631">
        <ele>1478.4</ele>
        <time>2022-05-14 15:45:46</time>
      </trkpt>
      <trkpt lat="10.08688" lon="-84.16315">
        <ele>1478.4</ele>
        <time>2022-05-14 15:45:47</time>
      </trkpt>
      <trkpt lat="10.08692" lon="-84.16319">
        <ele>1478.6</ele>
        <time>2022-05-14 15:45:48</time>
      </trkpt>
      <trkpt lat="10.08695" lon="-84.16322">
        <ele>1478.6</ele>
        <time>2022-05-14 15:45:49</time>
      </trkpt>
      <trkpt lat="10.08699" lon="-84.16324">
        <ele>1478.6</ele>
        <time>2022-05-14 15:45:50</time>
      </trkpt>
      <trkpt lat="10.08704" lon="-84.16326">
        <ele>1478.8</ele>
        <time>2022-05-14 15:45:51</time>
      </trkpt>
      <trkpt lat="10.08704" lon="-84.16326">
        <ele>1479</ele>
        <time>2022-05-14 15:45:52</time>
      </trkpt>
      <trkpt lat="10.08704" lon="-84.16326">
        <ele>1479</ele>
        <time>2022-05-14 15:45:53</time>
      </trkpt>
      <trkpt lat="10.08718" lon="-84.16326">
        <ele>1479.2</ele>
        <time>2022-05-14 15:45:54</time>
      </trkpt>
      <trkpt lat="10.08722" lon="-84.16324">
        <ele>1479.2</ele>
        <time>2022-05-14 15:45:55</time>
      </trkpt>
      <trkpt lat="10.08726" lon="-84.16321">
        <ele>1479.2</ele>
        <time>2022-05-14 15:45:56</time>
      </trkpt>
      <trkpt lat="10.0873" lon="-84.16319">
        <ele>1479.2</ele>
        <time>2022-05-14 15:45:57</time>
      </trkpt>
      <trkpt lat="10.08734" lon="-84.16315">
        <ele>1479</ele>
        <time>2022-05-14 15:45:58</time>
      </trkpt>
      <trkpt lat="10.08738" lon="-84.16312">
        <ele>1478.8</ele>
        <time>2022-05-14 15:45:59</time>
      </trkpt>
      <trkpt lat="10.08743" lon="-84.16308">
        <ele>1478.4</ele>
        <time>2022-05-14 15:46:00</time>
      </trkpt>
      <trkpt lat="10.08748" lon="-84.16305">
        <ele>1478.2</ele>
        <time>2022-05-14 15:46:01</time>
      </trkpt>
      <trkpt lat="10.08753" lon="-84.16302">
        <ele>1478</ele>
        <time>2022-05-14 15:46:02</time>
      </trkpt>
      <trkpt lat="10.08753" lon="-84.16302">
        <ele>1477.6</ele>
        <time>2022-05-14 15:46:03</time>
      </trkpt>
      <trkpt lat="10.08753" lon="-84.16302">
        <ele>1477.2</ele>
        <time>2022-05-14 15:46:04</time>
      </trkpt>
      <trkpt lat="10.08772" lon="-84.16295">
        <ele>1476.6</ele>
        <time>2022-05-14 15:46:05</time>
      </trkpt>
      <trkpt lat="10.08778" lon="-84.16291">
        <ele>1475.8</ele>
        <time>2022-05-14 15:46:06</time>
      </trkpt>
      <trkpt lat="10.08784" lon="-84.16286">
        <ele>1475.2</ele>
        <time>2022-05-14 15:46:07</time>
      </trkpt>
      <trkpt lat="10.0879" lon="-84.16279">
        <ele>1474.6</ele>
        <time>2022-05-14 15:46:08</time>
      </trkpt>
      <trkpt lat="10.08796" lon="-84.16274">
        <ele>1474.2</ele>
        <time>2022-05-14 15:46:09</time>
      </trkpt>
      <trkpt lat="10.08801" lon="-84.16267">
        <ele>1473.8</ele>
        <time>2022-05-14 15:46:10</time>
      </trkpt>
      <trkpt lat="10.08808" lon="-84.16261">
        <ele>1473.8</ele>
        <time>2022-05-14 15:46:11</time>
      </trkpt>
      <trkpt lat="10.08814" lon="-84.16255">
        <ele>1473.2</ele>
        <time>2022-05-14 15:46:12</time>
      </trkpt>
      <trkpt lat="10.08814" lon="-84.16255">
        <ele>1472.6</ele>
        <time>2022-05-14 15:46:13</time>
      </trkpt>
      <trkpt lat="10.08827" lon="-84.16243">
        <ele>1471.8</ele>
        <time>2022-05-14 15:46:14</time>
      </trkpt>
      <trkpt lat="10.08833" lon="-84.16238">
        <ele>1470.8</ele>
        <time>2022-05-14 15:46:15</time>
      </trkpt>
      <trkpt lat="10.08838" lon="-84.16231">
        <ele>1470</ele>
        <time>2022-05-14 15:46:16</time>
      </trkpt>
      <trkpt lat="10.08843" lon="-84.16225">
        <ele>1469.2</ele>
        <time>2022-05-14 15:46:17</time>
      </trkpt>
      <trkpt lat="10.08848" lon="-84.16219">
        <ele>1468.8</ele>
        <time>2022-05-14 15:46:18</time>
      </trkpt>
      <trkpt lat="10.08853" lon="-84.16213">
        <ele>1468.4</ele>
        <time>2022-05-14 15:46:19</time>
      </trkpt>
      <trkpt lat="10.0886" lon="-84.1621">
        <ele>1468</ele>
        <time>2022-05-14 15:46:20</time>
      </trkpt>
      <trkpt lat="10.08867" lon="-84.1621">
        <ele>1467.8</ele>
        <time>2022-05-14 15:46:21</time>
      </trkpt>
      <trkpt lat="10.08873" lon="-84.16212">
        <ele>1467.4</ele>
        <time>2022-05-14 15:46:22</time>
      </trkpt>
      <trkpt lat="10.08879" lon="-84.16216">
        <ele>1467.2</ele>
        <time>2022-05-14 15:46:23</time>
      </trkpt>
      <trkpt lat="10.08879" lon="-84.16216">
        <ele>1467.4</ele>
        <time>2022-05-14 15:46:24</time>
      </trkpt>
      <trkpt lat="10.08883" lon="-84.16226">
        <ele>1467.6</ele>
        <time>2022-05-14 15:46:25</time>
      </trkpt>
      <trkpt lat="10.08884" lon="-84.16231">
        <ele>1467.8</ele>
        <time>2022-05-14 15:46:26</time>
      </trkpt>
      <trkpt lat="10.08883" lon="-84.16236">
        <ele>1468.2</ele>
        <time>2022-05-14 15:46:27</time>
      </trkpt>
      <trkpt lat="10.08881" lon="-84.16241">
        <ele>1468.2</ele>
        <time>2022-05-14 15:46:28</time>
      </trkpt>
      <trkpt lat="10.0888" lon="-84.16246">
        <ele>1468.4</ele>
        <time>2022-05-14 15:46:29</time>
      </trkpt>
      <trkpt lat="10.08878" lon="-84.1625">
        <ele>1468.6</ele>
        <time>2022-05-14 15:46:30</time>
      </trkpt>
      <trkpt lat="10.08876" lon="-84.16255">
        <ele>1469</ele>
        <time>2022-05-14 15:46:31</time>
      </trkpt>
      <trkpt lat="10.08875" lon="-84.1626">
        <ele>1469</ele>
        <time>2022-05-14 15:46:32</time>
      </trkpt>
      <trkpt lat="10.08875" lon="-84.1626">
        <ele>1469.2</ele>
        <time>2022-05-14 15:46:33</time>
      </trkpt>
      <trkpt lat="10.08875" lon="-84.1626">
        <ele>1469.4</ele>
        <time>2022-05-14 15:46:34</time>
      </trkpt>
      <trkpt lat="10.08872" lon="-84.16274">
        <ele>1469.6</ele>
        <time>2022-05-14 15:46:35</time>
      </trkpt>
      <trkpt lat="10.08871" lon="-84.16279">
        <ele>1469.8</ele>
        <time>2022-05-14 15:46:36</time>
      </trkpt>
      <trkpt lat="10.0887" lon="-84.16283">
        <ele>1470</ele>
        <time>2022-05-14 15:46:37</time>
      </trkpt>
      <trkpt lat="10.08869" lon="-84.16288">
        <ele>1470.2</ele>
        <time>2022-05-14 15:46:38</time>
      </trkpt>
      <trkpt lat="10.08869" lon="-84.16293">
        <ele>1470.2</ele>
        <time>2022-05-14 15:46:39</time>
      </trkpt>
      <trkpt lat="10.08868" lon="-84.16298">
        <ele>1470.4</ele>
        <time>2022-05-14 15:46:40</time>
      </trkpt>
      <trkpt lat="10.08867" lon="-84.16303">
        <ele>1470.6</ele>
        <time>2022-05-14 15:46:41</time>
      </trkpt>
      <trkpt lat="10.08866" lon="-84.16307">
        <ele>1470.8</ele>
        <time>2022-05-14 15:46:42</time>
      </trkpt>
      <trkpt lat="10.08865" lon="-84.16312">
        <ele>1471</ele>
        <time>2022-05-14 15:46:43</time>
      </trkpt>
      <trkpt lat="10.08865" lon="-84.16312">
        <ele>1471.2</ele>
        <time>2022-05-14 15:46:44</time>
      </trkpt>
      <trkpt lat="10.08865" lon="-84.16312">
        <ele>1471.4</ele>
        <time>2022-05-14 15:46:45</time>
      </trkpt>
      <trkpt lat="10.08863" lon="-84.16326">
        <ele>1471.8</ele>
        <time>2022-05-14 15:46:46</time>
      </trkpt>
      <trkpt lat="10.08862" lon="-84.16331">
        <ele>1472</ele>
        <time>2022-05-14 15:46:47</time>
      </trkpt>
      <trkpt lat="10.08862" lon="-84.16335">
        <ele>1472.2</ele>
        <time>2022-05-14 15:46:48</time>
      </trkpt>
      <trkpt lat="10.08862" lon="-84.1634">
        <ele>1472.4</ele>
        <time>2022-05-14 15:46:49</time>
      </trkpt>
      <trkpt lat="10.08863" lon="-84.16344">
        <ele>1472.6</ele>
        <time>2022-05-14 15:46:50</time>
      </trkpt>
      <trkpt lat="10.08864" lon="-84.16349">
        <ele>1472.8</ele>
        <time>2022-05-14 15:46:51</time>
      </trkpt>
      <trkpt lat="10.08866" lon="-84.16353">
        <ele>1473.2</ele>
        <time>2022-05-14 15:46:52</time>
      </trkpt>
      <trkpt lat="10.08867" lon="-84.16357">
        <ele>1473.2</ele>
        <time>2022-05-14 15:46:53</time>
      </trkpt>
      <trkpt lat="10.08867" lon="-84.16357">
        <ele>1473.6</ele>
        <time>2022-05-14 15:46:54</time>
      </trkpt>
      <trkpt lat="10.08872" lon="-84.16364">
        <ele>1473.6</ele>
        <time>2022-05-14 15:46:55</time>
      </trkpt>
      <trkpt lat="10.08875" lon="-84.16367">
        <ele>1473.8</ele>
        <time>2022-05-14 15:46:56</time>
      </trkpt>
      <trkpt lat="10.08878" lon="-84.16371">
        <ele>1473.8</ele>
        <time>2022-05-14 15:46:57</time>
      </trkpt>
      <trkpt lat="10.08881" lon="-84.16375">
        <ele>1474</ele>
        <time>2022-05-14 15:46:58</time>
      </trkpt>
      <trkpt lat="10.08883" lon="-84.1638">
        <ele>1474</ele>
        <time>2022-05-14 15:46:59</time>
      </trkpt>
      <trkpt lat="10.08886" lon="-84.16382">
        <ele>1474.2</ele>
        <time>2022-05-14 15:47:00</time>
      </trkpt>
      <trkpt lat="10.08889" lon="-84.16386">
        <ele>1474.2</ele>
        <time>2022-05-14 15:47:01</time>
      </trkpt>
      <trkpt lat="10.08891" lon="-84.16389">
        <ele>1474.4</ele>
        <time>2022-05-14 15:47:02</time>
      </trkpt>
      <trkpt lat="10.08894" lon="-84.16393">
        <ele>1474.4</ele>
        <time>2022-05-14 15:47:03</time>
      </trkpt>
      <trkpt lat="10.08896" lon="-84.16396">
        <ele>1474.6</ele>
        <time>2022-05-14 15:47:04</time>
      </trkpt>
      <trkpt lat="10.08896" lon="-84.16396">
        <ele>1474.6</ele>
        <time>2022-05-14 15:47:05</time>
      </trkpt>
      <trkpt lat="10.08901" lon="-84.16402">
        <ele>1474.8</ele>
        <time>2022-05-14 15:47:06</time>
      </trkpt>
      <trkpt lat="10.08904" lon="-84.16405">
        <ele>1474.8</ele>
        <time>2022-05-14 15:47:07</time>
      </trkpt>
      <trkpt lat="10.08907" lon="-84.16409">
        <ele>1474.8</ele>
        <time>2022-05-14 15:47:08</time>
      </trkpt>
      <trkpt lat="10.0891" lon="-84.16412">
        <ele>1474.8</ele>
        <time>2022-05-14 15:47:09</time>
      </trkpt>
      <trkpt lat="10.08913" lon="-84.16415">
        <ele>1475</ele>
        <time>2022-05-14 15:47:10</time>
      </trkpt>
      <trkpt lat="10.08916" lon="-84.16418">
        <ele>1475.2</ele>
        <time>2022-05-14 15:47:11</time>
      </trkpt>
      <trkpt lat="10.08919" lon="-84.16422">
        <ele>1475.4</ele>
        <time>2022-05-14 15:47:12</time>
      </trkpt>
      <trkpt lat="10.08922" lon="-84.16426">
        <ele>1475.4</ele>
        <time>2022-05-14 15:47:13</time>
      </trkpt>
      <trkpt lat="10.08924" lon="-84.16429">
        <ele>1475.4</ele>
        <time>2022-05-14 15:47:14</time>
      </trkpt>
      <trkpt lat="10.08924" lon="-84.16429">
        <ele>1475.6</ele>
        <time>2022-05-14 15:47:15</time>
      </trkpt>
      <trkpt lat="10.08929" lon="-84.16438">
        <ele>1475.6</ele>
        <time>2022-05-14 15:47:16</time>
      </trkpt>
      <trkpt lat="10.08932" lon="-84.1644">
        <ele>1475.8</ele>
        <time>2022-05-14 15:47:17</time>
      </trkpt>
      <trkpt lat="10.08934" lon="-84.16445">
        <ele>1475.8</ele>
        <time>2022-05-14 15:47:18</time>
      </trkpt>
      <trkpt lat="10.08936" lon="-84.16448">
        <ele>1476</ele>
        <time>2022-05-14 15:47:19</time>
      </trkpt>
      <trkpt lat="10.08938" lon="-84.16452">
        <ele>1476</ele>
        <time>2022-05-14 15:47:20</time>
      </trkpt>
      <trkpt lat="10.08939" lon="-84.16456">
        <ele>1476</ele>
        <time>2022-05-14 15:47:21</time>
      </trkpt>
      <trkpt lat="10.08941" lon="-84.1646">
        <ele>1476.2</ele>
        <time>2022-05-14 15:47:22</time>
      </trkpt>
      <trkpt lat="10.08942" lon="-84.16464">
        <ele>1476.4</ele>
        <time>2022-05-14 15:47:23</time>
      </trkpt>
      <trkpt lat="10.08943" lon="-84.16467">
        <ele>1476.4</ele>
        <time>2022-05-14 15:47:24</time>
      </trkpt>
      <trkpt lat="10.08943" lon="-84.16467">
        <ele>1476.6</ele>
        <time>2022-05-14 15:47:25</time>
      </trkpt>
      <trkpt lat="10.08943" lon="-84.16467">
        <ele>1476.8</ele>
        <time>2022-05-14 15:47:26</time>
      </trkpt>
      <trkpt lat="10.08948" lon="-84.1648">
        <ele>1476.8</ele>
        <time>2022-05-14 15:47:27</time>
      </trkpt>
      <trkpt lat="10.08949" lon="-84.16483">
        <ele>1476.8</ele>
        <time>2022-05-14 15:47:28</time>
      </trkpt>
      <trkpt lat="10.08951" lon="-84.16487">
        <ele>1476.8</ele>
        <time>2022-05-14 15:47:29</time>
      </trkpt>
      <trkpt lat="10.08952" lon="-84.16492">
        <ele>1476.8</ele>
        <time>2022-05-14 15:47:30</time>
      </trkpt>
      <trkpt lat="10.08953" lon="-84.16496">
        <ele>1476.8</ele>
        <time>2022-05-14 15:47:31</time>
      </trkpt>
      <trkpt lat="10.08955" lon="-84.16499">
        <ele>1476.8</ele>
        <time>2022-05-14 15:47:32</time>
      </trkpt>
      <trkpt lat="10.08959" lon="-84.16504">
        <ele>1476.8</ele>
        <time>2022-05-14 15:47:33</time>
      </trkpt>
      <trkpt lat="10.08963" lon="-84.16506">
        <ele>1477</ele>
        <time>2022-05-14 15:47:34</time>
      </trkpt>
      <trkpt lat="10.08963" lon="-84.16506">
        <ele>1477</ele>
        <time>2022-05-14 15:47:35</time>
      </trkpt>
      <trkpt lat="10.08963" lon="-84.16506">
        <ele>1477.2</ele>
        <time>2022-05-14 15:47:36</time>
      </trkpt>
      <trkpt lat="10.08976" lon="-84.16511">
        <ele>1477.2</ele>
        <time>2022-05-14 15:47:37</time>
      </trkpt>
      <trkpt lat="10.0898" lon="-84.16512">
        <ele>1477.4</ele>
        <time>2022-05-14 15:47:38</time>
      </trkpt>
      <trkpt lat="10.08986" lon="-84.16513">
        <ele>1477.2</ele>
        <time>2022-05-14 15:47:39</time>
      </trkpt>
      <trkpt lat="10.08991" lon="-84.16513">
        <ele>1477.4</ele>
        <time>2022-05-14 15:47:40</time>
      </trkpt>
      <trkpt lat="10.08997" lon="-84.16514">
        <ele>1477.4</ele>
        <time>2022-05-14 15:47:41</time>
      </trkpt>
      <trkpt lat="10.09002" lon="-84.16515">
        <ele>1477.6</ele>
        <time>2022-05-14 15:47:42</time>
      </trkpt>
      <trkpt lat="10.09007" lon="-84.16516">
        <ele>1477.6</ele>
        <time>2022-05-14 15:47:43</time>
      </trkpt>
      <trkpt lat="10.09012" lon="-84.16517">
        <ele>1477.8</ele>
        <time>2022-05-14 15:47:44</time>
      </trkpt>
      <trkpt lat="10.09017" lon="-84.16517">
        <ele>1477.8</ele>
        <time>2022-05-14 15:47:45</time>
      </trkpt>
      <trkpt lat="10.09017" lon="-84.16517">
        <ele>1477.8</ele>
        <time>2022-05-14 15:47:46</time>
      </trkpt>
      <trkpt lat="10.09017" lon="-84.16517">
        <ele>1477.8</ele>
        <time>2022-05-14 15:47:47</time>
      </trkpt>
      <trkpt lat="10.09032" lon="-84.16518">
        <ele>1477.6</ele>
        <time>2022-05-14 15:47:48</time>
      </trkpt>
      <trkpt lat="10.09037" lon="-84.16519">
        <ele>1477.6</ele>
        <time>2022-05-14 15:47:49</time>
      </trkpt>
      <trkpt lat="10.09043" lon="-84.16519">
        <ele>1477.2</ele>
        <time>2022-05-14 15:47:50</time>
      </trkpt>
      <trkpt lat="10.09048" lon="-84.16519">
        <ele>1477</ele>
        <time>2022-05-14 15:47:51</time>
      </trkpt>
      <trkpt lat="10.09054" lon="-84.16521">
        <ele>1476.8</ele>
        <time>2022-05-14 15:47:52</time>
      </trkpt>
      <trkpt lat="10.0906" lon="-84.16521">
        <ele>1476.6</ele>
        <time>2022-05-14 15:47:53</time>
      </trkpt>
      <trkpt lat="10.09065" lon="-84.16525">
        <ele>1476.2</ele>
        <time>2022-05-14 15:47:54</time>
      </trkpt>
      <trkpt lat="10.0907" lon="-84.16529">
        <ele>1475.4</ele>
        <time>2022-05-14 15:47:55</time>
      </trkpt>
      <trkpt lat="10.0907" lon="-84.16529">
        <ele>1475.4</ele>
        <time>2022-05-14 15:47:56</time>
      </trkpt>
      <trkpt lat="10.09075" lon="-84.16544">
        <ele>1474.6</ele>
        <time>2022-05-14 15:47:57</time>
      </trkpt>
      <trkpt lat="10.09075" lon="-84.16552">
        <ele>1473.8</ele>
        <time>2022-05-14 15:47:58</time>
      </trkpt>
      <trkpt lat="10.09073" lon="-84.16561">
        <ele>1472.8</ele>
        <time>2022-05-14 15:47:59</time>
      </trkpt>
      <trkpt lat="10.09072" lon="-84.16568">
        <ele>1471.8</ele>
        <time>2022-05-14 15:48:00</time>
      </trkpt>
      <trkpt lat="10.09072" lon="-84.16576">
        <ele>1470.8</ele>
        <time>2022-05-14 15:48:01</time>
      </trkpt>
      <trkpt lat="10.09073" lon="-84.16584">
        <ele>1470</ele>
        <time>2022-05-14 15:48:02</time>
      </trkpt>
      <trkpt lat="10.09077" lon="-84.16591">
        <ele>1468.8</ele>
        <time>2022-05-14 15:48:03</time>
      </trkpt>
      <trkpt lat="10.09083" lon="-84.16598">
        <ele>1467.8</ele>
        <time>2022-05-14 15:48:04</time>
      </trkpt>
      <trkpt lat="10.09088" lon="-84.16605">
        <ele>1466.6</ele>
        <time>2022-05-14 15:48:05</time>
      </trkpt>
      <trkpt lat="10.09093" lon="-84.16611">
        <ele>1465.4</ele>
        <time>2022-05-14 15:48:06</time>
      </trkpt>
      <trkpt lat="10.09093" lon="-84.16611">
        <ele>1464.4</ele>
        <time>2022-05-14 15:48:07</time>
      </trkpt>
      <trkpt lat="10.09102" lon="-84.16625">
        <ele>1463.6</ele>
        <time>2022-05-14 15:48:08</time>
      </trkpt>
      <trkpt lat="10.09101" lon="-84.16633">
        <ele>1462.8</ele>
        <time>2022-05-14 15:48:09</time>
      </trkpt>
      <trkpt lat="10.09101" lon="-84.16643">
        <ele>1462</ele>
        <time>2022-05-14 15:48:10</time>
      </trkpt>
      <trkpt lat="10.09099" lon="-84.16651">
        <ele>1461.4</ele>
        <time>2022-05-14 15:48:11</time>
      </trkpt>
      <trkpt lat="10.09097" lon="-84.1666">
        <ele>1460.8</ele>
        <time>2022-05-14 15:48:12</time>
      </trkpt>
      <trkpt lat="10.09096" lon="-84.16668">
        <ele>1460.2</ele>
        <time>2022-05-14 15:48:13</time>
      </trkpt>
      <trkpt lat="10.09095" lon="-84.16676">
        <ele>1459.8</ele>
        <time>2022-05-14 15:48:14</time>
      </trkpt>
      <trkpt lat="10.09097" lon="-84.16684">
        <ele>1459.6</ele>
        <time>2022-05-14 15:48:15</time>
      </trkpt>
      <trkpt lat="10.09097" lon="-84.16684">
        <ele>1459.4</ele>
        <time>2022-05-14 15:48:16</time>
      </trkpt>
      <trkpt lat="10.09097" lon="-84.16684">
        <ele>1459.4</ele>
        <time>2022-05-14 15:48:17</time>
      </trkpt>
      <trkpt lat="10.09113" lon="-84.16706">
        <ele>1459.4</ele>
        <time>2022-05-14 15:48:18</time>
      </trkpt>
      <trkpt lat="10.09117" lon="-84.16712">
        <ele>1459.6</ele>
        <time>2022-05-14 15:48:19</time>
      </trkpt>
      <trkpt lat="10.09121" lon="-84.16719">
        <ele>1459.6</ele>
        <time>2022-05-14 15:48:20</time>
      </trkpt>
      <trkpt lat="10.09124" lon="-84.16724">
        <ele>1459.8</ele>
        <time>2022-05-14 15:48:21</time>
      </trkpt>
      <trkpt lat="10.09128" lon="-84.16731">
        <ele>1460.2</ele>
        <time>2022-05-14 15:48:22</time>
      </trkpt>
      <trkpt lat="10.09132" lon="-84.16736">
        <ele>1460.2</ele>
        <time>2022-05-14 15:48:23</time>
      </trkpt>
      <trkpt lat="10.09136" lon="-84.16742">
        <ele>1460.4</ele>
        <time>2022-05-14 15:48:24</time>
      </trkpt>
      <trkpt lat="10.0914" lon="-84.16748">
        <ele>1460.6</ele>
        <time>2022-05-14 15:48:25</time>
      </trkpt>
      <trkpt lat="10.09142" lon="-84.16754">
        <ele>1460.8</ele>
        <time>2022-05-14 15:48:26</time>
      </trkpt>
      <trkpt lat="10.09142" lon="-84.16754">
        <ele>1461</ele>
        <time>2022-05-14 15:48:27</time>
      </trkpt>
      <trkpt lat="10.09142" lon="-84.16754">
        <ele>1461.2</ele>
        <time>2022-05-14 15:48:28</time>
      </trkpt>
      <trkpt lat="10.0915" lon="-84.16772">
        <ele>1461.6</ele>
        <time>2022-05-14 15:48:29</time>
      </trkpt>
      <trkpt lat="10.09152" lon="-84.16776">
        <ele>1462</ele>
        <time>2022-05-14 15:48:30</time>
      </trkpt>
      <trkpt lat="10.09153" lon="-84.16781">
        <ele>1462.4</ele>
        <time>2022-05-14 15:48:31</time>
      </trkpt>
      <trkpt lat="10.09154" lon="-84.16785">
        <ele>1462.8</ele>
        <time>2022-05-14 15:48:32</time>
      </trkpt>
      <trkpt lat="10.09154" lon="-84.16789">
        <ele>1463.2</ele>
        <time>2022-05-14 15:48:33</time>
      </trkpt>
      <trkpt lat="10.09155" lon="-84.16793">
        <ele>1463.6</ele>
        <time>2022-05-14 15:48:34</time>
      </trkpt>
      <trkpt lat="10.09156" lon="-84.16797">
        <ele>1464</ele>
        <time>2022-05-14 15:48:35</time>
      </trkpt>
      <trkpt lat="10.09156" lon="-84.16801">
        <ele>1464.2</ele>
        <time>2022-05-14 15:48:36</time>
      </trkpt>
      <trkpt lat="10.09157" lon="-84.16807">
        <ele>1464.4</ele>
        <time>2022-05-14 15:48:37</time>
      </trkpt>
      <trkpt lat="10.09157" lon="-84.16807">
        <ele>1464.4</ele>
        <time>2022-05-14 15:48:38</time>
      </trkpt>
      <trkpt lat="10.09157" lon="-84.1681">
        <ele>1464.6</ele>
        <time>2022-05-14 15:48:39</time>
      </trkpt>
      <trkpt lat="10.09157" lon="-84.16814">
        <ele>1465</ele>
        <time>2022-05-14 15:48:40</time>
      </trkpt>
      <trkpt lat="10.09158" lon="-84.16817">
        <ele>1465.4</ele>
        <time>2022-05-14 15:48:41</time>
      </trkpt>
      <trkpt lat="10.09158" lon="-84.1682">
        <ele>1465.6</ele>
        <time>2022-05-14 15:48:42</time>
      </trkpt>
      <trkpt lat="10.09157" lon="-84.16823">
        <ele>1466</ele>
        <time>2022-05-14 15:48:43</time>
      </trkpt>
      <trkpt lat="10.09156" lon="-84.16826">
        <ele>1466.2</ele>
        <time>2022-05-14 15:48:44</time>
      </trkpt>
      <trkpt lat="10.09156" lon="-84.1683">
        <ele>1466.4</ele>
        <time>2022-05-14 15:48:45</time>
      </trkpt>
      <trkpt lat="10.09155" lon="-84.16833">
        <ele>1466.8</ele>
        <time>2022-05-14 15:48:46</time>
      </trkpt>
      <trkpt lat="10.09153" lon="-84.16836">
        <ele>1467.2</ele>
        <time>2022-05-14 15:48:47</time>
      </trkpt>
      <trkpt lat="10.09153" lon="-84.16836">
        <ele>1467.4</ele>
        <time>2022-05-14 15:48:48</time>
      </trkpt>
      <trkpt lat="10.09151" lon="-84.16842">
        <ele>1467.8</ele>
        <time>2022-05-14 15:48:49</time>
      </trkpt>
      <trkpt lat="10.0915" lon="-84.16845">
        <ele>1468</ele>
        <time>2022-05-14 15:48:50</time>
      </trkpt>
      <trkpt lat="10.09149" lon="-84.16848">
        <ele>1468.2</ele>
        <time>2022-05-14 15:48:51</time>
      </trkpt>
      <trkpt lat="10.09148" lon="-84.16851">
        <ele>1468.4</ele>
        <time>2022-05-14 15:48:52</time>
      </trkpt>
      <trkpt lat="10.09147" lon="-84.16854">
        <ele>1468.8</ele>
        <time>2022-05-14 15:48:53</time>
      </trkpt>
      <trkpt lat="10.09146" lon="-84.16857">
        <ele>1469</ele>
        <time>2022-05-14 15:48:54</time>
      </trkpt>
      <trkpt lat="10.09146" lon="-84.1686">
        <ele>1469.4</ele>
        <time>2022-05-14 15:48:55</time>
      </trkpt>
      <trkpt lat="10.09146" lon="-84.16863">
        <ele>1469.6</ele>
        <time>2022-05-14 15:48:56</time>
      </trkpt>
      <trkpt lat="10.09146" lon="-84.16863">
        <ele>1470</ele>
        <time>2022-05-14 15:48:57</time>
      </trkpt>
      <trkpt lat="10.09144" lon="-84.16871">
        <ele>1470.2</ele>
        <time>2022-05-14 15:48:58</time>
      </trkpt>
      <trkpt lat="10.09144" lon="-84.16871">
        <ele>1470.2</ele>
        <time>2022-05-14 15:48:59</time>
      </trkpt>
      <trkpt lat="10.09144" lon="-84.16873">
        <ele>1470.4</ele>
        <time>2022-05-14 15:49:00</time>
      </trkpt>
      <trkpt lat="10.09144" lon="-84.16876">
        <ele>1470.6</ele>
        <time>2022-05-14 15:49:01</time>
      </trkpt>
      <trkpt lat="10.09145" lon="-84.16879">
        <ele>1471</ele>
        <time>2022-05-14 15:49:02</time>
      </trkpt>
      <trkpt lat="10.09146" lon="-84.16881">
        <ele>1471.4</ele>
        <time>2022-05-14 15:49:03</time>
      </trkpt>
      <trkpt lat="10.09147" lon="-84.16883">
        <ele>1471.8</ele>
        <time>2022-05-14 15:49:04</time>
      </trkpt>
      <trkpt lat="10.09148" lon="-84.16886">
        <ele>1472</ele>
        <time>2022-05-14 15:49:05</time>
      </trkpt>
      <trkpt lat="10.09148" lon="-84.16887">
        <ele>1472.4</ele>
        <time>2022-05-14 15:49:06</time>
      </trkpt>
      <trkpt lat="10.0915" lon="-84.16889">
        <ele>1472.8</ele>
        <time>2022-05-14 15:49:07</time>
      </trkpt>
      <trkpt lat="10.0915" lon="-84.16889">
        <ele>1473.2</ele>
        <time>2022-05-14 15:49:08</time>
      </trkpt>
      <trkpt lat="10.0915" lon="-84.16889">
        <ele>1473.6</ele>
        <time>2022-05-14 15:49:09</time>
      </trkpt>
      <trkpt lat="10.09153" lon="-84.16895">
        <ele>1474</ele>
        <time>2022-05-14 15:49:10</time>
      </trkpt>
      <trkpt lat="10.09155" lon="-84.16896">
        <ele>1474.2</ele>
        <time>2022-05-14 15:49:11</time>
      </trkpt>
      <trkpt lat="10.09157" lon="-84.16897">
        <ele>1474.6</ele>
        <time>2022-05-14 15:49:12</time>
      </trkpt>
      <trkpt lat="10.09159" lon="-84.16899">
        <ele>1475</ele>
        <time>2022-05-14 15:49:13</time>
      </trkpt>
      <trkpt lat="10.09161" lon="-84.169">
        <ele>1475.2</ele>
        <time>2022-05-14 15:49:14</time>
      </trkpt>
      <trkpt lat="10.09163" lon="-84.16901">
        <ele>1475.6</ele>
        <time>2022-05-14 15:49:15</time>
      </trkpt>
      <trkpt lat="10.09165" lon="-84.16901">
        <ele>1476</ele>
        <time>2022-05-14 15:49:16</time>
      </trkpt>
      <trkpt lat="10.09167" lon="-84.16901">
        <ele>1476.4</ele>
        <time>2022-05-14 15:49:17</time>
      </trkpt>
      <trkpt lat="10.09171" lon="-84.16904">
        <ele>1476.6</ele>
        <time>2022-05-14 15:49:18</time>
      </trkpt>
      <trkpt lat="10.09173" lon="-84.16905">
        <ele>1477</ele>
        <time>2022-05-14 15:49:19</time>
      </trkpt>
      <trkpt lat="10.09173" lon="-84.16905">
        <ele>1477</ele>
        <time>2022-05-14 15:49:20</time>
      </trkpt>
      <trkpt lat="10.09176" lon="-84.16906">
        <ele>1477.2</ele>
        <time>2022-05-14 15:49:21</time>
      </trkpt>
      <trkpt lat="10.09178" lon="-84.16906">
        <ele>1477.6</ele>
        <time>2022-05-14 15:49:22</time>
      </trkpt>
      <trkpt lat="10.0918" lon="-84.16907">
        <ele>1477.8</ele>
        <time>2022-05-14 15:49:23</time>
      </trkpt>
      <trkpt lat="10.09183" lon="-84.16908">
        <ele>1478.2</ele>
        <time>2022-05-14 15:49:24</time>
      </trkpt>
      <trkpt lat="10.09185" lon="-84.16908">
        <ele>1478.4</ele>
        <time>2022-05-14 15:49:25</time>
      </trkpt>
      <trkpt lat="10.09187" lon="-84.16908">
        <ele>1478.8</ele>
        <time>2022-05-14 15:49:26</time>
      </trkpt>
      <trkpt lat="10.0919" lon="-84.16909">
        <ele>1479</ele>
        <time>2022-05-14 15:49:27</time>
      </trkpt>
      <trkpt lat="10.09192" lon="-84.16909">
        <ele>1479.4</ele>
        <time>2022-05-14 15:49:28</time>
      </trkpt>
      <trkpt lat="10.09197" lon="-84.1691">
        <ele>1479.6</ele>
        <time>2022-05-14 15:49:29</time>
      </trkpt>
      <trkpt lat="10.09197" lon="-84.1691">
        <ele>1480</ele>
        <time>2022-05-14 15:49:30</time>
      </trkpt>
      <trkpt lat="10.09199" lon="-84.16911">
        <ele>1480.2</ele>
        <time>2022-05-14 15:49:31</time>
      </trkpt>
      <trkpt lat="10.09201" lon="-84.16912">
        <ele>1480.6</ele>
        <time>2022-05-14 15:49:32</time>
      </trkpt>
      <trkpt lat="10.09204" lon="-84.16913">
        <ele>1481</ele>
        <time>2022-05-14 15:49:33</time>
      </trkpt>
      <trkpt lat="10.09206" lon="-84.16914">
        <ele>1481.2</ele>
        <time>2022-05-14 15:49:34</time>
      </trkpt>
      <trkpt lat="10.09208" lon="-84.16915">
        <ele>1481.6</ele>
        <time>2022-05-14 15:49:35</time>
      </trkpt>
      <trkpt lat="10.09211" lon="-84.16915">
        <ele>1481.8</ele>
        <time>2022-05-14 15:49:36</time>
      </trkpt>
      <trkpt lat="10.09213" lon="-84.16915">
        <ele>1482.2</ele>
        <time>2022-05-14 15:49:37</time>
      </trkpt>
      <trkpt lat="10.09215" lon="-84.16916">
        <ele>1482.6</ele>
        <time>2022-05-14 15:49:38</time>
      </trkpt>
      <trkpt lat="10.0922" lon="-84.16917">
        <ele>1482.8</ele>
        <time>2022-05-14 15:49:39</time>
      </trkpt>
      <trkpt lat="10.09222" lon="-84.16918">
        <ele>1483.2</ele>
        <time>2022-05-14 15:49:40</time>
      </trkpt>
      <trkpt lat="10.09222" lon="-84.16918">
        <ele>1483.2</ele>
        <time>2022-05-14 15:49:41</time>
      </trkpt>
      <trkpt lat="10.09225" lon="-84.16919">
        <ele>1483.4</ele>
        <time>2022-05-14 15:49:42</time>
      </trkpt>
      <trkpt lat="10.09227" lon="-84.1692">
        <ele>1483.8</ele>
        <time>2022-05-14 15:49:43</time>
      </trkpt>
      <trkpt lat="10.0923" lon="-84.1692">
        <ele>1484.2</ele>
        <time>2022-05-14 15:49:44</time>
      </trkpt>
      <trkpt lat="10.09232" lon="-84.1692">
        <ele>1484.6</ele>
        <time>2022-05-14 15:49:45</time>
      </trkpt>
      <trkpt lat="10.09235" lon="-84.1692">
        <ele>1485</ele>
        <time>2022-05-14 15:49:46</time>
      </trkpt>
      <trkpt lat="10.09237" lon="-84.1692">
        <ele>1485.4</ele>
        <time>2022-05-14 15:49:47</time>
      </trkpt>
      <trkpt lat="10.0924" lon="-84.1692">
        <ele>1485.8</ele>
        <time>2022-05-14 15:49:48</time>
      </trkpt>
      <trkpt lat="10.0924" lon="-84.1692">
        <ele>1486.2</ele>
        <time>2022-05-14 15:49:49</time>
      </trkpt>
      <trkpt lat="10.09247" lon="-84.16921">
        <ele>1486.4</ele>
        <time>2022-05-14 15:49:50</time>
      </trkpt>
      <trkpt lat="10.09247" lon="-84.16921">
        <ele>1486.8</ele>
        <time>2022-05-14 15:49:51</time>
      </trkpt>
      <trkpt lat="10.0925" lon="-84.16921">
        <ele>1487.2</ele>
        <time>2022-05-14 15:49:52</time>
      </trkpt>
      <trkpt lat="10.09252" lon="-84.16921">
        <ele>1487.8</ele>
        <time>2022-05-14 15:49:53</time>
      </trkpt>
      <trkpt lat="10.09254" lon="-84.16921">
        <ele>1488.2</ele>
        <time>2022-05-14 15:49:54</time>
      </trkpt>
      <trkpt lat="10.09257" lon="-84.16922">
        <ele>1488.4</ele>
        <time>2022-05-14 15:49:55</time>
      </trkpt>
      <trkpt lat="10.09259" lon="-84.16921">
        <ele>1488.6</ele>
        <time>2022-05-14 15:49:56</time>
      </trkpt>
      <trkpt lat="10.09261" lon="-84.16921">
        <ele>1489</ele>
        <time>2022-05-14 15:49:57</time>
      </trkpt>
      <trkpt lat="10.09263" lon="-84.16921">
        <ele>1489.2</ele>
        <time>2022-05-14 15:49:58</time>
      </trkpt>
      <trkpt lat="10.09263" lon="-84.16921">
        <ele>1489.4</ele>
        <time>2022-05-14 15:49:59</time>
      </trkpt>
      <trkpt lat="10.0927" lon="-84.16922">
        <ele>1489.6</ele>
        <time>2022-05-14 15:50:00</time>
      </trkpt>
      <trkpt lat="10.09272" lon="-84.16922">
        <ele>1490</ele>
        <time>2022-05-14 15:50:01</time>
      </trkpt>
      <trkpt lat="10.09272" lon="-84.16922">
        <ele>1490</ele>
        <time>2022-05-14 15:50:02</time>
      </trkpt>
      <trkpt lat="10.09275" lon="-84.16922">
        <ele>1490.2</ele>
        <time>2022-05-14 15:50:03</time>
      </trkpt>
      <trkpt lat="10.09277" lon="-84.16923">
        <ele>1490.4</ele>
        <time>2022-05-14 15:50:04</time>
      </trkpt>
      <trkpt lat="10.0928" lon="-84.16924">
        <ele>1490.8</ele>
        <time>2022-05-14 15:50:05</time>
      </trkpt>
      <trkpt lat="10.09282" lon="-84.16924">
        <ele>1491</ele>
        <time>2022-05-14 15:50:06</time>
      </trkpt>
      <trkpt lat="10.09284" lon="-84.16925">
        <ele>1491.4</ele>
        <time>2022-05-14 15:50:07</time>
      </trkpt>
      <trkpt lat="10.09286" lon="-84.16926">
        <ele>1491.6</ele>
        <time>2022-05-14 15:50:08</time>
      </trkpt>
      <trkpt lat="10.09289" lon="-84.16926">
        <ele>1491.8</ele>
        <time>2022-05-14 15:50:09</time>
      </trkpt>
      <trkpt lat="10.09289" lon="-84.16926">
        <ele>1492</ele>
        <time>2022-05-14 15:50:10</time>
      </trkpt>
      <trkpt lat="10.09295" lon="-84.16929">
        <ele>1492.4</ele>
        <time>2022-05-14 15:50:11</time>
      </trkpt>
      <trkpt lat="10.09295" lon="-84.16929">
        <ele>1492.6</ele>
        <time>2022-05-14 15:50:12</time>
      </trkpt>
      <trkpt lat="10.09298" lon="-84.1693">
        <ele>1492.8</ele>
        <time>2022-05-14 15:50:13</time>
      </trkpt>
      <trkpt lat="10.093" lon="-84.1693">
        <ele>1493</ele>
        <time>2022-05-14 15:50:14</time>
      </trkpt>
      <trkpt lat="10.09303" lon="-84.16931">
        <ele>1493.2</ele>
        <time>2022-05-14 15:50:15</time>
      </trkpt>
      <trkpt lat="10.09305" lon="-84.16932">
        <ele>1493.6</ele>
        <time>2022-05-14 15:50:16</time>
      </trkpt>
      <trkpt lat="10.09308" lon="-84.16933">
        <ele>1493.8</ele>
        <time>2022-05-14 15:50:17</time>
      </trkpt>
      <trkpt lat="10.09311" lon="-84.16934">
        <ele>1494</ele>
        <time>2022-05-14 15:50:18</time>
      </trkpt>
      <trkpt lat="10.09313" lon="-84.16934">
        <ele>1494.4</ele>
        <time>2022-05-14 15:50:19</time>
      </trkpt>
      <trkpt lat="10.09318" lon="-84.16936">
        <ele>1494.6</ele>
        <time>2022-05-14 15:50:20</time>
      </trkpt>
      <trkpt lat="10.09321" lon="-84.16937">
        <ele>1494.8</ele>
        <time>2022-05-14 15:50:21</time>
      </trkpt>
      <trkpt lat="10.09323" lon="-84.16937">
        <ele>1495</ele>
        <time>2022-05-14 15:50:22</time>
      </trkpt>
      <trkpt lat="10.09323" lon="-84.16937">
        <ele>1495</ele>
        <time>2022-05-14 15:50:23</time>
      </trkpt>
      <trkpt lat="10.09326" lon="-84.16938">
        <ele>1495.2</ele>
        <time>2022-05-14 15:50:24</time>
      </trkpt>
      <trkpt lat="10.09328" lon="-84.16938">
        <ele>1495.4</ele>
        <time>2022-05-14 15:50:25</time>
      </trkpt>
      <trkpt lat="10.09331" lon="-84.16939">
        <ele>1495.6</ele>
        <time>2022-05-14 15:50:26</time>
      </trkpt>
      <trkpt lat="10.09333" lon="-84.1694">
        <ele>1496</ele>
        <time>2022-05-14 15:50:27</time>
      </trkpt>
      <trkpt lat="10.09336" lon="-84.1694">
        <ele>1496.2</ele>
        <time>2022-05-14 15:50:28</time>
      </trkpt>
      <trkpt lat="10.09339" lon="-84.16941">
        <ele>1496.4</ele>
        <time>2022-05-14 15:50:29</time>
      </trkpt>
      <trkpt lat="10.09341" lon="-84.16942">
        <ele>1496.6</ele>
        <time>2022-05-14 15:50:30</time>
      </trkpt>
      <trkpt lat="10.09347" lon="-84.16944">
        <ele>1497</ele>
        <time>2022-05-14 15:50:31</time>
      </trkpt>
      <trkpt lat="10.09349" lon="-84.16944">
        <ele>1497.2</ele>
        <time>2022-05-14 15:50:32</time>
      </trkpt>
      <trkpt lat="10.09349" lon="-84.16944">
        <ele>1497.4</ele>
        <time>2022-05-14 15:50:33</time>
      </trkpt>
      <trkpt lat="10.09352" lon="-84.16944">
        <ele>1497.6</ele>
        <time>2022-05-14 15:50:34</time>
      </trkpt>
      <trkpt lat="10.09355" lon="-84.16945">
        <ele>1497.8</ele>
        <time>2022-05-14 15:50:35</time>
      </trkpt>
      <trkpt lat="10.09357" lon="-84.16945">
        <ele>1498.2</ele>
        <time>2022-05-14 15:50:36</time>
      </trkpt>
      <trkpt lat="10.0936" lon="-84.16946">
        <ele>1498.4</ele>
        <time>2022-05-14 15:50:37</time>
      </trkpt>
      <trkpt lat="10.09363" lon="-84.16946">
        <ele>1498.6</ele>
        <time>2022-05-14 15:50:38</time>
      </trkpt>
      <trkpt lat="10.09365" lon="-84.16947">
        <ele>1499</ele>
        <time>2022-05-14 15:50:39</time>
      </trkpt>
      <trkpt lat="10.09365" lon="-84.16947">
        <ele>1499.2</ele>
        <time>2022-05-14 15:50:40</time>
      </trkpt>
      <trkpt lat="10.09373" lon="-84.16949">
        <ele>1499.4</ele>
        <time>2022-05-14 15:50:41</time>
      </trkpt>
      <trkpt lat="10.09375" lon="-84.16949">
        <ele>1499.6</ele>
        <time>2022-05-14 15:50:42</time>
      </trkpt>
      <trkpt lat="10.09377" lon="-84.1695">
        <ele>1500</ele>
        <time>2022-05-14 15:50:43</time>
      </trkpt>
      <trkpt lat="10.09377" lon="-84.1695">
        <ele>1500</ele>
        <time>2022-05-14 15:50:44</time>
      </trkpt>
      <trkpt lat="10.0938" lon="-84.1695">
        <ele>1500.4</ele>
        <time>2022-05-14 15:50:45</time>
      </trkpt>
      <trkpt lat="10.09382" lon="-84.16951">
        <ele>1500.6</ele>
        <time>2022-05-14 15:50:46</time>
      </trkpt>
      <trkpt lat="10.09385" lon="-84.16952">
        <ele>1500.8</ele>
        <time>2022-05-14 15:50:47</time>
      </trkpt>
      <trkpt lat="10.09387" lon="-84.16953">
        <ele>1501</ele>
        <time>2022-05-14 15:50:48</time>
      </trkpt>
      <trkpt lat="10.09389" lon="-84.16953">
        <ele>1501.2</ele>
        <time>2022-05-14 15:50:49</time>
      </trkpt>
      <trkpt lat="10.09392" lon="-84.16953">
        <ele>1501.4</ele>
        <time>2022-05-14 15:50:50</time>
      </trkpt>
      <trkpt lat="10.09392" lon="-84.16953">
        <ele>1501.6</ele>
        <time>2022-05-14 15:50:51</time>
      </trkpt>
      <trkpt lat="10.094" lon="-84.16954">
        <ele>1501.8</ele>
        <time>2022-05-14 15:50:52</time>
      </trkpt>
      <trkpt lat="10.09402" lon="-84.16954">
        <ele>1502.2</ele>
        <time>2022-05-14 15:50:53</time>
      </trkpt>
      <trkpt lat="10.09402" lon="-84.16954">
        <ele>1502.4</ele>
        <time>2022-05-14 15:50:54</time>
      </trkpt>
      <trkpt lat="10.09405" lon="-84.16954">
        <ele>1502.4</ele>
        <time>2022-05-14 15:50:55</time>
      </trkpt>
      <trkpt lat="10.09408" lon="-84.16953">
        <ele>1502.6</ele>
        <time>2022-05-14 15:50:56</time>
      </trkpt>
      <trkpt lat="10.09411" lon="-84.16953">
        <ele>1502.8</ele>
        <time>2022-05-14 15:50:57</time>
      </trkpt>
      <trkpt lat="10.09414" lon="-84.16952">
        <ele>1503</ele>
        <time>2022-05-14 15:50:58</time>
      </trkpt>
      <trkpt lat="10.09416" lon="-84.16951">
        <ele>1503.2</ele>
        <time>2022-05-14 15:50:59</time>
      </trkpt>
      <trkpt lat="10.09419" lon="-84.16949">
        <ele>1503.4</ele>
        <time>2022-05-14 15:51:00</time>
      </trkpt>
      <trkpt lat="10.09423" lon="-84.16946">
        <ele>1503.6</ele>
        <time>2022-05-14 15:51:01</time>
      </trkpt>
      <trkpt lat="10.09425" lon="-84.16944">
        <ele>1503.8</ele>
        <time>2022-05-14 15:51:02</time>
      </trkpt>
      <trkpt lat="10.09427" lon="-84.16942">
        <ele>1504</ele>
        <time>2022-05-14 15:51:03</time>
      </trkpt>
      <trkpt lat="10.09429" lon="-84.1694">
        <ele>1504.2</ele>
        <time>2022-05-14 15:51:04</time>
      </trkpt>
      <trkpt lat="10.09429" lon="-84.1694">
        <ele>1504.2</ele>
        <time>2022-05-14 15:51:05</time>
      </trkpt>
      <trkpt lat="10.09431" lon="-84.16939">
        <ele>1504.6</ele>
        <time>2022-05-14 15:51:06</time>
      </trkpt>
      <trkpt lat="10.09433" lon="-84.16937">
        <ele>1504.8</ele>
        <time>2022-05-14 15:51:07</time>
      </trkpt>
      <trkpt lat="10.09435" lon="-84.16934">
        <ele>1505.2</ele>
        <time>2022-05-14 15:51:08</time>
      </trkpt>
      <trkpt lat="10.09436" lon="-84.16932">
        <ele>1505.4</ele>
        <time>2022-05-14 15:51:09</time>
      </trkpt>
      <trkpt lat="10.09438" lon="-84.1693">
        <ele>1505.8</ele>
        <time>2022-05-14 15:51:10</time>
      </trkpt>
      <trkpt lat="10.0944" lon="-84.16927">
        <ele>1506.2</ele>
        <time>2022-05-14 15:51:11</time>
      </trkpt>
      <trkpt lat="10.09443" lon="-84.16923">
        <ele>1506.4</ele>
        <time>2022-05-14 15:51:12</time>
      </trkpt>
      <trkpt lat="10.09444" lon="-84.16921">
        <ele>1506.6</ele>
        <time>2022-05-14 15:51:13</time>
      </trkpt>
      <trkpt lat="10.09445" lon="-84.16919">
        <ele>1507</ele>
        <time>2022-05-14 15:51:14</time>
      </trkpt>
      <trkpt lat="10.09445" lon="-84.16919">
        <ele>1507.2</ele>
        <time>2022-05-14 15:51:15</time>
      </trkpt>
      <trkpt lat="10.09447" lon="-84.16916">
        <ele>1507.6</ele>
        <time>2022-05-14 15:51:16</time>
      </trkpt>
      <trkpt lat="10.09449" lon="-84.16915">
        <ele>1508</ele>
        <time>2022-05-14 15:51:17</time>
      </trkpt>
      <trkpt lat="10.0945" lon="-84.16912">
        <ele>1508.4</ele>
        <time>2022-05-14 15:51:18</time>
      </trkpt>
      <trkpt lat="10.09452" lon="-84.1691">
        <ele>1508.6</ele>
        <time>2022-05-14 15:51:19</time>
      </trkpt>
      <trkpt lat="10.09453" lon="-84.16908">
        <ele>1509</ele>
        <time>2022-05-14 15:51:20</time>
      </trkpt>
      <trkpt lat="10.09454" lon="-84.16905">
        <ele>1509.2</ele>
        <time>2022-05-14 15:51:21</time>
      </trkpt>
      <trkpt lat="10.09457" lon="-84.16901">
        <ele>1509.6</ele>
        <time>2022-05-14 15:51:22</time>
      </trkpt>
      <trkpt lat="10.09459" lon="-84.16898">
        <ele>1509.8</ele>
        <time>2022-05-14 15:51:23</time>
      </trkpt>
      <trkpt lat="10.09461" lon="-84.16896">
        <ele>1510.2</ele>
        <time>2022-05-14 15:51:24</time>
      </trkpt>
      <trkpt lat="10.09463" lon="-84.16895">
        <ele>1510.4</ele>
        <time>2022-05-14 15:51:25</time>
      </trkpt>
      <trkpt lat="10.09463" lon="-84.16895">
        <ele>1510.4</ele>
        <time>2022-05-14 15:51:26</time>
      </trkpt>
      <trkpt lat="10.09464" lon="-84.16892">
        <ele>1510.8</ele>
        <time>2022-05-14 15:51:27</time>
      </trkpt>
      <trkpt lat="10.09466" lon="-84.1689">
        <ele>1511</ele>
        <time>2022-05-14 15:51:28</time>
      </trkpt>
      <trkpt lat="10.09467" lon="-84.16887">
        <ele>1511.4</ele>
        <time>2022-05-14 15:51:29</time>
      </trkpt>
      <trkpt lat="10.09469" lon="-84.16884">
        <ele>1511.6</ele>
        <time>2022-05-14 15:51:30</time>
      </trkpt>
      <trkpt lat="10.0947" lon="-84.16881">
        <ele>1512</ele>
        <time>2022-05-14 15:51:31</time>
      </trkpt>
      <trkpt lat="10.09472" lon="-84.16879">
        <ele>1512.2</ele>
        <time>2022-05-14 15:51:32</time>
      </trkpt>
      <trkpt lat="10.09476" lon="-84.16875">
        <ele>1512.6</ele>
        <time>2022-05-14 15:51:33</time>
      </trkpt>
      <trkpt lat="10.09478" lon="-84.16872">
        <ele>1512.8</ele>
        <time>2022-05-14 15:51:34</time>
      </trkpt>
      <trkpt lat="10.0948" lon="-84.1687">
        <ele>1513.2</ele>
        <time>2022-05-14 15:51:35</time>
      </trkpt>
      <trkpt lat="10.0948" lon="-84.1687">
        <ele>1513.4</ele>
        <time>2022-05-14 15:51:36</time>
      </trkpt>
      <trkpt lat="10.09482" lon="-84.16868">
        <ele>1513.6</ele>
        <time>2022-05-14 15:51:37</time>
      </trkpt>
      <trkpt lat="10.09484" lon="-84.16866">
        <ele>1514</ele>
        <time>2022-05-14 15:51:38</time>
      </trkpt>
      <trkpt lat="10.09486" lon="-84.16864">
        <ele>1514.4</ele>
        <time>2022-05-14 15:51:39</time>
      </trkpt>
      <trkpt lat="10.09488" lon="-84.16861">
        <ele>1514.6</ele>
        <time>2022-05-14 15:51:40</time>
      </trkpt>
      <trkpt lat="10.09491" lon="-84.1686">
        <ele>1514.8</ele>
        <time>2022-05-14 15:51:41</time>
      </trkpt>
      <trkpt lat="10.09491" lon="-84.1686">
        <ele>1515.2</ele>
        <time>2022-05-14 15:51:42</time>
      </trkpt>
      <trkpt lat="10.09499" lon="-84.16855">
        <ele>1515.4</ele>
        <time>2022-05-14 15:51:43</time>
      </trkpt>
      <trkpt lat="10.09502" lon="-84.16853">
        <ele>1515.6</ele>
        <time>2022-05-14 15:51:44</time>
      </trkpt>
      <trkpt lat="10.09504" lon="-84.16851">
        <ele>1516</ele>
        <time>2022-05-14 15:51:45</time>
      </trkpt>
      <trkpt lat="10.09506" lon="-84.1685">
        <ele>1516.4</ele>
        <time>2022-05-14 15:51:46</time>
      </trkpt>
      <trkpt lat="10.09506" lon="-84.1685">
        <ele>1516.4</ele>
        <time>2022-05-14 15:51:47</time>
      </trkpt>
      <trkpt lat="10.09509" lon="-84.16847">
        <ele>1516.8</ele>
        <time>2022-05-14 15:51:48</time>
      </trkpt>
      <trkpt lat="10.09511" lon="-84.16846">
        <ele>1517</ele>
        <time>2022-05-14 15:51:49</time>
      </trkpt>
      <trkpt lat="10.09514" lon="-84.16844">
        <ele>1517.4</ele>
        <time>2022-05-14 15:51:50</time>
      </trkpt>
      <trkpt lat="10.09516" lon="-84.16842">
        <ele>1517.6</ele>
        <time>2022-05-14 15:51:51</time>
      </trkpt>
      <trkpt lat="10.09519" lon="-84.16841">
        <ele>1517.8</ele>
        <time>2022-05-14 15:51:52</time>
      </trkpt>
      <trkpt lat="10.09519" lon="-84.16841">
        <ele>1518</ele>
        <time>2022-05-14 15:51:53</time>
      </trkpt>
      <trkpt lat="10.09527" lon="-84.16834">
        <ele>1518.4</ele>
        <time>2022-05-14 15:51:54</time>
      </trkpt>
      <trkpt lat="10.0953" lon="-84.16832">
        <ele>1518.8</ele>
        <time>2022-05-14 15:51:55</time>
      </trkpt>
      <trkpt lat="10.09533" lon="-84.1683">
        <ele>1519</ele>
        <time>2022-05-14 15:51:56</time>
      </trkpt>
      <trkpt lat="10.09533" lon="-84.1683">
        <ele>1519.4</ele>
        <time>2022-05-14 15:51:57</time>
      </trkpt>
      <trkpt lat="10.09536" lon="-84.16828">
        <ele>1519.6</ele>
        <time>2022-05-14 15:51:58</time>
      </trkpt>
      <trkpt lat="10.09539" lon="-84.16826">
        <ele>1519.8</ele>
        <time>2022-05-14 15:51:59</time>
      </trkpt>
      <trkpt lat="10.09541" lon="-84.16824">
        <ele>1520</ele>
        <time>2022-05-14 15:52:00</time>
      </trkpt>
      <trkpt lat="10.09544" lon="-84.16823">
        <ele>1520.4</ele>
        <time>2022-05-14 15:52:01</time>
      </trkpt>
      <trkpt lat="10.09547" lon="-84.16821">
        <ele>1520.6</ele>
        <time>2022-05-14 15:52:02</time>
      </trkpt>
      <trkpt lat="10.09552" lon="-84.16817">
        <ele>1520.8</ele>
        <time>2022-05-14 15:52:03</time>
      </trkpt>
      <trkpt lat="10.09555" lon="-84.16815">
        <ele>1521</ele>
        <time>2022-05-14 15:52:04</time>
      </trkpt>
      <trkpt lat="10.09558" lon="-84.16813">
        <ele>1521.2</ele>
        <time>2022-05-14 15:52:05</time>
      </trkpt>
      <trkpt lat="10.0956" lon="-84.16812">
        <ele>1521.2</ele>
        <time>2022-05-14 15:52:06</time>
      </trkpt>
      <trkpt lat="10.09563" lon="-84.16808">
        <ele>1521.4</ele>
        <time>2022-05-14 15:52:07</time>
      </trkpt>
      <trkpt lat="10.09563" lon="-84.16808">
        <ele>1521.4</ele>
        <time>2022-05-14 15:52:08</time>
      </trkpt>
      <trkpt lat="10.09566" lon="-84.16806">
        <ele>1521.4</ele>
        <time>2022-05-14 15:52:09</time>
      </trkpt>
      <trkpt lat="10.09569" lon="-84.16804">
        <ele>1521.4</ele>
        <time>2022-05-14 15:52:10</time>
      </trkpt>
      <trkpt lat="10.09571" lon="-84.16801">
        <ele>1521.4</ele>
        <time>2022-05-14 15:52:11</time>
      </trkpt>
      <trkpt lat="10.09574" lon="-84.16798">
        <ele>1521.4</ele>
        <time>2022-05-14 15:52:12</time>
      </trkpt>
      <trkpt lat="10.09577" lon="-84.16796">
        <ele>1521.6</ele>
        <time>2022-05-14 15:52:13</time>
      </trkpt>
      <trkpt lat="10.09584" lon="-84.1679">
        <ele>1521.6</ele>
        <time>2022-05-14 15:52:14</time>
      </trkpt>
      <trkpt lat="10.09587" lon="-84.16787">
        <ele>1521.6</ele>
        <time>2022-05-14 15:52:15</time>
      </trkpt>
      <trkpt lat="10.0959" lon="-84.16784">
        <ele>1521.4</ele>
        <time>2022-05-14 15:52:16</time>
      </trkpt>
      <trkpt lat="10.09593" lon="-84.16781">
        <ele>1521.4</ele>
        <time>2022-05-14 15:52:17</time>
      </trkpt>
      <trkpt lat="10.09593" lon="-84.16781">
        <ele>1521.4</ele>
        <time>2022-05-14 15:52:18</time>
      </trkpt>
      <trkpt lat="10.09596" lon="-84.16778">
        <ele>1521.4</ele>
        <time>2022-05-14 15:52:19</time>
      </trkpt>
      <trkpt lat="10.09599" lon="-84.16774">
        <ele>1521.4</ele>
        <time>2022-05-14 15:52:20</time>
      </trkpt>
      <trkpt lat="10.09603" lon="-84.16771">
        <ele>1521.4</ele>
        <time>2022-05-14 15:52:21</time>
      </trkpt>
      <trkpt lat="10.09606" lon="-84.16767">
        <ele>1521.4</ele>
        <time>2022-05-14 15:52:22</time>
      </trkpt>
      <trkpt lat="10.09606" lon="-84.16767">
        <ele>1521.4</ele>
        <time>2022-05-14 15:52:23</time>
      </trkpt>
      <trkpt lat="10.09618" lon="-84.16755">
        <ele>1521.4</ele>
        <time>2022-05-14 15:52:24</time>
      </trkpt>
      <trkpt lat="10.09621" lon="-84.16752">
        <ele>1521.6</ele>
        <time>2022-05-14 15:52:25</time>
      </trkpt>
      <trkpt lat="10.09625" lon="-84.16748">
        <ele>1521.6</ele>
        <time>2022-05-14 15:52:26</time>
      </trkpt>
      <trkpt lat="10.09629" lon="-84.16744">
        <ele>1521.6</ele>
        <time>2022-05-14 15:52:27</time>
      </trkpt>
      <trkpt lat="10.09633" lon="-84.1674">
        <ele>1521.6</ele>
        <time>2022-05-14 15:52:28</time>
      </trkpt>
      <trkpt lat="10.09633" lon="-84.1674">
        <ele>1521.6</ele>
        <time>2022-05-14 15:52:29</time>
      </trkpt>
      <trkpt lat="10.09637" lon="-84.16736">
        <ele>1521.6</ele>
        <time>2022-05-14 15:52:30</time>
      </trkpt>
      <trkpt lat="10.0964" lon="-84.16732">
        <ele>1521.6</ele>
        <time>2022-05-14 15:52:31</time>
      </trkpt>
      <trkpt lat="10.09644" lon="-84.16728">
        <ele>1521.6</ele>
        <time>2022-05-14 15:52:32</time>
      </trkpt>
      <trkpt lat="10.09648" lon="-84.16724">
        <ele>1521.6</ele>
        <time>2022-05-14 15:52:33</time>
      </trkpt>
      <trkpt lat="10.09648" lon="-84.16724">
        <ele>1521.6</ele>
        <time>2022-05-14 15:52:34</time>
      </trkpt>
      <trkpt lat="10.09661" lon="-84.16713">
        <ele>1521.6</ele>
        <time>2022-05-14 15:52:35</time>
      </trkpt>
      <trkpt lat="10.09665" lon="-84.16709">
        <ele>1521.6</ele>
        <time>2022-05-14 15:52:36</time>
      </trkpt>
      <trkpt lat="10.0967" lon="-84.16706">
        <ele>1521.4</ele>
        <time>2022-05-14 15:52:37</time>
      </trkpt>
      <trkpt lat="10.09675" lon="-84.16704">
        <ele>1521.4</ele>
        <time>2022-05-14 15:52:38</time>
      </trkpt>
      <trkpt lat="10.09675" lon="-84.16704">
        <ele>1521.4</ele>
        <time>2022-05-14 15:52:39</time>
      </trkpt>
      <trkpt lat="10.0968" lon="-84.16701">
        <ele>1521.6</ele>
        <time>2022-05-14 15:52:40</time>
      </trkpt>
      <trkpt lat="10.09685" lon="-84.16698">
        <ele>1521.6</ele>
        <time>2022-05-14 15:52:41</time>
      </trkpt>
      <trkpt lat="10.0969" lon="-84.16697">
        <ele>1521.8</ele>
        <time>2022-05-14 15:52:42</time>
      </trkpt>
      <trkpt lat="10.09696" lon="-84.16695">
        <ele>1521.6</ele>
        <time>2022-05-14 15:52:43</time>
      </trkpt>
      <trkpt lat="10.09696" lon="-84.16695">
        <ele>1521.8</ele>
        <time>2022-05-14 15:52:44</time>
      </trkpt>
      <trkpt lat="10.09712" lon="-84.1669">
        <ele>1521.8</ele>
        <time>2022-05-14 15:52:45</time>
      </trkpt>
      <trkpt lat="10.09718" lon="-84.16689">
        <ele>1521.8</ele>
        <time>2022-05-14 15:52:46</time>
      </trkpt>
      <trkpt lat="10.09723" lon="-84.16686">
        <ele>1521.8</ele>
        <time>2022-05-14 15:52:47</time>
      </trkpt>
      <trkpt lat="10.09729" lon="-84.16684">
        <ele>1522</ele>
        <time>2022-05-14 15:52:48</time>
      </trkpt>
      <trkpt lat="10.09734" lon="-84.16682">
        <ele>1522.2</ele>
        <time>2022-05-14 15:52:49</time>
      </trkpt>
      <trkpt lat="10.09734" lon="-84.16682">
        <ele>1522.2</ele>
        <time>2022-05-14 15:52:50</time>
      </trkpt>
      <trkpt lat="10.09739" lon="-84.1668">
        <ele>1522.4</ele>
        <time>2022-05-14 15:52:51</time>
      </trkpt>
      <trkpt lat="10.09744" lon="-84.16677">
        <ele>1522.4</ele>
        <time>2022-05-14 15:52:52</time>
      </trkpt>
      <trkpt lat="10.0975" lon="-84.16674">
        <ele>1522.6</ele>
        <time>2022-05-14 15:52:53</time>
      </trkpt>
      <trkpt lat="10.09755" lon="-84.16672">
        <ele>1522.6</ele>
        <time>2022-05-14 15:52:54</time>
      </trkpt>
      <trkpt lat="10.09766" lon="-84.16669">
        <ele>1522.8</ele>
        <time>2022-05-14 15:52:55</time>
      </trkpt>
      <trkpt lat="10.09771" lon="-84.16666">
        <ele>1523</ele>
        <time>2022-05-14 15:52:56</time>
      </trkpt>
      <trkpt lat="10.09777" lon="-84.16666">
        <ele>1523</ele>
        <time>2022-05-14 15:52:57</time>
      </trkpt>
      <trkpt lat="10.09782" lon="-84.16664">
        <ele>1523.2</ele>
        <time>2022-05-14 15:52:58</time>
      </trkpt>
      <trkpt lat="10.09788" lon="-84.16664">
        <ele>1523.2</ele>
        <time>2022-05-14 15:52:59</time>
      </trkpt>
      <trkpt lat="10.09788" lon="-84.16664">
        <ele>1523.4</ele>
        <time>2022-05-14 15:53:00</time>
      </trkpt>
      <trkpt lat="10.09793" lon="-84.16662">
        <ele>1523.6</ele>
        <time>2022-05-14 15:53:01</time>
      </trkpt>
      <trkpt lat="10.09799" lon="-84.16661">
        <ele>1523.8</ele>
        <time>2022-05-14 15:53:02</time>
      </trkpt>
      <trkpt lat="10.09804" lon="-84.1666">
        <ele>1524</ele>
        <time>2022-05-14 15:53:03</time>
      </trkpt>
      <trkpt lat="10.09809" lon="-84.16657">
        <ele>1524</ele>
        <time>2022-05-14 15:53:04</time>
      </trkpt>
      <trkpt lat="10.09819" lon="-84.16652">
        <ele>1524.2</ele>
        <time>2022-05-14 15:53:05</time>
      </trkpt>
      <trkpt lat="10.09824" lon="-84.16649">
        <ele>1524.4</ele>
        <time>2022-05-14 15:53:06</time>
      </trkpt>
      <trkpt lat="10.09829" lon="-84.16646">
        <ele>1524.4</ele>
        <time>2022-05-14 15:53:07</time>
      </trkpt>
      <trkpt lat="10.09834" lon="-84.16642">
        <ele>1524.4</ele>
        <time>2022-05-14 15:53:08</time>
      </trkpt>
      <trkpt lat="10.09838" lon="-84.16639">
        <ele>1524.4</ele>
        <time>2022-05-14 15:53:09</time>
      </trkpt>
      <trkpt lat="10.09843" lon="-84.16635">
        <ele>1524.6</ele>
        <time>2022-05-14 15:53:10</time>
      </trkpt>
      <trkpt lat="10.09843" lon="-84.16635">
        <ele>1524.6</ele>
        <time>2022-05-14 15:53:11</time>
      </trkpt>
      <trkpt lat="10.09846" lon="-84.16631">
        <ele>1524.8</ele>
        <time>2022-05-14 15:53:12</time>
      </trkpt>
      <trkpt lat="10.09851" lon="-84.16627">
        <ele>1525</ele>
        <time>2022-05-14 15:53:13</time>
      </trkpt>
      <trkpt lat="10.09855" lon="-84.16623">
        <ele>1525</ele>
        <time>2022-05-14 15:53:14</time>
      </trkpt>
      <trkpt lat="10.09855" lon="-84.16623">
        <ele>1525.2</ele>
        <time>2022-05-14 15:53:15</time>
      </trkpt>
      <trkpt lat="10.09867" lon="-84.1661">
        <ele>1525.2</ele>
        <time>2022-05-14 15:53:16</time>
      </trkpt>
      <trkpt lat="10.09871" lon="-84.16606">
        <ele>1525.4</ele>
        <time>2022-05-14 15:53:17</time>
      </trkpt>
      <trkpt lat="10.09875" lon="-84.16602">
        <ele>1525.4</ele>
        <time>2022-05-14 15:53:18</time>
      </trkpt>
      <trkpt lat="10.09879" lon="-84.16599">
        <ele>1525.4</ele>
        <time>2022-05-14 15:53:19</time>
      </trkpt>
      <trkpt lat="10.09882" lon="-84.16595">
        <ele>1525.6</ele>
        <time>2022-05-14 15:53:20</time>
      </trkpt>
      <trkpt lat="10.09882" lon="-84.16595">
        <ele>1526</ele>
        <time>2022-05-14 15:53:21</time>
      </trkpt>
      <trkpt lat="10.09886" lon="-84.16592">
        <ele>1526.2</ele>
        <time>2022-05-14 15:53:22</time>
      </trkpt>
      <trkpt lat="10.0989" lon="-84.16589">
        <ele>1526.2</ele>
        <time>2022-05-14 15:53:23</time>
      </trkpt>
      <trkpt lat="10.09894" lon="-84.16586">
        <ele>1526.4</ele>
        <time>2022-05-14 15:53:24</time>
      </trkpt>
      <trkpt lat="10.09894" lon="-84.16586">
        <ele>1526.4</ele>
        <time>2022-05-14 15:53:25</time>
      </trkpt>
      <trkpt lat="10.09911" lon="-84.16586">
        <ele>1526.4</ele>
        <time>2022-05-14 15:53:26</time>
      </trkpt>
      <trkpt lat="10.09917" lon="-84.16587">
        <ele>1526.6</ele>
        <time>2022-05-14 15:53:27</time>
      </trkpt>
      <trkpt lat="10.09921" lon="-84.1659">
        <ele>1526.6</ele>
        <time>2022-05-14 15:53:28</time>
      </trkpt>
      <trkpt lat="10.09926" lon="-84.16592">
        <ele>1526.8</ele>
        <time>2022-05-14 15:53:29</time>
      </trkpt>
      <trkpt lat="10.09931" lon="-84.16595">
        <ele>1526.8</ele>
        <time>2022-05-14 15:53:30</time>
      </trkpt>
      <trkpt lat="10.09937" lon="-84.16597">
        <ele>1526.6</ele>
        <time>2022-05-14 15:53:31</time>
      </trkpt>
      <trkpt lat="10.09937" lon="-84.16597">
        <ele>1526.6</ele>
        <time>2022-05-14 15:53:32</time>
      </trkpt>
      <trkpt lat="10.09942" lon="-84.16599">
        <ele>1526.8</ele>
        <time>2022-05-14 15:53:33</time>
      </trkpt>
      <trkpt lat="10.09948" lon="-84.166">
        <ele>1527</ele>
        <time>2022-05-14 15:53:34</time>
      </trkpt>
      <trkpt lat="10.09953" lon="-84.166">
        <ele>1527</ele>
        <time>2022-05-14 15:53:35</time>
      </trkpt>
      <trkpt lat="10.09953" lon="-84.166">
        <ele>1527.2</ele>
        <time>2022-05-14 15:53:36</time>
      </trkpt>
      <trkpt lat="10.0997" lon="-84.16599">
        <ele>1527.4</ele>
        <time>2022-05-14 15:53:37</time>
      </trkpt>
      <trkpt lat="10.09975" lon="-84.16599">
        <ele>1527.6</ele>
        <time>2022-05-14 15:53:38</time>
      </trkpt>
      <trkpt lat="10.09981" lon="-84.16598">
        <ele>1527.6</ele>
        <time>2022-05-14 15:53:39</time>
      </trkpt>
      <trkpt lat="10.09987" lon="-84.16597">
        <ele>1527.4</ele>
        <time>2022-05-14 15:53:40</time>
      </trkpt>
      <trkpt lat="10.09993" lon="-84.16597">
        <ele>1527.2</ele>
        <time>2022-05-14 15:53:41</time>
      </trkpt>
      <trkpt lat="10.09993" lon="-84.16597">
        <ele>1527</ele>
        <time>2022-05-14 15:53:42</time>
      </trkpt>
      <trkpt lat="10.09999" lon="-84.16596">
        <ele>1526.8</ele>
        <time>2022-05-14 15:53:43</time>
      </trkpt>
      <trkpt lat="10.10006" lon="-84.16595">
        <ele>1526.6</ele>
        <time>2022-05-14 15:53:44</time>
      </trkpt>
      <trkpt lat="10.10012" lon="-84.16595">
        <ele>1526.4</ele>
        <time>2022-05-14 15:53:45</time>
      </trkpt>
      <trkpt lat="10.10026" lon="-84.16594">
        <ele>1526.2</ele>
        <time>2022-05-14 15:53:46</time>
      </trkpt>
      <trkpt lat="10.10033" lon="-84.16594">
        <ele>1525.8</ele>
        <time>2022-05-14 15:53:47</time>
      </trkpt>
      <trkpt lat="10.1004" lon="-84.16594">
        <ele>1525.4</ele>
        <time>2022-05-14 15:53:48</time>
      </trkpt>
      <trkpt lat="10.10047" lon="-84.16595">
        <ele>1525</ele>
        <time>2022-05-14 15:53:49</time>
      </trkpt>
      <trkpt lat="10.10054" lon="-84.16597">
        <ele>1524.6</ele>
        <time>2022-05-14 15:53:50</time>
      </trkpt>
      <trkpt lat="10.10062" lon="-84.16599">
        <ele>1524.2</ele>
        <time>2022-05-14 15:53:51</time>
      </trkpt>
      <trkpt lat="10.1007" lon="-84.16601">
        <ele>1524</ele>
        <time>2022-05-14 15:53:52</time>
      </trkpt>
      <trkpt lat="10.1007" lon="-84.16601">
        <ele>1524</ele>
        <time>2022-05-14 15:53:53</time>
      </trkpt>
      <trkpt lat="10.10078" lon="-84.16603">
        <ele>1523.8</ele>
        <time>2022-05-14 15:53:54</time>
      </trkpt>
      <trkpt lat="10.10086" lon="-84.16605">
        <ele>1523.6</ele>
        <time>2022-05-14 15:53:55</time>
      </trkpt>
      <trkpt lat="10.10094" lon="-84.16606">
        <ele>1523.4</ele>
        <time>2022-05-14 15:53:56</time>
      </trkpt>
      <trkpt lat="10.1011" lon="-84.16607">
        <ele>1523</ele>
        <time>2022-05-14 15:53:57</time>
      </trkpt>
      <trkpt lat="10.10118" lon="-84.16606">
        <ele>1522.8</ele>
        <time>2022-05-14 15:53:58</time>
      </trkpt>
      <trkpt lat="10.10126" lon="-84.16604">
        <ele>1522.8</ele>
        <time>2022-05-14 15:53:59</time>
      </trkpt>
      <trkpt lat="10.10133" lon="-84.16601">
        <ele>1522.8</ele>
        <time>2022-05-14 15:54:00</time>
      </trkpt>
      <trkpt lat="10.1014" lon="-84.16598">
        <ele>1523</ele>
        <time>2022-05-14 15:54:01</time>
      </trkpt>
      <trkpt lat="10.10147" lon="-84.16595">
        <ele>1523</ele>
        <time>2022-05-14 15:54:02</time>
      </trkpt>
      <trkpt lat="10.10147" lon="-84.16595">
        <ele>1523</ele>
        <time>2022-05-14 15:54:03</time>
      </trkpt>
      <trkpt lat="10.10153" lon="-84.16591">
        <ele>1523.2</ele>
        <time>2022-05-14 15:54:04</time>
      </trkpt>
      <trkpt lat="10.10159" lon="-84.16588">
        <ele>1523.4</ele>
        <time>2022-05-14 15:54:05</time>
      </trkpt>
      <trkpt lat="10.10159" lon="-84.16588">
        <ele>1523.8</ele>
        <time>2022-05-14 15:54:06</time>
      </trkpt>
      <trkpt lat="10.10175" lon="-84.16578">
        <ele>1524.2</ele>
        <time>2022-05-14 15:54:07</time>
      </trkpt>
      <trkpt lat="10.1018" lon="-84.16575">
        <ele>1524.6</ele>
        <time>2022-05-14 15:54:08</time>
      </trkpt>
      <trkpt lat="10.10184" lon="-84.16572">
        <ele>1525</ele>
        <time>2022-05-14 15:54:09</time>
      </trkpt>
      <trkpt lat="10.10188" lon="-84.1657">
        <ele>1525.4</ele>
        <time>2022-05-14 15:54:10</time>
      </trkpt>
      <trkpt lat="10.10192" lon="-84.16567">
        <ele>1525.8</ele>
        <time>2022-05-14 15:54:11</time>
      </trkpt>
      <trkpt lat="10.10195" lon="-84.16565">
        <ele>1526.2</ele>
        <time>2022-05-14 15:54:12</time>
      </trkpt>
      <trkpt lat="10.10199" lon="-84.16563">
        <ele>1526.4</ele>
        <time>2022-05-14 15:54:13</time>
      </trkpt>
      <trkpt lat="10.10199" lon="-84.16563">
        <ele>1526.4</ele>
        <time>2022-05-14 15:54:14</time>
      </trkpt>
      <trkpt lat="10.10202" lon="-84.16561">
        <ele>1526.8</ele>
        <time>2022-05-14 15:54:15</time>
      </trkpt>
      <trkpt lat="10.10205" lon="-84.16559">
        <ele>1527.2</ele>
        <time>2022-05-14 15:54:16</time>
      </trkpt>
      <trkpt lat="10.10205" lon="-84.16559">
        <ele>1527.8</ele>
        <time>2022-05-14 15:54:17</time>
      </trkpt>
      <trkpt lat="10.10213" lon="-84.16552">
        <ele>1528</ele>
        <time>2022-05-14 15:54:18</time>
      </trkpt>
      <trkpt lat="10.10216" lon="-84.1655">
        <ele>1528.4</ele>
        <time>2022-05-14 15:54:19</time>
      </trkpt>
      <trkpt lat="10.10219" lon="-84.16548">
        <ele>1528.6</ele>
        <time>2022-05-14 15:54:20</time>
      </trkpt>
      <trkpt lat="10.10222" lon="-84.16547">
        <ele>1529</ele>
        <time>2022-05-14 15:54:21</time>
      </trkpt>
      <trkpt lat="10.10225" lon="-84.16545">
        <ele>1529.4</ele>
        <time>2022-05-14 15:54:22</time>
      </trkpt>
      <trkpt lat="10.10227" lon="-84.16543">
        <ele>1529.8</ele>
        <time>2022-05-14 15:54:23</time>
      </trkpt>
      <trkpt lat="10.10227" lon="-84.16543">
        <ele>1530.2</ele>
        <time>2022-05-14 15:54:24</time>
      </trkpt>
      <trkpt lat="10.1023" lon="-84.16542">
        <ele>1530.4</ele>
        <time>2022-05-14 15:54:25</time>
      </trkpt>
      <trkpt lat="10.10233" lon="-84.16541">
        <ele>1530.6</ele>
        <time>2022-05-14 15:54:26</time>
      </trkpt>
      <trkpt lat="10.10238" lon="-84.16536">
        <ele>1531</ele>
        <time>2022-05-14 15:54:27</time>
      </trkpt>
      <trkpt lat="10.1024" lon="-84.16534">
        <ele>1531.4</ele>
        <time>2022-05-14 15:54:28</time>
      </trkpt>
      <trkpt lat="10.10242" lon="-84.16532">
        <ele>1531.8</ele>
        <time>2022-05-14 15:54:29</time>
      </trkpt>
      <trkpt lat="10.10246" lon="-84.16532">
        <ele>1532.2</ele>
        <time>2022-05-14 15:54:30</time>
      </trkpt>
      <trkpt lat="10.10248" lon="-84.1653">
        <ele>1532.4</ele>
        <time>2022-05-14 15:54:31</time>
      </trkpt>
      <trkpt lat="10.10251" lon="-84.16529">
        <ele>1532.8</ele>
        <time>2022-05-14 15:54:32</time>
      </trkpt>
      <trkpt lat="10.10254" lon="-84.16527">
        <ele>1533.4</ele>
        <time>2022-05-14 15:54:33</time>
      </trkpt>
      <trkpt lat="10.10257" lon="-84.16525">
        <ele>1533.6</ele>
        <time>2022-05-14 15:54:34</time>
      </trkpt>
      <trkpt lat="10.10257" lon="-84.16525">
        <ele>1533.6</ele>
        <time>2022-05-14 15:54:35</time>
      </trkpt>
      <trkpt lat="10.10259" lon="-84.16524">
        <ele>1534</ele>
        <time>2022-05-14 15:54:36</time>
      </trkpt>
      <trkpt lat="10.10262" lon="-84.16522">
        <ele>1534.4</ele>
        <time>2022-05-14 15:54:37</time>
      </trkpt>
      <trkpt lat="10.10268" lon="-84.16518">
        <ele>1534.8</ele>
        <time>2022-05-14 15:54:38</time>
      </trkpt>
      <trkpt lat="10.1027" lon="-84.16516">
        <ele>1535</ele>
        <time>2022-05-14 15:54:39</time>
      </trkpt>
      <trkpt lat="10.10273" lon="-84.16514">
        <ele>1535.4</ele>
        <time>2022-05-14 15:54:40</time>
      </trkpt>
      <trkpt lat="10.10276" lon="-84.16512">
        <ele>1535.8</ele>
        <time>2022-05-14 15:54:41</time>
      </trkpt>
      <trkpt lat="10.10279" lon="-84.1651">
        <ele>1536.2</ele>
        <time>2022-05-14 15:54:42</time>
      </trkpt>
      <trkpt lat="10.10282" lon="-84.16508">
        <ele>1536.6</ele>
        <time>2022-05-14 15:54:43</time>
      </trkpt>
      <trkpt lat="10.10285" lon="-84.16506">
        <ele>1536.8</ele>
        <time>2022-05-14 15:54:44</time>
      </trkpt>
      <trkpt lat="10.10285" lon="-84.16506">
        <ele>1537.2</ele>
        <time>2022-05-14 15:54:45</time>
      </trkpt>
      <trkpt lat="10.10288" lon="-84.16504">
        <ele>1537.6</ele>
        <time>2022-05-14 15:54:46</time>
      </trkpt>
      <trkpt lat="10.10291" lon="-84.16503">
        <ele>1537.8</ele>
        <time>2022-05-14 15:54:47</time>
      </trkpt>
      <trkpt lat="10.10297" lon="-84.16498">
        <ele>1538.2</ele>
        <time>2022-05-14 15:54:48</time>
      </trkpt>
      <trkpt lat="10.10301" lon="-84.16497">
        <ele>1538.4</ele>
        <time>2022-05-14 15:54:49</time>
      </trkpt>
      <trkpt lat="10.10304" lon="-84.16495">
        <ele>1538.8</ele>
        <time>2022-05-14 15:54:50</time>
      </trkpt>
      <trkpt lat="10.10307" lon="-84.16492">
        <ele>1539</ele>
        <time>2022-05-14 15:54:51</time>
      </trkpt>
      <trkpt lat="10.1031" lon="-84.16491">
        <ele>1539.4</ele>
        <time>2022-05-14 15:54:52</time>
      </trkpt>
      <trkpt lat="10.10314" lon="-84.16489">
        <ele>1539.6</ele>
        <time>2022-05-14 15:54:53</time>
      </trkpt>
      <trkpt lat="10.10317" lon="-84.16487">
        <ele>1540</ele>
        <time>2022-05-14 15:54:54</time>
      </trkpt>
      <trkpt lat="10.1032" lon="-84.16484">
        <ele>1540.2</ele>
        <time>2022-05-14 15:54:55</time>
      </trkpt>
      <trkpt lat="10.1032" lon="-84.16484">
        <ele>1540.2</ele>
        <time>2022-05-14 15:54:56</time>
      </trkpt>
      <trkpt lat="10.10323" lon="-84.16483">
        <ele>1540.6</ele>
        <time>2022-05-14 15:54:57</time>
      </trkpt>
      <trkpt lat="10.10323" lon="-84.16483">
        <ele>1540.8</ele>
        <time>2022-05-14 15:54:58</time>
      </trkpt>
      <trkpt lat="10.10333" lon="-84.16476">
        <ele>1541</ele>
        <time>2022-05-14 15:54:59</time>
      </trkpt>
      <trkpt lat="10.10335" lon="-84.16474">
        <ele>1541.2</ele>
        <time>2022-05-14 15:55:00</time>
      </trkpt>
      <trkpt lat="10.10338" lon="-84.16472">
        <ele>1541.4</ele>
        <time>2022-05-14 15:55:01</time>
      </trkpt>
      <trkpt lat="10.10341" lon="-84.16469">
        <ele>1541.6</ele>
        <time>2022-05-14 15:55:02</time>
      </trkpt>
      <trkpt lat="10.10344" lon="-84.16467">
        <ele>1542</ele>
        <time>2022-05-14 15:55:03</time>
      </trkpt>
      <trkpt lat="10.10348" lon="-84.16465">
        <ele>1542.2</ele>
        <time>2022-05-14 15:55:04</time>
      </trkpt>
      <trkpt lat="10.10351" lon="-84.16463">
        <ele>1542.4</ele>
        <time>2022-05-14 15:55:05</time>
      </trkpt>
      <trkpt lat="10.10351" lon="-84.16463">
        <ele>1542.6</ele>
        <time>2022-05-14 15:55:06</time>
      </trkpt>
      <trkpt lat="10.10353" lon="-84.1646">
        <ele>1542.8</ele>
        <time>2022-05-14 15:55:07</time>
      </trkpt>
      <trkpt lat="10.10353" lon="-84.1646">
        <ele>1543</ele>
        <time>2022-05-14 15:55:08</time>
      </trkpt>
      <trkpt lat="10.10363" lon="-84.16454">
        <ele>1543.2</ele>
        <time>2022-05-14 15:55:09</time>
      </trkpt>
      <trkpt lat="10.10366" lon="-84.16451">
        <ele>1543.4</ele>
        <time>2022-05-14 15:55:10</time>
      </trkpt>
      <trkpt lat="10.10369" lon="-84.16449">
        <ele>1543.6</ele>
        <time>2022-05-14 15:55:11</time>
      </trkpt>
      <trkpt lat="10.10372" lon="-84.16447">
        <ele>1543.8</ele>
        <time>2022-05-14 15:55:12</time>
      </trkpt>
      <trkpt lat="10.10374" lon="-84.16444">
        <ele>1544</ele>
        <time>2022-05-14 15:55:13</time>
      </trkpt>
      <trkpt lat="10.10377" lon="-84.16441">
        <ele>1544.2</ele>
        <time>2022-05-14 15:55:14</time>
      </trkpt>
      <trkpt lat="10.1038" lon="-84.16438">
        <ele>1544.2</ele>
        <time>2022-05-14 15:55:15</time>
      </trkpt>
      <trkpt lat="10.10383" lon="-84.16436">
        <ele>1544.4</ele>
        <time>2022-05-14 15:55:16</time>
      </trkpt>
      <trkpt lat="10.10383" lon="-84.16436">
        <ele>1544.4</ele>
        <time>2022-05-14 15:55:17</time>
      </trkpt>
      <trkpt lat="10.10385" lon="-84.16433">
        <ele>1544.4</ele>
        <time>2022-05-14 15:55:18</time>
      </trkpt>
      <trkpt lat="10.10385" lon="-84.16433">
        <ele>1544.6</ele>
        <time>2022-05-14 15:55:19</time>
      </trkpt>
      <trkpt lat="10.10392" lon="-84.16423">
        <ele>1544.8</ele>
        <time>2022-05-14 15:55:20</time>
      </trkpt>
      <trkpt lat="10.10395" lon="-84.1642">
        <ele>1545</ele>
        <time>2022-05-14 15:55:21</time>
      </trkpt>
      <trkpt lat="10.10398" lon="-84.16417">
        <ele>1544.8</ele>
        <time>2022-05-14 15:55:22</time>
      </trkpt>
      <trkpt lat="10.10401" lon="-84.16415">
        <ele>1544.8</ele>
        <time>2022-05-14 15:55:23</time>
      </trkpt>
      <trkpt lat="10.10405" lon="-84.16412">
        <ele>1544.8</ele>
        <time>2022-05-14 15:55:24</time>
      </trkpt>
      <trkpt lat="10.10409" lon="-84.1641">
        <ele>1545</ele>
        <time>2022-05-14 15:55:25</time>
      </trkpt>
      <trkpt lat="10.10413" lon="-84.16411">
        <ele>1545.2</ele>
        <time>2022-05-14 15:55:26</time>
      </trkpt>
      <trkpt lat="10.10413" lon="-84.16411">
        <ele>1545.4</ele>
        <time>2022-05-14 15:55:27</time>
      </trkpt>
      <trkpt lat="10.10418" lon="-84.16411">
        <ele>1545.4</ele>
        <time>2022-05-14 15:55:28</time>
      </trkpt>
      <trkpt lat="10.10425" lon="-84.16414">
        <ele>1545.6</ele>
        <time>2022-05-14 15:55:29</time>
      </trkpt>
      <trkpt lat="10.10429" lon="-84.16417">
        <ele>1545.8</ele>
        <time>2022-05-14 15:55:30</time>
      </trkpt>
      <trkpt lat="10.10431" lon="-84.16421">
        <ele>1545.8</ele>
        <time>2022-05-14 15:55:31</time>
      </trkpt>
      <trkpt lat="10.10433" lon="-84.16425">
        <ele>1545.8</ele>
        <time>2022-05-14 15:55:32</time>
      </trkpt>
      <trkpt lat="10.10434" lon="-84.16429">
        <ele>1545.8</ele>
        <time>2022-05-14 15:55:33</time>
      </trkpt>
      <trkpt lat="10.10435" lon="-84.16433">
        <ele>1546</ele>
        <time>2022-05-14 15:55:34</time>
      </trkpt>
      <trkpt lat="10.10436" lon="-84.16438">
        <ele>1546</ele>
        <time>2022-05-14 15:55:35</time>
      </trkpt>
      <trkpt lat="10.10437" lon="-84.16443">
        <ele>1546.2</ele>
        <time>2022-05-14 15:55:36</time>
      </trkpt>
      <trkpt lat="10.10438" lon="-84.16447">
        <ele>1546.4</ele>
        <time>2022-05-14 15:55:37</time>
      </trkpt>
      <trkpt lat="10.10438" lon="-84.16447">
        <ele>1546.4</ele>
        <time>2022-05-14 15:55:38</time>
      </trkpt>
      <trkpt lat="10.10438" lon="-84.16452">
        <ele>1546.8</ele>
        <time>2022-05-14 15:55:39</time>
      </trkpt>
      <trkpt lat="10.10438" lon="-84.1646">
        <ele>1547</ele>
        <time>2022-05-14 15:55:40</time>
      </trkpt>
      <trkpt lat="10.10437" lon="-84.16463">
        <ele>1547.4</ele>
        <time>2022-05-14 15:55:41</time>
      </trkpt>
      <trkpt lat="10.10435" lon="-84.16467">
        <ele>1547.8</ele>
        <time>2022-05-14 15:55:42</time>
      </trkpt>
      <trkpt lat="10.10433" lon="-84.1647">
        <ele>1548.2</ele>
        <time>2022-05-14 15:55:43</time>
      </trkpt>
      <trkpt lat="10.10431" lon="-84.16474">
        <ele>1548.4</ele>
        <time>2022-05-14 15:55:44</time>
      </trkpt>
      <trkpt lat="10.10429" lon="-84.16477">
        <ele>1548.6</ele>
        <time>2022-05-14 15:55:45</time>
      </trkpt>
      <trkpt lat="10.10426" lon="-84.1648">
        <ele>1548.8</ele>
        <time>2022-05-14 15:55:46</time>
      </trkpt>
      <trkpt lat="10.10423" lon="-84.16483">
        <ele>1549</ele>
        <time>2022-05-14 15:55:47</time>
      </trkpt>
      <trkpt lat="10.10423" lon="-84.16483">
        <ele>1549</ele>
        <time>2022-05-14 15:55:48</time>
      </trkpt>
      <trkpt lat="10.10423" lon="-84.16483">
        <ele>1549.4</ele>
        <time>2022-05-14 15:55:49</time>
      </trkpt>
      <trkpt lat="10.10416" lon="-84.16493">
        <ele>1549.6</ele>
        <time>2022-05-14 15:55:50</time>
      </trkpt>
      <trkpt lat="10.10413" lon="-84.16496">
        <ele>1549.8</ele>
        <time>2022-05-14 15:55:51</time>
      </trkpt>
      <trkpt lat="10.1041" lon="-84.16499">
        <ele>1549.8</ele>
        <time>2022-05-14 15:55:52</time>
      </trkpt>
      <trkpt lat="10.10407" lon="-84.16503">
        <ele>1550</ele>
        <time>2022-05-14 15:55:53</time>
      </trkpt>
      <trkpt lat="10.10404" lon="-84.16505">
        <ele>1550.4</ele>
        <time>2022-05-14 15:55:54</time>
      </trkpt>
      <trkpt lat="10.104" lon="-84.16506">
        <ele>1550.6</ele>
        <time>2022-05-14 15:55:55</time>
      </trkpt>
      <trkpt lat="10.10396" lon="-84.16508">
        <ele>1550.8</ele>
        <time>2022-05-14 15:55:56</time>
      </trkpt>
      <trkpt lat="10.10393" lon="-84.16511">
        <ele>1551</ele>
        <time>2022-05-14 15:55:57</time>
      </trkpt>
      <trkpt lat="10.10389" lon="-84.16512">
        <ele>1551.2</ele>
        <time>2022-05-14 15:55:58</time>
      </trkpt>
      <trkpt lat="10.10389" lon="-84.16512">
        <ele>1551.2</ele>
        <time>2022-05-14 15:55:59</time>
      </trkpt>
      <trkpt lat="10.10389" lon="-84.16512">
        <ele>1551.4</ele>
        <time>2022-05-14 15:56:00</time>
      </trkpt>
      <trkpt lat="10.1038" lon="-84.1652">
        <ele>1551.4</ele>
        <time>2022-05-14 15:56:01</time>
      </trkpt>
      <trkpt lat="10.10377" lon="-84.16523">
        <ele>1551.6</ele>
        <time>2022-05-14 15:56:02</time>
      </trkpt>
      <trkpt lat="10.10375" lon="-84.16527">
        <ele>1552</ele>
        <time>2022-05-14 15:56:03</time>
      </trkpt>
      <trkpt lat="10.10374" lon="-84.1653">
        <ele>1552.4</ele>
        <time>2022-05-14 15:56:04</time>
      </trkpt>
      <trkpt lat="10.10372" lon="-84.16533">
        <ele>1552.6</ele>
        <time>2022-05-14 15:56:05</time>
      </trkpt>
      <trkpt lat="10.1037" lon="-84.16537">
        <ele>1553</ele>
        <time>2022-05-14 15:56:06</time>
      </trkpt>
      <trkpt lat="10.10369" lon="-84.16539">
        <ele>1553.4</ele>
        <time>2022-05-14 15:56:07</time>
      </trkpt>
      <trkpt lat="10.10368" lon="-84.16543">
        <ele>1553.8</ele>
        <time>2022-05-14 15:56:08</time>
      </trkpt>
      <trkpt lat="10.10368" lon="-84.16543">
        <ele>1554.2</ele>
        <time>2022-05-14 15:56:09</time>
      </trkpt>
      <trkpt lat="10.10366" lon="-84.16549">
        <ele>1554.6</ele>
        <time>2022-05-14 15:56:10</time>
      </trkpt>
      <trkpt lat="10.10365" lon="-84.16552">
        <ele>1555</ele>
        <time>2022-05-14 15:56:11</time>
      </trkpt>
      <trkpt lat="10.10364" lon="-84.16556">
        <ele>1555.2</ele>
        <time>2022-05-14 15:56:12</time>
      </trkpt>
      <trkpt lat="10.10363" lon="-84.16559">
        <ele>1555.4</ele>
        <time>2022-05-14 15:56:13</time>
      </trkpt>
      <trkpt lat="10.10362" lon="-84.16563">
        <ele>1555.6</ele>
        <time>2022-05-14 15:56:14</time>
      </trkpt>
      <trkpt lat="10.10362" lon="-84.16566">
        <ele>1555.8</ele>
        <time>2022-05-14 15:56:15</time>
      </trkpt>
      <trkpt lat="10.10361" lon="-84.16569">
        <ele>1556.2</ele>
        <time>2022-05-14 15:56:16</time>
      </trkpt>
      <trkpt lat="10.1036" lon="-84.16572">
        <ele>1556.4</ele>
        <time>2022-05-14 15:56:17</time>
      </trkpt>
      <trkpt lat="10.10359" lon="-84.16576">
        <ele>1556.8</ele>
        <time>2022-05-14 15:56:18</time>
      </trkpt>
      <trkpt lat="10.10357" lon="-84.16579">
        <ele>1557</ele>
        <time>2022-05-14 15:56:19</time>
      </trkpt>
      <trkpt lat="10.10357" lon="-84.16579">
        <ele>1557</ele>
        <time>2022-05-14 15:56:20</time>
      </trkpt>
      <trkpt lat="10.10355" lon="-84.16585">
        <ele>1557.2</ele>
        <time>2022-05-14 15:56:21</time>
      </trkpt>
      <trkpt lat="10.10354" lon="-84.16588">
        <ele>1557.4</ele>
        <time>2022-05-14 15:56:22</time>
      </trkpt>
      <trkpt lat="10.10352" lon="-84.16591">
        <ele>1557.8</ele>
        <time>2022-05-14 15:56:23</time>
      </trkpt>
      <trkpt lat="10.10351" lon="-84.16594">
        <ele>1558.2</ele>
        <time>2022-05-14 15:56:24</time>
      </trkpt>
      <trkpt lat="10.10349" lon="-84.16597">
        <ele>1558.4</ele>
        <time>2022-05-14 15:56:25</time>
      </trkpt>
      <trkpt lat="10.10347" lon="-84.166">
        <ele>1558.8</ele>
        <time>2022-05-14 15:56:26</time>
      </trkpt>
      <trkpt lat="10.10345" lon="-84.16602">
        <ele>1559</ele>
        <time>2022-05-14 15:56:27</time>
      </trkpt>
      <trkpt lat="10.10343" lon="-84.16606">
        <ele>1559.2</ele>
        <time>2022-05-14 15:56:28</time>
      </trkpt>
      <trkpt lat="10.10341" lon="-84.16608">
        <ele>1559.4</ele>
        <time>2022-05-14 15:56:29</time>
      </trkpt>
      <trkpt lat="10.10341" lon="-84.16608">
        <ele>1559.4</ele>
        <time>2022-05-14 15:56:30</time>
      </trkpt>
      <trkpt lat="10.10336" lon="-84.16613">
        <ele>1559.6</ele>
        <time>2022-05-14 15:56:31</time>
      </trkpt>
      <trkpt lat="10.10334" lon="-84.16615">
        <ele>1559.8</ele>
        <time>2022-05-14 15:56:32</time>
      </trkpt>
      <trkpt lat="10.10331" lon="-84.16618">
        <ele>1560</ele>
        <time>2022-05-14 15:56:33</time>
      </trkpt>
      <trkpt lat="10.10329" lon="-84.16621">
        <ele>1560.4</ele>
        <time>2022-05-14 15:56:34</time>
      </trkpt>
      <trkpt lat="10.10326" lon="-84.16623">
        <ele>1560.4</ele>
        <time>2022-05-14 15:56:35</time>
      </trkpt>
      <trkpt lat="10.10323" lon="-84.16625">
        <ele>1560.6</ele>
        <time>2022-05-14 15:56:36</time>
      </trkpt>
      <trkpt lat="10.10321" lon="-84.16628">
        <ele>1561</ele>
        <time>2022-05-14 15:56:37</time>
      </trkpt>
      <trkpt lat="10.10318" lon="-84.1663">
        <ele>1561.2</ele>
        <time>2022-05-14 15:56:38</time>
      </trkpt>
      <trkpt lat="10.10316" lon="-84.16633">
        <ele>1561.4</ele>
        <time>2022-05-14 15:56:39</time>
      </trkpt>
      <trkpt lat="10.10316" lon="-84.16633">
        <ele>1561.6</ele>
        <time>2022-05-14 15:56:40</time>
      </trkpt>
      <trkpt lat="10.10316" lon="-84.16633">
        <ele>1561.6</ele>
        <time>2022-05-14 15:56:41</time>
      </trkpt>
      <trkpt lat="10.10308" lon="-84.1664">
        <ele>1562</ele>
        <time>2022-05-14 15:56:42</time>
      </trkpt>
      <trkpt lat="10.10306" lon="-84.16643">
        <ele>1562.4</ele>
        <time>2022-05-14 15:56:43</time>
      </trkpt>
      <trkpt lat="10.10305" lon="-84.16646">
        <ele>1562.8</ele>
        <time>2022-05-14 15:56:44</time>
      </trkpt>
      <trkpt lat="10.10303" lon="-84.16648">
        <ele>1563.2</ele>
        <time>2022-05-14 15:56:45</time>
      </trkpt>
      <trkpt lat="10.10302" lon="-84.16651">
        <ele>1563.4</ele>
        <time>2022-05-14 15:56:46</time>
      </trkpt>
      <trkpt lat="10.103" lon="-84.16653">
        <ele>1563.8</ele>
        <time>2022-05-14 15:56:47</time>
      </trkpt>
      <trkpt lat="10.10299" lon="-84.16657">
        <ele>1564</ele>
        <time>2022-05-14 15:56:48</time>
      </trkpt>
      <trkpt lat="10.10298" lon="-84.16659">
        <ele>1564.4</ele>
        <time>2022-05-14 15:56:49</time>
      </trkpt>
      <trkpt lat="10.10298" lon="-84.16659">
        <ele>1564.8</ele>
        <time>2022-05-14 15:56:50</time>
      </trkpt>
      <trkpt lat="10.10298" lon="-84.16659">
        <ele>1565</ele>
        <time>2022-05-14 15:56:51</time>
      </trkpt>
      <trkpt lat="10.10294" lon="-84.16667">
        <ele>1565.4</ele>
        <time>2022-05-14 15:56:52</time>
      </trkpt>
      <trkpt lat="10.10293" lon="-84.16669">
        <ele>1565.8</ele>
        <time>2022-05-14 15:56:53</time>
      </trkpt>
      <trkpt lat="10.10291" lon="-84.16673">
        <ele>1566</ele>
        <time>2022-05-14 15:56:54</time>
      </trkpt>
      <trkpt lat="10.1029" lon="-84.16675">
        <ele>1566.4</ele>
        <time>2022-05-14 15:56:55</time>
      </trkpt>
      <trkpt lat="10.10288" lon="-84.16678">
        <ele>1566.6</ele>
        <time>2022-05-14 15:56:56</time>
      </trkpt>
      <trkpt lat="10.10287" lon="-84.1668">
        <ele>1567</ele>
        <time>2022-05-14 15:56:57</time>
      </trkpt>
      <trkpt lat="10.10286" lon="-84.16683">
        <ele>1567.4</ele>
        <time>2022-05-14 15:56:58</time>
      </trkpt>
      <trkpt lat="10.10285" lon="-84.16686">
        <ele>1567.8</ele>
        <time>2022-05-14 15:56:59</time>
      </trkpt>
      <trkpt lat="10.10283" lon="-84.16689">
        <ele>1568</ele>
        <time>2022-05-14 15:57:00</time>
      </trkpt>
      <trkpt lat="10.10283" lon="-84.16689">
        <ele>1568.4</ele>
        <time>2022-05-14 15:57:01</time>
      </trkpt>
      <trkpt lat="10.10283" lon="-84.16689">
        <ele>1568.4</ele>
        <time>2022-05-14 15:57:02</time>
      </trkpt>
      <trkpt lat="10.1028" lon="-84.16697">
        <ele>1568.8</ele>
        <time>2022-05-14 15:57:03</time>
      </trkpt>
      <trkpt lat="10.10279" lon="-84.16699">
        <ele>1569.2</ele>
        <time>2022-05-14 15:57:04</time>
      </trkpt>
      <trkpt lat="10.10277" lon="-84.16702">
        <ele>1569.4</ele>
        <time>2022-05-14 15:57:05</time>
      </trkpt>
      <trkpt lat="10.10276" lon="-84.16704">
        <ele>1569.8</ele>
        <time>2022-05-14 15:57:06</time>
      </trkpt>
      <trkpt lat="10.10274" lon="-84.16707">
        <ele>1570</ele>
        <time>2022-05-14 15:57:07</time>
      </trkpt>
      <trkpt lat="10.10273" lon="-84.1671">
        <ele>1570.4</ele>
        <time>2022-05-14 15:57:08</time>
      </trkpt>
      <trkpt lat="10.10272" lon="-84.16712">
        <ele>1570.8</ele>
        <time>2022-05-14 15:57:09</time>
      </trkpt>
      <trkpt lat="10.10271" lon="-84.16715">
        <ele>1571.2</ele>
        <time>2022-05-14 15:57:10</time>
      </trkpt>
      <trkpt lat="10.10271" lon="-84.16715">
        <ele>1571.4</ele>
        <time>2022-05-14 15:57:11</time>
      </trkpt>
      <trkpt lat="10.10269" lon="-84.1672">
        <ele>1571.8</ele>
        <time>2022-05-14 15:57:12</time>
      </trkpt>
      <trkpt lat="10.10267" lon="-84.16723">
        <ele>1572</ele>
        <time>2022-05-14 15:57:13</time>
      </trkpt>
      <trkpt lat="10.10266" lon="-84.16726">
        <ele>1572.4</ele>
        <time>2022-05-14 15:57:14</time>
      </trkpt>
      <trkpt lat="10.10266" lon="-84.16728">
        <ele>1572.6</ele>
        <time>2022-05-14 15:57:15</time>
      </trkpt>
      <trkpt lat="10.10265" lon="-84.16731">
        <ele>1573</ele>
        <time>2022-05-14 15:57:16</time>
      </trkpt>
      <trkpt lat="10.10264" lon="-84.16734">
        <ele>1573.2</ele>
        <time>2022-05-14 15:57:17</time>
      </trkpt>
      <trkpt lat="10.10263" lon="-84.16738">
        <ele>1573.4</ele>
        <time>2022-05-14 15:57:18</time>
      </trkpt>
      <trkpt lat="10.10262" lon="-84.1674">
        <ele>1573.6</ele>
        <time>2022-05-14 15:57:19</time>
      </trkpt>
      <trkpt lat="10.10262" lon="-84.16743">
        <ele>1573.8</ele>
        <time>2022-05-14 15:57:20</time>
      </trkpt>
      <trkpt lat="10.10262" lon="-84.16747">
        <ele>1574</ele>
        <time>2022-05-14 15:57:21</time>
      </trkpt>
      <trkpt lat="10.10262" lon="-84.16747">
        <ele>1574.2</ele>
        <time>2022-05-14 15:57:22</time>
      </trkpt>
      <trkpt lat="10.10262" lon="-84.16754">
        <ele>1574.2</ele>
        <time>2022-05-14 15:57:23</time>
      </trkpt>
      <trkpt lat="10.10262" lon="-84.16756">
        <ele>1574.4</ele>
        <time>2022-05-14 15:57:24</time>
      </trkpt>
      <trkpt lat="10.10263" lon="-84.1676">
        <ele>1574.6</ele>
        <time>2022-05-14 15:57:25</time>
      </trkpt>
      <trkpt lat="10.10264" lon="-84.16763">
        <ele>1574.8</ele>
        <time>2022-05-14 15:57:26</time>
      </trkpt>
      <trkpt lat="10.10265" lon="-84.16765">
        <ele>1575.2</ele>
        <time>2022-05-14 15:57:27</time>
      </trkpt>
      <trkpt lat="10.10267" lon="-84.16769">
        <ele>1575.4</ele>
        <time>2022-05-14 15:57:28</time>
      </trkpt>
      <trkpt lat="10.10268" lon="-84.16772">
        <ele>1575.8</ele>
        <time>2022-05-14 15:57:29</time>
      </trkpt>
      <trkpt lat="10.10269" lon="-84.16776">
        <ele>1575.8</ele>
        <time>2022-05-14 15:57:30</time>
      </trkpt>
      <trkpt lat="10.10269" lon="-84.16776">
        <ele>1576</ele>
        <time>2022-05-14 15:57:31</time>
      </trkpt>
      <trkpt lat="10.10269" lon="-84.16776">
        <ele>1576.2</ele>
        <time>2022-05-14 15:57:32</time>
      </trkpt>
      <trkpt lat="10.10272" lon="-84.16785">
        <ele>1576.4</ele>
        <time>2022-05-14 15:57:33</time>
      </trkpt>
      <trkpt lat="10.10273" lon="-84.16789">
        <ele>1576.6</ele>
        <time>2022-05-14 15:57:34</time>
      </trkpt>
      <trkpt lat="10.10274" lon="-84.16792">
        <ele>1576.8</ele>
        <time>2022-05-14 15:57:35</time>
      </trkpt>
      <trkpt lat="10.10274" lon="-84.16794">
        <ele>1577.2</ele>
        <time>2022-05-14 15:57:36</time>
      </trkpt>
      <trkpt lat="10.10275" lon="-84.16798">
        <ele>1577.4</ele>
        <time>2022-05-14 15:57:37</time>
      </trkpt>
      <trkpt lat="10.10275" lon="-84.16801">
        <ele>1577.8</ele>
        <time>2022-05-14 15:57:38</time>
      </trkpt>
      <trkpt lat="10.10275" lon="-84.16804">
        <ele>1578.2</ele>
        <time>2022-05-14 15:57:39</time>
      </trkpt>
      <trkpt lat="10.10274" lon="-84.16807">
        <ele>1578.6</ele>
        <time>2022-05-14 15:57:40</time>
      </trkpt>
      <trkpt lat="10.10274" lon="-84.1681">
        <ele>1579</ele>
        <time>2022-05-14 15:57:41</time>
      </trkpt>
      <trkpt lat="10.10274" lon="-84.1681">
        <ele>1579.2</ele>
        <time>2022-05-14 15:57:42</time>
      </trkpt>
      <trkpt lat="10.10274" lon="-84.1681">
        <ele>1579.6</ele>
        <time>2022-05-14 15:57:43</time>
      </trkpt>
      <trkpt lat="10.10272" lon="-84.16817">
        <ele>1579.6</ele>
        <time>2022-05-14 15:57:44</time>
      </trkpt>
      <trkpt lat="10.10272" lon="-84.16821">
        <ele>1579.8</ele>
        <time>2022-05-14 15:57:45</time>
      </trkpt>
      <trkpt lat="10.10271" lon="-84.16823">
        <ele>1580.2</ele>
        <time>2022-05-14 15:57:46</time>
      </trkpt>
      <trkpt lat="10.10271" lon="-84.16826">
        <ele>1580.6</ele>
        <time>2022-05-14 15:57:47</time>
      </trkpt>
      <trkpt lat="10.1027" lon="-84.16828">
        <ele>1581</ele>
        <time>2022-05-14 15:57:48</time>
      </trkpt>
      <trkpt lat="10.1027" lon="-84.16831">
        <ele>1581.2</ele>
        <time>2022-05-14 15:57:49</time>
      </trkpt>
      <trkpt lat="10.1027" lon="-84.16834">
        <ele>1581.6</ele>
        <time>2022-05-14 15:57:50</time>
      </trkpt>
      <trkpt lat="10.1027" lon="-84.16837">
        <ele>1581.8</ele>
        <time>2022-05-14 15:57:51</time>
      </trkpt>
      <trkpt lat="10.1027" lon="-84.16837">
        <ele>1582</ele>
        <time>2022-05-14 15:57:52</time>
      </trkpt>
      <trkpt lat="10.1027" lon="-84.16837">
        <ele>1582.4</ele>
        <time>2022-05-14 15:57:53</time>
      </trkpt>
      <trkpt lat="10.10273" lon="-84.16844">
        <ele>1582.8</ele>
        <time>2022-05-14 15:57:54</time>
      </trkpt>
      <trkpt lat="10.10275" lon="-84.16846">
        <ele>1583</ele>
        <time>2022-05-14 15:57:55</time>
      </trkpt>
      <trkpt lat="10.10277" lon="-84.16849">
        <ele>1583.2</ele>
        <time>2022-05-14 15:57:56</time>
      </trkpt>
      <trkpt lat="10.1028" lon="-84.1685">
        <ele>1583.6</ele>
        <time>2022-05-14 15:57:57</time>
      </trkpt>
      <trkpt lat="10.10282" lon="-84.16852">
        <ele>1584</ele>
        <time>2022-05-14 15:57:58</time>
      </trkpt>
      <trkpt lat="10.10285" lon="-84.16852">
        <ele>1584.4</ele>
        <time>2022-05-14 15:57:59</time>
      </trkpt>
      <trkpt lat="10.10288" lon="-84.16853">
        <ele>1584.8</ele>
        <time>2022-05-14 15:58:00</time>
      </trkpt>
      <trkpt lat="10.10292" lon="-84.16854">
        <ele>1585</ele>
        <time>2022-05-14 15:58:01</time>
      </trkpt>
      <trkpt lat="10.10295" lon="-84.16855">
        <ele>1585.2</ele>
        <time>2022-05-14 15:58:02</time>
      </trkpt>
      <trkpt lat="10.10295" lon="-84.16855">
        <ele>1585.4</ele>
        <time>2022-05-14 15:58:03</time>
      </trkpt>
      <trkpt lat="10.10295" lon="-84.16855">
        <ele>1585.8</ele>
        <time>2022-05-14 15:58:04</time>
      </trkpt>
      <trkpt lat="10.10305" lon="-84.16857">
        <ele>1585.8</ele>
        <time>2022-05-14 15:58:05</time>
      </trkpt>
      <trkpt lat="10.10308" lon="-84.16857">
        <ele>1586</ele>
        <time>2022-05-14 15:58:06</time>
      </trkpt>
      <trkpt lat="10.10311" lon="-84.16858">
        <ele>1586.2</ele>
        <time>2022-05-14 15:58:07</time>
      </trkpt>
      <trkpt lat="10.10315" lon="-84.16859">
        <ele>1586.4</ele>
        <time>2022-05-14 15:58:08</time>
      </trkpt>
      <trkpt lat="10.10318" lon="-84.16859">
        <ele>1586.6</ele>
        <time>2022-05-14 15:58:09</time>
      </trkpt>
      <trkpt lat="10.10321" lon="-84.16859">
        <ele>1586.8</ele>
        <time>2022-05-14 15:58:10</time>
      </trkpt>
      <trkpt lat="10.10324" lon="-84.1686">
        <ele>1587</ele>
        <time>2022-05-14 15:58:11</time>
      </trkpt>
      <trkpt lat="10.10327" lon="-84.1686">
        <ele>1587.4</ele>
        <time>2022-05-14 15:58:12</time>
      </trkpt>
      <trkpt lat="10.10327" lon="-84.1686">
        <ele>1587.8</ele>
        <time>2022-05-14 15:58:13</time>
      </trkpt>
      <trkpt lat="10.10333" lon="-84.16861">
        <ele>1588.2</ele>
        <time>2022-05-14 15:58:14</time>
      </trkpt>
      <trkpt lat="10.10336" lon="-84.16861">
        <ele>1588.4</ele>
        <time>2022-05-14 15:58:15</time>
      </trkpt>
      <trkpt lat="10.10339" lon="-84.16861">
        <ele>1588.8</ele>
        <time>2022-05-14 15:58:16</time>
      </trkpt>
      <trkpt lat="10.10342" lon="-84.16863">
        <ele>1589</ele>
        <time>2022-05-14 15:58:17</time>
      </trkpt>
      <trkpt lat="10.10345" lon="-84.16863">
        <ele>1589.2</ele>
        <time>2022-05-14 15:58:18</time>
      </trkpt>
      <trkpt lat="10.10348" lon="-84.16863">
        <ele>1589.6</ele>
        <time>2022-05-14 15:58:19</time>
      </trkpt>
      <trkpt lat="10.10351" lon="-84.16861">
        <ele>1589.8</ele>
        <time>2022-05-14 15:58:20</time>
      </trkpt>
      <trkpt lat="10.10354" lon="-84.16861">
        <ele>1590.2</ele>
        <time>2022-05-14 15:58:21</time>
      </trkpt>
      <trkpt lat="10.10357" lon="-84.16861">
        <ele>1590.4</ele>
        <time>2022-05-14 15:58:22</time>
      </trkpt>
      <trkpt lat="10.10357" lon="-84.16861">
        <ele>1590.8</ele>
        <time>2022-05-14 15:58:23</time>
      </trkpt>
      <trkpt lat="10.10357" lon="-84.16861">
        <ele>1591</ele>
        <time>2022-05-14 15:58:24</time>
      </trkpt>
      <trkpt lat="10.10365" lon="-84.16858">
        <ele>1591.4</ele>
        <time>2022-05-14 15:58:25</time>
      </trkpt>
      <trkpt lat="10.10368" lon="-84.16857">
        <ele>1591.4</ele>
        <time>2022-05-14 15:58:26</time>
      </trkpt>
      <trkpt lat="10.10371" lon="-84.16856">
        <ele>1591.6</ele>
        <time>2022-05-14 15:58:27</time>
      </trkpt>
      <trkpt lat="10.10373" lon="-84.16854">
        <ele>1592</ele>
        <time>2022-05-14 15:58:28</time>
      </trkpt>
      <trkpt lat="10.10375" lon="-84.16852">
        <ele>1592.4</ele>
        <time>2022-05-14 15:58:29</time>
      </trkpt>
      <trkpt lat="10.10377" lon="-84.1685">
        <ele>1592.8</ele>
        <time>2022-05-14 15:58:30</time>
      </trkpt>
      <trkpt lat="10.10379" lon="-84.16848">
        <ele>1593</ele>
        <time>2022-05-14 15:58:31</time>
      </trkpt>
      <trkpt lat="10.1038" lon="-84.16846">
        <ele>1593.4</ele>
        <time>2022-05-14 15:58:32</time>
      </trkpt>
      <trkpt lat="10.1038" lon="-84.16846">
        <ele>1593.6</ele>
        <time>2022-05-14 15:58:33</time>
      </trkpt>
      <trkpt lat="10.1038" lon="-84.16846">
        <ele>1594</ele>
        <time>2022-05-14 15:58:34</time>
      </trkpt>
      <trkpt lat="10.10386" lon="-84.16839">
        <ele>1594.4</ele>
        <time>2022-05-14 15:58:35</time>
      </trkpt>
      <trkpt lat="10.10387" lon="-84.16837">
        <ele>1594.6</ele>
        <time>2022-05-14 15:58:36</time>
      </trkpt>
      <trkpt lat="10.10388" lon="-84.16835">
        <ele>1595</ele>
        <time>2022-05-14 15:58:37</time>
      </trkpt>
      <trkpt lat="10.1039" lon="-84.16833">
        <ele>1595.4</ele>
        <time>2022-05-14 15:58:38</time>
      </trkpt>
      <trkpt lat="10.10391" lon="-84.1683">
        <ele>1595.6</ele>
        <time>2022-05-14 15:58:39</time>
      </trkpt>
      <trkpt lat="10.10393" lon="-84.16828">
        <ele>1596</ele>
        <time>2022-05-14 15:58:40</time>
      </trkpt>
      <trkpt lat="10.10394" lon="-84.16826">
        <ele>1596.4</ele>
        <time>2022-05-14 15:58:41</time>
      </trkpt>
      <trkpt lat="10.10396" lon="-84.16823">
        <ele>1596.8</ele>
        <time>2022-05-14 15:58:42</time>
      </trkpt>
      <trkpt lat="10.10398" lon="-84.16821">
        <ele>1597.2</ele>
        <time>2022-05-14 15:58:43</time>
      </trkpt>
      <trkpt lat="10.10398" lon="-84.16821">
        <ele>1597.4</ele>
        <time>2022-05-14 15:58:44</time>
      </trkpt>
      <trkpt lat="10.10398" lon="-84.16821">
        <ele>1597.8</ele>
        <time>2022-05-14 15:58:45</time>
      </trkpt>
      <trkpt lat="10.10402" lon="-84.16814">
        <ele>1598.2</ele>
        <time>2022-05-14 15:58:46</time>
      </trkpt>
      <trkpt lat="10.10404" lon="-84.16812">
        <ele>1598.2</ele>
        <time>2022-05-14 15:58:47</time>
      </trkpt>
      <trkpt lat="10.10405" lon="-84.16809">
        <ele>1598.6</ele>
        <time>2022-05-14 15:58:48</time>
      </trkpt>
      <trkpt lat="10.10407" lon="-84.16806">
        <ele>1599</ele>
        <time>2022-05-14 15:58:49</time>
      </trkpt>
      <trkpt lat="10.10408" lon="-84.16803">
        <ele>1599.2</ele>
        <time>2022-05-14 15:58:50</time>
      </trkpt>
      <trkpt lat="10.1041" lon="-84.16801">
        <ele>1599.6</ele>
        <time>2022-05-14 15:58:51</time>
      </trkpt>
      <trkpt lat="10.10412" lon="-84.16798">
        <ele>1600</ele>
        <time>2022-05-14 15:58:52</time>
      </trkpt>
      <trkpt lat="10.10414" lon="-84.16796">
        <ele>1600.4</ele>
        <time>2022-05-14 15:58:53</time>
      </trkpt>
      <trkpt lat="10.10414" lon="-84.16796">
        <ele>1600.8</ele>
        <time>2022-05-14 15:58:54</time>
      </trkpt>
      <trkpt lat="10.10418" lon="-84.16792">
        <ele>1601.2</ele>
        <time>2022-05-14 15:58:55</time>
      </trkpt>
      <trkpt lat="10.1042" lon="-84.16789">
        <ele>1601.4</ele>
        <time>2022-05-14 15:58:56</time>
      </trkpt>
      <trkpt lat="10.10421" lon="-84.16787">
        <ele>1601.8</ele>
        <time>2022-05-14 15:58:57</time>
      </trkpt>
      <trkpt lat="10.10423" lon="-84.16785">
        <ele>1602.2</ele>
        <time>2022-05-14 15:58:58</time>
      </trkpt>
      <trkpt lat="10.10425" lon="-84.16783">
        <ele>1602.4</ele>
        <time>2022-05-14 15:58:59</time>
      </trkpt>
      <trkpt lat="10.10427" lon="-84.1678">
        <ele>1602.8</ele>
        <time>2022-05-14 15:59:00</time>
      </trkpt>
      <trkpt lat="10.10429" lon="-84.16778">
        <ele>1603</ele>
        <time>2022-05-14 15:59:01</time>
      </trkpt>
      <trkpt lat="10.10431" lon="-84.16776">
        <ele>1603.2</ele>
        <time>2022-05-14 15:59:02</time>
      </trkpt>
      <trkpt lat="10.10433" lon="-84.16775">
        <ele>1603.6</ele>
        <time>2022-05-14 15:59:03</time>
      </trkpt>
      <trkpt lat="10.10435" lon="-84.16772">
        <ele>1604</ele>
        <time>2022-05-14 15:59:04</time>
      </trkpt>
      <trkpt lat="10.10435" lon="-84.16772">
        <ele>1604.2</ele>
        <time>2022-05-14 15:59:05</time>
      </trkpt>
      <trkpt lat="10.1044" lon="-84.16769">
        <ele>1604.6</ele>
        <time>2022-05-14 15:59:06</time>
      </trkpt>
      <trkpt lat="10.10442" lon="-84.16767">
        <ele>1604.8</ele>
        <time>2022-05-14 15:59:07</time>
      </trkpt>
      <trkpt lat="10.10444" lon="-84.16765">
        <ele>1604.8</ele>
        <time>2022-05-14 15:59:08</time>
      </trkpt>
      <trkpt lat="10.10446" lon="-84.16763">
        <ele>1605.2</ele>
        <time>2022-05-14 15:59:09</time>
      </trkpt>
      <trkpt lat="10.10448" lon="-84.16761">
        <ele>1605.4</ele>
        <time>2022-05-14 15:59:10</time>
      </trkpt>
      <trkpt lat="10.10451" lon="-84.16758">
        <ele>1605.6</ele>
        <time>2022-05-14 15:59:11</time>
      </trkpt>
      <trkpt lat="10.10453" lon="-84.16757">
        <ele>1605.8</ele>
        <time>2022-05-14 15:59:12</time>
      </trkpt>
      <trkpt lat="10.10456" lon="-84.16755">
        <ele>1606</ele>
        <time>2022-05-14 15:59:13</time>
      </trkpt>
      <trkpt lat="10.10456" lon="-84.16755">
        <ele>1606.2</ele>
        <time>2022-05-14 15:59:14</time>
      </trkpt>
      <trkpt lat="10.10456" lon="-84.16755">
        <ele>1606.4</ele>
        <time>2022-05-14 15:59:15</time>
      </trkpt>
      <trkpt lat="10.10464" lon="-84.16749">
        <ele>1606.6</ele>
        <time>2022-05-14 15:59:16</time>
      </trkpt>
      <trkpt lat="10.10466" lon="-84.16747">
        <ele>1606.8</ele>
        <time>2022-05-14 15:59:17</time>
      </trkpt>
      <trkpt lat="10.10469" lon="-84.16745">
        <ele>1606.8</ele>
        <time>2022-05-14 15:59:18</time>
      </trkpt>
      <trkpt lat="10.10472" lon="-84.16743">
        <ele>1607.2</ele>
        <time>2022-05-14 15:59:19</time>
      </trkpt>
      <trkpt lat="10.10475" lon="-84.16741">
        <ele>1607.4</ele>
        <time>2022-05-14 15:59:20</time>
      </trkpt>
      <trkpt lat="10.10478" lon="-84.16739">
        <ele>1607.6</ele>
        <time>2022-05-14 15:59:21</time>
      </trkpt>
      <trkpt lat="10.1048" lon="-84.16738">
        <ele>1607.8</ele>
        <time>2022-05-14 15:59:22</time>
      </trkpt>
      <trkpt lat="10.10482" lon="-84.16735">
        <ele>1608</ele>
        <time>2022-05-14 15:59:23</time>
      </trkpt>
      <trkpt lat="10.10485" lon="-84.16733">
        <ele>1608.2</ele>
        <time>2022-05-14 15:59:24</time>
      </trkpt>
      <trkpt lat="10.10485" lon="-84.16733">
        <ele>1608.4</ele>
        <time>2022-05-14 15:59:25</time>
      </trkpt>
      <trkpt lat="10.10485" lon="-84.16733">
        <ele>1608.6</ele>
        <time>2022-05-14 15:59:26</time>
      </trkpt>
      <trkpt lat="10.10492" lon="-84.16727">
        <ele>1608.8</ele>
        <time>2022-05-14 15:59:27</time>
      </trkpt>
      <trkpt lat="10.10494" lon="-84.16724">
        <ele>1609</ele>
        <time>2022-05-14 15:59:28</time>
      </trkpt>
      <trkpt lat="10.10497" lon="-84.16723">
        <ele>1609</ele>
        <time>2022-05-14 15:59:29</time>
      </trkpt>
      <trkpt lat="10.10499" lon="-84.1672">
        <ele>1609.2</ele>
        <time>2022-05-14 15:59:30</time>
      </trkpt>
      <trkpt lat="10.10501" lon="-84.16719">
        <ele>1609.6</ele>
        <time>2022-05-14 15:59:31</time>
      </trkpt>
      <trkpt lat="10.10503" lon="-84.16718">
        <ele>1609.8</ele>
        <time>2022-05-14 15:59:32</time>
      </trkpt>
      <trkpt lat="10.10505" lon="-84.16714">
        <ele>1610</ele>
        <time>2022-05-14 15:59:33</time>
      </trkpt>
      <trkpt lat="10.10506" lon="-84.16713">
        <ele>1610.4</ele>
        <time>2022-05-14 15:59:34</time>
      </trkpt>
      <trkpt lat="10.10506" lon="-84.16713">
        <ele>1610.6</ele>
        <time>2022-05-14 15:59:35</time>
      </trkpt>
      <trkpt lat="10.10509" lon="-84.16709">
        <ele>1611</ele>
        <time>2022-05-14 15:59:36</time>
      </trkpt>
      <trkpt lat="10.10511" lon="-84.16707">
        <ele>1611.2</ele>
        <time>2022-05-14 15:59:37</time>
      </trkpt>
      <trkpt lat="10.10513" lon="-84.16704">
        <ele>1611.4</ele>
        <time>2022-05-14 15:59:38</time>
      </trkpt>
      <trkpt lat="10.10515" lon="-84.16703">
        <ele>1611.6</ele>
        <time>2022-05-14 15:59:39</time>
      </trkpt>
      <trkpt lat="10.10516" lon="-84.16701">
        <ele>1612</ele>
        <time>2022-05-14 15:59:40</time>
      </trkpt>
      <trkpt lat="10.10518" lon="-84.16698">
        <ele>1612.2</ele>
        <time>2022-05-14 15:59:41</time>
      </trkpt>
      <trkpt lat="10.1052" lon="-84.16697">
        <ele>1612.4</ele>
        <time>2022-05-14 15:59:42</time>
      </trkpt>
      <trkpt lat="10.10522" lon="-84.16695">
        <ele>1612.8</ele>
        <time>2022-05-14 15:59:43</time>
      </trkpt>
      <trkpt lat="10.10523" lon="-84.16693">
        <ele>1613</ele>
        <time>2022-05-14 15:59:44</time>
      </trkpt>
      <trkpt lat="10.10525" lon="-84.16691">
        <ele>1613.4</ele>
        <time>2022-05-14 15:59:45</time>
      </trkpt>
      <trkpt lat="10.10525" lon="-84.16691">
        <ele>1613.6</ele>
        <time>2022-05-14 15:59:46</time>
      </trkpt>
      <trkpt lat="10.10528" lon="-84.16687">
        <ele>1613.8</ele>
        <time>2022-05-14 15:59:47</time>
      </trkpt>
      <trkpt lat="10.10529" lon="-84.16685">
        <ele>1614.2</ele>
        <time>2022-05-14 15:59:48</time>
      </trkpt>
      <trkpt lat="10.10531" lon="-84.16682">
        <ele>1614.6</ele>
        <time>2022-05-14 15:59:49</time>
      </trkpt>
      <trkpt lat="10.10533" lon="-84.16681">
        <ele>1614.6</ele>
        <time>2022-05-14 15:59:50</time>
      </trkpt>
      <trkpt lat="10.10534" lon="-84.1668">
        <ele>1614.8</ele>
        <time>2022-05-14 15:59:51</time>
      </trkpt>
      <trkpt lat="10.10536" lon="-84.16678">
        <ele>1615</ele>
        <time>2022-05-14 15:59:52</time>
      </trkpt>
      <trkpt lat="10.10537" lon="-84.16676">
        <ele>1615.2</ele>
        <time>2022-05-14 15:59:53</time>
      </trkpt>
      <trkpt lat="10.10538" lon="-84.16674">
        <ele>1615.6</ele>
        <time>2022-05-14 15:59:54</time>
      </trkpt>
      <trkpt lat="10.1054" lon="-84.16673">
        <ele>1615.8</ele>
        <time>2022-05-14 15:59:55</time>
      </trkpt>
      <trkpt lat="10.1054" lon="-84.16673">
        <ele>1616</ele>
        <time>2022-05-14 15:59:56</time>
      </trkpt>
      <trkpt lat="10.10543" lon="-84.16669">
        <ele>1616.2</ele>
        <time>2022-05-14 15:59:57</time>
      </trkpt>
      <trkpt lat="10.10545" lon="-84.16667">
        <ele>1616.4</ele>
        <time>2022-05-14 15:59:58</time>
      </trkpt>
      <trkpt lat="10.10546" lon="-84.16666">
        <ele>1616.8</ele>
        <time>2022-05-14 15:59:59</time>
      </trkpt>
      <trkpt lat="10.10548" lon="-84.16664">
        <ele>1617</ele>
        <time>2022-05-14 16:00:00</time>
      </trkpt>
      <trkpt lat="10.10549" lon="-84.16662">
        <ele>1617.4</ele>
        <time>2022-05-14 16:00:01</time>
      </trkpt>
      <trkpt lat="10.10551" lon="-84.16661">
        <ele>1617.6</ele>
        <time>2022-05-14 16:00:02</time>
      </trkpt>
      <trkpt lat="10.10553" lon="-84.1666">
        <ele>1617.8</ele>
        <time>2022-05-14 16:00:03</time>
      </trkpt>
      <trkpt lat="10.10555" lon="-84.16658">
        <ele>1618</ele>
        <time>2022-05-14 16:00:04</time>
      </trkpt>
      <trkpt lat="10.10556" lon="-84.16655">
        <ele>1618.4</ele>
        <time>2022-05-14 16:00:05</time>
      </trkpt>
      <trkpt lat="10.10558" lon="-84.16655">
        <ele>1618.6</ele>
        <time>2022-05-14 16:00:06</time>
      </trkpt>
      <trkpt lat="10.10558" lon="-84.16655">
        <ele>1618.8</ele>
        <time>2022-05-14 16:00:07</time>
      </trkpt>
      <trkpt lat="10.1056" lon="-84.16651">
        <ele>1619.2</ele>
        <time>2022-05-14 16:00:08</time>
      </trkpt>
      <trkpt lat="10.10561" lon="-84.16649">
        <ele>1619.4</ele>
        <time>2022-05-14 16:00:09</time>
      </trkpt>
      <trkpt lat="10.10562" lon="-84.16647">
        <ele>1619.6</ele>
        <time>2022-05-14 16:00:10</time>
      </trkpt>
      <trkpt lat="10.10564" lon="-84.16646">
        <ele>1619.6</ele>
        <time>2022-05-14 16:00:11</time>
      </trkpt>
      <trkpt lat="10.10565" lon="-84.16645">
        <ele>1619.8</ele>
        <time>2022-05-14 16:00:12</time>
      </trkpt>
      <trkpt lat="10.10566" lon="-84.16644">
        <ele>1620</ele>
        <time>2022-05-14 16:00:13</time>
      </trkpt>
      <trkpt lat="10.10568" lon="-84.16642">
        <ele>1620.4</ele>
        <time>2022-05-14 16:00:14</time>
      </trkpt>
      <trkpt lat="10.10569" lon="-84.1664">
        <ele>1620.6</ele>
        <time>2022-05-14 16:00:15</time>
      </trkpt>
      <trkpt lat="10.10569" lon="-84.1664">
        <ele>1620.8</ele>
        <time>2022-05-14 16:00:16</time>
      </trkpt>
      <trkpt lat="10.10569" lon="-84.1664">
        <ele>1621.2</ele>
        <time>2022-05-14 16:00:17</time>
      </trkpt>
      <trkpt lat="10.10574" lon="-84.16635">
        <ele>1621.4</ele>
        <time>2022-05-14 16:00:18</time>
      </trkpt>
      <trkpt lat="10.10575" lon="-84.16633">
        <ele>1621.6</ele>
        <time>2022-05-14 16:00:19</time>
      </trkpt>
      <trkpt lat="10.10577" lon="-84.16632">
        <ele>1621.8</ele>
        <time>2022-05-14 16:00:20</time>
      </trkpt>
      <trkpt lat="10.10579" lon="-84.16631">
        <ele>1622</ele>
        <time>2022-05-14 16:00:21</time>
      </trkpt>
      <trkpt lat="10.10581" lon="-84.16629">
        <ele>1622.2</ele>
        <time>2022-05-14 16:00:22</time>
      </trkpt>
      <trkpt lat="10.10583" lon="-84.16628">
        <ele>1622.4</ele>
        <time>2022-05-14 16:00:23</time>
      </trkpt>
      <trkpt lat="10.10585" lon="-84.16627">
        <ele>1622.6</ele>
        <time>2022-05-14 16:00:24</time>
      </trkpt>
      <trkpt lat="10.10586" lon="-84.16626">
        <ele>1622.8</ele>
        <time>2022-05-14 16:00:25</time>
      </trkpt>
      <trkpt lat="10.10588" lon="-84.16624">
        <ele>1623</ele>
        <time>2022-05-14 16:00:26</time>
      </trkpt>
      <trkpt lat="10.10588" lon="-84.16624">
        <ele>1623.4</ele>
        <time>2022-05-14 16:00:27</time>
      </trkpt>
      <trkpt lat="10.10588" lon="-84.16624">
        <ele>1623.6</ele>
        <time>2022-05-14 16:00:28</time>
      </trkpt>
      <trkpt lat="10.10594" lon="-84.16622">
        <ele>1623.8</ele>
        <time>2022-05-14 16:00:29</time>
      </trkpt>
      <trkpt lat="10.10596" lon="-84.16621">
        <ele>1624</ele>
        <time>2022-05-14 16:00:30</time>
      </trkpt>
      <trkpt lat="10.10598" lon="-84.16621">
        <ele>1624.2</ele>
        <time>2022-05-14 16:00:31</time>
      </trkpt>
      <trkpt lat="10.106" lon="-84.16621">
        <ele>1624.2</ele>
        <time>2022-05-14 16:00:32</time>
      </trkpt>
      <trkpt lat="10.10602" lon="-84.1662">
        <ele>1624.2</ele>
        <time>2022-05-14 16:00:33</time>
      </trkpt>
      <trkpt lat="10.10605" lon="-84.16619">
        <ele>1624.4</ele>
        <time>2022-05-14 16:00:34</time>
      </trkpt>
      <trkpt lat="10.10607" lon="-84.16618">
        <ele>1624.6</ele>
        <time>2022-05-14 16:00:35</time>
      </trkpt>
      <trkpt lat="10.10609" lon="-84.16618">
        <ele>1625</ele>
        <time>2022-05-14 16:00:36</time>
      </trkpt>
      <trkpt lat="10.10609" lon="-84.16618">
        <ele>1625.4</ele>
        <time>2022-05-14 16:00:37</time>
      </trkpt>
      <trkpt lat="10.10614" lon="-84.16618">
        <ele>1625.6</ele>
        <time>2022-05-14 16:00:38</time>
      </trkpt>
      <trkpt lat="10.10616" lon="-84.16618">
        <ele>1625.8</ele>
        <time>2022-05-14 16:00:39</time>
      </trkpt>
      <trkpt lat="10.10618" lon="-84.16618">
        <ele>1626</ele>
        <time>2022-05-14 16:00:40</time>
      </trkpt>
      <trkpt lat="10.1062" lon="-84.16618">
        <ele>1626.2</ele>
        <time>2022-05-14 16:00:41</time>
      </trkpt>
      <trkpt lat="10.10622" lon="-84.16619">
        <ele>1626.4</ele>
        <time>2022-05-14 16:00:42</time>
      </trkpt>
      <trkpt lat="10.10624" lon="-84.1662">
        <ele>1626.6</ele>
        <time>2022-05-14 16:00:43</time>
      </trkpt>
      <trkpt lat="10.10627" lon="-84.1662">
        <ele>1626.8</ele>
        <time>2022-05-14 16:00:44</time>
      </trkpt>
      <trkpt lat="10.10629" lon="-84.16621">
        <ele>1627</ele>
        <time>2022-05-14 16:00:45</time>
      </trkpt>
      <trkpt lat="10.10631" lon="-84.16621">
        <ele>1627.2</ele>
        <time>2022-05-14 16:00:46</time>
      </trkpt>
      <trkpt lat="10.10633" lon="-84.16622">
        <ele>1627.2</ele>
        <time>2022-05-14 16:00:47</time>
      </trkpt>
      <trkpt lat="10.10633" lon="-84.16622">
        <ele>1627.4</ele>
        <time>2022-05-14 16:00:48</time>
      </trkpt>
      <trkpt lat="10.10637" lon="-84.16625">
        <ele>1627.6</ele>
        <time>2022-05-14 16:00:49</time>
      </trkpt>
      <trkpt lat="10.10639" lon="-84.16626">
        <ele>1627.8</ele>
        <time>2022-05-14 16:00:50</time>
      </trkpt>
      <trkpt lat="10.10641" lon="-84.16628">
        <ele>1628</ele>
        <time>2022-05-14 16:00:51</time>
      </trkpt>
      <trkpt lat="10.10643" lon="-84.16628">
        <ele>1628.2</ele>
        <time>2022-05-14 16:00:52</time>
      </trkpt>
      <trkpt lat="10.10646" lon="-84.16629">
        <ele>1628.2</ele>
        <time>2022-05-14 16:00:53</time>
      </trkpt>
      <trkpt lat="10.10648" lon="-84.1663">
        <ele>1628.4</ele>
        <time>2022-05-14 16:00:54</time>
      </trkpt>
      <trkpt lat="10.1065" lon="-84.16631">
        <ele>1628.6</ele>
        <time>2022-05-14 16:00:55</time>
      </trkpt>
      <trkpt lat="10.10652" lon="-84.16631">
        <ele>1628.6</ele>
        <time>2022-05-14 16:00:56</time>
      </trkpt>
      <trkpt lat="10.10652" lon="-84.16631">
        <ele>1628.8</ele>
        <time>2022-05-14 16:00:57</time>
      </trkpt>
      <trkpt lat="10.10652" lon="-84.16631">
        <ele>1629.2</ele>
        <time>2022-05-14 16:00:58</time>
      </trkpt>
      <trkpt lat="10.1066" lon="-84.16635">
        <ele>1629.4</ele>
        <time>2022-05-14 16:00:59</time>
      </trkpt>
      <trkpt lat="10.10662" lon="-84.16635">
        <ele>1629.4</ele>
        <time>2022-05-14 16:01:00</time>
      </trkpt>
      <trkpt lat="10.10665" lon="-84.16635">
        <ele>1629.6</ele>
        <time>2022-05-14 16:01:01</time>
      </trkpt>
      <trkpt lat="10.10667" lon="-84.16636">
        <ele>1629.8</ele>
        <time>2022-05-14 16:01:02</time>
      </trkpt>
      <trkpt lat="10.1067" lon="-84.16636">
        <ele>1630</ele>
        <time>2022-05-14 16:01:03</time>
      </trkpt>
      <trkpt lat="10.10673" lon="-84.16636">
        <ele>1630.4</ele>
        <time>2022-05-14 16:01:04</time>
      </trkpt>
      <trkpt lat="10.10676" lon="-84.16635">
        <ele>1630.6</ele>
        <time>2022-05-14 16:01:05</time>
      </trkpt>
      <trkpt lat="10.10678" lon="-84.16635">
        <ele>1630.8</ele>
        <time>2022-05-14 16:01:06</time>
      </trkpt>
      <trkpt lat="10.10681" lon="-84.16635">
        <ele>1631</ele>
        <time>2022-05-14 16:01:07</time>
      </trkpt>
      <trkpt lat="10.10681" lon="-84.16635">
        <ele>1631.2</ele>
        <time>2022-05-14 16:01:08</time>
      </trkpt>
      <trkpt lat="10.10681" lon="-84.16635">
        <ele>1631.4</ele>
        <time>2022-05-14 16:01:09</time>
      </trkpt>
      <trkpt lat="10.10689" lon="-84.16632">
        <ele>1631.6</ele>
        <time>2022-05-14 16:01:10</time>
      </trkpt>
      <trkpt lat="10.10691" lon="-84.16631">
        <ele>1631.8</ele>
        <time>2022-05-14 16:01:11</time>
      </trkpt>
      <trkpt lat="10.10694" lon="-84.16631">
        <ele>1632</ele>
        <time>2022-05-14 16:01:12</time>
      </trkpt>
      <trkpt lat="10.10696" lon="-84.16629">
        <ele>1632.2</ele>
        <time>2022-05-14 16:01:13</time>
      </trkpt>
      <trkpt lat="10.10698" lon="-84.16628">
        <ele>1632.2</ele>
        <time>2022-05-14 16:01:14</time>
      </trkpt>
      <trkpt lat="10.107" lon="-84.16627">
        <ele>1632.6</ele>
        <time>2022-05-14 16:01:15</time>
      </trkpt>
      <trkpt lat="10.10702" lon="-84.16626">
        <ele>1632.8</ele>
        <time>2022-05-14 16:01:16</time>
      </trkpt>
      <trkpt lat="10.10704" lon="-84.16624">
        <ele>1633</ele>
        <time>2022-05-14 16:01:17</time>
      </trkpt>
      <trkpt lat="10.10704" lon="-84.16624">
        <ele>1633.4</ele>
        <time>2022-05-14 16:01:18</time>
      </trkpt>
      <trkpt lat="10.10704" lon="-84.16624">
        <ele>1633.6</ele>
        <time>2022-05-14 16:01:19</time>
      </trkpt>
      <trkpt lat="10.1071" lon="-84.1662">
        <ele>1634</ele>
        <time>2022-05-14 16:01:20</time>
      </trkpt>
      <trkpt lat="10.10712" lon="-84.16618">
        <ele>1634.2</ele>
        <time>2022-05-14 16:01:21</time>
      </trkpt>
      <trkpt lat="10.10713" lon="-84.16617">
        <ele>1634.4</ele>
        <time>2022-05-14 16:01:22</time>
      </trkpt>
      <trkpt lat="10.10715" lon="-84.16615">
        <ele>1634.8</ele>
        <time>2022-05-14 16:01:23</time>
      </trkpt>
      <trkpt lat="10.10716" lon="-84.16613">
        <ele>1635</ele>
        <time>2022-05-14 16:01:24</time>
      </trkpt>
      <trkpt lat="10.10718" lon="-84.16611">
        <ele>1635.2</ele>
        <time>2022-05-14 16:01:25</time>
      </trkpt>
      <trkpt lat="10.1072" lon="-84.1661">
        <ele>1635.4</ele>
        <time>2022-05-14 16:01:26</time>
      </trkpt>
      <trkpt lat="10.10721" lon="-84.16608">
        <ele>1635.8</ele>
        <time>2022-05-14 16:01:27</time>
      </trkpt>
      <trkpt lat="10.10723" lon="-84.16606">
        <ele>1636</ele>
        <time>2022-05-14 16:01:28</time>
      </trkpt>
      <trkpt lat="10.10723" lon="-84.16606">
        <ele>1636.2</ele>
        <time>2022-05-14 16:01:29</time>
      </trkpt>
      <trkpt lat="10.10726" lon="-84.16603">
        <ele>1636.6</ele>
        <time>2022-05-14 16:01:30</time>
      </trkpt>
      <trkpt lat="10.10727" lon="-84.16601">
        <ele>1636.8</ele>
        <time>2022-05-14 16:01:31</time>
      </trkpt>
      <trkpt lat="10.10729" lon="-84.16599">
        <ele>1637</ele>
        <time>2022-05-14 16:01:32</time>
      </trkpt>
      <trkpt lat="10.1073" lon="-84.16598">
        <ele>1637.2</ele>
        <time>2022-05-14 16:01:33</time>
      </trkpt>
      <trkpt lat="10.10732" lon="-84.16595">
        <ele>1637.4</ele>
        <time>2022-05-14 16:01:34</time>
      </trkpt>
      <trkpt lat="10.10733" lon="-84.16594">
        <ele>1637.4</ele>
        <time>2022-05-14 16:01:35</time>
      </trkpt>
      <trkpt lat="10.10734" lon="-84.16592">
        <ele>1637.6</ele>
        <time>2022-05-14 16:01:36</time>
      </trkpt>
      <trkpt lat="10.10735" lon="-84.16588">
        <ele>1637.8</ele>
        <time>2022-05-14 16:01:37</time>
      </trkpt>
      <trkpt lat="10.10736" lon="-84.16587">
        <ele>1638</ele>
        <time>2022-05-14 16:01:38</time>
      </trkpt>
      <trkpt lat="10.10736" lon="-84.16587">
        <ele>1638.2</ele>
        <time>2022-05-14 16:01:39</time>
      </trkpt>
      <trkpt lat="10.1074" lon="-84.16583">
        <ele>1638.6</ele>
        <time>2022-05-14 16:01:40</time>
      </trkpt>
      <trkpt lat="10.10741" lon="-84.1658">
        <ele>1638.8</ele>
        <time>2022-05-14 16:01:41</time>
      </trkpt>
      <trkpt lat="10.10742" lon="-84.16578">
        <ele>1639</ele>
        <time>2022-05-14 16:01:42</time>
      </trkpt>
      <trkpt lat="10.10744" lon="-84.16576">
        <ele>1639.2</ele>
        <time>2022-05-14 16:01:43</time>
      </trkpt>
      <trkpt lat="10.10745" lon="-84.16574">
        <ele>1639.6</ele>
        <time>2022-05-14 16:01:44</time>
      </trkpt>
      <trkpt lat="10.10747" lon="-84.16572">
        <ele>1639.8</ele>
        <time>2022-05-14 16:01:45</time>
      </trkpt>
      <trkpt lat="10.10748" lon="-84.16571">
        <ele>1640</ele>
        <time>2022-05-14 16:01:46</time>
      </trkpt>
      <trkpt lat="10.1075" lon="-84.1657">
        <ele>1640.4</ele>
        <time>2022-05-14 16:01:47</time>
      </trkpt>
      <trkpt lat="10.10752" lon="-84.16568">
        <ele>1640.6</ele>
        <time>2022-05-14 16:01:48</time>
      </trkpt>
      <trkpt lat="10.10754" lon="-84.16566">
        <ele>1640.8</ele>
        <time>2022-05-14 16:01:49</time>
      </trkpt>
      <trkpt lat="10.10754" lon="-84.16566">
        <ele>1641</ele>
        <time>2022-05-14 16:01:50</time>
      </trkpt>
      <trkpt lat="10.10757" lon="-84.16563">
        <ele>1641.2</ele>
        <time>2022-05-14 16:01:51</time>
      </trkpt>
      <trkpt lat="10.10759" lon="-84.16561">
        <ele>1641.6</ele>
        <time>2022-05-14 16:01:52</time>
      </trkpt>
      <trkpt lat="10.1076" lon="-84.16559">
        <ele>1641.8</ele>
        <time>2022-05-14 16:01:53</time>
      </trkpt>
      <trkpt lat="10.10762" lon="-84.16558">
        <ele>1642</ele>
        <time>2022-05-14 16:01:54</time>
      </trkpt>
      <trkpt lat="10.10763" lon="-84.16557">
        <ele>1642.2</ele>
        <time>2022-05-14 16:01:55</time>
      </trkpt>
      <trkpt lat="10.10765" lon="-84.16555">
        <ele>1642.2</ele>
        <time>2022-05-14 16:01:56</time>
      </trkpt>
      <trkpt lat="10.10767" lon="-84.16554">
        <ele>1642.6</ele>
        <time>2022-05-14 16:01:57</time>
      </trkpt>
      <trkpt lat="10.10768" lon="-84.16552">
        <ele>1642.8</ele>
        <time>2022-05-14 16:01:58</time>
      </trkpt>
      <trkpt lat="10.10768" lon="-84.16552">
        <ele>1643.2</ele>
        <time>2022-05-14 16:01:59</time>
      </trkpt>
      <trkpt lat="10.10768" lon="-84.16552">
        <ele>1643.4</ele>
        <time>2022-05-14 16:02:00</time>
      </trkpt>
      <trkpt lat="10.10772" lon="-84.16548">
        <ele>1643.8</ele>
        <time>2022-05-14 16:02:01</time>
      </trkpt>
      <trkpt lat="10.10774" lon="-84.16546">
        <ele>1644</ele>
        <time>2022-05-14 16:02:02</time>
      </trkpt>
      <trkpt lat="10.10775" lon="-84.16543">
        <ele>1644.2</ele>
        <time>2022-05-14 16:02:03</time>
      </trkpt>
      <trkpt lat="10.10777" lon="-84.16542">
        <ele>1644.4</ele>
        <time>2022-05-14 16:02:04</time>
      </trkpt>
      <trkpt lat="10.10779" lon="-84.16541">
        <ele>1644.6</ele>
        <time>2022-05-14 16:02:05</time>
      </trkpt>
      <trkpt lat="10.1078" lon="-84.16539">
        <ele>1644.8</ele>
        <time>2022-05-14 16:02:06</time>
      </trkpt>
      <trkpt lat="10.10781" lon="-84.16537">
        <ele>1645.2</ele>
        <time>2022-05-14 16:02:07</time>
      </trkpt>
      <trkpt lat="10.10783" lon="-84.16535">
        <ele>1645.4</ele>
        <time>2022-05-14 16:02:08</time>
      </trkpt>
      <trkpt lat="10.10783" lon="-84.16533">
        <ele>1645.6</ele>
        <time>2022-05-14 16:02:09</time>
      </trkpt>
      <trkpt lat="10.10783" lon="-84.16533">
        <ele>1645.8</ele>
        <time>2022-05-14 16:02:10</time>
      </trkpt>
      <trkpt lat="10.10783" lon="-84.16533">
        <ele>1646.2</ele>
        <time>2022-05-14 16:02:11</time>
      </trkpt>
      <trkpt lat="10.10787" lon="-84.16527">
        <ele>1646.4</ele>
        <time>2022-05-14 16:02:12</time>
      </trkpt>
      <trkpt lat="10.10788" lon="-84.16525">
        <ele>1646.8</ele>
        <time>2022-05-14 16:02:13</time>
      </trkpt>
      <trkpt lat="10.10789" lon="-84.16523">
        <ele>1647</ele>
        <time>2022-05-14 16:02:14</time>
      </trkpt>
      <trkpt lat="10.1079" lon="-84.16521">
        <ele>1647.4</ele>
        <time>2022-05-14 16:02:15</time>
      </trkpt>
      <trkpt lat="10.10791" lon="-84.16519">
        <ele>1647.6</ele>
        <time>2022-05-14 16:02:16</time>
      </trkpt>
      <trkpt lat="10.10792" lon="-84.16518">
        <ele>1647.6</ele>
        <time>2022-05-14 16:02:17</time>
      </trkpt>
      <trkpt lat="10.10793" lon="-84.16515">
        <ele>1648</ele>
        <time>2022-05-14 16:02:18</time>
      </trkpt>
      <trkpt lat="10.10794" lon="-84.16514">
        <ele>1648.2</ele>
        <time>2022-05-14 16:02:19</time>
      </trkpt>
      <trkpt lat="10.10794" lon="-84.16514">
        <ele>1648.4</ele>
        <time>2022-05-14 16:02:20</time>
      </trkpt>
      <trkpt lat="10.10796" lon="-84.1651">
        <ele>1648.8</ele>
        <time>2022-05-14 16:02:21</time>
      </trkpt>
      <trkpt lat="10.10797" lon="-84.16508">
        <ele>1649</ele>
        <time>2022-05-14 16:02:22</time>
      </trkpt>
      <trkpt lat="10.10798" lon="-84.16505">
        <ele>1649.2</ele>
        <time>2022-05-14 16:02:23</time>
      </trkpt>
      <trkpt lat="10.10799" lon="-84.16504">
        <ele>1649.4</ele>
        <time>2022-05-14 16:02:24</time>
      </trkpt>
      <trkpt lat="10.108" lon="-84.16503">
        <ele>1649.8</ele>
        <time>2022-05-14 16:02:25</time>
      </trkpt>
      <trkpt lat="10.10801" lon="-84.165">
        <ele>1650</ele>
        <time>2022-05-14 16:02:26</time>
      </trkpt>
      <trkpt lat="10.10802" lon="-84.16498">
        <ele>1650.2</ele>
        <time>2022-05-14 16:02:27</time>
      </trkpt>
      <trkpt lat="10.10804" lon="-84.16496">
        <ele>1650.4</ele>
        <time>2022-05-14 16:02:28</time>
      </trkpt>
      <trkpt lat="10.10806" lon="-84.16494">
        <ele>1650.6</ele>
        <time>2022-05-14 16:02:29</time>
      </trkpt>
      <trkpt lat="10.10807" lon="-84.16492">
        <ele>1650.8</ele>
        <time>2022-05-14 16:02:30</time>
      </trkpt>
      <trkpt lat="10.10807" lon="-84.16492">
        <ele>1651</ele>
        <time>2022-05-14 16:02:31</time>
      </trkpt>
      <trkpt lat="10.1081" lon="-84.16488">
        <ele>1651.2</ele>
        <time>2022-05-14 16:02:32</time>
      </trkpt>
      <trkpt lat="10.10812" lon="-84.16487">
        <ele>1651.6</ele>
        <time>2022-05-14 16:02:33</time>
      </trkpt>
      <trkpt lat="10.10814" lon="-84.16485">
        <ele>1651.6</ele>
        <time>2022-05-14 16:02:34</time>
      </trkpt>
      <trkpt lat="10.10816" lon="-84.16483">
        <ele>1651.8</ele>
        <time>2022-05-14 16:02:35</time>
      </trkpt>
      <trkpt lat="10.10818" lon="-84.16481">
        <ele>1652</ele>
        <time>2022-05-14 16:02:36</time>
      </trkpt>
      <trkpt lat="10.10821" lon="-84.1648">
        <ele>1652.2</ele>
        <time>2022-05-14 16:02:37</time>
      </trkpt>
      <trkpt lat="10.10823" lon="-84.16478">
        <ele>1652.2</ele>
        <time>2022-05-14 16:02:38</time>
      </trkpt>
      <trkpt lat="10.10825" lon="-84.16476">
        <ele>1652.4</ele>
        <time>2022-05-14 16:02:39</time>
      </trkpt>
      <trkpt lat="10.10825" lon="-84.16476">
        <ele>1652.6</ele>
        <time>2022-05-14 16:02:40</time>
      </trkpt>
      <trkpt lat="10.10825" lon="-84.16476">
        <ele>1652.8</ele>
        <time>2022-05-14 16:02:41</time>
      </trkpt>
      <trkpt lat="10.1083" lon="-84.16473">
        <ele>1653</ele>
        <time>2022-05-14 16:02:42</time>
      </trkpt>
      <trkpt lat="10.10832" lon="-84.1647">
        <ele>1653.2</ele>
        <time>2022-05-14 16:02:43</time>
      </trkpt>
      <trkpt lat="10.10834" lon="-84.16469">
        <ele>1653.4</ele>
        <time>2022-05-14 16:02:44</time>
      </trkpt>
      <trkpt lat="10.10836" lon="-84.16468">
        <ele>1653.6</ele>
        <time>2022-05-14 16:02:45</time>
      </trkpt>
      <trkpt lat="10.10838" lon="-84.16467">
        <ele>1654</ele>
        <time>2022-05-14 16:02:46</time>
      </trkpt>
      <trkpt lat="10.1084" lon="-84.16465">
        <ele>1654</ele>
        <time>2022-05-14 16:02:47</time>
      </trkpt>
      <trkpt lat="10.10842" lon="-84.16463">
        <ele>1654.2</ele>
        <time>2022-05-14 16:02:48</time>
      </trkpt>
      <trkpt lat="10.10845" lon="-84.16463">
        <ele>1654.4</ele>
        <time>2022-05-14 16:02:49</time>
      </trkpt>
      <trkpt lat="10.10847" lon="-84.16461">
        <ele>1654.8</ele>
        <time>2022-05-14 16:02:50</time>
      </trkpt>
      <trkpt lat="10.10847" lon="-84.16461">
        <ele>1655</ele>
        <time>2022-05-14 16:02:51</time>
      </trkpt>
      <trkpt lat="10.10847" lon="-84.16461">
        <ele>1655.2</ele>
        <time>2022-05-14 16:02:52</time>
      </trkpt>
      <trkpt lat="10.10853" lon="-84.16458">
        <ele>1655.4</ele>
        <time>2022-05-14 16:02:53</time>
      </trkpt>
      <trkpt lat="10.10855" lon="-84.16456">
        <ele>1655.6</ele>
        <time>2022-05-14 16:02:54</time>
      </trkpt>
      <trkpt lat="10.10857" lon="-84.16456">
        <ele>1656</ele>
        <time>2022-05-14 16:02:55</time>
      </trkpt>
      <trkpt lat="10.10859" lon="-84.16454">
        <ele>1656.2</ele>
        <time>2022-05-14 16:02:56</time>
      </trkpt>
      <trkpt lat="10.10861" lon="-84.16453">
        <ele>1656.4</ele>
        <time>2022-05-14 16:02:57</time>
      </trkpt>
      <trkpt lat="10.10863" lon="-84.16452">
        <ele>1656.6</ele>
        <time>2022-05-14 16:02:58</time>
      </trkpt>
      <trkpt lat="10.10866" lon="-84.16451">
        <ele>1656.6</ele>
        <time>2022-05-14 16:02:59</time>
      </trkpt>
      <trkpt lat="10.10868" lon="-84.16449">
        <ele>1656.8</ele>
        <time>2022-05-14 16:03:00</time>
      </trkpt>
      <trkpt lat="10.10868" lon="-84.16449">
        <ele>1657</ele>
        <time>2022-05-14 16:03:01</time>
      </trkpt>
      <trkpt lat="10.10873" lon="-84.16448">
        <ele>1657.4</ele>
        <time>2022-05-14 16:03:02</time>
      </trkpt>
      <trkpt lat="10.10875" lon="-84.16447">
        <ele>1657.6</ele>
        <time>2022-05-14 16:03:03</time>
      </trkpt>
      <trkpt lat="10.10877" lon="-84.16447">
        <ele>1657.8</ele>
        <time>2022-05-14 16:03:04</time>
      </trkpt>
      <trkpt lat="10.1088" lon="-84.16445">
        <ele>1658</ele>
        <time>2022-05-14 16:03:05</time>
      </trkpt>
      <trkpt lat="10.10882" lon="-84.16445">
        <ele>1658.4</ele>
        <time>2022-05-14 16:03:06</time>
      </trkpt>
      <trkpt lat="10.10884" lon="-84.16444">
        <ele>1658.6</ele>
        <time>2022-05-14 16:03:07</time>
      </trkpt>
      <trkpt lat="10.10886" lon="-84.16444">
        <ele>1658.8</ele>
        <time>2022-05-14 16:03:08</time>
      </trkpt>
      <trkpt lat="10.10889" lon="-84.16443">
        <ele>1659</ele>
        <time>2022-05-14 16:03:09</time>
      </trkpt>
      <trkpt lat="10.10891" lon="-84.16443">
        <ele>1659.2</ele>
        <time>2022-05-14 16:03:10</time>
      </trkpt>
      <trkpt lat="10.10894" lon="-84.16442">
        <ele>1659.4</ele>
        <time>2022-05-14 16:03:11</time>
      </trkpt>
      <trkpt lat="10.10894" lon="-84.16442">
        <ele>1659.6</ele>
        <time>2022-05-14 16:03:12</time>
      </trkpt>
      <trkpt lat="10.10898" lon="-84.16441">
        <ele>1659.8</ele>
        <time>2022-05-14 16:03:13</time>
      </trkpt>
      <trkpt lat="10.109" lon="-84.1644">
        <ele>1660.2</ele>
        <time>2022-05-14 16:03:14</time>
      </trkpt>
      <trkpt lat="10.10902" lon="-84.1644">
        <ele>1660.4</ele>
        <time>2022-05-14 16:03:15</time>
      </trkpt>
      <trkpt lat="10.10905" lon="-84.1644">
        <ele>1660.6</ele>
        <time>2022-05-14 16:03:16</time>
      </trkpt>
      <trkpt lat="10.10906" lon="-84.16439">
        <ele>1660.8</ele>
        <time>2022-05-14 16:03:17</time>
      </trkpt>
      <trkpt lat="10.10909" lon="-84.16438">
        <ele>1661</ele>
        <time>2022-05-14 16:03:18</time>
      </trkpt>
      <trkpt lat="10.10911" lon="-84.16439">
        <ele>1661.2</ele>
        <time>2022-05-14 16:03:19</time>
      </trkpt>
      <trkpt lat="10.10913" lon="-84.16439">
        <ele>1661.2</ele>
        <time>2022-05-14 16:03:20</time>
      </trkpt>
      <trkpt lat="10.10915" lon="-84.16438">
        <ele>1661.4</ele>
        <time>2022-05-14 16:03:21</time>
      </trkpt>
      <trkpt lat="10.10915" lon="-84.16438">
        <ele>1661.8</ele>
        <time>2022-05-14 16:03:22</time>
      </trkpt>
      <trkpt lat="10.10919" lon="-84.16438">
        <ele>1662</ele>
        <time>2022-05-14 16:03:23</time>
      </trkpt>
      <trkpt lat="10.10921" lon="-84.16438">
        <ele>1662.2</ele>
        <time>2022-05-14 16:03:24</time>
      </trkpt>
      <trkpt lat="10.10923" lon="-84.16438">
        <ele>1662.4</ele>
        <time>2022-05-14 16:03:25</time>
      </trkpt>
      <trkpt lat="10.10926" lon="-84.16437">
        <ele>1662.8</ele>
        <time>2022-05-14 16:03:26</time>
      </trkpt>
      <trkpt lat="10.10928" lon="-84.16437">
        <ele>1663</ele>
        <time>2022-05-14 16:03:27</time>
      </trkpt>
      <trkpt lat="10.1093" lon="-84.16436">
        <ele>1663.4</ele>
        <time>2022-05-14 16:03:28</time>
      </trkpt>
      <trkpt lat="10.10932" lon="-84.16435">
        <ele>1663.6</ele>
        <time>2022-05-14 16:03:29</time>
      </trkpt>
      <trkpt lat="10.10935" lon="-84.16434">
        <ele>1663.8</ele>
        <time>2022-05-14 16:03:30</time>
      </trkpt>
      <trkpt lat="10.10937" lon="-84.16434">
        <ele>1664.2</ele>
        <time>2022-05-14 16:03:31</time>
      </trkpt>
      <trkpt lat="10.10937" lon="-84.16434">
        <ele>1664.4</ele>
        <time>2022-05-14 16:03:32</time>
      </trkpt>
      <trkpt lat="10.10937" lon="-84.16434">
        <ele>1664.6</ele>
        <time>2022-05-14 16:03:33</time>
      </trkpt>
      <trkpt lat="10.10943" lon="-84.16434">
        <ele>1664.8</ele>
        <time>2022-05-14 16:03:34</time>
      </trkpt>
      <trkpt lat="10.10945" lon="-84.16433">
        <ele>1665.2</ele>
        <time>2022-05-14 16:03:35</time>
      </trkpt>
      <trkpt lat="10.10948" lon="-84.16434">
        <ele>1665.4</ele>
        <time>2022-05-14 16:03:36</time>
      </trkpt>
      <trkpt lat="10.10949" lon="-84.16434">
        <ele>1665.8</ele>
        <time>2022-05-14 16:03:37</time>
      </trkpt>
      <trkpt lat="10.10951" lon="-84.16433">
        <ele>1666</ele>
        <time>2022-05-14 16:03:38</time>
      </trkpt>
      <trkpt lat="10.10953" lon="-84.16434">
        <ele>1666.2</ele>
        <time>2022-05-14 16:03:39</time>
      </trkpt>
      <trkpt lat="10.10955" lon="-84.16434">
        <ele>1666.6</ele>
        <time>2022-05-14 16:03:40</time>
      </trkpt>
      <trkpt lat="10.10957" lon="-84.16434">
        <ele>1666.6</ele>
        <time>2022-05-14 16:03:41</time>
      </trkpt>
      <trkpt lat="10.10957" lon="-84.16434">
        <ele>1666.8</ele>
        <time>2022-05-14 16:03:42</time>
      </trkpt>
      <trkpt lat="10.10957" lon="-84.16434">
        <ele>1667.2</ele>
        <time>2022-05-14 16:03:43</time>
      </trkpt>
      <trkpt lat="10.10964" lon="-84.16433">
        <ele>1667.4</ele>
        <time>2022-05-14 16:03:44</time>
      </trkpt>
      <trkpt lat="10.10966" lon="-84.16433">
        <ele>1667.6</ele>
        <time>2022-05-14 16:03:45</time>
      </trkpt>
      <trkpt lat="10.10968" lon="-84.16433">
        <ele>1668</ele>
        <time>2022-05-14 16:03:46</time>
      </trkpt>
      <trkpt lat="10.1097" lon="-84.16432">
        <ele>1668.2</ele>
        <time>2022-05-14 16:03:47</time>
      </trkpt>
      <trkpt lat="10.10972" lon="-84.16432">
        <ele>1668.6</ele>
        <time>2022-05-14 16:03:48</time>
      </trkpt>
      <trkpt lat="10.10974" lon="-84.16431">
        <ele>1668.8</ele>
        <time>2022-05-14 16:03:49</time>
      </trkpt>
      <trkpt lat="10.10976" lon="-84.16431">
        <ele>1669.2</ele>
        <time>2022-05-14 16:03:50</time>
      </trkpt>
      <trkpt lat="10.10978" lon="-84.16431">
        <ele>1669.4</ele>
        <time>2022-05-14 16:03:51</time>
      </trkpt>
      <trkpt lat="10.10981" lon="-84.16431">
        <ele>1669.6</ele>
        <time>2022-05-14 16:03:52</time>
      </trkpt>
      <trkpt lat="10.10981" lon="-84.16431">
        <ele>1670</ele>
        <time>2022-05-14 16:03:53</time>
      </trkpt>
      <trkpt lat="10.10981" lon="-84.16431">
        <ele>1670.2</ele>
        <time>2022-05-14 16:03:54</time>
      </trkpt>
      <trkpt lat="10.10987" lon="-84.1643">
        <ele>1670.6</ele>
        <time>2022-05-14 16:03:55</time>
      </trkpt>
      <trkpt lat="10.10989" lon="-84.16429">
        <ele>1670.8</ele>
        <time>2022-05-14 16:03:56</time>
      </trkpt>
      <trkpt lat="10.10991" lon="-84.16429">
        <ele>1671</ele>
        <time>2022-05-14 16:03:57</time>
      </trkpt>
      <trkpt lat="10.10993" lon="-84.16429">
        <ele>1671.2</ele>
        <time>2022-05-14 16:03:58</time>
      </trkpt>
      <trkpt lat="10.10995" lon="-84.16427">
        <ele>1671.4</ele>
        <time>2022-05-14 16:03:59</time>
      </trkpt>
      <trkpt lat="10.10997" lon="-84.16427">
        <ele>1671.8</ele>
        <time>2022-05-14 16:04:00</time>
      </trkpt>
      <trkpt lat="10.11" lon="-84.16426">
        <ele>1672</ele>
        <time>2022-05-14 16:04:01</time>
      </trkpt>
      <trkpt lat="10.11002" lon="-84.16425">
        <ele>1672</ele>
        <time>2022-05-14 16:04:02</time>
      </trkpt>
      <trkpt lat="10.11002" lon="-84.16425">
        <ele>1672.4</ele>
        <time>2022-05-14 16:04:03</time>
      </trkpt>
      <trkpt lat="10.11007" lon="-84.16424">
        <ele>1672.8</ele>
        <time>2022-05-14 16:04:04</time>
      </trkpt>
      <trkpt lat="10.1101" lon="-84.16423">
        <ele>1673</ele>
        <time>2022-05-14 16:04:05</time>
      </trkpt>
      <trkpt lat="10.11013" lon="-84.16423">
        <ele>1673.4</ele>
        <time>2022-05-14 16:04:06</time>
      </trkpt>
      <trkpt lat="10.11016" lon="-84.16422">
        <ele>1673.6</ele>
        <time>2022-05-14 16:04:07</time>
      </trkpt>
      <trkpt lat="10.11018" lon="-84.16422">
        <ele>1674</ele>
        <time>2022-05-14 16:04:08</time>
      </trkpt>
      <trkpt lat="10.11021" lon="-84.16422">
        <ele>1674.2</ele>
        <time>2022-05-14 16:04:09</time>
      </trkpt>
      <trkpt lat="10.11023" lon="-84.16423">
        <ele>1674.4</ele>
        <time>2022-05-14 16:04:10</time>
      </trkpt>
      <trkpt lat="10.11026" lon="-84.16423">
        <ele>1674.6</ele>
        <time>2022-05-14 16:04:11</time>
      </trkpt>
      <trkpt lat="10.11029" lon="-84.16423">
        <ele>1675</ele>
        <time>2022-05-14 16:04:12</time>
      </trkpt>
      <trkpt lat="10.11031" lon="-84.16423">
        <ele>1675.2</ele>
        <time>2022-05-14 16:04:13</time>
      </trkpt>
      <trkpt lat="10.11031" lon="-84.16423">
        <ele>1675.4</ele>
        <time>2022-05-14 16:04:14</time>
      </trkpt>
      <trkpt lat="10.11036" lon="-84.16422">
        <ele>1675.8</ele>
        <time>2022-05-14 16:04:15</time>
      </trkpt>
      <trkpt lat="10.11039" lon="-84.16422">
        <ele>1676</ele>
        <time>2022-05-14 16:04:16</time>
      </trkpt>
      <trkpt lat="10.11041" lon="-84.16422">
        <ele>1676.4</ele>
        <time>2022-05-14 16:04:17</time>
      </trkpt>
      <trkpt lat="10.11043" lon="-84.16421">
        <ele>1676.6</ele>
        <time>2022-05-14 16:04:18</time>
      </trkpt>
      <trkpt lat="10.11045" lon="-84.1642">
        <ele>1676.8</ele>
        <time>2022-05-14 16:04:19</time>
      </trkpt>
      <trkpt lat="10.11048" lon="-84.1642">
        <ele>1677.2</ele>
        <time>2022-05-14 16:04:20</time>
      </trkpt>
      <trkpt lat="10.11051" lon="-84.1642">
        <ele>1677.6</ele>
        <time>2022-05-14 16:04:21</time>
      </trkpt>
      <trkpt lat="10.11053" lon="-84.16419">
        <ele>1678</ele>
        <time>2022-05-14 16:04:22</time>
      </trkpt>
      <trkpt lat="10.11053" lon="-84.16419">
        <ele>1678</ele>
        <time>2022-05-14 16:04:23</time>
      </trkpt>
      <trkpt lat="10.11053" lon="-84.16419">
        <ele>1678.2</ele>
        <time>2022-05-14 16:04:24</time>
      </trkpt>
      <trkpt lat="10.1106" lon="-84.16418">
        <ele>1678.6</ele>
        <time>2022-05-14 16:04:25</time>
      </trkpt>
      <trkpt lat="10.11063" lon="-84.16418">
        <ele>1679</ele>
        <time>2022-05-14 16:04:26</time>
      </trkpt>
      <trkpt lat="10.11065" lon="-84.16418">
        <ele>1679.2</ele>
        <time>2022-05-14 16:04:27</time>
      </trkpt>
      <trkpt lat="10.11068" lon="-84.16417">
        <ele>1679.4</ele>
        <time>2022-05-14 16:04:28</time>
      </trkpt>
      <trkpt lat="10.1107" lon="-84.16416">
        <ele>1679.8</ele>
        <time>2022-05-14 16:04:29</time>
      </trkpt>
      <trkpt lat="10.11073" lon="-84.16415">
        <ele>1680</ele>
        <time>2022-05-14 16:04:30</time>
      </trkpt>
      <trkpt lat="10.11075" lon="-84.16414">
        <ele>1680.4</ele>
        <time>2022-05-14 16:04:31</time>
      </trkpt>
      <trkpt lat="10.11077" lon="-84.16413">
        <ele>1680.6</ele>
        <time>2022-05-14 16:04:32</time>
      </trkpt>
      <trkpt lat="10.11079" lon="-84.16412">
        <ele>1681</ele>
        <time>2022-05-14 16:04:33</time>
      </trkpt>
      <trkpt lat="10.11079" lon="-84.16412">
        <ele>1681.2</ele>
        <time>2022-05-14 16:04:34</time>
      </trkpt>
      <trkpt lat="10.11079" lon="-84.16412">
        <ele>1681.6</ele>
        <time>2022-05-14 16:04:35</time>
      </trkpt>
      <trkpt lat="10.11087" lon="-84.16411">
        <ele>1681.8</ele>
        <time>2022-05-14 16:04:36</time>
      </trkpt>
      <trkpt lat="10.11088" lon="-84.16411">
        <ele>1682.2</ele>
        <time>2022-05-14 16:04:37</time>
      </trkpt>
      <trkpt lat="10.1109" lon="-84.16411">
        <ele>1682.4</ele>
        <time>2022-05-14 16:04:38</time>
      </trkpt>
      <trkpt lat="10.11091" lon="-84.1641">
        <ele>1682.6</ele>
        <time>2022-05-14 16:04:39</time>
      </trkpt>
      <trkpt lat="10.11093" lon="-84.16409">
        <ele>1682.8</ele>
        <time>2022-05-14 16:04:40</time>
      </trkpt>
      <trkpt lat="10.11094" lon="-84.16409">
        <ele>1683</ele>
        <time>2022-05-14 16:04:41</time>
      </trkpt>
      <trkpt lat="10.11096" lon="-84.16409">
        <ele>1683.2</ele>
        <time>2022-05-14 16:04:42</time>
      </trkpt>
      <trkpt lat="10.11098" lon="-84.16409">
        <ele>1683.4</ele>
        <time>2022-05-14 16:04:43</time>
      </trkpt>
      <trkpt lat="10.11098" lon="-84.16409">
        <ele>1683.4</ele>
        <time>2022-05-14 16:04:44</time>
      </trkpt>
      <trkpt lat="10.11098" lon="-84.16409">
        <ele>1683.8</ele>
        <time>2022-05-14 16:04:45</time>
      </trkpt>
      <trkpt lat="10.11103" lon="-84.16406">
        <ele>1684</ele>
        <time>2022-05-14 16:04:46</time>
      </trkpt>
      <trkpt lat="10.11105" lon="-84.16405">
        <ele>1684.2</ele>
        <time>2022-05-14 16:04:47</time>
      </trkpt>
      <trkpt lat="10.11107" lon="-84.16405">
        <ele>1684.4</ele>
        <time>2022-05-14 16:04:48</time>
      </trkpt>
      <trkpt lat="10.11109" lon="-84.16404">
        <ele>1684.8</ele>
        <time>2022-05-14 16:04:49</time>
      </trkpt>
      <trkpt lat="10.11111" lon="-84.16403">
        <ele>1685</ele>
        <time>2022-05-14 16:04:50</time>
      </trkpt>
      <trkpt lat="10.11112" lon="-84.16402">
        <ele>1685.2</ele>
        <time>2022-05-14 16:04:51</time>
      </trkpt>
      <trkpt lat="10.11114" lon="-84.16401">
        <ele>1685.6</ele>
        <time>2022-05-14 16:04:52</time>
      </trkpt>
      <trkpt lat="10.11116" lon="-84.164">
        <ele>1686</ele>
        <time>2022-05-14 16:04:53</time>
      </trkpt>
      <trkpt lat="10.11119" lon="-84.16399">
        <ele>1686.2</ele>
        <time>2022-05-14 16:04:54</time>
      </trkpt>
      <trkpt lat="10.11119" lon="-84.16399">
        <ele>1686.6</ele>
        <time>2022-05-14 16:04:55</time>
      </trkpt>
      <trkpt lat="10.11122" lon="-84.16396">
        <ele>1686.8</ele>
        <time>2022-05-14 16:04:56</time>
      </trkpt>
      <trkpt lat="10.11124" lon="-84.16395">
        <ele>1687.2</ele>
        <time>2022-05-14 16:04:57</time>
      </trkpt>
      <trkpt lat="10.11126" lon="-84.16393">
        <ele>1687.4</ele>
        <time>2022-05-14 16:04:58</time>
      </trkpt>
      <trkpt lat="10.11128" lon="-84.16392">
        <ele>1687.8</ele>
        <time>2022-05-14 16:04:59</time>
      </trkpt>
      <trkpt lat="10.11129" lon="-84.16391">
        <ele>1688</ele>
        <time>2022-05-14 16:05:00</time>
      </trkpt>
      <trkpt lat="10.11131" lon="-84.16389">
        <ele>1688.2</ele>
        <time>2022-05-14 16:05:01</time>
      </trkpt>
      <trkpt lat="10.11133" lon="-84.16388">
        <ele>1688.4</ele>
        <time>2022-05-14 16:05:02</time>
      </trkpt>
      <trkpt lat="10.11134" lon="-84.16387">
        <ele>1688.8</ele>
        <time>2022-05-14 16:05:03</time>
      </trkpt>
      <trkpt lat="10.11136" lon="-84.16386">
        <ele>1689</ele>
        <time>2022-05-14 16:05:04</time>
      </trkpt>
      <trkpt lat="10.11136" lon="-84.16386">
        <ele>1689</ele>
        <time>2022-05-14 16:05:05</time>
      </trkpt>
      <trkpt lat="10.11139" lon="-84.16384">
        <ele>1689.2</ele>
        <time>2022-05-14 16:05:06</time>
      </trkpt>
      <trkpt lat="10.11141" lon="-84.16382">
        <ele>1689.4</ele>
        <time>2022-05-14 16:05:07</time>
      </trkpt>
      <trkpt lat="10.11142" lon="-84.16382">
        <ele>1689.6</ele>
        <time>2022-05-14 16:05:08</time>
      </trkpt>
      <trkpt lat="10.11144" lon="-84.16381">
        <ele>1689.8</ele>
        <time>2022-05-14 16:05:09</time>
      </trkpt>
      <trkpt lat="10.11146" lon="-84.1638">
        <ele>1690.2</ele>
        <time>2022-05-14 16:05:10</time>
      </trkpt>
      <trkpt lat="10.11147" lon="-84.1638">
        <ele>1690.4</ele>
        <time>2022-05-14 16:05:11</time>
      </trkpt>
      <trkpt lat="10.11149" lon="-84.1638">
        <ele>1690.6</ele>
        <time>2022-05-14 16:05:12</time>
      </trkpt>
      <trkpt lat="10.1115" lon="-84.16379">
        <ele>1691</ele>
        <time>2022-05-14 16:05:13</time>
      </trkpt>
      <trkpt lat="10.11152" lon="-84.16378">
        <ele>1691.2</ele>
        <time>2022-05-14 16:05:14</time>
      </trkpt>
      <trkpt lat="10.11154" lon="-84.16377">
        <ele>1691.4</ele>
        <time>2022-05-14 16:05:15</time>
      </trkpt>
      <trkpt lat="10.11154" lon="-84.16377">
        <ele>1691.6</ele>
        <time>2022-05-14 16:05:16</time>
      </trkpt>
      <trkpt lat="10.11156" lon="-84.16377">
        <ele>1691.8</ele>
        <time>2022-05-14 16:05:17</time>
      </trkpt>
      <trkpt lat="10.11158" lon="-84.16377">
        <ele>1692</ele>
        <time>2022-05-14 16:05:18</time>
      </trkpt>
      <trkpt lat="10.1116" lon="-84.16377">
        <ele>1692.2</ele>
        <time>2022-05-14 16:05:19</time>
      </trkpt>
      <trkpt lat="10.11161" lon="-84.16376">
        <ele>1692.4</ele>
        <time>2022-05-14 16:05:20</time>
      </trkpt>
      <trkpt lat="10.11162" lon="-84.16375">
        <ele>1692.8</ele>
        <time>2022-05-14 16:05:21</time>
      </trkpt>
      <trkpt lat="10.11163" lon="-84.16375">
        <ele>1693</ele>
        <time>2022-05-14 16:05:22</time>
      </trkpt>
      <trkpt lat="10.11164" lon="-84.16374">
        <ele>1693.2</ele>
        <time>2022-05-14 16:05:23</time>
      </trkpt>
      <trkpt lat="10.11166" lon="-84.16373">
        <ele>1693.4</ele>
        <time>2022-05-14 16:05:24</time>
      </trkpt>
      <trkpt lat="10.11166" lon="-84.16373">
        <ele>1693.6</ele>
        <time>2022-05-14 16:05:25</time>
      </trkpt>
      <trkpt lat="10.11166" lon="-84.16373">
        <ele>1693.6</ele>
        <time>2022-05-14 16:05:26</time>
      </trkpt>
      <trkpt lat="10.11171" lon="-84.16372">
        <ele>1693.8</ele>
        <time>2022-05-14 16:05:27</time>
      </trkpt>
      <trkpt lat="10.11172" lon="-84.16371">
        <ele>1694</ele>
        <time>2022-05-14 16:05:28</time>
      </trkpt>
      <trkpt lat="10.11174" lon="-84.16371">
        <ele>1694.2</ele>
        <time>2022-05-14 16:05:29</time>
      </trkpt>
      <trkpt lat="10.11176" lon="-84.16371">
        <ele>1694.6</ele>
        <time>2022-05-14 16:05:30</time>
      </trkpt>
      <trkpt lat="10.11178" lon="-84.1637">
        <ele>1694.8</ele>
        <time>2022-05-14 16:05:31</time>
      </trkpt>
      <trkpt lat="10.1118" lon="-84.1637">
        <ele>1695</ele>
        <time>2022-05-14 16:05:32</time>
      </trkpt>
      <trkpt lat="10.11182" lon="-84.1637">
        <ele>1695.2</ele>
        <time>2022-05-14 16:05:33</time>
      </trkpt>
      <trkpt lat="10.11184" lon="-84.16369">
        <ele>1695.4</ele>
        <time>2022-05-14 16:05:34</time>
      </trkpt>
      <trkpt lat="10.11185" lon="-84.16369">
        <ele>1695.6</ele>
        <time>2022-05-14 16:05:35</time>
      </trkpt>
      <trkpt lat="10.11185" lon="-84.16369">
        <ele>1695.8</ele>
        <time>2022-05-14 16:05:36</time>
      </trkpt>
      <trkpt lat="10.11185" lon="-84.16369">
        <ele>1696</ele>
        <time>2022-05-14 16:05:37</time>
      </trkpt>
      <trkpt lat="10.11191" lon="-84.16368">
        <ele>1696.4</ele>
        <time>2022-05-14 16:05:38</time>
      </trkpt>
      <trkpt lat="10.11192" lon="-84.16366">
        <ele>1696.6</ele>
        <time>2022-05-14 16:05:39</time>
      </trkpt>
      <trkpt lat="10.11194" lon="-84.16367">
        <ele>1696.8</ele>
        <time>2022-05-14 16:05:40</time>
      </trkpt>
      <trkpt lat="10.11196" lon="-84.16368">
        <ele>1697</ele>
        <time>2022-05-14 16:05:41</time>
      </trkpt>
      <trkpt lat="10.11198" lon="-84.16368">
        <ele>1697.2</ele>
        <time>2022-05-14 16:05:42</time>
      </trkpt>
      <trkpt lat="10.112" lon="-84.16369">
        <ele>1697.4</ele>
        <time>2022-05-14 16:05:43</time>
      </trkpt>
      <trkpt lat="10.11202" lon="-84.16368">
        <ele>1697.8</ele>
        <time>2022-05-14 16:05:44</time>
      </trkpt>
      <trkpt lat="10.11203" lon="-84.16369">
        <ele>1698</ele>
        <time>2022-05-14 16:05:45</time>
      </trkpt>
      <trkpt lat="10.11207" lon="-84.16369">
        <ele>1698.2</ele>
        <time>2022-05-14 16:05:46</time>
      </trkpt>
      <trkpt lat="10.11207" lon="-84.16369">
        <ele>1698.2</ele>
        <time>2022-05-14 16:05:47</time>
      </trkpt>
      <trkpt lat="10.11209" lon="-84.16369">
        <ele>1698.4</ele>
        <time>2022-05-14 16:05:48</time>
      </trkpt>
      <trkpt lat="10.11211" lon="-84.16369">
        <ele>1698.6</ele>
        <time>2022-05-14 16:05:49</time>
      </trkpt>
      <trkpt lat="10.11213" lon="-84.16368">
        <ele>1698.8</ele>
        <time>2022-05-14 16:05:50</time>
      </trkpt>
      <trkpt lat="10.11214" lon="-84.16368">
        <ele>1699</ele>
        <time>2022-05-14 16:05:51</time>
      </trkpt>
      <trkpt lat="10.11216" lon="-84.16368">
        <ele>1699.4</ele>
        <time>2022-05-14 16:05:52</time>
      </trkpt>
      <trkpt lat="10.11218" lon="-84.16369">
        <ele>1699.6</ele>
        <time>2022-05-14 16:05:53</time>
      </trkpt>
      <trkpt lat="10.11219" lon="-84.16369">
        <ele>1699.8</ele>
        <time>2022-05-14 16:05:54</time>
      </trkpt>
      <trkpt lat="10.11221" lon="-84.16369">
        <ele>1700</ele>
        <time>2022-05-14 16:05:55</time>
      </trkpt>
      <trkpt lat="10.11223" lon="-84.16369">
        <ele>1700.2</ele>
        <time>2022-05-14 16:05:56</time>
      </trkpt>
      <trkpt lat="10.11223" lon="-84.16369">
        <ele>1700.6</ele>
        <time>2022-05-14 16:05:57</time>
      </trkpt>
      <trkpt lat="10.11226" lon="-84.16369">
        <ele>1700.8</ele>
        <time>2022-05-14 16:05:58</time>
      </trkpt>
      <trkpt lat="10.11228" lon="-84.1637">
        <ele>1701</ele>
        <time>2022-05-14 16:05:59</time>
      </trkpt>
      <trkpt lat="10.1123" lon="-84.16371">
        <ele>1701.2</ele>
        <time>2022-05-14 16:06:00</time>
      </trkpt>
      <trkpt lat="10.11231" lon="-84.16371">
        <ele>1701.4</ele>
        <time>2022-05-14 16:06:01</time>
      </trkpt>
      <trkpt lat="10.11233" lon="-84.16371">
        <ele>1701.6</ele>
        <time>2022-05-14 16:06:02</time>
      </trkpt>
      <trkpt lat="10.11235" lon="-84.16371">
        <ele>1701.8</ele>
        <time>2022-05-14 16:06:03</time>
      </trkpt>
      <trkpt lat="10.11236" lon="-84.16371">
        <ele>1702</ele>
        <time>2022-05-14 16:06:04</time>
      </trkpt>
      <trkpt lat="10.11239" lon="-84.16371">
        <ele>1702.2</ele>
        <time>2022-05-14 16:06:05</time>
      </trkpt>
      <trkpt lat="10.11239" lon="-84.16371">
        <ele>1702.6</ele>
        <time>2022-05-14 16:06:06</time>
      </trkpt>
      <trkpt lat="10.11244" lon="-84.1637">
        <ele>1702.8</ele>
        <time>2022-05-14 16:06:07</time>
      </trkpt>
      <trkpt lat="10.11244" lon="-84.1637">
        <ele>1702.8</ele>
        <time>2022-05-14 16:06:08</time>
      </trkpt>
      <trkpt lat="10.11246" lon="-84.16369">
        <ele>1703</ele>
        <time>2022-05-14 16:06:09</time>
      </trkpt>
      <trkpt lat="10.11247" lon="-84.16367">
        <ele>1703.4</ele>
        <time>2022-05-14 16:06:10</time>
      </trkpt>
      <trkpt lat="10.11248" lon="-84.16366">
        <ele>1703.6</ele>
        <time>2022-05-14 16:06:11</time>
      </trkpt>
      <trkpt lat="10.1125" lon="-84.16366">
        <ele>1703.8</ele>
        <time>2022-05-14 16:06:12</time>
      </trkpt>
      <trkpt lat="10.11251" lon="-84.16365">
        <ele>1704</ele>
        <time>2022-05-14 16:06:13</time>
      </trkpt>
      <trkpt lat="10.11252" lon="-84.16364">
        <ele>1704.2</ele>
        <time>2022-05-14 16:06:14</time>
      </trkpt>
      <trkpt lat="10.11254" lon="-84.16363">
        <ele>1704.6</ele>
        <time>2022-05-14 16:06:15</time>
      </trkpt>
      <trkpt lat="10.11256" lon="-84.16362">
        <ele>1704.8</ele>
        <time>2022-05-14 16:06:16</time>
      </trkpt>
      <trkpt lat="10.11256" lon="-84.16362">
        <ele>1705</ele>
        <time>2022-05-14 16:06:17</time>
      </trkpt>
      <trkpt lat="10.11256" lon="-84.16362">
        <ele>1705.2</ele>
        <time>2022-05-14 16:06:18</time>
      </trkpt>
      <trkpt lat="10.11261" lon="-84.1636">
        <ele>1705.4</ele>
        <time>2022-05-14 16:06:19</time>
      </trkpt>
      <trkpt lat="10.11263" lon="-84.1636">
        <ele>1705.4</ele>
        <time>2022-05-14 16:06:20</time>
      </trkpt>
      <trkpt lat="10.11264" lon="-84.16359">
        <ele>1705.8</ele>
        <time>2022-05-14 16:06:21</time>
      </trkpt>
      <trkpt lat="10.11266" lon="-84.16358">
        <ele>1705.8</ele>
        <time>2022-05-14 16:06:22</time>
      </trkpt>
      <trkpt lat="10.11268" lon="-84.16358">
        <ele>1706</ele>
        <time>2022-05-14 16:06:23</time>
      </trkpt>
      <trkpt lat="10.1127" lon="-84.16358">
        <ele>1706.2</ele>
        <time>2022-05-14 16:06:24</time>
      </trkpt>
      <trkpt lat="10.11272" lon="-84.16358">
        <ele>1706.4</ele>
        <time>2022-05-14 16:06:25</time>
      </trkpt>
      <trkpt lat="10.11273" lon="-84.16359">
        <ele>1706.6</ele>
        <time>2022-05-14 16:06:26</time>
      </trkpt>
      <trkpt lat="10.11273" lon="-84.16359">
        <ele>1706.8</ele>
        <time>2022-05-14 16:06:27</time>
      </trkpt>
      <trkpt lat="10.11278" lon="-84.16362">
        <ele>1707</ele>
        <time>2022-05-14 16:06:28</time>
      </trkpt>
      <trkpt lat="10.11278" lon="-84.16362">
        <ele>1707</ele>
        <time>2022-05-14 16:06:29</time>
      </trkpt>
      <trkpt lat="10.1128" lon="-84.16364">
        <ele>1707.2</ele>
        <time>2022-05-14 16:06:30</time>
      </trkpt>
      <trkpt lat="10.11281" lon="-84.16365">
        <ele>1707.2</ele>
        <time>2022-05-14 16:06:31</time>
      </trkpt>
      <trkpt lat="10.11282" lon="-84.16366">
        <ele>1707.6</ele>
        <time>2022-05-14 16:06:32</time>
      </trkpt>
      <trkpt lat="10.11283" lon="-84.16367">
        <ele>1707.8</ele>
        <time>2022-05-14 16:06:33</time>
      </trkpt>
      <trkpt lat="10.11284" lon="-84.16369">
        <ele>1708.2</ele>
        <time>2022-05-14 16:06:34</time>
      </trkpt>
      <trkpt lat="10.11285" lon="-84.16371">
        <ele>1708.4</ele>
        <time>2022-05-14 16:06:35</time>
      </trkpt>
      <trkpt lat="10.11286" lon="-84.16372">
        <ele>1708.4</ele>
        <time>2022-05-14 16:06:36</time>
      </trkpt>
      <trkpt lat="10.11287" lon="-84.16373">
        <ele>1708.6</ele>
        <time>2022-05-14 16:06:37</time>
      </trkpt>
      <trkpt lat="10.11289" lon="-84.16377">
        <ele>1708.8</ele>
        <time>2022-05-14 16:06:38</time>
      </trkpt>
      <trkpt lat="10.11289" lon="-84.16377">
        <ele>1709</ele>
        <time>2022-05-14 16:06:39</time>
      </trkpt>
      <trkpt lat="10.1129" lon="-84.16378">
        <ele>1709.2</ele>
        <time>2022-05-14 16:06:40</time>
      </trkpt>
      <trkpt lat="10.11291" lon="-84.1638">
        <ele>1709.4</ele>
        <time>2022-05-14 16:06:41</time>
      </trkpt>
      <trkpt lat="10.11292" lon="-84.1638">
        <ele>1709.8</ele>
        <time>2022-05-14 16:06:42</time>
      </trkpt>
      <trkpt lat="10.11292" lon="-84.16382">
        <ele>1710</ele>
        <time>2022-05-14 16:06:43</time>
      </trkpt>
      <trkpt lat="10.11294" lon="-84.16382">
        <ele>1710.4</ele>
        <time>2022-05-14 16:06:44</time>
      </trkpt>
      <trkpt lat="10.11295" lon="-84.16384">
        <ele>1710.6</ele>
        <time>2022-05-14 16:06:45</time>
      </trkpt>
      <trkpt lat="10.11296" lon="-84.16385">
        <ele>1711</ele>
        <time>2022-05-14 16:06:46</time>
      </trkpt>
      <trkpt lat="10.11298" lon="-84.16386">
        <ele>1711.4</ele>
        <time>2022-05-14 16:06:47</time>
      </trkpt>
      <trkpt lat="10.11301" lon="-84.16387">
        <ele>1711.6</ele>
        <time>2022-05-14 16:06:48</time>
      </trkpt>
      <trkpt lat="10.11302" lon="-84.16388">
        <ele>1712</ele>
        <time>2022-05-14 16:06:49</time>
      </trkpt>
      <trkpt lat="10.11302" lon="-84.16388">
        <ele>1712</ele>
        <time>2022-05-14 16:06:50</time>
      </trkpt>
      <trkpt lat="10.11303" lon="-84.16388">
        <ele>1712.2</ele>
        <time>2022-05-14 16:06:51</time>
      </trkpt>
      <trkpt lat="10.11305" lon="-84.16388">
        <ele>1712.4</ele>
        <time>2022-05-14 16:06:52</time>
      </trkpt>
      <trkpt lat="10.11307" lon="-84.16388">
        <ele>1712.6</ele>
        <time>2022-05-14 16:06:53</time>
      </trkpt>
      <trkpt lat="10.11308" lon="-84.16389">
        <ele>1713</ele>
        <time>2022-05-14 16:06:54</time>
      </trkpt>
      <trkpt lat="10.1131" lon="-84.16389">
        <ele>1713.2</ele>
        <time>2022-05-14 16:06:55</time>
      </trkpt>
      <trkpt lat="10.11312" lon="-84.16389">
        <ele>1713.6</ele>
        <time>2022-05-14 16:06:56</time>
      </trkpt>
      <trkpt lat="10.11314" lon="-84.16388">
        <ele>1713.8</ele>
        <time>2022-05-14 16:06:57</time>
      </trkpt>
      <trkpt lat="10.11316" lon="-84.16387">
        <ele>1714</ele>
        <time>2022-05-14 16:06:58</time>
      </trkpt>
      <trkpt lat="10.11319" lon="-84.16387">
        <ele>1714.4</ele>
        <time>2022-05-14 16:06:59</time>
      </trkpt>
      <trkpt lat="10.11319" lon="-84.16387">
        <ele>1714.6</ele>
        <time>2022-05-14 16:07:00</time>
      </trkpt>
      <trkpt lat="10.11321" lon="-84.16387">
        <ele>1714.6</ele>
        <time>2022-05-14 16:07:01</time>
      </trkpt>
      <trkpt lat="10.11323" lon="-84.16386">
        <ele>1714.8</ele>
        <time>2022-05-14 16:07:02</time>
      </trkpt>
      <trkpt lat="10.11324" lon="-84.16386">
        <ele>1715</ele>
        <time>2022-05-14 16:07:03</time>
      </trkpt>
      <trkpt lat="10.11327" lon="-84.16386">
        <ele>1715.2</ele>
        <time>2022-05-14 16:07:04</time>
      </trkpt>
      <trkpt lat="10.11328" lon="-84.16386">
        <ele>1715.4</ele>
        <time>2022-05-14 16:07:05</time>
      </trkpt>
      <trkpt lat="10.1133" lon="-84.16386">
        <ele>1715.6</ele>
        <time>2022-05-14 16:07:06</time>
      </trkpt>
      <trkpt lat="10.11332" lon="-84.16386">
        <ele>1715.8</ele>
        <time>2022-05-14 16:07:07</time>
      </trkpt>
      <trkpt lat="10.11335" lon="-84.16385">
        <ele>1716</ele>
        <time>2022-05-14 16:07:08</time>
      </trkpt>
      <trkpt lat="10.11337" lon="-84.16385">
        <ele>1716.2</ele>
        <time>2022-05-14 16:07:09</time>
      </trkpt>
      <trkpt lat="10.11339" lon="-84.16385">
        <ele>1716.4</ele>
        <time>2022-05-14 16:07:10</time>
      </trkpt>
      <trkpt lat="10.11339" lon="-84.16385">
        <ele>1716.4</ele>
        <time>2022-05-14 16:07:11</time>
      </trkpt>
      <trkpt lat="10.11341" lon="-84.16384">
        <ele>1716.6</ele>
        <time>2022-05-14 16:07:12</time>
      </trkpt>
      <trkpt lat="10.11343" lon="-84.16384">
        <ele>1716.8</ele>
        <time>2022-05-14 16:07:13</time>
      </trkpt>
      <trkpt lat="10.11344" lon="-84.16384">
        <ele>1717</ele>
        <time>2022-05-14 16:07:14</time>
      </trkpt>
      <trkpt lat="10.11346" lon="-84.16384">
        <ele>1717.2</ele>
        <time>2022-05-14 16:07:15</time>
      </trkpt>
      <trkpt lat="10.11348" lon="-84.16385">
        <ele>1717.4</ele>
        <time>2022-05-14 16:07:16</time>
      </trkpt>
      <trkpt lat="10.1135" lon="-84.16385">
        <ele>1717.6</ele>
        <time>2022-05-14 16:07:17</time>
      </trkpt>
      <trkpt lat="10.11352" lon="-84.16385">
        <ele>1717.8</ele>
        <time>2022-05-14 16:07:18</time>
      </trkpt>
      <trkpt lat="10.11355" lon="-84.16385">
        <ele>1718</ele>
        <time>2022-05-14 16:07:19</time>
      </trkpt>
      <trkpt lat="10.11357" lon="-84.16385">
        <ele>1718.2</ele>
        <time>2022-05-14 16:07:20</time>
      </trkpt>
      <trkpt lat="10.11357" lon="-84.16385">
        <ele>1718.4</ele>
        <time>2022-05-14 16:07:21</time>
      </trkpt>
      <trkpt lat="10.11359" lon="-84.16385">
        <ele>1718.6</ele>
        <time>2022-05-14 16:07:22</time>
      </trkpt>
      <trkpt lat="10.11361" lon="-84.16384">
        <ele>1718.8</ele>
        <time>2022-05-14 16:07:23</time>
      </trkpt>
      <trkpt lat="10.11363" lon="-84.16384">
        <ele>1719.2</ele>
        <time>2022-05-14 16:07:24</time>
      </trkpt>
      <trkpt lat="10.11365" lon="-84.16384">
        <ele>1719.4</ele>
        <time>2022-05-14 16:07:25</time>
      </trkpt>
      <trkpt lat="10.11367" lon="-84.16384">
        <ele>1719.6</ele>
        <time>2022-05-14 16:07:26</time>
      </trkpt>
      <trkpt lat="10.11368" lon="-84.16384">
        <ele>1719.8</ele>
        <time>2022-05-14 16:07:27</time>
      </trkpt>
      <trkpt lat="10.1137" lon="-84.16382">
        <ele>1720</ele>
        <time>2022-05-14 16:07:28</time>
      </trkpt>
      <trkpt lat="10.11374" lon="-84.16382">
        <ele>1720.2</ele>
        <time>2022-05-14 16:07:29</time>
      </trkpt>
      <trkpt lat="10.11375" lon="-84.16382">
        <ele>1720.4</ele>
        <time>2022-05-14 16:07:30</time>
      </trkpt>
      <trkpt lat="10.11377" lon="-84.16381">
        <ele>1720.6</ele>
        <time>2022-05-14 16:07:31</time>
      </trkpt>
      <trkpt lat="10.11377" lon="-84.16381">
        <ele>1720.6</ele>
        <time>2022-05-14 16:07:32</time>
      </trkpt>
      <trkpt lat="10.11378" lon="-84.1638">
        <ele>1720.8</ele>
        <time>2022-05-14 16:07:33</time>
      </trkpt>
      <trkpt lat="10.1138" lon="-84.1638">
        <ele>1721</ele>
        <time>2022-05-14 16:07:34</time>
      </trkpt>
      <trkpt lat="10.11381" lon="-84.1638">
        <ele>1721.2</ele>
        <time>2022-05-14 16:07:35</time>
      </trkpt>
      <trkpt lat="10.11383" lon="-84.16378">
        <ele>1721.6</ele>
        <time>2022-05-14 16:07:36</time>
      </trkpt>
      <trkpt lat="10.11384" lon="-84.16377">
        <ele>1721.8</ele>
        <time>2022-05-14 16:07:37</time>
      </trkpt>
      <trkpt lat="10.11386" lon="-84.16377">
        <ele>1722</ele>
        <time>2022-05-14 16:07:38</time>
      </trkpt>
      <trkpt lat="10.11387" lon="-84.16377">
        <ele>1722.2</ele>
        <time>2022-05-14 16:07:39</time>
      </trkpt>
      <trkpt lat="10.1139" lon="-84.16374">
        <ele>1722.4</ele>
        <time>2022-05-14 16:07:40</time>
      </trkpt>
      <trkpt lat="10.11392" lon="-84.16373">
        <ele>1722.6</ele>
        <time>2022-05-14 16:07:41</time>
      </trkpt>
      <trkpt lat="10.11392" lon="-84.16373">
        <ele>1723</ele>
        <time>2022-05-14 16:07:42</time>
      </trkpt>
      <trkpt lat="10.11394" lon="-84.16373">
        <ele>1723.2</ele>
        <time>2022-05-14 16:07:43</time>
      </trkpt>
      <trkpt lat="10.11395" lon="-84.16372">
        <ele>1723.4</ele>
        <time>2022-05-14 16:07:44</time>
      </trkpt>
      <trkpt lat="10.11397" lon="-84.16371">
        <ele>1723.6</ele>
        <time>2022-05-14 16:07:45</time>
      </trkpt>
      <trkpt lat="10.11398" lon="-84.16369">
        <ele>1724</ele>
        <time>2022-05-14 16:07:46</time>
      </trkpt>
      <trkpt lat="10.11399" lon="-84.16367">
        <ele>1724.2</ele>
        <time>2022-05-14 16:07:47</time>
      </trkpt>
      <trkpt lat="10.11401" lon="-84.16366">
        <ele>1724.4</ele>
        <time>2022-05-14 16:07:48</time>
      </trkpt>
      <trkpt lat="10.11401" lon="-84.16366">
        <ele>1724.6</ele>
        <time>2022-05-14 16:07:49</time>
      </trkpt>
      <trkpt lat="10.11404" lon="-84.16362">
        <ele>1725</ele>
        <time>2022-05-14 16:07:50</time>
      </trkpt>
      <trkpt lat="10.11405" lon="-84.1636">
        <ele>1725</ele>
        <time>2022-05-14 16:07:51</time>
      </trkpt>
      <trkpt lat="10.11405" lon="-84.16358">
        <ele>1725.2</ele>
        <time>2022-05-14 16:07:52</time>
      </trkpt>
      <trkpt lat="10.11405" lon="-84.16358">
        <ele>1725.2</ele>
        <time>2022-05-14 16:07:53</time>
      </trkpt>
      <trkpt lat="10.11407" lon="-84.16357">
        <ele>1725.4</ele>
        <time>2022-05-14 16:07:54</time>
      </trkpt>
      <trkpt lat="10.11408" lon="-84.16355">
        <ele>1725.6</ele>
        <time>2022-05-14 16:07:55</time>
      </trkpt>
      <trkpt lat="10.11409" lon="-84.16353">
        <ele>1725.8</ele>
        <time>2022-05-14 16:07:56</time>
      </trkpt>
      <trkpt lat="10.1141" lon="-84.16352">
        <ele>1726</ele>
        <time>2022-05-14 16:07:57</time>
      </trkpt>
      <trkpt lat="10.11411" lon="-84.16351">
        <ele>1726.2</ele>
        <time>2022-05-14 16:07:58</time>
      </trkpt>
      <trkpt lat="10.11412" lon="-84.16349">
        <ele>1726.4</ele>
        <time>2022-05-14 16:07:59</time>
      </trkpt>
      <trkpt lat="10.11412" lon="-84.16349">
        <ele>1726.6</ele>
        <time>2022-05-14 16:08:00</time>
      </trkpt>
      <trkpt lat="10.11415" lon="-84.16344">
        <ele>1726.8</ele>
        <time>2022-05-14 16:08:01</time>
      </trkpt>
      <trkpt lat="10.11416" lon="-84.16342">
        <ele>1726.8</ele>
        <time>2022-05-14 16:08:02</time>
      </trkpt>
      <trkpt lat="10.11416" lon="-84.16342">
        <ele>1727</ele>
        <time>2022-05-14 16:08:03</time>
      </trkpt>
      <trkpt lat="10.11417" lon="-84.1634">
        <ele>1727.2</ele>
        <time>2022-05-14 16:08:04</time>
      </trkpt>
      <trkpt lat="10.11419" lon="-84.16338">
        <ele>1727.4</ele>
        <time>2022-05-14 16:08:05</time>
      </trkpt>
      <trkpt lat="10.1142" lon="-84.16337">
        <ele>1727.4</ele>
        <time>2022-05-14 16:08:06</time>
      </trkpt>
      <trkpt lat="10.11421" lon="-84.16335">
        <ele>1727.6</ele>
        <time>2022-05-14 16:08:07</time>
      </trkpt>
      <trkpt lat="10.11423" lon="-84.16334">
        <ele>1727.8</ele>
        <time>2022-05-14 16:08:08</time>
      </trkpt>
      <trkpt lat="10.11424" lon="-84.16332">
        <ele>1727.8</ele>
        <time>2022-05-14 16:08:09</time>
      </trkpt>
      <trkpt lat="10.11427" lon="-84.1633">
        <ele>1728</ele>
        <time>2022-05-14 16:08:10</time>
      </trkpt>
      <trkpt lat="10.11429" lon="-84.16328">
        <ele>1728.2</ele>
        <time>2022-05-14 16:08:11</time>
      </trkpt>
      <trkpt lat="10.1143" lon="-84.16328">
        <ele>1728.2</ele>
        <time>2022-05-14 16:08:12</time>
      </trkpt>
      <trkpt lat="10.11432" lon="-84.16327">
        <ele>1728.4</ele>
        <time>2022-05-14 16:08:13</time>
      </trkpt>
      <trkpt lat="10.11432" lon="-84.16327">
        <ele>1728.4</ele>
        <time>2022-05-14 16:08:14</time>
      </trkpt>
      <trkpt lat="10.11434" lon="-84.16327">
        <ele>1728.6</ele>
        <time>2022-05-14 16:08:15</time>
      </trkpt>
      <trkpt lat="10.11436" lon="-84.16327">
        <ele>1728.6</ele>
        <time>2022-05-14 16:08:16</time>
      </trkpt>
      <trkpt lat="10.11438" lon="-84.16327">
        <ele>1728.8</ele>
        <time>2022-05-14 16:08:17</time>
      </trkpt>
      <trkpt lat="10.1144" lon="-84.16326">
        <ele>1729</ele>
        <time>2022-05-14 16:08:18</time>
      </trkpt>
      <trkpt lat="10.11442" lon="-84.16326">
        <ele>1729</ele>
        <time>2022-05-14 16:08:19</time>
      </trkpt>
      <trkpt lat="10.11444" lon="-84.16327">
        <ele>1729.2</ele>
        <time>2022-05-14 16:08:20</time>
      </trkpt>
      <trkpt lat="10.11447" lon="-84.16327">
        <ele>1729.4</ele>
        <time>2022-05-14 16:08:21</time>
      </trkpt>
      <trkpt lat="10.11448" lon="-84.16328">
        <ele>1729.6</ele>
        <time>2022-05-14 16:08:22</time>
      </trkpt>
      <trkpt lat="10.1145" lon="-84.16328">
        <ele>1729.8</ele>
        <time>2022-05-14 16:08:23</time>
      </trkpt>
      <trkpt lat="10.1145" lon="-84.16328">
        <ele>1730</ele>
        <time>2022-05-14 16:08:24</time>
      </trkpt>
      <trkpt lat="10.11451" lon="-84.1633">
        <ele>1730.2</ele>
        <time>2022-05-14 16:08:25</time>
      </trkpt>
      <trkpt lat="10.11453" lon="-84.16331">
        <ele>1730.4</ele>
        <time>2022-05-14 16:08:26</time>
      </trkpt>
      <trkpt lat="10.11454" lon="-84.16333">
        <ele>1730.4</ele>
        <time>2022-05-14 16:08:27</time>
      </trkpt>
      <trkpt lat="10.11455" lon="-84.16335">
        <ele>1730.6</ele>
        <time>2022-05-14 16:08:28</time>
      </trkpt>
      <trkpt lat="10.11456" lon="-84.16336">
        <ele>1730.8</ele>
        <time>2022-05-14 16:08:29</time>
      </trkpt>
      <trkpt lat="10.11456" lon="-84.16336">
        <ele>1731</ele>
        <time>2022-05-14 16:08:30</time>
      </trkpt>
      <trkpt lat="10.11462" lon="-84.16341">
        <ele>1731.2</ele>
        <time>2022-05-14 16:08:31</time>
      </trkpt>
      <trkpt lat="10.11463" lon="-84.16342">
        <ele>1731.4</ele>
        <time>2022-05-14 16:08:32</time>
      </trkpt>
      <trkpt lat="10.11465" lon="-84.16343">
        <ele>1731.6</ele>
        <time>2022-05-14 16:08:33</time>
      </trkpt>
      <trkpt lat="10.11467" lon="-84.16344">
        <ele>1731.6</ele>
        <time>2022-05-14 16:08:34</time>
      </trkpt>
      <trkpt lat="10.11467" lon="-84.16344">
        <ele>1731.6</ele>
        <time>2022-05-14 16:08:35</time>
      </trkpt>
      <trkpt lat="10.11468" lon="-84.16346">
        <ele>1731.8</ele>
        <time>2022-05-14 16:08:36</time>
      </trkpt>
      <trkpt lat="10.1147" lon="-84.16346">
        <ele>1731.8</ele>
        <time>2022-05-14 16:08:37</time>
      </trkpt>
      <trkpt lat="10.11472" lon="-84.16348">
        <ele>1732</ele>
        <time>2022-05-14 16:08:38</time>
      </trkpt>
      <trkpt lat="10.11474" lon="-84.16349">
        <ele>1732.2</ele>
        <time>2022-05-14 16:08:39</time>
      </trkpt>
      <trkpt lat="10.11476" lon="-84.16349">
        <ele>1732.4</ele>
        <time>2022-05-14 16:08:40</time>
      </trkpt>
      <trkpt lat="10.11476" lon="-84.16349">
        <ele>1732.4</ele>
        <time>2022-05-14 16:08:41</time>
      </trkpt>
      <trkpt lat="10.11481" lon="-84.16351">
        <ele>1732.6</ele>
        <time>2022-05-14 16:08:42</time>
      </trkpt>
      <trkpt lat="10.11483" lon="-84.16351">
        <ele>1732.6</ele>
        <time>2022-05-14 16:08:43</time>
      </trkpt>
      <trkpt lat="10.11485" lon="-84.16352">
        <ele>1732.8</ele>
        <time>2022-05-14 16:08:44</time>
      </trkpt>
      <trkpt lat="10.11485" lon="-84.16352">
        <ele>1732.8</ele>
        <time>2022-05-14 16:08:45</time>
      </trkpt>
      <trkpt lat="10.11487" lon="-84.16353">
        <ele>1733</ele>
        <time>2022-05-14 16:08:46</time>
      </trkpt>
      <trkpt lat="10.1149" lon="-84.16353">
        <ele>1733.2</ele>
        <time>2022-05-14 16:08:47</time>
      </trkpt>
      <trkpt lat="10.11491" lon="-84.16353">
        <ele>1733.2</ele>
        <time>2022-05-14 16:08:48</time>
      </trkpt>
      <trkpt lat="10.11494" lon="-84.16355">
        <ele>1733.4</ele>
        <time>2022-05-14 16:08:49</time>
      </trkpt>
      <trkpt lat="10.11496" lon="-84.16355">
        <ele>1733.4</ele>
        <time>2022-05-14 16:08:50</time>
      </trkpt>
      <trkpt lat="10.11496" lon="-84.16355">
        <ele>1733.6</ele>
        <time>2022-05-14 16:08:51</time>
      </trkpt>
      <trkpt lat="10.11504" lon="-84.16356">
        <ele>1733.6</ele>
        <time>2022-05-14 16:08:52</time>
      </trkpt>
      <trkpt lat="10.11506" lon="-84.16357">
        <ele>1733.8</ele>
        <time>2022-05-14 16:08:53</time>
      </trkpt>
      <trkpt lat="10.11508" lon="-84.16357">
        <ele>1734</ele>
        <time>2022-05-14 16:08:54</time>
      </trkpt>
      <trkpt lat="10.1151" lon="-84.16357">
        <ele>1734</ele>
        <time>2022-05-14 16:08:55</time>
      </trkpt>
      <trkpt lat="10.1151" lon="-84.16357">
        <ele>1734</ele>
        <time>2022-05-14 16:08:56</time>
      </trkpt>
      <trkpt lat="10.11512" lon="-84.16358">
        <ele>1734.2</ele>
        <time>2022-05-14 16:08:57</time>
      </trkpt>
      <trkpt lat="10.11515" lon="-84.16359">
        <ele>1734.4</ele>
        <time>2022-05-14 16:08:58</time>
      </trkpt>
      <trkpt lat="10.11517" lon="-84.16359">
        <ele>1734.6</ele>
        <time>2022-05-14 16:08:59</time>
      </trkpt>
      <trkpt lat="10.1152" lon="-84.16359">
        <ele>1734.6</ele>
        <time>2022-05-14 16:09:00</time>
      </trkpt>
      <trkpt lat="10.11522" lon="-84.1636">
        <ele>1734.8</ele>
        <time>2022-05-14 16:09:01</time>
      </trkpt>
      <trkpt lat="10.11527" lon="-84.1636">
        <ele>1735</ele>
        <time>2022-05-14 16:09:02</time>
      </trkpt>
      <trkpt lat="10.11529" lon="-84.1636">
        <ele>1735</ele>
        <time>2022-05-14 16:09:03</time>
      </trkpt>
      <trkpt lat="10.11531" lon="-84.16358">
        <ele>1735.2</ele>
        <time>2022-05-14 16:09:04</time>
      </trkpt>
      <trkpt lat="10.11534" lon="-84.16357">
        <ele>1735.2</ele>
        <time>2022-05-14 16:09:05</time>
      </trkpt>
      <trkpt lat="10.11534" lon="-84.16357">
        <ele>1735.4</ele>
        <time>2022-05-14 16:09:06</time>
      </trkpt>
      <trkpt lat="10.11536" lon="-84.16355">
        <ele>1735.6</ele>
        <time>2022-05-14 16:09:07</time>
      </trkpt>
      <trkpt lat="10.11539" lon="-84.16353">
        <ele>1735.8</ele>
        <time>2022-05-14 16:09:08</time>
      </trkpt>
      <trkpt lat="10.11541" lon="-84.16351">
        <ele>1736</ele>
        <time>2022-05-14 16:09:09</time>
      </trkpt>
      <trkpt lat="10.11543" lon="-84.16348">
        <ele>1736.2</ele>
        <time>2022-05-14 16:09:10</time>
      </trkpt>
      <trkpt lat="10.11546" lon="-84.16346">
        <ele>1736.4</ele>
        <time>2022-05-14 16:09:11</time>
      </trkpt>
      <trkpt lat="10.1155" lon="-84.16342">
        <ele>1736.6</ele>
        <time>2022-05-14 16:09:12</time>
      </trkpt>
      <trkpt lat="10.11552" lon="-84.1634">
        <ele>1736.8</ele>
        <time>2022-05-14 16:09:13</time>
      </trkpt>
      <trkpt lat="10.11554" lon="-84.16338">
        <ele>1737</ele>
        <time>2022-05-14 16:09:14</time>
      </trkpt>
      <trkpt lat="10.11556" lon="-84.16337">
        <ele>1737.2</ele>
        <time>2022-05-14 16:09:15</time>
      </trkpt>
      <trkpt lat="10.11557" lon="-84.16335">
        <ele>1737.4</ele>
        <time>2022-05-14 16:09:16</time>
      </trkpt>
      <trkpt lat="10.11557" lon="-84.16335">
        <ele>1737.4</ele>
        <time>2022-05-14 16:09:17</time>
      </trkpt>
      <trkpt lat="10.11559" lon="-84.16333">
        <ele>1737.6</ele>
        <time>2022-05-14 16:09:18</time>
      </trkpt>
      <trkpt lat="10.11561" lon="-84.16331">
        <ele>1737.6</ele>
        <time>2022-05-14 16:09:19</time>
      </trkpt>
      <trkpt lat="10.11562" lon="-84.16329">
        <ele>1737.8</ele>
        <time>2022-05-14 16:09:20</time>
      </trkpt>
      <trkpt lat="10.11563" lon="-84.16328">
        <ele>1738</ele>
        <time>2022-05-14 16:09:21</time>
      </trkpt>
      <trkpt lat="10.11565" lon="-84.16326">
        <ele>1738.2</ele>
        <time>2022-05-14 16:09:22</time>
      </trkpt>
      <trkpt lat="10.11569" lon="-84.16324">
        <ele>1738.4</ele>
        <time>2022-05-14 16:09:23</time>
      </trkpt>
      <trkpt lat="10.11571" lon="-84.16322">
        <ele>1738.6</ele>
        <time>2022-05-14 16:09:24</time>
      </trkpt>
      <trkpt lat="10.11573" lon="-84.16322">
        <ele>1738.6</ele>
        <time>2022-05-14 16:09:25</time>
      </trkpt>
      <trkpt lat="10.11575" lon="-84.1632">
        <ele>1738.8</ele>
        <time>2022-05-14 16:09:26</time>
      </trkpt>
      <trkpt lat="10.11575" lon="-84.1632">
        <ele>1739</ele>
        <time>2022-05-14 16:09:27</time>
      </trkpt>
      <trkpt lat="10.11578" lon="-84.1632">
        <ele>1739.2</ele>
        <time>2022-05-14 16:09:28</time>
      </trkpt>
      <trkpt lat="10.1158" lon="-84.16319">
        <ele>1739.4</ele>
        <time>2022-05-14 16:09:29</time>
      </trkpt>
      <trkpt lat="10.11583" lon="-84.16319">
        <ele>1739.4</ele>
        <time>2022-05-14 16:09:30</time>
      </trkpt>
      <trkpt lat="10.11586" lon="-84.16319">
        <ele>1739.6</ele>
        <time>2022-05-14 16:09:31</time>
      </trkpt>
      <trkpt lat="10.11586" lon="-84.16319">
        <ele>1739.6</ele>
        <time>2022-05-14 16:09:32</time>
      </trkpt>
      <trkpt lat="10.11594" lon="-84.16319">
        <ele>1739.8</ele>
        <time>2022-05-14 16:09:33</time>
      </trkpt>
      <trkpt lat="10.11597" lon="-84.16321">
        <ele>1740</ele>
        <time>2022-05-14 16:09:34</time>
      </trkpt>
      <trkpt lat="10.116" lon="-84.16322">
        <ele>1740.2</ele>
        <time>2022-05-14 16:09:35</time>
      </trkpt>
      <trkpt lat="10.11602" lon="-84.16322">
        <ele>1740.2</ele>
        <time>2022-05-14 16:09:36</time>
      </trkpt>
      <trkpt lat="10.11605" lon="-84.16323">
        <ele>1740.4</ele>
        <time>2022-05-14 16:09:37</time>
      </trkpt>
      <trkpt lat="10.11605" lon="-84.16323">
        <ele>1740.4</ele>
        <time>2022-05-14 16:09:38</time>
      </trkpt>
      <trkpt lat="10.11608" lon="-84.16324">
        <ele>1740.6</ele>
        <time>2022-05-14 16:09:39</time>
      </trkpt>
      <trkpt lat="10.11611" lon="-84.16326">
        <ele>1740.8</ele>
        <time>2022-05-14 16:09:40</time>
      </trkpt>
      <trkpt lat="10.11614" lon="-84.16327">
        <ele>1740.8</ele>
        <time>2022-05-14 16:09:41</time>
      </trkpt>
      <trkpt lat="10.11617" lon="-84.16328">
        <ele>1741</ele>
        <time>2022-05-14 16:09:42</time>
      </trkpt>
      <trkpt lat="10.11617" lon="-84.16328">
        <ele>1741.2</ele>
        <time>2022-05-14 16:09:43</time>
      </trkpt>
      <trkpt lat="10.11627" lon="-84.1633">
        <ele>1741.4</ele>
        <time>2022-05-14 16:09:44</time>
      </trkpt>
      <trkpt lat="10.11631" lon="-84.1633">
        <ele>1741.4</ele>
        <time>2022-05-14 16:09:45</time>
      </trkpt>
      <trkpt lat="10.11634" lon="-84.1633">
        <ele>1741.6</ele>
        <time>2022-05-14 16:09:46</time>
      </trkpt>
      <trkpt lat="10.11637" lon="-84.1633">
        <ele>1741.6</ele>
        <time>2022-05-14 16:09:47</time>
      </trkpt>
      <trkpt lat="10.11637" lon="-84.1633">
        <ele>1741.8</ele>
        <time>2022-05-14 16:09:48</time>
      </trkpt>
      <trkpt lat="10.1164" lon="-84.16331">
        <ele>1742</ele>
        <time>2022-05-14 16:09:49</time>
      </trkpt>
      <trkpt lat="10.11643" lon="-84.16331">
        <ele>1742.2</ele>
        <time>2022-05-14 16:09:50</time>
      </trkpt>
      <trkpt lat="10.11646" lon="-84.16331">
        <ele>1742.4</ele>
        <time>2022-05-14 16:09:51</time>
      </trkpt>
      <trkpt lat="10.11649" lon="-84.16331">
        <ele>1742.6</ele>
        <time>2022-05-14 16:09:52</time>
      </trkpt>
      <trkpt lat="10.11655" lon="-84.16331">
        <ele>1742.8</ele>
        <time>2022-05-14 16:09:53</time>
      </trkpt>
      <trkpt lat="10.11658" lon="-84.16332">
        <ele>1743</ele>
        <time>2022-05-14 16:09:54</time>
      </trkpt>
      <trkpt lat="10.11661" lon="-84.16332">
        <ele>1743.2</ele>
        <time>2022-05-14 16:09:55</time>
      </trkpt>
      <trkpt lat="10.11664" lon="-84.16333">
        <ele>1743.4</ele>
        <time>2022-05-14 16:09:56</time>
      </trkpt>
      <trkpt lat="10.11667" lon="-84.16333">
        <ele>1743.4</ele>
        <time>2022-05-14 16:09:57</time>
      </trkpt>
      <trkpt lat="10.1167" lon="-84.16334">
        <ele>1743.6</ele>
        <time>2022-05-14 16:09:58</time>
      </trkpt>
      <trkpt lat="10.1167" lon="-84.16334">
        <ele>1743.6</ele>
        <time>2022-05-14 16:09:59</time>
      </trkpt>
      <trkpt lat="10.11672" lon="-84.16334">
        <ele>1743.8</ele>
        <time>2022-05-14 16:10:00</time>
      </trkpt>
      <trkpt lat="10.11675" lon="-84.16333">
        <ele>1744.2</ele>
        <time>2022-05-14 16:10:01</time>
      </trkpt>
      <trkpt lat="10.11678" lon="-84.16331">
        <ele>1744.4</ele>
        <time>2022-05-14 16:10:02</time>
      </trkpt>
      <trkpt lat="10.11681" lon="-84.16331">
        <ele>1744.6</ele>
        <time>2022-05-14 16:10:03</time>
      </trkpt>
      <trkpt lat="10.11687" lon="-84.1633">
        <ele>1744.8</ele>
        <time>2022-05-14 16:10:04</time>
      </trkpt>
      <trkpt lat="10.1169" lon="-84.16329">
        <ele>1745</ele>
        <time>2022-05-14 16:10:05</time>
      </trkpt>
      <trkpt lat="10.11693" lon="-84.16328">
        <ele>1745.2</ele>
        <time>2022-05-14 16:10:06</time>
      </trkpt>
      <trkpt lat="10.11695" lon="-84.16327">
        <ele>1745.4</ele>
        <time>2022-05-14 16:10:07</time>
      </trkpt>
      <trkpt lat="10.11697" lon="-84.16326">
        <ele>1745.8</ele>
        <time>2022-05-14 16:10:08</time>
      </trkpt>
      <trkpt lat="10.11697" lon="-84.16326">
        <ele>1746</ele>
        <time>2022-05-14 16:10:09</time>
      </trkpt>
      <trkpt lat="10.117" lon="-84.16324">
        <ele>1746.4</ele>
        <time>2022-05-14 16:10:10</time>
      </trkpt>
      <trkpt lat="10.11703" lon="-84.16324">
        <ele>1746.6</ele>
        <time>2022-05-14 16:10:11</time>
      </trkpt>
      <trkpt lat="10.11705" lon="-84.16324">
        <ele>1747</ele>
        <time>2022-05-14 16:10:12</time>
      </trkpt>
      <trkpt lat="10.11705" lon="-84.16324">
        <ele>1747.2</ele>
        <time>2022-05-14 16:10:13</time>
      </trkpt>
      <trkpt lat="10.11712" lon="-84.16326">
        <ele>1747.4</ele>
        <time>2022-05-14 16:10:14</time>
      </trkpt>
      <trkpt lat="10.11714" lon="-84.16327">
        <ele>1747.8</ele>
        <time>2022-05-14 16:10:15</time>
      </trkpt>
      <trkpt lat="10.11716" lon="-84.16327">
        <ele>1748</ele>
        <time>2022-05-14 16:10:16</time>
      </trkpt>
      <trkpt lat="10.11719" lon="-84.16327">
        <ele>1748.2</ele>
        <time>2022-05-14 16:10:17</time>
      </trkpt>
      <trkpt lat="10.11721" lon="-84.16327">
        <ele>1748.4</ele>
        <time>2022-05-14 16:10:18</time>
      </trkpt>
      <trkpt lat="10.11724" lon="-84.16328">
        <ele>1748.8</ele>
        <time>2022-05-14 16:10:19</time>
      </trkpt>
      <trkpt lat="10.11724" lon="-84.16328">
        <ele>1748.8</ele>
        <time>2022-05-14 16:10:20</time>
      </trkpt>
      <trkpt lat="10.11728" lon="-84.1633">
        <ele>1749</ele>
        <time>2022-05-14 16:10:21</time>
      </trkpt>
      <trkpt lat="10.11732" lon="-84.16331">
        <ele>1749.2</ele>
        <time>2022-05-14 16:10:22</time>
      </trkpt>
      <trkpt lat="10.11735" lon="-84.16334">
        <ele>1749.4</ele>
        <time>2022-05-14 16:10:23</time>
      </trkpt>
      <trkpt lat="10.11735" lon="-84.16334">
        <ele>1749.6</ele>
        <time>2022-05-14 16:10:24</time>
      </trkpt>
      <trkpt lat="10.11744" lon="-84.16339">
        <ele>1750</ele>
        <time>2022-05-14 16:10:25</time>
      </trkpt>
      <trkpt lat="10.11747" lon="-84.16342">
        <ele>1750.2</ele>
        <time>2022-05-14 16:10:26</time>
      </trkpt>
      <trkpt lat="10.11749" lon="-84.16343">
        <ele>1750.4</ele>
        <time>2022-05-14 16:10:27</time>
      </trkpt>
      <trkpt lat="10.11752" lon="-84.16346">
        <ele>1750.6</ele>
        <time>2022-05-14 16:10:28</time>
      </trkpt>
      <trkpt lat="10.11754" lon="-84.16348">
        <ele>1750.6</ele>
        <time>2022-05-14 16:10:29</time>
      </trkpt>
      <trkpt lat="10.11754" lon="-84.16348">
        <ele>1750.8</ele>
        <time>2022-05-14 16:10:30</time>
      </trkpt>
      <trkpt lat="10.11756" lon="-84.1635">
        <ele>1751</ele>
        <time>2022-05-14 16:10:31</time>
      </trkpt>
      <trkpt lat="10.11758" lon="-84.16351">
        <ele>1751.2</ele>
        <time>2022-05-14 16:10:32</time>
      </trkpt>
      <trkpt lat="10.1176" lon="-84.16353">
        <ele>1751.4</ele>
        <time>2022-05-14 16:10:33</time>
      </trkpt>
      <trkpt lat="10.11763" lon="-84.16358">
        <ele>1751.6</ele>
        <time>2022-05-14 16:10:34</time>
      </trkpt>
      <trkpt lat="10.11765" lon="-84.1636">
        <ele>1751.8</ele>
        <time>2022-05-14 16:10:35</time>
      </trkpt>
      <trkpt lat="10.11766" lon="-84.16363">
        <ele>1752</ele>
        <time>2022-05-14 16:10:36</time>
      </trkpt>
      <trkpt lat="10.11767" lon="-84.16364">
        <ele>1752.2</ele>
        <time>2022-05-14 16:10:37</time>
      </trkpt>
      <trkpt lat="10.11769" lon="-84.16367">
        <ele>1752.4</ele>
        <time>2022-05-14 16:10:38</time>
      </trkpt>
      <trkpt lat="10.11771" lon="-84.16369">
        <ele>1752.8</ele>
        <time>2022-05-14 16:10:39</time>
      </trkpt>
      <trkpt lat="10.11772" lon="-84.16371">
        <ele>1753</ele>
        <time>2022-05-14 16:10:40</time>
      </trkpt>
      <trkpt lat="10.11772" lon="-84.16371">
        <ele>1753</ele>
        <time>2022-05-14 16:10:41</time>
      </trkpt>
      <trkpt lat="10.11773" lon="-84.16373">
        <ele>1753.4</ele>
        <time>2022-05-14 16:10:42</time>
      </trkpt>
      <trkpt lat="10.11774" lon="-84.16375">
        <ele>1753.8</ele>
        <time>2022-05-14 16:10:43</time>
      </trkpt>
      <trkpt lat="10.11776" lon="-84.16378">
        <ele>1754.2</ele>
        <time>2022-05-14 16:10:44</time>
      </trkpt>
      <trkpt lat="10.11779" lon="-84.16384">
        <ele>1754.4</ele>
        <time>2022-05-14 16:10:45</time>
      </trkpt>
      <trkpt lat="10.1178" lon="-84.16386">
        <ele>1754.6</ele>
        <time>2022-05-14 16:10:46</time>
      </trkpt>
      <trkpt lat="10.11782" lon="-84.16389">
        <ele>1755</ele>
        <time>2022-05-14 16:10:47</time>
      </trkpt>
      <trkpt lat="10.11783" lon="-84.16391">
        <ele>1755.2</ele>
        <time>2022-05-14 16:10:48</time>
      </trkpt>
      <trkpt lat="10.11785" lon="-84.16393">
        <ele>1755.6</ele>
        <time>2022-05-14 16:10:49</time>
      </trkpt>
      <trkpt lat="10.11787" lon="-84.16395">
        <ele>1755.8</ele>
        <time>2022-05-14 16:10:50</time>
      </trkpt>
      <trkpt lat="10.11787" lon="-84.16395">
        <ele>1756.2</ele>
        <time>2022-05-14 16:10:51</time>
      </trkpt>
      <trkpt lat="10.11789" lon="-84.16396">
        <ele>1756.4</ele>
        <time>2022-05-14 16:10:52</time>
      </trkpt>
      <trkpt lat="10.11792" lon="-84.16398">
        <ele>1756.8</ele>
        <time>2022-05-14 16:10:53</time>
      </trkpt>
      <trkpt lat="10.11794" lon="-84.16399">
        <ele>1757</ele>
        <time>2022-05-14 16:10:54</time>
      </trkpt>
      <trkpt lat="10.11799" lon="-84.164">
        <ele>1757.4</ele>
        <time>2022-05-14 16:10:55</time>
      </trkpt>
      <trkpt lat="10.11802" lon="-84.16401">
        <ele>1757.6</ele>
        <time>2022-05-14 16:10:56</time>
      </trkpt>
      <trkpt lat="10.11804" lon="-84.164">
        <ele>1758</ele>
        <time>2022-05-14 16:10:57</time>
      </trkpt>
      <trkpt lat="10.11807" lon="-84.164">
        <ele>1758.2</ele>
        <time>2022-05-14 16:10:58</time>
      </trkpt>
      <trkpt lat="10.1181" lon="-84.16399">
        <ele>1758.4</ele>
        <time>2022-05-14 16:10:59</time>
      </trkpt>
      <trkpt lat="10.11813" lon="-84.16397">
        <ele>1758.4</ele>
        <time>2022-05-14 16:11:00</time>
      </trkpt>
      <trkpt lat="10.11815" lon="-84.16395">
        <ele>1758.6</ele>
        <time>2022-05-14 16:11:01</time>
      </trkpt>
      <trkpt lat="10.11815" lon="-84.16395">
        <ele>1758.6</ele>
        <time>2022-05-14 16:11:02</time>
      </trkpt>
      <trkpt lat="10.11818" lon="-84.16395">
        <ele>1758.8</ele>
        <time>2022-05-14 16:11:03</time>
      </trkpt>
      <trkpt lat="10.1182" lon="-84.16393">
        <ele>1759</ele>
        <time>2022-05-14 16:11:04</time>
      </trkpt>
      <trkpt lat="10.11823" lon="-84.16392">
        <ele>1759</ele>
        <time>2022-05-14 16:11:05</time>
      </trkpt>
      <trkpt lat="10.11829" lon="-84.16387">
        <ele>1759</ele>
        <time>2022-05-14 16:11:06</time>
      </trkpt>
      <trkpt lat="10.11832" lon="-84.16386">
        <ele>1759.2</ele>
        <time>2022-05-14 16:11:07</time>
      </trkpt>
      <trkpt lat="10.11835" lon="-84.16384">
        <ele>1759.2</ele>
        <time>2022-05-14 16:11:08</time>
      </trkpt>
      <trkpt lat="10.11837" lon="-84.16382">
        <ele>1759.2</ele>
        <time>2022-05-14 16:11:09</time>
      </trkpt>
      <trkpt lat="10.1184" lon="-84.1638">
        <ele>1759.2</ele>
        <time>2022-05-14 16:11:10</time>
      </trkpt>
      <trkpt lat="10.11844" lon="-84.16377">
        <ele>1759.2</ele>
        <time>2022-05-14 16:11:11</time>
      </trkpt>
      <trkpt lat="10.11844" lon="-84.16377">
        <ele>1759.2</ele>
        <time>2022-05-14 16:11:12</time>
      </trkpt>
      <trkpt lat="10.11847" lon="-84.16374">
        <ele>1759.2</ele>
        <time>2022-05-14 16:11:13</time>
      </trkpt>
      <trkpt lat="10.1185" lon="-84.16372">
        <ele>1759.2</ele>
        <time>2022-05-14 16:11:14</time>
      </trkpt>
      <trkpt lat="10.1185" lon="-84.16372">
        <ele>1759.2</ele>
        <time>2022-05-14 16:11:15</time>
      </trkpt>
      <trkpt lat="10.11859" lon="-84.16366">
        <ele>1759.2</ele>
        <time>2022-05-14 16:11:16</time>
      </trkpt>
      <trkpt lat="10.11862" lon="-84.16364">
        <ele>1759.2</ele>
        <time>2022-05-14 16:11:17</time>
      </trkpt>
      <trkpt lat="10.11863" lon="-84.16364">
        <ele>1759.2</ele>
        <time>2022-05-14 16:11:18</time>
      </trkpt>
      <trkpt lat="10.11867" lon="-84.16364">
        <ele>1759</ele>
        <time>2022-05-14 16:11:19</time>
      </trkpt>
      <trkpt lat="10.1187" lon="-84.16364">
        <ele>1759</ele>
        <time>2022-05-14 16:11:20</time>
      </trkpt>
      <trkpt lat="10.11873" lon="-84.16364">
        <ele>1759</ele>
        <time>2022-05-14 16:11:21</time>
      </trkpt>
      <trkpt lat="10.11877" lon="-84.16364">
        <ele>1759</ele>
        <time>2022-05-14 16:11:22</time>
      </trkpt>
      <trkpt lat="10.11877" lon="-84.16364">
        <ele>1759</ele>
        <time>2022-05-14 16:11:23</time>
      </trkpt>
      <trkpt lat="10.11881" lon="-84.16364">
        <ele>1758.8</ele>
        <time>2022-05-14 16:11:24</time>
      </trkpt>
      <trkpt lat="10.11886" lon="-84.16365">
        <ele>1758.8</ele>
        <time>2022-05-14 16:11:25</time>
      </trkpt>
      <trkpt lat="10.11886" lon="-84.16365">
        <ele>1758.8</ele>
        <time>2022-05-14 16:11:26</time>
      </trkpt>
      <trkpt lat="10.11896" lon="-84.16367">
        <ele>1758.8</ele>
        <time>2022-05-14 16:11:27</time>
      </trkpt>
      <trkpt lat="10.11898" lon="-84.16369">
        <ele>1759</ele>
        <time>2022-05-14 16:11:28</time>
      </trkpt>
      <trkpt lat="10.11901" lon="-84.16373">
        <ele>1759</ele>
        <time>2022-05-14 16:11:29</time>
      </trkpt>
      <trkpt lat="10.11901" lon="-84.16377">
        <ele>1759.2</ele>
        <time>2022-05-14 16:11:30</time>
      </trkpt>
      <trkpt lat="10.119" lon="-84.16382">
        <ele>1759.4</ele>
        <time>2022-05-14 16:11:31</time>
      </trkpt>
      <trkpt lat="10.11899" lon="-84.16386">
        <ele>1759.8</ele>
        <time>2022-05-14 16:11:32</time>
      </trkpt>
      <trkpt lat="10.11899" lon="-84.16386">
        <ele>1760</ele>
        <time>2022-05-14 16:11:33</time>
      </trkpt>
      <trkpt lat="10.11899" lon="-84.16389">
        <ele>1760.2</ele>
        <time>2022-05-14 16:11:34</time>
      </trkpt>
      <trkpt lat="10.11897" lon="-84.16392">
        <ele>1760.4</ele>
        <time>2022-05-14 16:11:35</time>
      </trkpt>
      <trkpt lat="10.11893" lon="-84.16398">
        <ele>1760.6</ele>
        <time>2022-05-14 16:11:36</time>
      </trkpt>
      <trkpt lat="10.11893" lon="-84.16402">
        <ele>1760.8</ele>
        <time>2022-05-14 16:11:37</time>
      </trkpt>
      <trkpt lat="10.11892" lon="-84.16405">
        <ele>1761</ele>
        <time>2022-05-14 16:11:38</time>
      </trkpt>
      <trkpt lat="10.11891" lon="-84.16409">
        <ele>1761.2</ele>
        <time>2022-05-14 16:11:39</time>
      </trkpt>
      <trkpt lat="10.11891" lon="-84.16412">
        <ele>1761.4</ele>
        <time>2022-05-14 16:11:40</time>
      </trkpt>
      <trkpt lat="10.11891" lon="-84.16415">
        <ele>1761.6</ele>
        <time>2022-05-14 16:11:41</time>
      </trkpt>
      <trkpt lat="10.11891" lon="-84.16418">
        <ele>1762</ele>
        <time>2022-05-14 16:11:42</time>
      </trkpt>
      <trkpt lat="10.11891" lon="-84.16422">
        <ele>1762.2</ele>
        <time>2022-05-14 16:11:43</time>
      </trkpt>
      <trkpt lat="10.11891" lon="-84.16422">
        <ele>1762.2</ele>
        <time>2022-05-14 16:11:44</time>
      </trkpt>
      <trkpt lat="10.11893" lon="-84.16425">
        <ele>1762.6</ele>
        <time>2022-05-14 16:11:45</time>
      </trkpt>
      <trkpt lat="10.11895" lon="-84.16427">
        <ele>1762.8</ele>
        <time>2022-05-14 16:11:46</time>
      </trkpt>
      <trkpt lat="10.11899" lon="-84.16431">
        <ele>1763</ele>
        <time>2022-05-14 16:11:47</time>
      </trkpt>
      <trkpt lat="10.11901" lon="-84.16431">
        <ele>1763.2</ele>
        <time>2022-05-14 16:11:48</time>
      </trkpt>
      <trkpt lat="10.11903" lon="-84.16432">
        <ele>1763.4</ele>
        <time>2022-05-14 16:11:49</time>
      </trkpt>
      <trkpt lat="10.11905" lon="-84.16434">
        <ele>1763.8</ele>
        <time>2022-05-14 16:11:50</time>
      </trkpt>
      <trkpt lat="10.11907" lon="-84.16434">
        <ele>1764</ele>
        <time>2022-05-14 16:11:51</time>
      </trkpt>
      <trkpt lat="10.11909" lon="-84.16436">
        <ele>1764.2</ele>
        <time>2022-05-14 16:11:52</time>
      </trkpt>
      <trkpt lat="10.11911" lon="-84.16435">
        <ele>1764.6</ele>
        <time>2022-05-14 16:11:53</time>
      </trkpt>
      <trkpt lat="10.11911" lon="-84.16435">
        <ele>1764.6</ele>
        <time>2022-05-14 16:11:54</time>
      </trkpt>
      <trkpt lat="10.11914" lon="-84.16437">
        <ele>1765</ele>
        <time>2022-05-14 16:11:55</time>
      </trkpt>
      <trkpt lat="10.11914" lon="-84.16437">
        <ele>1765.2</ele>
        <time>2022-05-14 16:11:56</time>
      </trkpt>
      <trkpt lat="10.1192" lon="-84.1644">
        <ele>1765.6</ele>
        <time>2022-05-14 16:11:57</time>
      </trkpt>
      <trkpt lat="10.11922" lon="-84.16441">
        <ele>1765.8</ele>
        <time>2022-05-14 16:11:58</time>
      </trkpt>
      <trkpt lat="10.11924" lon="-84.16441">
        <ele>1766.2</ele>
        <time>2022-05-14 16:11:59</time>
      </trkpt>
      <trkpt lat="10.11926" lon="-84.16443">
        <ele>1766.4</ele>
        <time>2022-05-14 16:12:00</time>
      </trkpt>
      <trkpt lat="10.11928" lon="-84.16444">
        <ele>1766.6</ele>
        <time>2022-05-14 16:12:01</time>
      </trkpt>
      <trkpt lat="10.11931" lon="-84.16445">
        <ele>1766.8</ele>
        <time>2022-05-14 16:12:02</time>
      </trkpt>
      <trkpt lat="10.11933" lon="-84.16447">
        <ele>1767</ele>
        <time>2022-05-14 16:12:03</time>
      </trkpt>
      <trkpt lat="10.11935" lon="-84.16449">
        <ele>1767.2</ele>
        <time>2022-05-14 16:12:04</time>
      </trkpt>
      <trkpt lat="10.11935" lon="-84.16449">
        <ele>1767.2</ele>
        <time>2022-05-14 16:12:05</time>
      </trkpt>
      <trkpt lat="10.11936" lon="-84.16451">
        <ele>1767.6</ele>
        <time>2022-05-14 16:12:06</time>
      </trkpt>
      <trkpt lat="10.11936" lon="-84.16451">
        <ele>1768</ele>
        <time>2022-05-14 16:12:07</time>
      </trkpt>
      <trkpt lat="10.11939" lon="-84.16455">
        <ele>1768.4</ele>
        <time>2022-05-14 16:12:08</time>
      </trkpt>
      <trkpt lat="10.1194" lon="-84.16456">
        <ele>1768.6</ele>
        <time>2022-05-14 16:12:09</time>
      </trkpt>
      <trkpt lat="10.11941" lon="-84.16459">
        <ele>1768.8</ele>
        <time>2022-05-14 16:12:10</time>
      </trkpt>
      <trkpt lat="10.11942" lon="-84.16461">
        <ele>1769</ele>
        <time>2022-05-14 16:12:11</time>
      </trkpt>
      <trkpt lat="10.11942" lon="-84.16463">
        <ele>1769.2</ele>
        <time>2022-05-14 16:12:12</time>
      </trkpt>
      <trkpt lat="10.11942" lon="-84.16467">
        <ele>1769.4</ele>
        <time>2022-05-14 16:12:13</time>
      </trkpt>
      <trkpt lat="10.11942" lon="-84.16469">
        <ele>1769.8</ele>
        <time>2022-05-14 16:12:14</time>
      </trkpt>
      <trkpt lat="10.11942" lon="-84.16469">
        <ele>1769.8</ele>
        <time>2022-05-14 16:12:15</time>
      </trkpt>
      <trkpt lat="10.11942" lon="-84.16473">
        <ele>1770</ele>
        <time>2022-05-14 16:12:16</time>
      </trkpt>
      <trkpt lat="10.11942" lon="-84.16473">
        <ele>1770.2</ele>
        <time>2022-05-14 16:12:17</time>
      </trkpt>
      <trkpt lat="10.11937" lon="-84.1648">
        <ele>1770.4</ele>
        <time>2022-05-14 16:12:18</time>
      </trkpt>
      <trkpt lat="10.11935" lon="-84.16481">
        <ele>1770.6</ele>
        <time>2022-05-14 16:12:19</time>
      </trkpt>
      <trkpt lat="10.11933" lon="-84.16483">
        <ele>1770.8</ele>
        <time>2022-05-14 16:12:20</time>
      </trkpt>
      <trkpt lat="10.11931" lon="-84.16483">
        <ele>1770.8</ele>
        <time>2022-05-14 16:12:21</time>
      </trkpt>
      <trkpt lat="10.11928" lon="-84.16485">
        <ele>1771.2</ele>
        <time>2022-05-14 16:12:22</time>
      </trkpt>
      <trkpt lat="10.11926" lon="-84.16485">
        <ele>1771.4</ele>
        <time>2022-05-14 16:12:23</time>
      </trkpt>
      <trkpt lat="10.11923" lon="-84.16487">
        <ele>1771.6</ele>
        <time>2022-05-14 16:12:24</time>
      </trkpt>
      <trkpt lat="10.11921" lon="-84.16488">
        <ele>1771.6</ele>
        <time>2022-05-14 16:12:25</time>
      </trkpt>
      <trkpt lat="10.11921" lon="-84.16488">
        <ele>1771.6</ele>
        <time>2022-05-14 16:12:26</time>
      </trkpt>
      <trkpt lat="10.11918" lon="-84.16489">
        <ele>1771.8</ele>
        <time>2022-05-14 16:12:27</time>
      </trkpt>
      <trkpt lat="10.11913" lon="-84.16491">
        <ele>1772</ele>
        <time>2022-05-14 16:12:28</time>
      </trkpt>
      <trkpt lat="10.1191" lon="-84.16492">
        <ele>1772.2</ele>
        <time>2022-05-14 16:12:29</time>
      </trkpt>
      <trkpt lat="10.11907" lon="-84.16493">
        <ele>1772.2</ele>
        <time>2022-05-14 16:12:30</time>
      </trkpt>
      <trkpt lat="10.11904" lon="-84.16494">
        <ele>1772.4</ele>
        <time>2022-05-14 16:12:31</time>
      </trkpt>
      <trkpt lat="10.11902" lon="-84.16496">
        <ele>1772.4</ele>
        <time>2022-05-14 16:12:32</time>
      </trkpt>
      <trkpt lat="10.11899" lon="-84.16496">
        <ele>1772.6</ele>
        <time>2022-05-14 16:12:33</time>
      </trkpt>
      <trkpt lat="10.11896" lon="-84.16498">
        <ele>1772.8</ele>
        <time>2022-05-14 16:12:34</time>
      </trkpt>
      <trkpt lat="10.11894" lon="-84.16499">
        <ele>1773</ele>
        <time>2022-05-14 16:12:35</time>
      </trkpt>
      <trkpt lat="10.11894" lon="-84.16499">
        <ele>1773.2</ele>
        <time>2022-05-14 16:12:36</time>
      </trkpt>
      <trkpt lat="10.11891" lon="-84.16501">
        <ele>1773.4</ele>
        <time>2022-05-14 16:12:37</time>
      </trkpt>
      <trkpt lat="10.11886" lon="-84.16504">
        <ele>1773.8</ele>
        <time>2022-05-14 16:12:38</time>
      </trkpt>
      <trkpt lat="10.11884" lon="-84.16505">
        <ele>1774</ele>
        <time>2022-05-14 16:12:39</time>
      </trkpt>
      <trkpt lat="10.11882" lon="-84.16508">
        <ele>1774.2</ele>
        <time>2022-05-14 16:12:40</time>
      </trkpt>
      <trkpt lat="10.1188" lon="-84.16511">
        <ele>1774.4</ele>
        <time>2022-05-14 16:12:41</time>
      </trkpt>
      <trkpt lat="10.11879" lon="-84.16512">
        <ele>1774.6</ele>
        <time>2022-05-14 16:12:42</time>
      </trkpt>
      <trkpt lat="10.11877" lon="-84.16515">
        <ele>1774.8</ele>
        <time>2022-05-14 16:12:43</time>
      </trkpt>
      <trkpt lat="10.11875" lon="-84.16518">
        <ele>1775.2</ele>
        <time>2022-05-14 16:12:44</time>
      </trkpt>
      <trkpt lat="10.11874" lon="-84.16519">
        <ele>1775.4</ele>
        <time>2022-05-14 16:12:45</time>
      </trkpt>
      <trkpt lat="10.11872" lon="-84.16521">
        <ele>1775.8</ele>
        <time>2022-05-14 16:12:46</time>
      </trkpt>
      <trkpt lat="10.11872" lon="-84.16521">
        <ele>1775.8</ele>
        <time>2022-05-14 16:12:47</time>
      </trkpt>
      <trkpt lat="10.11871" lon="-84.16525">
        <ele>1776</ele>
        <time>2022-05-14 16:12:48</time>
      </trkpt>
      <trkpt lat="10.11869" lon="-84.16529">
        <ele>1776.2</ele>
        <time>2022-05-14 16:12:49</time>
      </trkpt>
      <trkpt lat="10.11868" lon="-84.16532">
        <ele>1776.4</ele>
        <time>2022-05-14 16:12:50</time>
      </trkpt>
      <trkpt lat="10.11868" lon="-84.16533">
        <ele>1776.6</ele>
        <time>2022-05-14 16:12:51</time>
      </trkpt>
      <trkpt lat="10.11869" lon="-84.16535">
        <ele>1777</ele>
        <time>2022-05-14 16:12:52</time>
      </trkpt>
      <trkpt lat="10.11869" lon="-84.16537">
        <ele>1777.2</ele>
        <time>2022-05-14 16:12:53</time>
      </trkpt>
      <trkpt lat="10.11869" lon="-84.16539">
        <ele>1777.4</ele>
        <time>2022-05-14 16:12:54</time>
      </trkpt>
      <trkpt lat="10.11869" lon="-84.16541">
        <ele>1777.8</ele>
        <time>2022-05-14 16:12:55</time>
      </trkpt>
      <trkpt lat="10.1187" lon="-84.16542">
        <ele>1777.8</ele>
        <time>2022-05-14 16:12:56</time>
      </trkpt>
      <trkpt lat="10.1187" lon="-84.16542">
        <ele>1778</ele>
        <time>2022-05-14 16:12:57</time>
      </trkpt>
      <trkpt lat="10.1187" lon="-84.16542">
        <ele>1778.2</ele>
        <time>2022-05-14 16:12:58</time>
      </trkpt>
      <trkpt lat="10.11873" lon="-84.16545">
        <ele>1778.6</ele>
        <time>2022-05-14 16:12:59</time>
      </trkpt>
      <trkpt lat="10.11874" lon="-84.16547">
        <ele>1778.8</ele>
        <time>2022-05-14 16:13:00</time>
      </trkpt>
      <trkpt lat="10.11875" lon="-84.16548">
        <ele>1779.2</ele>
        <time>2022-05-14 16:13:01</time>
      </trkpt>
      <trkpt lat="10.11877" lon="-84.16549">
        <ele>1779.4</ele>
        <time>2022-05-14 16:13:02</time>
      </trkpt>
      <trkpt lat="10.11879" lon="-84.1655">
        <ele>1779.8</ele>
        <time>2022-05-14 16:13:03</time>
      </trkpt>
      <trkpt lat="10.11881" lon="-84.1655">
        <ele>1779.8</ele>
        <time>2022-05-14 16:13:04</time>
      </trkpt>
      <trkpt lat="10.11883" lon="-84.16551">
        <ele>1780</ele>
        <time>2022-05-14 16:13:05</time>
      </trkpt>
      <trkpt lat="10.11885" lon="-84.16551">
        <ele>1780.2</ele>
        <time>2022-05-14 16:13:06</time>
      </trkpt>
      <trkpt lat="10.11887" lon="-84.16552">
        <ele>1780.6</ele>
        <time>2022-05-14 16:13:07</time>
      </trkpt>
      <trkpt lat="10.11887" lon="-84.16552">
        <ele>1780.6</ele>
        <time>2022-05-14 16:13:08</time>
      </trkpt>
      <trkpt lat="10.11887" lon="-84.16552">
        <ele>1780.8</ele>
        <time>2022-05-14 16:13:09</time>
      </trkpt>
      <trkpt lat="10.11894" lon="-84.1655">
        <ele>1781</ele>
        <time>2022-05-14 16:13:10</time>
      </trkpt>
      <trkpt lat="10.11896" lon="-84.1655">
        <ele>1781</ele>
        <time>2022-05-14 16:13:11</time>
      </trkpt>
      <trkpt lat="10.11899" lon="-84.16549">
        <ele>1781.4</ele>
        <time>2022-05-14 16:13:12</time>
      </trkpt>
      <trkpt lat="10.11901" lon="-84.16548">
        <ele>1781.6</ele>
        <time>2022-05-14 16:13:13</time>
      </trkpt>
      <trkpt lat="10.11903" lon="-84.16548">
        <ele>1782</ele>
        <time>2022-05-14 16:13:14</time>
      </trkpt>
      <trkpt lat="10.11905" lon="-84.16547">
        <ele>1782</ele>
        <time>2022-05-14 16:13:15</time>
      </trkpt>
      <trkpt lat="10.11907" lon="-84.16546">
        <ele>1782.2</ele>
        <time>2022-05-14 16:13:16</time>
      </trkpt>
      <trkpt lat="10.11909" lon="-84.16546">
        <ele>1782.4</ele>
        <time>2022-05-14 16:13:17</time>
      </trkpt>
      <trkpt lat="10.11909" lon="-84.16546">
        <ele>1782.6</ele>
        <time>2022-05-14 16:13:18</time>
      </trkpt>
      <trkpt lat="10.11914" lon="-84.16544">
        <ele>1782.6</ele>
        <time>2022-05-14 16:13:19</time>
      </trkpt>
      <trkpt lat="10.11915" lon="-84.16544">
        <ele>1782.8</ele>
        <time>2022-05-14 16:13:20</time>
      </trkpt>
      <trkpt lat="10.11917" lon="-84.16543">
        <ele>1783</ele>
        <time>2022-05-14 16:13:21</time>
      </trkpt>
      <trkpt lat="10.11919" lon="-84.16543">
        <ele>1783.2</ele>
        <time>2022-05-14 16:13:22</time>
      </trkpt>
      <trkpt lat="10.11922" lon="-84.16543">
        <ele>1783.4</ele>
        <time>2022-05-14 16:13:23</time>
      </trkpt>
      <trkpt lat="10.11924" lon="-84.16543">
        <ele>1783.6</ele>
        <time>2022-05-14 16:13:24</time>
      </trkpt>
      <trkpt lat="10.11926" lon="-84.16543">
        <ele>1783.8</ele>
        <time>2022-05-14 16:13:25</time>
      </trkpt>
      <trkpt lat="10.11929" lon="-84.16543">
        <ele>1784</ele>
        <time>2022-05-14 16:13:26</time>
      </trkpt>
      <trkpt lat="10.11932" lon="-84.16543">
        <ele>1784.2</ele>
        <time>2022-05-14 16:13:27</time>
      </trkpt>
      <trkpt lat="10.11934" lon="-84.16544">
        <ele>1784.4</ele>
        <time>2022-05-14 16:13:28</time>
      </trkpt>
      <trkpt lat="10.11934" lon="-84.16544">
        <ele>1784.4</ele>
        <time>2022-05-14 16:13:29</time>
      </trkpt>
      <trkpt lat="10.1194" lon="-84.16545">
        <ele>1784.8</ele>
        <time>2022-05-14 16:13:30</time>
      </trkpt>
      <trkpt lat="10.11942" lon="-84.16546">
        <ele>1785</ele>
        <time>2022-05-14 16:13:31</time>
      </trkpt>
      <trkpt lat="10.11945" lon="-84.16547">
        <ele>1785.2</ele>
        <time>2022-05-14 16:13:32</time>
      </trkpt>
      <trkpt lat="10.11947" lon="-84.16547">
        <ele>1785.4</ele>
        <time>2022-05-14 16:13:33</time>
      </trkpt>
      <trkpt lat="10.1195" lon="-84.16547">
        <ele>1785.6</ele>
        <time>2022-05-14 16:13:34</time>
      </trkpt>
      <trkpt lat="10.11952" lon="-84.16548">
        <ele>1785.8</ele>
        <time>2022-05-14 16:13:35</time>
      </trkpt>
      <trkpt lat="10.11955" lon="-84.16548">
        <ele>1786</ele>
        <time>2022-05-14 16:13:36</time>
      </trkpt>
      <trkpt lat="10.11957" lon="-84.16548">
        <ele>1786.2</ele>
        <time>2022-05-14 16:13:37</time>
      </trkpt>
      <trkpt lat="10.11957" lon="-84.16548">
        <ele>1786.6</ele>
        <time>2022-05-14 16:13:38</time>
      </trkpt>
      <trkpt lat="10.11957" lon="-84.16548">
        <ele>1786.8</ele>
        <time>2022-05-14 16:13:39</time>
      </trkpt>
      <trkpt lat="10.11965" lon="-84.16548">
        <ele>1787</ele>
        <time>2022-05-14 16:13:40</time>
      </trkpt>
      <trkpt lat="10.11967" lon="-84.16548">
        <ele>1787.2</ele>
        <time>2022-05-14 16:13:41</time>
      </trkpt>
      <trkpt lat="10.1197" lon="-84.16548">
        <ele>1787.4</ele>
        <time>2022-05-14 16:13:42</time>
      </trkpt>
      <trkpt lat="10.11973" lon="-84.16547">
        <ele>1787.6</ele>
        <time>2022-05-14 16:13:43</time>
      </trkpt>
      <trkpt lat="10.11975" lon="-84.16547">
        <ele>1787.8</ele>
        <time>2022-05-14 16:13:44</time>
      </trkpt>
      <trkpt lat="10.11977" lon="-84.16547">
        <ele>1788.2</ele>
        <time>2022-05-14 16:13:45</time>
      </trkpt>
      <trkpt lat="10.1198" lon="-84.16547">
        <ele>1788.4</ele>
        <time>2022-05-14 16:13:46</time>
      </trkpt>
      <trkpt lat="10.11982" lon="-84.16547">
        <ele>1788.8</ele>
        <time>2022-05-14 16:13:47</time>
      </trkpt>
      <trkpt lat="10.11985" lon="-84.16547">
        <ele>1789</ele>
        <time>2022-05-14 16:13:48</time>
      </trkpt>
      <trkpt lat="10.11985" lon="-84.16547">
        <ele>1789.2</ele>
        <time>2022-05-14 16:13:49</time>
      </trkpt>
      <trkpt lat="10.11985" lon="-84.16547">
        <ele>1789.2</ele>
        <time>2022-05-14 16:13:50</time>
      </trkpt>
      <trkpt lat="10.11992" lon="-84.16547">
        <ele>1789.4</ele>
        <time>2022-05-14 16:13:51</time>
      </trkpt>
      <trkpt lat="10.11994" lon="-84.16547">
        <ele>1789.8</ele>
        <time>2022-05-14 16:13:52</time>
      </trkpt>
      <trkpt lat="10.11997" lon="-84.16546">
        <ele>1790</ele>
        <time>2022-05-14 16:13:53</time>
      </trkpt>
      <trkpt lat="10.11999" lon="-84.16546">
        <ele>1790.2</ele>
        <time>2022-05-14 16:13:54</time>
      </trkpt>
      <trkpt lat="10.12001" lon="-84.16546">
        <ele>1790.2</ele>
        <time>2022-05-14 16:13:55</time>
      </trkpt>
      <trkpt lat="10.12003" lon="-84.16546">
        <ele>1790.4</ele>
        <time>2022-05-14 16:13:56</time>
      </trkpt>
      <trkpt lat="10.12005" lon="-84.16546">
        <ele>1790.4</ele>
        <time>2022-05-14 16:13:57</time>
      </trkpt>
      <trkpt lat="10.12008" lon="-84.16545">
        <ele>1790.8</ele>
        <time>2022-05-14 16:13:58</time>
      </trkpt>
      <trkpt lat="10.12008" lon="-84.16545">
        <ele>1790.8</ele>
        <time>2022-05-14 16:13:59</time>
      </trkpt>
      <trkpt lat="10.12008" lon="-84.16545">
        <ele>1791</ele>
        <time>2022-05-14 16:14:00</time>
      </trkpt>
      <trkpt lat="10.12015" lon="-84.16545">
        <ele>1791.2</ele>
        <time>2022-05-14 16:14:01</time>
      </trkpt>
      <trkpt lat="10.12018" lon="-84.16545">
        <ele>1791.6</ele>
        <time>2022-05-14 16:14:02</time>
      </trkpt>
      <trkpt lat="10.1202" lon="-84.16545">
        <ele>1791.8</ele>
        <time>2022-05-14 16:14:03</time>
      </trkpt>
      <trkpt lat="10.12023" lon="-84.16544">
        <ele>1792</ele>
        <time>2022-05-14 16:14:04</time>
      </trkpt>
      <trkpt lat="10.12025" lon="-84.16544">
        <ele>1792.4</ele>
        <time>2022-05-14 16:14:05</time>
      </trkpt>
      <trkpt lat="10.12028" lon="-84.16543">
        <ele>1792.6</ele>
        <time>2022-05-14 16:14:06</time>
      </trkpt>
      <trkpt lat="10.12031" lon="-84.16543">
        <ele>1792.8</ele>
        <time>2022-05-14 16:14:07</time>
      </trkpt>
      <trkpt lat="10.12033" lon="-84.16543">
        <ele>1793</ele>
        <time>2022-05-14 16:14:08</time>
      </trkpt>
      <trkpt lat="10.12035" lon="-84.16543">
        <ele>1793.2</ele>
        <time>2022-05-14 16:14:09</time>
      </trkpt>
      <trkpt lat="10.12035" lon="-84.16543">
        <ele>1793.4</ele>
        <time>2022-05-14 16:14:10</time>
      </trkpt>
      <trkpt lat="10.1204" lon="-84.16541">
        <ele>1793.4</ele>
        <time>2022-05-14 16:14:11</time>
      </trkpt>
      <trkpt lat="10.12042" lon="-84.16539">
        <ele>1793.6</ele>
        <time>2022-05-14 16:14:12</time>
      </trkpt>
      <trkpt lat="10.12045" lon="-84.16537">
        <ele>1794</ele>
        <time>2022-05-14 16:14:13</time>
      </trkpt>
      <trkpt lat="10.12047" lon="-84.16537">
        <ele>1794.2</ele>
        <time>2022-05-14 16:14:14</time>
      </trkpt>
      <trkpt lat="10.12049" lon="-84.16536">
        <ele>1794.4</ele>
        <time>2022-05-14 16:14:15</time>
      </trkpt>
      <trkpt lat="10.12052" lon="-84.16534">
        <ele>1794.4</ele>
        <time>2022-05-14 16:14:16</time>
      </trkpt>
      <trkpt lat="10.12054" lon="-84.16532">
        <ele>1794.6</ele>
        <time>2022-05-14 16:14:17</time>
      </trkpt>
      <trkpt lat="10.12056" lon="-84.16532">
        <ele>1794.8</ele>
        <time>2022-05-14 16:14:18</time>
      </trkpt>
      <trkpt lat="10.12058" lon="-84.1653">
        <ele>1795</ele>
        <time>2022-05-14 16:14:19</time>
      </trkpt>
      <trkpt lat="10.12058" lon="-84.1653">
        <ele>1795.2</ele>
        <time>2022-05-14 16:14:20</time>
      </trkpt>
      <trkpt lat="10.12063" lon="-84.16527">
        <ele>1795.4</ele>
        <time>2022-05-14 16:14:21</time>
      </trkpt>
      <trkpt lat="10.12065" lon="-84.16525">
        <ele>1795.6</ele>
        <time>2022-05-14 16:14:22</time>
      </trkpt>
      <trkpt lat="10.12067" lon="-84.16523">
        <ele>1795.8</ele>
        <time>2022-05-14 16:14:23</time>
      </trkpt>
      <trkpt lat="10.12069" lon="-84.16521">
        <ele>1796</ele>
        <time>2022-05-14 16:14:24</time>
      </trkpt>
      <trkpt lat="10.12072" lon="-84.16521">
        <ele>1796.2</ele>
        <time>2022-05-14 16:14:25</time>
      </trkpt>
      <trkpt lat="10.12074" lon="-84.16519">
        <ele>1796.6</ele>
        <time>2022-05-14 16:14:26</time>
      </trkpt>
      <trkpt lat="10.12076" lon="-84.16518">
        <ele>1796.8</ele>
        <time>2022-05-14 16:14:27</time>
      </trkpt>
      <trkpt lat="10.12078" lon="-84.16517">
        <ele>1797</ele>
        <time>2022-05-14 16:14:28</time>
      </trkpt>
      <trkpt lat="10.1208" lon="-84.16515">
        <ele>1797.2</ele>
        <time>2022-05-14 16:14:29</time>
      </trkpt>
      <trkpt lat="10.12082" lon="-84.16514">
        <ele>1797.4</ele>
        <time>2022-05-14 16:14:30</time>
      </trkpt>
      <trkpt lat="10.12082" lon="-84.16514">
        <ele>1797.6</ele>
        <time>2022-05-14 16:14:31</time>
      </trkpt>
      <trkpt lat="10.12087" lon="-84.16512">
        <ele>1797.6</ele>
        <time>2022-05-14 16:14:32</time>
      </trkpt>
      <trkpt lat="10.12088" lon="-84.16511">
        <ele>1797.8</ele>
        <time>2022-05-14 16:14:33</time>
      </trkpt>
      <trkpt lat="10.1209" lon="-84.16509">
        <ele>1798</ele>
        <time>2022-05-14 16:14:34</time>
      </trkpt>
      <trkpt lat="10.12092" lon="-84.16508">
        <ele>1798.2</ele>
        <time>2022-05-14 16:14:35</time>
      </trkpt>
      <trkpt lat="10.12094" lon="-84.16506">
        <ele>1798.4</ele>
        <time>2022-05-14 16:14:36</time>
      </trkpt>
      <trkpt lat="10.12095" lon="-84.16505">
        <ele>1798.6</ele>
        <time>2022-05-14 16:14:37</time>
      </trkpt>
      <trkpt lat="10.12097" lon="-84.16503">
        <ele>1798.6</ele>
        <time>2022-05-14 16:14:38</time>
      </trkpt>
      <trkpt lat="10.12098" lon="-84.16502">
        <ele>1798.8</ele>
        <time>2022-05-14 16:14:39</time>
      </trkpt>
      <trkpt lat="10.12098" lon="-84.16502">
        <ele>1799.2</ele>
        <time>2022-05-14 16:14:40</time>
      </trkpt>
      <trkpt lat="10.12098" lon="-84.16502">
        <ele>1799.6</ele>
        <time>2022-05-14 16:14:41</time>
      </trkpt>
      <trkpt lat="10.12101" lon="-84.16494">
        <ele>1799.8</ele>
        <time>2022-05-14 16:14:42</time>
      </trkpt>
      <trkpt lat="10.12101" lon="-84.16492">
        <ele>1800</ele>
        <time>2022-05-14 16:14:43</time>
      </trkpt>
      <trkpt lat="10.12101" lon="-84.1649">
        <ele>1800.2</ele>
        <time>2022-05-14 16:14:44</time>
      </trkpt>
      <trkpt lat="10.12101" lon="-84.16488">
        <ele>1800.6</ele>
        <time>2022-05-14 16:14:45</time>
      </trkpt>
      <trkpt lat="10.12101" lon="-84.16485">
        <ele>1800.8</ele>
        <time>2022-05-14 16:14:46</time>
      </trkpt>
      <trkpt lat="10.121" lon="-84.16483">
        <ele>1801.2</ele>
        <time>2022-05-14 16:14:47</time>
      </trkpt>
      <trkpt lat="10.12099" lon="-84.16482">
        <ele>1801.4</ele>
        <time>2022-05-14 16:14:48</time>
      </trkpt>
      <trkpt lat="10.12098" lon="-84.1648">
        <ele>1801.6</ele>
        <time>2022-05-14 16:14:49</time>
      </trkpt>
      <trkpt lat="10.12097" lon="-84.16477">
        <ele>1802</ele>
        <time>2022-05-14 16:14:50</time>
      </trkpt>
      <trkpt lat="10.12097" lon="-84.16477">
        <ele>1802.2</ele>
        <time>2022-05-14 16:14:51</time>
      </trkpt>
      <trkpt lat="10.12097" lon="-84.16477">
        <ele>1802.6</ele>
        <time>2022-05-14 16:14:52</time>
      </trkpt>
      <trkpt lat="10.12093" lon="-84.16471">
        <ele>1802.6</ele>
        <time>2022-05-14 16:14:53</time>
      </trkpt>
      <trkpt lat="10.12092" lon="-84.16469">
        <ele>1802.8</ele>
        <time>2022-05-14 16:14:54</time>
      </trkpt>
      <trkpt lat="10.1209" lon="-84.16467">
        <ele>1803</ele>
        <time>2022-05-14 16:14:55</time>
      </trkpt>
      <trkpt lat="10.12088" lon="-84.16463">
        <ele>1803.2</ele>
        <time>2022-05-14 16:14:56</time>
      </trkpt>
      <trkpt lat="10.12088" lon="-84.1646">
        <ele>1803.6</ele>
        <time>2022-05-14 16:14:57</time>
      </trkpt>
      <trkpt lat="10.12087" lon="-84.16458">
        <ele>1803.8</ele>
        <time>2022-05-14 16:14:58</time>
      </trkpt>
      <trkpt lat="10.12086" lon="-84.16455">
        <ele>1804</ele>
        <time>2022-05-14 16:14:59</time>
      </trkpt>
      <trkpt lat="10.12086" lon="-84.16452">
        <ele>1804.2</ele>
        <time>2022-05-14 16:15:00</time>
      </trkpt>
      <trkpt lat="10.12086" lon="-84.16452">
        <ele>1804.4</ele>
        <time>2022-05-14 16:15:01</time>
      </trkpt>
      <trkpt lat="10.12086" lon="-84.16446">
        <ele>1804.6</ele>
        <time>2022-05-14 16:15:02</time>
      </trkpt>
      <trkpt lat="10.12086" lon="-84.16443">
        <ele>1804.8</ele>
        <time>2022-05-14 16:15:03</time>
      </trkpt>
      <trkpt lat="10.12087" lon="-84.1644">
        <ele>1805</ele>
        <time>2022-05-14 16:15:04</time>
      </trkpt>
      <trkpt lat="10.12086" lon="-84.16438">
        <ele>1805.2</ele>
        <time>2022-05-14 16:15:05</time>
      </trkpt>
      <trkpt lat="10.12086" lon="-84.16434">
        <ele>1805.4</ele>
        <time>2022-05-14 16:15:06</time>
      </trkpt>
      <trkpt lat="10.12086" lon="-84.16431">
        <ele>1805.6</ele>
        <time>2022-05-14 16:15:07</time>
      </trkpt>
      <trkpt lat="10.12085" lon="-84.16429">
        <ele>1805.6</ele>
        <time>2022-05-14 16:15:08</time>
      </trkpt>
      <trkpt lat="10.12086" lon="-84.16427">
        <ele>1806</ele>
        <time>2022-05-14 16:15:09</time>
      </trkpt>
      <trkpt lat="10.12086" lon="-84.16425">
        <ele>1806.2</ele>
        <time>2022-05-14 16:15:10</time>
      </trkpt>
      <trkpt lat="10.12087" lon="-84.16422">
        <ele>1806.4</ele>
        <time>2022-05-14 16:15:11</time>
      </trkpt>
      <trkpt lat="10.12087" lon="-84.16422">
        <ele>1806.6</ele>
        <time>2022-05-14 16:15:12</time>
      </trkpt>
      <trkpt lat="10.12089" lon="-84.16418">
        <ele>1807</ele>
        <time>2022-05-14 16:15:13</time>
      </trkpt>
      <trkpt lat="10.1209" lon="-84.16415">
        <ele>1807</ele>
        <time>2022-05-14 16:15:14</time>
      </trkpt>
      <trkpt lat="10.12091" lon="-84.16413">
        <ele>1807.4</ele>
        <time>2022-05-14 16:15:15</time>
      </trkpt>
      <trkpt lat="10.12092" lon="-84.16411">
        <ele>1807.6</ele>
        <time>2022-05-14 16:15:16</time>
      </trkpt>
      <trkpt lat="10.12094" lon="-84.16409">
        <ele>1807.8</ele>
        <time>2022-05-14 16:15:17</time>
      </trkpt>
      <trkpt lat="10.12095" lon="-84.16408">
        <ele>1808</ele>
        <time>2022-05-14 16:15:18</time>
      </trkpt>
      <trkpt lat="10.12097" lon="-84.16406">
        <ele>1808.4</ele>
        <time>2022-05-14 16:15:19</time>
      </trkpt>
      <trkpt lat="10.12098" lon="-84.16405">
        <ele>1808.6</ele>
        <time>2022-05-14 16:15:20</time>
      </trkpt>
      <trkpt lat="10.121" lon="-84.16403">
        <ele>1808.8</ele>
        <time>2022-05-14 16:15:21</time>
      </trkpt>
      <trkpt lat="10.121" lon="-84.16403">
        <ele>1809</ele>
        <time>2022-05-14 16:15:22</time>
      </trkpt>
      <trkpt lat="10.12104" lon="-84.164">
        <ele>1809.2</ele>
        <time>2022-05-14 16:15:23</time>
      </trkpt>
      <trkpt lat="10.12106" lon="-84.16399">
        <ele>1809.4</ele>
        <time>2022-05-14 16:15:24</time>
      </trkpt>
      <trkpt lat="10.12108" lon="-84.16399">
        <ele>1809.6</ele>
        <time>2022-05-14 16:15:25</time>
      </trkpt>
      <trkpt lat="10.12111" lon="-84.16399">
        <ele>1810</ele>
        <time>2022-05-14 16:15:26</time>
      </trkpt>
      <trkpt lat="10.12112" lon="-84.164">
        <ele>1810.2</ele>
        <time>2022-05-14 16:15:27</time>
      </trkpt>
      <trkpt lat="10.12113" lon="-84.164">
        <ele>1810.4</ele>
        <time>2022-05-14 16:15:28</time>
      </trkpt>
      <trkpt lat="10.12115" lon="-84.16399">
        <ele>1810.6</ele>
        <time>2022-05-14 16:15:29</time>
      </trkpt>
      <trkpt lat="10.12117" lon="-84.16399">
        <ele>1810.8</ele>
        <time>2022-05-14 16:15:30</time>
      </trkpt>
      <trkpt lat="10.12119" lon="-84.164">
        <ele>1811</ele>
        <time>2022-05-14 16:15:31</time>
      </trkpt>
      <trkpt lat="10.12119" lon="-84.164">
        <ele>1811.2</ele>
        <time>2022-05-14 16:15:32</time>
      </trkpt>
      <trkpt lat="10.12119" lon="-84.164">
        <ele>1811.4</ele>
        <time>2022-05-14 16:15:33</time>
      </trkpt>
      <trkpt lat="10.12124" lon="-84.16402">
        <ele>1811.6</ele>
        <time>2022-05-14 16:15:34</time>
      </trkpt>
      <trkpt lat="10.12125" lon="-84.16403">
        <ele>1811.6</ele>
        <time>2022-05-14 16:15:35</time>
      </trkpt>
      <trkpt lat="10.12126" lon="-84.16404">
        <ele>1811.6</ele>
        <time>2022-05-14 16:15:36</time>
      </trkpt>
      <trkpt lat="10.12127" lon="-84.16406">
        <ele>1812</ele>
        <time>2022-05-14 16:15:37</time>
      </trkpt>
      <trkpt lat="10.12128" lon="-84.16408">
        <ele>1812</ele>
        <time>2022-05-14 16:15:38</time>
      </trkpt>
      <trkpt lat="10.12129" lon="-84.16409">
        <ele>1812.2</ele>
        <time>2022-05-14 16:15:39</time>
      </trkpt>
      <trkpt lat="10.12131" lon="-84.1641">
        <ele>1812.2</ele>
        <time>2022-05-14 16:15:40</time>
      </trkpt>
      <trkpt lat="10.12132" lon="-84.16411">
        <ele>1812.6</ele>
        <time>2022-05-14 16:15:41</time>
      </trkpt>
      <trkpt lat="10.12132" lon="-84.16411">
        <ele>1813</ele>
        <time>2022-05-14 16:15:42</time>
      </trkpt>
      <trkpt lat="10.12132" lon="-84.16411">
        <ele>1813.2</ele>
        <time>2022-05-14 16:15:43</time>
      </trkpt>
      <trkpt lat="10.12135" lon="-84.16417">
        <ele>1813.4</ele>
        <time>2022-05-14 16:15:44</time>
      </trkpt>
      <trkpt lat="10.12137" lon="-84.16418">
        <ele>1813.6</ele>
        <time>2022-05-14 16:15:45</time>
      </trkpt>
      <trkpt lat="10.12138" lon="-84.1642">
        <ele>1814</ele>
        <time>2022-05-14 16:15:46</time>
      </trkpt>
      <trkpt lat="10.12139" lon="-84.16422">
        <ele>1814.4</ele>
        <time>2022-05-14 16:15:47</time>
      </trkpt>
      <trkpt lat="10.1214" lon="-84.16424">
        <ele>1814.6</ele>
        <time>2022-05-14 16:15:48</time>
      </trkpt>
      <trkpt lat="10.12141" lon="-84.16425">
        <ele>1814.6</ele>
        <time>2022-05-14 16:15:49</time>
      </trkpt>
      <trkpt lat="10.12143" lon="-84.16427">
        <ele>1814.8</ele>
        <time>2022-05-14 16:15:50</time>
      </trkpt>
      <trkpt lat="10.12144" lon="-84.16429">
        <ele>1815.2</ele>
        <time>2022-05-14 16:15:51</time>
      </trkpt>
      <trkpt lat="10.12146" lon="-84.16431">
        <ele>1815.4</ele>
        <time>2022-05-14 16:15:52</time>
      </trkpt>
      <trkpt lat="10.12146" lon="-84.16431">
        <ele>1815.6</ele>
        <time>2022-05-14 16:15:53</time>
      </trkpt>
      <trkpt lat="10.1215" lon="-84.16434">
        <ele>1815.8</ele>
        <time>2022-05-14 16:15:54</time>
      </trkpt>
      <trkpt lat="10.12152" lon="-84.16435">
        <ele>1816.2</ele>
        <time>2022-05-14 16:15:55</time>
      </trkpt>
      <trkpt lat="10.12154" lon="-84.16437">
        <ele>1816.2</ele>
        <time>2022-05-14 16:15:56</time>
      </trkpt>
      <trkpt lat="10.12156" lon="-84.16438">
        <ele>1816.6</ele>
        <time>2022-05-14 16:15:57</time>
      </trkpt>
      <trkpt lat="10.12158" lon="-84.16439">
        <ele>1817</ele>
        <time>2022-05-14 16:15:58</time>
      </trkpt>
      <trkpt lat="10.1216" lon="-84.16439">
        <ele>1817.4</ele>
        <time>2022-05-14 16:15:59</time>
      </trkpt>
      <trkpt lat="10.12162" lon="-84.1644">
        <ele>1817.6</ele>
        <time>2022-05-14 16:16:00</time>
      </trkpt>
      <trkpt lat="10.12165" lon="-84.16439">
        <ele>1818</ele>
        <time>2022-05-14 16:16:01</time>
      </trkpt>
      <trkpt lat="10.12167" lon="-84.16438">
        <ele>1818.2</ele>
        <time>2022-05-14 16:16:02</time>
      </trkpt>
      <trkpt lat="10.12167" lon="-84.16438">
        <ele>1818.6</ele>
        <time>2022-05-14 16:16:03</time>
      </trkpt>
      <trkpt lat="10.12171" lon="-84.16437">
        <ele>1818.8</ele>
        <time>2022-05-14 16:16:04</time>
      </trkpt>
      <trkpt lat="10.12172" lon="-84.16435">
        <ele>1819</ele>
        <time>2022-05-14 16:16:05</time>
      </trkpt>
      <trkpt lat="10.12174" lon="-84.16434">
        <ele>1819.4</ele>
        <time>2022-05-14 16:16:06</time>
      </trkpt>
      <trkpt lat="10.12175" lon="-84.16431">
        <ele>1819.6</ele>
        <time>2022-05-14 16:16:07</time>
      </trkpt>
      <trkpt lat="10.12177" lon="-84.16429">
        <ele>1819.8</ele>
        <time>2022-05-14 16:16:08</time>
      </trkpt>
      <trkpt lat="10.12178" lon="-84.16427">
        <ele>1820</ele>
        <time>2022-05-14 16:16:09</time>
      </trkpt>
      <trkpt lat="10.12179" lon="-84.16425">
        <ele>1820.4</ele>
        <time>2022-05-14 16:16:10</time>
      </trkpt>
      <trkpt lat="10.1218" lon="-84.16424">
        <ele>1820.8</ele>
        <time>2022-05-14 16:16:11</time>
      </trkpt>
      <trkpt lat="10.12181" lon="-84.16422">
        <ele>1820.8</ele>
        <time>2022-05-14 16:16:12</time>
      </trkpt>
      <trkpt lat="10.12182" lon="-84.16419">
        <ele>1821</ele>
        <time>2022-05-14 16:16:13</time>
      </trkpt>
      <trkpt lat="10.12182" lon="-84.16419">
        <ele>1821.2</ele>
        <time>2022-05-14 16:16:14</time>
      </trkpt>
      <trkpt lat="10.12182" lon="-84.16415">
        <ele>1821.6</ele>
        <time>2022-05-14 16:16:15</time>
      </trkpt>
      <trkpt lat="10.12183" lon="-84.16413">
        <ele>1821.8</ele>
        <time>2022-05-14 16:16:16</time>
      </trkpt>
      <trkpt lat="10.12184" lon="-84.16411">
        <ele>1821.8</ele>
        <time>2022-05-14 16:16:17</time>
      </trkpt>
      <trkpt lat="10.12185" lon="-84.16409">
        <ele>1822</ele>
        <time>2022-05-14 16:16:18</time>
      </trkpt>
      <trkpt lat="10.12187" lon="-84.16407">
        <ele>1822.2</ele>
        <time>2022-05-14 16:16:19</time>
      </trkpt>
      <trkpt lat="10.12189" lon="-84.16404">
        <ele>1822.6</ele>
        <time>2022-05-14 16:16:20</time>
      </trkpt>
      <trkpt lat="10.1219" lon="-84.16402">
        <ele>1823</ele>
        <time>2022-05-14 16:16:21</time>
      </trkpt>
      <trkpt lat="10.12192" lon="-84.164">
        <ele>1823.2</ele>
        <time>2022-05-14 16:16:22</time>
      </trkpt>
      <trkpt lat="10.12192" lon="-84.164">
        <ele>1823.4</ele>
        <time>2022-05-14 16:16:23</time>
      </trkpt>
      <trkpt lat="10.12192" lon="-84.164">
        <ele>1823.6</ele>
        <time>2022-05-14 16:16:24</time>
      </trkpt>
      <trkpt lat="10.12198" lon="-84.16393">
        <ele>1823.8</ele>
        <time>2022-05-14 16:16:25</time>
      </trkpt>
      <trkpt lat="10.122" lon="-84.16392">
        <ele>1824</ele>
        <time>2022-05-14 16:16:26</time>
      </trkpt>
      <trkpt lat="10.12202" lon="-84.1639">
        <ele>1824.2</ele>
        <time>2022-05-14 16:16:27</time>
      </trkpt>
      <trkpt lat="10.12204" lon="-84.16389">
        <ele>1824.4</ele>
        <time>2022-05-14 16:16:28</time>
      </trkpt>
      <trkpt lat="10.12206" lon="-84.16389">
        <ele>1824.8</ele>
        <time>2022-05-14 16:16:29</time>
      </trkpt>
      <trkpt lat="10.12209" lon="-84.16389">
        <ele>1825</ele>
        <time>2022-05-14 16:16:30</time>
      </trkpt>
      <trkpt lat="10.12212" lon="-84.16389">
        <ele>1825.2</ele>
        <time>2022-05-14 16:16:31</time>
      </trkpt>
      <trkpt lat="10.12214" lon="-84.16389">
        <ele>1825.2</ele>
        <time>2022-05-14 16:16:32</time>
      </trkpt>
      <trkpt lat="10.12216" lon="-84.16389">
        <ele>1825.4</ele>
        <time>2022-05-14 16:16:33</time>
      </trkpt>
      <trkpt lat="10.12216" lon="-84.16389">
        <ele>1825.6</ele>
        <time>2022-05-14 16:16:34</time>
      </trkpt>
      <trkpt lat="10.12216" lon="-84.16389">
        <ele>1825.8</ele>
        <time>2022-05-14 16:16:35</time>
      </trkpt>
      <trkpt lat="10.12222" lon="-84.16393">
        <ele>1826</ele>
        <time>2022-05-14 16:16:36</time>
      </trkpt>
      <trkpt lat="10.12224" lon="-84.16393">
        <ele>1826.2</ele>
        <time>2022-05-14 16:16:37</time>
      </trkpt>
      <trkpt lat="10.12226" lon="-84.16394">
        <ele>1826.2</ele>
        <time>2022-05-14 16:16:38</time>
      </trkpt>
      <trkpt lat="10.12228" lon="-84.16395">
        <ele>1826.2</ele>
        <time>2022-05-14 16:16:39</time>
      </trkpt>
      <trkpt lat="10.1223" lon="-84.16396">
        <ele>1826.6</ele>
        <time>2022-05-14 16:16:40</time>
      </trkpt>
      <trkpt lat="10.12232" lon="-84.16398">
        <ele>1826.8</ele>
        <time>2022-05-14 16:16:41</time>
      </trkpt>
      <trkpt lat="10.12233" lon="-84.164">
        <ele>1827</ele>
        <time>2022-05-14 16:16:42</time>
      </trkpt>
      <trkpt lat="10.12234" lon="-84.16401">
        <ele>1827.2</ele>
        <time>2022-05-14 16:16:43</time>
      </trkpt>
      <trkpt lat="10.12234" lon="-84.16401">
        <ele>1827.4</ele>
        <time>2022-05-14 16:16:44</time>
      </trkpt>
      <trkpt lat="10.12237" lon="-84.16404">
        <ele>1827.6</ele>
        <time>2022-05-14 16:16:45</time>
      </trkpt>
      <trkpt lat="10.12238" lon="-84.16406">
        <ele>1827.8</ele>
        <time>2022-05-14 16:16:46</time>
      </trkpt>
      <trkpt lat="10.12239" lon="-84.16408">
        <ele>1828</ele>
        <time>2022-05-14 16:16:47</time>
      </trkpt>
      <trkpt lat="10.1224" lon="-84.1641">
        <ele>1828</ele>
        <time>2022-05-14 16:16:48</time>
      </trkpt>
      <trkpt lat="10.12241" lon="-84.16411">
        <ele>1828.2</ele>
        <time>2022-05-14 16:16:49</time>
      </trkpt>
      <trkpt lat="10.12241" lon="-84.16414">
        <ele>1828.4</ele>
        <time>2022-05-14 16:16:50</time>
      </trkpt>
      <trkpt lat="10.12242" lon="-84.16415">
        <ele>1828.6</ele>
        <time>2022-05-14 16:16:51</time>
      </trkpt>
      <trkpt lat="10.12243" lon="-84.16418">
        <ele>1828.8</ele>
        <time>2022-05-14 16:16:52</time>
      </trkpt>
      <trkpt lat="10.12243" lon="-84.1642">
        <ele>1829</ele>
        <time>2022-05-14 16:16:53</time>
      </trkpt>
      <trkpt lat="10.12243" lon="-84.16422">
        <ele>1829</ele>
        <time>2022-05-14 16:16:54</time>
      </trkpt>
      <trkpt lat="10.12243" lon="-84.16422">
        <ele>1829.2</ele>
        <time>2022-05-14 16:16:55</time>
      </trkpt>
      <trkpt lat="10.12244" lon="-84.16427">
        <ele>1829.4</ele>
        <time>2022-05-14 16:16:56</time>
      </trkpt>
      <trkpt lat="10.12245" lon="-84.16429">
        <ele>1829.6</ele>
        <time>2022-05-14 16:16:57</time>
      </trkpt>
      <trkpt lat="10.12245" lon="-84.16431">
        <ele>1829.8</ele>
        <time>2022-05-14 16:16:58</time>
      </trkpt>
      <trkpt lat="10.12246" lon="-84.16433">
        <ele>1829.8</ele>
        <time>2022-05-14 16:16:59</time>
      </trkpt>
      <trkpt lat="10.12246" lon="-84.16435">
        <ele>1829.8</ele>
        <time>2022-05-14 16:17:00</time>
      </trkpt>
      <trkpt lat="10.12246" lon="-84.16437">
        <ele>1830</ele>
        <time>2022-05-14 16:17:01</time>
      </trkpt>
      <trkpt lat="10.12246" lon="-84.16439">
        <ele>1830.2</ele>
        <time>2022-05-14 16:17:02</time>
      </trkpt>
      <trkpt lat="10.12247" lon="-84.16441">
        <ele>1830.4</ele>
        <time>2022-05-14 16:17:03</time>
      </trkpt>
      <trkpt lat="10.12245" lon="-84.16443">
        <ele>1830.4</ele>
        <time>2022-05-14 16:17:04</time>
      </trkpt>
      <trkpt lat="10.12245" lon="-84.16443">
        <ele>1830.6</ele>
        <time>2022-05-14 16:17:05</time>
      </trkpt>
      <trkpt lat="10.12245" lon="-84.16447">
        <ele>1830.8</ele>
        <time>2022-05-14 16:17:06</time>
      </trkpt>
      <trkpt lat="10.12245" lon="-84.16449">
        <ele>1831</ele>
        <time>2022-05-14 16:17:07</time>
      </trkpt>
      <trkpt lat="10.12244" lon="-84.16453">
        <ele>1831.2</ele>
        <time>2022-05-14 16:17:08</time>
      </trkpt>
      <trkpt lat="10.12243" lon="-84.16455">
        <ele>1831.4</ele>
        <time>2022-05-14 16:17:09</time>
      </trkpt>
      <trkpt lat="10.12242" lon="-84.16458">
        <ele>1831.4</ele>
        <time>2022-05-14 16:17:10</time>
      </trkpt>
      <trkpt lat="10.12241" lon="-84.1646">
        <ele>1831.6</ele>
        <time>2022-05-14 16:17:11</time>
      </trkpt>
      <trkpt lat="10.1224" lon="-84.16463">
        <ele>1831.8</ele>
        <time>2022-05-14 16:17:12</time>
      </trkpt>
      <trkpt lat="10.12239" lon="-84.16467">
        <ele>1832</ele>
        <time>2022-05-14 16:17:13</time>
      </trkpt>
      <trkpt lat="10.12238" lon="-84.16469">
        <ele>1832.2</ele>
        <time>2022-05-14 16:17:14</time>
      </trkpt>
      <trkpt lat="10.12238" lon="-84.16469">
        <ele>1832.2</ele>
        <time>2022-05-14 16:17:15</time>
      </trkpt>
      <trkpt lat="10.12238" lon="-84.16469">
        <ele>1832.4</ele>
        <time>2022-05-14 16:17:16</time>
      </trkpt>
      <trkpt lat="10.12237" lon="-84.16476">
        <ele>1832.6</ele>
        <time>2022-05-14 16:17:17</time>
      </trkpt>
      <trkpt lat="10.12236" lon="-84.16479">
        <ele>1832.8</ele>
        <time>2022-05-14 16:17:18</time>
      </trkpt>
      <trkpt lat="10.12235" lon="-84.16481">
        <ele>1833</ele>
        <time>2022-05-14 16:17:19</time>
      </trkpt>
      <trkpt lat="10.12235" lon="-84.16483">
        <ele>1833</ele>
        <time>2022-05-14 16:17:20</time>
      </trkpt>
      <trkpt lat="10.12236" lon="-84.16485">
        <ele>1833.2</ele>
        <time>2022-05-14 16:17:21</time>
      </trkpt>
      <trkpt lat="10.12237" lon="-84.16488">
        <ele>1833.6</ele>
        <time>2022-05-14 16:17:22</time>
      </trkpt>
      <trkpt lat="10.12238" lon="-84.16489">
        <ele>1833.8</ele>
        <time>2022-05-14 16:17:23</time>
      </trkpt>
      <trkpt lat="10.12241" lon="-84.16492">
        <ele>1834</ele>
        <time>2022-05-14 16:17:24</time>
      </trkpt>
      <trkpt lat="10.12241" lon="-84.16492">
        <ele>1834.4</ele>
        <time>2022-05-14 16:17:25</time>
      </trkpt>
      <trkpt lat="10.12241" lon="-84.16492">
        <ele>1834.4</ele>
        <time>2022-05-14 16:17:26</time>
      </trkpt>
      <trkpt lat="10.12247" lon="-84.16496">
        <ele>1834.6</ele>
        <time>2022-05-14 16:17:27</time>
      </trkpt>
      <trkpt lat="10.12249" lon="-84.16496">
        <ele>1834.8</ele>
        <time>2022-05-14 16:17:28</time>
      </trkpt>
      <trkpt lat="10.12251" lon="-84.16496">
        <ele>1835</ele>
        <time>2022-05-14 16:17:29</time>
      </trkpt>
      <trkpt lat="10.12254" lon="-84.16496">
        <ele>1835.2</ele>
        <time>2022-05-14 16:17:30</time>
      </trkpt>
      <trkpt lat="10.12255" lon="-84.16493">
        <ele>1835.4</ele>
        <time>2022-05-14 16:17:31</time>
      </trkpt>
      <trkpt lat="10.12257" lon="-84.16492">
        <ele>1835.6</ele>
        <time>2022-05-14 16:17:32</time>
      </trkpt>
      <trkpt lat="10.12259" lon="-84.1649">
        <ele>1835.8</ele>
        <time>2022-05-14 16:17:33</time>
      </trkpt>
      <trkpt lat="10.12261" lon="-84.16489">
        <ele>1836</ele>
        <time>2022-05-14 16:17:34</time>
      </trkpt>
      <trkpt lat="10.12263" lon="-84.16488">
        <ele>1836.4</ele>
        <time>2022-05-14 16:17:35</time>
      </trkpt>
      <trkpt lat="10.12263" lon="-84.16488">
        <ele>1836.6</ele>
        <time>2022-05-14 16:17:36</time>
      </trkpt>
      <trkpt lat="10.12265" lon="-84.16483">
        <ele>1836.8</ele>
        <time>2022-05-14 16:17:37</time>
      </trkpt>
      <trkpt lat="10.12267" lon="-84.16481">
        <ele>1837</ele>
        <time>2022-05-14 16:17:38</time>
      </trkpt>
      <trkpt lat="10.12269" lon="-84.16479">
        <ele>1837.4</ele>
        <time>2022-05-14 16:17:39</time>
      </trkpt>
      <trkpt lat="10.12272" lon="-84.16476">
        <ele>1837.8</ele>
        <time>2022-05-14 16:17:40</time>
      </trkpt>
      <trkpt lat="10.12274" lon="-84.16474">
        <ele>1837.8</ele>
        <time>2022-05-14 16:17:41</time>
      </trkpt>
      <trkpt lat="10.12275" lon="-84.16472">
        <ele>1838</ele>
        <time>2022-05-14 16:17:42</time>
      </trkpt>
      <trkpt lat="10.12278" lon="-84.1647">
        <ele>1838.2</ele>
        <time>2022-05-14 16:17:43</time>
      </trkpt>
      <trkpt lat="10.12279" lon="-84.16468">
        <ele>1838.4</ele>
        <time>2022-05-14 16:17:44</time>
      </trkpt>
      <trkpt lat="10.12281" lon="-84.16467">
        <ele>1838.8</ele>
        <time>2022-05-14 16:17:45</time>
      </trkpt>
      <trkpt lat="10.12281" lon="-84.16467">
        <ele>1839</ele>
        <time>2022-05-14 16:17:46</time>
      </trkpt>
      <trkpt lat="10.12286" lon="-84.16463">
        <ele>1839.2</ele>
        <time>2022-05-14 16:17:47</time>
      </trkpt>
      <trkpt lat="10.12289" lon="-84.16462">
        <ele>1839.4</ele>
        <time>2022-05-14 16:17:48</time>
      </trkpt>
      <trkpt lat="10.12291" lon="-84.16461">
        <ele>1839.6</ele>
        <time>2022-05-14 16:17:49</time>
      </trkpt>
      <trkpt lat="10.12294" lon="-84.1646">
        <ele>1839.6</ele>
        <time>2022-05-14 16:17:50</time>
      </trkpt>
      <trkpt lat="10.12297" lon="-84.16459">
        <ele>1839.8</ele>
        <time>2022-05-14 16:17:51</time>
      </trkpt>
      <trkpt lat="10.123" lon="-84.16458">
        <ele>1840</ele>
        <time>2022-05-14 16:17:52</time>
      </trkpt>
      <trkpt lat="10.12303" lon="-84.16456">
        <ele>1840.2</ele>
        <time>2022-05-14 16:17:53</time>
      </trkpt>
      <trkpt lat="10.12306" lon="-84.16456">
        <ele>1840.4</ele>
        <time>2022-05-14 16:17:54</time>
      </trkpt>
      <trkpt lat="10.12309" lon="-84.16456">
        <ele>1840.6</ele>
        <time>2022-05-14 16:17:55</time>
      </trkpt>
      <trkpt lat="10.12312" lon="-84.16454">
        <ele>1840.8</ele>
        <time>2022-05-14 16:17:56</time>
      </trkpt>
      <trkpt lat="10.12312" lon="-84.16454">
        <ele>1841</ele>
        <time>2022-05-14 16:17:57</time>
      </trkpt>
      <trkpt lat="10.12318" lon="-84.16454">
        <ele>1841.2</ele>
        <time>2022-05-14 16:17:58</time>
      </trkpt>
      <trkpt lat="10.12321" lon="-84.16454">
        <ele>1841.4</ele>
        <time>2022-05-14 16:17:59</time>
      </trkpt>
      <trkpt lat="10.12324" lon="-84.16455">
        <ele>1841.6</ele>
        <time>2022-05-14 16:18:00</time>
      </trkpt>
      <trkpt lat="10.12327" lon="-84.16456">
        <ele>1841.8</ele>
        <time>2022-05-14 16:18:01</time>
      </trkpt>
      <trkpt lat="10.1233" lon="-84.16458">
        <ele>1841.8</ele>
        <time>2022-05-14 16:18:02</time>
      </trkpt>
      <trkpt lat="10.12333" lon="-84.16458">
        <ele>1842</ele>
        <time>2022-05-14 16:18:03</time>
      </trkpt>
      <trkpt lat="10.12335" lon="-84.16459">
        <ele>1842</ele>
        <time>2022-05-14 16:18:04</time>
      </trkpt>
      <trkpt lat="10.12338" lon="-84.1646">
        <ele>1842.2</ele>
        <time>2022-05-14 16:18:05</time>
      </trkpt>
      <trkpt lat="10.12338" lon="-84.1646">
        <ele>1842.4</ele>
        <time>2022-05-14 16:18:06</time>
      </trkpt>
      <trkpt lat="10.12338" lon="-84.1646">
        <ele>1842.8</ele>
        <time>2022-05-14 16:18:07</time>
      </trkpt>
      <trkpt lat="10.12346" lon="-84.16463">
        <ele>1842.8</ele>
        <time>2022-05-14 16:18:08</time>
      </trkpt>
      <trkpt lat="10.12348" lon="-84.16465">
        <ele>1843</ele>
        <time>2022-05-14 16:18:09</time>
      </trkpt>
      <trkpt lat="10.12351" lon="-84.16467">
        <ele>1843.2</ele>
        <time>2022-05-14 16:18:10</time>
      </trkpt>
      <trkpt lat="10.12354" lon="-84.16467">
        <ele>1843.6</ele>
        <time>2022-05-14 16:18:11</time>
      </trkpt>
      <trkpt lat="10.12356" lon="-84.16469">
        <ele>1843.8</ele>
        <time>2022-05-14 16:18:12</time>
      </trkpt>
      <trkpt lat="10.12358" lon="-84.16469">
        <ele>1844</ele>
        <time>2022-05-14 16:18:13</time>
      </trkpt>
      <trkpt lat="10.1236" lon="-84.16472">
        <ele>1844.4</ele>
        <time>2022-05-14 16:18:14</time>
      </trkpt>
      <trkpt lat="10.12363" lon="-84.16474">
        <ele>1844.6</ele>
        <time>2022-05-14 16:18:15</time>
      </trkpt>
      <trkpt lat="10.12364" lon="-84.16476">
        <ele>1844.8</ele>
        <time>2022-05-14 16:18:16</time>
      </trkpt>
      <trkpt lat="10.12364" lon="-84.16476">
        <ele>1845</ele>
        <time>2022-05-14 16:18:17</time>
      </trkpt>
      <trkpt lat="10.12364" lon="-84.16476">
        <ele>1845.2</ele>
        <time>2022-05-14 16:18:18</time>
      </trkpt>
      <trkpt lat="10.12369" lon="-84.16483">
        <ele>1845.4</ele>
        <time>2022-05-14 16:18:19</time>
      </trkpt>
      <trkpt lat="10.12369" lon="-84.16485">
        <ele>1845.8</ele>
        <time>2022-05-14 16:18:20</time>
      </trkpt>
      <trkpt lat="10.1237" lon="-84.16487">
        <ele>1846</ele>
        <time>2022-05-14 16:18:21</time>
      </trkpt>
      <trkpt lat="10.1237" lon="-84.16489">
        <ele>1846</ele>
        <time>2022-05-14 16:18:22</time>
      </trkpt>
      <trkpt lat="10.12371" lon="-84.1649">
        <ele>1846</ele>
        <time>2022-05-14 16:18:23</time>
      </trkpt>
      <trkpt lat="10.12371" lon="-84.16491">
        <ele>1846.2</ele>
        <time>2022-05-14 16:18:24</time>
      </trkpt>
      <trkpt lat="10.14089" lon="-84.19471">
        <ele>1749.6</ele>
        <time>2022-05-14 17:26:51</time>
      </trkpt>
      <trkpt lat="10.1408" lon="-84.19466">
        <ele>1749.2</ele>
        <time>2022-05-14 17:26:52</time>
      </trkpt>
      <trkpt lat="10.14076" lon="-84.19462">
        <ele>1748.6</ele>
        <time>2022-05-14 17:26:53</time>
      </trkpt>
      <trkpt lat="10.14072" lon="-84.19456">
        <ele>1747.8</ele>
        <time>2022-05-14 17:26:54</time>
      </trkpt>
      <trkpt lat="10.14067" lon="-84.1945">
        <ele>1746.6</ele>
        <time>2022-05-14 17:26:55</time>
      </trkpt>
      <trkpt lat="10.14061" lon="-84.19444">
        <ele>1745.8</ele>
        <time>2022-05-14 17:26:56</time>
      </trkpt>
      <trkpt lat="10.14055" lon="-84.19436">
        <ele>1745</ele>
        <time>2022-05-14 17:26:57</time>
      </trkpt>
      <trkpt lat="10.14049" lon="-84.1943">
        <ele>1744.4</ele>
        <time>2022-05-14 17:26:58</time>
      </trkpt>
      <trkpt lat="10.14044" lon="-84.19422">
        <ele>1743.6</ele>
        <time>2022-05-14 17:26:59</time>
      </trkpt>
      <trkpt lat="10.14037" lon="-84.19415">
        <ele>1742.8</ele>
        <time>2022-05-14 17:27:00</time>
      </trkpt>
      <trkpt lat="10.14037" lon="-84.19415">
        <ele>1742</ele>
        <time>2022-05-14 17:27:01</time>
      </trkpt>
      <trkpt lat="10.14037" lon="-84.19415">
        <ele>1741.4</ele>
        <time>2022-05-14 17:27:02</time>
      </trkpt>
      <trkpt lat="10.14018" lon="-84.19393">
        <ele>1740.6</ele>
        <time>2022-05-14 17:27:03</time>
      </trkpt>
      <trkpt lat="10.14011" lon="-84.19385">
        <ele>1739.8</ele>
        <time>2022-05-14 17:27:04</time>
      </trkpt>
      <trkpt lat="10.14004" lon="-84.19377">
        <ele>1739.2</ele>
        <time>2022-05-14 17:27:05</time>
      </trkpt>
      <trkpt lat="10.13997" lon="-84.19369">
        <ele>1739.2</ele>
        <time>2022-05-14 17:27:06</time>
      </trkpt>
      <trkpt lat="10.1399" lon="-84.19361">
        <ele>1738.2</ele>
        <time>2022-05-14 17:27:07</time>
      </trkpt>
      <trkpt lat="10.13983" lon="-84.19353">
        <ele>1737.2</ele>
        <time>2022-05-14 17:27:08</time>
      </trkpt>
      <trkpt lat="10.13977" lon="-84.19344">
        <ele>1735.6</ele>
        <time>2022-05-14 17:27:09</time>
      </trkpt>
      <trkpt lat="10.1397" lon="-84.19334">
        <ele>1734.2</ele>
        <time>2022-05-14 17:27:10</time>
      </trkpt>
      <trkpt lat="10.1397" lon="-84.19334">
        <ele>1733.2</ele>
        <time>2022-05-14 17:27:11</time>
      </trkpt>
      <trkpt lat="10.1397" lon="-84.19334">
        <ele>1732.2</ele>
        <time>2022-05-14 17:27:12</time>
      </trkpt>
      <trkpt lat="10.13951" lon="-84.19304">
        <ele>1731.2</ele>
        <time>2022-05-14 17:27:13</time>
      </trkpt>
      <trkpt lat="10.13944" lon="-84.19294">
        <ele>1730</ele>
        <time>2022-05-14 17:27:14</time>
      </trkpt>
      <trkpt lat="10.13937" lon="-84.19284">
        <ele>1728.8</ele>
        <time>2022-05-14 17:27:15</time>
      </trkpt>
      <trkpt lat="10.1393" lon="-84.19273">
        <ele>1727.4</ele>
        <time>2022-05-14 17:27:16</time>
      </trkpt>
      <trkpt lat="10.13923" lon="-84.19262">
        <ele>1726.8</ele>
        <time>2022-05-14 17:27:17</time>
      </trkpt>
      <trkpt lat="10.13916" lon="-84.19251">
        <ele>1726</ele>
        <time>2022-05-14 17:27:18</time>
      </trkpt>
      <trkpt lat="10.13909" lon="-84.19241">
        <ele>1725.4</ele>
        <time>2022-05-14 17:27:19</time>
      </trkpt>
      <trkpt lat="10.13901" lon="-84.1923">
        <ele>1724.6</ele>
        <time>2022-05-14 17:27:20</time>
      </trkpt>
      <trkpt lat="10.13894" lon="-84.19221">
        <ele>1724</ele>
        <time>2022-05-14 17:27:21</time>
      </trkpt>
      <trkpt lat="10.13894" lon="-84.19221">
        <ele>1723.4</ele>
        <time>2022-05-14 17:27:22</time>
      </trkpt>
      <trkpt lat="10.13894" lon="-84.19221">
        <ele>1723</ele>
        <time>2022-05-14 17:27:23</time>
      </trkpt>
      <trkpt lat="10.13869" lon="-84.19195">
        <ele>1722.4</ele>
        <time>2022-05-14 17:27:24</time>
      </trkpt>
      <trkpt lat="10.13861" lon="-84.19188">
        <ele>1722</ele>
        <time>2022-05-14 17:27:25</time>
      </trkpt>
      <trkpt lat="10.13852" lon="-84.19182">
        <ele>1721.8</ele>
        <time>2022-05-14 17:27:26</time>
      </trkpt>
      <trkpt lat="10.13843" lon="-84.19177">
        <ele>1721.8</ele>
        <time>2022-05-14 17:27:27</time>
      </trkpt>
      <trkpt lat="10.13834" lon="-84.19172">
        <ele>1721.6</ele>
        <time>2022-05-14 17:27:28</time>
      </trkpt>
      <trkpt lat="10.13824" lon="-84.19168">
        <ele>1721.4</ele>
        <time>2022-05-14 17:27:29</time>
      </trkpt>
      <trkpt lat="10.13816" lon="-84.19163">
        <ele>1721.2</ele>
        <time>2022-05-14 17:27:30</time>
      </trkpt>
      <trkpt lat="10.13808" lon="-84.19159">
        <ele>1721.6</ele>
        <time>2022-05-14 17:27:31</time>
      </trkpt>
      <trkpt lat="10.13808" lon="-84.19159">
        <ele>1721.8</ele>
        <time>2022-05-14 17:27:32</time>
      </trkpt>
      <trkpt lat="10.13793" lon="-84.19148">
        <ele>1722</ele>
        <time>2022-05-14 17:27:33</time>
      </trkpt>
      <trkpt lat="10.13786" lon="-84.19142">
        <ele>1722</ele>
        <time>2022-05-14 17:27:34</time>
      </trkpt>
      <trkpt lat="10.13779" lon="-84.19137">
        <ele>1721.8</ele>
        <time>2022-05-14 17:27:35</time>
      </trkpt>
      <trkpt lat="10.13772" lon="-84.19132">
        <ele>1721.4</ele>
        <time>2022-05-14 17:27:36</time>
      </trkpt>
      <trkpt lat="10.13764" lon="-84.19127">
        <ele>1721</ele>
        <time>2022-05-14 17:27:37</time>
      </trkpt>
      <trkpt lat="10.13757" lon="-84.19122">
        <ele>1720.2</ele>
        <time>2022-05-14 17:27:38</time>
      </trkpt>
      <trkpt lat="10.1375" lon="-84.19115">
        <ele>1719</ele>
        <time>2022-05-14 17:27:39</time>
      </trkpt>
      <trkpt lat="10.13745" lon="-84.19107">
        <ele>1717.4</ele>
        <time>2022-05-14 17:27:40</time>
      </trkpt>
      <trkpt lat="10.1374" lon="-84.19098">
        <ele>1715.4</ele>
        <time>2022-05-14 17:27:41</time>
      </trkpt>
      <trkpt lat="10.13737" lon="-84.19087">
        <ele>1713.6</ele>
        <time>2022-05-14 17:27:42</time>
      </trkpt>
      <trkpt lat="10.13737" lon="-84.19087">
        <ele>1711.6</ele>
        <time>2022-05-14 17:27:43</time>
      </trkpt>
      <trkpt lat="10.13737" lon="-84.19065">
        <ele>1709.8</ele>
        <time>2022-05-14 17:27:44</time>
      </trkpt>
      <trkpt lat="10.13737" lon="-84.19054">
        <ele>1708</ele>
        <time>2022-05-14 17:27:45</time>
      </trkpt>
      <trkpt lat="10.13732" lon="-84.19044">
        <ele>1706.4</ele>
        <time>2022-05-14 17:27:46</time>
      </trkpt>
      <trkpt lat="10.13726" lon="-84.19035">
        <ele>1705</ele>
        <time>2022-05-14 17:27:47</time>
      </trkpt>
      <trkpt lat="10.13721" lon="-84.19026">
        <ele>1705</ele>
        <time>2022-05-14 17:27:48</time>
      </trkpt>
      <trkpt lat="10.13715" lon="-84.19018">
        <ele>1703.6</ele>
        <time>2022-05-14 17:27:49</time>
      </trkpt>
      <trkpt lat="10.1371" lon="-84.19009">
        <ele>1702</ele>
        <time>2022-05-14 17:27:50</time>
      </trkpt>
      <trkpt lat="10.13706" lon="-84.19">
        <ele>1700.4</ele>
        <time>2022-05-14 17:27:51</time>
      </trkpt>
      <trkpt lat="10.13706" lon="-84.19">
        <ele>1698.4</ele>
        <time>2022-05-14 17:27:52</time>
      </trkpt>
      <trkpt lat="10.13706" lon="-84.19">
        <ele>1696.8</ele>
        <time>2022-05-14 17:27:53</time>
      </trkpt>
      <trkpt lat="10.13714" lon="-84.18965">
        <ele>1695</ele>
        <time>2022-05-14 17:27:54</time>
      </trkpt>
      <trkpt lat="10.13719" lon="-84.18953">
        <ele>1693.4</ele>
        <time>2022-05-14 17:27:55</time>
      </trkpt>
      <trkpt lat="10.13724" lon="-84.18941">
        <ele>1691.8</ele>
        <time>2022-05-14 17:27:56</time>
      </trkpt>
      <trkpt lat="10.13729" lon="-84.18928">
        <ele>1690.2</ele>
        <time>2022-05-14 17:27:57</time>
      </trkpt>
      <trkpt lat="10.13734" lon="-84.18917">
        <ele>1689</ele>
        <time>2022-05-14 17:27:58</time>
      </trkpt>
      <trkpt lat="10.1374" lon="-84.18904">
        <ele>1688</ele>
        <time>2022-05-14 17:27:59</time>
      </trkpt>
      <trkpt lat="10.13745" lon="-84.18894">
        <ele>1687</ele>
        <time>2022-05-14 17:28:00</time>
      </trkpt>
      <trkpt lat="10.1375" lon="-84.18882">
        <ele>1686</ele>
        <time>2022-05-14 17:28:01</time>
      </trkpt>
      <trkpt lat="10.13756" lon="-84.18872">
        <ele>1685.2</ele>
        <time>2022-05-14 17:28:02</time>
      </trkpt>
      <trkpt lat="10.13756" lon="-84.18872">
        <ele>1684.2</ele>
        <time>2022-05-14 17:28:03</time>
      </trkpt>
      <trkpt lat="10.13756" lon="-84.18872">
        <ele>1683.4</ele>
        <time>2022-05-14 17:28:04</time>
      </trkpt>
      <trkpt lat="10.13779" lon="-84.18849">
        <ele>1682</ele>
        <time>2022-05-14 17:28:05</time>
      </trkpt>
      <trkpt lat="10.13785" lon="-84.18843">
        <ele>1681</ele>
        <time>2022-05-14 17:28:06</time>
      </trkpt>
      <trkpt lat="10.13791" lon="-84.18836">
        <ele>1679.6</ele>
        <time>2022-05-14 17:28:07</time>
      </trkpt>
      <trkpt lat="10.13795" lon="-84.18829">
        <ele>1678.6</ele>
        <time>2022-05-14 17:28:08</time>
      </trkpt>
      <trkpt lat="10.13797" lon="-84.18821">
        <ele>1678.6</ele>
        <time>2022-05-14 17:28:09</time>
      </trkpt>
      <trkpt lat="10.13801" lon="-84.18814">
        <ele>1677.8</ele>
        <time>2022-05-14 17:28:10</time>
      </trkpt>
      <trkpt lat="10.13803" lon="-84.18808">
        <ele>1677.4</ele>
        <time>2022-05-14 17:28:11</time>
      </trkpt>
      <trkpt lat="10.13805" lon="-84.18805">
        <ele>1677.4</ele>
        <time>2022-05-14 17:28:12</time>
      </trkpt>
      <trkpt lat="10.13805" lon="-84.18805">
        <ele>1677.4</ele>
        <time>2022-05-14 17:28:13</time>
      </trkpt>
      <trkpt lat="10.13784" lon="-84.18812">
        <ele>1677.6</ele>
        <time>2022-05-14 17:28:14</time>
      </trkpt>
      <trkpt lat="10.13779" lon="-84.18814">
        <ele>1677.8</ele>
        <time>2022-05-14 17:28:15</time>
      </trkpt>
      <trkpt lat="10.13774" lon="-84.18816">
        <ele>1678.2</ele>
        <time>2022-05-14 17:28:16</time>
      </trkpt>
      <trkpt lat="10.1377" lon="-84.18818">
        <ele>1678.6</ele>
        <time>2022-05-14 17:28:17</time>
      </trkpt>
      <trkpt lat="10.13766" lon="-84.1882">
        <ele>1679</ele>
        <time>2022-05-14 17:28:18</time>
      </trkpt>
      <trkpt lat="10.13762" lon="-84.18823">
        <ele>1679.4</ele>
        <time>2022-05-14 17:28:19</time>
      </trkpt>
      <trkpt lat="10.13759" lon="-84.18824">
        <ele>1679.8</ele>
        <time>2022-05-14 17:28:20</time>
      </trkpt>
      <trkpt lat="10.13756" lon="-84.18825">
        <ele>1680.2</ele>
        <time>2022-05-14 17:28:21</time>
      </trkpt>
      <trkpt lat="10.13753" lon="-84.18827">
        <ele>1680.6</ele>
        <time>2022-05-14 17:28:22</time>
      </trkpt>
      <trkpt lat="10.1375" lon="-84.18829">
        <ele>1681</ele>
        <time>2022-05-14 17:28:23</time>
      </trkpt>
      <trkpt lat="10.1375" lon="-84.18829">
        <ele>1681.2</ele>
        <time>2022-05-14 17:28:24</time>
      </trkpt>
      <trkpt lat="10.13744" lon="-84.1883">
        <ele>1681.4</ele>
        <time>2022-05-14 17:28:25</time>
      </trkpt>
      <trkpt lat="10.13741" lon="-84.18831">
        <ele>1681.6</ele>
        <time>2022-05-14 17:28:26</time>
      </trkpt>
      <trkpt lat="10.13738" lon="-84.18832">
        <ele>1681.8</ele>
        <time>2022-05-14 17:28:27</time>
      </trkpt>
      <trkpt lat="10.13735" lon="-84.18834">
        <ele>1682.2</ele>
        <time>2022-05-14 17:28:28</time>
      </trkpt>
      <trkpt lat="10.13732" lon="-84.18836">
        <ele>1682.6</ele>
        <time>2022-05-14 17:28:29</time>
      </trkpt>
      <trkpt lat="10.13728" lon="-84.18837">
        <ele>1682.6</ele>
        <time>2022-05-14 17:28:30</time>
      </trkpt>
      <trkpt lat="10.13725" lon="-84.18838">
        <ele>1682.8</ele>
        <time>2022-05-14 17:28:31</time>
      </trkpt>
      <trkpt lat="10.13722" lon="-84.1884">
        <ele>1683</ele>
        <time>2022-05-14 17:28:32</time>
      </trkpt>
      <trkpt lat="10.13722" lon="-84.1884">
        <ele>1683</ele>
        <time>2022-05-14 17:28:33</time>
      </trkpt>
      <trkpt lat="10.13722" lon="-84.1884">
        <ele>1683.2</ele>
        <time>2022-05-14 17:28:34</time>
      </trkpt>
      <trkpt lat="10.13712" lon="-84.18844">
        <ele>1683.2</ele>
        <time>2022-05-14 17:28:35</time>
      </trkpt>
      <trkpt lat="10.13709" lon="-84.18845">
        <ele>1683.4</ele>
        <time>2022-05-14 17:28:36</time>
      </trkpt>
      <trkpt lat="10.13705" lon="-84.18846">
        <ele>1683.4</ele>
        <time>2022-05-14 17:28:37</time>
      </trkpt>
      <trkpt lat="10.13701" lon="-84.18847">
        <ele>1683.6</ele>
        <time>2022-05-14 17:28:38</time>
      </trkpt>
      <trkpt lat="10.13698" lon="-84.18848">
        <ele>1684</ele>
        <time>2022-05-14 17:28:39</time>
      </trkpt>
      <trkpt lat="10.13694" lon="-84.18849">
        <ele>1684.4</ele>
        <time>2022-05-14 17:28:40</time>
      </trkpt>
      <trkpt lat="10.13691" lon="-84.1885">
        <ele>1684.6</ele>
        <time>2022-05-14 17:28:41</time>
      </trkpt>
      <trkpt lat="10.13688" lon="-84.1885">
        <ele>1684.8</ele>
        <time>2022-05-14 17:28:42</time>
      </trkpt>
      <trkpt lat="10.13684" lon="-84.18851">
        <ele>1685</ele>
        <time>2022-05-14 17:28:43</time>
      </trkpt>
      <trkpt lat="10.13684" lon="-84.18851">
        <ele>1685.4</ele>
        <time>2022-05-14 17:28:44</time>
      </trkpt>
      <trkpt lat="10.13684" lon="-84.18851">
        <ele>1685.8</ele>
        <time>2022-05-14 17:28:45</time>
      </trkpt>
      <trkpt lat="10.13675" lon="-84.18852">
        <ele>1686</ele>
        <time>2022-05-14 17:28:46</time>
      </trkpt>
      <trkpt lat="10.13672" lon="-84.18852">
        <ele>1686.4</ele>
        <time>2022-05-14 17:28:47</time>
      </trkpt>
      <trkpt lat="10.13669" lon="-84.18852">
        <ele>1686.6</ele>
        <time>2022-05-14 17:28:48</time>
      </trkpt>
      <trkpt lat="10.13667" lon="-84.18853">
        <ele>1686.8</ele>
        <time>2022-05-14 17:28:49</time>
      </trkpt>
      <trkpt lat="10.13664" lon="-84.18854">
        <ele>1687.2</ele>
        <time>2022-05-14 17:28:50</time>
      </trkpt>
      <trkpt lat="10.13661" lon="-84.18854">
        <ele>1687.2</ele>
        <time>2022-05-14 17:28:51</time>
      </trkpt>
      <trkpt lat="10.13658" lon="-84.18854">
        <ele>1687.6</ele>
        <time>2022-05-14 17:28:52</time>
      </trkpt>
      <trkpt lat="10.13655" lon="-84.18854">
        <ele>1688.2</ele>
        <time>2022-05-14 17:28:53</time>
      </trkpt>
      <trkpt lat="10.13655" lon="-84.18854">
        <ele>1688.6</ele>
        <time>2022-05-14 17:28:54</time>
      </trkpt>
      <trkpt lat="10.13649" lon="-84.18856">
        <ele>1689</ele>
        <time>2022-05-14 17:28:55</time>
      </trkpt>
      <trkpt lat="10.13646" lon="-84.18857">
        <ele>1689.6</ele>
        <time>2022-05-14 17:28:56</time>
      </trkpt>
      <trkpt lat="10.13643" lon="-84.18858">
        <ele>1690</ele>
        <time>2022-05-14 17:28:57</time>
      </trkpt>
      <trkpt lat="10.13641" lon="-84.18858">
        <ele>1690.4</ele>
        <time>2022-05-14 17:28:58</time>
      </trkpt>
      <trkpt lat="10.13638" lon="-84.18859">
        <ele>1690.8</ele>
        <time>2022-05-14 17:28:59</time>
      </trkpt>
      <trkpt lat="10.13636" lon="-84.1886">
        <ele>1691.2</ele>
        <time>2022-05-14 17:29:00</time>
      </trkpt>
      <trkpt lat="10.13634" lon="-84.18861">
        <ele>1691.6</ele>
        <time>2022-05-14 17:29:01</time>
      </trkpt>
      <trkpt lat="10.13631" lon="-84.18862">
        <ele>1692</ele>
        <time>2022-05-14 17:29:02</time>
      </trkpt>
      <trkpt lat="10.13629" lon="-84.18863">
        <ele>1692.2</ele>
        <time>2022-05-14 17:29:03</time>
      </trkpt>
      <trkpt lat="10.13627" lon="-84.18863">
        <ele>1692.6</ele>
        <time>2022-05-14 17:29:04</time>
      </trkpt>
      <trkpt lat="10.13627" lon="-84.18863">
        <ele>1692.8</ele>
        <time>2022-05-14 17:29:05</time>
      </trkpt>
      <trkpt lat="10.13623" lon="-84.18865">
        <ele>1693.2</ele>
        <time>2022-05-14 17:29:06</time>
      </trkpt>
      <trkpt lat="10.1362" lon="-84.18866">
        <ele>1693.6</ele>
        <time>2022-05-14 17:29:07</time>
      </trkpt>
      <trkpt lat="10.13618" lon="-84.18867">
        <ele>1694</ele>
        <time>2022-05-14 17:29:08</time>
      </trkpt>
      <trkpt lat="10.13616" lon="-84.18869">
        <ele>1694.4</ele>
        <time>2022-05-14 17:29:09</time>
      </trkpt>
      <trkpt lat="10.13614" lon="-84.1887">
        <ele>1694.8</ele>
        <time>2022-05-14 17:29:10</time>
      </trkpt>
      <trkpt lat="10.13612" lon="-84.18872">
        <ele>1695.2</ele>
        <time>2022-05-14 17:29:11</time>
      </trkpt>
      <trkpt lat="10.1361" lon="-84.18873">
        <ele>1695.2</ele>
        <time>2022-05-14 17:29:12</time>
      </trkpt>
      <trkpt lat="10.13607" lon="-84.18874">
        <ele>1695.4</ele>
        <time>2022-05-14 17:29:13</time>
      </trkpt>
      <trkpt lat="10.13606" lon="-84.18875">
        <ele>1695.6</ele>
        <time>2022-05-14 17:29:14</time>
      </trkpt>
      <trkpt lat="10.13606" lon="-84.18875">
        <ele>1695.8</ele>
        <time>2022-05-14 17:29:15</time>
      </trkpt>
      <trkpt lat="10.13603" lon="-84.18877">
        <ele>1696.2</ele>
        <time>2022-05-14 17:29:16</time>
      </trkpt>
      <trkpt lat="10.13601" lon="-84.18879">
        <ele>1696.4</ele>
        <time>2022-05-14 17:29:17</time>
      </trkpt>
      <trkpt lat="10.136" lon="-84.18881">
        <ele>1696.8</ele>
        <time>2022-05-14 17:29:18</time>
      </trkpt>
      <trkpt lat="10.13597" lon="-84.18881">
        <ele>1697.2</ele>
        <time>2022-05-14 17:29:19</time>
      </trkpt>
      <trkpt lat="10.13595" lon="-84.18883">
        <ele>1697.6</ele>
        <time>2022-05-14 17:29:20</time>
      </trkpt>
      <trkpt lat="10.13593" lon="-84.18885">
        <ele>1697.8</ele>
        <time>2022-05-14 17:29:21</time>
      </trkpt>
      <trkpt lat="10.13591" lon="-84.18885">
        <ele>1698</ele>
        <time>2022-05-14 17:29:22</time>
      </trkpt>
      <trkpt lat="10.1359" lon="-84.18887">
        <ele>1698.2</ele>
        <time>2022-05-14 17:29:23</time>
      </trkpt>
      <trkpt lat="10.13588" lon="-84.18889">
        <ele>1698.4</ele>
        <time>2022-05-14 17:29:24</time>
      </trkpt>
      <trkpt lat="10.13588" lon="-84.18889">
        <ele>1698.6</ele>
        <time>2022-05-14 17:29:25</time>
      </trkpt>
      <trkpt lat="10.13588" lon="-84.18889">
        <ele>1698.8</ele>
        <time>2022-05-14 17:29:26</time>
      </trkpt>
      <trkpt lat="10.13584" lon="-84.18894">
        <ele>1699.2</ele>
        <time>2022-05-14 17:29:27</time>
      </trkpt>
      <trkpt lat="10.13582" lon="-84.18897">
        <ele>1699.4</ele>
        <time>2022-05-14 17:29:28</time>
      </trkpt>
      <trkpt lat="10.13581" lon="-84.18899">
        <ele>1699.6</ele>
        <time>2022-05-14 17:29:29</time>
      </trkpt>
      <trkpt lat="10.13579" lon="-84.189">
        <ele>1699.8</ele>
        <time>2022-05-14 17:29:30</time>
      </trkpt>
      <trkpt lat="10.13579" lon="-84.18903">
        <ele>1700</ele>
        <time>2022-05-14 17:29:31</time>
      </trkpt>
      <trkpt lat="10.13578" lon="-84.18904">
        <ele>1700.2</ele>
        <time>2022-05-14 17:29:32</time>
      </trkpt>
      <trkpt lat="10.13576" lon="-84.18906">
        <ele>1700.2</ele>
        <time>2022-05-14 17:29:33</time>
      </trkpt>
      <trkpt lat="10.13575" lon="-84.18909">
        <ele>1700.4</ele>
        <time>2022-05-14 17:29:34</time>
      </trkpt>
      <trkpt lat="10.13575" lon="-84.18909">
        <ele>1700.4</ele>
        <time>2022-05-14 17:29:35</time>
      </trkpt>
      <trkpt lat="10.13575" lon="-84.18909">
        <ele>1700</ele>
        <time>2022-05-14 17:29:36</time>
      </trkpt>
      <trkpt lat="10.13572" lon="-84.18912">
        <ele>1700.2</ele>
        <time>2022-05-14 17:29:37</time>
      </trkpt>
      <trkpt lat="10.13571" lon="-84.18913">
        <ele>1700.2</ele>
        <time>2022-05-14 17:29:38</time>
      </trkpt>
      <trkpt lat="10.13571" lon="-84.18914">
        <ele>1700.6</ele>
        <time>2022-05-14 17:29:39</time>
      </trkpt>
      <trkpt lat="10.13571" lon="-84.18914">
        <ele>1700.6</ele>
        <time>2022-05-14 17:29:40</time>
      </trkpt>
      <trkpt lat="10.13571" lon="-84.18914">
        <ele>1700.6</ele>
        <time>2022-05-14 17:29:41</time>
      </trkpt>
      <trkpt lat="10.13563" lon="-84.18919">
        <ele>1700.6</ele>
        <time>2022-05-14 17:30:12</time>
      </trkpt>
      <trkpt lat="10.13562" lon="-84.18919">
        <ele>1700.6</ele>
        <time>2022-05-14 17:30:13</time>
      </trkpt>
      <trkpt lat="10.13561" lon="-84.18919">
        <ele>1700.6</ele>
        <time>2022-05-14 17:30:14</time>
      </trkpt>
      <trkpt lat="10.1356" lon="-84.18919">
        <ele>1700.6</ele>
        <time>2022-05-14 17:30:15</time>
      </trkpt>
      <trkpt lat="10.1356" lon="-84.18919">
        <ele>1700.6</ele>
        <time>2022-05-14 17:30:16</time>
      </trkpt>
      <trkpt lat="10.1356" lon="-84.18919">
        <ele>1700.4</ele>
        <time>2022-05-14 17:30:17</time>
      </trkpt>
      <trkpt lat="10.13556" lon="-84.18922">
        <ele>1700.6</ele>
        <time>2022-05-14 17:30:18</time>
      </trkpt>
      <trkpt lat="10.13555" lon="-84.18925">
        <ele>1700.6</ele>
        <time>2022-05-14 17:30:19</time>
      </trkpt>
      <trkpt lat="10.13553" lon="-84.18926">
        <ele>1700.8</ele>
        <time>2022-05-14 17:30:20</time>
      </trkpt>
      <trkpt lat="10.13552" lon="-84.18928">
        <ele>1700.8</ele>
        <time>2022-05-14 17:30:21</time>
      </trkpt>
      <trkpt lat="10.1355" lon="-84.18929">
        <ele>1700.8</ele>
        <time>2022-05-14 17:30:22</time>
      </trkpt>
      <trkpt lat="10.13549" lon="-84.18932">
        <ele>1700.8</ele>
        <time>2022-05-14 17:30:23</time>
      </trkpt>
      <trkpt lat="10.13548" lon="-84.18932">
        <ele>1700.8</ele>
        <time>2022-05-14 17:30:24</time>
      </trkpt>
      <trkpt lat="10.13546" lon="-84.18933">
        <ele>1700.8</ele>
        <time>2022-05-14 17:30:25</time>
      </trkpt>
      <trkpt lat="10.13545" lon="-84.18934">
        <ele>1700.8</ele>
        <time>2022-05-14 17:30:26</time>
      </trkpt>
      <trkpt lat="10.13545" lon="-84.18934">
        <ele>1700.8</ele>
        <time>2022-05-14 17:30:27</time>
      </trkpt>
      <trkpt lat="10.13545" lon="-84.18934">
        <ele>1700.8</ele>
        <time>2022-05-14 17:30:28</time>
      </trkpt>
      <trkpt lat="10.13544" lon="-84.18937">
        <ele>1700.8</ele>
        <time>2022-05-14 17:30:29</time>
      </trkpt>
      <trkpt lat="10.13542" lon="-84.18939">
        <ele>1700.6</ele>
        <time>2022-05-14 17:30:30</time>
      </trkpt>
      <trkpt lat="10.13542" lon="-84.18939">
        <ele>1700.6</ele>
        <time>2022-05-14 17:30:31</time>
      </trkpt>
      <trkpt lat="10.13541" lon="-84.18941">
        <ele>1700.6</ele>
        <time>2022-05-14 17:30:32</time>
      </trkpt>
      <trkpt lat="10.13539" lon="-84.18941">
        <ele>1700.6</ele>
        <time>2022-05-14 17:30:33</time>
      </trkpt>
      <trkpt lat="10.13538" lon="-84.18942">
        <ele>1700.6</ele>
        <time>2022-05-14 17:30:34</time>
      </trkpt>
      <trkpt lat="10.13536" lon="-84.18943">
        <ele>1700.6</ele>
        <time>2022-05-14 17:30:35</time>
      </trkpt>
      <trkpt lat="10.13535" lon="-84.18944">
        <ele>1700.6</ele>
        <time>2022-05-14 17:30:36</time>
      </trkpt>
      <trkpt lat="10.13535" lon="-84.18944">
        <ele>1700.6</ele>
        <time>2022-05-14 17:30:37</time>
      </trkpt>
      <trkpt lat="10.13533" lon="-84.18948">
        <ele>1700.6</ele>
        <time>2022-05-14 17:30:38</time>
      </trkpt>
      <trkpt lat="10.13533" lon="-84.18948">
        <ele>1700.4</ele>
        <time>2022-05-14 17:30:39</time>
      </trkpt>
      <trkpt lat="10.13532" lon="-84.18949">
        <ele>1700.4</ele>
        <time>2022-05-14 17:30:40</time>
      </trkpt>
      <trkpt lat="10.1353" lon="-84.1895">
        <ele>1700.2</ele>
        <time>2022-05-14 17:30:41</time>
      </trkpt>
      <trkpt lat="10.13529" lon="-84.1895">
        <ele>1700.2</ele>
        <time>2022-05-14 17:30:42</time>
      </trkpt>
      <trkpt lat="10.13529" lon="-84.18951">
        <ele>1700.2</ele>
        <time>2022-05-14 17:30:43</time>
      </trkpt>
      <trkpt lat="10.13527" lon="-84.18953">
        <ele>1700.2</ele>
        <time>2022-05-14 17:30:44</time>
      </trkpt>
      <trkpt lat="10.13526" lon="-84.18955">
        <ele>1700.2</ele>
        <time>2022-05-14 17:30:45</time>
      </trkpt>
      <trkpt lat="10.13524" lon="-84.18956">
        <ele>1700</ele>
        <time>2022-05-14 17:30:46</time>
      </trkpt>
      <trkpt lat="10.13521" lon="-84.18957">
        <ele>1700</ele>
        <time>2022-05-14 17:30:47</time>
      </trkpt>
      <trkpt lat="10.13521" lon="-84.18957">
        <ele>1699.8</ele>
        <time>2022-05-14 17:30:48</time>
      </trkpt>
      <trkpt lat="10.13517" lon="-84.18961">
        <ele>1699.8</ele>
        <time>2022-05-14 17:30:49</time>
      </trkpt>
      <trkpt lat="10.13514" lon="-84.18963">
        <ele>1699.6</ele>
        <time>2022-05-14 17:30:50</time>
      </trkpt>
      <trkpt lat="10.13511" lon="-84.18964">
        <ele>1699.6</ele>
        <time>2022-05-14 17:30:51</time>
      </trkpt>
      <trkpt lat="10.13509" lon="-84.18966">
        <ele>1700.2</ele>
        <time>2022-05-14 17:30:52</time>
      </trkpt>
      <trkpt lat="10.13506" lon="-84.18969">
        <ele>1697.2</ele>
        <time>2022-05-14 17:30:53</time>
      </trkpt>
      <trkpt lat="10.13503" lon="-84.1897">
        <ele>1697.4</ele>
        <time>2022-05-14 17:30:54</time>
      </trkpt>
      <trkpt lat="10.135" lon="-84.18973">
        <ele>1696.6</ele>
        <time>2022-05-14 17:30:55</time>
      </trkpt>
      <trkpt lat="10.13496" lon="-84.18977">
        <ele>1699.4</ele>
        <time>2022-05-14 17:30:56</time>
      </trkpt>
      <trkpt lat="10.13496" lon="-84.18977">
        <ele>1699.4</ele>
        <time>2022-05-14 17:30:57</time>
      </trkpt>
      <trkpt lat="10.13496" lon="-84.18977">
        <ele>1698.6</ele>
        <time>2022-05-14 17:30:58</time>
      </trkpt>
      <trkpt lat="10.13485" lon="-84.18993">
        <ele>1698.2</ele>
        <time>2022-05-14 17:30:59</time>
      </trkpt>
      <trkpt lat="10.13481" lon="-84.18998">
        <ele>1697.8</ele>
        <time>2022-05-14 17:31:00</time>
      </trkpt>
      <trkpt lat="10.13478" lon="-84.19002">
        <ele>1697.4</ele>
        <time>2022-05-14 17:31:01</time>
      </trkpt>
      <trkpt lat="10.13474" lon="-84.19008">
        <ele>1697.2</ele>
        <time>2022-05-14 17:31:02</time>
      </trkpt>
      <trkpt lat="10.1347" lon="-84.19013">
        <ele>1696.8</ele>
        <time>2022-05-14 17:31:03</time>
      </trkpt>
      <trkpt lat="10.13466" lon="-84.1902">
        <ele>1696.6</ele>
        <time>2022-05-14 17:31:04</time>
      </trkpt>
      <trkpt lat="10.13463" lon="-84.19026">
        <ele>1696.2</ele>
        <time>2022-05-14 17:31:05</time>
      </trkpt>
      <trkpt lat="10.1346" lon="-84.19032">
        <ele>1695.8</ele>
        <time>2022-05-14 17:31:06</time>
      </trkpt>
      <trkpt lat="10.13455" lon="-84.19037">
        <ele>1695.2</ele>
        <time>2022-05-14 17:31:07</time>
      </trkpt>
      <trkpt lat="10.13455" lon="-84.19037">
        <ele>1694.6</ele>
        <time>2022-05-14 17:31:08</time>
      </trkpt>
      <trkpt lat="10.13455" lon="-84.19037">
        <ele>1694</ele>
        <time>2022-05-14 17:31:09</time>
      </trkpt>
      <trkpt lat="10.1344" lon="-84.19055">
        <ele>1693</ele>
        <time>2022-05-14 17:31:10</time>
      </trkpt>
      <trkpt lat="10.13433" lon="-84.19062">
        <ele>1692</ele>
        <time>2022-05-14 17:31:11</time>
      </trkpt>
      <trkpt lat="10.13426" lon="-84.19068">
        <ele>1690.8</ele>
        <time>2022-05-14 17:31:12</time>
      </trkpt>
      <trkpt lat="10.13418" lon="-84.19075">
        <ele>1689.8</ele>
        <time>2022-05-14 17:31:13</time>
      </trkpt>
      <trkpt lat="10.13411" lon="-84.1908">
        <ele>1688.6</ele>
        <time>2022-05-14 17:31:14</time>
      </trkpt>
      <trkpt lat="10.13402" lon="-84.19087">
        <ele>1687.6</ele>
        <time>2022-05-14 17:31:15</time>
      </trkpt>
      <trkpt lat="10.13391" lon="-84.19092">
        <ele>1686.6</ele>
        <time>2022-05-14 17:31:16</time>
      </trkpt>
      <trkpt lat="10.1338" lon="-84.19096">
        <ele>1685.4</ele>
        <time>2022-05-14 17:31:17</time>
      </trkpt>
      <trkpt lat="10.1338" lon="-84.19096">
        <ele>1685.4</ele>
        <time>2022-05-14 17:31:18</time>
      </trkpt>
      <trkpt lat="10.1338" lon="-84.19096">
        <ele>1684.6</ele>
        <time>2022-05-14 17:31:19</time>
      </trkpt>
      <trkpt lat="10.13344" lon="-84.19111">
        <ele>1683.4</ele>
        <time>2022-05-14 17:31:20</time>
      </trkpt>
      <trkpt lat="10.13331" lon="-84.19116">
        <ele>1682.6</ele>
        <time>2022-05-14 17:31:21</time>
      </trkpt>
      <trkpt lat="10.13318" lon="-84.19121">
        <ele>1681.6</ele>
        <time>2022-05-14 17:31:22</time>
      </trkpt>
      <trkpt lat="10.13306" lon="-84.19127">
        <ele>1680.8</ele>
        <time>2022-05-14 17:31:23</time>
      </trkpt>
      <trkpt lat="10.13294" lon="-84.19132">
        <ele>1679.8</ele>
        <time>2022-05-14 17:31:24</time>
      </trkpt>
      <trkpt lat="10.13282" lon="-84.19138">
        <ele>1679.4</ele>
        <time>2022-05-14 17:31:25</time>
      </trkpt>
      <trkpt lat="10.13269" lon="-84.19143">
        <ele>1678.8</ele>
        <time>2022-05-14 17:31:26</time>
      </trkpt>
      <trkpt lat="10.13256" lon="-84.19149">
        <ele>1678.4</ele>
        <time>2022-05-14 17:31:27</time>
      </trkpt>
      <trkpt lat="10.13243" lon="-84.19153">
        <ele>1677.8</ele>
        <time>2022-05-14 17:31:28</time>
      </trkpt>
      <trkpt lat="10.13243" lon="-84.19153">
        <ele>1677</ele>
        <time>2022-05-14 17:31:29</time>
      </trkpt>
      <trkpt lat="10.13218" lon="-84.19162">
        <ele>1676.4</ele>
        <time>2022-05-14 17:31:30</time>
      </trkpt>
      <trkpt lat="10.13206" lon="-84.19166">
        <ele>1675.8</ele>
        <time>2022-05-14 17:31:31</time>
      </trkpt>
      <trkpt lat="10.13194" lon="-84.1917">
        <ele>1675.2</ele>
        <time>2022-05-14 17:31:32</time>
      </trkpt>
      <trkpt lat="10.13183" lon="-84.19174">
        <ele>1674.4</ele>
        <time>2022-05-14 17:31:33</time>
      </trkpt>
      <trkpt lat="10.13171" lon="-84.19178">
        <ele>1673.8</ele>
        <time>2022-05-14 17:31:34</time>
      </trkpt>
      <trkpt lat="10.13159" lon="-84.19181">
        <ele>1673</ele>
        <time>2022-05-14 17:31:35</time>
      </trkpt>
      <trkpt lat="10.13146" lon="-84.19183">
        <ele>1672.6</ele>
        <time>2022-05-14 17:31:36</time>
      </trkpt>
      <trkpt lat="10.13132" lon="-84.19186">
        <ele>1671.8</ele>
        <time>2022-05-14 17:31:37</time>
      </trkpt>
      <trkpt lat="10.13119" lon="-84.19187">
        <ele>1671</ele>
        <time>2022-05-14 17:31:38</time>
      </trkpt>
      <trkpt lat="10.13119" lon="-84.19187">
        <ele>1671</ele>
        <time>2022-05-14 17:31:39</time>
      </trkpt>
      <trkpt lat="10.13093" lon="-84.19192">
        <ele>1669.6</ele>
        <time>2022-05-14 17:31:40</time>
      </trkpt>
      <trkpt lat="10.1308" lon="-84.19192">
        <ele>1668.4</ele>
        <time>2022-05-14 17:31:41</time>
      </trkpt>
      <trkpt lat="10.13067" lon="-84.19195">
        <ele>1667.4</ele>
        <time>2022-05-14 17:31:42</time>
      </trkpt>
      <trkpt lat="10.13053" lon="-84.19196">
        <ele>1666.2</ele>
        <time>2022-05-14 17:31:43</time>
      </trkpt>
      <trkpt lat="10.13039" lon="-84.19199">
        <ele>1665</ele>
        <time>2022-05-14 17:31:44</time>
      </trkpt>
      <trkpt lat="10.13024" lon="-84.19201">
        <ele>1663.6</ele>
        <time>2022-05-14 17:31:45</time>
      </trkpt>
      <trkpt lat="10.1301" lon="-84.19205">
        <ele>1662.4</ele>
        <time>2022-05-14 17:31:46</time>
      </trkpt>
      <trkpt lat="10.12995" lon="-84.19207">
        <ele>1661.2</ele>
        <time>2022-05-14 17:31:47</time>
      </trkpt>
      <trkpt lat="10.1298" lon="-84.19209">
        <ele>1660</ele>
        <time>2022-05-14 17:31:48</time>
      </trkpt>
      <trkpt lat="10.12966" lon="-84.19212">
        <ele>1658.8</ele>
        <time>2022-05-14 17:31:49</time>
      </trkpt>
      <trkpt lat="10.12966" lon="-84.19212">
        <ele>1658.2</ele>
        <time>2022-05-14 17:31:50</time>
      </trkpt>
      <trkpt lat="10.12937" lon="-84.19216">
        <ele>1657.4</ele>
        <time>2022-05-14 17:31:51</time>
      </trkpt>
      <trkpt lat="10.12922" lon="-84.19219">
        <ele>1656.4</ele>
        <time>2022-05-14 17:31:52</time>
      </trkpt>
      <trkpt lat="10.12907" lon="-84.1922">
        <ele>1655.4</ele>
        <time>2022-05-14 17:31:53</time>
      </trkpt>
      <trkpt lat="10.12892" lon="-84.19221">
        <ele>1654.4</ele>
        <time>2022-05-14 17:31:54</time>
      </trkpt>
      <trkpt lat="10.12877" lon="-84.19221">
        <ele>1653.6</ele>
        <time>2022-05-14 17:31:55</time>
      </trkpt>
      <trkpt lat="10.12863" lon="-84.1922">
        <ele>1652.8</ele>
        <time>2022-05-14 17:31:56</time>
      </trkpt>
      <trkpt lat="10.12848" lon="-84.19218">
        <ele>1651.6</ele>
        <time>2022-05-14 17:31:57</time>
      </trkpt>
      <trkpt lat="10.12834" lon="-84.19212">
        <ele>1650.6</ele>
        <time>2022-05-14 17:31:58</time>
      </trkpt>
      <trkpt lat="10.12834" lon="-84.19212">
        <ele>1649.6</ele>
        <time>2022-05-14 17:31:59</time>
      </trkpt>
      <trkpt lat="10.12834" lon="-84.19212">
        <ele>1649.6</ele>
        <time>2022-05-14 17:32:00</time>
      </trkpt>
      <trkpt lat="10.12795" lon="-84.19192">
        <ele>1648.8</ele>
        <time>2022-05-14 17:32:01</time>
      </trkpt>
      <trkpt lat="10.12783" lon="-84.19183">
        <ele>1648</ele>
        <time>2022-05-14 17:32:02</time>
      </trkpt>
      <trkpt lat="10.12772" lon="-84.19174">
        <ele>1647.2</ele>
        <time>2022-05-14 17:32:03</time>
      </trkpt>
      <trkpt lat="10.12761" lon="-84.19163">
        <ele>1646.4</ele>
        <time>2022-05-14 17:32:04</time>
      </trkpt>
      <trkpt lat="10.12749" lon="-84.19153">
        <ele>1645.4</ele>
        <time>2022-05-14 17:32:05</time>
      </trkpt>
      <trkpt lat="10.12738" lon="-84.19143">
        <ele>1644.4</ele>
        <time>2022-05-14 17:32:06</time>
      </trkpt>
      <trkpt lat="10.12728" lon="-84.19132">
        <ele>1643.2</ele>
        <time>2022-05-14 17:32:07</time>
      </trkpt>
      <trkpt lat="10.12716" lon="-84.19122">
        <ele>1642.2</ele>
        <time>2022-05-14 17:32:08</time>
      </trkpt>
      <trkpt lat="10.12705" lon="-84.19111">
        <ele>1641</ele>
        <time>2022-05-14 17:32:09</time>
      </trkpt>
      <trkpt lat="10.12705" lon="-84.19111">
        <ele>1640.2</ele>
        <time>2022-05-14 17:32:10</time>
      </trkpt>
      <trkpt lat="10.12705" lon="-84.19111">
        <ele>1639.4</ele>
        <time>2022-05-14 17:32:11</time>
      </trkpt>
      <trkpt lat="10.12671" lon="-84.19079">
        <ele>1638.6</ele>
        <time>2022-05-14 17:32:12</time>
      </trkpt>
      <trkpt lat="10.12659" lon="-84.19069">
        <ele>1637.8</ele>
        <time>2022-05-14 17:32:13</time>
      </trkpt>
      <trkpt lat="10.12648" lon="-84.19059">
        <ele>1637</ele>
        <time>2022-05-14 17:32:14</time>
      </trkpt>
      <trkpt lat="10.12637" lon="-84.19049">
        <ele>1636</ele>
        <time>2022-05-14 17:32:15</time>
      </trkpt>
      <trkpt lat="10.12626" lon="-84.19038">
        <ele>1635.2</ele>
        <time>2022-05-14 17:32:16</time>
      </trkpt>
      <trkpt lat="10.12616" lon="-84.19029">
        <ele>1634.6</ele>
        <time>2022-05-14 17:32:17</time>
      </trkpt>
      <trkpt lat="10.12605" lon="-84.1902">
        <ele>1634</ele>
        <time>2022-05-14 17:32:18</time>
      </trkpt>
      <trkpt lat="10.12594" lon="-84.1901">
        <ele>1633.2</ele>
        <time>2022-05-14 17:32:19</time>
      </trkpt>
      <trkpt lat="10.12565" lon="-84.19003">
        <ele>1632.2</ele>
        <time>2022-05-14 17:32:20</time>
      </trkpt>
      <trkpt lat="10.12565" lon="-84.19003">
        <ele>1632.2</ele>
        <time>2022-05-14 17:32:21</time>
      </trkpt>
      <trkpt lat="10.1255" lon="-84.19002">
        <ele>1631.6</ele>
        <time>2022-05-14 17:32:22</time>
      </trkpt>
      <trkpt lat="10.12535" lon="-84.19001">
        <ele>1631.2</ele>
        <time>2022-05-14 17:32:23</time>
      </trkpt>
      <trkpt lat="10.12521" lon="-84.19">
        <ele>1630.8</ele>
        <time>2022-05-14 17:32:24</time>
      </trkpt>
      <trkpt lat="10.12508" lon="-84.19">
        <ele>1630.2</ele>
        <time>2022-05-14 17:32:25</time>
      </trkpt>
      <trkpt lat="10.12494" lon="-84.19">
        <ele>1629.8</ele>
        <time>2022-05-14 17:32:26</time>
      </trkpt>
      <trkpt lat="10.1248" lon="-84.19">
        <ele>1629.6</ele>
        <time>2022-05-14 17:32:27</time>
      </trkpt>
      <trkpt lat="10.12468" lon="-84.19001">
        <ele>1629.6</ele>
        <time>2022-05-14 17:32:28</time>
      </trkpt>
      <trkpt lat="10.12456" lon="-84.19002">
        <ele>1629.6</ele>
        <time>2022-05-14 17:32:29</time>
      </trkpt>
      <trkpt lat="10.12443" lon="-84.19004">
        <ele>1629.6</ele>
        <time>2022-05-14 17:32:30</time>
      </trkpt>
      <trkpt lat="10.12443" lon="-84.19004">
        <ele>1629.2</ele>
        <time>2022-05-14 17:32:31</time>
      </trkpt>
      <trkpt lat="10.12419" lon="-84.19008">
        <ele>1629.2</ele>
        <time>2022-05-14 17:32:32</time>
      </trkpt>
      <trkpt lat="10.12407" lon="-84.19012">
        <ele>1629.2</ele>
        <time>2022-05-14 17:32:33</time>
      </trkpt>
      <trkpt lat="10.12395" lon="-84.19015">
        <ele>1629</ele>
        <time>2022-05-14 17:32:34</time>
      </trkpt>
      <trkpt lat="10.12385" lon="-84.19022">
        <ele>1628.8</ele>
        <time>2022-05-14 17:32:35</time>
      </trkpt>
      <trkpt lat="10.12376" lon="-84.19028">
        <ele>1628.6</ele>
        <time>2022-05-14 17:32:36</time>
      </trkpt>
      <trkpt lat="10.12366" lon="-84.19033">
        <ele>1628.6</ele>
        <time>2022-05-14 17:32:37</time>
      </trkpt>
      <trkpt lat="10.12356" lon="-84.19038">
        <ele>1628.4</ele>
        <time>2022-05-14 17:32:38</time>
      </trkpt>
      <trkpt lat="10.12347" lon="-84.19044">
        <ele>1628.2</ele>
        <time>2022-05-14 17:32:39</time>
      </trkpt>
      <trkpt lat="10.12335" lon="-84.19047">
        <ele>1628.2</ele>
        <time>2022-05-14 17:32:40</time>
      </trkpt>
      <trkpt lat="10.12313" lon="-84.19051">
        <ele>1628.4</ele>
        <time>2022-05-14 17:32:41</time>
      </trkpt>
      <trkpt lat="10.12313" lon="-84.19051">
        <ele>1628.4</ele>
        <time>2022-05-14 17:32:42</time>
      </trkpt>
      <trkpt lat="10.12303" lon="-84.19051">
        <ele>1628.4</ele>
        <time>2022-05-14 17:32:43</time>
      </trkpt>
      <trkpt lat="10.12292" lon="-84.19052">
        <ele>1628.6</ele>
        <time>2022-05-14 17:32:44</time>
      </trkpt>
      <trkpt lat="10.12281" lon="-84.19054">
        <ele>1628.6</ele>
        <time>2022-05-14 17:32:45</time>
      </trkpt>
      <trkpt lat="10.12271" lon="-84.19055">
        <ele>1628.6</ele>
        <time>2022-05-14 17:32:46</time>
      </trkpt>
      <trkpt lat="10.1226" lon="-84.19056">
        <ele>1628.8</ele>
        <time>2022-05-14 17:32:47</time>
      </trkpt>
      <trkpt lat="10.12251" lon="-84.19057">
        <ele>1629</ele>
        <time>2022-05-14 17:32:48</time>
      </trkpt>
      <trkpt lat="10.12241" lon="-84.19058">
        <ele>1629.2</ele>
        <time>2022-05-14 17:32:49</time>
      </trkpt>
      <trkpt lat="10.12231" lon="-84.19058">
        <ele>1629</ele>
        <time>2022-05-14 17:32:50</time>
      </trkpt>
      <trkpt lat="10.12231" lon="-84.19058">
        <ele>1628.8</ele>
        <time>2022-05-14 17:32:51</time>
      </trkpt>
      <trkpt lat="10.12231" lon="-84.19058">
        <ele>1628.2</ele>
        <time>2022-05-14 17:32:52</time>
      </trkpt>
      <trkpt lat="10.12204" lon="-84.19052">
        <ele>1627.4</ele>
        <time>2022-05-14 17:32:53</time>
      </trkpt>
      <trkpt lat="10.12194" lon="-84.19047">
        <ele>1626.4</ele>
        <time>2022-05-14 17:32:54</time>
      </trkpt>
      <trkpt lat="10.12185" lon="-84.19041">
        <ele>1625</ele>
        <time>2022-05-14 17:32:55</time>
      </trkpt>
      <trkpt lat="10.12175" lon="-84.19033">
        <ele>1624</ele>
        <time>2022-05-14 17:32:56</time>
      </trkpt>
      <trkpt lat="10.12165" lon="-84.19027">
        <ele>1622.6</ele>
        <time>2022-05-14 17:32:57</time>
      </trkpt>
      <trkpt lat="10.12152" lon="-84.1902">
        <ele>1621.2</ele>
        <time>2022-05-14 17:32:58</time>
      </trkpt>
      <trkpt lat="10.1214" lon="-84.19012">
        <ele>1619.2</ele>
        <time>2022-05-14 17:32:59</time>
      </trkpt>
      <trkpt lat="10.12127" lon="-84.19006">
        <ele>1617.4</ele>
        <time>2022-05-14 17:33:00</time>
      </trkpt>
      <trkpt lat="10.12127" lon="-84.19006">
        <ele>1616</ele>
        <time>2022-05-14 17:33:01</time>
      </trkpt>
      <trkpt lat="10.12086" lon="-84.1899">
        <ele>1615</ele>
        <time>2022-05-14 17:33:02</time>
      </trkpt>
      <trkpt lat="10.12086" lon="-84.1899">
        <ele>1615</ele>
        <time>2022-05-14 17:33:03</time>
      </trkpt>
      <trkpt lat="10.12072" lon="-84.18986">
        <ele>1614</ele>
        <time>2022-05-14 17:33:04</time>
      </trkpt>
      <trkpt lat="10.12057" lon="-84.18984">
        <ele>1612.4</ele>
        <time>2022-05-14 17:33:05</time>
      </trkpt>
      <trkpt lat="10.12043" lon="-84.18983">
        <ele>1610.4</ele>
        <time>2022-05-14 17:33:06</time>
      </trkpt>
      <trkpt lat="10.12028" lon="-84.18985">
        <ele>1608.4</ele>
        <time>2022-05-14 17:33:07</time>
      </trkpt>
      <trkpt lat="10.12014" lon="-84.18986">
        <ele>1606.2</ele>
        <time>2022-05-14 17:33:08</time>
      </trkpt>
      <trkpt lat="10.12" lon="-84.18987">
        <ele>1604.4</ele>
        <time>2022-05-14 17:33:09</time>
      </trkpt>
      <trkpt lat="10.11985" lon="-84.1899">
        <ele>1602.2</ele>
        <time>2022-05-14 17:33:10</time>
      </trkpt>
      <trkpt lat="10.11969" lon="-84.18995">
        <ele>1599.8</ele>
        <time>2022-05-14 17:33:11</time>
      </trkpt>
      <trkpt lat="10.11937" lon="-84.19005">
        <ele>1597.2</ele>
        <time>2022-05-14 17:33:12</time>
      </trkpt>
      <trkpt lat="10.11937" lon="-84.19005">
        <ele>1594.2</ele>
        <time>2022-05-14 17:33:13</time>
      </trkpt>
      <trkpt lat="10.11921" lon="-84.1901">
        <ele>1591.2</ele>
        <time>2022-05-14 17:33:14</time>
      </trkpt>
      <trkpt lat="10.11904" lon="-84.19017">
        <ele>1588.4</ele>
        <time>2022-05-14 17:33:15</time>
      </trkpt>
      <trkpt lat="10.11887" lon="-84.19022">
        <ele>1586</ele>
        <time>2022-05-14 17:33:16</time>
      </trkpt>
      <trkpt lat="10.1187" lon="-84.19027">
        <ele>1584.2</ele>
        <time>2022-05-14 17:33:17</time>
      </trkpt>
      <trkpt lat="10.11851" lon="-84.1903">
        <ele>1583</ele>
        <time>2022-05-14 17:33:18</time>
      </trkpt>
      <trkpt lat="10.11834" lon="-84.19032">
        <ele>1582.2</ele>
        <time>2022-05-14 17:33:19</time>
      </trkpt>
      <trkpt lat="10.11818" lon="-84.19035">
        <ele>1581.6</ele>
        <time>2022-05-14 17:33:20</time>
      </trkpt>
      <trkpt lat="10.11801" lon="-84.19037">
        <ele>1581.2</ele>
        <time>2022-05-14 17:33:21</time>
      </trkpt>
      <trkpt lat="10.11771" lon="-84.19041">
        <ele>1580.6</ele>
        <time>2022-05-14 17:33:22</time>
      </trkpt>
      <trkpt lat="10.11757" lon="-84.19044">
        <ele>1580</ele>
        <time>2022-05-14 17:33:23</time>
      </trkpt>
      <trkpt lat="10.11757" lon="-84.19044">
        <ele>1580</ele>
        <time>2022-05-14 17:33:24</time>
      </trkpt>
      <trkpt lat="10.11743" lon="-84.19047">
        <ele>1579.4</ele>
        <time>2022-05-14 17:33:25</time>
      </trkpt>
      <trkpt lat="10.11729" lon="-84.19051">
        <ele>1578.8</ele>
        <time>2022-05-14 17:33:26</time>
      </trkpt>
      <trkpt lat="10.11715" lon="-84.19058">
        <ele>1577.8</ele>
        <time>2022-05-14 17:33:27</time>
      </trkpt>
      <trkpt lat="10.11702" lon="-84.19064">
        <ele>1576.6</ele>
        <time>2022-05-14 17:33:28</time>
      </trkpt>
      <trkpt lat="10.1169" lon="-84.19073">
        <ele>1575.2</ele>
        <time>2022-05-14 17:33:29</time>
      </trkpt>
      <trkpt lat="10.11677" lon="-84.19083">
        <ele>1573.8</ele>
        <time>2022-05-14 17:33:30</time>
      </trkpt>
      <trkpt lat="10.11666" lon="-84.19093">
        <ele>1572.4</ele>
        <time>2022-05-14 17:33:31</time>
      </trkpt>
      <trkpt lat="10.11654" lon="-84.19103">
        <ele>1570.8</ele>
        <time>2022-05-14 17:33:32</time>
      </trkpt>
      <trkpt lat="10.11625" lon="-84.19116">
        <ele>1569.2</ele>
        <time>2022-05-14 17:33:33</time>
      </trkpt>
      <trkpt lat="10.11625" lon="-84.19116">
        <ele>1567.6</ele>
        <time>2022-05-14 17:33:34</time>
      </trkpt>
      <trkpt lat="10.1161" lon="-84.1912">
        <ele>1566.4</ele>
        <time>2022-05-14 17:33:35</time>
      </trkpt>
      <trkpt lat="10.11595" lon="-84.19123">
        <ele>1565.2</ele>
        <time>2022-05-14 17:33:36</time>
      </trkpt>
      <trkpt lat="10.11579" lon="-84.1912">
        <ele>1564</ele>
        <time>2022-05-14 17:33:37</time>
      </trkpt>
      <trkpt lat="10.11563" lon="-84.19116">
        <ele>1562.4</ele>
        <time>2022-05-14 17:33:38</time>
      </trkpt>
      <trkpt lat="10.11548" lon="-84.19113">
        <ele>1561.2</ele>
        <time>2022-05-14 17:33:39</time>
      </trkpt>
      <trkpt lat="10.11533" lon="-84.1911">
        <ele>1560</ele>
        <time>2022-05-14 17:33:40</time>
      </trkpt>
      <trkpt lat="10.11519" lon="-84.19108">
        <ele>1558.8</ele>
        <time>2022-05-14 17:33:41</time>
      </trkpt>
      <trkpt lat="10.11519" lon="-84.19108">
        <ele>1557.2</ele>
        <time>2022-05-14 17:33:42</time>
      </trkpt>
      <trkpt lat="10.11482" lon="-84.19105">
        <ele>1555.8</ele>
        <time>2022-05-14 17:33:43</time>
      </trkpt>
      <trkpt lat="10.11471" lon="-84.19104">
        <ele>1554.4</ele>
        <time>2022-05-14 17:33:44</time>
      </trkpt>
      <trkpt lat="10.11471" lon="-84.19104">
        <ele>1554.4</ele>
        <time>2022-05-14 17:33:45</time>
      </trkpt>
      <trkpt lat="10.11459" lon="-84.19102">
        <ele>1552.8</ele>
        <time>2022-05-14 17:33:46</time>
      </trkpt>
      <trkpt lat="10.11449" lon="-84.19098">
        <ele>1551</ele>
        <time>2022-05-14 17:33:47</time>
      </trkpt>
      <trkpt lat="10.11437" lon="-84.19093">
        <ele>1549</ele>
        <time>2022-05-14 17:33:48</time>
      </trkpt>
      <trkpt lat="10.11428" lon="-84.19083">
        <ele>1547.2</ele>
        <time>2022-05-14 17:33:49</time>
      </trkpt>
      <trkpt lat="10.11418" lon="-84.19074">
        <ele>1545.4</ele>
        <time>2022-05-14 17:33:50</time>
      </trkpt>
      <trkpt lat="10.11407" lon="-84.19064">
        <ele>1543.8</ele>
        <time>2022-05-14 17:33:51</time>
      </trkpt>
      <trkpt lat="10.11396" lon="-84.19054">
        <ele>1541.8</ele>
        <time>2022-05-14 17:33:52</time>
      </trkpt>
      <trkpt lat="10.11396" lon="-84.19054">
        <ele>1539.6</ele>
        <time>2022-05-14 17:33:53</time>
      </trkpt>
      <trkpt lat="10.11359" lon="-84.19022">
        <ele>1537.4</ele>
        <time>2022-05-14 17:33:54</time>
      </trkpt>
      <trkpt lat="10.11359" lon="-84.19022">
        <ele>1535.6</ele>
        <time>2022-05-14 17:33:55</time>
      </trkpt>
      <trkpt lat="10.11344" lon="-84.19015">
        <ele>1533.6</ele>
        <time>2022-05-14 17:33:56</time>
      </trkpt>
      <trkpt lat="10.11329" lon="-84.1901">
        <ele>1531.6</ele>
        <time>2022-05-14 17:33:57</time>
      </trkpt>
      <trkpt lat="10.11315" lon="-84.19008">
        <ele>1529.8</ele>
        <time>2022-05-14 17:33:58</time>
      </trkpt>
      <trkpt lat="10.113" lon="-84.19006">
        <ele>1528.6</ele>
        <time>2022-05-14 17:33:59</time>
      </trkpt>
      <trkpt lat="10.11287" lon="-84.19003">
        <ele>1527.8</ele>
        <time>2022-05-14 17:34:00</time>
      </trkpt>
      <trkpt lat="10.11273" lon="-84.19002">
        <ele>1527</ele>
        <time>2022-05-14 17:34:01</time>
      </trkpt>
      <trkpt lat="10.11261" lon="-84.19">
        <ele>1526</ele>
        <time>2022-05-14 17:34:02</time>
      </trkpt>
      <trkpt lat="10.11235" lon="-84.19">
        <ele>1524.8</ele>
        <time>2022-05-14 17:34:03</time>
      </trkpt>
      <trkpt lat="10.11222" lon="-84.19">
        <ele>1523.2</ele>
        <time>2022-05-14 17:34:04</time>
      </trkpt>
      <trkpt lat="10.1121" lon="-84.19001">
        <ele>1521.4</ele>
        <time>2022-05-14 17:34:05</time>
      </trkpt>
      <trkpt lat="10.1121" lon="-84.19001">
        <ele>1521.4</ele>
        <time>2022-05-14 17:34:06</time>
      </trkpt>
      <trkpt lat="10.11198" lon="-84.19003">
        <ele>1519.6</ele>
        <time>2022-05-14 17:34:07</time>
      </trkpt>
      <trkpt lat="10.11186" lon="-84.19006">
        <ele>1518.2</ele>
        <time>2022-05-14 17:34:08</time>
      </trkpt>
      <trkpt lat="10.11175" lon="-84.19011">
        <ele>1516.8</ele>
        <time>2022-05-14 17:34:09</time>
      </trkpt>
      <trkpt lat="10.11164" lon="-84.19017">
        <ele>1515.8</ele>
        <time>2022-05-14 17:34:10</time>
      </trkpt>
      <trkpt lat="10.11152" lon="-84.19022">
        <ele>1514.6</ele>
        <time>2022-05-14 17:34:11</time>
      </trkpt>
      <trkpt lat="10.11141" lon="-84.19029">
        <ele>1513.4</ele>
        <time>2022-05-14 17:34:12</time>
      </trkpt>
      <trkpt lat="10.1113" lon="-84.19036">
        <ele>1512</ele>
        <time>2022-05-14 17:34:13</time>
      </trkpt>
      <trkpt lat="10.11107" lon="-84.1905">
        <ele>1510.2</ele>
        <time>2022-05-14 17:34:14</time>
      </trkpt>
      <trkpt lat="10.11096" lon="-84.19057">
        <ele>1508.2</ele>
        <time>2022-05-14 17:34:15</time>
      </trkpt>
      <trkpt lat="10.11096" lon="-84.19057">
        <ele>1506.4</ele>
        <time>2022-05-14 17:34:16</time>
      </trkpt>
      <trkpt lat="10.11085" lon="-84.19064">
        <ele>1504.8</ele>
        <time>2022-05-14 17:34:17</time>
      </trkpt>
      <trkpt lat="10.11075" lon="-84.19069">
        <ele>1503.4</ele>
        <time>2022-05-14 17:34:18</time>
      </trkpt>
      <trkpt lat="10.11065" lon="-84.19076">
        <ele>1501.8</ele>
        <time>2022-05-14 17:34:19</time>
      </trkpt>
      <trkpt lat="10.11057" lon="-84.19082">
        <ele>1500.8</ele>
        <time>2022-05-14 17:34:20</time>
      </trkpt>
      <trkpt lat="10.11049" lon="-84.19087">
        <ele>1500.2</ele>
        <time>2022-05-14 17:34:21</time>
      </trkpt>
      <trkpt lat="10.1104" lon="-84.19092">
        <ele>1499.4</ele>
        <time>2022-05-14 17:34:22</time>
      </trkpt>
      <trkpt lat="10.11031" lon="-84.19096">
        <ele>1498.6</ele>
        <time>2022-05-14 17:34:23</time>
      </trkpt>
      <trkpt lat="10.11013" lon="-84.19103">
        <ele>1497.8</ele>
        <time>2022-05-14 17:34:24</time>
      </trkpt>
      <trkpt lat="10.11004" lon="-84.19105">
        <ele>1497.2</ele>
        <time>2022-05-14 17:34:25</time>
      </trkpt>
      <trkpt lat="10.10994" lon="-84.19108">
        <ele>1496.8</ele>
        <time>2022-05-14 17:34:26</time>
      </trkpt>
      <trkpt lat="10.10994" lon="-84.19108">
        <ele>1496.8</ele>
        <time>2022-05-14 17:34:27</time>
      </trkpt>
      <trkpt lat="10.10985" lon="-84.19109">
        <ele>1496.6</ele>
        <time>2022-05-14 17:34:28</time>
      </trkpt>
      <trkpt lat="10.10975" lon="-84.19112">
        <ele>1496.4</ele>
        <time>2022-05-14 17:34:29</time>
      </trkpt>
      <trkpt lat="10.10966" lon="-84.19112">
        <ele>1496.4</ele>
        <time>2022-05-14 17:34:30</time>
      </trkpt>
      <trkpt lat="10.10956" lon="-84.19114">
        <ele>1496.2</ele>
        <time>2022-05-14 17:34:31</time>
      </trkpt>
      <trkpt lat="10.10947" lon="-84.19116">
        <ele>1496</ele>
        <time>2022-05-14 17:34:32</time>
      </trkpt>
      <trkpt lat="10.10938" lon="-84.19117">
        <ele>1495.2</ele>
        <time>2022-05-14 17:34:33</time>
      </trkpt>
      <trkpt lat="10.10938" lon="-84.19117">
        <ele>1494.6</ele>
        <time>2022-05-14 17:34:34</time>
      </trkpt>
      <trkpt lat="10.10913" lon="-84.19122">
        <ele>1494.4</ele>
        <time>2022-05-14 17:34:35</time>
      </trkpt>
      <trkpt lat="10.10904" lon="-84.19125">
        <ele>1494</ele>
        <time>2022-05-14 17:34:36</time>
      </trkpt>
      <trkpt lat="10.10904" lon="-84.19125">
        <ele>1493.6</ele>
        <time>2022-05-14 17:34:37</time>
      </trkpt>
      <trkpt lat="10.10895" lon="-84.19127">
        <ele>1492.6</ele>
        <time>2022-05-14 17:34:38</time>
      </trkpt>
      <trkpt lat="10.10885" lon="-84.19131">
        <ele>1491.6</ele>
        <time>2022-05-14 17:34:39</time>
      </trkpt>
      <trkpt lat="10.10875" lon="-84.19134">
        <ele>1490.8</ele>
        <time>2022-05-14 17:34:40</time>
      </trkpt>
      <trkpt lat="10.10865" lon="-84.19138">
        <ele>1490.2</ele>
        <time>2022-05-14 17:34:41</time>
      </trkpt>
      <trkpt lat="10.10855" lon="-84.19141">
        <ele>1489.8</ele>
        <time>2022-05-14 17:34:42</time>
      </trkpt>
      <trkpt lat="10.10845" lon="-84.19145">
        <ele>1489.4</ele>
        <time>2022-05-14 17:34:43</time>
      </trkpt>
      <trkpt lat="10.10845" lon="-84.19145">
        <ele>1489.2</ele>
        <time>2022-05-14 17:34:44</time>
      </trkpt>
      <trkpt lat="10.10817" lon="-84.19155">
        <ele>1488.8</ele>
        <time>2022-05-14 17:34:45</time>
      </trkpt>
      <trkpt lat="10.10808" lon="-84.19158">
        <ele>1488.6</ele>
        <time>2022-05-14 17:34:46</time>
      </trkpt>
      <trkpt lat="10.10799" lon="-84.19161">
        <ele>1488.2</ele>
        <time>2022-05-14 17:34:47</time>
      </trkpt>
      <trkpt lat="10.10799" lon="-84.19161">
        <ele>1488.2</ele>
        <time>2022-05-14 17:34:48</time>
      </trkpt>
      <trkpt lat="10.10791" lon="-84.19164">
        <ele>1488.2</ele>
        <time>2022-05-14 17:34:49</time>
      </trkpt>
      <trkpt lat="10.10782" lon="-84.19167">
        <ele>1488</ele>
        <time>2022-05-14 17:34:50</time>
      </trkpt>
      <trkpt lat="10.10773" lon="-84.1917">
        <ele>1488</ele>
        <time>2022-05-14 17:34:51</time>
      </trkpt>
      <trkpt lat="10.10765" lon="-84.19174">
        <ele>1487.6</ele>
        <time>2022-05-14 17:34:52</time>
      </trkpt>
      <trkpt lat="10.10756" lon="-84.19176">
        <ele>1487.4</ele>
        <time>2022-05-14 17:34:53</time>
      </trkpt>
      <trkpt lat="10.10747" lon="-84.19178">
        <ele>1487.4</ele>
        <time>2022-05-14 17:34:54</time>
      </trkpt>
      <trkpt lat="10.1073" lon="-84.19183">
        <ele>1487.4</ele>
        <time>2022-05-14 17:34:55</time>
      </trkpt>
      <trkpt lat="10.10722" lon="-84.19186">
        <ele>1487.2</ele>
        <time>2022-05-14 17:34:56</time>
      </trkpt>
      <trkpt lat="10.10714" lon="-84.1919">
        <ele>1487</ele>
        <time>2022-05-14 17:34:57</time>
      </trkpt>
      <trkpt lat="10.10714" lon="-84.1919">
        <ele>1486.6</ele>
        <time>2022-05-14 17:34:58</time>
      </trkpt>
      <trkpt lat="10.10706" lon="-84.19192">
        <ele>1486.4</ele>
        <time>2022-05-14 17:34:59</time>
      </trkpt>
      <trkpt lat="10.10698" lon="-84.19194">
        <ele>1486.2</ele>
        <time>2022-05-14 17:35:00</time>
      </trkpt>
      <trkpt lat="10.1069" lon="-84.19196">
        <ele>1486.4</ele>
        <time>2022-05-14 17:35:01</time>
      </trkpt>
      <trkpt lat="10.10682" lon="-84.19199">
        <ele>1486.6</ele>
        <time>2022-05-14 17:35:02</time>
      </trkpt>
      <trkpt lat="10.10674" lon="-84.19201">
        <ele>1486.4</ele>
        <time>2022-05-14 17:35:03</time>
      </trkpt>
      <trkpt lat="10.10666" lon="-84.19205">
        <ele>1486</ele>
        <time>2022-05-14 17:35:04</time>
      </trkpt>
      <trkpt lat="10.10648" lon="-84.1921">
        <ele>1485.6</ele>
        <time>2022-05-14 17:35:05</time>
      </trkpt>
      <trkpt lat="10.1064" lon="-84.19212">
        <ele>1485</ele>
        <time>2022-05-14 17:35:06</time>
      </trkpt>
      <trkpt lat="10.10631" lon="-84.19215">
        <ele>1484.4</ele>
        <time>2022-05-14 17:35:07</time>
      </trkpt>
      <trkpt lat="10.10622" lon="-84.19217">
        <ele>1483.8</ele>
        <time>2022-05-14 17:35:08</time>
      </trkpt>
      <trkpt lat="10.10622" lon="-84.19217">
        <ele>1483.8</ele>
        <time>2022-05-14 17:35:09</time>
      </trkpt>
      <trkpt lat="10.10613" lon="-84.19219">
        <ele>1483.2</ele>
        <time>2022-05-14 17:35:10</time>
      </trkpt>
      <trkpt lat="10.10603" lon="-84.19221">
        <ele>1482.4</ele>
        <time>2022-05-14 17:35:11</time>
      </trkpt>
      <trkpt lat="10.10593" lon="-84.19222">
        <ele>1481.8</ele>
        <time>2022-05-14 17:35:12</time>
      </trkpt>
      <trkpt lat="10.10583" lon="-84.19222">
        <ele>1481</ele>
        <time>2022-05-14 17:35:13</time>
      </trkpt>
      <trkpt lat="10.10573" lon="-84.19222">
        <ele>1480.2</ele>
        <time>2022-05-14 17:35:14</time>
      </trkpt>
      <trkpt lat="10.10563" lon="-84.19223">
        <ele>1479.6</ele>
        <time>2022-05-14 17:35:15</time>
      </trkpt>
      <trkpt lat="10.10542" lon="-84.19225">
        <ele>1479</ele>
        <time>2022-05-14 17:35:16</time>
      </trkpt>
      <trkpt lat="10.10532" lon="-84.19227">
        <ele>1478.2</ele>
        <time>2022-05-14 17:35:17</time>
      </trkpt>
      <trkpt lat="10.10522" lon="-84.19228">
        <ele>1477.4</ele>
        <time>2022-05-14 17:35:18</time>
      </trkpt>
      <trkpt lat="10.10522" lon="-84.19228">
        <ele>1476.6</ele>
        <time>2022-05-14 17:35:19</time>
      </trkpt>
      <trkpt lat="10.10512" lon="-84.1923">
        <ele>1476</ele>
        <time>2022-05-14 17:35:20</time>
      </trkpt>
      <trkpt lat="10.10501" lon="-84.19233">
        <ele>1475.2</ele>
        <time>2022-05-14 17:35:21</time>
      </trkpt>
      <trkpt lat="10.10491" lon="-84.19235">
        <ele>1474.2</ele>
        <time>2022-05-14 17:35:22</time>
      </trkpt>
      <trkpt lat="10.1048" lon="-84.19236">
        <ele>1473.2</ele>
        <time>2022-05-14 17:35:23</time>
      </trkpt>
      <trkpt lat="10.1047" lon="-84.19237">
        <ele>1472.2</ele>
        <time>2022-05-14 17:35:24</time>
      </trkpt>
      <trkpt lat="10.1047" lon="-84.19237">
        <ele>1471.6</ele>
        <time>2022-05-14 17:35:25</time>
      </trkpt>
      <trkpt lat="10.10437" lon="-84.19244">
        <ele>1470.6</ele>
        <time>2022-05-14 17:35:26</time>
      </trkpt>
      <trkpt lat="10.10427" lon="-84.19249">
        <ele>1469.8</ele>
        <time>2022-05-14 17:35:27</time>
      </trkpt>
      <trkpt lat="10.10417" lon="-84.19253">
        <ele>1469.4</ele>
        <time>2022-05-14 17:35:28</time>
      </trkpt>
      <trkpt lat="10.10407" lon="-84.19259">
        <ele>1469</ele>
        <time>2022-05-14 17:35:29</time>
      </trkpt>
      <trkpt lat="10.10407" lon="-84.19259">
        <ele>1469</ele>
        <time>2022-05-14 17:35:30</time>
      </trkpt>
      <trkpt lat="10.10397" lon="-84.19265">
        <ele>1468.6</ele>
        <time>2022-05-14 17:35:31</time>
      </trkpt>
      <trkpt lat="10.10387" lon="-84.19272">
        <ele>1467.8</ele>
        <time>2022-05-14 17:35:32</time>
      </trkpt>
      <trkpt lat="10.10377" lon="-84.19278">
        <ele>1467</ele>
        <time>2022-05-14 17:35:33</time>
      </trkpt>
      <trkpt lat="10.10366" lon="-84.19282">
        <ele>1466.4</ele>
        <time>2022-05-14 17:35:34</time>
      </trkpt>
      <trkpt lat="10.10355" lon="-84.19286">
        <ele>1465.8</ele>
        <time>2022-05-14 17:35:35</time>
      </trkpt>
      <trkpt lat="10.10355" lon="-84.19286">
        <ele>1465.2</ele>
        <time>2022-05-14 17:35:36</time>
      </trkpt>
      <trkpt lat="10.1032" lon="-84.19293">
        <ele>1464.4</ele>
        <time>2022-05-14 17:35:37</time>
      </trkpt>
      <trkpt lat="10.10308" lon="-84.19293">
        <ele>1463.4</ele>
        <time>2022-05-14 17:35:38</time>
      </trkpt>
      <trkpt lat="10.10296" lon="-84.19293">
        <ele>1462.4</ele>
        <time>2022-05-14 17:35:39</time>
      </trkpt>
      <trkpt lat="10.10296" lon="-84.19293">
        <ele>1461.2</ele>
        <time>2022-05-14 17:35:40</time>
      </trkpt>
      <trkpt lat="10.10284" lon="-84.19293">
        <ele>1460.2</ele>
        <time>2022-05-14 17:35:41</time>
      </trkpt>
      <trkpt lat="10.10271" lon="-84.19293">
        <ele>1459.4</ele>
        <time>2022-05-14 17:35:42</time>
      </trkpt>
      <trkpt lat="10.10259" lon="-84.19293">
        <ele>1458.4</ele>
        <time>2022-05-14 17:35:43</time>
      </trkpt>
      <trkpt lat="10.10246" lon="-84.19293">
        <ele>1457.4</ele>
        <time>2022-05-14 17:35:44</time>
      </trkpt>
      <trkpt lat="10.10233" lon="-84.19293">
        <ele>1456.2</ele>
        <time>2022-05-14 17:35:45</time>
      </trkpt>
      <trkpt lat="10.10207" lon="-84.19293">
        <ele>1455.2</ele>
        <time>2022-05-14 17:35:46</time>
      </trkpt>
      <trkpt lat="10.10195" lon="-84.19295">
        <ele>1454.2</ele>
        <time>2022-05-14 17:35:47</time>
      </trkpt>
      <trkpt lat="10.10182" lon="-84.19297">
        <ele>1453.6</ele>
        <time>2022-05-14 17:35:48</time>
      </trkpt>
      <trkpt lat="10.1017" lon="-84.19301">
        <ele>1452.8</ele>
        <time>2022-05-14 17:35:49</time>
      </trkpt>
      <trkpt lat="10.10158" lon="-84.19304">
        <ele>1452</ele>
        <time>2022-05-14 17:35:50</time>
      </trkpt>
      <trkpt lat="10.10158" lon="-84.19304">
        <ele>1452</ele>
        <time>2022-05-14 17:35:51</time>
      </trkpt>
      <trkpt lat="10.10147" lon="-84.19311">
        <ele>1451</ele>
        <time>2022-05-14 17:35:52</time>
      </trkpt>
      <trkpt lat="10.10136" lon="-84.19318">
        <ele>1449.8</ele>
        <time>2022-05-14 17:35:53</time>
      </trkpt>
      <trkpt lat="10.10126" lon="-84.19325">
        <ele>1448.8</ele>
        <time>2022-05-14 17:35:54</time>
      </trkpt>
      <trkpt lat="10.10115" lon="-84.19333">
        <ele>1447.6</ele>
        <time>2022-05-14 17:35:55</time>
      </trkpt>
      <trkpt lat="10.10105" lon="-84.1934">
        <ele>1446.6</ele>
        <time>2022-05-14 17:35:56</time>
      </trkpt>
      <trkpt lat="10.10085" lon="-84.19356">
        <ele>1445.8</ele>
        <time>2022-05-14 17:35:57</time>
      </trkpt>
      <trkpt lat="10.10074" lon="-84.19363">
        <ele>1444.8</ele>
        <time>2022-05-14 17:35:58</time>
      </trkpt>
      <trkpt lat="10.10064" lon="-84.19372">
        <ele>1444</ele>
        <time>2022-05-14 17:35:59</time>
      </trkpt>
      <trkpt lat="10.10053" lon="-84.1938">
        <ele>1443.2</ele>
        <time>2022-05-14 17:36:00</time>
      </trkpt>
      <trkpt lat="10.10053" lon="-84.1938">
        <ele>1442.4</ele>
        <time>2022-05-14 17:36:01</time>
      </trkpt>
      <trkpt lat="10.10043" lon="-84.19388">
        <ele>1441.6</ele>
        <time>2022-05-14 17:36:02</time>
      </trkpt>
      <trkpt lat="10.10033" lon="-84.19396">
        <ele>1440.4</ele>
        <time>2022-05-14 17:36:03</time>
      </trkpt>
      <trkpt lat="10.10022" lon="-84.19404">
        <ele>1439.2</ele>
        <time>2022-05-14 17:36:04</time>
      </trkpt>
      <trkpt lat="10.10012" lon="-84.19412">
        <ele>1437.8</ele>
        <time>2022-05-14 17:36:05</time>
      </trkpt>
      <trkpt lat="10.10002" lon="-84.1942">
        <ele>1436.4</ele>
        <time>2022-05-14 17:36:06</time>
      </trkpt>
      <trkpt lat="10.09982" lon="-84.19436">
        <ele>1435</ele>
        <time>2022-05-14 17:36:07</time>
      </trkpt>
      <trkpt lat="10.09972" lon="-84.19443">
        <ele>1433.6</ele>
        <time>2022-05-14 17:36:08</time>
      </trkpt>
      <trkpt lat="10.09963" lon="-84.19451">
        <ele>1432</ele>
        <time>2022-05-14 17:36:09</time>
      </trkpt>
      <trkpt lat="10.09953" lon="-84.19459">
        <ele>1430.8</ele>
        <time>2022-05-14 17:36:10</time>
      </trkpt>
      <trkpt lat="10.09944" lon="-84.19466">
        <ele>1429.6</ele>
        <time>2022-05-14 17:36:11</time>
      </trkpt>
      <trkpt lat="10.09944" lon="-84.19466">
        <ele>1429.6</ele>
        <time>2022-05-14 17:36:12</time>
      </trkpt>
      <trkpt lat="10.09935" lon="-84.19472">
        <ele>1428.8</ele>
        <time>2022-05-14 17:36:13</time>
      </trkpt>
      <trkpt lat="10.09925" lon="-84.19478">
        <ele>1427.6</ele>
        <time>2022-05-14 17:36:14</time>
      </trkpt>
      <trkpt lat="10.09914" lon="-84.19481">
        <ele>1426.2</ele>
        <time>2022-05-14 17:36:15</time>
      </trkpt>
      <trkpt lat="10.09904" lon="-84.19479">
        <ele>1425</ele>
        <time>2022-05-14 17:36:16</time>
      </trkpt>
      <trkpt lat="10.09904" lon="-84.19479">
        <ele>1424</ele>
        <time>2022-05-14 17:36:17</time>
      </trkpt>
      <trkpt lat="10.09884" lon="-84.19456">
        <ele>1423</ele>
        <time>2022-05-14 17:36:18</time>
      </trkpt>
      <trkpt lat="10.09884" lon="-84.19443">
        <ele>1422</ele>
        <time>2022-05-14 17:36:19</time>
      </trkpt>
      <trkpt lat="10.09887" lon="-84.19432">
        <ele>1420.6</ele>
        <time>2022-05-14 17:36:20</time>
      </trkpt>
      <trkpt lat="10.0989" lon="-84.1942">
        <ele>1419.2</ele>
        <time>2022-05-14 17:36:21</time>
      </trkpt>
      <trkpt lat="10.0989" lon="-84.1942">
        <ele>1417.8</ele>
        <time>2022-05-14 17:36:22</time>
      </trkpt>
      <trkpt lat="10.09893" lon="-84.19407">
        <ele>1416.4</ele>
        <time>2022-05-14 17:36:23</time>
      </trkpt>
      <trkpt lat="10.09896" lon="-84.19395">
        <ele>1415.2</ele>
        <time>2022-05-14 17:36:24</time>
      </trkpt>
      <trkpt lat="10.09897" lon="-84.19381">
        <ele>1414</ele>
        <time>2022-05-14 17:36:25</time>
      </trkpt>
      <trkpt lat="10.09897" lon="-84.19367">
        <ele>1413</ele>
        <time>2022-05-14 17:36:26</time>
      </trkpt>
      <trkpt lat="10.09897" lon="-84.19367">
        <ele>1411.8</ele>
        <time>2022-05-14 17:36:27</time>
      </trkpt>
      <trkpt lat="10.09891" lon="-84.19326">
        <ele>1410.6</ele>
        <time>2022-05-14 17:36:28</time>
      </trkpt>
      <trkpt lat="10.0989" lon="-84.19312">
        <ele>1409.2</ele>
        <time>2022-05-14 17:36:29</time>
      </trkpt>
      <trkpt lat="10.09889" lon="-84.19298">
        <ele>1407.8</ele>
        <time>2022-05-14 17:36:30</time>
      </trkpt>
      <trkpt lat="10.0989" lon="-84.19284">
        <ele>1406.4</ele>
        <time>2022-05-14 17:36:31</time>
      </trkpt>
      <trkpt lat="10.0989" lon="-84.1927">
        <ele>1405</ele>
        <time>2022-05-14 17:36:32</time>
      </trkpt>
      <trkpt lat="10.0989" lon="-84.1927">
        <ele>1405</ele>
        <time>2022-05-14 17:36:33</time>
      </trkpt>
      <trkpt lat="10.09892" lon="-84.19255">
        <ele>1404</ele>
        <time>2022-05-14 17:36:34</time>
      </trkpt>
      <trkpt lat="10.09895" lon="-84.19241">
        <ele>1403</ele>
        <time>2022-05-14 17:36:35</time>
      </trkpt>
      <trkpt lat="10.09899" lon="-84.19228">
        <ele>1402.2</ele>
        <time>2022-05-14 17:36:36</time>
      </trkpt>
      <trkpt lat="10.09903" lon="-84.19215">
        <ele>1401.4</ele>
        <time>2022-05-14 17:36:37</time>
      </trkpt>
      <trkpt lat="10.09921" lon="-84.19194">
        <ele>1400.4</ele>
        <time>2022-05-14 17:36:38</time>
      </trkpt>
      <trkpt lat="10.09927" lon="-84.19184">
        <ele>1399.8</ele>
        <time>2022-05-14 17:36:39</time>
      </trkpt>
      <trkpt lat="10.09931" lon="-84.19172">
        <ele>1399.4</ele>
        <time>2022-05-14 17:36:40</time>
      </trkpt>
      <trkpt lat="10.09929" lon="-84.19161">
        <ele>1398.8</ele>
        <time>2022-05-14 17:36:41</time>
      </trkpt>
      <trkpt lat="10.09928" lon="-84.19152">
        <ele>1398.6</ele>
        <time>2022-05-14 17:36:42</time>
      </trkpt>
      <trkpt lat="10.09928" lon="-84.19152">
        <ele>1398.4</ele>
        <time>2022-05-14 17:36:43</time>
      </trkpt>
      <trkpt lat="10.09926" lon="-84.19142">
        <ele>1398.4</ele>
        <time>2022-05-14 17:36:44</time>
      </trkpt>
      <trkpt lat="10.09923" lon="-84.19134">
        <ele>1398.6</ele>
        <time>2022-05-14 17:36:45</time>
      </trkpt>
      <trkpt lat="10.09915" lon="-84.19127">
        <ele>1398.6</ele>
        <time>2022-05-14 17:36:46</time>
      </trkpt>
      <trkpt lat="10.09907" lon="-84.19123">
        <ele>1398.8</ele>
        <time>2022-05-14 17:36:47</time>
      </trkpt>
      <trkpt lat="10.09892" lon="-84.19123">
        <ele>1399</ele>
        <time>2022-05-14 17:36:48</time>
      </trkpt>
      <trkpt lat="10.09885" lon="-84.19121">
        <ele>1399.4</ele>
        <time>2022-05-14 17:36:49</time>
      </trkpt>
      <trkpt lat="10.0988" lon="-84.19121">
        <ele>1399.8</ele>
        <time>2022-05-14 17:36:50</time>
      </trkpt>
      <trkpt lat="10.09874" lon="-84.1912">
        <ele>1400.2</ele>
        <time>2022-05-14 17:36:51</time>
      </trkpt>
      <trkpt lat="10.09869" lon="-84.19121">
        <ele>1400.8</ele>
        <time>2022-05-14 17:36:52</time>
      </trkpt>
      <trkpt lat="10.09865" lon="-84.19123">
        <ele>1401.2</ele>
        <time>2022-05-14 17:36:53</time>
      </trkpt>
      <trkpt lat="10.09865" lon="-84.19123">
        <ele>1401.2</ele>
        <time>2022-05-14 17:36:54</time>
      </trkpt>
      <trkpt lat="10.09861" lon="-84.19124">
        <ele>1401.8</ele>
        <time>2022-05-14 17:36:55</time>
      </trkpt>
      <trkpt lat="10.09858" lon="-84.19126">
        <ele>1402.2</ele>
        <time>2022-05-14 17:36:56</time>
      </trkpt>
      <trkpt lat="10.09855" lon="-84.19128">
        <ele>1402.6</ele>
        <time>2022-05-14 17:36:57</time>
      </trkpt>
      <trkpt lat="10.09852" lon="-84.19132">
        <ele>1403</ele>
        <time>2022-05-14 17:36:58</time>
      </trkpt>
      <trkpt lat="10.09847" lon="-84.19137">
        <ele>1403.4</ele>
        <time>2022-05-14 17:36:59</time>
      </trkpt>
      <trkpt lat="10.09845" lon="-84.19139">
        <ele>1403.8</ele>
        <time>2022-05-14 17:37:00</time>
      </trkpt>
      <trkpt lat="10.09842" lon="-84.19141">
        <ele>1404.4</ele>
        <time>2022-05-14 17:37:01</time>
      </trkpt>
      <trkpt lat="10.0984" lon="-84.19143">
        <ele>1404.8</ele>
        <time>2022-05-14 17:37:02</time>
      </trkpt>
      <trkpt lat="10.09837" lon="-84.19146">
        <ele>1405.2</ele>
        <time>2022-05-14 17:37:03</time>
      </trkpt>
      <trkpt lat="10.09837" lon="-84.19146">
        <ele>1405.6</ele>
        <time>2022-05-14 17:37:04</time>
      </trkpt>
      <trkpt lat="10.09835" lon="-84.19147">
        <ele>1406</ele>
        <time>2022-05-14 17:37:05</time>
      </trkpt>
      <trkpt lat="10.09832" lon="-84.1915">
        <ele>1406.4</ele>
        <time>2022-05-14 17:37:06</time>
      </trkpt>
      <trkpt lat="10.09829" lon="-84.19152">
        <ele>1406.6</ele>
        <time>2022-05-14 17:37:07</time>
      </trkpt>
      <trkpt lat="10.09829" lon="-84.19152">
        <ele>1407</ele>
        <time>2022-05-14 17:37:08</time>
      </trkpt>
      <trkpt lat="10.09822" lon="-84.19157">
        <ele>1407.2</ele>
        <time>2022-05-14 17:37:09</time>
      </trkpt>
      <trkpt lat="10.09819" lon="-84.19158">
        <ele>1407.4</ele>
        <time>2022-05-14 17:37:10</time>
      </trkpt>
      <trkpt lat="10.09817" lon="-84.19161">
        <ele>1407.8</ele>
        <time>2022-05-14 17:37:11</time>
      </trkpt>
      <trkpt lat="10.09814" lon="-84.19162">
        <ele>1408.4</ele>
        <time>2022-05-14 17:37:12</time>
      </trkpt>
      <trkpt lat="10.09812" lon="-84.19164">
        <ele>1408.6</ele>
        <time>2022-05-14 17:37:13</time>
      </trkpt>
      <trkpt lat="10.0981" lon="-84.19166">
        <ele>1409</ele>
        <time>2022-05-14 17:37:14</time>
      </trkpt>
      <trkpt lat="10.0981" lon="-84.19166">
        <ele>1409</ele>
        <time>2022-05-14 17:37:15</time>
      </trkpt>
      <trkpt lat="10.09808" lon="-84.19168">
        <ele>1409.2</ele>
        <time>2022-05-14 17:37:16</time>
      </trkpt>
      <trkpt lat="10.09806" lon="-84.19171">
        <ele>1409.4</ele>
        <time>2022-05-14 17:37:17</time>
      </trkpt>
      <trkpt lat="10.09805" lon="-84.19172">
        <ele>1409.8</ele>
        <time>2022-05-14 17:37:18</time>
      </trkpt>
      <trkpt lat="10.09805" lon="-84.19172">
        <ele>1410.2</ele>
        <time>2022-05-14 17:37:19</time>
      </trkpt>
      <trkpt lat="10.09797" lon="-84.19179">
        <ele>1410.6</ele>
        <time>2022-05-14 17:37:20</time>
      </trkpt>
      <trkpt lat="10.09795" lon="-84.19181">
        <ele>1411</ele>
        <time>2022-05-14 17:37:21</time>
      </trkpt>
      <trkpt lat="10.09793" lon="-84.19182">
        <ele>1411</ele>
        <time>2022-05-14 17:37:22</time>
      </trkpt>
      <trkpt lat="10.09791" lon="-84.19183">
        <ele>1411.2</ele>
        <time>2022-05-14 17:37:23</time>
      </trkpt>
      <trkpt lat="10.09788" lon="-84.19185">
        <ele>1411.4</ele>
        <time>2022-05-14 17:37:24</time>
      </trkpt>
      <trkpt lat="10.09788" lon="-84.19185">
        <ele>1411.8</ele>
        <time>2022-05-14 17:37:25</time>
      </trkpt>
      <trkpt lat="10.09786" lon="-84.19186">
        <ele>1412</ele>
        <time>2022-05-14 17:37:26</time>
      </trkpt>
      <trkpt lat="10.09784" lon="-84.19189">
        <ele>1412.4</ele>
        <time>2022-05-14 17:37:27</time>
      </trkpt>
      <trkpt lat="10.09782" lon="-84.1919">
        <ele>1412.6</ele>
        <time>2022-05-14 17:37:28</time>
      </trkpt>
      <trkpt lat="10.09778" lon="-84.19193">
        <ele>1412.8</ele>
        <time>2022-05-14 17:37:29</time>
      </trkpt>
      <trkpt lat="10.09776" lon="-84.19195">
        <ele>1413.2</ele>
        <time>2022-05-14 17:37:30</time>
      </trkpt>
      <trkpt lat="10.09775" lon="-84.19196">
        <ele>1413.6</ele>
        <time>2022-05-14 17:37:31</time>
      </trkpt>
      <trkpt lat="10.09773" lon="-84.19198">
        <ele>1414</ele>
        <time>2022-05-14 17:37:32</time>
      </trkpt>
      <trkpt lat="10.09771" lon="-84.19199">
        <ele>1414.2</ele>
        <time>2022-05-14 17:37:33</time>
      </trkpt>
      <trkpt lat="10.09769" lon="-84.192">
        <ele>1414.6</ele>
        <time>2022-05-14 17:37:34</time>
      </trkpt>
      <trkpt lat="10.09767" lon="-84.19201">
        <ele>1415</ele>
        <time>2022-05-14 17:37:35</time>
      </trkpt>
      <trkpt lat="10.09767" lon="-84.19201">
        <ele>1415</ele>
        <time>2022-05-14 17:37:36</time>
      </trkpt>
      <trkpt lat="10.09766" lon="-84.19204">
        <ele>1415.4</ele>
        <time>2022-05-14 17:37:37</time>
      </trkpt>
      <trkpt lat="10.09764" lon="-84.19205">
        <ele>1415.6</ele>
        <time>2022-05-14 17:37:38</time>
      </trkpt>
      <trkpt lat="10.09762" lon="-84.19206">
        <ele>1415.8</ele>
        <time>2022-05-14 17:37:39</time>
      </trkpt>
      <trkpt lat="10.09758" lon="-84.19208">
        <ele>1416</ele>
        <time>2022-05-14 17:37:40</time>
      </trkpt>
      <trkpt lat="10.09756" lon="-84.19208">
        <ele>1416.4</ele>
        <time>2022-05-14 17:37:41</time>
      </trkpt>
      <trkpt lat="10.09753" lon="-84.19209">
        <ele>1416.8</ele>
        <time>2022-05-14 17:37:42</time>
      </trkpt>
      <trkpt lat="10.09751" lon="-84.19211">
        <ele>1417</ele>
        <time>2022-05-14 17:37:43</time>
      </trkpt>
      <trkpt lat="10.09749" lon="-84.19212">
        <ele>1417.4</ele>
        <time>2022-05-14 17:37:44</time>
      </trkpt>
      <trkpt lat="10.09746" lon="-84.19212">
        <ele>1417.6</ele>
        <time>2022-05-14 17:37:45</time>
      </trkpt>
      <trkpt lat="10.09746" lon="-84.19212">
        <ele>1418</ele>
        <time>2022-05-14 17:37:46</time>
      </trkpt>
      <trkpt lat="10.09743" lon="-84.19212">
        <ele>1418.2</ele>
        <time>2022-05-14 17:37:47</time>
      </trkpt>
      <trkpt lat="10.09741" lon="-84.19212">
        <ele>1418.4</ele>
        <time>2022-05-14 17:37:48</time>
      </trkpt>
      <trkpt lat="10.09741" lon="-84.19212">
        <ele>1418.8</ele>
        <time>2022-05-14 17:37:49</time>
      </trkpt>
      <trkpt lat="10.09732" lon="-84.19213">
        <ele>1419</ele>
        <time>2022-05-14 17:37:50</time>
      </trkpt>
      <trkpt lat="10.0973" lon="-84.19212">
        <ele>1419.2</ele>
        <time>2022-05-14 17:37:51</time>
      </trkpt>
      <trkpt lat="10.09727" lon="-84.19212">
        <ele>1419.4</ele>
        <time>2022-05-14 17:37:52</time>
      </trkpt>
      <trkpt lat="10.09725" lon="-84.19212">
        <ele>1419.8</ele>
        <time>2022-05-14 17:37:53</time>
      </trkpt>
      <trkpt lat="10.09722" lon="-84.19212">
        <ele>1420</ele>
        <time>2022-05-14 17:37:54</time>
      </trkpt>
      <trkpt lat="10.0972" lon="-84.19212">
        <ele>1420.2</ele>
        <time>2022-05-14 17:37:55</time>
      </trkpt>
      <trkpt lat="10.09718" lon="-84.19211">
        <ele>1420.6</ele>
        <time>2022-05-14 17:37:56</time>
      </trkpt>
      <trkpt lat="10.09718" lon="-84.19211">
        <ele>1420.6</ele>
        <time>2022-05-14 17:37:57</time>
      </trkpt>
      <trkpt lat="10.09715" lon="-84.1921">
        <ele>1420.8</ele>
        <time>2022-05-14 17:37:58</time>
      </trkpt>
      <trkpt lat="10.09712" lon="-84.19209">
        <ele>1421</ele>
        <time>2022-05-14 17:37:59</time>
      </trkpt>
      <trkpt lat="10.09712" lon="-84.19209">
        <ele>1421.4</ele>
        <time>2022-05-14 17:38:00</time>
      </trkpt>
      <trkpt lat="10.09705" lon="-84.19208">
        <ele>1421.8</ele>
        <time>2022-05-14 17:38:01</time>
      </trkpt>
      <trkpt lat="10.09703" lon="-84.19207">
        <ele>1422.2</ele>
        <time>2022-05-14 17:38:02</time>
      </trkpt>
      <trkpt lat="10.097" lon="-84.19206">
        <ele>1422.4</ele>
        <time>2022-05-14 17:38:03</time>
      </trkpt>
      <trkpt lat="10.09698" lon="-84.19206">
        <ele>1422.6</ele>
        <time>2022-05-14 17:38:04</time>
      </trkpt>
      <trkpt lat="10.09695" lon="-84.19205">
        <ele>1422.8</ele>
        <time>2022-05-14 17:38:05</time>
      </trkpt>
      <trkpt lat="10.09692" lon="-84.19205">
        <ele>1423.2</ele>
        <time>2022-05-14 17:38:06</time>
      </trkpt>
      <trkpt lat="10.09692" lon="-84.19205">
        <ele>1423.4</ele>
        <time>2022-05-14 17:38:07</time>
      </trkpt>
      <trkpt lat="10.09689" lon="-84.19204">
        <ele>1423.8</ele>
        <time>2022-05-14 17:38:08</time>
      </trkpt>
      <trkpt lat="10.09687" lon="-84.19204">
        <ele>1424.2</ele>
        <time>2022-05-14 17:38:09</time>
      </trkpt>
      <trkpt lat="10.09687" lon="-84.19204">
        <ele>1424.6</ele>
        <time>2022-05-14 17:38:10</time>
      </trkpt>
      <trkpt lat="10.0968" lon="-84.19206">
        <ele>1425</ele>
        <time>2022-05-14 17:38:11</time>
      </trkpt>
      <trkpt lat="10.09677" lon="-84.19206">
        <ele>1425.4</ele>
        <time>2022-05-14 17:38:12</time>
      </trkpt>
      <trkpt lat="10.09675" lon="-84.19206">
        <ele>1425.6</ele>
        <time>2022-05-14 17:38:13</time>
      </trkpt>
      <trkpt lat="10.09673" lon="-84.19206">
        <ele>1426</ele>
        <time>2022-05-14 17:38:14</time>
      </trkpt>
      <trkpt lat="10.09671" lon="-84.19206">
        <ele>1426.4</ele>
        <time>2022-05-14 17:38:15</time>
      </trkpt>
      <trkpt lat="10.09668" lon="-84.19206">
        <ele>1426.8</ele>
        <time>2022-05-14 17:38:16</time>
      </trkpt>
      <trkpt lat="10.09665" lon="-84.19206">
        <ele>1427</ele>
        <time>2022-05-14 17:38:17</time>
      </trkpt>
      <trkpt lat="10.09665" lon="-84.19206">
        <ele>1427</ele>
        <time>2022-05-14 17:38:18</time>
      </trkpt>
      <trkpt lat="10.09662" lon="-84.19206">
        <ele>1427.4</ele>
        <time>2022-05-14 17:38:19</time>
      </trkpt>
      <trkpt lat="10.09659" lon="-84.19205">
        <ele>1427.8</ele>
        <time>2022-05-14 17:38:20</time>
      </trkpt>
      <trkpt lat="10.09655" lon="-84.19206">
        <ele>1428.2</ele>
        <time>2022-05-14 17:38:21</time>
      </trkpt>
      <trkpt lat="10.09652" lon="-84.19206">
        <ele>1428.6</ele>
        <time>2022-05-14 17:38:22</time>
      </trkpt>
      <trkpt lat="10.09649" lon="-84.19207">
        <ele>1428.8</ele>
        <time>2022-05-14 17:38:23</time>
      </trkpt>
      <trkpt lat="10.09647" lon="-84.19208">
        <ele>1429.2</ele>
        <time>2022-05-14 17:38:24</time>
      </trkpt>
      <trkpt lat="10.09644" lon="-84.19208">
        <ele>1429.6</ele>
        <time>2022-05-14 17:38:25</time>
      </trkpt>
      <trkpt lat="10.09642" lon="-84.19208">
        <ele>1430</ele>
        <time>2022-05-14 17:38:26</time>
      </trkpt>
      <trkpt lat="10.09638" lon="-84.19209">
        <ele>1430.4</ele>
        <time>2022-05-14 17:38:27</time>
      </trkpt>
      <trkpt lat="10.09638" lon="-84.19209">
        <ele>1430.6</ele>
        <time>2022-05-14 17:38:28</time>
      </trkpt>
      <trkpt lat="10.09636" lon="-84.1921">
        <ele>1431</ele>
        <time>2022-05-14 17:38:29</time>
      </trkpt>
      <trkpt lat="10.09633" lon="-84.19211">
        <ele>1431.2</ele>
        <time>2022-05-14 17:38:30</time>
      </trkpt>
      <trkpt lat="10.09628" lon="-84.19213">
        <ele>1431.6</ele>
        <time>2022-05-14 17:38:31</time>
      </trkpt>
      <trkpt lat="10.09625" lon="-84.19214">
        <ele>1432</ele>
        <time>2022-05-14 17:38:32</time>
      </trkpt>
      <trkpt lat="10.09622" lon="-84.19215">
        <ele>1432.2</ele>
        <time>2022-05-14 17:38:33</time>
      </trkpt>
      <trkpt lat="10.09619" lon="-84.19216">
        <ele>1432.8</ele>
        <time>2022-05-14 17:38:34</time>
      </trkpt>
      <trkpt lat="10.09617" lon="-84.19217">
        <ele>1433.2</ele>
        <time>2022-05-14 17:38:35</time>
      </trkpt>
      <trkpt lat="10.09614" lon="-84.19219">
        <ele>1433.6</ele>
        <time>2022-05-14 17:38:36</time>
      </trkpt>
      <trkpt lat="10.09611" lon="-84.1922">
        <ele>1433.8</ele>
        <time>2022-05-14 17:38:37</time>
      </trkpt>
      <trkpt lat="10.09608" lon="-84.19221">
        <ele>1434</ele>
        <time>2022-05-14 17:38:38</time>
      </trkpt>
      <trkpt lat="10.09608" lon="-84.19221">
        <ele>1434</ele>
        <time>2022-05-14 17:38:39</time>
      </trkpt>
      <trkpt lat="10.09606" lon="-84.19222">
        <ele>1434.4</ele>
        <time>2022-05-14 17:38:40</time>
      </trkpt>
      <trkpt lat="10.09603" lon="-84.19224">
        <ele>1434.8</ele>
        <time>2022-05-14 17:38:41</time>
      </trkpt>
      <trkpt lat="10.09596" lon="-84.19226">
        <ele>1435.2</ele>
        <time>2022-05-14 17:38:42</time>
      </trkpt>
      <trkpt lat="10.09593" lon="-84.19226">
        <ele>1435.6</ele>
        <time>2022-05-14 17:38:43</time>
      </trkpt>
      <trkpt lat="10.0959" lon="-84.19226">
        <ele>1435.8</ele>
        <time>2022-05-14 17:38:44</time>
      </trkpt>
      <trkpt lat="10.09587" lon="-84.19225">
        <ele>1436.2</ele>
        <time>2022-05-14 17:38:45</time>
      </trkpt>
      <trkpt lat="10.09584" lon="-84.19224">
        <ele>1436.6</ele>
        <time>2022-05-14 17:38:46</time>
      </trkpt>
      <trkpt lat="10.0958" lon="-84.19222">
        <ele>1437</ele>
        <time>2022-05-14 17:38:47</time>
      </trkpt>
      <trkpt lat="10.09577" lon="-84.1922">
        <ele>1437.2</ele>
        <time>2022-05-14 17:38:48</time>
      </trkpt>
      <trkpt lat="10.09577" lon="-84.1922">
        <ele>1437.4</ele>
        <time>2022-05-14 17:38:49</time>
      </trkpt>
      <trkpt lat="10.09574" lon="-84.19219">
        <ele>1437.8</ele>
        <time>2022-05-14 17:38:50</time>
      </trkpt>
      <trkpt lat="10.09574" lon="-84.19219">
        <ele>1438.2</ele>
        <time>2022-05-14 17:38:51</time>
      </trkpt>
      <trkpt lat="10.09566" lon="-84.19211">
        <ele>1438.6</ele>
        <time>2022-05-14 17:38:52</time>
      </trkpt>
      <trkpt lat="10.09564" lon="-84.19208">
        <ele>1438.8</ele>
        <time>2022-05-14 17:38:53</time>
      </trkpt>
      <trkpt lat="10.09564" lon="-84.19206">
        <ele>1439</ele>
        <time>2022-05-14 17:38:54</time>
      </trkpt>
      <trkpt lat="10.09563" lon="-84.19203">
        <ele>1439.4</ele>
        <time>2022-05-14 17:38:55</time>
      </trkpt>
      <trkpt lat="10.09562" lon="-84.192">
        <ele>1439.6</ele>
        <time>2022-05-14 17:38:56</time>
      </trkpt>
      <trkpt lat="10.09562" lon="-84.19197">
        <ele>1440</ele>
        <time>2022-05-14 17:38:57</time>
      </trkpt>
      <trkpt lat="10.09562" lon="-84.19194">
        <ele>1440.2</ele>
        <time>2022-05-14 17:38:58</time>
      </trkpt>
      <trkpt lat="10.09563" lon="-84.19191">
        <ele>1440.6</ele>
        <time>2022-05-14 17:38:59</time>
      </trkpt>
      <trkpt lat="10.09563" lon="-84.19191">
        <ele>1440.6</ele>
        <time>2022-05-14 17:39:00</time>
      </trkpt>
      <trkpt lat="10.09563" lon="-84.19189">
        <ele>1440.8</ele>
        <time>2022-05-14 17:39:01</time>
      </trkpt>
      <trkpt lat="10.09563" lon="-84.19189">
        <ele>1441</ele>
        <time>2022-05-14 17:39:02</time>
      </trkpt>
      <trkpt lat="10.09565" lon="-84.19181">
        <ele>1441.2</ele>
        <time>2022-05-14 17:39:03</time>
      </trkpt>
      <trkpt lat="10.09566" lon="-84.19178">
        <ele>1441.6</ele>
        <time>2022-05-14 17:39:04</time>
      </trkpt>
      <trkpt lat="10.09567" lon="-84.19176">
        <ele>1441.8</ele>
        <time>2022-05-14 17:39:05</time>
      </trkpt>
      <trkpt lat="10.09568" lon="-84.19172">
        <ele>1442</ele>
        <time>2022-05-14 17:39:06</time>
      </trkpt>
      <trkpt lat="10.09569" lon="-84.1917">
        <ele>1442.2</ele>
        <time>2022-05-14 17:39:07</time>
      </trkpt>
      <trkpt lat="10.0957" lon="-84.19167">
        <ele>1442.6</ele>
        <time>2022-05-14 17:39:08</time>
      </trkpt>
      <trkpt lat="10.09571" lon="-84.19164">
        <ele>1442.6</ele>
        <time>2022-05-14 17:39:09</time>
      </trkpt>
      <trkpt lat="10.09571" lon="-84.19164">
        <ele>1442.8</ele>
        <time>2022-05-14 17:39:10</time>
      </trkpt>
      <trkpt lat="10.09573" lon="-84.19162">
        <ele>1442.8</ele>
        <time>2022-05-14 17:39:11</time>
      </trkpt>
      <trkpt lat="10.09575" lon="-84.19156">
        <ele>1442.8</ele>
        <time>2022-05-14 17:39:12</time>
      </trkpt>
      <trkpt lat="10.09577" lon="-84.19153">
        <ele>1443</ele>
        <time>2022-05-14 17:39:13</time>
      </trkpt>
      <trkpt lat="10.09578" lon="-84.1915">
        <ele>1443</ele>
        <time>2022-05-14 17:39:14</time>
      </trkpt>
      <trkpt lat="10.09579" lon="-84.19147">
        <ele>1443.2</ele>
        <time>2022-05-14 17:39:15</time>
      </trkpt>
      <trkpt lat="10.0958" lon="-84.19143">
        <ele>1443.2</ele>
        <time>2022-05-14 17:39:16</time>
      </trkpt>
      <trkpt lat="10.09582" lon="-84.19141">
        <ele>1443.4</ele>
        <time>2022-05-14 17:39:17</time>
      </trkpt>
      <trkpt lat="10.09583" lon="-84.19138">
        <ele>1443.4</ele>
        <time>2022-05-14 17:39:18</time>
      </trkpt>
      <trkpt lat="10.09585" lon="-84.19134">
        <ele>1443.4</ele>
        <time>2022-05-14 17:39:19</time>
      </trkpt>
      <trkpt lat="10.09586" lon="-84.19131">
        <ele>1443.6</ele>
        <time>2022-05-14 17:39:20</time>
      </trkpt>
      <trkpt lat="10.09586" lon="-84.19131">
        <ele>1443.6</ele>
        <time>2022-05-14 17:39:21</time>
      </trkpt>
      <trkpt lat="10.09588" lon="-84.19127">
        <ele>1443.6</ele>
        <time>2022-05-14 17:39:22</time>
      </trkpt>
      <trkpt lat="10.09591" lon="-84.1912">
        <ele>1443.8</ele>
        <time>2022-05-14 17:39:23</time>
      </trkpt>
      <trkpt lat="10.09593" lon="-84.19116">
        <ele>1443.8</ele>
        <time>2022-05-14 17:39:24</time>
      </trkpt>
      <trkpt lat="10.09595" lon="-84.19112">
        <ele>1443.6</ele>
        <time>2022-05-14 17:39:25</time>
      </trkpt>
      <trkpt lat="10.09597" lon="-84.19108">
        <ele>1443.2</ele>
        <time>2022-05-14 17:39:26</time>
      </trkpt>
      <trkpt lat="10.09599" lon="-84.19104">
        <ele>1443</ele>
        <time>2022-05-14 17:39:27</time>
      </trkpt>
      <trkpt lat="10.09602" lon="-84.191">
        <ele>1443</ele>
        <time>2022-05-14 17:39:28</time>
      </trkpt>
      <trkpt lat="10.09604" lon="-84.19096">
        <ele>1442.8</ele>
        <time>2022-05-14 17:39:29</time>
      </trkpt>
      <trkpt lat="10.09607" lon="-84.19091">
        <ele>1442.6</ele>
        <time>2022-05-14 17:39:30</time>
      </trkpt>
      <trkpt lat="10.09607" lon="-84.19091">
        <ele>1442.4</ele>
        <time>2022-05-14 17:39:31</time>
      </trkpt>
      <trkpt lat="10.0961" lon="-84.19087">
        <ele>1442</ele>
        <time>2022-05-14 17:39:32</time>
      </trkpt>
      <trkpt lat="10.09615" lon="-84.19074">
        <ele>1441.6</ele>
        <time>2022-05-14 17:39:33</time>
      </trkpt>
      <trkpt lat="10.09617" lon="-84.19068">
        <ele>1441.4</ele>
        <time>2022-05-14 17:39:34</time>
      </trkpt>
      <trkpt lat="10.0962" lon="-84.19061">
        <ele>1441</ele>
        <time>2022-05-14 17:39:35</time>
      </trkpt>
      <trkpt lat="10.09622" lon="-84.19054">
        <ele>1440.6</ele>
        <time>2022-05-14 17:39:36</time>
      </trkpt>
      <trkpt lat="10.09624" lon="-84.19049">
        <ele>1440</ele>
        <time>2022-05-14 17:39:37</time>
      </trkpt>
      <trkpt lat="10.09624" lon="-84.19042">
        <ele>1439.2</ele>
        <time>2022-05-14 17:39:38</time>
      </trkpt>
      <trkpt lat="10.09624" lon="-84.19037">
        <ele>1439</ele>
        <time>2022-05-14 17:39:39</time>
      </trkpt>
      <trkpt lat="10.09624" lon="-84.19031">
        <ele>1438.8</ele>
        <time>2022-05-14 17:39:40</time>
      </trkpt>
      <trkpt lat="10.09625" lon="-84.19024">
        <ele>1439</ele>
        <time>2022-05-14 17:39:41</time>
      </trkpt>
      <trkpt lat="10.09625" lon="-84.19024">
        <ele>1439</ele>
        <time>2022-05-14 17:39:42</time>
      </trkpt>
      <trkpt lat="10.09625" lon="-84.19024">
        <ele>1438.8</ele>
        <time>2022-05-14 17:39:43</time>
      </trkpt>
      <trkpt lat="10.09623" lon="-84.19005">
        <ele>1438.8</ele>
        <time>2022-05-14 17:39:44</time>
      </trkpt>
      <trkpt lat="10.09622" lon="-84.18998">
        <ele>1439.2</ele>
        <time>2022-05-14 17:39:45</time>
      </trkpt>
      <trkpt lat="10.09622" lon="-84.18992">
        <ele>1439.2</ele>
        <time>2022-05-14 17:39:46</time>
      </trkpt>
      <trkpt lat="10.09621" lon="-84.18986">
        <ele>1439.4</ele>
        <time>2022-05-14 17:39:47</time>
      </trkpt>
      <trkpt lat="10.0962" lon="-84.1898">
        <ele>1439.4</ele>
        <time>2022-05-14 17:39:48</time>
      </trkpt>
      <trkpt lat="10.09619" lon="-84.18975">
        <ele>1439.4</ele>
        <time>2022-05-14 17:39:49</time>
      </trkpt>
      <trkpt lat="10.09619" lon="-84.18969">
        <ele>1439.6</ele>
        <time>2022-05-14 17:39:50</time>
      </trkpt>
      <trkpt lat="10.09618" lon="-84.18963">
        <ele>1439.6</ele>
        <time>2022-05-14 17:39:51</time>
      </trkpt>
      <trkpt lat="10.09618" lon="-84.18963">
        <ele>1439.8</ele>
        <time>2022-05-14 17:39:52</time>
      </trkpt>
      <trkpt lat="10.09618" lon="-84.18963">
        <ele>1439.8</ele>
        <time>2022-05-14 17:39:53</time>
      </trkpt>
      <trkpt lat="10.09614" lon="-84.18948">
        <ele>1440</ele>
        <time>2022-05-14 17:39:54</time>
      </trkpt>
      <trkpt lat="10.09614" lon="-84.18942">
        <ele>1440.2</ele>
        <time>2022-05-14 17:39:55</time>
      </trkpt>
      <trkpt lat="10.09613" lon="-84.18937">
        <ele>1440.4</ele>
        <time>2022-05-14 17:39:56</time>
      </trkpt>
      <trkpt lat="10.09612" lon="-84.18932">
        <ele>1440.6</ele>
        <time>2022-05-14 17:39:57</time>
      </trkpt>
      <trkpt lat="10.09611" lon="-84.18928">
        <ele>1440.6</ele>
        <time>2022-05-14 17:39:58</time>
      </trkpt>
      <trkpt lat="10.0961" lon="-84.18923">
        <ele>1440.8</ele>
        <time>2022-05-14 17:39:59</time>
      </trkpt>
      <trkpt lat="10.09609" lon="-84.18919">
        <ele>1440.8</ele>
        <time>2022-05-14 17:40:00</time>
      </trkpt>
      <trkpt lat="10.09608" lon="-84.18915">
        <ele>1441</ele>
        <time>2022-05-14 17:40:01</time>
      </trkpt>
      <trkpt lat="10.09607" lon="-84.1891">
        <ele>1441.2</ele>
        <time>2022-05-14 17:40:02</time>
      </trkpt>
      <trkpt lat="10.09607" lon="-84.1891">
        <ele>1441.2</ele>
        <time>2022-05-14 17:40:03</time>
      </trkpt>
      <trkpt lat="10.09607" lon="-84.1891">
        <ele>1441.4</ele>
        <time>2022-05-14 17:40:04</time>
      </trkpt>
      <trkpt lat="10.09604" lon="-84.18897">
        <ele>1441.6</ele>
        <time>2022-05-14 17:40:05</time>
      </trkpt>
      <trkpt lat="10.09603" lon="-84.18891">
        <ele>1441.6</ele>
        <time>2022-05-14 17:40:06</time>
      </trkpt>
      <trkpt lat="10.09602" lon="-84.18887">
        <ele>1442</ele>
        <time>2022-05-14 17:40:07</time>
      </trkpt>
      <trkpt lat="10.096" lon="-84.18883">
        <ele>1442.4</ele>
        <time>2022-05-14 17:40:08</time>
      </trkpt>
      <trkpt lat="10.09599" lon="-84.18878">
        <ele>1442.6</ele>
        <time>2022-05-14 17:40:09</time>
      </trkpt>
      <trkpt lat="10.09597" lon="-84.18874">
        <ele>1442.8</ele>
        <time>2022-05-14 17:40:10</time>
      </trkpt>
      <trkpt lat="10.09595" lon="-84.1887">
        <ele>1443.2</ele>
        <time>2022-05-14 17:40:11</time>
      </trkpt>
      <trkpt lat="10.09593" lon="-84.18867">
        <ele>1443.4</ele>
        <time>2022-05-14 17:40:12</time>
      </trkpt>
      <trkpt lat="10.09593" lon="-84.18867">
        <ele>1443.8</ele>
        <time>2022-05-14 17:40:13</time>
      </trkpt>
      <trkpt lat="10.09586" lon="-84.1886">
        <ele>1444</ele>
        <time>2022-05-14 17:40:14</time>
      </trkpt>
      <trkpt lat="10.09583" lon="-84.18857">
        <ele>1444.4</ele>
        <time>2022-05-14 17:40:15</time>
      </trkpt>
      <trkpt lat="10.09579" lon="-84.18854">
        <ele>1444.8</ele>
        <time>2022-05-14 17:40:16</time>
      </trkpt>
      <trkpt lat="10.09574" lon="-84.18854">
        <ele>1445</ele>
        <time>2022-05-14 17:40:17</time>
      </trkpt>
      <trkpt lat="10.0957" lon="-84.18853">
        <ele>1445.2</ele>
        <time>2022-05-14 17:40:18</time>
      </trkpt>
      <trkpt lat="10.09565" lon="-84.18852">
        <ele>1445.6</ele>
        <time>2022-05-14 17:40:19</time>
      </trkpt>
      <trkpt lat="10.0956" lon="-84.18852">
        <ele>1445.8</ele>
        <time>2022-05-14 17:40:20</time>
      </trkpt>
      <trkpt lat="10.09555" lon="-84.18852">
        <ele>1446</ele>
        <time>2022-05-14 17:40:21</time>
      </trkpt>
      <trkpt lat="10.0955" lon="-84.18851">
        <ele>1446</ele>
        <time>2022-05-14 17:40:22</time>
      </trkpt>
      <trkpt lat="10.09545" lon="-84.1885">
        <ele>1446.2</ele>
        <time>2022-05-14 17:40:23</time>
      </trkpt>
      <trkpt lat="10.09545" lon="-84.1885">
        <ele>1446.2</ele>
        <time>2022-05-14 17:40:24</time>
      </trkpt>
      <trkpt lat="10.09535" lon="-84.18848">
        <ele>1446.4</ele>
        <time>2022-05-14 17:40:25</time>
      </trkpt>
      <trkpt lat="10.0953" lon="-84.18846">
        <ele>1446.8</ele>
        <time>2022-05-14 17:40:26</time>
      </trkpt>
      <trkpt lat="10.09525" lon="-84.18845">
        <ele>1447</ele>
        <time>2022-05-14 17:40:27</time>
      </trkpt>
      <trkpt lat="10.0952" lon="-84.18843">
        <ele>1447.2</ele>
        <time>2022-05-14 17:40:28</time>
      </trkpt>
      <trkpt lat="10.09516" lon="-84.1884">
        <ele>1447.4</ele>
        <time>2022-05-14 17:40:29</time>
      </trkpt>
      <trkpt lat="10.09511" lon="-84.18838">
        <ele>1447.6</ele>
        <time>2022-05-14 17:40:30</time>
      </trkpt>
      <trkpt lat="10.09507" lon="-84.18836">
        <ele>1447.8</ele>
        <time>2022-05-14 17:40:31</time>
      </trkpt>
      <trkpt lat="10.09503" lon="-84.18835">
        <ele>1448.2</ele>
        <time>2022-05-14 17:40:32</time>
      </trkpt>
      <trkpt lat="10.09503" lon="-84.18835">
        <ele>1448.6</ele>
        <time>2022-05-14 17:40:33</time>
      </trkpt>
      <trkpt lat="10.09503" lon="-84.18835">
        <ele>1449</ele>
        <time>2022-05-14 17:40:34</time>
      </trkpt>
      <trkpt lat="10.09488" lon="-84.18835">
        <ele>1449.4</ele>
        <time>2022-05-14 17:40:35</time>
      </trkpt>
      <trkpt lat="10.09483" lon="-84.18836">
        <ele>1449.8</ele>
        <time>2022-05-14 17:40:36</time>
      </trkpt>
      <trkpt lat="10.09479" lon="-84.18836">
        <ele>1450.2</ele>
        <time>2022-05-14 17:40:37</time>
      </trkpt>
      <trkpt lat="10.09474" lon="-84.18837">
        <ele>1450.6</ele>
        <time>2022-05-14 17:40:38</time>
      </trkpt>
      <trkpt lat="10.0947" lon="-84.18838">
        <ele>1451.2</ele>
        <time>2022-05-14 17:40:39</time>
      </trkpt>
      <trkpt lat="10.09466" lon="-84.1884">
        <ele>1451.8</ele>
        <time>2022-05-14 17:40:40</time>
      </trkpt>
      <trkpt lat="10.09461" lon="-84.18841">
        <ele>1452.4</ele>
        <time>2022-05-14 17:40:41</time>
      </trkpt>
      <trkpt lat="10.09458" lon="-84.18843">
        <ele>1452.8</ele>
        <time>2022-05-14 17:40:42</time>
      </trkpt>
      <trkpt lat="10.09454" lon="-84.18844">
        <ele>1453.2</ele>
        <time>2022-05-14 17:40:43</time>
      </trkpt>
      <trkpt lat="10.09454" lon="-84.18844">
        <ele>1453.4</ele>
        <time>2022-05-14 17:40:44</time>
      </trkpt>
      <trkpt lat="10.09454" lon="-84.18844">
        <ele>1453.4</ele>
        <time>2022-05-14 17:40:45</time>
      </trkpt>
      <trkpt lat="10.09441" lon="-84.18845">
        <ele>1453.6</ele>
        <time>2022-05-14 17:40:46</time>
      </trkpt>
      <trkpt lat="10.09436" lon="-84.18846">
        <ele>1453.8</ele>
        <time>2022-05-14 17:40:47</time>
      </trkpt>
      <trkpt lat="10.09431" lon="-84.18848">
        <ele>1454</ele>
        <time>2022-05-14 17:40:48</time>
      </trkpt>
      <trkpt lat="10.09426" lon="-84.18848">
        <ele>1454.2</ele>
        <time>2022-05-14 17:40:49</time>
      </trkpt>
      <trkpt lat="10.0942" lon="-84.18848">
        <ele>1454.4</ele>
        <time>2022-05-14 17:40:50</time>
      </trkpt>
      <trkpt lat="10.09415" lon="-84.18848">
        <ele>1454.6</ele>
        <time>2022-05-14 17:40:51</time>
      </trkpt>
      <trkpt lat="10.09409" lon="-84.18848">
        <ele>1454.6</ele>
        <time>2022-05-14 17:40:52</time>
      </trkpt>
      <trkpt lat="10.09403" lon="-84.18848">
        <ele>1454.8</ele>
        <time>2022-05-14 17:40:53</time>
      </trkpt>
      <trkpt lat="10.09403" lon="-84.18848">
        <ele>1454.8</ele>
        <time>2022-05-14 17:40:54</time>
      </trkpt>
      <trkpt lat="10.09392" lon="-84.18848">
        <ele>1454.8</ele>
        <time>2022-05-14 17:40:55</time>
      </trkpt>
      <trkpt lat="10.09386" lon="-84.18848">
        <ele>1454.8</ele>
        <time>2022-05-14 17:40:56</time>
      </trkpt>
      <trkpt lat="10.0938" lon="-84.18848">
        <ele>1454.8</ele>
        <time>2022-05-14 17:40:57</time>
      </trkpt>
      <trkpt lat="10.09373" lon="-84.18848">
        <ele>1454.8</ele>
        <time>2022-05-14 17:40:58</time>
      </trkpt>
      <trkpt lat="10.09367" lon="-84.18848">
        <ele>1455</ele>
        <time>2022-05-14 17:40:59</time>
      </trkpt>
      <trkpt lat="10.09361" lon="-84.18848">
        <ele>1455</ele>
        <time>2022-05-14 17:41:00</time>
      </trkpt>
      <trkpt lat="10.09355" lon="-84.18848">
        <ele>1455</ele>
        <time>2022-05-14 17:41:01</time>
      </trkpt>
      <trkpt lat="10.09349" lon="-84.18848">
        <ele>1455</ele>
        <time>2022-05-14 17:41:02</time>
      </trkpt>
      <trkpt lat="10.09343" lon="-84.18848">
        <ele>1455</ele>
        <time>2022-05-14 17:41:03</time>
      </trkpt>
      <trkpt lat="10.09336" lon="-84.18848">
        <ele>1454.6</ele>
        <time>2022-05-14 17:41:04</time>
      </trkpt>
      <trkpt lat="10.09336" lon="-84.18848">
        <ele>1454.2</ele>
        <time>2022-05-14 17:41:05</time>
      </trkpt>
      <trkpt lat="10.09322" lon="-84.18849">
        <ele>1454.2</ele>
        <time>2022-05-14 17:41:06</time>
      </trkpt>
      <trkpt lat="10.09314" lon="-84.1885">
        <ele>1453.6</ele>
        <time>2022-05-14 17:41:07</time>
      </trkpt>
      <trkpt lat="10.09305" lon="-84.18852">
        <ele>1452.8</ele>
        <time>2022-05-14 17:41:08</time>
      </trkpt>
      <trkpt lat="10.09295" lon="-84.18853">
        <ele>1451.8</ele>
        <time>2022-05-14 17:41:09</time>
      </trkpt>
      <trkpt lat="10.09286" lon="-84.18855">
        <ele>1450.8</ele>
        <time>2022-05-14 17:41:10</time>
      </trkpt>
      <trkpt lat="10.09276" lon="-84.18858">
        <ele>1449.4</ele>
        <time>2022-05-14 17:41:11</time>
      </trkpt>
      <trkpt lat="10.09265" lon="-84.18861">
        <ele>1447.8</ele>
        <time>2022-05-14 17:41:12</time>
      </trkpt>
      <trkpt lat="10.09253" lon="-84.18865">
        <ele>1446.4</ele>
        <time>2022-05-14 17:41:13</time>
      </trkpt>
      <trkpt lat="10.09253" lon="-84.18865">
        <ele>1444.8</ele>
        <time>2022-05-14 17:41:14</time>
      </trkpt>
      <trkpt lat="10.09253" lon="-84.18865">
        <ele>1443.4</ele>
        <time>2022-05-14 17:41:15</time>
      </trkpt>
      <trkpt lat="10.09217" lon="-84.1887">
        <ele>1441.8</ele>
        <time>2022-05-14 17:41:16</time>
      </trkpt>
      <trkpt lat="10.09205" lon="-84.18872">
        <ele>1440.2</ele>
        <time>2022-05-14 17:41:17</time>
      </trkpt>
      <trkpt lat="10.09192" lon="-84.18872">
        <ele>1438.8</ele>
        <time>2022-05-14 17:41:18</time>
      </trkpt>
      <trkpt lat="10.09179" lon="-84.18872">
        <ele>1437.4</ele>
        <time>2022-05-14 17:41:19</time>
      </trkpt>
      <trkpt lat="10.09166" lon="-84.1887">
        <ele>1436</ele>
        <time>2022-05-14 17:41:20</time>
      </trkpt>
      <trkpt lat="10.09153" lon="-84.18867">
        <ele>1434.6</ele>
        <time>2022-05-14 17:41:21</time>
      </trkpt>
      <trkpt lat="10.09139" lon="-84.18863">
        <ele>1433</ele>
        <time>2022-05-14 17:41:22</time>
      </trkpt>
      <trkpt lat="10.09126" lon="-84.18861">
        <ele>1431.8</ele>
        <time>2022-05-14 17:41:23</time>
      </trkpt>
      <trkpt lat="10.09112" lon="-84.18858">
        <ele>1430.4</ele>
        <time>2022-05-14 17:41:24</time>
      </trkpt>
      <trkpt lat="10.09112" lon="-84.18858">
        <ele>1429.2</ele>
        <time>2022-05-14 17:41:25</time>
      </trkpt>
      <trkpt lat="10.09112" lon="-84.18858">
        <ele>1427.6</ele>
        <time>2022-05-14 17:41:26</time>
      </trkpt>
      <trkpt lat="10.09068" lon="-84.18851">
        <ele>1427.6</ele>
        <time>2022-05-14 17:41:27</time>
      </trkpt>
      <trkpt lat="10.09053" lon="-84.18849">
        <ele>1425.8</ele>
        <time>2022-05-14 17:41:28</time>
      </trkpt>
      <trkpt lat="10.09037" lon="-84.18848">
        <ele>1424</ele>
        <time>2022-05-14 17:41:29</time>
      </trkpt>
      <trkpt lat="10.09022" lon="-84.18848">
        <ele>1422.2</ele>
        <time>2022-05-14 17:41:30</time>
      </trkpt>
      <trkpt lat="10.09006" lon="-84.18847">
        <ele>1420.8</ele>
        <time>2022-05-14 17:41:31</time>
      </trkpt>
      <trkpt lat="10.08991" lon="-84.18847">
        <ele>1419.6</ele>
        <time>2022-05-14 17:41:32</time>
      </trkpt>
      <trkpt lat="10.08976" lon="-84.18847">
        <ele>1418.4</ele>
        <time>2022-05-14 17:41:33</time>
      </trkpt>
      <trkpt lat="10.08961" lon="-84.18847">
        <ele>1417.2</ele>
        <time>2022-05-14 17:41:34</time>
      </trkpt>
      <trkpt lat="10.08961" lon="-84.18847">
        <ele>1416</ele>
        <time>2022-05-14 17:41:35</time>
      </trkpt>
      <trkpt lat="10.08961" lon="-84.18847">
        <ele>1415.2</ele>
        <time>2022-05-14 17:41:36</time>
      </trkpt>
      <trkpt lat="10.08917" lon="-84.18846">
        <ele>1414.6</ele>
        <time>2022-05-14 17:41:37</time>
      </trkpt>
      <trkpt lat="10.08902" lon="-84.18846">
        <ele>1414</ele>
        <time>2022-05-14 17:41:38</time>
      </trkpt>
      <trkpt lat="10.08889" lon="-84.18845">
        <ele>1413.2</ele>
        <time>2022-05-14 17:41:39</time>
      </trkpt>
      <trkpt lat="10.08875" lon="-84.18844">
        <ele>1412.6</ele>
        <time>2022-05-14 17:41:40</time>
      </trkpt>
      <trkpt lat="10.08861" lon="-84.18843">
        <ele>1411.8</ele>
        <time>2022-05-14 17:41:41</time>
      </trkpt>
      <trkpt lat="10.08848" lon="-84.18843">
        <ele>1411</ele>
        <time>2022-05-14 17:41:42</time>
      </trkpt>
      <trkpt lat="10.08834" lon="-84.18843">
        <ele>1410</ele>
        <time>2022-05-14 17:41:43</time>
      </trkpt>
      <trkpt lat="10.08821" lon="-84.18843">
        <ele>1409.4</ele>
        <time>2022-05-14 17:41:44</time>
      </trkpt>
      <trkpt lat="10.08807" lon="-84.18844">
        <ele>1408.4</ele>
        <time>2022-05-14 17:41:45</time>
      </trkpt>
      <trkpt lat="10.08807" lon="-84.18844">
        <ele>1407.4</ele>
        <time>2022-05-14 17:41:46</time>
      </trkpt>
      <trkpt lat="10.08807" lon="-84.18844">
        <ele>1406.4</ele>
        <time>2022-05-14 17:41:47</time>
      </trkpt>
      <trkpt lat="10.08768" lon="-84.18858">
        <ele>1406.4</ele>
        <time>2022-05-14 17:41:48</time>
      </trkpt>
      <trkpt lat="10.08757" lon="-84.18866">
        <ele>1405.6</ele>
        <time>2022-05-14 17:41:49</time>
      </trkpt>
      <trkpt lat="10.08745" lon="-84.18874">
        <ele>1404.4</ele>
        <time>2022-05-14 17:41:50</time>
      </trkpt>
      <trkpt lat="10.08734" lon="-84.18882">
        <ele>1403.2</ele>
        <time>2022-05-14 17:41:51</time>
      </trkpt>
      <trkpt lat="10.08723" lon="-84.1889">
        <ele>1402.2</ele>
        <time>2022-05-14 17:41:52</time>
      </trkpt>
      <trkpt lat="10.08712" lon="-84.18898">
        <ele>1401.4</ele>
        <time>2022-05-14 17:41:53</time>
      </trkpt>
      <trkpt lat="10.08702" lon="-84.18906">
        <ele>1400.8</ele>
        <time>2022-05-14 17:41:54</time>
      </trkpt>
      <trkpt lat="10.08692" lon="-84.18915">
        <ele>1400.2</ele>
        <time>2022-05-14 17:41:55</time>
      </trkpt>
      <trkpt lat="10.08692" lon="-84.18915">
        <ele>1399.6</ele>
        <time>2022-05-14 17:41:56</time>
      </trkpt>
      <trkpt lat="10.08673" lon="-84.18933">
        <ele>1399.2</ele>
        <time>2022-05-14 17:41:57</time>
      </trkpt>
      <trkpt lat="10.08664" lon="-84.18942">
        <ele>1398.8</ele>
        <time>2022-05-14 17:41:58</time>
      </trkpt>
      <trkpt lat="10.08656" lon="-84.18952">
        <ele>1398.4</ele>
        <time>2022-05-14 17:41:59</time>
      </trkpt>
      <trkpt lat="10.08649" lon="-84.18962">
        <ele>1397.8</ele>
        <time>2022-05-14 17:42:00</time>
      </trkpt>
      <trkpt lat="10.08642" lon="-84.18973">
        <ele>1397</ele>
        <time>2022-05-14 17:42:01</time>
      </trkpt>
      <trkpt lat="10.08634" lon="-84.18983">
        <ele>1396.4</ele>
        <time>2022-05-14 17:42:02</time>
      </trkpt>
      <trkpt lat="10.08627" lon="-84.18993">
        <ele>1395.4</ele>
        <time>2022-05-14 17:42:03</time>
      </trkpt>
      <trkpt lat="10.0862" lon="-84.19003">
        <ele>1394.6</ele>
        <time>2022-05-14 17:42:04</time>
      </trkpt>
      <trkpt lat="10.08612" lon="-84.19013">
        <ele>1393.8</ele>
        <time>2022-05-14 17:42:05</time>
      </trkpt>
      <trkpt lat="10.08603" lon="-84.19023">
        <ele>1392.8</ele>
        <time>2022-05-14 17:42:06</time>
      </trkpt>
      <trkpt lat="10.08603" lon="-84.19023">
        <ele>1392</ele>
        <time>2022-05-14 17:42:07</time>
      </trkpt>
      <trkpt lat="10.08584" lon="-84.19042">
        <ele>1390.8</ele>
        <time>2022-05-14 17:42:08</time>
      </trkpt>
      <trkpt lat="10.08571" lon="-84.19047">
        <ele>1390.8</ele>
        <time>2022-05-14 17:42:09</time>
      </trkpt>
      <trkpt lat="10.08558" lon="-84.19054">
        <ele>1389.4</ele>
        <time>2022-05-14 17:42:10</time>
      </trkpt>
      <trkpt lat="10.08545" lon="-84.19058">
        <ele>1387.6</ele>
        <time>2022-05-14 17:42:11</time>
      </trkpt>
      <trkpt lat="10.08531" lon="-84.1906">
        <ele>1386.2</ele>
        <time>2022-05-14 17:42:12</time>
      </trkpt>
      <trkpt lat="10.08517" lon="-84.19061">
        <ele>1384.8</ele>
        <time>2022-05-14 17:42:13</time>
      </trkpt>
      <trkpt lat="10.08503" lon="-84.1906">
        <ele>1383.8</ele>
        <time>2022-05-14 17:42:14</time>
      </trkpt>
      <trkpt lat="10.08489" lon="-84.19058">
        <ele>1383</ele>
        <time>2022-05-14 17:42:15</time>
      </trkpt>
      <trkpt lat="10.08489" lon="-84.19058">
        <ele>1382.2</ele>
        <time>2022-05-14 17:42:16</time>
      </trkpt>
      <trkpt lat="10.08489" lon="-84.19058">
        <ele>1381.4</ele>
        <time>2022-05-14 17:42:17</time>
      </trkpt>
      <trkpt lat="10.08449" lon="-84.19047">
        <ele>1380.8</ele>
        <time>2022-05-14 17:42:18</time>
      </trkpt>
      <trkpt lat="10.08436" lon="-84.19043">
        <ele>1380.2</ele>
        <time>2022-05-14 17:42:19</time>
      </trkpt>
      <trkpt lat="10.08423" lon="-84.1904">
        <ele>1379.8</ele>
        <time>2022-05-14 17:42:20</time>
      </trkpt>
      <trkpt lat="10.0841" lon="-84.19036">
        <ele>1379.6</ele>
        <time>2022-05-14 17:42:21</time>
      </trkpt>
      <trkpt lat="10.08397" lon="-84.19033">
        <ele>1379.4</ele>
        <time>2022-05-14 17:42:22</time>
      </trkpt>
      <trkpt lat="10.08385" lon="-84.19031">
        <ele>1379.2</ele>
        <time>2022-05-14 17:42:23</time>
      </trkpt>
      <trkpt lat="10.08372" lon="-84.19029">
        <ele>1379</ele>
        <time>2022-05-14 17:42:24</time>
      </trkpt>
      <trkpt lat="10.0836" lon="-84.19029">
        <ele>1379</ele>
        <time>2022-05-14 17:42:25</time>
      </trkpt>
      <trkpt lat="10.08348" lon="-84.19029">
        <ele>1378.8</ele>
        <time>2022-05-14 17:42:26</time>
      </trkpt>
      <trkpt lat="10.08348" lon="-84.19029">
        <ele>1378.8</ele>
        <time>2022-05-14 17:42:27</time>
      </trkpt>
      <trkpt lat="10.08348" lon="-84.19029">
        <ele>1378.6</ele>
        <time>2022-05-14 17:42:28</time>
      </trkpt>
      <trkpt lat="10.08315" lon="-84.19031">
        <ele>1378</ele>
        <time>2022-05-14 17:42:29</time>
      </trkpt>
      <trkpt lat="10.08304" lon="-84.19032">
        <ele>1378</ele>
        <time>2022-05-14 17:42:30</time>
      </trkpt>
      <trkpt lat="10.08294" lon="-84.19034">
        <ele>1377.6</ele>
        <time>2022-05-14 17:42:31</time>
      </trkpt>
      <trkpt lat="10.08284" lon="-84.19035">
        <ele>1377.2</ele>
        <time>2022-05-14 17:42:32</time>
      </trkpt>
      <trkpt lat="10.08274" lon="-84.19037">
        <ele>1377.2</ele>
        <time>2022-05-14 17:42:33</time>
      </trkpt>
      <trkpt lat="10.08265" lon="-84.19038">
        <ele>1377.4</ele>
        <time>2022-05-14 17:42:34</time>
      </trkpt>
      <trkpt lat="10.08255" lon="-84.19041">
        <ele>1377.4</ele>
        <time>2022-05-14 17:42:35</time>
      </trkpt>
      <trkpt lat="10.08245" lon="-84.19042">
        <ele>1377.2</ele>
        <time>2022-05-14 17:42:36</time>
      </trkpt>
      <trkpt lat="10.08245" lon="-84.19042">
        <ele>1376.6</ele>
        <time>2022-05-14 17:42:37</time>
      </trkpt>
      <trkpt lat="10.08226" lon="-84.19047">
        <ele>1376.2</ele>
        <time>2022-05-14 17:42:38</time>
      </trkpt>
      <trkpt lat="10.08217" lon="-84.19051">
        <ele>1376</ele>
        <time>2022-05-14 17:42:39</time>
      </trkpt>
      <trkpt lat="10.08208" lon="-84.19056">
        <ele>1376</ele>
        <time>2022-05-14 17:42:40</time>
      </trkpt>
      <trkpt lat="10.082" lon="-84.19062">
        <ele>1375.8</ele>
        <time>2022-05-14 17:42:41</time>
      </trkpt>
      <trkpt lat="10.08193" lon="-84.19067">
        <ele>1375.6</ele>
        <time>2022-05-14 17:42:42</time>
      </trkpt>
      <trkpt lat="10.08185" lon="-84.19073">
        <ele>1375.2</ele>
        <time>2022-05-14 17:42:43</time>
      </trkpt>
      <trkpt lat="10.08177" lon="-84.1908">
        <ele>1374.6</ele>
        <time>2022-05-14 17:42:44</time>
      </trkpt>
      <trkpt lat="10.0817" lon="-84.19087">
        <ele>1374</ele>
        <time>2022-05-14 17:42:45</time>
      </trkpt>
      <trkpt lat="10.08163" lon="-84.19093">
        <ele>1373.4</ele>
        <time>2022-05-14 17:42:46</time>
      </trkpt>
      <trkpt lat="10.08155" lon="-84.191">
        <ele>1373.2</ele>
        <time>2022-05-14 17:42:47</time>
      </trkpt>
      <trkpt lat="10.08155" lon="-84.191">
        <ele>1372.6</ele>
        <time>2022-05-14 17:42:48</time>
      </trkpt>
      <trkpt lat="10.0814" lon="-84.19115">
        <ele>1372</ele>
        <time>2022-05-14 17:42:49</time>
      </trkpt>
      <trkpt lat="10.08132" lon="-84.19123">
        <ele>1371</ele>
        <time>2022-05-14 17:42:50</time>
      </trkpt>
      <trkpt lat="10.08125" lon="-84.19132">
        <ele>1371</ele>
        <time>2022-05-14 17:42:51</time>
      </trkpt>
      <trkpt lat="10.08117" lon="-84.1914">
        <ele>1370</ele>
        <time>2022-05-14 17:42:52</time>
      </trkpt>
      <trkpt lat="10.08109" lon="-84.19149">
        <ele>1369.2</ele>
        <time>2022-05-14 17:42:53</time>
      </trkpt>
      <trkpt lat="10.08101" lon="-84.19158">
        <ele>1368.2</ele>
        <time>2022-05-14 17:42:54</time>
      </trkpt>
      <trkpt lat="10.08093" lon="-84.19167">
        <ele>1367.2</ele>
        <time>2022-05-14 17:42:55</time>
      </trkpt>
      <trkpt lat="10.08085" lon="-84.19176">
        <ele>1366.2</ele>
        <time>2022-05-14 17:42:56</time>
      </trkpt>
      <trkpt lat="10.08076" lon="-84.19184">
        <ele>1365.2</ele>
        <time>2022-05-14 17:42:57</time>
      </trkpt>
      <trkpt lat="10.08076" lon="-84.19184">
        <ele>1364.4</ele>
        <time>2022-05-14 17:42:58</time>
      </trkpt>
      <trkpt lat="10.08057" lon="-84.19198">
        <ele>1363.4</ele>
        <time>2022-05-14 17:42:59</time>
      </trkpt>
      <trkpt lat="10.08047" lon="-84.19204">
        <ele>1362.2</ele>
        <time>2022-05-14 17:43:00</time>
      </trkpt>
      <trkpt lat="10.08036" lon="-84.1921">
        <ele>1360.8</ele>
        <time>2022-05-14 17:43:01</time>
      </trkpt>
      <trkpt lat="10.08025" lon="-84.19215">
        <ele>1359.6</ele>
        <time>2022-05-14 17:43:02</time>
      </trkpt>
      <trkpt lat="10.08014" lon="-84.1922">
        <ele>1358.2</ele>
        <time>2022-05-14 17:43:03</time>
      </trkpt>
      <trkpt lat="10.08002" lon="-84.19226">
        <ele>1356.8</ele>
        <time>2022-05-14 17:43:04</time>
      </trkpt>
      <trkpt lat="10.0799" lon="-84.1923">
        <ele>1355.2</ele>
        <time>2022-05-14 17:43:05</time>
      </trkpt>
      <trkpt lat="10.07978" lon="-84.19236">
        <ele>1353.8</ele>
        <time>2022-05-14 17:43:06</time>
      </trkpt>
      <trkpt lat="10.07966" lon="-84.19241">
        <ele>1352.4</ele>
        <time>2022-05-14 17:43:07</time>
      </trkpt>
      <trkpt lat="10.07966" lon="-84.19241">
        <ele>1351.2</ele>
        <time>2022-05-14 17:43:08</time>
      </trkpt>
      <trkpt lat="10.07966" lon="-84.19241">
        <ele>1350</ele>
        <time>2022-05-14 17:43:09</time>
      </trkpt>
      <trkpt lat="10.07928" lon="-84.19257">
        <ele>1349</ele>
        <time>2022-05-14 17:43:10</time>
      </trkpt>
      <trkpt lat="10.07915" lon="-84.1926">
        <ele>1347.8</ele>
        <time>2022-05-14 17:43:11</time>
      </trkpt>
      <trkpt lat="10.07902" lon="-84.19261">
        <ele>1347.8</ele>
        <time>2022-05-14 17:43:12</time>
      </trkpt>
      <trkpt lat="10.07889" lon="-84.19263">
        <ele>1346.6</ele>
        <time>2022-05-14 17:43:13</time>
      </trkpt>
      <trkpt lat="10.07875" lon="-84.19264">
        <ele>1345.6</ele>
        <time>2022-05-14 17:43:14</time>
      </trkpt>
      <trkpt lat="10.07862" lon="-84.19264">
        <ele>1344.6</ele>
        <time>2022-05-14 17:43:15</time>
      </trkpt>
      <trkpt lat="10.07849" lon="-84.19264">
        <ele>1343.4</ele>
        <time>2022-05-14 17:43:16</time>
      </trkpt>
      <trkpt lat="10.07835" lon="-84.19265">
        <ele>1342.4</ele>
        <time>2022-05-14 17:43:17</time>
      </trkpt>
      <trkpt lat="10.07835" lon="-84.19265">
        <ele>1341.4</ele>
        <time>2022-05-14 17:43:18</time>
      </trkpt>
      <trkpt lat="10.07835" lon="-84.19265">
        <ele>1340.4</ele>
        <time>2022-05-14 17:43:19</time>
      </trkpt>
      <trkpt lat="10.07796" lon="-84.1927">
        <ele>1339.6</ele>
        <time>2022-05-14 17:43:20</time>
      </trkpt>
      <trkpt lat="10.07784" lon="-84.19275">
        <ele>1339</ele>
        <time>2022-05-14 17:43:21</time>
      </trkpt>
      <trkpt lat="10.07772" lon="-84.1928">
        <ele>1338.4</ele>
        <time>2022-05-14 17:43:22</time>
      </trkpt>
      <trkpt lat="10.07761" lon="-84.19286">
        <ele>1337.6</ele>
        <time>2022-05-14 17:43:23</time>
      </trkpt>
      <trkpt lat="10.07749" lon="-84.19292">
        <ele>1336.8</ele>
        <time>2022-05-14 17:43:24</time>
      </trkpt>
      <trkpt lat="10.07738" lon="-84.19297">
        <ele>1336</ele>
        <time>2022-05-14 17:43:25</time>
      </trkpt>
      <trkpt lat="10.07727" lon="-84.19302">
        <ele>1335.2</ele>
        <time>2022-05-14 17:43:26</time>
      </trkpt>
      <trkpt lat="10.07716" lon="-84.19308">
        <ele>1334.2</ele>
        <time>2022-05-14 17:43:27</time>
      </trkpt>
      <trkpt lat="10.07705" lon="-84.19312">
        <ele>1333.6</ele>
        <time>2022-05-14 17:43:28</time>
      </trkpt>
      <trkpt lat="10.07705" lon="-84.19312">
        <ele>1333</ele>
        <time>2022-05-14 17:43:29</time>
      </trkpt>
      <trkpt lat="10.07705" lon="-84.19312">
        <ele>1332</ele>
        <time>2022-05-14 17:43:30</time>
      </trkpt>
      <trkpt lat="10.07675" lon="-84.19327">
        <ele>1331</ele>
        <time>2022-05-14 17:43:31</time>
      </trkpt>
      <trkpt lat="10.07666" lon="-84.19331">
        <ele>1330.4</ele>
        <time>2022-05-14 17:43:32</time>
      </trkpt>
      <trkpt lat="10.07657" lon="-84.19337">
        <ele>1330.4</ele>
        <time>2022-05-14 17:43:33</time>
      </trkpt>
      <trkpt lat="10.07647" lon="-84.1934">
        <ele>1329.8</ele>
        <time>2022-05-14 17:43:34</time>
      </trkpt>
      <trkpt lat="10.07638" lon="-84.19344">
        <ele>1329.2</ele>
        <time>2022-05-14 17:43:35</time>
      </trkpt>
      <trkpt lat="10.07628" lon="-84.19347">
        <ele>1328.6</ele>
        <time>2022-05-14 17:43:36</time>
      </trkpt>
      <trkpt lat="10.07619" lon="-84.19351">
        <ele>1328.2</ele>
        <time>2022-05-14 17:43:37</time>
      </trkpt>
      <trkpt lat="10.07609" lon="-84.19355">
        <ele>1328</ele>
        <time>2022-05-14 17:43:38</time>
      </trkpt>
      <trkpt lat="10.07609" lon="-84.19355">
        <ele>1327.6</ele>
        <time>2022-05-14 17:43:39</time>
      </trkpt>
      <trkpt lat="10.07592" lon="-84.19361">
        <ele>1327.2</ele>
        <time>2022-05-14 17:43:40</time>
      </trkpt>
      <trkpt lat="10.07583" lon="-84.19364">
        <ele>1326.8</ele>
        <time>2022-05-14 17:43:41</time>
      </trkpt>
      <trkpt lat="10.07575" lon="-84.19367">
        <ele>1326.4</ele>
        <time>2022-05-14 17:43:42</time>
      </trkpt>
      <trkpt lat="10.07567" lon="-84.1937">
        <ele>1326</ele>
        <time>2022-05-14 17:43:43</time>
      </trkpt>
      <trkpt lat="10.0756" lon="-84.19373">
        <ele>1325.6</ele>
        <time>2022-05-14 17:43:44</time>
      </trkpt>
      <trkpt lat="10.07553" lon="-84.19376">
        <ele>1325.4</ele>
        <time>2022-05-14 17:43:45</time>
      </trkpt>
      <trkpt lat="10.07546" lon="-84.19378">
        <ele>1325</ele>
        <time>2022-05-14 17:43:46</time>
      </trkpt>
      <trkpt lat="10.07539" lon="-84.1938">
        <ele>1324.6</ele>
        <time>2022-05-14 17:43:47</time>
      </trkpt>
      <trkpt lat="10.07534" lon="-84.19382">
        <ele>1324.2</ele>
        <time>2022-05-14 17:43:48</time>
      </trkpt>
      <trkpt lat="10.07528" lon="-84.19385">
        <ele>1324</ele>
        <time>2022-05-14 17:43:49</time>
      </trkpt>
      <trkpt lat="10.07528" lon="-84.19385">
        <ele>1323.8</ele>
        <time>2022-05-14 17:43:50</time>
      </trkpt>
      <trkpt lat="10.07516" lon="-84.1939">
        <ele>1323.6</ele>
        <time>2022-05-14 17:43:51</time>
      </trkpt>
      <trkpt lat="10.07511" lon="-84.19392">
        <ele>1323.4</ele>
        <time>2022-05-14 17:43:52</time>
      </trkpt>
      <trkpt lat="10.07504" lon="-84.19394">
        <ele>1323</ele>
        <time>2022-05-14 17:43:53</time>
      </trkpt>
      <trkpt lat="10.07498" lon="-84.19396">
        <ele>1323</ele>
        <time>2022-05-14 17:43:54</time>
      </trkpt>
      <trkpt lat="10.07491" lon="-84.19398">
        <ele>1322.8</ele>
        <time>2022-05-14 17:43:55</time>
      </trkpt>
      <trkpt lat="10.07485" lon="-84.194">
        <ele>1322.4</ele>
        <time>2022-05-14 17:43:56</time>
      </trkpt>
      <trkpt lat="10.07478" lon="-84.19402">
        <ele>1322.4</ele>
        <time>2022-05-14 17:43:57</time>
      </trkpt>
      <trkpt lat="10.07472" lon="-84.19402">
        <ele>1322</ele>
        <time>2022-05-14 17:43:58</time>
      </trkpt>
      <trkpt lat="10.07472" lon="-84.19402">
        <ele>1321.8</ele>
        <time>2022-05-14 17:43:59</time>
      </trkpt>
      <trkpt lat="10.07472" lon="-84.19402">
        <ele>1321.8</ele>
        <time>2022-05-14 17:44:00</time>
      </trkpt>
      <trkpt lat="10.07451" lon="-84.19403">
        <ele>1321.6</ele>
        <time>2022-05-14 17:44:01</time>
      </trkpt>
      <trkpt lat="10.07443" lon="-84.19402">
        <ele>1321.6</ele>
        <time>2022-05-14 17:44:02</time>
      </trkpt>
      <trkpt lat="10.07436" lon="-84.19402">
        <ele>1321.4</ele>
        <time>2022-05-14 17:44:03</time>
      </trkpt>
      <trkpt lat="10.07428" lon="-84.19401">
        <ele>1321.4</ele>
        <time>2022-05-14 17:44:04</time>
      </trkpt>
      <trkpt lat="10.07421" lon="-84.19401">
        <ele>1321.2</ele>
        <time>2022-05-14 17:44:05</time>
      </trkpt>
      <trkpt lat="10.07413" lon="-84.194">
        <ele>1321</ele>
        <time>2022-05-14 17:44:06</time>
      </trkpt>
      <trkpt lat="10.07405" lon="-84.19398">
        <ele>1320.8</ele>
        <time>2022-05-14 17:44:07</time>
      </trkpt>
      <trkpt lat="10.07397" lon="-84.19397">
        <ele>1320.8</ele>
        <time>2022-05-14 17:44:08</time>
      </trkpt>
      <trkpt lat="10.07389" lon="-84.19395">
        <ele>1320.8</ele>
        <time>2022-05-14 17:44:09</time>
      </trkpt>
      <trkpt lat="10.07389" lon="-84.19395">
        <ele>1320.6</ele>
        <time>2022-05-14 17:44:10</time>
      </trkpt>
      <trkpt lat="10.07389" lon="-84.19395">
        <ele>1320.2</ele>
        <time>2022-05-14 17:44:11</time>
      </trkpt>
      <trkpt lat="10.07364" lon="-84.19389">
        <ele>1319.8</ele>
        <time>2022-05-14 17:44:12</time>
      </trkpt>
      <trkpt lat="10.07355" lon="-84.19387">
        <ele>1319.4</ele>
        <time>2022-05-14 17:44:13</time>
      </trkpt>
      <trkpt lat="10.07346" lon="-84.19385">
        <ele>1319.2</ele>
        <time>2022-05-14 17:44:14</time>
      </trkpt>
      <trkpt lat="10.07337" lon="-84.19382">
        <ele>1319.2</ele>
        <time>2022-05-14 17:44:15</time>
      </trkpt>
      <trkpt lat="10.07328" lon="-84.1938">
        <ele>1319</ele>
        <time>2022-05-14 17:44:16</time>
      </trkpt>
      <trkpt lat="10.07319" lon="-84.19378">
        <ele>1318.8</ele>
        <time>2022-05-14 17:44:17</time>
      </trkpt>
      <trkpt lat="10.0731" lon="-84.19376">
        <ele>1318.4</ele>
        <time>2022-05-14 17:44:18</time>
      </trkpt>
      <trkpt lat="10.07301" lon="-84.19373">
        <ele>1318.2</ele>
        <time>2022-05-14 17:44:19</time>
      </trkpt>
      <trkpt lat="10.07301" lon="-84.19373">
        <ele>1318</ele>
        <time>2022-05-14 17:44:20</time>
      </trkpt>
      <trkpt lat="10.07283" lon="-84.19369">
        <ele>1317.6</ele>
        <time>2022-05-14 17:44:21</time>
      </trkpt>
      <trkpt lat="10.07273" lon="-84.19367">
        <ele>1317.2</ele>
        <time>2022-05-14 17:44:22</time>
      </trkpt>
      <trkpt lat="10.07264" lon="-84.19364">
        <ele>1316.8</ele>
        <time>2022-05-14 17:44:23</time>
      </trkpt>
      <trkpt lat="10.07255" lon="-84.19362">
        <ele>1316.8</ele>
        <time>2022-05-14 17:44:24</time>
      </trkpt>
      <trkpt lat="10.07246" lon="-84.19359">
        <ele>1316.4</ele>
        <time>2022-05-14 17:44:25</time>
      </trkpt>
      <trkpt lat="10.07237" lon="-84.19356">
        <ele>1316</ele>
        <time>2022-05-14 17:44:26</time>
      </trkpt>
      <trkpt lat="10.07228" lon="-84.19355">
        <ele>1315.4</ele>
        <time>2022-05-14 17:44:27</time>
      </trkpt>
      <trkpt lat="10.07219" lon="-84.19353">
        <ele>1315</ele>
        <time>2022-05-14 17:44:28</time>
      </trkpt>
      <trkpt lat="10.07209" lon="-84.19349">
        <ele>1314.4</ele>
        <time>2022-05-14 17:44:29</time>
      </trkpt>
      <trkpt lat="10.072" lon="-84.19347">
        <ele>1313.6</ele>
        <time>2022-05-14 17:44:30</time>
      </trkpt>
      <trkpt lat="10.072" lon="-84.19347">
        <ele>1313</ele>
        <time>2022-05-14 17:44:31</time>
      </trkpt>
      <trkpt lat="10.0718" lon="-84.19343">
        <ele>1312.4</ele>
        <time>2022-05-14 17:44:32</time>
      </trkpt>
      <trkpt lat="10.07171" lon="-84.1934">
        <ele>1311.6</ele>
        <time>2022-05-14 17:44:33</time>
      </trkpt>
      <trkpt lat="10.07161" lon="-84.19338">
        <ele>1310.8</ele>
        <time>2022-05-14 17:44:34</time>
      </trkpt>
      <trkpt lat="10.07151" lon="-84.19336">
        <ele>1310.4</ele>
        <time>2022-05-14 17:44:35</time>
      </trkpt>
      <trkpt lat="10.0714" lon="-84.19333">
        <ele>1310.4</ele>
        <time>2022-05-14 17:44:36</time>
      </trkpt>
      <trkpt lat="10.0713" lon="-84.19332">
        <ele>1309.6</ele>
        <time>2022-05-14 17:44:37</time>
      </trkpt>
      <trkpt lat="10.07119" lon="-84.19331">
        <ele>1309</ele>
        <time>2022-05-14 17:44:38</time>
      </trkpt>
      <trkpt lat="10.07108" lon="-84.19329">
        <ele>1308</ele>
        <time>2022-05-14 17:44:39</time>
      </trkpt>
      <trkpt lat="10.07098" lon="-84.19327">
        <ele>1307.4</ele>
        <time>2022-05-14 17:44:40</time>
      </trkpt>
      <trkpt lat="10.07098" lon="-84.19327">
        <ele>1306.6</ele>
        <time>2022-05-14 17:44:41</time>
      </trkpt>
      <trkpt lat="10.07076" lon="-84.19325">
        <ele>1305.8</ele>
        <time>2022-05-14 17:44:42</time>
      </trkpt>
      <trkpt lat="10.07065" lon="-84.19324">
        <ele>1305.2</ele>
        <time>2022-05-14 17:44:43</time>
      </trkpt>
      <trkpt lat="10.07055" lon="-84.19323">
        <ele>1304.4</ele>
        <time>2022-05-14 17:44:44</time>
      </trkpt>
      <trkpt lat="10.07044" lon="-84.19322">
        <ele>1303.6</ele>
        <time>2022-05-14 17:44:45</time>
      </trkpt>
      <trkpt lat="10.07033" lon="-84.19321">
        <ele>1303</ele>
        <time>2022-05-14 17:44:46</time>
      </trkpt>
      <trkpt lat="10.07023" lon="-84.1932">
        <ele>1302.4</ele>
        <time>2022-05-14 17:44:47</time>
      </trkpt>
      <trkpt lat="10.07012" lon="-84.19318">
        <ele>1302.2</ele>
        <time>2022-05-14 17:44:48</time>
      </trkpt>
      <trkpt lat="10.07002" lon="-84.19318">
        <ele>1301.8</ele>
        <time>2022-05-14 17:44:49</time>
      </trkpt>
      <trkpt lat="10.06991" lon="-84.19316">
        <ele>1301.4</ele>
        <time>2022-05-14 17:44:50</time>
      </trkpt>
      <trkpt lat="10.0698" lon="-84.19315">
        <ele>1300.8</ele>
        <time>2022-05-14 17:44:51</time>
      </trkpt>
      <trkpt lat="10.0698" lon="-84.19315">
        <ele>1300.4</ele>
        <time>2022-05-14 17:44:52</time>
      </trkpt>
      <trkpt lat="10.06959" lon="-84.19314">
        <ele>1299.6</ele>
        <time>2022-05-14 17:44:53</time>
      </trkpt>
      <trkpt lat="10.06949" lon="-84.19312">
        <ele>1299.2</ele>
        <time>2022-05-14 17:44:54</time>
      </trkpt>
      <trkpt lat="10.06938" lon="-84.19311">
        <ele>1298.8</ele>
        <time>2022-05-14 17:44:55</time>
      </trkpt>
      <trkpt lat="10.06928" lon="-84.19311">
        <ele>1298.4</ele>
        <time>2022-05-14 17:44:56</time>
      </trkpt>
      <trkpt lat="10.06917" lon="-84.1931">
        <ele>1298.4</ele>
        <time>2022-05-14 17:44:57</time>
      </trkpt>
      <trkpt lat="10.06907" lon="-84.19309">
        <ele>1298</ele>
        <time>2022-05-14 17:44:58</time>
      </trkpt>
      <trkpt lat="10.06896" lon="-84.1931">
        <ele>1297.2</ele>
        <time>2022-05-14 17:44:59</time>
      </trkpt>
      <trkpt lat="10.06885" lon="-84.19312">
        <ele>1296.8</ele>
        <time>2022-05-14 17:45:00</time>
      </trkpt>
      <trkpt lat="10.06885" lon="-84.19312">
        <ele>1296</ele>
        <time>2022-05-14 17:45:01</time>
      </trkpt>
      <trkpt lat="10.06885" lon="-84.19312">
        <ele>1295</ele>
        <time>2022-05-14 17:45:02</time>
      </trkpt>
      <trkpt lat="10.06853" lon="-84.19323">
        <ele>1294.2</ele>
        <time>2022-05-14 17:45:03</time>
      </trkpt>
      <trkpt lat="10.06842" lon="-84.19327">
        <ele>1293</ele>
        <time>2022-05-14 17:45:04</time>
      </trkpt>
      <trkpt lat="10.06831" lon="-84.19331">
        <ele>1292</ele>
        <time>2022-05-14 17:45:05</time>
      </trkpt>
      <trkpt lat="10.0682" lon="-84.19335">
        <ele>1291</ele>
        <time>2022-05-14 17:45:06</time>
      </trkpt>
      <trkpt lat="10.06809" lon="-84.1934">
        <ele>1290.4</ele>
        <time>2022-05-14 17:45:07</time>
      </trkpt>
      <trkpt lat="10.06798" lon="-84.19344">
        <ele>1290</ele>
        <time>2022-05-14 17:45:08</time>
      </trkpt>
      <trkpt lat="10.06787" lon="-84.19349">
        <ele>1289.2</ele>
        <time>2022-05-14 17:45:09</time>
      </trkpt>
      <trkpt lat="10.06775" lon="-84.19353">
        <ele>1288.4</ele>
        <time>2022-05-14 17:45:10</time>
      </trkpt>
      <trkpt lat="10.06764" lon="-84.19359">
        <ele>1287.6</ele>
        <time>2022-05-14 17:45:11</time>
      </trkpt>
      <trkpt lat="10.06764" lon="-84.19359">
        <ele>1286.8</ele>
        <time>2022-05-14 17:45:12</time>
      </trkpt>
      <trkpt lat="10.06764" lon="-84.19359">
        <ele>1286</ele>
        <time>2022-05-14 17:45:13</time>
      </trkpt>
      <trkpt lat="10.0673" lon="-84.19372">
        <ele>1285.2</ele>
        <time>2022-05-14 17:45:14</time>
      </trkpt>
      <trkpt lat="10.06718" lon="-84.19378">
        <ele>1284.2</ele>
        <time>2022-05-14 17:45:15</time>
      </trkpt>
      <trkpt lat="10.06708" lon="-84.19384">
        <ele>1283.6</ele>
        <time>2022-05-14 17:45:16</time>
      </trkpt>
      <trkpt lat="10.06697" lon="-84.19392">
        <ele>1282.8</ele>
        <time>2022-05-14 17:45:17</time>
      </trkpt>
      <trkpt lat="10.06688" lon="-84.19399">
        <ele>1282.8</ele>
        <time>2022-05-14 17:45:18</time>
      </trkpt>
      <trkpt lat="10.06678" lon="-84.19407">
        <ele>1282</ele>
        <time>2022-05-14 17:45:19</time>
      </trkpt>
      <trkpt lat="10.06669" lon="-84.19415">
        <ele>1281.2</ele>
        <time>2022-05-14 17:45:20</time>
      </trkpt>
      <trkpt lat="10.06659" lon="-84.19423">
        <ele>1280.4</ele>
        <time>2022-05-14 17:45:21</time>
      </trkpt>
      <trkpt lat="10.06659" lon="-84.19423">
        <ele>1279.8</ele>
        <time>2022-05-14 17:45:22</time>
      </trkpt>
      <trkpt lat="10.06641" lon="-84.1944">
        <ele>1279</ele>
        <time>2022-05-14 17:45:23</time>
      </trkpt>
      <trkpt lat="10.06631" lon="-84.19447">
        <ele>1278.4</ele>
        <time>2022-05-14 17:45:24</time>
      </trkpt>
      <trkpt lat="10.06622" lon="-84.19456">
        <ele>1277.8</ele>
        <time>2022-05-14 17:45:25</time>
      </trkpt>
      <trkpt lat="10.06613" lon="-84.19463">
        <ele>1277</ele>
        <time>2022-05-14 17:45:26</time>
      </trkpt>
      <trkpt lat="10.06604" lon="-84.19472">
        <ele>1276.2</ele>
        <time>2022-05-14 17:45:27</time>
      </trkpt>
      <trkpt lat="10.06594" lon="-84.1948">
        <ele>1275.4</ele>
        <time>2022-05-14 17:45:28</time>
      </trkpt>
      <trkpt lat="10.06585" lon="-84.19488">
        <ele>1275</ele>
        <time>2022-05-14 17:45:29</time>
      </trkpt>
      <trkpt lat="10.06576" lon="-84.19496">
        <ele>1274.8</ele>
        <time>2022-05-14 17:45:30</time>
      </trkpt>
      <trkpt lat="10.06567" lon="-84.19505">
        <ele>1274.2</ele>
        <time>2022-05-14 17:45:31</time>
      </trkpt>
      <trkpt lat="10.06558" lon="-84.19512">
        <ele>1273.8</ele>
        <time>2022-05-14 17:45:32</time>
      </trkpt>
      <trkpt lat="10.06558" lon="-84.19512">
        <ele>1273.4</ele>
        <time>2022-05-14 17:45:33</time>
      </trkpt>
      <trkpt lat="10.06542" lon="-84.19526">
        <ele>1273</ele>
        <time>2022-05-14 17:45:34</time>
      </trkpt>
      <trkpt lat="10.06534" lon="-84.19533">
        <ele>1272.6</ele>
        <time>2022-05-14 17:45:35</time>
      </trkpt>
      <trkpt lat="10.06527" lon="-84.19539">
        <ele>1272.2</ele>
        <time>2022-05-14 17:45:36</time>
      </trkpt>
      <trkpt lat="10.0652" lon="-84.19545">
        <ele>1271.8</ele>
        <time>2022-05-14 17:45:37</time>
      </trkpt>
      <trkpt lat="10.06514" lon="-84.1955">
        <ele>1271.4</ele>
        <time>2022-05-14 17:45:38</time>
      </trkpt>
      <trkpt lat="10.06507" lon="-84.19555">
        <ele>1271.4</ele>
        <time>2022-05-14 17:45:39</time>
      </trkpt>
      <trkpt lat="10.06501" lon="-84.19561">
        <ele>1271.2</ele>
        <time>2022-05-14 17:45:40</time>
      </trkpt>
      <trkpt lat="10.06495" lon="-84.19566">
        <ele>1270.8</ele>
        <time>2022-05-14 17:45:41</time>
      </trkpt>
      <trkpt lat="10.06495" lon="-84.19566">
        <ele>1270.8</ele>
        <time>2022-05-14 17:45:42</time>
      </trkpt>
      <trkpt lat="10.06495" lon="-84.19566">
        <ele>1270.8</ele>
        <time>2022-05-14 17:45:43</time>
      </trkpt>
      <trkpt lat="10.06478" lon="-84.19582">
        <ele>1270.4</ele>
        <time>2022-05-14 17:45:44</time>
      </trkpt>
      <trkpt lat="10.06471" lon="-84.19587">
        <ele>1270</ele>
        <time>2022-05-14 17:45:45</time>
      </trkpt>
      <trkpt lat="10.06465" lon="-84.19592">
        <ele>1269.6</ele>
        <time>2022-05-14 17:45:46</time>
      </trkpt>
      <trkpt lat="10.0646" lon="-84.19598">
        <ele>1269.6</ele>
        <time>2022-05-14 17:45:47</time>
      </trkpt>
      <trkpt lat="10.06454" lon="-84.19604">
        <ele>1269.6</ele>
        <time>2022-05-14 17:45:48</time>
      </trkpt>
      <trkpt lat="10.06448" lon="-84.19611">
        <ele>1269.2</ele>
        <time>2022-05-14 17:45:49</time>
      </trkpt>
      <trkpt lat="10.06442" lon="-84.19617">
        <ele>1269</ele>
        <time>2022-05-14 17:45:50</time>
      </trkpt>
      <trkpt lat="10.06435" lon="-84.19623">
        <ele>1268.8</ele>
        <time>2022-05-14 17:45:51</time>
      </trkpt>
      <trkpt lat="10.06429" lon="-84.19628">
        <ele>1268.8</ele>
        <time>2022-05-14 17:45:52</time>
      </trkpt>
      <trkpt lat="10.06429" lon="-84.19628">
        <ele>1268.6</ele>
        <time>2022-05-14 17:45:53</time>
      </trkpt>
      <trkpt lat="10.06429" lon="-84.19628">
        <ele>1268.6</ele>
        <time>2022-05-14 17:45:54</time>
      </trkpt>
      <trkpt lat="10.06409" lon="-84.19646">
        <ele>1268.4</ele>
        <time>2022-05-14 17:45:55</time>
      </trkpt>
      <trkpt lat="10.06403" lon="-84.19651">
        <ele>1268.2</ele>
        <time>2022-05-14 17:45:56</time>
      </trkpt>
      <trkpt lat="10.06397" lon="-84.19657">
        <ele>1267.8</ele>
        <time>2022-05-14 17:45:57</time>
      </trkpt>
      <trkpt lat="10.0639" lon="-84.19663">
        <ele>1267.8</ele>
        <time>2022-05-14 17:45:58</time>
      </trkpt>
      <trkpt lat="10.06383" lon="-84.19669">
        <ele>1267.6</ele>
        <time>2022-05-14 17:45:59</time>
      </trkpt>
      <trkpt lat="10.06376" lon="-84.19675">
        <ele>1267.6</ele>
        <time>2022-05-14 17:46:00</time>
      </trkpt>
      <trkpt lat="10.0637" lon="-84.19681">
        <ele>1267.4</ele>
        <time>2022-05-14 17:46:01</time>
      </trkpt>
      <trkpt lat="10.06362" lon="-84.19687">
        <ele>1266.8</ele>
        <time>2022-05-14 17:46:02</time>
      </trkpt>
      <trkpt lat="10.06362" lon="-84.19687">
        <ele>1266.4</ele>
        <time>2022-05-14 17:46:03</time>
      </trkpt>
      <trkpt lat="10.06348" lon="-84.197">
        <ele>1266</ele>
        <time>2022-05-14 17:46:04</time>
      </trkpt>
      <trkpt lat="10.0634" lon="-84.19706">
        <ele>1265.6</ele>
        <time>2022-05-14 17:46:05</time>
      </trkpt>
      <trkpt lat="10.06332" lon="-84.19712">
        <ele>1265.2</ele>
        <time>2022-05-14 17:46:06</time>
      </trkpt>
      <trkpt lat="10.06323" lon="-84.19718">
        <ele>1264.4</ele>
        <time>2022-05-14 17:46:07</time>
      </trkpt>
      <trkpt lat="10.06314" lon="-84.19723">
        <ele>1263.8</ele>
        <time>2022-05-14 17:46:08</time>
      </trkpt>
      <trkpt lat="10.06305" lon="-84.1973">
        <ele>1262.8</ele>
        <time>2022-05-14 17:46:09</time>
      </trkpt>
      <trkpt lat="10.06295" lon="-84.19735">
        <ele>1262</ele>
        <time>2022-05-14 17:46:10</time>
      </trkpt>
      <trkpt lat="10.06285" lon="-84.19739">
        <ele>1261.2</ele>
        <time>2022-05-14 17:46:11</time>
      </trkpt>
      <trkpt lat="10.06274" lon="-84.19745">
        <ele>1260.4</ele>
        <time>2022-05-14 17:46:12</time>
      </trkpt>
      <trkpt lat="10.06264" lon="-84.1975">
        <ele>1259.4</ele>
        <time>2022-05-14 17:46:13</time>
      </trkpt>
      <trkpt lat="10.06264" lon="-84.1975">
        <ele>1258.6</ele>
        <time>2022-05-14 17:46:14</time>
      </trkpt>
      <trkpt lat="10.06241" lon="-84.19759">
        <ele>1257.8</ele>
        <time>2022-05-14 17:46:15</time>
      </trkpt>
      <trkpt lat="10.0623" lon="-84.19764">
        <ele>1256.8</ele>
        <time>2022-05-14 17:46:16</time>
      </trkpt>
      <trkpt lat="10.06218" lon="-84.1977">
        <ele>1256</ele>
        <time>2022-05-14 17:46:17</time>
      </trkpt>
      <trkpt lat="10.06205" lon="-84.19775">
        <ele>1255.2</ele>
        <time>2022-05-14 17:46:18</time>
      </trkpt>
      <trkpt lat="10.06193" lon="-84.1978">
        <ele>1254.4</ele>
        <time>2022-05-14 17:46:19</time>
      </trkpt>
      <trkpt lat="10.06181" lon="-84.19786">
        <ele>1253.4</ele>
        <time>2022-05-14 17:46:20</time>
      </trkpt>
      <trkpt lat="10.06169" lon="-84.19792">
        <ele>1253.4</ele>
        <time>2022-05-14 17:46:21</time>
      </trkpt>
      <trkpt lat="10.06158" lon="-84.19798">
        <ele>1252.6</ele>
        <time>2022-05-14 17:46:22</time>
      </trkpt>
      <trkpt lat="10.06147" lon="-84.19805">
        <ele>1251.8</ele>
        <time>2022-05-14 17:46:23</time>
      </trkpt>
      <trkpt lat="10.06147" lon="-84.19805">
        <ele>1251.2</ele>
        <time>2022-05-14 17:46:24</time>
      </trkpt>
      <trkpt lat="10.06125" lon="-84.19818">
        <ele>1250.8</ele>
        <time>2022-05-14 17:46:25</time>
      </trkpt>
      <trkpt lat="10.06115" lon="-84.19825">
        <ele>1250.6</ele>
        <time>2022-05-14 17:46:26</time>
      </trkpt>
      <trkpt lat="10.06105" lon="-84.19831">
        <ele>1250.4</ele>
        <time>2022-05-14 17:46:27</time>
      </trkpt>
      <trkpt lat="10.06095" lon="-84.19837">
        <ele>1250</ele>
        <time>2022-05-14 17:46:28</time>
      </trkpt>
      <trkpt lat="10.06085" lon="-84.19844">
        <ele>1249.8</ele>
        <time>2022-05-14 17:46:29</time>
      </trkpt>
      <trkpt lat="10.06076" lon="-84.19848">
        <ele>1249.6</ele>
        <time>2022-05-14 17:46:30</time>
      </trkpt>
      <trkpt lat="10.06067" lon="-84.19854">
        <ele>1249.4</ele>
        <time>2022-05-14 17:46:31</time>
      </trkpt>
      <trkpt lat="10.06058" lon="-84.1986">
        <ele>1249.4</ele>
        <time>2022-05-14 17:46:32</time>
      </trkpt>
      <trkpt lat="10.06049" lon="-84.19864">
        <ele>1249.2</ele>
        <time>2022-05-14 17:46:33</time>
      </trkpt>
      <trkpt lat="10.06041" lon="-84.19871">
        <ele>1249</ele>
        <time>2022-05-14 17:46:34</time>
      </trkpt>
      <trkpt lat="10.06041" lon="-84.19871">
        <ele>1248.8</ele>
        <time>2022-05-14 17:46:35</time>
      </trkpt>
      <trkpt lat="10.06025" lon="-84.19881">
        <ele>1248.4</ele>
        <time>2022-05-14 17:46:36</time>
      </trkpt>
      <trkpt lat="10.06017" lon="-84.19885">
        <ele>1248.2</ele>
        <time>2022-05-14 17:46:37</time>
      </trkpt>
      <trkpt lat="10.0601" lon="-84.19891">
        <ele>1248.4</ele>
        <time>2022-05-14 17:46:38</time>
      </trkpt>
      <trkpt lat="10.06003" lon="-84.19895">
        <ele>1248.4</ele>
        <time>2022-05-14 17:46:39</time>
      </trkpt>
      <trkpt lat="10.05995" lon="-84.199">
        <ele>1248.4</ele>
        <time>2022-05-14 17:46:40</time>
      </trkpt>
      <trkpt lat="10.05988" lon="-84.19904">
        <ele>1248.4</ele>
        <time>2022-05-14 17:46:41</time>
      </trkpt>
      <trkpt lat="10.05981" lon="-84.19908">
        <ele>1248.4</ele>
        <time>2022-05-14 17:46:42</time>
      </trkpt>
      <trkpt lat="10.05974" lon="-84.19913">
        <ele>1248.4</ele>
        <time>2022-05-14 17:46:43</time>
      </trkpt>
      <trkpt lat="10.05974" lon="-84.19913">
        <ele>1248.6</ele>
        <time>2022-05-14 17:46:44</time>
      </trkpt>
      <trkpt lat="10.05974" lon="-84.19913">
        <ele>1248.6</ele>
        <time>2022-05-14 17:46:45</time>
      </trkpt>
      <trkpt lat="10.05954" lon="-84.19925">
        <ele>1248.6</ele>
        <time>2022-05-14 17:46:46</time>
      </trkpt>
      <trkpt lat="10.05947" lon="-84.19929">
        <ele>1248.6</ele>
        <time>2022-05-14 17:46:47</time>
      </trkpt>
      <trkpt lat="10.0594" lon="-84.19932">
        <ele>1248.6</ele>
        <time>2022-05-14 17:46:48</time>
      </trkpt>
      <trkpt lat="10.05933" lon="-84.19935">
        <ele>1248.4</ele>
        <time>2022-05-14 17:46:49</time>
      </trkpt>
      <trkpt lat="10.05926" lon="-84.19937">
        <ele>1248.6</ele>
        <time>2022-05-14 17:46:50</time>
      </trkpt>
      <trkpt lat="10.05919" lon="-84.19939">
        <ele>1248.8</ele>
        <time>2022-05-14 17:46:51</time>
      </trkpt>
      <trkpt lat="10.05912" lon="-84.19937">
        <ele>1249</ele>
        <time>2022-05-14 17:46:52</time>
      </trkpt>
      <trkpt lat="10.05904" lon="-84.19933">
        <ele>1249.2</ele>
        <time>2022-05-14 17:46:53</time>
      </trkpt>
      <trkpt lat="10.05897" lon="-84.19929">
        <ele>1249.2</ele>
        <time>2022-05-14 17:46:54</time>
      </trkpt>
      <trkpt lat="10.05897" lon="-84.19929">
        <ele>1249</ele>
        <time>2022-05-14 17:46:55</time>
      </trkpt>
      <trkpt lat="10.05897" lon="-84.19929">
        <ele>1248.6</ele>
        <time>2022-05-14 17:46:56</time>
      </trkpt>
      <trkpt lat="10.05886" lon="-84.19906">
        <ele>1247.8</ele>
        <time>2022-05-14 17:46:57</time>
      </trkpt>
      <trkpt lat="10.05884" lon="-84.19897">
        <ele>1247.2</ele>
        <time>2022-05-14 17:46:58</time>
      </trkpt>
      <trkpt lat="10.05882" lon="-84.1989">
        <ele>1246.6</ele>
        <time>2022-05-14 17:46:59</time>
      </trkpt>
      <trkpt lat="10.0588" lon="-84.19881">
        <ele>1246</ele>
        <time>2022-05-14 17:47:00</time>
      </trkpt>
      <trkpt lat="10.05878" lon="-84.19873">
        <ele>1245.4</ele>
        <time>2022-05-14 17:47:01</time>
      </trkpt>
      <trkpt lat="10.05876" lon="-84.19864">
        <ele>1244.6</ele>
        <time>2022-05-14 17:47:02</time>
      </trkpt>
      <trkpt lat="10.05874" lon="-84.19855">
        <ele>1244.6</ele>
        <time>2022-05-14 17:47:03</time>
      </trkpt>
      <trkpt lat="10.05871" lon="-84.19846">
        <ele>1243.8</ele>
        <time>2022-05-14 17:47:04</time>
      </trkpt>
      <trkpt lat="10.05871" lon="-84.19846">
        <ele>1243</ele>
        <time>2022-05-14 17:47:05</time>
      </trkpt>
      <trkpt lat="10.05863" lon="-84.19826">
        <ele>1242.4</ele>
        <time>2022-05-14 17:47:06</time>
      </trkpt>
      <trkpt lat="10.05858" lon="-84.19817">
        <ele>1241.6</ele>
        <time>2022-05-14 17:47:07</time>
      </trkpt>
      <trkpt lat="10.05849" lon="-84.19811">
        <ele>1240.8</ele>
        <time>2022-05-14 17:47:08</time>
      </trkpt>
      <trkpt lat="10.05841" lon="-84.19804">
        <ele>1239.6</ele>
        <time>2022-05-14 17:47:09</time>
      </trkpt>
      <trkpt lat="10.05831" lon="-84.19801">
        <ele>1238.4</ele>
        <time>2022-05-14 17:47:10</time>
      </trkpt>
      <trkpt lat="10.05816" lon="-84.19802">
        <ele>1237</ele>
        <time>2022-05-14 17:47:11</time>
      </trkpt>
      <trkpt lat="10.05804" lon="-84.19801">
        <ele>1235.8</ele>
        <time>2022-05-14 17:47:12</time>
      </trkpt>
      <trkpt lat="10.05793" lon="-84.19801">
        <ele>1234.6</ele>
        <time>2022-05-14 17:47:13</time>
      </trkpt>
      <trkpt lat="10.05781" lon="-84.19802">
        <ele>1233.6</ele>
        <time>2022-05-14 17:47:14</time>
      </trkpt>
      <trkpt lat="10.0577" lon="-84.19808">
        <ele>1232.4</ele>
        <time>2022-05-14 17:47:15</time>
      </trkpt>
      <trkpt lat="10.0577" lon="-84.19808">
        <ele>1231.2</ele>
        <time>2022-05-14 17:47:16</time>
      </trkpt>
      <trkpt lat="10.05748" lon="-84.19816">
        <ele>1230</ele>
        <time>2022-05-14 17:47:17</time>
      </trkpt>
      <trkpt lat="10.05739" lon="-84.19824">
        <ele>1228.8</ele>
        <time>2022-05-14 17:47:18</time>
      </trkpt>
      <trkpt lat="10.05733" lon="-84.19839">
        <ele>1227.2</ele>
        <time>2022-05-14 17:47:19</time>
      </trkpt>
      <trkpt lat="10.05725" lon="-84.19848">
        <ele>1225.8</ele>
        <time>2022-05-14 17:47:20</time>
      </trkpt>
      <trkpt lat="10.05718" lon="-84.1986">
        <ele>1224.2</ele>
        <time>2022-05-14 17:47:21</time>
      </trkpt>
      <trkpt lat="10.05711" lon="-84.19871">
        <ele>1222.8</ele>
        <time>2022-05-14 17:47:22</time>
      </trkpt>
      <trkpt lat="10.05705" lon="-84.19883">
        <ele>1221.4</ele>
        <time>2022-05-14 17:47:23</time>
      </trkpt>
      <trkpt lat="10.05698" lon="-84.19895">
        <ele>1221.4</ele>
        <time>2022-05-14 17:47:24</time>
      </trkpt>
      <trkpt lat="10.05698" lon="-84.19895">
        <ele>1220</ele>
        <time>2022-05-14 17:47:25</time>
      </trkpt>
      <trkpt lat="10.05698" lon="-84.19895">
        <ele>1218.8</ele>
        <time>2022-05-14 17:47:26</time>
      </trkpt>
      <trkpt lat="10.05678" lon="-84.1993">
        <ele>1217.6</ele>
        <time>2022-05-14 17:47:27</time>
      </trkpt>
      <trkpt lat="10.0567" lon="-84.19941">
        <ele>1216</ele>
        <time>2022-05-14 17:47:28</time>
      </trkpt>
      <trkpt lat="10.05663" lon="-84.19951">
        <ele>1214.4</ele>
        <time>2022-05-14 17:47:29</time>
      </trkpt>
      <trkpt lat="10.05656" lon="-84.19963">
        <ele>1212.8</ele>
        <time>2022-05-14 17:47:30</time>
      </trkpt>
      <trkpt lat="10.05651" lon="-84.19976">
        <ele>1211.2</ele>
        <time>2022-05-14 17:47:31</time>
      </trkpt>
      <trkpt lat="10.05647" lon="-84.19988">
        <ele>1209.8</ele>
        <time>2022-05-14 17:47:32</time>
      </trkpt>
      <trkpt lat="10.05643" lon="-84.2">
        <ele>1208.4</ele>
        <time>2022-05-14 17:47:33</time>
      </trkpt>
      <trkpt lat="10.05641" lon="-84.20014">
        <ele>1207.2</ele>
        <time>2022-05-14 17:47:34</time>
      </trkpt>
      <trkpt lat="10.05637" lon="-84.20025">
        <ele>1206</ele>
        <time>2022-05-14 17:47:35</time>
      </trkpt>
      <trkpt lat="10.05637" lon="-84.20025">
        <ele>1204.8</ele>
        <time>2022-05-14 17:47:36</time>
      </trkpt>
      <trkpt lat="10.05637" lon="-84.20025">
        <ele>1203.8</ele>
        <time>2022-05-14 17:47:37</time>
      </trkpt>
      <trkpt lat="10.0562" lon="-84.20059">
        <ele>1202.6</ele>
        <time>2022-05-14 17:47:38</time>
      </trkpt>
      <trkpt lat="10.05612" lon="-84.2007">
        <ele>1201.6</ele>
        <time>2022-05-14 17:47:39</time>
      </trkpt>
      <trkpt lat="10.05605" lon="-84.20081">
        <ele>1200.2</ele>
        <time>2022-05-14 17:47:40</time>
      </trkpt>
      <trkpt lat="10.05597" lon="-84.2009">
        <ele>1199.2</ele>
        <time>2022-05-14 17:47:41</time>
      </trkpt>
      <trkpt lat="10.05587" lon="-84.20099">
        <ele>1198</ele>
        <time>2022-05-14 17:47:42</time>
      </trkpt>
      <trkpt lat="10.05577" lon="-84.20106">
        <ele>1196.8</ele>
        <time>2022-05-14 17:47:43</time>
      </trkpt>
      <trkpt lat="10.05566" lon="-84.20112">
        <ele>1195.4</ele>
        <time>2022-05-14 17:47:44</time>
      </trkpt>
      <trkpt lat="10.05554" lon="-84.20117">
        <ele>1195.4</ele>
        <time>2022-05-14 17:47:45</time>
      </trkpt>
      <trkpt lat="10.05554" lon="-84.20117">
        <ele>1194</ele>
        <time>2022-05-14 17:47:46</time>
      </trkpt>
      <trkpt lat="10.0553" lon="-84.20123">
        <ele>1192.6</ele>
        <time>2022-05-14 17:47:47</time>
      </trkpt>
      <trkpt lat="10.05517" lon="-84.20126">
        <ele>1191</ele>
        <time>2022-05-14 17:47:48</time>
      </trkpt>
      <trkpt lat="10.05504" lon="-84.20128">
        <ele>1189.6</ele>
        <time>2022-05-14 17:47:49</time>
      </trkpt>
      <trkpt lat="10.05492" lon="-84.20132">
        <ele>1188.2</ele>
        <time>2022-05-14 17:47:50</time>
      </trkpt>
      <trkpt lat="10.05479" lon="-84.20135">
        <ele>1186.8</ele>
        <time>2022-05-14 17:47:51</time>
      </trkpt>
      <trkpt lat="10.05467" lon="-84.20139">
        <ele>1185</ele>
        <time>2022-05-14 17:47:52</time>
      </trkpt>
      <trkpt lat="10.05455" lon="-84.20142">
        <ele>1183.4</ele>
        <time>2022-05-14 17:47:53</time>
      </trkpt>
      <trkpt lat="10.05443" lon="-84.20146">
        <ele>1182</ele>
        <time>2022-05-14 17:47:54</time>
      </trkpt>
      <trkpt lat="10.05432" lon="-84.2015">
        <ele>1180.6</ele>
        <time>2022-05-14 17:47:55</time>
      </trkpt>
      <trkpt lat="10.05424" lon="-84.20157">
        <ele>1179.4</ele>
        <time>2022-05-14 17:47:56</time>
      </trkpt>
      <trkpt lat="10.05424" lon="-84.20157">
        <ele>1178</ele>
        <time>2022-05-14 17:47:57</time>
      </trkpt>
      <trkpt lat="10.05409" lon="-84.20179">
        <ele>1176.6</ele>
        <time>2022-05-14 17:47:58</time>
      </trkpt>
      <trkpt lat="10.05403" lon="-84.20191">
        <ele>1175.2</ele>
        <time>2022-05-14 17:47:59</time>
      </trkpt>
      <trkpt lat="10.05397" lon="-84.20202">
        <ele>1174.2</ele>
        <time>2022-05-14 17:48:00</time>
      </trkpt>
      <trkpt lat="10.0539" lon="-84.20213">
        <ele>1173</ele>
        <time>2022-05-14 17:48:01</time>
      </trkpt>
      <trkpt lat="10.05383" lon="-84.20223">
        <ele>1171.6</ele>
        <time>2022-05-14 17:48:02</time>
      </trkpt>
      <trkpt lat="10.05375" lon="-84.20235">
        <ele>1170.2</ele>
        <time>2022-05-14 17:48:03</time>
      </trkpt>
      <trkpt lat="10.05369" lon="-84.20245">
        <ele>1169</ele>
        <time>2022-05-14 17:48:04</time>
      </trkpt>
      <trkpt lat="10.05362" lon="-84.20257">
        <ele>1167.8</ele>
        <time>2022-05-14 17:48:05</time>
      </trkpt>
      <trkpt lat="10.05358" lon="-84.2027">
        <ele>1167.8</ele>
        <time>2022-05-14 17:48:06</time>
      </trkpt>
      <trkpt lat="10.05358" lon="-84.2027">
        <ele>1166.6</ele>
        <time>2022-05-14 17:48:07</time>
      </trkpt>
      <trkpt lat="10.05355" lon="-84.20296">
        <ele>1165.2</ele>
        <time>2022-05-14 17:48:08</time>
      </trkpt>
      <trkpt lat="10.05355" lon="-84.2031">
        <ele>1164</ele>
        <time>2022-05-14 17:48:09</time>
      </trkpt>
      <trkpt lat="10.05353" lon="-84.20323">
        <ele>1162.8</ele>
        <time>2022-05-14 17:48:10</time>
      </trkpt>
      <trkpt lat="10.0535" lon="-84.20336">
        <ele>1161.4</ele>
        <time>2022-05-14 17:48:11</time>
      </trkpt>
      <trkpt lat="10.05345" lon="-84.20348">
        <ele>1160.2</ele>
        <time>2022-05-14 17:48:12</time>
      </trkpt>
      <trkpt lat="10.05336" lon="-84.20357">
        <ele>1159.2</ele>
        <time>2022-05-14 17:48:13</time>
      </trkpt>
      <trkpt lat="10.05325" lon="-84.20362">
        <ele>1158</ele>
        <time>2022-05-14 17:48:14</time>
      </trkpt>
      <trkpt lat="10.05314" lon="-84.20368">
        <ele>1156.8</ele>
        <time>2022-05-14 17:48:15</time>
      </trkpt>
      <trkpt lat="10.05304" lon="-84.20375">
        <ele>1155</ele>
        <time>2022-05-14 17:48:16</time>
      </trkpt>
      <trkpt lat="10.05304" lon="-84.20375">
        <ele>1153.6</ele>
        <time>2022-05-14 17:48:17</time>
      </trkpt>
      <trkpt lat="10.05304" lon="-84.20375">
        <ele>1152</ele>
        <time>2022-05-14 17:48:18</time>
      </trkpt>
      <trkpt lat="10.05283" lon="-84.2041">
        <ele>1150.4</ele>
        <time>2022-05-14 17:48:19</time>
      </trkpt>
      <trkpt lat="10.05279" lon="-84.20422">
        <ele>1148.8</ele>
        <time>2022-05-14 17:48:20</time>
      </trkpt>
      <trkpt lat="10.05275" lon="-84.20436">
        <ele>1147.2</ele>
        <time>2022-05-14 17:48:21</time>
      </trkpt>
      <trkpt lat="10.05272" lon="-84.20448">
        <ele>1145.8</ele>
        <time>2022-05-14 17:48:22</time>
      </trkpt>
      <trkpt lat="10.05272" lon="-84.20462">
        <ele>1144.4</ele>
        <time>2022-05-14 17:48:23</time>
      </trkpt>
      <trkpt lat="10.05274" lon="-84.20472">
        <ele>1143</ele>
        <time>2022-05-14 17:48:24</time>
      </trkpt>
      <trkpt lat="10.05278" lon="-84.20482">
        <ele>1141.6</ele>
        <time>2022-05-14 17:48:25</time>
      </trkpt>
      <trkpt lat="10.05285" lon="-84.20493">
        <ele>1140.6</ele>
        <time>2022-05-14 17:48:26</time>
      </trkpt>
      <trkpt lat="10.05285" lon="-84.20493">
        <ele>1140.6</ele>
        <time>2022-05-14 17:48:27</time>
      </trkpt>
      <trkpt lat="10.05285" lon="-84.20493">
        <ele>1140</ele>
        <time>2022-05-14 17:48:28</time>
      </trkpt>
      <trkpt lat="10.05308" lon="-84.20523">
        <ele>1139.6</ele>
        <time>2022-05-14 17:48:29</time>
      </trkpt>
      <trkpt lat="10.05313" lon="-84.20535">
        <ele>1138.8</ele>
        <time>2022-05-14 17:48:30</time>
      </trkpt>
      <trkpt lat="10.05315" lon="-84.20547">
        <ele>1137.8</ele>
        <time>2022-05-14 17:48:31</time>
      </trkpt>
      <trkpt lat="10.05318" lon="-84.20556">
        <ele>1136.8</ele>
        <time>2022-05-14 17:48:32</time>
      </trkpt>
      <trkpt lat="10.05315" lon="-84.2057">
        <ele>1135.6</ele>
        <time>2022-05-14 17:48:33</time>
      </trkpt>
      <trkpt lat="10.0531" lon="-84.20582">
        <ele>1134.2</ele>
        <time>2022-05-14 17:48:34</time>
      </trkpt>
      <trkpt lat="10.05303" lon="-84.2059">
        <ele>1133</ele>
        <time>2022-05-14 17:48:35</time>
      </trkpt>
      <trkpt lat="10.0529" lon="-84.20592">
        <ele>1132</ele>
        <time>2022-05-14 17:48:36</time>
      </trkpt>
      <trkpt lat="10.05276" lon="-84.20594">
        <ele>1131</ele>
        <time>2022-05-14 17:48:37</time>
      </trkpt>
      <trkpt lat="10.05276" lon="-84.20594">
        <ele>1129.8</ele>
        <time>2022-05-14 17:48:38</time>
      </trkpt>
      <trkpt lat="10.05276" lon="-84.20594">
        <ele>1128.4</ele>
        <time>2022-05-14 17:48:39</time>
      </trkpt>
      <trkpt lat="10.0524" lon="-84.20578">
        <ele>1127</ele>
        <time>2022-05-14 17:48:40</time>
      </trkpt>
      <trkpt lat="10.0523" lon="-84.20573">
        <ele>1125.6</ele>
        <time>2022-05-14 17:48:41</time>
      </trkpt>
      <trkpt lat="10.05218" lon="-84.20571">
        <ele>1124.2</ele>
        <time>2022-05-14 17:48:42</time>
      </trkpt>
      <trkpt lat="10.05207" lon="-84.20572">
        <ele>1122.8</ele>
        <time>2022-05-14 17:48:43</time>
      </trkpt>
      <trkpt lat="10.05198" lon="-84.20579">
        <ele>1121.6</ele>
        <time>2022-05-14 17:48:44</time>
      </trkpt>
      <trkpt lat="10.0519" lon="-84.20584">
        <ele>1120.4</ele>
        <time>2022-05-14 17:48:45</time>
      </trkpt>
      <trkpt lat="10.05181" lon="-84.20594">
        <ele>1119</ele>
        <time>2022-05-14 17:48:46</time>
      </trkpt>
      <trkpt lat="10.0517" lon="-84.20599">
        <ele>1117.8</ele>
        <time>2022-05-14 17:48:47</time>
      </trkpt>
      <trkpt lat="10.0517" lon="-84.20599">
        <ele>1117.8</ele>
        <time>2022-05-14 17:48:48</time>
      </trkpt>
      <trkpt lat="10.05145" lon="-84.20592">
        <ele>1116.4</ele>
        <time>2022-05-14 17:48:49</time>
      </trkpt>
      <trkpt lat="10.05134" lon="-84.20587">
        <ele>1115</ele>
        <time>2022-05-14 17:48:50</time>
      </trkpt>
      <trkpt lat="10.05122" lon="-84.20582">
        <ele>1113.8</ele>
        <time>2022-05-14 17:48:51</time>
      </trkpt>
      <trkpt lat="10.0511" lon="-84.20577">
        <ele>1112.6</ele>
        <time>2022-05-14 17:48:52</time>
      </trkpt>
      <trkpt lat="10.05097" lon="-84.20575">
        <ele>1111.4</ele>
        <time>2022-05-14 17:48:53</time>
      </trkpt>
      <trkpt lat="10.05085" lon="-84.20578">
        <ele>1110</ele>
        <time>2022-05-14 17:48:54</time>
      </trkpt>
      <trkpt lat="10.05073" lon="-84.20583">
        <ele>1108.6</ele>
        <time>2022-05-14 17:48:55</time>
      </trkpt>
      <trkpt lat="10.05061" lon="-84.20589">
        <ele>1107.2</ele>
        <time>2022-05-14 17:48:56</time>
      </trkpt>
      <trkpt lat="10.05048" lon="-84.20596">
        <ele>1106</ele>
        <time>2022-05-14 17:48:57</time>
      </trkpt>
      <trkpt lat="10.05036" lon="-84.20603">
        <ele>1104.8</ele>
        <time>2022-05-14 17:48:58</time>
      </trkpt>
      <trkpt lat="10.05036" lon="-84.20603">
        <ele>1103.6</ele>
        <time>2022-05-14 17:48:59</time>
      </trkpt>
      <trkpt lat="10.05012" lon="-84.20618">
        <ele>1102.2</ele>
        <time>2022-05-14 17:49:00</time>
      </trkpt>
      <trkpt lat="10.05001" lon="-84.20628">
        <ele>1100.6</ele>
        <time>2022-05-14 17:49:01</time>
      </trkpt>
      <trkpt lat="10.0499" lon="-84.20638">
        <ele>1098.8</ele>
        <time>2022-05-14 17:49:02</time>
      </trkpt>
      <trkpt lat="10.04981" lon="-84.20651">
        <ele>1097.2</ele>
        <time>2022-05-14 17:49:03</time>
      </trkpt>
      <trkpt lat="10.04973" lon="-84.20664">
        <ele>1095.6</ele>
        <time>2022-05-14 17:49:04</time>
      </trkpt>
      <trkpt lat="10.04965" lon="-84.20679">
        <ele>1094</ele>
        <time>2022-05-14 17:49:05</time>
      </trkpt>
      <trkpt lat="10.04958" lon="-84.20693">
        <ele>1092</ele>
        <time>2022-05-14 17:49:06</time>
      </trkpt>
      <trkpt lat="10.04951" lon="-84.20708">
        <ele>1090.2</ele>
        <time>2022-05-14 17:49:07</time>
      </trkpt>
      <trkpt lat="10.04951" lon="-84.20708">
        <ele>1088.6</ele>
        <time>2022-05-14 17:49:08</time>
      </trkpt>
      <trkpt lat="10.04951" lon="-84.20708">
        <ele>1088.6</ele>
        <time>2022-05-14 17:49:09</time>
      </trkpt>
      <trkpt lat="10.04938" lon="-84.20754">
        <ele>1087.4</ele>
        <time>2022-05-14 17:49:10</time>
      </trkpt>
      <trkpt lat="10.04936" lon="-84.20769">
        <ele>1086.4</ele>
        <time>2022-05-14 17:49:11</time>
      </trkpt>
      <trkpt lat="10.04935" lon="-84.20785">
        <ele>1085.4</ele>
        <time>2022-05-14 17:49:12</time>
      </trkpt>
      <trkpt lat="10.04936" lon="-84.20798">
        <ele>1084.4</ele>
        <time>2022-05-14 17:49:13</time>
      </trkpt>
      <trkpt lat="10.04934" lon="-84.20811">
        <ele>1083.4</ele>
        <time>2022-05-14 17:49:14</time>
      </trkpt>
      <trkpt lat="10.04929" lon="-84.20821">
        <ele>1082.4</ele>
        <time>2022-05-14 17:49:15</time>
      </trkpt>
      <trkpt lat="10.04922" lon="-84.2083">
        <ele>1081.2</ele>
        <time>2022-05-14 17:49:16</time>
      </trkpt>
      <trkpt lat="10.04913" lon="-84.20836">
        <ele>1079.8</ele>
        <time>2022-05-14 17:49:17</time>
      </trkpt>
      <trkpt lat="10.04905" lon="-84.2084">
        <ele>1078.4</ele>
        <time>2022-05-14 17:49:18</time>
      </trkpt>
      <trkpt lat="10.04905" lon="-84.2084">
        <ele>1077.4</ele>
        <time>2022-05-14 17:49:19</time>
      </trkpt>
      <trkpt lat="10.04905" lon="-84.2084">
        <ele>1076.4</ele>
        <time>2022-05-14 17:49:20</time>
      </trkpt>
      <trkpt lat="10.0488" lon="-84.20849">
        <ele>1075.6</ele>
        <time>2022-05-14 17:49:21</time>
      </trkpt>
      <trkpt lat="10.04871" lon="-84.20847">
        <ele>1074.8</ele>
        <time>2022-05-14 17:49:22</time>
      </trkpt>
      <trkpt lat="10.04862" lon="-84.20844">
        <ele>1073.8</ele>
        <time>2022-05-14 17:49:23</time>
      </trkpt>
      <trkpt lat="10.04853" lon="-84.2084">
        <ele>1072.8</ele>
        <time>2022-05-14 17:49:24</time>
      </trkpt>
      <trkpt lat="10.04844" lon="-84.20837">
        <ele>1071.6</ele>
        <time>2022-05-14 17:49:25</time>
      </trkpt>
      <trkpt lat="10.04835" lon="-84.20831">
        <ele>1070.6</ele>
        <time>2022-05-14 17:49:26</time>
      </trkpt>
      <trkpt lat="10.04826" lon="-84.20827">
        <ele>1070.2</ele>
        <time>2022-05-14 17:49:27</time>
      </trkpt>
      <trkpt lat="10.04817" lon="-84.20822">
        <ele>1069.4</ele>
        <time>2022-05-14 17:49:28</time>
      </trkpt>
      <trkpt lat="10.04817" lon="-84.20822">
        <ele>1068.6</ele>
        <time>2022-05-14 17:49:29</time>
      </trkpt>
      <trkpt lat="10.04817" lon="-84.20822">
        <ele>1068.6</ele>
        <time>2022-05-14 17:49:30</time>
      </trkpt>
      <trkpt lat="10.04787" lon="-84.20805">
        <ele>1067.6</ele>
        <time>2022-05-14 17:49:31</time>
      </trkpt>
      <trkpt lat="10.04777" lon="-84.208">
        <ele>1067</ele>
        <time>2022-05-14 17:49:32</time>
      </trkpt>
      <trkpt lat="10.04767" lon="-84.20795">
        <ele>1066</ele>
        <time>2022-05-14 17:49:33</time>
      </trkpt>
      <trkpt lat="10.04758" lon="-84.20791">
        <ele>1064.8</ele>
        <time>2022-05-14 17:49:34</time>
      </trkpt>
      <trkpt lat="10.04749" lon="-84.20787">
        <ele>1063.8</ele>
        <time>2022-05-14 17:49:35</time>
      </trkpt>
      <trkpt lat="10.04739" lon="-84.20783">
        <ele>1063</ele>
        <time>2022-05-14 17:49:36</time>
      </trkpt>
      <trkpt lat="10.04729" lon="-84.20784">
        <ele>1062.2</ele>
        <time>2022-05-14 17:49:37</time>
      </trkpt>
      <trkpt lat="10.04721" lon="-84.2079">
        <ele>1061.4</ele>
        <time>2022-05-14 17:49:38</time>
      </trkpt>
      <trkpt lat="10.04714" lon="-84.20798">
        <ele>1060.4</ele>
        <time>2022-05-14 17:49:39</time>
      </trkpt>
      <trkpt lat="10.04714" lon="-84.20798">
        <ele>1059.4</ele>
        <time>2022-05-14 17:49:40</time>
      </trkpt>
      <trkpt lat="10.04705" lon="-84.20818">
        <ele>1058.4</ele>
        <time>2022-05-14 17:49:41</time>
      </trkpt>
      <trkpt lat="10.04705" lon="-84.20827">
        <ele>1057.4</ele>
        <time>2022-05-14 17:49:42</time>
      </trkpt>
      <trkpt lat="10.04706" lon="-84.20838">
        <ele>1056</ele>
        <time>2022-05-14 17:49:43</time>
      </trkpt>
      <trkpt lat="10.04709" lon="-84.20847">
        <ele>1054.8</ele>
        <time>2022-05-14 17:49:44</time>
      </trkpt>
      <trkpt lat="10.0471" lon="-84.20858">
        <ele>1053.8</ele>
        <time>2022-05-14 17:49:45</time>
      </trkpt>
      <trkpt lat="10.04709" lon="-84.20867">
        <ele>1052.8</ele>
        <time>2022-05-14 17:49:46</time>
      </trkpt>
      <trkpt lat="10.04708" lon="-84.20876">
        <ele>1052.2</ele>
        <time>2022-05-14 17:49:47</time>
      </trkpt>
      <trkpt lat="10.04706" lon="-84.20884">
        <ele>1051.6</ele>
        <time>2022-05-14 17:49:48</time>
      </trkpt>
      <trkpt lat="10.04703" lon="-84.20892">
        <ele>1051.2</ele>
        <time>2022-05-14 17:49:49</time>
      </trkpt>
      <trkpt lat="10.04699" lon="-84.20905">
        <ele>1051</ele>
        <time>2022-05-14 17:49:50</time>
      </trkpt>
      <trkpt lat="10.04699" lon="-84.20905">
        <ele>1051</ele>
        <time>2022-05-14 17:49:51</time>
      </trkpt>
      <trkpt lat="10.04696" lon="-84.2091">
        <ele>1050.8</ele>
        <time>2022-05-14 17:49:52</time>
      </trkpt>
      <trkpt lat="10.04694" lon="-84.20915">
        <ele>1050.8</ele>
        <time>2022-05-14 17:49:53</time>
      </trkpt>
      <trkpt lat="10.0469" lon="-84.2092">
        <ele>1050.6</ele>
        <time>2022-05-14 17:49:54</time>
      </trkpt>
      <trkpt lat="10.04686" lon="-84.20924">
        <ele>1050.6</ele>
        <time>2022-05-14 17:49:55</time>
      </trkpt>
      <trkpt lat="10.04681" lon="-84.20927">
        <ele>1050.2</ele>
        <time>2022-05-14 17:49:56</time>
      </trkpt>
      <trkpt lat="10.04676" lon="-84.20928">
        <ele>1049.8</ele>
        <time>2022-05-14 17:49:57</time>
      </trkpt>
      <trkpt lat="10.04671" lon="-84.20928">
        <ele>1049.2</ele>
        <time>2022-05-14 17:49:58</time>
      </trkpt>
      <trkpt lat="10.04665" lon="-84.20928">
        <ele>1049</ele>
        <time>2022-05-14 17:49:59</time>
      </trkpt>
      <trkpt lat="10.04658" lon="-84.20928">
        <ele>1048.6</ele>
        <time>2022-05-14 17:50:00</time>
      </trkpt>
      <trkpt lat="10.04658" lon="-84.20928">
        <ele>1048.2</ele>
        <time>2022-05-14 17:50:01</time>
      </trkpt>
      <trkpt lat="10.04644" lon="-84.20927">
        <ele>1047.6</ele>
        <time>2022-05-14 17:50:02</time>
      </trkpt>
      <trkpt lat="10.04637" lon="-84.20927">
        <ele>1046.8</ele>
        <time>2022-05-14 17:50:03</time>
      </trkpt>
      <trkpt lat="10.0463" lon="-84.20927">
        <ele>1045.8</ele>
        <time>2022-05-14 17:50:04</time>
      </trkpt>
      <trkpt lat="10.04623" lon="-84.20927">
        <ele>1045.4</ele>
        <time>2022-05-14 17:50:05</time>
      </trkpt>
      <trkpt lat="10.04616" lon="-84.20927">
        <ele>1044.8</ele>
        <time>2022-05-14 17:50:06</time>
      </trkpt>
      <trkpt lat="10.04609" lon="-84.20927">
        <ele>1044.2</ele>
        <time>2022-05-14 17:50:07</time>
      </trkpt>
      <trkpt lat="10.04601" lon="-84.20929">
        <ele>1043.6</ele>
        <time>2022-05-14 17:50:08</time>
      </trkpt>
      <trkpt lat="10.04593" lon="-84.2093">
        <ele>1043</ele>
        <time>2022-05-14 17:50:09</time>
      </trkpt>
      <trkpt lat="10.04593" lon="-84.2093">
        <ele>1042.6</ele>
        <time>2022-05-14 17:50:10</time>
      </trkpt>
      <trkpt lat="10.04572" lon="-84.2094">
        <ele>1042.2</ele>
        <time>2022-05-14 17:50:11</time>
      </trkpt>
      <trkpt lat="10.04572" lon="-84.2094">
        <ele>1042.2</ele>
        <time>2022-05-14 17:50:12</time>
      </trkpt>
      <trkpt lat="10.04565" lon="-84.20943">
        <ele>1041.6</ele>
        <time>2022-05-14 17:50:13</time>
      </trkpt>
      <trkpt lat="10.04557" lon="-84.20945">
        <ele>1041.2</ele>
        <time>2022-05-14 17:50:14</time>
      </trkpt>
      <trkpt lat="10.04549" lon="-84.20947">
        <ele>1040.4</ele>
        <time>2022-05-14 17:50:15</time>
      </trkpt>
      <trkpt lat="10.0454" lon="-84.20948">
        <ele>1039.8</ele>
        <time>2022-05-14 17:50:16</time>
      </trkpt>
      <trkpt lat="10.04531" lon="-84.20946">
        <ele>1039.2</ele>
        <time>2022-05-14 17:50:17</time>
      </trkpt>
      <trkpt lat="10.04522" lon="-84.20945">
        <ele>1038.8</ele>
        <time>2022-05-14 17:50:18</time>
      </trkpt>
      <trkpt lat="10.04512" lon="-84.20943">
        <ele>1038.2</ele>
        <time>2022-05-14 17:50:19</time>
      </trkpt>
      <trkpt lat="10.04503" lon="-84.20941">
        <ele>1037.6</ele>
        <time>2022-05-14 17:50:20</time>
      </trkpt>
      <trkpt lat="10.04503" lon="-84.20941">
        <ele>1037.4</ele>
        <time>2022-05-14 17:50:21</time>
      </trkpt>
      <trkpt lat="10.04503" lon="-84.20941">
        <ele>1037.4</ele>
        <time>2022-05-14 17:50:22</time>
      </trkpt>
      <trkpt lat="10.04476" lon="-84.20934">
        <ele>1037.4</ele>
        <time>2022-05-14 17:50:23</time>
      </trkpt>
      <trkpt lat="10.04467" lon="-84.20934">
        <ele>1037.4</ele>
        <time>2022-05-14 17:50:24</time>
      </trkpt>
      <trkpt lat="10.04458" lon="-84.20932">
        <ele>1037.6</ele>
        <time>2022-05-14 17:50:25</time>
      </trkpt>
      <trkpt lat="10.04449" lon="-84.20931">
        <ele>1037.6</ele>
        <time>2022-05-14 17:50:26</time>
      </trkpt>
      <trkpt lat="10.0444" lon="-84.2093">
        <ele>1038</ele>
        <time>2022-05-14 17:50:27</time>
      </trkpt>
      <trkpt lat="10.04432" lon="-84.2093">
        <ele>1038.6</ele>
        <time>2022-05-14 17:50:28</time>
      </trkpt>
      <trkpt lat="10.04425" lon="-84.20932">
        <ele>1039.2</ele>
        <time>2022-05-14 17:50:29</time>
      </trkpt>
      <trkpt lat="10.04419" lon="-84.20934">
        <ele>1039.8</ele>
        <time>2022-05-14 17:50:30</time>
      </trkpt>
      <trkpt lat="10.04407" lon="-84.2094">
        <ele>1040.2</ele>
        <time>2022-05-14 17:50:31</time>
      </trkpt>
      <trkpt lat="10.04403" lon="-84.20941">
        <ele>1040.8</ele>
        <time>2022-05-14 17:50:32</time>
      </trkpt>
      <trkpt lat="10.04403" lon="-84.20941">
        <ele>1040.8</ele>
        <time>2022-05-14 17:50:33</time>
      </trkpt>
      <trkpt lat="10.04398" lon="-84.20944">
        <ele>1041.6</ele>
        <time>2022-05-14 17:50:34</time>
      </trkpt>
      <trkpt lat="10.04394" lon="-84.20946">
        <ele>1042.4</ele>
        <time>2022-05-14 17:50:35</time>
      </trkpt>
      <trkpt lat="10.0439" lon="-84.20949">
        <ele>1042.8</ele>
        <time>2022-05-14 17:50:36</time>
      </trkpt>
      <trkpt lat="10.04385" lon="-84.20952">
        <ele>1043.4</ele>
        <time>2022-05-14 17:50:37</time>
      </trkpt>
      <trkpt lat="10.04381" lon="-84.20954">
        <ele>1043.8</ele>
        <time>2022-05-14 17:50:38</time>
      </trkpt>
      <trkpt lat="10.04377" lon="-84.20957">
        <ele>1044.4</ele>
        <time>2022-05-14 17:50:39</time>
      </trkpt>
      <trkpt lat="10.04373" lon="-84.20959">
        <ele>1044.8</ele>
        <time>2022-05-14 17:50:40</time>
      </trkpt>
      <trkpt lat="10.04369" lon="-84.20961">
        <ele>1045.2</ele>
        <time>2022-05-14 17:50:41</time>
      </trkpt>
      <trkpt lat="10.0436" lon="-84.20966">
        <ele>1045.8</ele>
        <time>2022-05-14 17:50:42</time>
      </trkpt>
      <trkpt lat="10.0436" lon="-84.20966">
        <ele>1046.2</ele>
        <time>2022-05-14 17:50:43</time>
      </trkpt>
      <trkpt lat="10.04355" lon="-84.20968">
        <ele>1046.4</ele>
        <time>2022-05-14 17:50:44</time>
      </trkpt>
      <trkpt lat="10.0435" lon="-84.20971">
        <ele>1047</ele>
        <time>2022-05-14 17:50:45</time>
      </trkpt>
      <trkpt lat="10.04346" lon="-84.20973">
        <ele>1047.2</ele>
        <time>2022-05-14 17:50:46</time>
      </trkpt>
      <trkpt lat="10.04341" lon="-84.20975">
        <ele>1047.6</ele>
        <time>2022-05-14 17:50:47</time>
      </trkpt>
      <trkpt lat="10.04337" lon="-84.20977">
        <ele>1047.6</ele>
        <time>2022-05-14 17:50:48</time>
      </trkpt>
      <trkpt lat="10.04332" lon="-84.20979">
        <ele>1048</ele>
        <time>2022-05-14 17:50:49</time>
      </trkpt>
      <trkpt lat="10.04327" lon="-84.20981">
        <ele>1048.4</ele>
        <time>2022-05-14 17:50:50</time>
      </trkpt>
      <trkpt lat="10.04327" lon="-84.20981">
        <ele>1049</ele>
        <time>2022-05-14 17:50:51</time>
      </trkpt>
      <trkpt lat="10.04311" lon="-84.20986">
        <ele>1049.4</ele>
        <time>2022-05-14 17:50:52</time>
      </trkpt>
      <trkpt lat="10.04306" lon="-84.20986">
        <ele>1049.6</ele>
        <time>2022-05-14 17:50:53</time>
      </trkpt>
      <trkpt lat="10.04306" lon="-84.20986">
        <ele>1049.6</ele>
        <time>2022-05-14 17:50:54</time>
      </trkpt>
      <trkpt lat="10.04301" lon="-84.20988">
        <ele>1049.6</ele>
        <time>2022-05-14 17:50:55</time>
      </trkpt>
      <trkpt lat="10.04296" lon="-84.20988">
        <ele>1049.8</ele>
        <time>2022-05-14 17:50:56</time>
      </trkpt>
      <trkpt lat="10.04292" lon="-84.2099">
        <ele>1050</ele>
        <time>2022-05-14 17:50:57</time>
      </trkpt>
      <trkpt lat="10.04287" lon="-84.20992">
        <ele>1050.2</ele>
        <time>2022-05-14 17:50:58</time>
      </trkpt>
      <trkpt lat="10.04282" lon="-84.20992">
        <ele>1050.4</ele>
        <time>2022-05-14 17:50:59</time>
      </trkpt>
      <trkpt lat="10.04277" lon="-84.20994">
        <ele>1050.8</ele>
        <time>2022-05-14 17:51:00</time>
      </trkpt>
      <trkpt lat="10.04272" lon="-84.20995">
        <ele>1051</ele>
        <time>2022-05-14 17:51:01</time>
      </trkpt>
      <trkpt lat="10.04272" lon="-84.20995">
        <ele>1051</ele>
        <time>2022-05-14 17:51:02</time>
      </trkpt>
      <trkpt lat="10.04258" lon="-84.20997">
        <ele>1051</ele>
        <time>2022-05-14 17:51:03</time>
      </trkpt>
      <trkpt lat="10.04258" lon="-84.20997">
        <ele>1050.6</ele>
        <time>2022-05-14 17:51:04</time>
      </trkpt>
      <trkpt lat="10.04253" lon="-84.20999">
        <ele>1050.4</ele>
        <time>2022-05-14 17:51:05</time>
      </trkpt>
      <trkpt lat="10.04247" lon="-84.21">
        <ele>1050.2</ele>
        <time>2022-05-14 17:51:06</time>
      </trkpt>
      <trkpt lat="10.04241" lon="-84.21001">
        <ele>1050</ele>
        <time>2022-05-14 17:51:07</time>
      </trkpt>
      <trkpt lat="10.04235" lon="-84.21002">
        <ele>1049.6</ele>
        <time>2022-05-14 17:51:08</time>
      </trkpt>
      <trkpt lat="10.04229" lon="-84.21004">
        <ele>1049.2</ele>
        <time>2022-05-14 17:51:09</time>
      </trkpt>
      <trkpt lat="10.04222" lon="-84.21005">
        <ele>1049</ele>
        <time>2022-05-14 17:51:10</time>
      </trkpt>
      <trkpt lat="10.04214" lon="-84.21006">
        <ele>1048.6</ele>
        <time>2022-05-14 17:51:11</time>
      </trkpt>
      <trkpt lat="10.04214" lon="-84.21006">
        <ele>1048.2</ele>
        <time>2022-05-14 17:51:12</time>
      </trkpt>
      <trkpt lat="10.04192" lon="-84.21011">
        <ele>1047.6</ele>
        <time>2022-05-14 17:51:13</time>
      </trkpt>
      <trkpt lat="10.04184" lon="-84.21012">
        <ele>1047.4</ele>
        <time>2022-05-14 17:51:14</time>
      </trkpt>
      <trkpt lat="10.04184" lon="-84.21012">
        <ele>1047.4</ele>
        <time>2022-05-14 17:51:15</time>
      </trkpt>
      <trkpt lat="10.04176" lon="-84.21014">
        <ele>1046.8</ele>
        <time>2022-05-14 17:51:16</time>
      </trkpt>
      <trkpt lat="10.04168" lon="-84.21016">
        <ele>1046.4</ele>
        <time>2022-05-14 17:51:17</time>
      </trkpt>
      <trkpt lat="10.0416" lon="-84.21017">
        <ele>1046</ele>
        <time>2022-05-14 17:51:18</time>
      </trkpt>
      <trkpt lat="10.04152" lon="-84.21019">
        <ele>1045.8</ele>
        <time>2022-05-14 17:51:19</time>
      </trkpt>
      <trkpt lat="10.04144" lon="-84.21021">
        <ele>1045.8</ele>
        <time>2022-05-14 17:51:20</time>
      </trkpt>
      <trkpt lat="10.04135" lon="-84.21022">
        <ele>1045.6</ele>
        <time>2022-05-14 17:51:21</time>
      </trkpt>
      <trkpt lat="10.04127" lon="-84.21024">
        <ele>1045.2</ele>
        <time>2022-05-14 17:51:22</time>
      </trkpt>
      <trkpt lat="10.0411" lon="-84.21026">
        <ele>1044.8</ele>
        <time>2022-05-14 17:51:23</time>
      </trkpt>
      <trkpt lat="10.04101" lon="-84.21028">
        <ele>1044.4</ele>
        <time>2022-05-14 17:51:24</time>
      </trkpt>
      <trkpt lat="10.04101" lon="-84.21028">
        <ele>1044.2</ele>
        <time>2022-05-14 17:51:25</time>
      </trkpt>
      <trkpt lat="10.04093" lon="-84.21029">
        <ele>1043.6</ele>
        <time>2022-05-14 17:51:26</time>
      </trkpt>
      <trkpt lat="10.04084" lon="-84.2103">
        <ele>1043.2</ele>
        <time>2022-05-14 17:51:27</time>
      </trkpt>
      <trkpt lat="10.04076" lon="-84.21032">
        <ele>1042.8</ele>
        <time>2022-05-14 17:51:28</time>
      </trkpt>
      <trkpt lat="10.04067" lon="-84.21033">
        <ele>1042.6</ele>
        <time>2022-05-14 17:51:29</time>
      </trkpt>
      <trkpt lat="10.04059" lon="-84.21035">
        <ele>1042.2</ele>
        <time>2022-05-14 17:51:30</time>
      </trkpt>
      <trkpt lat="10.0405" lon="-84.21037">
        <ele>1041.8</ele>
        <time>2022-05-14 17:51:31</time>
      </trkpt>
      <trkpt lat="10.04041" lon="-84.21038">
        <ele>1041.6</ele>
        <time>2022-05-14 17:51:32</time>
      </trkpt>
      <trkpt lat="10.04024" lon="-84.21041">
        <ele>1041.2</ele>
        <time>2022-05-14 17:51:33</time>
      </trkpt>
      <trkpt lat="10.04015" lon="-84.21043">
        <ele>1041.2</ele>
        <time>2022-05-14 17:51:34</time>
      </trkpt>
      <trkpt lat="10.04006" lon="-84.21044">
        <ele>1041</ele>
        <time>2022-05-14 17:51:35</time>
      </trkpt>
      <trkpt lat="10.04006" lon="-84.21044">
        <ele>1041</ele>
        <time>2022-05-14 17:51:36</time>
      </trkpt>
      <trkpt lat="10.03998" lon="-84.21045">
        <ele>1040.6</ele>
        <time>2022-05-14 17:51:37</time>
      </trkpt>
      <trkpt lat="10.03989" lon="-84.21046">
        <ele>1040.4</ele>
        <time>2022-05-14 17:51:38</time>
      </trkpt>
      <trkpt lat="10.0398" lon="-84.21047">
        <ele>1039.8</ele>
        <time>2022-05-14 17:51:39</time>
      </trkpt>
      <trkpt lat="10.03971" lon="-84.21048">
        <ele>1039.4</ele>
        <time>2022-05-14 17:51:40</time>
      </trkpt>
      <trkpt lat="10.03963" lon="-84.21049">
        <ele>1039</ele>
        <time>2022-05-14 17:51:41</time>
      </trkpt>
      <trkpt lat="10.03955" lon="-84.2105">
        <ele>1038.8</ele>
        <time>2022-05-14 17:51:42</time>
      </trkpt>
      <trkpt lat="10.03947" lon="-84.21051">
        <ele>1038.2</ele>
        <time>2022-05-14 17:51:43</time>
      </trkpt>
      <trkpt lat="10.03934" lon="-84.21053">
        <ele>1038</ele>
        <time>2022-05-14 17:51:44</time>
      </trkpt>
      <trkpt lat="10.03927" lon="-84.21055">
        <ele>1037.8</ele>
        <time>2022-05-14 17:51:45</time>
      </trkpt>
      <trkpt lat="10.03927" lon="-84.21055">
        <ele>1037.6</ele>
        <time>2022-05-14 17:51:46</time>
      </trkpt>
      <trkpt lat="10.0392" lon="-84.21055">
        <ele>1037.2</ele>
        <time>2022-05-14 17:51:47</time>
      </trkpt>
      <trkpt lat="10.03914" lon="-84.21056">
        <ele>1036.8</ele>
        <time>2022-05-14 17:51:48</time>
      </trkpt>
      <trkpt lat="10.03908" lon="-84.21057">
        <ele>1036.2</ele>
        <time>2022-05-14 17:51:49</time>
      </trkpt>
      <trkpt lat="10.03902" lon="-84.21059">
        <ele>1035.8</ele>
        <time>2022-05-14 17:51:50</time>
      </trkpt>
      <trkpt lat="10.03895" lon="-84.2106">
        <ele>1035.4</ele>
        <time>2022-05-14 17:51:51</time>
      </trkpt>
      <trkpt lat="10.03889" lon="-84.2106">
        <ele>1035.2</ele>
        <time>2022-05-14 17:51:52</time>
      </trkpt>
      <trkpt lat="10.03889" lon="-84.2106">
        <ele>1035</ele>
        <time>2022-05-14 17:51:53</time>
      </trkpt>
      <trkpt lat="10.03871" lon="-84.21062">
        <ele>1034.6</ele>
        <time>2022-05-14 17:51:54</time>
      </trkpt>
      <trkpt lat="10.03865" lon="-84.21064">
        <ele>1034.4</ele>
        <time>2022-05-14 17:51:55</time>
      </trkpt>
      <trkpt lat="10.03858" lon="-84.21064">
        <ele>1033.8</ele>
        <time>2022-05-14 17:51:56</time>
      </trkpt>
      <trkpt lat="10.03858" lon="-84.21064">
        <ele>1033.8</ele>
        <time>2022-05-14 17:51:57</time>
      </trkpt>
      <trkpt lat="10.0385" lon="-84.21066">
        <ele>1033.4</ele>
        <time>2022-05-14 17:51:58</time>
      </trkpt>
      <trkpt lat="10.03843" lon="-84.21066">
        <ele>1032.8</ele>
        <time>2022-05-14 17:51:59</time>
      </trkpt>
      <trkpt lat="10.03835" lon="-84.21066">
        <ele>1032.2</ele>
        <time>2022-05-14 17:52:00</time>
      </trkpt>
      <trkpt lat="10.03827" lon="-84.21066">
        <ele>1031.8</ele>
        <time>2022-05-14 17:52:01</time>
      </trkpt>
      <trkpt lat="10.03819" lon="-84.21067">
        <ele>1031.2</ele>
        <time>2022-05-14 17:52:02</time>
      </trkpt>
      <trkpt lat="10.0381" lon="-84.21067">
        <ele>1031</ele>
        <time>2022-05-14 17:52:03</time>
      </trkpt>
      <trkpt lat="10.0381" lon="-84.21067">
        <ele>1030.6</ele>
        <time>2022-05-14 17:52:04</time>
      </trkpt>
      <trkpt lat="10.03783" lon="-84.21068">
        <ele>1030.2</ele>
        <time>2022-05-14 17:52:05</time>
      </trkpt>
      <trkpt lat="10.03773" lon="-84.21068">
        <ele>1029.8</ele>
        <time>2022-05-14 17:52:06</time>
      </trkpt>
      <trkpt lat="10.03773" lon="-84.21068">
        <ele>1029.4</ele>
        <time>2022-05-14 17:52:07</time>
      </trkpt>
      <trkpt lat="10.03764" lon="-84.21069">
        <ele>1028.8</ele>
        <time>2022-05-14 17:52:08</time>
      </trkpt>
      <trkpt lat="10.03754" lon="-84.21069">
        <ele>1028.4</ele>
        <time>2022-05-14 17:52:09</time>
      </trkpt>
      <trkpt lat="10.03745" lon="-84.21069">
        <ele>1028</ele>
        <time>2022-05-14 17:52:10</time>
      </trkpt>
      <trkpt lat="10.03735" lon="-84.21069">
        <ele>1027.8</ele>
        <time>2022-05-14 17:52:11</time>
      </trkpt>
      <trkpt lat="10.03726" lon="-84.21069">
        <ele>1027.8</ele>
        <time>2022-05-14 17:52:12</time>
      </trkpt>
      <trkpt lat="10.03716" lon="-84.2107">
        <ele>1027.6</ele>
        <time>2022-05-14 17:52:13</time>
      </trkpt>
      <trkpt lat="10.03697" lon="-84.21073">
        <ele>1027.6</ele>
        <time>2022-05-14 17:52:14</time>
      </trkpt>
      <trkpt lat="10.03689" lon="-84.21077">
        <ele>1027.4</ele>
        <time>2022-05-14 17:52:15</time>
      </trkpt>
      <trkpt lat="10.03681" lon="-84.21082">
        <ele>1027.6</ele>
        <time>2022-05-14 17:52:16</time>
      </trkpt>
      <trkpt lat="10.03673" lon="-84.21087">
        <ele>1027.8</ele>
        <time>2022-05-14 17:52:17</time>
      </trkpt>
      <trkpt lat="10.03673" lon="-84.21087">
        <ele>1027.8</ele>
        <time>2022-05-14 17:52:18</time>
      </trkpt>
      <trkpt lat="10.03666" lon="-84.21091">
        <ele>1028</ele>
        <time>2022-05-14 17:52:19</time>
      </trkpt>
      <trkpt lat="10.03659" lon="-84.21097">
        <ele>1027.8</ele>
        <time>2022-05-14 17:52:20</time>
      </trkpt>
      <trkpt lat="10.03652" lon="-84.21102">
        <ele>1027.8</ele>
        <time>2022-05-14 17:52:21</time>
      </trkpt>
      <trkpt lat="10.03645" lon="-84.21107">
        <ele>1027.6</ele>
        <time>2022-05-14 17:52:22</time>
      </trkpt>
      <trkpt lat="10.03638" lon="-84.21113">
        <ele>1027.4</ele>
        <time>2022-05-14 17:52:23</time>
      </trkpt>
      <trkpt lat="10.03631" lon="-84.21118">
        <ele>1027.2</ele>
        <time>2022-05-14 17:52:24</time>
      </trkpt>
      <trkpt lat="10.03616" lon="-84.21129">
        <ele>1027</ele>
        <time>2022-05-14 17:52:25</time>
      </trkpt>
      <trkpt lat="10.03609" lon="-84.21135">
        <ele>1026.8</ele>
        <time>2022-05-14 17:52:26</time>
      </trkpt>
      <trkpt lat="10.03602" lon="-84.2114">
        <ele>1026.6</ele>
        <time>2022-05-14 17:52:27</time>
      </trkpt>
      <trkpt lat="10.03602" lon="-84.2114">
        <ele>1026.4</ele>
        <time>2022-05-14 17:52:28</time>
      </trkpt>
      <trkpt lat="10.03595" lon="-84.21147">
        <ele>1026.2</ele>
        <time>2022-05-14 17:52:29</time>
      </trkpt>
      <trkpt lat="10.03588" lon="-84.21152">
        <ele>1026</ele>
        <time>2022-05-14 17:52:30</time>
      </trkpt>
      <trkpt lat="10.0358" lon="-84.21157">
        <ele>1025.6</ele>
        <time>2022-05-14 17:52:31</time>
      </trkpt>
      <trkpt lat="10.03573" lon="-84.21163">
        <ele>1025.4</ele>
        <time>2022-05-14 17:52:32</time>
      </trkpt>
      <trkpt lat="10.03566" lon="-84.21169">
        <ele>1025.2</ele>
        <time>2022-05-14 17:52:33</time>
      </trkpt>
      <trkpt lat="10.03566" lon="-84.21169">
        <ele>1025.2</ele>
        <time>2022-05-14 17:52:34</time>
      </trkpt>
      <trkpt lat="10.03543" lon="-84.21186">
        <ele>1024.8</ele>
        <time>2022-05-14 17:52:35</time>
      </trkpt>
      <trkpt lat="10.03535" lon="-84.21192">
        <ele>1024.4</ele>
        <time>2022-05-14 17:52:36</time>
      </trkpt>
      <trkpt lat="10.03528" lon="-84.21198">
        <ele>1023.6</ele>
        <time>2022-05-14 17:52:37</time>
      </trkpt>
      <trkpt lat="10.0352" lon="-84.21205">
        <ele>1023</ele>
        <time>2022-05-14 17:52:38</time>
      </trkpt>
      <trkpt lat="10.0352" lon="-84.21205">
        <ele>1023</ele>
        <time>2022-05-14 17:52:39</time>
      </trkpt>
      <trkpt lat="10.03512" lon="-84.2121">
        <ele>1022</ele>
        <time>2022-05-14 17:52:40</time>
      </trkpt>
      <trkpt lat="10.03503" lon="-84.21216">
        <ele>1021.6</ele>
        <time>2022-05-14 17:52:41</time>
      </trkpt>
      <trkpt lat="10.03494" lon="-84.21221">
        <ele>1021</ele>
        <time>2022-05-14 17:52:42</time>
      </trkpt>
      <trkpt lat="10.03485" lon="-84.21226">
        <ele>1020.8</ele>
        <time>2022-05-14 17:52:43</time>
      </trkpt>
      <trkpt lat="10.03476" lon="-84.2123">
        <ele>1020</ele>
        <time>2022-05-14 17:52:44</time>
      </trkpt>
      <trkpt lat="10.03476" lon="-84.2123">
        <ele>1019.2</ele>
        <time>2022-05-14 17:52:45</time>
      </trkpt>
      <trkpt lat="10.03448" lon="-84.21245">
        <ele>1018.6</ele>
        <time>2022-05-14 17:52:46</time>
      </trkpt>
      <trkpt lat="10.03438" lon="-84.2125">
        <ele>1018</ele>
        <time>2022-05-14 17:52:47</time>
      </trkpt>
      <trkpt lat="10.03428" lon="-84.21254">
        <ele>1017.2</ele>
        <time>2022-05-14 17:52:48</time>
      </trkpt>
      <trkpt lat="10.03428" lon="-84.21254">
        <ele>1016.6</ele>
        <time>2022-05-14 17:52:49</time>
      </trkpt>
      <trkpt lat="10.03418" lon="-84.21259">
        <ele>1015.8</ele>
        <time>2022-05-14 17:52:50</time>
      </trkpt>
      <trkpt lat="10.03408" lon="-84.21265">
        <ele>1015</ele>
        <time>2022-05-14 17:52:51</time>
      </trkpt>
      <trkpt lat="10.03397" lon="-84.2127">
        <ele>1014.2</ele>
        <time>2022-05-14 17:52:52</time>
      </trkpt>
      <trkpt lat="10.03388" lon="-84.21275">
        <ele>1013.6</ele>
        <time>2022-05-14 17:52:53</time>
      </trkpt>
      <trkpt lat="10.03378" lon="-84.2128">
        <ele>1012.8</ele>
        <time>2022-05-14 17:52:54</time>
      </trkpt>
      <trkpt lat="10.03378" lon="-84.2128">
        <ele>1012</ele>
        <time>2022-05-14 17:52:55</time>
      </trkpt>
      <trkpt lat="10.03349" lon="-84.21297">
        <ele>1011.4</ele>
        <time>2022-05-14 17:52:56</time>
      </trkpt>
      <trkpt lat="10.0334" lon="-84.21304">
        <ele>1011</ele>
        <time>2022-05-14 17:52:57</time>
      </trkpt>
      <trkpt lat="10.03331" lon="-84.2131">
        <ele>1010.6</ele>
        <time>2022-05-14 17:52:58</time>
      </trkpt>
      <trkpt lat="10.03321" lon="-84.21316">
        <ele>1010.2</ele>
        <time>2022-05-14 17:52:59</time>
      </trkpt>
      <trkpt lat="10.03321" lon="-84.21316">
        <ele>1010.2</ele>
        <time>2022-05-14 17:53:00</time>
      </trkpt>
      <trkpt lat="10.03312" lon="-84.21321">
        <ele>1009.6</ele>
        <time>2022-05-14 17:53:01</time>
      </trkpt>
      <trkpt lat="10.03304" lon="-84.21327">
        <ele>1009</ele>
        <time>2022-05-14 17:53:02</time>
      </trkpt>
      <trkpt lat="10.03296" lon="-84.21332">
        <ele>1008.4</ele>
        <time>2022-05-14 17:53:03</time>
      </trkpt>
      <trkpt lat="10.03289" lon="-84.21337">
        <ele>1008</ele>
        <time>2022-05-14 17:53:04</time>
      </trkpt>
      <trkpt lat="10.03282" lon="-84.21342">
        <ele>1007.6</ele>
        <time>2022-05-14 17:53:05</time>
      </trkpt>
      <trkpt lat="10.0327" lon="-84.21349">
        <ele>1007</ele>
        <time>2022-05-14 17:53:06</time>
      </trkpt>
      <trkpt lat="10.03266" lon="-84.21351">
        <ele>1006.6</ele>
        <time>2022-05-14 17:53:07</time>
      </trkpt>
      <trkpt lat="10.03261" lon="-84.21355">
        <ele>1006.4</ele>
        <time>2022-05-14 17:53:08</time>
      </trkpt>
      <trkpt lat="10.03257" lon="-84.21357">
        <ele>1005.8</ele>
        <time>2022-05-14 17:53:09</time>
      </trkpt>
      <trkpt lat="10.03257" lon="-84.21357">
        <ele>1005.6</ele>
        <time>2022-05-14 17:53:10</time>
      </trkpt>
      <trkpt lat="10.03253" lon="-84.2136">
        <ele>1005.4</ele>
        <time>2022-05-14 17:53:11</time>
      </trkpt>
      <trkpt lat="10.03248" lon="-84.21363">
        <ele>1005.2</ele>
        <time>2022-05-14 17:53:12</time>
      </trkpt>
      <trkpt lat="10.03243" lon="-84.21367">
        <ele>1005</ele>
        <time>2022-05-14 17:53:13</time>
      </trkpt>
      <trkpt lat="10.03238" lon="-84.21371">
        <ele>1005</ele>
        <time>2022-05-14 17:53:14</time>
      </trkpt>
      <trkpt lat="10.03232" lon="-84.21373">
        <ele>1004.6</ele>
        <time>2022-05-14 17:53:15</time>
      </trkpt>
      <trkpt lat="10.03221" lon="-84.21383">
        <ele>1004.4</ele>
        <time>2022-05-14 17:53:16</time>
      </trkpt>
      <trkpt lat="10.03214" lon="-84.21387">
        <ele>1004</ele>
        <time>2022-05-14 17:53:17</time>
      </trkpt>
      <trkpt lat="10.03208" lon="-84.21392">
        <ele>1003.8</ele>
        <time>2022-05-14 17:53:18</time>
      </trkpt>
      <trkpt lat="10.03201" lon="-84.21397">
        <ele>1003.6</ele>
        <time>2022-05-14 17:53:19</time>
      </trkpt>
      <trkpt lat="10.03194" lon="-84.21401">
        <ele>1003.4</ele>
        <time>2022-05-14 17:53:20</time>
      </trkpt>
      <trkpt lat="10.03194" lon="-84.21401">
        <ele>1003.4</ele>
        <time>2022-05-14 17:53:21</time>
      </trkpt>
      <trkpt lat="10.03187" lon="-84.21405">
        <ele>1003.4</ele>
        <time>2022-05-14 17:53:22</time>
      </trkpt>
      <trkpt lat="10.0318" lon="-84.21409">
        <ele>1003.2</ele>
        <time>2022-05-14 17:53:23</time>
      </trkpt>
      <trkpt lat="10.03173" lon="-84.21414">
        <ele>1003</ele>
        <time>2022-05-14 17:53:24</time>
      </trkpt>
      <trkpt lat="10.03165" lon="-84.21419">
        <ele>1002.8</ele>
        <time>2022-05-14 17:53:25</time>
      </trkpt>
      <trkpt lat="10.03158" lon="-84.21423">
        <ele>1002.4</ele>
        <time>2022-05-14 17:53:26</time>
      </trkpt>
      <trkpt lat="10.03143" lon="-84.21432">
        <ele>1002</ele>
        <time>2022-05-14 17:53:27</time>
      </trkpt>
      <trkpt lat="10.03136" lon="-84.21437">
        <ele>1001.6</ele>
        <time>2022-05-14 17:53:28</time>
      </trkpt>
      <trkpt lat="10.03129" lon="-84.21442">
        <ele>1001.2</ele>
        <time>2022-05-14 17:53:29</time>
      </trkpt>
      <trkpt lat="10.03121" lon="-84.21446">
        <ele>1000.8</ele>
        <time>2022-05-14 17:53:30</time>
      </trkpt>
      <trkpt lat="10.03121" lon="-84.21446">
        <ele>1000.6</ele>
        <time>2022-05-14 17:53:31</time>
      </trkpt>
      <trkpt lat="10.03114" lon="-84.21451">
        <ele>1000.4</ele>
        <time>2022-05-14 17:53:32</time>
      </trkpt>
      <trkpt lat="10.03106" lon="-84.21454">
        <ele>1000.2</ele>
        <time>2022-05-14 17:53:33</time>
      </trkpt>
      <trkpt lat="10.03098" lon="-84.21457">
        <ele>999.8</ele>
        <time>2022-05-14 17:53:34</time>
      </trkpt>
      <trkpt lat="10.0309" lon="-84.2146">
        <ele>999.4</ele>
        <time>2022-05-14 17:53:35</time>
      </trkpt>
      <trkpt lat="10.0309" lon="-84.2146">
        <ele>999</ele>
        <time>2022-05-14 17:53:36</time>
      </trkpt>
      <trkpt lat="10.03062" lon="-84.2147">
        <ele>998.6</ele>
        <time>2022-05-14 17:53:37</time>
      </trkpt>
      <trkpt lat="10.03053" lon="-84.21473">
        <ele>998.2</ele>
        <time>2022-05-14 17:53:38</time>
      </trkpt>
      <trkpt lat="10.03043" lon="-84.21476">
        <ele>997.8</ele>
        <time>2022-05-14 17:53:39</time>
      </trkpt>
      <trkpt lat="10.03033" lon="-84.2148">
        <ele>997.4</ele>
        <time>2022-05-14 17:53:40</time>
      </trkpt>
      <trkpt lat="10.03024" lon="-84.21483">
        <ele>997</ele>
        <time>2022-05-14 17:53:41</time>
      </trkpt>
      <trkpt lat="10.03024" lon="-84.21483">
        <ele>997</ele>
        <time>2022-05-14 17:53:42</time>
      </trkpt>
      <trkpt lat="10.03014" lon="-84.21486">
        <ele>996.6</ele>
        <time>2022-05-14 17:53:43</time>
      </trkpt>
      <trkpt lat="10.03004" lon="-84.21489">
        <ele>996.2</ele>
        <time>2022-05-14 17:53:44</time>
      </trkpt>
      <trkpt lat="10.02994" lon="-84.21492">
        <ele>996</ele>
        <time>2022-05-14 17:53:45</time>
      </trkpt>
      <trkpt lat="10.02984" lon="-84.21495">
        <ele>995.6</ele>
        <time>2022-05-14 17:53:46</time>
      </trkpt>
      <trkpt lat="10.02984" lon="-84.21495">
        <ele>995.2</ele>
        <time>2022-05-14 17:53:47</time>
      </trkpt>
      <trkpt lat="10.02955" lon="-84.21504">
        <ele>995</ele>
        <time>2022-05-14 17:53:48</time>
      </trkpt>
      <trkpt lat="10.02946" lon="-84.21507">
        <ele>994.8</ele>
        <time>2022-05-14 17:53:49</time>
      </trkpt>
      <trkpt lat="10.02936" lon="-84.2151">
        <ele>994.6</ele>
        <time>2022-05-14 17:53:50</time>
      </trkpt>
      <trkpt lat="10.02926" lon="-84.21512">
        <ele>994.2</ele>
        <time>2022-05-14 17:53:51</time>
      </trkpt>
      <trkpt lat="10.02926" lon="-84.21512">
        <ele>994</ele>
        <time>2022-05-14 17:53:52</time>
      </trkpt>
      <trkpt lat="10.02916" lon="-84.21516">
        <ele>993.6</ele>
        <time>2022-05-14 17:53:53</time>
      </trkpt>
      <trkpt lat="10.02906" lon="-84.21518">
        <ele>993.2</ele>
        <time>2022-05-14 17:53:54</time>
      </trkpt>
      <trkpt lat="10.02896" lon="-84.21521">
        <ele>993</ele>
        <time>2022-05-14 17:53:55</time>
      </trkpt>
      <trkpt lat="10.02886" lon="-84.21524">
        <ele>992.6</ele>
        <time>2022-05-14 17:53:56</time>
      </trkpt>
      <trkpt lat="10.02867" lon="-84.2153">
        <ele>992.4</ele>
        <time>2022-05-14 17:53:57</time>
      </trkpt>
      <trkpt lat="10.02857" lon="-84.21532">
        <ele>992.2</ele>
        <time>2022-05-14 17:53:58</time>
      </trkpt>
      <trkpt lat="10.02847" lon="-84.21535">
        <ele>992</ele>
        <time>2022-05-14 17:53:59</time>
      </trkpt>
      <trkpt lat="10.02837" lon="-84.21538">
        <ele>992</ele>
        <time>2022-05-14 17:54:00</time>
      </trkpt>
      <trkpt lat="10.02828" lon="-84.2154">
        <ele>991.6</ele>
        <time>2022-05-14 17:54:01</time>
      </trkpt>
      <trkpt lat="10.02818" lon="-84.21542">
        <ele>991.2</ele>
        <time>2022-05-14 17:54:02</time>
      </trkpt>
      <trkpt lat="10.02818" lon="-84.21542">
        <ele>991.2</ele>
        <time>2022-05-14 17:54:03</time>
      </trkpt>
      <trkpt lat="10.02808" lon="-84.21544">
        <ele>990.8</ele>
        <time>2022-05-14 17:54:04</time>
      </trkpt>
      <trkpt lat="10.02798" lon="-84.21546">
        <ele>990.4</ele>
        <time>2022-05-14 17:54:05</time>
      </trkpt>
      <trkpt lat="10.02789" lon="-84.21548">
        <ele>990</ele>
        <time>2022-05-14 17:54:06</time>
      </trkpt>
      <trkpt lat="10.02779" lon="-84.2155">
        <ele>989.4</ele>
        <time>2022-05-14 17:54:07</time>
      </trkpt>
      <trkpt lat="10.02759" lon="-84.21554">
        <ele>989</ele>
        <time>2022-05-14 17:54:08</time>
      </trkpt>
      <trkpt lat="10.0275" lon="-84.21555">
        <ele>988.4</ele>
        <time>2022-05-14 17:54:09</time>
      </trkpt>
      <trkpt lat="10.02742" lon="-84.21557">
        <ele>988</ele>
        <time>2022-05-14 17:54:10</time>
      </trkpt>
      <trkpt lat="10.02734" lon="-84.21559">
        <ele>987.6</ele>
        <time>2022-05-14 17:54:11</time>
      </trkpt>
      <trkpt lat="10.02727" lon="-84.2156">
        <ele>987.2</ele>
        <time>2022-05-14 17:54:12</time>
      </trkpt>
      <trkpt lat="10.02727" lon="-84.2156">
        <ele>986.8</ele>
        <time>2022-05-14 17:54:13</time>
      </trkpt>
      <trkpt lat="10.02722" lon="-84.21561">
        <ele>986.4</ele>
        <time>2022-05-14 17:54:14</time>
      </trkpt>
      <trkpt lat="10.02716" lon="-84.21563">
        <ele>986.2</ele>
        <time>2022-05-14 17:54:15</time>
      </trkpt>
      <trkpt lat="10.02711" lon="-84.21565">
        <ele>985.6</ele>
        <time>2022-05-14 17:54:16</time>
      </trkpt>
      <trkpt lat="10.02711" lon="-84.21565">
        <ele>984.8</ele>
        <time>2022-05-14 17:54:17</time>
      </trkpt>
      <trkpt lat="10.02693" lon="-84.2157">
        <ele>984.4</ele>
        <time>2022-05-14 17:54:18</time>
      </trkpt>
      <trkpt lat="10.02687" lon="-84.21574">
        <ele>984.4</ele>
        <time>2022-05-14 17:54:19</time>
      </trkpt>
      <trkpt lat="10.02681" lon="-84.21577">
        <ele>984.8</ele>
        <time>2022-05-14 17:54:20</time>
      </trkpt>
      <trkpt lat="10.02675" lon="-84.21581">
        <ele>984.8</ele>
        <time>2022-05-14 17:54:21</time>
      </trkpt>
      <trkpt lat="10.02668" lon="-84.21585">
        <ele>984.6</ele>
        <time>2022-05-14 17:54:22</time>
      </trkpt>
      <trkpt lat="10.02662" lon="-84.2159">
        <ele>984.4</ele>
        <time>2022-05-14 17:54:23</time>
      </trkpt>
      <trkpt lat="10.02662" lon="-84.2159">
        <ele>984.4</ele>
        <time>2022-05-14 17:54:24</time>
      </trkpt>
      <trkpt lat="10.02656" lon="-84.21595">
        <ele>984.2</ele>
        <time>2022-05-14 17:54:25</time>
      </trkpt>
      <trkpt lat="10.02651" lon="-84.21599">
        <ele>984</ele>
        <time>2022-05-14 17:54:26</time>
      </trkpt>
      <trkpt lat="10.02645" lon="-84.21604">
        <ele>984</ele>
        <time>2022-05-14 17:54:27</time>
      </trkpt>
      <trkpt lat="10.02645" lon="-84.21604">
        <ele>983.6</ele>
        <time>2022-05-14 17:54:28</time>
      </trkpt>
      <trkpt lat="10.02627" lon="-84.21619">
        <ele>983.4</ele>
        <time>2022-05-14 17:54:29</time>
      </trkpt>
      <trkpt lat="10.02621" lon="-84.21623">
        <ele>982.8</ele>
        <time>2022-05-14 17:54:30</time>
      </trkpt>
      <trkpt lat="10.02615" lon="-84.21629">
        <ele>982.6</ele>
        <time>2022-05-14 17:54:31</time>
      </trkpt>
      <trkpt lat="10.02608" lon="-84.21633">
        <ele>982.2</ele>
        <time>2022-05-14 17:54:32</time>
      </trkpt>
      <trkpt lat="10.02602" lon="-84.21638">
        <ele>981.8</ele>
        <time>2022-05-14 17:54:33</time>
      </trkpt>
      <trkpt lat="10.02602" lon="-84.21638">
        <ele>981.4</ele>
        <time>2022-05-14 17:54:34</time>
      </trkpt>
      <trkpt lat="10.02594" lon="-84.21644">
        <ele>981</ele>
        <time>2022-05-14 17:54:35</time>
      </trkpt>
      <trkpt lat="10.02587" lon="-84.21648">
        <ele>980.6</ele>
        <time>2022-05-14 17:54:36</time>
      </trkpt>
      <trkpt lat="10.0258" lon="-84.21654">
        <ele>980.2</ele>
        <time>2022-05-14 17:54:37</time>
      </trkpt>
      <trkpt lat="10.02563" lon="-84.21663">
        <ele>979.6</ele>
        <time>2022-05-14 17:54:38</time>
      </trkpt>
      <trkpt lat="10.02555" lon="-84.21667">
        <ele>979</ele>
        <time>2022-05-14 17:54:39</time>
      </trkpt>
      <trkpt lat="10.02546" lon="-84.21672">
        <ele>978.4</ele>
        <time>2022-05-14 17:54:40</time>
      </trkpt>
      <trkpt lat="10.02538" lon="-84.21677">
        <ele>977.8</ele>
        <time>2022-05-14 17:54:41</time>
      </trkpt>
      <trkpt lat="10.02529" lon="-84.21681">
        <ele>977.2</ele>
        <time>2022-05-14 17:54:42</time>
      </trkpt>
      <trkpt lat="10.0252" lon="-84.21687">
        <ele>976.6</ele>
        <time>2022-05-14 17:54:43</time>
      </trkpt>
      <trkpt lat="10.02511" lon="-84.21691">
        <ele>976</ele>
        <time>2022-05-14 17:54:44</time>
      </trkpt>
      <trkpt lat="10.02511" lon="-84.21691">
        <ele>976</ele>
        <time>2022-05-14 17:54:45</time>
      </trkpt>
      <trkpt lat="10.02502" lon="-84.21696">
        <ele>975.4</ele>
        <time>2022-05-14 17:54:46</time>
      </trkpt>
      <trkpt lat="10.02492" lon="-84.21701">
        <ele>974.8</ele>
        <time>2022-05-14 17:54:47</time>
      </trkpt>
      <trkpt lat="10.02483" lon="-84.21706">
        <ele>974</ele>
        <time>2022-05-14 17:54:48</time>
      </trkpt>
      <trkpt lat="10.02463" lon="-84.21713">
        <ele>973.4</ele>
        <time>2022-05-14 17:54:49</time>
      </trkpt>
      <trkpt lat="10.02453" lon="-84.21715">
        <ele>973</ele>
        <time>2022-05-14 17:54:50</time>
      </trkpt>
      <trkpt lat="10.02443" lon="-84.21716">
        <ele>972.6</ele>
        <time>2022-05-14 17:54:51</time>
      </trkpt>
      <trkpt lat="10.02432" lon="-84.21716">
        <ele>972.2</ele>
        <time>2022-05-14 17:54:52</time>
      </trkpt>
      <trkpt lat="10.02422" lon="-84.21714">
        <ele>971.6</ele>
        <time>2022-05-14 17:54:53</time>
      </trkpt>
      <trkpt lat="10.02411" lon="-84.21713">
        <ele>971</ele>
        <time>2022-05-14 17:54:54</time>
      </trkpt>
      <trkpt lat="10.02411" lon="-84.21713">
        <ele>970.4</ele>
        <time>2022-05-14 17:54:55</time>
      </trkpt>
      <trkpt lat="10.02401" lon="-84.2171">
        <ele>969.8</ele>
        <time>2022-05-14 17:54:56</time>
      </trkpt>
      <trkpt lat="10.02391" lon="-84.21708">
        <ele>969.2</ele>
        <time>2022-05-14 17:54:57</time>
      </trkpt>
      <trkpt lat="10.02381" lon="-84.21705">
        <ele>968.4</ele>
        <time>2022-05-14 17:54:58</time>
      </trkpt>
      <trkpt lat="10.0236" lon="-84.217">
        <ele>967.6</ele>
        <time>2022-05-14 17:54:59</time>
      </trkpt>
      <trkpt lat="10.0235" lon="-84.21696">
        <ele>967</ele>
        <time>2022-05-14 17:55:00</time>
      </trkpt>
      <trkpt lat="10.0234" lon="-84.21693">
        <ele>966.4</ele>
        <time>2022-05-14 17:55:01</time>
      </trkpt>
      <trkpt lat="10.0233" lon="-84.21691">
        <ele>965.6</ele>
        <time>2022-05-14 17:55:02</time>
      </trkpt>
      <trkpt lat="10.0232" lon="-84.21687">
        <ele>964.6</ele>
        <time>2022-05-14 17:55:03</time>
      </trkpt>
      <trkpt lat="10.0231" lon="-84.21684">
        <ele>964</ele>
        <time>2022-05-14 17:55:04</time>
      </trkpt>
      <trkpt lat="10.023" lon="-84.21681">
        <ele>963.2</ele>
        <time>2022-05-14 17:55:05</time>
      </trkpt>
      <trkpt lat="10.023" lon="-84.21681">
        <ele>963.2</ele>
        <time>2022-05-14 17:55:06</time>
      </trkpt>
      <trkpt lat="10.0229" lon="-84.21678">
        <ele>962.8</ele>
        <time>2022-05-14 17:55:07</time>
      </trkpt>
      <trkpt lat="10.0228" lon="-84.21674">
        <ele>962.2</ele>
        <time>2022-05-14 17:55:08</time>
      </trkpt>
      <trkpt lat="10.0228" lon="-84.21674">
        <ele>961.8</ele>
        <time>2022-05-14 17:55:09</time>
      </trkpt>
      <trkpt lat="10.02256" lon="-84.21656">
        <ele>961.4</ele>
        <time>2022-05-14 17:55:10</time>
      </trkpt>
      <trkpt lat="10.0225" lon="-84.21648">
        <ele>961.6</ele>
        <time>2022-05-14 17:55:11</time>
      </trkpt>
      <trkpt lat="10.02243" lon="-84.21641">
        <ele>961.4</ele>
        <time>2022-05-14 17:55:12</time>
      </trkpt>
      <trkpt lat="10.02236" lon="-84.21634">
        <ele>960.8</ele>
        <time>2022-05-14 17:55:13</time>
      </trkpt>
      <trkpt lat="10.02229" lon="-84.21627">
        <ele>960.6</ele>
        <time>2022-05-14 17:55:14</time>
      </trkpt>
      <trkpt lat="10.02222" lon="-84.21622">
        <ele>960.6</ele>
        <time>2022-05-14 17:55:15</time>
      </trkpt>
      <trkpt lat="10.02222" lon="-84.21622">
        <ele>960.8</ele>
        <time>2022-05-14 17:55:16</time>
      </trkpt>
      <trkpt lat="10.02214" lon="-84.21618">
        <ele>961</ele>
        <time>2022-05-14 17:55:17</time>
      </trkpt>
      <trkpt lat="10.02207" lon="-84.21613">
        <ele>961.2</ele>
        <time>2022-05-14 17:55:18</time>
      </trkpt>
      <trkpt lat="10.02207" lon="-84.21613">
        <ele>961.4</ele>
        <time>2022-05-14 17:55:19</time>
      </trkpt>
      <trkpt lat="10.02188" lon="-84.21604">
        <ele>961.8</ele>
        <time>2022-05-14 17:55:20</time>
      </trkpt>
      <trkpt lat="10.02182" lon="-84.216">
        <ele>962.2</ele>
        <time>2022-05-14 17:55:21</time>
      </trkpt>
      <trkpt lat="10.02176" lon="-84.21597">
        <ele>962.6</ele>
        <time>2022-05-14 17:55:22</time>
      </trkpt>
      <trkpt lat="10.02171" lon="-84.21595">
        <ele>963</ele>
        <time>2022-05-14 17:55:23</time>
      </trkpt>
      <trkpt lat="10.02166" lon="-84.21593">
        <ele>963.2</ele>
        <time>2022-05-14 17:55:24</time>
      </trkpt>
      <trkpt lat="10.02161" lon="-84.2159">
        <ele>963.6</ele>
        <time>2022-05-14 17:55:25</time>
      </trkpt>
      <trkpt lat="10.02156" lon="-84.21588">
        <ele>963.8</ele>
        <time>2022-05-14 17:55:26</time>
      </trkpt>
      <trkpt lat="10.02156" lon="-84.21588">
        <ele>963.8</ele>
        <time>2022-05-14 17:55:27</time>
      </trkpt>
      <trkpt lat="10.02151" lon="-84.21586">
        <ele>964.2</ele>
        <time>2022-05-14 17:55:28</time>
      </trkpt>
      <trkpt lat="10.02146" lon="-84.21584">
        <ele>964.6</ele>
        <time>2022-05-14 17:55:29</time>
      </trkpt>
      <trkpt lat="10.02146" lon="-84.21584">
        <ele>965</ele>
        <time>2022-05-14 17:55:30</time>
      </trkpt>
      <trkpt lat="10.02132" lon="-84.21577">
        <ele>965.2</ele>
        <time>2022-05-14 17:55:31</time>
      </trkpt>
      <trkpt lat="10.02128" lon="-84.21575">
        <ele>965.4</ele>
        <time>2022-05-14 17:55:32</time>
      </trkpt>
      <trkpt lat="10.02123" lon="-84.21574">
        <ele>965.6</ele>
        <time>2022-05-14 17:55:33</time>
      </trkpt>
      <trkpt lat="10.02119" lon="-84.21571">
        <ele>966</ele>
        <time>2022-05-14 17:55:34</time>
      </trkpt>
      <trkpt lat="10.02115" lon="-84.21569">
        <ele>966.2</ele>
        <time>2022-05-14 17:55:35</time>
      </trkpt>
      <trkpt lat="10.02111" lon="-84.21568">
        <ele>966.4</ele>
        <time>2022-05-14 17:55:36</time>
      </trkpt>
      <trkpt lat="10.02111" lon="-84.21568">
        <ele>966.8</ele>
        <time>2022-05-14 17:55:37</time>
      </trkpt>
      <trkpt lat="10.02107" lon="-84.21566">
        <ele>967.4</ele>
        <time>2022-05-14 17:55:38</time>
      </trkpt>
      <trkpt lat="10.02103" lon="-84.21564">
        <ele>967.6</ele>
        <time>2022-05-14 17:55:39</time>
      </trkpt>
      <trkpt lat="10.02095" lon="-84.21561">
        <ele>967.8</ele>
        <time>2022-05-14 17:55:40</time>
      </trkpt>
      <trkpt lat="10.02091" lon="-84.21559">
        <ele>967.8</ele>
        <time>2022-05-14 17:55:41</time>
      </trkpt>
      <trkpt lat="10.02087" lon="-84.21557">
        <ele>967.8</ele>
        <time>2022-05-14 17:55:42</time>
      </trkpt>
      <trkpt lat="10.02083" lon="-84.21555">
        <ele>968.2</ele>
        <time>2022-05-14 17:55:43</time>
      </trkpt>
      <trkpt lat="10.02079" lon="-84.21554">
        <ele>968.4</ele>
        <time>2022-05-14 17:55:44</time>
      </trkpt>
      <trkpt lat="10.02076" lon="-84.21552">
        <ele>968.6</ele>
        <time>2022-05-14 17:55:45</time>
      </trkpt>
      <trkpt lat="10.02072" lon="-84.21551">
        <ele>968.8</ele>
        <time>2022-05-14 17:55:46</time>
      </trkpt>
      <trkpt lat="10.02069" lon="-84.21549">
        <ele>969</ele>
        <time>2022-05-14 17:55:47</time>
      </trkpt>
      <trkpt lat="10.02069" lon="-84.21549">
        <ele>969</ele>
        <time>2022-05-14 17:55:48</time>
      </trkpt>
      <trkpt lat="10.02065" lon="-84.21548">
        <ele>969.4</ele>
        <time>2022-05-14 17:55:49</time>
      </trkpt>
      <trkpt lat="10.02061" lon="-84.21547">
        <ele>969.6</ele>
        <time>2022-05-14 17:55:50</time>
      </trkpt>
      <trkpt lat="10.02055" lon="-84.21545">
        <ele>969.8</ele>
        <time>2022-05-14 17:55:51</time>
      </trkpt>
      <trkpt lat="10.02052" lon="-84.21543">
        <ele>970</ele>
        <time>2022-05-14 17:55:52</time>
      </trkpt>
      <trkpt lat="10.0205" lon="-84.21542">
        <ele>970.2</ele>
        <time>2022-05-14 17:55:53</time>
      </trkpt>
      <trkpt lat="10.02047" lon="-84.21541">
        <ele>970.2</ele>
        <time>2022-05-14 17:55:54</time>
      </trkpt>
      <trkpt lat="10.02044" lon="-84.2154">
        <ele>970.4</ele>
        <time>2022-05-14 17:55:55</time>
      </trkpt>
      <trkpt lat="10.02041" lon="-84.21539">
        <ele>970.6</ele>
        <time>2022-05-14 17:55:56</time>
      </trkpt>
      <trkpt lat="10.02038" lon="-84.21538">
        <ele>970.8</ele>
        <time>2022-05-14 17:55:57</time>
      </trkpt>
      <trkpt lat="10.02038" lon="-84.21538">
        <ele>971</ele>
        <time>2022-05-14 17:55:58</time>
      </trkpt>
      <trkpt lat="10.02036" lon="-84.21537">
        <ele>971.2</ele>
        <time>2022-05-14 17:55:59</time>
      </trkpt>
      <trkpt lat="10.02036" lon="-84.21537">
        <ele>971.4</ele>
        <time>2022-05-14 17:56:00</time>
      </trkpt>
      <trkpt lat="10.02026" lon="-84.21542">
        <ele>971.6</ele>
        <time>2022-05-14 17:56:01</time>
      </trkpt>
      <trkpt lat="10.02024" lon="-84.21545">
        <ele>971.6</ele>
        <time>2022-05-14 17:56:02</time>
      </trkpt>
      <trkpt lat="10.02022" lon="-84.21548">
        <ele>971.8</ele>
        <time>2022-05-14 17:56:03</time>
      </trkpt>
      <trkpt lat="10.02021" lon="-84.21553">
        <ele>971.8</ele>
        <time>2022-05-14 17:56:04</time>
      </trkpt>
      <trkpt lat="10.0202" lon="-84.21557">
        <ele>971.8</ele>
        <time>2022-05-14 17:56:05</time>
      </trkpt>
      <trkpt lat="10.02018" lon="-84.21561">
        <ele>971.8</ele>
        <time>2022-05-14 17:56:06</time>
      </trkpt>
      <trkpt lat="10.02017" lon="-84.21566">
        <ele>971.6</ele>
        <time>2022-05-14 17:56:07</time>
      </trkpt>
      <trkpt lat="10.02015" lon="-84.2157">
        <ele>971.4</ele>
        <time>2022-05-14 17:56:08</time>
      </trkpt>
      <trkpt lat="10.02015" lon="-84.2157">
        <ele>971.4</ele>
        <time>2022-05-14 17:56:09</time>
      </trkpt>
      <trkpt lat="10.02014" lon="-84.21575">
        <ele>971.4</ele>
        <time>2022-05-14 17:56:10</time>
      </trkpt>
      <trkpt lat="10.02014" lon="-84.21575">
        <ele>971.2</ele>
        <time>2022-05-14 17:56:11</time>
      </trkpt>
      <trkpt lat="10.02009" lon="-84.21588">
        <ele>971.2</ele>
        <time>2022-05-14 17:56:12</time>
      </trkpt>
      <trkpt lat="10.02008" lon="-84.21592">
        <ele>971.2</ele>
        <time>2022-05-14 17:56:13</time>
      </trkpt>
      <trkpt lat="10.02006" lon="-84.21597">
        <ele>971.2</ele>
        <time>2022-05-14 17:56:14</time>
      </trkpt>
      <trkpt lat="10.02005" lon="-84.21601">
        <ele>971</ele>
        <time>2022-05-14 17:56:15</time>
      </trkpt>
      <trkpt lat="10.02004" lon="-84.21605">
        <ele>971</ele>
        <time>2022-05-14 17:56:16</time>
      </trkpt>
      <trkpt lat="10.02002" lon="-84.2161">
        <ele>970.8</ele>
        <time>2022-05-14 17:56:17</time>
      </trkpt>
      <trkpt lat="10.01999" lon="-84.21613">
        <ele>970.8</ele>
        <time>2022-05-14 17:56:18</time>
      </trkpt>
      <trkpt lat="10.01999" lon="-84.21613">
        <ele>970.8</ele>
        <time>2022-05-14 17:56:19</time>
      </trkpt>
      <trkpt lat="10.01995" lon="-84.21616">
        <ele>970.6</ele>
        <time>2022-05-14 17:56:20</time>
      </trkpt>
      <trkpt lat="10.01995" lon="-84.21616">
        <ele>970.6</ele>
        <time>2022-05-14 17:56:21</time>
      </trkpt>
      <trkpt lat="10.01982" lon="-84.21615">
        <ele>970.6</ele>
        <time>2022-05-14 17:56:22</time>
      </trkpt>
      <trkpt lat="10.01978" lon="-84.21615">
        <ele>970.8</ele>
        <time>2022-05-14 17:56:23</time>
      </trkpt>
      <trkpt lat="10.01974" lon="-84.21614">
        <ele>971.2</ele>
        <time>2022-05-14 17:56:24</time>
      </trkpt>
      <trkpt lat="10.01969" lon="-84.21613">
        <ele>971.6</ele>
        <time>2022-05-14 17:56:25</time>
      </trkpt>
      <trkpt lat="10.01965" lon="-84.21613">
        <ele>972</ele>
        <time>2022-05-14 17:56:26</time>
      </trkpt>
      <trkpt lat="10.01961" lon="-84.21611">
        <ele>972.6</ele>
        <time>2022-05-14 17:56:27</time>
      </trkpt>
      <trkpt lat="10.01957" lon="-84.2161">
        <ele>973</ele>
        <time>2022-05-14 17:56:28</time>
      </trkpt>
      <trkpt lat="10.01952" lon="-84.21609">
        <ele>973.4</ele>
        <time>2022-05-14 17:56:29</time>
      </trkpt>
      <trkpt lat="10.01952" lon="-84.21609">
        <ele>973.4</ele>
        <time>2022-05-14 17:56:30</time>
      </trkpt>
      <trkpt lat="10.01947" lon="-84.21608">
        <ele>973.6</ele>
        <time>2022-05-14 17:56:31</time>
      </trkpt>
      <trkpt lat="10.01938" lon="-84.21605">
        <ele>974</ele>
        <time>2022-05-14 17:56:32</time>
      </trkpt>
      <trkpt lat="10.01933" lon="-84.21604">
        <ele>974.2</ele>
        <time>2022-05-14 17:56:33</time>
      </trkpt>
      <trkpt lat="10.01928" lon="-84.21603">
        <ele>974.4</ele>
        <time>2022-05-14 17:56:34</time>
      </trkpt>
      <trkpt lat="10.01923" lon="-84.21601">
        <ele>974.6</ele>
        <time>2022-05-14 17:56:35</time>
      </trkpt>
      <trkpt lat="10.01918" lon="-84.21599">
        <ele>975</ele>
        <time>2022-05-14 17:56:36</time>
      </trkpt>
      <trkpt lat="10.01914" lon="-84.21598">
        <ele>975</ele>
        <time>2022-05-14 17:56:37</time>
      </trkpt>
      <trkpt lat="10.0191" lon="-84.21597">
        <ele>975.2</ele>
        <time>2022-05-14 17:56:38</time>
      </trkpt>
      <trkpt lat="10.01905" lon="-84.21595">
        <ele>975.2</ele>
        <time>2022-05-14 17:56:39</time>
      </trkpt>
      <trkpt lat="10.01905" lon="-84.21595">
        <ele>975.2</ele>
        <time>2022-05-14 17:56:40</time>
      </trkpt>
      <trkpt lat="10.019" lon="-84.21595">
        <ele>975</ele>
        <time>2022-05-14 17:56:41</time>
      </trkpt>
      <trkpt lat="10.01891" lon="-84.21591">
        <ele>975</ele>
        <time>2022-05-14 17:56:42</time>
      </trkpt>
      <trkpt lat="10.01886" lon="-84.2159">
        <ele>974.6</ele>
        <time>2022-05-14 17:56:43</time>
      </trkpt>
      <trkpt lat="10.01881" lon="-84.21589">
        <ele>974.6</ele>
        <time>2022-05-14 17:56:44</time>
      </trkpt>
      <trkpt lat="10.01876" lon="-84.21588">
        <ele>974.4</ele>
        <time>2022-05-14 17:56:45</time>
      </trkpt>
      <trkpt lat="10.01872" lon="-84.21586">
        <ele>974.6</ele>
        <time>2022-05-14 17:56:46</time>
      </trkpt>
      <trkpt lat="10.01867" lon="-84.21586">
        <ele>974.6</ele>
        <time>2022-05-14 17:56:47</time>
      </trkpt>
      <trkpt lat="10.01861" lon="-84.21584">
        <ele>974.6</ele>
        <time>2022-05-14 17:56:48</time>
      </trkpt>
      <trkpt lat="10.01856" lon="-84.21582">
        <ele>974.6</ele>
        <time>2022-05-14 17:56:49</time>
      </trkpt>
      <trkpt lat="10.01851" lon="-84.21581">
        <ele>974.4</ele>
        <time>2022-05-14 17:56:50</time>
      </trkpt>
      <trkpt lat="10.01851" lon="-84.21581">
        <ele>974.4</ele>
        <time>2022-05-14 17:56:51</time>
      </trkpt>
      <trkpt lat="10.01851" lon="-84.21581">
        <ele>974.4</ele>
        <time>2022-05-14 17:56:52</time>
      </trkpt>
      <trkpt lat="10.01839" lon="-84.21577">
        <ele>974.4</ele>
        <time>2022-05-14 17:56:53</time>
      </trkpt>
      <trkpt lat="10.01837" lon="-84.21576">
        <ele>974.2</ele>
        <time>2022-05-14 17:56:54</time>
      </trkpt>
      <trkpt lat="10.01836" lon="-84.21575">
        <ele>974</ele>
        <time>2022-05-14 17:56:55</time>
      </trkpt>
      <trkpt lat="10.01835" lon="-84.21575">
        <ele>973.8</ele>
        <time>2022-05-14 17:56:56</time>
      </trkpt>
      <trkpt lat="10.01835" lon="-84.21575">
        <ele>973.8</ele>
        <time>2022-05-14 17:56:57</time>
      </trkpt>
      <trkpt lat="10.0183" lon="-84.21571">
        <ele>973.6</ele>
        <time>2022-05-14 17:57:20</time>
      </trkpt>
      <trkpt lat="10.01829" lon="-84.2157">
        <ele>973.6</ele>
        <time>2022-05-14 17:57:21</time>
      </trkpt>
      <trkpt lat="10.01829" lon="-84.2157">
        <ele>973.8</ele>
        <time>2022-05-14 17:57:22</time>
      </trkpt>
      <trkpt lat="10.01826" lon="-84.2157">
        <ele>973.8</ele>
        <time>2022-05-14 17:57:23</time>
      </trkpt>
      <trkpt lat="10.01824" lon="-84.21569">
        <ele>973.8</ele>
        <time>2022-05-14 17:57:24</time>
      </trkpt>
      <trkpt lat="10.01822" lon="-84.21568">
        <ele>973.6</ele>
        <time>2022-05-14 17:57:25</time>
      </trkpt>
      <trkpt lat="10.0182" lon="-84.21568">
        <ele>973.6</ele>
        <time>2022-05-14 17:57:26</time>
      </trkpt>
      <trkpt lat="10.01819" lon="-84.21568">
        <ele>973.4</ele>
        <time>2022-05-14 17:57:27</time>
      </trkpt>
      <trkpt lat="10.01818" lon="-84.21568">
        <ele>973.4</ele>
        <time>2022-05-14 17:57:28</time>
      </trkpt>
      <trkpt lat="10.01817" lon="-84.21568">
        <ele>973.2</ele>
        <time>2022-05-14 17:57:29</time>
      </trkpt>
      <trkpt lat="10.01816" lon="-84.21568">
        <ele>973.2</ele>
        <time>2022-05-14 17:57:30</time>
      </trkpt>
      <trkpt lat="10.01814" lon="-84.21568">
        <ele>973</ele>
        <time>2022-05-14 17:57:31</time>
      </trkpt>
      <trkpt lat="10.01811" lon="-84.21566">
        <ele>973</ele>
        <time>2022-05-14 17:57:32</time>
      </trkpt>
      <trkpt lat="10.01811" lon="-84.21566">
        <ele>973</ele>
        <time>2022-05-14 17:57:33</time>
      </trkpt>
      <trkpt lat="10.01807" lon="-84.21563">
        <ele>972.8</ele>
        <time>2022-05-14 17:57:34</time>
      </trkpt>
      <trkpt lat="10.01804" lon="-84.21562">
        <ele>972.8</ele>
        <time>2022-05-14 17:57:35</time>
      </trkpt>
      <trkpt lat="10.01801" lon="-84.21562">
        <ele>972.8</ele>
        <time>2022-05-14 17:57:36</time>
      </trkpt>
      <trkpt lat="10.01798" lon="-84.21561">
        <ele>972.8</ele>
        <time>2022-05-14 17:57:37</time>
      </trkpt>
      <trkpt lat="10.01795" lon="-84.21561">
        <ele>972.6</ele>
        <time>2022-05-14 17:57:38</time>
      </trkpt>
      <trkpt lat="10.01793" lon="-84.21559">
        <ele>972.6</ele>
        <time>2022-05-14 17:57:39</time>
      </trkpt>
      <trkpt lat="10.0179" lon="-84.21559">
        <ele>972.4</ele>
        <time>2022-05-14 17:57:40</time>
      </trkpt>
      <trkpt lat="10.01788" lon="-84.21559">
        <ele>972.4</ele>
        <time>2022-05-14 17:57:41</time>
      </trkpt>
      <trkpt lat="10.01788" lon="-84.21559">
        <ele>972.4</ele>
        <time>2022-05-14 17:57:42</time>
      </trkpt>
      <trkpt lat="10.01788" lon="-84.21559">
        <ele>972.4</ele>
        <time>2022-05-14 17:57:43</time>
      </trkpt>
      <trkpt lat="10.0178" lon="-84.21556">
        <ele>972.2</ele>
        <time>2022-05-14 17:57:44</time>
      </trkpt>
      <trkpt lat="10.01778" lon="-84.21555">
        <ele>972.2</ele>
        <time>2022-05-14 17:57:45</time>
      </trkpt>
      <trkpt lat="10.01776" lon="-84.21555">
        <ele>972.2</ele>
        <time>2022-05-14 17:57:46</time>
      </trkpt>
      <trkpt lat="10.01774" lon="-84.21554">
        <ele>972</ele>
        <time>2022-05-14 17:57:47</time>
      </trkpt>
      <trkpt lat="10.01772" lon="-84.21553">
        <ele>972</ele>
        <time>2022-05-14 17:57:48</time>
      </trkpt>
      <trkpt lat="10.01769" lon="-84.21552">
        <ele>971.8</ele>
        <time>2022-05-14 17:57:49</time>
      </trkpt>
      <trkpt lat="10.01765" lon="-84.21551">
        <ele>971.8</ele>
        <time>2022-05-14 17:57:50</time>
      </trkpt>
      <trkpt lat="10.01761" lon="-84.2155">
        <ele>971.8</ele>
        <time>2022-05-14 17:57:51</time>
      </trkpt>
      <trkpt lat="10.01756" lon="-84.21548">
        <ele>971.8</ele>
        <time>2022-05-14 17:57:52</time>
      </trkpt>
      <trkpt lat="10.01756" lon="-84.21548">
        <ele>971.8</ele>
        <time>2022-05-14 17:57:53</time>
      </trkpt>
      <trkpt lat="10.01756" lon="-84.21548">
        <ele>971.8</ele>
        <time>2022-05-14 17:57:54</time>
      </trkpt>
      <trkpt lat="10.01746" lon="-84.21548">
        <ele>971.8</ele>
        <time>2022-05-14 17:57:55</time>
      </trkpt>
      <trkpt lat="10.01744" lon="-84.21548">
        <ele>971.8</ele>
        <time>2022-05-14 17:57:56</time>
      </trkpt>
      <trkpt lat="10.01741" lon="-84.21547">
        <ele>971.8</ele>
        <time>2022-05-14 17:57:57</time>
      </trkpt>
      <trkpt lat="10.01738" lon="-84.21545">
        <ele>971.6</ele>
        <time>2022-05-14 17:57:58</time>
      </trkpt>
      <trkpt lat="10.01735" lon="-84.21545">
        <ele>971.6</ele>
        <time>2022-05-14 17:57:59</time>
      </trkpt>
      <trkpt lat="10.01731" lon="-84.21544">
        <ele>971.4</ele>
        <time>2022-05-14 17:58:00</time>
      </trkpt>
      <trkpt lat="10.01727" lon="-84.21542">
        <ele>971.4</ele>
        <time>2022-05-14 17:58:01</time>
      </trkpt>
      <trkpt lat="10.01723" lon="-84.21541">
        <ele>971.2</ele>
        <time>2022-05-14 17:58:02</time>
      </trkpt>
      <trkpt lat="10.01723" lon="-84.21541">
        <ele>971.2</ele>
        <time>2022-05-14 17:58:03</time>
      </trkpt>
      <trkpt lat="10.01714" lon="-84.21539">
        <ele>971.2</ele>
        <time>2022-05-14 17:58:04</time>
      </trkpt>
      <trkpt lat="10.0171" lon="-84.21539">
        <ele>971</ele>
        <time>2022-05-14 17:58:05</time>
      </trkpt>
      <trkpt lat="10.01705" lon="-84.21537">
        <ele>970.8</ele>
        <time>2022-05-14 17:58:06</time>
      </trkpt>
      <trkpt lat="10.01701" lon="-84.21537">
        <ele>970.6</ele>
        <time>2022-05-14 17:58:07</time>
      </trkpt>
      <trkpt lat="10.01697" lon="-84.21535">
        <ele>970.4</ele>
        <time>2022-05-14 17:58:08</time>
      </trkpt>
      <trkpt lat="10.01693" lon="-84.21535">
        <ele>970.4</ele>
        <time>2022-05-14 17:58:09</time>
      </trkpt>
      <trkpt lat="10.01688" lon="-84.21534">
        <ele>970.4</ele>
        <time>2022-05-14 17:58:10</time>
      </trkpt>
      <trkpt lat="10.01684" lon="-84.21532">
        <ele>970.2</ele>
        <time>2022-05-14 17:58:11</time>
      </trkpt>
      <trkpt lat="10.0168" lon="-84.21532">
        <ele>970.2</ele>
        <time>2022-05-14 17:58:12</time>
      </trkpt>
      <trkpt lat="10.01678" lon="-84.21531">
        <ele>970</ele>
        <time>2022-05-14 17:58:13</time>
      </trkpt>
      <trkpt lat="10.01678" lon="-84.21531">
        <ele>970</ele>
        <time>2022-05-14 17:58:14</time>
      </trkpt>
      <trkpt lat="10.01673" lon="-84.2153">
        <ele>970</ele>
        <time>2022-05-14 17:58:15</time>
      </trkpt>
      <trkpt lat="10.01672" lon="-84.2153">
        <ele>969.8</ele>
        <time>2022-05-14 17:58:16</time>
      </trkpt>
      <trkpt lat="10.01671" lon="-84.2153">
        <ele>969.8</ele>
        <time>2022-05-14 17:58:17</time>
      </trkpt>
      <trkpt lat="10.01666" lon="-84.21528">
        <ele>969.8</ele>
        <time>2022-05-14 17:58:41</time>
      </trkpt>
      <trkpt lat="10.01665" lon="-84.21527">
        <ele>969.8</ele>
        <time>2022-05-14 17:58:42</time>
      </trkpt>
      <trkpt lat="10.01664" lon="-84.21527">
        <ele>969.8</ele>
        <time>2022-05-14 17:58:43</time>
      </trkpt>
      <trkpt lat="10.01664" lon="-84.21527">
        <ele>969.8</ele>
        <time>2022-05-14 17:58:44</time>
      </trkpt>
      <trkpt lat="10.01664" lon="-84.21527">
        <ele>969.8</ele>
        <time>2022-05-14 17:58:45</time>
      </trkpt>
      <trkpt lat="10.0166" lon="-84.21526">
        <ele>969.8</ele>
        <time>2022-05-14 17:58:46</time>
      </trkpt>
      <trkpt lat="10.01658" lon="-84.21526">
        <ele>969.8</ele>
        <time>2022-05-14 17:58:47</time>
      </trkpt>
      <trkpt lat="10.01656" lon="-84.21524">
        <ele>969.6</ele>
        <time>2022-05-14 17:58:48</time>
      </trkpt>
      <trkpt lat="10.01653" lon="-84.21523">
        <ele>969.4</ele>
        <time>2022-05-14 17:58:49</time>
      </trkpt>
      <trkpt lat="10.0165" lon="-84.21522">
        <ele>969.2</ele>
        <time>2022-05-14 17:58:50</time>
      </trkpt>
      <trkpt lat="10.01647" lon="-84.21521">
        <ele>969.2</ele>
        <time>2022-05-14 17:58:51</time>
      </trkpt>
      <trkpt lat="10.01643" lon="-84.21519">
        <ele>969</ele>
        <time>2022-05-14 17:58:52</time>
      </trkpt>
      <trkpt lat="10.0164" lon="-84.21519">
        <ele>969</ele>
        <time>2022-05-14 17:58:53</time>
      </trkpt>
      <trkpt lat="10.01636" lon="-84.21518">
        <ele>968.6</ele>
        <time>2022-05-14 17:58:54</time>
      </trkpt>
      <trkpt lat="10.01636" lon="-84.21518">
        <ele>968.4</ele>
        <time>2022-05-14 17:58:55</time>
      </trkpt>
      <trkpt lat="10.01636" lon="-84.21518">
        <ele>968.2</ele>
        <time>2022-05-14 17:58:56</time>
      </trkpt>
      <trkpt lat="10.0163" lon="-84.21516">
        <ele>968.2</ele>
        <time>2022-05-14 17:58:57</time>
      </trkpt>
      <trkpt lat="10.01628" lon="-84.21516">
        <ele>968.2</ele>
        <time>2022-05-14 17:58:58</time>
      </trkpt>
      <trkpt lat="10.01627" lon="-84.21516">
        <ele>968</ele>
        <time>2022-05-14 17:58:59</time>
      </trkpt>
      <trkpt lat="10.01626" lon="-84.21516">
        <ele>968</ele>
        <time>2022-05-14 17:59:00</time>
      </trkpt>
      <trkpt lat="10.01625" lon="-84.21516">
        <ele>968</ele>
        <time>2022-05-14 17:59:01</time>
      </trkpt>
      <trkpt lat="10.01625" lon="-84.21516">
        <ele>968.2</ele>
        <time>2022-05-14 17:59:02</time>
      </trkpt>
      <trkpt lat="10.01623" lon="-84.21516">
        <ele>967.8</ele>
        <time>2022-05-14 17:59:04</time>
      </trkpt>
      <trkpt lat="10.01623" lon="-84.21516">
        <ele>967.6</ele>
        <time>2022-05-14 17:59:05</time>
      </trkpt>
      <trkpt lat="10.0162" lon="-84.21514">
        <ele>967.4</ele>
        <time>2022-05-14 17:59:06</time>
      </trkpt>
      <trkpt lat="10.01618" lon="-84.21513">
        <ele>967.2</ele>
        <time>2022-05-14 17:59:07</time>
      </trkpt>
      <trkpt lat="10.01616" lon="-84.21512">
        <ele>967.2</ele>
        <time>2022-05-14 17:59:08</time>
      </trkpt>
      <trkpt lat="10.01614" lon="-84.21512">
        <ele>967</ele>
        <time>2022-05-14 17:59:09</time>
      </trkpt>
      <trkpt lat="10.01612" lon="-84.21511">
        <ele>967</ele>
        <time>2022-05-14 17:59:10</time>
      </trkpt>
      <trkpt lat="10.0161" lon="-84.2151">
        <ele>967</ele>
        <time>2022-05-14 17:59:11</time>
      </trkpt>
      <trkpt lat="10.01607" lon="-84.2151">
        <ele>967</ele>
        <time>2022-05-14 17:59:12</time>
      </trkpt>
      <trkpt lat="10.01605" lon="-84.2151">
        <ele>966.8</ele>
        <time>2022-05-14 17:59:13</time>
      </trkpt>
      <trkpt lat="10.01602" lon="-84.21508">
        <ele>966.6</ele>
        <time>2022-05-14 17:59:14</time>
      </trkpt>
      <trkpt lat="10.01599" lon="-84.21507">
        <ele>966.6</ele>
        <time>2022-05-14 17:59:15</time>
      </trkpt>
      <trkpt lat="10.01599" lon="-84.21507">
        <ele>966.6</ele>
        <time>2022-05-14 17:59:16</time>
      </trkpt>
      <trkpt lat="10.01593" lon="-84.21506">
        <ele>966.6</ele>
        <time>2022-05-14 17:59:17</time>
      </trkpt>
      <trkpt lat="10.01589" lon="-84.21505">
        <ele>966.6</ele>
        <time>2022-05-14 17:59:18</time>
      </trkpt>
      <trkpt lat="10.01585" lon="-84.21504">
        <ele>966.4</ele>
        <time>2022-05-14 17:59:19</time>
      </trkpt>
      <trkpt lat="10.01581" lon="-84.21503">
        <ele>966.2</ele>
        <time>2022-05-14 17:59:20</time>
      </trkpt>
      <trkpt lat="10.01577" lon="-84.21503">
        <ele>966.2</ele>
        <time>2022-05-14 17:59:21</time>
      </trkpt>
      <trkpt lat="10.01573" lon="-84.21503">
        <ele>966.2</ele>
        <time>2022-05-14 17:59:22</time>
      </trkpt>
      <trkpt lat="10.01569" lon="-84.21503">
        <ele>966</ele>
        <time>2022-05-14 17:59:23</time>
      </trkpt>
      <trkpt lat="10.01566" lon="-84.21502">
        <ele>966</ele>
        <time>2022-05-14 17:59:24</time>
      </trkpt>
      <trkpt lat="10.01566" lon="-84.21502">
        <ele>965.8</ele>
        <time>2022-05-14 17:59:25</time>
      </trkpt>
      <trkpt lat="10.01566" lon="-84.21502">
        <ele>965.6</ele>
        <time>2022-05-14 17:59:26</time>
      </trkpt>
      <trkpt lat="10.01555" lon="-84.21499">
        <ele>965.6</ele>
        <time>2022-05-14 17:59:27</time>
      </trkpt>
      <trkpt lat="10.01551" lon="-84.21498">
        <ele>965.4</ele>
        <time>2022-05-14 17:59:28</time>
      </trkpt>
      <trkpt lat="10.01547" lon="-84.21497">
        <ele>965.2</ele>
        <time>2022-05-14 17:59:29</time>
      </trkpt>
      <trkpt lat="10.01543" lon="-84.21496">
        <ele>965</ele>
        <time>2022-05-14 17:59:30</time>
      </trkpt>
      <trkpt lat="10.01539" lon="-84.21496">
        <ele>964.8</ele>
        <time>2022-05-14 17:59:31</time>
      </trkpt>
      <trkpt lat="10.01535" lon="-84.21495">
        <ele>964.8</ele>
        <time>2022-05-14 17:59:32</time>
      </trkpt>
      <trkpt lat="10.01531" lon="-84.21494">
        <ele>964.6</ele>
        <time>2022-05-14 17:59:33</time>
      </trkpt>
      <trkpt lat="10.01528" lon="-84.21493">
        <ele>964.6</ele>
        <time>2022-05-14 17:59:34</time>
      </trkpt>
      <trkpt lat="10.01525" lon="-84.21492">
        <ele>964.4</ele>
        <time>2022-05-14 17:59:35</time>
      </trkpt>
      <trkpt lat="10.01525" lon="-84.21492">
        <ele>964.4</ele>
        <time>2022-05-14 17:59:36</time>
      </trkpt>
      <trkpt lat="10.01525" lon="-84.21492">
        <ele>964.2</ele>
        <time>2022-05-14 17:59:37</time>
      </trkpt>
      <trkpt lat="10.01517" lon="-84.2149">
        <ele>964.2</ele>
        <time>2022-05-14 17:59:38</time>
      </trkpt>
      <trkpt lat="10.01517" lon="-84.2149">
        <ele>964.2</ele>
        <time>2022-05-14 17:59:39</time>
      </trkpt>
      <trkpt lat="10.01516" lon="-84.2149">
        <ele>964.2</ele>
        <time>2022-05-14 17:59:40</time>
      </trkpt>
      <trkpt lat="10.01515" lon="-84.21489">
        <ele>964.2</ele>
        <time>2022-05-14 17:59:41</time>
      </trkpt>
      <trkpt lat="10.01514" lon="-84.21488">
        <ele>964.2</ele>
        <time>2022-05-14 17:59:42</time>
      </trkpt>
      <trkpt lat="10.01512" lon="-84.21488">
        <ele>964.2</ele>
        <time>2022-05-14 17:59:43</time>
      </trkpt>
      <trkpt lat="10.0151" lon="-84.21487">
        <ele>964.2</ele>
        <time>2022-05-14 17:59:44</time>
      </trkpt>
      <trkpt lat="10.01508" lon="-84.21487">
        <ele>964.2</ele>
        <time>2022-05-14 17:59:45</time>
      </trkpt>
      <trkpt lat="10.01508" lon="-84.21487">
        <ele>964.2</ele>
        <time>2022-05-14 17:59:46</time>
      </trkpt>
      <trkpt lat="10.01508" lon="-84.21487">
        <ele>964.2</ele>
        <time>2022-05-14 17:59:47</time>
      </trkpt>
      <trkpt lat="10.01506" lon="-84.21486">
        <ele>964.2</ele>
        <time>2022-05-14 17:59:48</time>
      </trkpt>
      <trkpt lat="10.01503" lon="-84.21485">
        <ele>964.2</ele>
        <time>2022-05-14 17:59:54</time>
      </trkpt>
      <trkpt lat="10.01502" lon="-84.21485">
        <ele>964.2</ele>
        <time>2022-05-14 17:59:55</time>
      </trkpt>
      <trkpt lat="10.01501" lon="-84.21483">
        <ele>964.2</ele>
        <time>2022-05-14 17:59:56</time>
      </trkpt>
      <trkpt lat="10.01501" lon="-84.21483">
        <ele>964.2</ele>
        <time>2022-05-14 17:59:57</time>
      </trkpt>
      <trkpt lat="10.01496" lon="-84.21485">
        <ele>964.2</ele>
        <time>2022-05-14 17:59:58</time>
      </trkpt>
      <trkpt lat="10.01493" lon="-84.21485">
        <ele>964</ele>
        <time>2022-05-14 17:59:59</time>
      </trkpt>
      <trkpt lat="10.01489" lon="-84.21483">
        <ele>964</ele>
        <time>2022-05-14 18:00:00</time>
      </trkpt>
      <trkpt lat="10.01485" lon="-84.21481">
        <ele>964</ele>
        <time>2022-05-14 18:00:01</time>
      </trkpt>
      <trkpt lat="10.01481" lon="-84.2148">
        <ele>964</ele>
        <time>2022-05-14 18:00:02</time>
      </trkpt>
      <trkpt lat="10.01476" lon="-84.21479">
        <ele>964</ele>
        <time>2022-05-14 18:00:03</time>
      </trkpt>
      <trkpt lat="10.01472" lon="-84.21478">
        <ele>963.6</ele>
        <time>2022-05-14 18:00:04</time>
      </trkpt>
      <trkpt lat="10.01466" lon="-84.21476">
        <ele>963.6</ele>
        <time>2022-05-14 18:00:05</time>
      </trkpt>
      <trkpt lat="10.01461" lon="-84.21474">
        <ele>963.4</ele>
        <time>2022-05-14 18:00:06</time>
      </trkpt>
      <trkpt lat="10.01461" lon="-84.21474">
        <ele>963.4</ele>
        <time>2022-05-14 18:00:07</time>
      </trkpt>
      <trkpt lat="10.01451" lon="-84.21472">
        <ele>963.4</ele>
        <time>2022-05-14 18:00:08</time>
      </trkpt>
      <trkpt lat="10.01445" lon="-84.2147">
        <ele>963.4</ele>
        <time>2022-05-14 18:00:09</time>
      </trkpt>
      <trkpt lat="10.0144" lon="-84.21468">
        <ele>963.2</ele>
        <time>2022-05-14 18:00:10</time>
      </trkpt>
      <trkpt lat="10.01435" lon="-84.21465">
        <ele>963.2</ele>
        <time>2022-05-14 18:00:11</time>
      </trkpt>
      <trkpt lat="10.01429" lon="-84.21464">
        <ele>963</ele>
        <time>2022-05-14 18:00:12</time>
      </trkpt>
      <trkpt lat="10.01423" lon="-84.21462">
        <ele>963</ele>
        <time>2022-05-14 18:00:13</time>
      </trkpt>
      <trkpt lat="10.01417" lon="-84.21461">
        <ele>963</ele>
        <time>2022-05-14 18:00:14</time>
      </trkpt>
      <trkpt lat="10.01412" lon="-84.2146">
        <ele>963.2</ele>
        <time>2022-05-14 18:00:15</time>
      </trkpt>
      <trkpt lat="10.01406" lon="-84.21458">
        <ele>962.8</ele>
        <time>2022-05-14 18:00:16</time>
      </trkpt>
      <trkpt lat="10.014" lon="-84.21457">
        <ele>962.2</ele>
        <time>2022-05-14 18:00:17</time>
      </trkpt>
      <trkpt lat="10.014" lon="-84.21457">
        <ele>961.8</ele>
        <time>2022-05-14 18:00:18</time>
      </trkpt>
      <trkpt lat="10.01388" lon="-84.21453">
        <ele>961.6</ele>
        <time>2022-05-14 18:00:19</time>
      </trkpt>
      <trkpt lat="10.01381" lon="-84.21452">
        <ele>962.2</ele>
        <time>2022-05-14 18:00:20</time>
      </trkpt>
      <trkpt lat="10.01374" lon="-84.21449">
        <ele>962.2</ele>
        <time>2022-05-14 18:00:21</time>
      </trkpt>
      <trkpt lat="10.01367" lon="-84.21447">
        <ele>962.2</ele>
        <time>2022-05-14 18:00:22</time>
      </trkpt>
      <trkpt lat="10.01361" lon="-84.21445">
        <ele>962</ele>
        <time>2022-05-14 18:00:23</time>
      </trkpt>
      <trkpt lat="10.01354" lon="-84.21443">
        <ele>961.4</ele>
        <time>2022-05-14 18:00:24</time>
      </trkpt>
      <trkpt lat="10.01347" lon="-84.21441">
        <ele>961.2</ele>
        <time>2022-05-14 18:00:25</time>
      </trkpt>
      <trkpt lat="10.0134" lon="-84.21438">
        <ele>961</ele>
        <time>2022-05-14 18:00:26</time>
      </trkpt>
      <trkpt lat="10.0134" lon="-84.21438">
        <ele>960.8</ele>
        <time>2022-05-14 18:00:27</time>
      </trkpt>
      <trkpt lat="10.0134" lon="-84.21438">
        <ele>960.6</ele>
        <time>2022-05-14 18:00:28</time>
      </trkpt>
      <trkpt lat="10.01317" lon="-84.21431">
        <ele>960.4</ele>
        <time>2022-05-14 18:00:29</time>
      </trkpt>
      <trkpt lat="10.0131" lon="-84.21429">
        <ele>960</ele>
        <time>2022-05-14 18:00:30</time>
      </trkpt>
      <trkpt lat="10.01302" lon="-84.21426">
        <ele>959.8</ele>
        <time>2022-05-14 18:00:31</time>
      </trkpt>
      <trkpt lat="10.01295" lon="-84.21423">
        <ele>959.4</ele>
        <time>2022-05-14 18:00:32</time>
      </trkpt>
      <trkpt lat="10.01288" lon="-84.21422">
        <ele>959.2</ele>
        <time>2022-05-14 18:00:33</time>
      </trkpt>
      <trkpt lat="10.01281" lon="-84.2142">
        <ele>959</ele>
        <time>2022-05-14 18:00:34</time>
      </trkpt>
      <trkpt lat="10.01274" lon="-84.21418">
        <ele>958.8</ele>
        <time>2022-05-14 18:00:35</time>
      </trkpt>
      <trkpt lat="10.01268" lon="-84.21416">
        <ele>958.4</ele>
        <time>2022-05-14 18:00:36</time>
      </trkpt>
      <trkpt lat="10.01263" lon="-84.21415">
        <ele>958.2</ele>
        <time>2022-05-14 18:00:37</time>
      </trkpt>
      <trkpt lat="10.01263" lon="-84.21415">
        <ele>958.2</ele>
        <time>2022-05-14 18:00:38</time>
      </trkpt>
      <trkpt lat="10.01263" lon="-84.21415">
        <ele>958.2</ele>
        <time>2022-05-14 18:00:39</time>
      </trkpt>
      <trkpt lat="10.01254" lon="-84.21412">
        <ele>958</ele>
        <time>2022-05-14 18:00:40</time>
      </trkpt>
      <trkpt lat="10.01253" lon="-84.21412">
        <ele>957.8</ele>
        <time>2022-05-14 18:00:41</time>
      </trkpt>
      <trkpt lat="10.01253" lon="-84.21412">
        <ele>957.8</ele>
        <time>2022-05-14 18:00:42</time>
      </trkpt>
      <trkpt lat="10.01249" lon="-84.21408">
        <ele>957.6</ele>
        <time>2022-05-14 18:01:12</time>
      </trkpt>
      <trkpt lat="10.01247" lon="-84.21408">
        <ele>957.6</ele>
        <time>2022-05-14 18:01:13</time>
      </trkpt>
      <trkpt lat="10.01245" lon="-84.21407">
        <ele>957.6</ele>
        <time>2022-05-14 18:01:14</time>
      </trkpt>
      <trkpt lat="10.01243" lon="-84.21407">
        <ele>957.4</ele>
        <time>2022-05-14 18:01:15</time>
      </trkpt>
      <trkpt lat="10.0124" lon="-84.21406">
        <ele>957.4</ele>
        <time>2022-05-14 18:01:16</time>
      </trkpt>
      <trkpt lat="10.01236" lon="-84.21405">
        <ele>957.2</ele>
        <time>2022-05-14 18:01:17</time>
      </trkpt>
      <trkpt lat="10.01233" lon="-84.21404">
        <ele>957.2</ele>
        <time>2022-05-14 18:01:18</time>
      </trkpt>
      <trkpt lat="10.01233" lon="-84.21404">
        <ele>957</ele>
        <time>2022-05-14 18:01:19</time>
      </trkpt>
      <trkpt lat="10.01233" lon="-84.21404">
        <ele>956.8</ele>
        <time>2022-05-14 18:01:20</time>
      </trkpt>
      <trkpt lat="10.0122" lon="-84.214">
        <ele>956.6</ele>
        <time>2022-05-14 18:01:21</time>
      </trkpt>
      <trkpt lat="10.01215" lon="-84.21399">
        <ele>956.2</ele>
        <time>2022-05-14 18:01:22</time>
      </trkpt>
      <trkpt lat="10.0121" lon="-84.21398">
        <ele>956</ele>
        <time>2022-05-14 18:01:23</time>
      </trkpt>
      <trkpt lat="10.01206" lon="-84.21396">
        <ele>956</ele>
        <time>2022-05-14 18:01:24</time>
      </trkpt>
      <trkpt lat="10.01202" lon="-84.21395">
        <ele>955.6</ele>
        <time>2022-05-14 18:01:25</time>
      </trkpt>
      <trkpt lat="10.01199" lon="-84.21393">
        <ele>955.6</ele>
        <time>2022-05-14 18:01:26</time>
      </trkpt>
      <trkpt lat="10.01197" lon="-84.21393">
        <ele>955.4</ele>
        <time>2022-05-14 18:01:27</time>
      </trkpt>
      <trkpt lat="10.01195" lon="-84.21392">
        <ele>955.2</ele>
        <time>2022-05-14 18:01:28</time>
      </trkpt>
      <trkpt lat="10.01195" lon="-84.21392">
        <ele>955</ele>
        <time>2022-05-14 18:01:29</time>
      </trkpt>
      <trkpt lat="10.01195" lon="-84.21392">
        <ele>955</ele>
        <time>2022-05-14 18:01:30</time>
      </trkpt>
      <trkpt lat="10.01189" lon="-84.21391">
        <ele>954.8</ele>
        <time>2022-05-14 18:01:31</time>
      </trkpt>
      <trkpt lat="10.01187" lon="-84.21391">
        <ele>954.8</ele>
        <time>2022-05-14 18:01:32</time>
      </trkpt>
      <trkpt lat="10.01184" lon="-84.21389">
        <ele>954.6</ele>
        <time>2022-05-14 18:01:33</time>
      </trkpt>
      <trkpt lat="10.01181" lon="-84.21389">
        <ele>954.4</ele>
        <time>2022-05-14 18:01:34</time>
      </trkpt>
      <trkpt lat="10.01177" lon="-84.21387">
        <ele>954.2</ele>
        <time>2022-05-14 18:01:35</time>
      </trkpt>
      <trkpt lat="10.01173" lon="-84.21386">
        <ele>954</ele>
        <time>2022-05-14 18:01:36</time>
      </trkpt>
      <trkpt lat="10.0117" lon="-84.21385">
        <ele>953.8</ele>
        <time>2022-05-14 18:01:37</time>
      </trkpt>
      <trkpt lat="10.01166" lon="-84.21384">
        <ele>953.8</ele>
        <time>2022-05-14 18:01:38</time>
      </trkpt>
      <trkpt lat="10.01162" lon="-84.2138">
        <ele>953.6</ele>
        <time>2022-05-14 18:01:39</time>
      </trkpt>
      <trkpt lat="10.01162" lon="-84.2138">
        <ele>953.6</ele>
        <time>2022-05-14 18:01:40</time>
      </trkpt>
      <trkpt lat="10.01159" lon="-84.21371">
        <ele>953.6</ele>
        <time>2022-05-14 18:01:41</time>
      </trkpt>
      <trkpt lat="10.0116" lon="-84.21366">
        <ele>953.6</ele>
        <time>2022-05-14 18:01:42</time>
      </trkpt>
      <trkpt lat="10.01161" lon="-84.21362">
        <ele>953.8</ele>
        <time>2022-05-14 18:01:43</time>
      </trkpt>
      <trkpt lat="10.01162" lon="-84.21357">
        <ele>953.8</ele>
        <time>2022-05-14 18:01:44</time>
      </trkpt>
      <trkpt lat="10.01163" lon="-84.21353">
        <ele>953.8</ele>
        <time>2022-05-14 18:01:45</time>
      </trkpt>
      <trkpt lat="10.01164" lon="-84.21348">
        <ele>953.8</ele>
        <time>2022-05-14 18:01:46</time>
      </trkpt>
      <trkpt lat="10.01165" lon="-84.21342">
        <ele>953.8</ele>
        <time>2022-05-14 18:01:47</time>
      </trkpt>
      <trkpt lat="10.01167" lon="-84.21338">
        <ele>954</ele>
        <time>2022-05-14 18:01:48</time>
      </trkpt>
      <trkpt lat="10.01168" lon="-84.21333">
        <ele>953.8</ele>
        <time>2022-05-14 18:01:49</time>
      </trkpt>
      <trkpt lat="10.01168" lon="-84.21333">
        <ele>954</ele>
        <time>2022-05-14 18:01:50</time>
      </trkpt>
      <trkpt lat="10.0117" lon="-84.21324">
        <ele>954.2</ele>
        <time>2022-05-14 18:01:51</time>
      </trkpt>
      <trkpt lat="10.01171" lon="-84.2132">
        <ele>954.4</ele>
        <time>2022-05-14 18:01:52</time>
      </trkpt>
      <trkpt lat="10.01172" lon="-84.21316">
        <ele>954.6</ele>
        <time>2022-05-14 18:01:53</time>
      </trkpt>
      <trkpt lat="10.01173" lon="-84.21312">
        <ele>954.6</ele>
        <time>2022-05-14 18:01:54</time>
      </trkpt>
      <trkpt lat="10.01173" lon="-84.21309">
        <ele>954.6</ele>
        <time>2022-05-14 18:01:55</time>
      </trkpt>
      <trkpt lat="10.01174" lon="-84.21308">
        <ele>954.6</ele>
        <time>2022-05-14 18:01:56</time>
      </trkpt>
      <trkpt lat="10.01175" lon="-84.21305">
        <ele>954.6</ele>
        <time>2022-05-14 18:01:57</time>
      </trkpt>
      <trkpt lat="10.01175" lon="-84.21304">
        <ele>954.6</ele>
        <time>2022-05-14 18:01:58</time>
      </trkpt>
      <trkpt lat="10.01175" lon="-84.21304">
        <ele>954.6</ele>
        <time>2022-05-14 18:01:59</time>
      </trkpt>
      <trkpt lat="10.01175" lon="-84.21304">
        <ele>954.6</ele>
        <time>2022-05-14 18:02:00</time>
      </trkpt>
      <trkpt lat="10.01176" lon="-84.21301">
        <ele>954.4</ele>
        <time>2022-05-14 18:02:38</time>
      </trkpt>
      <trkpt lat="10.01176" lon="-84.213">
        <ele>954.4</ele>
        <time>2022-05-14 18:02:39</time>
      </trkpt>
      <trkpt lat="10.01177" lon="-84.21297">
        <ele>954.4</ele>
        <time>2022-05-14 18:02:40</time>
      </trkpt>
      <trkpt lat="10.01178" lon="-84.21295">
        <ele>954.6</ele>
        <time>2022-05-14 18:02:41</time>
      </trkpt>
      <trkpt lat="10.01178" lon="-84.21295">
        <ele>954.6</ele>
        <time>2022-05-14 18:02:42</time>
      </trkpt>
      <trkpt lat="10.0118" lon="-84.21287">
        <ele>954.8</ele>
        <time>2022-05-14 18:02:43</time>
      </trkpt>
      <trkpt lat="10.0118" lon="-84.21282">
        <ele>954.8</ele>
        <time>2022-05-14 18:02:44</time>
      </trkpt>
      <trkpt lat="10.01182" lon="-84.21279">
        <ele>955</ele>
        <time>2022-05-14 18:02:45</time>
      </trkpt>
      <trkpt lat="10.01183" lon="-84.21274">
        <ele>955</ele>
        <time>2022-05-14 18:02:46</time>
      </trkpt>
      <trkpt lat="10.01184" lon="-84.21269">
        <ele>955</ele>
        <time>2022-05-14 18:02:47</time>
      </trkpt>
      <trkpt lat="10.01186" lon="-84.21265">
        <ele>955</ele>
        <time>2022-05-14 18:02:48</time>
      </trkpt>
      <trkpt lat="10.01187" lon="-84.21259">
        <ele>954.8</ele>
        <time>2022-05-14 18:02:49</time>
      </trkpt>
      <trkpt lat="10.0119" lon="-84.21255">
        <ele>954.8</ele>
        <time>2022-05-14 18:02:50</time>
      </trkpt>
      <trkpt lat="10.0119" lon="-84.21255">
        <ele>954.6</ele>
        <time>2022-05-14 18:02:51</time>
      </trkpt>
      <trkpt lat="10.0119" lon="-84.21255">
        <ele>954.6</ele>
        <time>2022-05-14 18:02:52</time>
      </trkpt>
      <trkpt lat="10.01194" lon="-84.21239">
        <ele>954.4</ele>
        <time>2022-05-14 18:02:53</time>
      </trkpt>
      <trkpt lat="10.01196" lon="-84.21232">
        <ele>954.2</ele>
        <time>2022-05-14 18:02:54</time>
      </trkpt>
      <trkpt lat="10.01197" lon="-84.21226">
        <ele>954</ele>
        <time>2022-05-14 18:02:55</time>
      </trkpt>
      <trkpt lat="10.01199" lon="-84.2122">
        <ele>953.8</ele>
        <time>2022-05-14 18:02:56</time>
      </trkpt>
      <trkpt lat="10.012" lon="-84.21214">
        <ele>953.6</ele>
        <time>2022-05-14 18:02:57</time>
      </trkpt>
      <trkpt lat="10.01202" lon="-84.21207">
        <ele>953.4</ele>
        <time>2022-05-14 18:02:58</time>
      </trkpt>
      <trkpt lat="10.01204" lon="-84.212">
        <ele>953.2</ele>
        <time>2022-05-14 18:02:59</time>
      </trkpt>
      <trkpt lat="10.01206" lon="-84.21192">
        <ele>953.2</ele>
        <time>2022-05-14 18:03:00</time>
      </trkpt>
      <trkpt lat="10.01208" lon="-84.21185">
        <ele>953</ele>
        <time>2022-05-14 18:03:01</time>
      </trkpt>
      <trkpt lat="10.01208" lon="-84.21185">
        <ele>952.6</ele>
        <time>2022-05-14 18:03:02</time>
      </trkpt>
      <trkpt lat="10.01208" lon="-84.21185">
        <ele>952.4</ele>
        <time>2022-05-14 18:03:03</time>
      </trkpt>
      <trkpt lat="10.01215" lon="-84.2116">
        <ele>952.2</ele>
        <time>2022-05-14 18:03:04</time>
      </trkpt>
      <trkpt lat="10.01217" lon="-84.21152">
        <ele>952.2</ele>
        <time>2022-05-14 18:03:05</time>
      </trkpt>
      <trkpt lat="10.01219" lon="-84.21144">
        <ele>952.2</ele>
        <time>2022-05-14 18:03:06</time>
      </trkpt>
      <trkpt lat="10.01221" lon="-84.21136">
        <ele>952.4</ele>
        <time>2022-05-14 18:03:07</time>
      </trkpt>
      <trkpt lat="10.01223" lon="-84.21128">
        <ele>952.8</ele>
        <time>2022-05-14 18:03:08</time>
      </trkpt>
      <trkpt lat="10.01225" lon="-84.2112">
        <ele>952.8</ele>
        <time>2022-05-14 18:03:09</time>
      </trkpt>
      <trkpt lat="10.01227" lon="-84.21113">
        <ele>953</ele>
        <time>2022-05-14 18:03:10</time>
      </trkpt>
      <trkpt lat="10.01229" lon="-84.21106">
        <ele>953.4</ele>
        <time>2022-05-14 18:03:11</time>
      </trkpt>
      <trkpt lat="10.01229" lon="-84.21106">
        <ele>953.8</ele>
        <time>2022-05-14 18:03:12</time>
      </trkpt>
      <trkpt lat="10.01233" lon="-84.21096">
        <ele>954.2</ele>
        <time>2022-05-14 18:03:13</time>
      </trkpt>
      <trkpt lat="10.01234" lon="-84.21091">
        <ele>954.8</ele>
        <time>2022-05-14 18:03:14</time>
      </trkpt>
      <trkpt lat="10.01235" lon="-84.21085">
        <ele>955.2</ele>
        <time>2022-05-14 18:03:15</time>
      </trkpt>
      <trkpt lat="10.01238" lon="-84.21082">
        <ele>955.6</ele>
        <time>2022-05-14 18:03:16</time>
      </trkpt>
      <trkpt lat="10.01239" lon="-84.21077">
        <ele>956</ele>
        <time>2022-05-14 18:03:17</time>
      </trkpt>
      <trkpt lat="10.0124" lon="-84.21073">
        <ele>956.6</ele>
        <time>2022-05-14 18:03:18</time>
      </trkpt>
      <trkpt lat="10.0124" lon="-84.21069">
        <ele>957.4</ele>
        <time>2022-05-14 18:03:19</time>
      </trkpt>
      <trkpt lat="10.01241" lon="-84.21066">
        <ele>957.8</ele>
        <time>2022-05-14 18:03:20</time>
      </trkpt>
      <trkpt lat="10.01241" lon="-84.21063">
        <ele>957.8</ele>
        <time>2022-05-14 18:03:21</time>
      </trkpt>
      <trkpt lat="10.01241" lon="-84.2106">
        <ele>957.6</ele>
        <time>2022-05-14 18:03:22</time>
      </trkpt>
      <trkpt lat="10.01241" lon="-84.2106">
        <ele>957.8</ele>
        <time>2022-05-14 18:03:23</time>
      </trkpt>
      <trkpt lat="10.01243" lon="-84.21053">
        <ele>958</ele>
        <time>2022-05-14 18:03:24</time>
      </trkpt>
      <trkpt lat="10.01244" lon="-84.21051">
        <ele>958</ele>
        <time>2022-05-14 18:03:25</time>
      </trkpt>
      <trkpt lat="10.01244" lon="-84.21048">
        <ele>958.2</ele>
        <time>2022-05-14 18:03:26</time>
      </trkpt>
      <trkpt lat="10.01245" lon="-84.21045">
        <ele>958.4</ele>
        <time>2022-05-14 18:03:27</time>
      </trkpt>
      <trkpt lat="10.01246" lon="-84.21043">
        <ele>958.6</ele>
        <time>2022-05-14 18:03:28</time>
      </trkpt>
      <trkpt lat="10.01247" lon="-84.2104">
        <ele>958.8</ele>
        <time>2022-05-14 18:03:29</time>
      </trkpt>
      <trkpt lat="10.01248" lon="-84.21038">
        <ele>958.8</ele>
        <time>2022-05-14 18:03:30</time>
      </trkpt>
      <trkpt lat="10.01248" lon="-84.21037">
        <ele>959</ele>
        <time>2022-05-14 18:03:31</time>
      </trkpt>
      <trkpt lat="10.01248" lon="-84.21034">
        <ele>959.2</ele>
        <time>2022-05-14 18:03:32</time>
      </trkpt>
      <trkpt lat="10.01248" lon="-84.21034">
        <ele>959.2</ele>
        <time>2022-05-14 18:03:33</time>
      </trkpt>
      <trkpt lat="10.0125" lon="-84.21031">
        <ele>959.2</ele>
        <time>2022-05-14 18:03:34</time>
      </trkpt>
      <trkpt lat="10.0125" lon="-84.2103">
        <ele>959.4</ele>
        <time>2022-05-14 18:03:35</time>
      </trkpt>
      <trkpt lat="10.0125" lon="-84.21028">
        <ele>959.4</ele>
        <time>2022-05-14 18:03:36</time>
      </trkpt>
      <trkpt lat="10.0125" lon="-84.21026">
        <ele>959.4</ele>
        <time>2022-05-14 18:03:37</time>
      </trkpt>
      <trkpt lat="10.01249" lon="-84.21024">
        <ele>959.4</ele>
        <time>2022-05-14 18:03:38</time>
      </trkpt>
      <trkpt lat="10.01246" lon="-84.21021">
        <ele>959.6</ele>
        <time>2022-05-14 18:03:39</time>
      </trkpt>
      <trkpt lat="10.01243" lon="-84.2102">
        <ele>959.6</ele>
        <time>2022-05-14 18:03:40</time>
      </trkpt>
      <trkpt lat="10.01239" lon="-84.21018">
        <ele>959.4</ele>
        <time>2022-05-14 18:03:41</time>
      </trkpt>
      <trkpt lat="10.01235" lon="-84.21017">
        <ele>959.2</ele>
        <time>2022-05-14 18:03:42</time>
      </trkpt>
      <trkpt lat="10.01231" lon="-84.21015">
        <ele>959</ele>
        <time>2022-05-14 18:03:43</time>
      </trkpt>
      <trkpt lat="10.01231" lon="-84.21015">
        <ele>958.8</ele>
        <time>2022-05-14 18:03:44</time>
      </trkpt>
      <trkpt lat="10.01222" lon="-84.21011">
        <ele>958.6</ele>
        <time>2022-05-14 18:03:45</time>
      </trkpt>
      <trkpt lat="10.01217" lon="-84.21008">
        <ele>958.4</ele>
        <time>2022-05-14 18:03:46</time>
      </trkpt>
      <trkpt lat="10.01212" lon="-84.21006">
        <ele>958.2</ele>
        <time>2022-05-14 18:03:47</time>
      </trkpt>
      <trkpt lat="10.01207" lon="-84.21004">
        <ele>958</ele>
        <time>2022-05-14 18:03:48</time>
      </trkpt>
      <trkpt lat="10.01202" lon="-84.21002">
        <ele>958</ele>
        <time>2022-05-14 18:03:49</time>
      </trkpt>
      <trkpt lat="10.01196" lon="-84.21001">
        <ele>958</ele>
        <time>2022-05-14 18:03:50</time>
      </trkpt>
      <trkpt lat="10.0119" lon="-84.20999">
        <ele>958</ele>
        <time>2022-05-14 18:03:51</time>
      </trkpt>
      <trkpt lat="10.01184" lon="-84.20996">
        <ele>958</ele>
        <time>2022-05-14 18:03:52</time>
      </trkpt>
      <trkpt lat="10.01184" lon="-84.20996">
        <ele>957.8</ele>
        <time>2022-05-14 18:03:53</time>
      </trkpt>
      <trkpt lat="10.01184" lon="-84.20996">
        <ele>957.6</ele>
        <time>2022-05-14 18:03:54</time>
      </trkpt>
      <trkpt lat="10.01166" lon="-84.2099">
        <ele>957.4</ele>
        <time>2022-05-14 18:03:55</time>
      </trkpt>
      <trkpt lat="10.0116" lon="-84.20988">
        <ele>957.4</ele>
        <time>2022-05-14 18:03:56</time>
      </trkpt>
      <trkpt lat="10.01153" lon="-84.20986">
        <ele>957.2</ele>
        <time>2022-05-14 18:03:57</time>
      </trkpt>
      <trkpt lat="10.01147" lon="-84.20984">
        <ele>957</ele>
        <time>2022-05-14 18:03:58</time>
      </trkpt>
      <trkpt lat="10.0114" lon="-84.20982">
        <ele>956.6</ele>
        <time>2022-05-14 18:03:59</time>
      </trkpt>
      <trkpt lat="10.01133" lon="-84.2098">
        <ele>956.4</ele>
        <time>2022-05-14 18:04:00</time>
      </trkpt>
      <trkpt lat="10.01126" lon="-84.20978">
        <ele>956.2</ele>
        <time>2022-05-14 18:04:01</time>
      </trkpt>
      <trkpt lat="10.01119" lon="-84.20975">
        <ele>956</ele>
        <time>2022-05-14 18:04:02</time>
      </trkpt>
      <trkpt lat="10.01112" lon="-84.20973">
        <ele>955.8</ele>
        <time>2022-05-14 18:04:03</time>
      </trkpt>
      <trkpt lat="10.01112" lon="-84.20973">
        <ele>955.6</ele>
        <time>2022-05-14 18:04:04</time>
      </trkpt>
      <trkpt lat="10.01112" lon="-84.20973">
        <ele>955.4</ele>
        <time>2022-05-14 18:04:05</time>
      </trkpt>
      <trkpt lat="10.01092" lon="-84.20967">
        <ele>955.2</ele>
        <time>2022-05-14 18:04:06</time>
      </trkpt>
      <trkpt lat="10.01085" lon="-84.20965">
        <ele>955</ele>
        <time>2022-05-14 18:04:07</time>
      </trkpt>
      <trkpt lat="10.0108" lon="-84.20963">
        <ele>954.6</ele>
        <time>2022-05-14 18:04:08</time>
      </trkpt>
      <trkpt lat="10.01075" lon="-84.20961">
        <ele>954.2</ele>
        <time>2022-05-14 18:04:09</time>
      </trkpt>
      <trkpt lat="10.0107" lon="-84.20959">
        <ele>954</ele>
        <time>2022-05-14 18:04:10</time>
      </trkpt>
      <trkpt lat="10.01067" lon="-84.20958">
        <ele>953.8</ele>
        <time>2022-05-14 18:04:11</time>
      </trkpt>
      <trkpt lat="10.01064" lon="-84.20957">
        <ele>953.8</ele>
        <time>2022-05-14 18:04:12</time>
      </trkpt>
      <trkpt lat="10.0106" lon="-84.20956">
        <ele>953.6</ele>
        <time>2022-05-14 18:04:13</time>
      </trkpt>
      <trkpt lat="10.0106" lon="-84.20956">
        <ele>953.4</ele>
        <time>2022-05-14 18:04:14</time>
      </trkpt>
      <trkpt lat="10.01053" lon="-84.20952">
        <ele>953.4</ele>
        <time>2022-05-14 18:04:15</time>
      </trkpt>
      <trkpt lat="10.01049" lon="-84.20951">
        <ele>953.2</ele>
        <time>2022-05-14 18:04:16</time>
      </trkpt>
      <trkpt lat="10.01044" lon="-84.20949">
        <ele>953</ele>
        <time>2022-05-14 18:04:17</time>
      </trkpt>
      <trkpt lat="10.01039" lon="-84.20946">
        <ele>953</ele>
        <time>2022-05-14 18:04:18</time>
      </trkpt>
      <trkpt lat="10.01034" lon="-84.20944">
        <ele>952.6</ele>
        <time>2022-05-14 18:04:19</time>
      </trkpt>
      <trkpt lat="10.01029" lon="-84.20941">
        <ele>952.4</ele>
        <time>2022-05-14 18:04:20</time>
      </trkpt>
      <trkpt lat="10.01024" lon="-84.20937">
        <ele>952</ele>
        <time>2022-05-14 18:04:21</time>
      </trkpt>
      <trkpt lat="10.01018" lon="-84.20933">
        <ele>951.6</ele>
        <time>2022-05-14 18:04:22</time>
      </trkpt>
      <trkpt lat="10.01013" lon="-84.20928">
        <ele>951.4</ele>
        <time>2022-05-14 18:04:23</time>
      </trkpt>
      <trkpt lat="10.01007" lon="-84.20924">
        <ele>951</ele>
        <time>2022-05-14 18:04:24</time>
      </trkpt>
      <trkpt lat="10.01007" lon="-84.20924">
        <ele>950.6</ele>
        <time>2022-05-14 18:04:25</time>
      </trkpt>
      <trkpt lat="10.00995" lon="-84.20914">
        <ele>950</ele>
        <time>2022-05-14 18:04:26</time>
      </trkpt>
      <trkpt lat="10.00989" lon="-84.20909">
        <ele>949.6</ele>
        <time>2022-05-14 18:04:27</time>
      </trkpt>
      <trkpt lat="10.00983" lon="-84.20903">
        <ele>949.2</ele>
        <time>2022-05-14 18:04:28</time>
      </trkpt>
      <trkpt lat="10.00976" lon="-84.20898">
        <ele>948.6</ele>
        <time>2022-05-14 18:04:29</time>
      </trkpt>
      <trkpt lat="10.0097" lon="-84.20892">
        <ele>947.8</ele>
        <time>2022-05-14 18:04:30</time>
      </trkpt>
      <trkpt lat="10.00963" lon="-84.20886">
        <ele>947.2</ele>
        <time>2022-05-14 18:04:31</time>
      </trkpt>
      <trkpt lat="10.00957" lon="-84.2088">
        <ele>946.6</ele>
        <time>2022-05-14 18:04:32</time>
      </trkpt>
      <trkpt lat="10.0095" lon="-84.20875">
        <ele>946.6</ele>
        <time>2022-05-14 18:04:33</time>
      </trkpt>
      <trkpt lat="10.0095" lon="-84.20875">
        <ele>946</ele>
        <time>2022-05-14 18:04:34</time>
      </trkpt>
      <trkpt lat="10.0095" lon="-84.20875">
        <ele>945.4</ele>
        <time>2022-05-14 18:04:35</time>
      </trkpt>
      <trkpt lat="10.00931" lon="-84.20858">
        <ele>944.8</ele>
        <time>2022-05-14 18:04:36</time>
      </trkpt>
      <trkpt lat="10.00926" lon="-84.20854">
        <ele>944.2</ele>
        <time>2022-05-14 18:04:37</time>
      </trkpt>
      <trkpt lat="10.0092" lon="-84.20849">
        <ele>943.6</ele>
        <time>2022-05-14 18:04:38</time>
      </trkpt>
      <trkpt lat="10.00915" lon="-84.20843">
        <ele>943.2</ele>
        <time>2022-05-14 18:04:39</time>
      </trkpt>
      <trkpt lat="10.00909" lon="-84.20838">
        <ele>942.8</ele>
        <time>2022-05-14 18:04:40</time>
      </trkpt>
      <trkpt lat="10.00903" lon="-84.20833">
        <ele>942.4</ele>
        <time>2022-05-14 18:04:41</time>
      </trkpt>
      <trkpt lat="10.00897" lon="-84.20827">
        <ele>942</ele>
        <time>2022-05-14 18:04:42</time>
      </trkpt>
      <trkpt lat="10.00891" lon="-84.20822">
        <ele>941.4</ele>
        <time>2022-05-14 18:04:43</time>
      </trkpt>
      <trkpt lat="10.00884" lon="-84.20816">
        <ele>940.8</ele>
        <time>2022-05-14 18:04:44</time>
      </trkpt>
      <trkpt lat="10.00884" lon="-84.20816">
        <ele>940.2</ele>
        <time>2022-05-14 18:04:45</time>
      </trkpt>
      <trkpt lat="10.00884" lon="-84.20816">
        <ele>939.6</ele>
        <time>2022-05-14 18:04:46</time>
      </trkpt>
      <trkpt lat="10.00869" lon="-84.20802">
        <ele>939</ele>
        <time>2022-05-14 18:04:47</time>
      </trkpt>
      <trkpt lat="10.00866" lon="-84.208">
        <ele>938.6</ele>
        <time>2022-05-14 18:04:48</time>
      </trkpt>
      <trkpt lat="10.00863" lon="-84.20798">
        <ele>938.2</ele>
        <time>2022-05-14 18:04:49</time>
      </trkpt>
      <trkpt lat="10.00862" lon="-84.20796">
        <ele>938</ele>
        <time>2022-05-14 18:04:50</time>
      </trkpt>
      <trkpt lat="10.00861" lon="-84.20795">
        <ele>938</ele>
        <time>2022-05-14 18:04:51</time>
      </trkpt>
      <trkpt lat="10.0086" lon="-84.20794">
        <ele>937.8</ele>
        <time>2022-05-14 18:04:52</time>
      </trkpt>
      <trkpt lat="10.00858" lon="-84.20793">
        <ele>937.8</ele>
        <time>2022-05-14 18:04:53</time>
      </trkpt>
      <trkpt lat="10.00857" lon="-84.20791">
        <ele>937.8</ele>
        <time>2022-05-14 18:04:54</time>
      </trkpt>
      <trkpt lat="10.00857" lon="-84.20791">
        <ele>937.8</ele>
        <time>2022-05-14 18:04:55</time>
      </trkpt>
      <trkpt lat="10.00857" lon="-84.20791">
        <ele>937.6</ele>
        <time>2022-05-14 18:04:56</time>
      </trkpt>
      <trkpt lat="10.00853" lon="-84.20787">
        <ele>937.6</ele>
        <time>2022-05-14 18:04:57</time>
      </trkpt>
      <trkpt lat="10.00851" lon="-84.20786">
        <ele>937.4</ele>
        <time>2022-05-14 18:04:58</time>
      </trkpt>
      <trkpt lat="10.00849" lon="-84.20783">
        <ele>937.4</ele>
        <time>2022-05-14 18:04:59</time>
      </trkpt>
      <trkpt lat="10.00847" lon="-84.2078">
        <ele>937.2</ele>
        <time>2022-05-14 18:05:00</time>
      </trkpt>
      <trkpt lat="10.00844" lon="-84.20777">
        <ele>937</ele>
        <time>2022-05-14 18:05:01</time>
      </trkpt>
      <trkpt lat="10.00841" lon="-84.20774">
        <ele>937</ele>
        <time>2022-05-14 18:05:02</time>
      </trkpt>
      <trkpt lat="10.00837" lon="-84.20771">
        <ele>936.6</ele>
        <time>2022-05-14 18:05:03</time>
      </trkpt>
      <trkpt lat="10.00832" lon="-84.20766">
        <ele>936.6</ele>
        <time>2022-05-14 18:05:04</time>
      </trkpt>
      <trkpt lat="10.00828" lon="-84.20762">
        <ele>936.2</ele>
        <time>2022-05-14 18:05:05</time>
      </trkpt>
      <trkpt lat="10.00828" lon="-84.20762">
        <ele>936.2</ele>
        <time>2022-05-14 18:05:06</time>
      </trkpt>
      <trkpt lat="10.00818" lon="-84.20753">
        <ele>935.8</ele>
        <time>2022-05-14 18:05:07</time>
      </trkpt>
      <trkpt lat="10.00812" lon="-84.20748">
        <ele>935.6</ele>
        <time>2022-05-14 18:05:08</time>
      </trkpt>
      <trkpt lat="10.00807" lon="-84.20744">
        <ele>935.4</ele>
        <time>2022-05-14 18:05:09</time>
      </trkpt>
      <trkpt lat="10.00801" lon="-84.20738">
        <ele>935.2</ele>
        <time>2022-05-14 18:05:10</time>
      </trkpt>
      <trkpt lat="10.00796" lon="-84.20734">
        <ele>935.2</ele>
        <time>2022-05-14 18:05:11</time>
      </trkpt>
      <trkpt lat="10.00791" lon="-84.20728">
        <ele>935.2</ele>
        <time>2022-05-14 18:05:12</time>
      </trkpt>
      <trkpt lat="10.00785" lon="-84.20724">
        <ele>935.2</ele>
        <time>2022-05-14 18:05:13</time>
      </trkpt>
      <trkpt lat="10.00781" lon="-84.2072">
        <ele>935.2</ele>
        <time>2022-05-14 18:05:14</time>
      </trkpt>
      <trkpt lat="10.00776" lon="-84.20715">
        <ele>935.2</ele>
        <time>2022-05-14 18:05:15</time>
      </trkpt>
      <trkpt lat="10.00776" lon="-84.20715">
        <ele>935.4</ele>
        <time>2022-05-14 18:05:16</time>
      </trkpt>
      <trkpt lat="10.00766" lon="-84.20708">
        <ele>935.4</ele>
        <time>2022-05-14 18:05:17</time>
      </trkpt>
      <trkpt lat="10.00761" lon="-84.20705">
        <ele>935.6</ele>
        <time>2022-05-14 18:05:18</time>
      </trkpt>
      <trkpt lat="10.00757" lon="-84.20701">
        <ele>935.8</ele>
        <time>2022-05-14 18:05:19</time>
      </trkpt>
      <trkpt lat="10.00752" lon="-84.20697">
        <ele>935.8</ele>
        <time>2022-05-14 18:05:20</time>
      </trkpt>
      <trkpt lat="10.00748" lon="-84.20693">
        <ele>935.8</ele>
        <time>2022-05-14 18:05:21</time>
      </trkpt>
      <trkpt lat="10.00745" lon="-84.2069">
        <ele>936</ele>
        <time>2022-05-14 18:05:22</time>
      </trkpt>
      <trkpt lat="10.0074" lon="-84.20686">
        <ele>936.2</ele>
        <time>2022-05-14 18:05:23</time>
      </trkpt>
      <trkpt lat="10.00736" lon="-84.20682">
        <ele>936.4</ele>
        <time>2022-05-14 18:05:24</time>
      </trkpt>
      <trkpt lat="10.00731" lon="-84.20679">
        <ele>936.6</ele>
        <time>2022-05-14 18:05:25</time>
      </trkpt>
      <trkpt lat="10.00727" lon="-84.20675">
        <ele>936.6</ele>
        <time>2022-05-14 18:05:26</time>
      </trkpt>
      <trkpt lat="10.00727" lon="-84.20675">
        <ele>937</ele>
        <time>2022-05-14 18:05:27</time>
      </trkpt>
      <trkpt lat="10.0072" lon="-84.20666">
        <ele>937.2</ele>
        <time>2022-05-14 18:05:28</time>
      </trkpt>
      <trkpt lat="10.00715" lon="-84.20663">
        <ele>937.4</ele>
        <time>2022-05-14 18:05:29</time>
      </trkpt>
      <trkpt lat="10.0071" lon="-84.20659">
        <ele>937.4</ele>
        <time>2022-05-14 18:05:30</time>
      </trkpt>
      <trkpt lat="10.00706" lon="-84.20655">
        <ele>937.6</ele>
        <time>2022-05-14 18:05:31</time>
      </trkpt>
      <trkpt lat="10.00702" lon="-84.20651">
        <ele>937.6</ele>
        <time>2022-05-14 18:05:32</time>
      </trkpt>
      <trkpt lat="10.00697" lon="-84.20648">
        <ele>937.8</ele>
        <time>2022-05-14 18:05:33</time>
      </trkpt>
      <trkpt lat="10.00694" lon="-84.20643">
        <ele>937.8</ele>
        <time>2022-05-14 18:05:34</time>
      </trkpt>
      <trkpt lat="10.00689" lon="-84.2064">
        <ele>938</ele>
        <time>2022-05-14 18:05:35</time>
      </trkpt>
      <trkpt lat="10.00689" lon="-84.2064">
        <ele>938</ele>
        <time>2022-05-14 18:05:36</time>
      </trkpt>
      <trkpt lat="10.00689" lon="-84.2064">
        <ele>938.2</ele>
        <time>2022-05-14 18:05:37</time>
      </trkpt>
      <trkpt lat="10.00677" lon="-84.20628">
        <ele>938.4</ele>
        <time>2022-05-14 18:05:38</time>
      </trkpt>
      <trkpt lat="10.00673" lon="-84.20624">
        <ele>938.4</ele>
        <time>2022-05-14 18:05:39</time>
      </trkpt>
      <trkpt lat="10.00669" lon="-84.20621">
        <ele>938.6</ele>
        <time>2022-05-14 18:05:40</time>
      </trkpt>
      <trkpt lat="10.00665" lon="-84.20617">
        <ele>938.6</ele>
        <time>2022-05-14 18:05:41</time>
      </trkpt>
      <trkpt lat="10.0066" lon="-84.20614">
        <ele>938.8</ele>
        <time>2022-05-14 18:05:42</time>
      </trkpt>
      <trkpt lat="10.00656" lon="-84.2061">
        <ele>939</ele>
        <time>2022-05-14 18:05:43</time>
      </trkpt>
      <trkpt lat="10.00652" lon="-84.20606">
        <ele>939</ele>
        <time>2022-05-14 18:05:44</time>
      </trkpt>
      <trkpt lat="10.00648" lon="-84.20605">
        <ele>939.2</ele>
        <time>2022-05-14 18:05:45</time>
      </trkpt>
      <trkpt lat="10.00643" lon="-84.206">
        <ele>939.2</ele>
        <time>2022-05-14 18:05:46</time>
      </trkpt>
      <trkpt lat="10.00643" lon="-84.206">
        <ele>939.6</ele>
        <time>2022-05-14 18:05:47</time>
      </trkpt>
      <trkpt lat="10.00643" lon="-84.206">
        <ele>939.8</ele>
        <time>2022-05-14 18:05:48</time>
      </trkpt>
      <trkpt lat="10.0063" lon="-84.20587">
        <ele>940</ele>
        <time>2022-05-14 18:05:49</time>
      </trkpt>
      <trkpt lat="10.00626" lon="-84.20583">
        <ele>940.2</ele>
        <time>2022-05-14 18:05:50</time>
      </trkpt>
      <trkpt lat="10.00622" lon="-84.2058">
        <ele>940.2</ele>
        <time>2022-05-14 18:05:51</time>
      </trkpt>
      <trkpt lat="10.00618" lon="-84.20576">
        <ele>940.4</ele>
        <time>2022-05-14 18:05:52</time>
      </trkpt>
      <trkpt lat="10.00613" lon="-84.20572">
        <ele>940.6</ele>
        <time>2022-05-14 18:05:53</time>
      </trkpt>
      <trkpt lat="10.00608" lon="-84.20568">
        <ele>940.8</ele>
        <time>2022-05-14 18:05:54</time>
      </trkpt>
      <trkpt lat="10.00604" lon="-84.20563">
        <ele>941</ele>
        <time>2022-05-14 18:05:55</time>
      </trkpt>
      <trkpt lat="10.00599" lon="-84.20559">
        <ele>941.2</ele>
        <time>2022-05-14 18:05:56</time>
      </trkpt>
      <trkpt lat="10.00599" lon="-84.20559">
        <ele>941.2</ele>
        <time>2022-05-14 18:05:57</time>
      </trkpt>
      <trkpt lat="10.00592" lon="-84.2055">
        <ele>941.4</ele>
        <time>2022-05-14 18:05:58</time>
      </trkpt>
      <trkpt lat="10.00588" lon="-84.20547">
        <ele>941.8</ele>
        <time>2022-05-14 18:05:59</time>
      </trkpt>
      <trkpt lat="10.00584" lon="-84.20543">
        <ele>942</ele>
        <time>2022-05-14 18:06:00</time>
      </trkpt>
      <trkpt lat="10.00579" lon="-84.20539">
        <ele>942.2</ele>
        <time>2022-05-14 18:06:01</time>
      </trkpt>
      <trkpt lat="10.00574" lon="-84.20536">
        <ele>942.4</ele>
        <time>2022-05-14 18:06:02</time>
      </trkpt>
      <trkpt lat="10.0057" lon="-84.20533">
        <ele>942.6</ele>
        <time>2022-05-14 18:06:03</time>
      </trkpt>
      <trkpt lat="10.00566" lon="-84.20531">
        <ele>942.8</ele>
        <time>2022-05-14 18:06:04</time>
      </trkpt>
      <trkpt lat="10.00563" lon="-84.20528">
        <ele>942.8</ele>
        <time>2022-05-14 18:06:05</time>
      </trkpt>
      <trkpt lat="10.0056" lon="-84.20525">
        <ele>943</ele>
        <time>2022-05-14 18:06:06</time>
      </trkpt>
      <trkpt lat="10.00557" lon="-84.20523">
        <ele>943</ele>
        <time>2022-05-14 18:06:07</time>
      </trkpt>
      <trkpt lat="10.00557" lon="-84.20523">
        <ele>943.2</ele>
        <time>2022-05-14 18:06:08</time>
      </trkpt>
      <trkpt lat="10.00552" lon="-84.2052">
        <ele>943.2</ele>
        <time>2022-05-14 18:06:09</time>
      </trkpt>
      <trkpt lat="10.00551" lon="-84.20519">
        <ele>943.2</ele>
        <time>2022-05-14 18:06:10</time>
      </trkpt>
      <trkpt lat="10.00549" lon="-84.20518">
        <ele>943.2</ele>
        <time>2022-05-14 18:06:11</time>
      </trkpt>
      <trkpt lat="10.00548" lon="-84.20517">
        <ele>943.2</ele>
        <time>2022-05-14 18:06:12</time>
      </trkpt>
      <trkpt lat="10.00545" lon="-84.20515">
        <ele>943.2</ele>
        <time>2022-05-14 18:06:13</time>
      </trkpt>
      <trkpt lat="10.00543" lon="-84.20513">
        <ele>943.2</ele>
        <time>2022-05-14 18:06:14</time>
      </trkpt>
      <trkpt lat="10.0054" lon="-84.20511">
        <ele>943.2</ele>
        <time>2022-05-14 18:06:15</time>
      </trkpt>
      <trkpt lat="10.00537" lon="-84.20508">
        <ele>943.2</ele>
        <time>2022-05-14 18:06:16</time>
      </trkpt>
      <trkpt lat="10.00537" lon="-84.20508">
        <ele>943.2</ele>
        <time>2022-05-14 18:06:17</time>
      </trkpt>
      <trkpt lat="10.00537" lon="-84.20508">
        <ele>943.2</ele>
        <time>2022-05-14 18:06:18</time>
      </trkpt>
      <trkpt lat="10.00525" lon="-84.20497">
        <ele>943</ele>
        <time>2022-05-14 18:06:19</time>
      </trkpt>
      <trkpt lat="10.0052" lon="-84.20493">
        <ele>943</ele>
        <time>2022-05-14 18:06:20</time>
      </trkpt>
      <trkpt lat="10.00516" lon="-84.20489">
        <ele>942.8</ele>
        <time>2022-05-14 18:06:21</time>
      </trkpt>
      <trkpt lat="10.00511" lon="-84.20484">
        <ele>942.6</ele>
        <time>2022-05-14 18:06:22</time>
      </trkpt>
      <trkpt lat="10.00507" lon="-84.20479">
        <ele>942.6</ele>
        <time>2022-05-14 18:06:23</time>
      </trkpt>
      <trkpt lat="10.00502" lon="-84.20473">
        <ele>942.2</ele>
        <time>2022-05-14 18:06:24</time>
      </trkpt>
      <trkpt lat="10.00498" lon="-84.20468">
        <ele>942</ele>
        <time>2022-05-14 18:06:25</time>
      </trkpt>
      <trkpt lat="10.00493" lon="-84.20462">
        <ele>941.6</ele>
        <time>2022-05-14 18:06:26</time>
      </trkpt>
      <trkpt lat="10.00488" lon="-84.20455">
        <ele>941</ele>
        <time>2022-05-14 18:06:27</time>
      </trkpt>
      <trkpt lat="10.00488" lon="-84.20455">
        <ele>940.4</ele>
        <time>2022-05-14 18:06:28</time>
      </trkpt>
      <trkpt lat="10.00488" lon="-84.20455">
        <ele>939.6</ele>
        <time>2022-05-14 18:06:29</time>
      </trkpt>
      <trkpt lat="10.00472" lon="-84.20431">
        <ele>938.8</ele>
        <time>2022-05-14 18:06:30</time>
      </trkpt>
      <trkpt lat="10.00467" lon="-84.20423">
        <ele>937.8</ele>
        <time>2022-05-14 18:06:31</time>
      </trkpt>
      <trkpt lat="10.00461" lon="-84.20415">
        <ele>937.2</ele>
        <time>2022-05-14 18:06:32</time>
      </trkpt>
      <trkpt lat="10.00455" lon="-84.20406">
        <ele>936.6</ele>
        <time>2022-05-14 18:06:33</time>
      </trkpt>
      <trkpt lat="10.0045" lon="-84.20397">
        <ele>935.8</ele>
        <time>2022-05-14 18:06:34</time>
      </trkpt>
      <trkpt lat="10.00445" lon="-84.20386">
        <ele>934.8</ele>
        <time>2022-05-14 18:06:35</time>
      </trkpt>
      <trkpt lat="10.0044" lon="-84.20377">
        <ele>933.8</ele>
        <time>2022-05-14 18:06:36</time>
      </trkpt>
      <trkpt lat="10.00435" lon="-84.20366">
        <ele>932.6</ele>
        <time>2022-05-14 18:06:37</time>
      </trkpt>
      <trkpt lat="10.00435" lon="-84.20366">
        <ele>931.8</ele>
        <time>2022-05-14 18:06:38</time>
      </trkpt>
      <trkpt lat="10.00435" lon="-84.20366">
        <ele>931.8</ele>
        <time>2022-05-14 18:06:39</time>
      </trkpt>
      <trkpt lat="10.0042" lon="-84.20334">
        <ele>931</ele>
        <time>2022-05-14 18:06:40</time>
      </trkpt>
      <trkpt lat="10.00415" lon="-84.20323">
        <ele>930</ele>
        <time>2022-05-14 18:06:41</time>
      </trkpt>
      <trkpt lat="10.00409" lon="-84.20311">
        <ele>929.2</ele>
        <time>2022-05-14 18:06:42</time>
      </trkpt>
      <trkpt lat="10.00402" lon="-84.203">
        <ele>928.4</ele>
        <time>2022-05-14 18:06:43</time>
      </trkpt>
      <trkpt lat="10.00395" lon="-84.20289">
        <ele>927.8</ele>
        <time>2022-05-14 18:06:44</time>
      </trkpt>
      <trkpt lat="10.00388" lon="-84.20278">
        <ele>927</ele>
        <time>2022-05-14 18:06:45</time>
      </trkpt>
      <trkpt lat="10.0038" lon="-84.20267">
        <ele>926</ele>
        <time>2022-05-14 18:06:46</time>
      </trkpt>
      <trkpt lat="10.00373" lon="-84.20257">
        <ele>925</ele>
        <time>2022-05-14 18:06:47</time>
      </trkpt>
      <trkpt lat="10.00366" lon="-84.20246">
        <ele>924.2</ele>
        <time>2022-05-14 18:06:48</time>
      </trkpt>
      <trkpt lat="10.00366" lon="-84.20246">
        <ele>923.8</ele>
        <time>2022-05-14 18:06:49</time>
      </trkpt>
      <trkpt lat="10.00351" lon="-84.20226">
        <ele>923.4</ele>
        <time>2022-05-14 18:06:50</time>
      </trkpt>
      <trkpt lat="10.00344" lon="-84.20216">
        <ele>923.2</ele>
        <time>2022-05-14 18:06:51</time>
      </trkpt>
      <trkpt lat="10.00337" lon="-84.20206">
        <ele>923.2</ele>
        <time>2022-05-14 18:06:52</time>
      </trkpt>
      <trkpt lat="10.00331" lon="-84.20197">
        <ele>923.4</ele>
        <time>2022-05-14 18:06:53</time>
      </trkpt>
      <trkpt lat="10.00325" lon="-84.2019">
        <ele>923.8</ele>
        <time>2022-05-14 18:06:54</time>
      </trkpt>
      <trkpt lat="10.00318" lon="-84.20183">
        <ele>924.2</ele>
        <time>2022-05-14 18:06:55</time>
      </trkpt>
      <trkpt lat="10.00311" lon="-84.20177">
        <ele>924.8</ele>
        <time>2022-05-14 18:06:56</time>
      </trkpt>
      <trkpt lat="10.00305" lon="-84.20171">
        <ele>925.4</ele>
        <time>2022-05-14 18:06:57</time>
      </trkpt>
      <trkpt lat="10.00299" lon="-84.20168">
        <ele>926</ele>
        <time>2022-05-14 18:06:58</time>
      </trkpt>
      <trkpt lat="10.00288" lon="-84.20162">
        <ele>926.6</ele>
        <time>2022-05-14 18:06:59</time>
      </trkpt>
      <trkpt lat="10.00288" lon="-84.20162">
        <ele>926.6</ele>
        <time>2022-05-14 18:07:00</time>
      </trkpt>
      <trkpt lat="10.00282" lon="-84.20158">
        <ele>927.2</ele>
        <time>2022-05-14 18:07:01</time>
      </trkpt>
      <trkpt lat="10.00277" lon="-84.20156">
        <ele>927.6</ele>
        <time>2022-05-14 18:07:02</time>
      </trkpt>
      <trkpt lat="10.00272" lon="-84.20153">
        <ele>928.2</ele>
        <time>2022-05-14 18:07:03</time>
      </trkpt>
      <trkpt lat="10.00267" lon="-84.20151">
        <ele>928.6</ele>
        <time>2022-05-14 18:07:04</time>
      </trkpt>
      <trkpt lat="10.00262" lon="-84.20148">
        <ele>929.2</ele>
        <time>2022-05-14 18:07:05</time>
      </trkpt>
      <trkpt lat="10.00258" lon="-84.20146">
        <ele>929.6</ele>
        <time>2022-05-14 18:07:06</time>
      </trkpt>
      <trkpt lat="10.00253" lon="-84.20144">
        <ele>930</ele>
        <time>2022-05-14 18:07:07</time>
      </trkpt>
      <trkpt lat="10.00249" lon="-84.20142">
        <ele>930.6</ele>
        <time>2022-05-14 18:07:08</time>
      </trkpt>
      <trkpt lat="10.00249" lon="-84.20142">
        <ele>931</ele>
        <time>2022-05-14 18:07:09</time>
      </trkpt>
      <trkpt lat="10.00249" lon="-84.20142">
        <ele>931.4</ele>
        <time>2022-05-14 18:07:10</time>
      </trkpt>
      <trkpt lat="10.00236" lon="-84.20135">
        <ele>931.8</ele>
        <time>2022-05-14 18:07:11</time>
      </trkpt>
      <trkpt lat="10.00232" lon="-84.20133">
        <ele>932.2</ele>
        <time>2022-05-14 18:07:12</time>
      </trkpt>
      <trkpt lat="10.00228" lon="-84.20131">
        <ele>932.6</ele>
        <time>2022-05-14 18:07:13</time>
      </trkpt>
      <trkpt lat="10.00224" lon="-84.20128">
        <ele>933</ele>
        <time>2022-05-14 18:07:14</time>
      </trkpt>
      <trkpt lat="10.00219" lon="-84.20126">
        <ele>933.4</ele>
        <time>2022-05-14 18:07:15</time>
      </trkpt>
      <trkpt lat="10.00215" lon="-84.20124">
        <ele>933.8</ele>
        <time>2022-05-14 18:07:16</time>
      </trkpt>
      <trkpt lat="10.00211" lon="-84.20122">
        <ele>934.4</ele>
        <time>2022-05-14 18:07:17</time>
      </trkpt>
      <trkpt lat="10.00207" lon="-84.20119">
        <ele>935</ele>
        <time>2022-05-14 18:07:18</time>
      </trkpt>
      <trkpt lat="10.00207" lon="-84.20119">
        <ele>935.4</ele>
        <time>2022-05-14 18:07:19</time>
      </trkpt>
      <trkpt lat="10.00194" lon="-84.20113">
        <ele>935.8</ele>
        <time>2022-05-14 18:07:20</time>
      </trkpt>
      <trkpt lat="10.00194" lon="-84.20113">
        <ele>935.8</ele>
        <time>2022-05-14 18:07:21</time>
      </trkpt>
      <trkpt lat="10.00191" lon="-84.2011">
        <ele>936</ele>
        <time>2022-05-14 18:07:22</time>
      </trkpt>
      <trkpt lat="10.00187" lon="-84.20108">
        <ele>936.4</ele>
        <time>2022-05-14 18:07:23</time>
      </trkpt>
      <trkpt lat="10.00184" lon="-84.20105">
        <ele>936.8</ele>
        <time>2022-05-14 18:07:24</time>
      </trkpt>
      <trkpt lat="10.00181" lon="-84.20103">
        <ele>937.4</ele>
        <time>2022-05-14 18:07:25</time>
      </trkpt>
      <trkpt lat="10.00177" lon="-84.20099">
        <ele>937.8</ele>
        <time>2022-05-14 18:07:26</time>
      </trkpt>
      <trkpt lat="10.00174" lon="-84.20097">
        <ele>938.2</ele>
        <time>2022-05-14 18:07:27</time>
      </trkpt>
      <trkpt lat="10.00171" lon="-84.20094">
        <ele>938.4</ele>
        <time>2022-05-14 18:07:28</time>
      </trkpt>
      <trkpt lat="10.00168" lon="-84.2009">
        <ele>938.8</ele>
        <time>2022-05-14 18:07:29</time>
      </trkpt>
      <trkpt lat="10.00168" lon="-84.2009">
        <ele>939.4</ele>
        <time>2022-05-14 18:07:30</time>
      </trkpt>
      <trkpt lat="10.00168" lon="-84.2009">
        <ele>939.8</ele>
        <time>2022-05-14 18:07:31</time>
      </trkpt>
      <trkpt lat="10.00161" lon="-84.20079">
        <ele>940.2</ele>
        <time>2022-05-14 18:07:32</time>
      </trkpt>
      <trkpt lat="10.00159" lon="-84.20075">
        <ele>940.6</ele>
        <time>2022-05-14 18:07:33</time>
      </trkpt>
      <trkpt lat="10.00156" lon="-84.20072">
        <ele>940.8</ele>
        <time>2022-05-14 18:07:34</time>
      </trkpt>
      <trkpt lat="10.00154" lon="-84.20068">
        <ele>941.2</ele>
        <time>2022-05-14 18:07:35</time>
      </trkpt>
      <trkpt lat="10.00152" lon="-84.20064">
        <ele>941.6</ele>
        <time>2022-05-14 18:07:36</time>
      </trkpt>
      <trkpt lat="10.00151" lon="-84.20059">
        <ele>942.2</ele>
        <time>2022-05-14 18:07:37</time>
      </trkpt>
      <trkpt lat="10.0015" lon="-84.20055">
        <ele>942.6</ele>
        <time>2022-05-14 18:07:38</time>
      </trkpt>
      <trkpt lat="10.00148" lon="-84.20052">
        <ele>943</ele>
        <time>2022-05-14 18:07:39</time>
      </trkpt>
      <trkpt lat="10.00146" lon="-84.20043">
        <ele>943.4</ele>
        <time>2022-05-14 18:07:40</time>
      </trkpt>
      <trkpt lat="10.00145" lon="-84.20039">
        <ele>943.8</ele>
        <time>2022-05-14 18:07:41</time>
      </trkpt>
      <trkpt lat="10.00145" lon="-84.20039">
        <ele>943.8</ele>
        <time>2022-05-14 18:07:42</time>
      </trkpt>
      <trkpt lat="10.00144" lon="-84.20034">
        <ele>944.2</ele>
        <time>2022-05-14 18:07:43</time>
      </trkpt>
      <trkpt lat="10.00143" lon="-84.2003">
        <ele>944.8</ele>
        <time>2022-05-14 18:07:44</time>
      </trkpt>
      <trkpt lat="10.00142" lon="-84.20025">
        <ele>945.2</ele>
        <time>2022-05-14 18:07:45</time>
      </trkpt>
      <trkpt lat="10.00141" lon="-84.20022">
        <ele>945.6</ele>
        <time>2022-05-14 18:07:46</time>
      </trkpt>
      <trkpt lat="10.0014" lon="-84.20018">
        <ele>946</ele>
        <time>2022-05-14 18:07:47</time>
      </trkpt>
      <trkpt lat="10.00139" lon="-84.20014">
        <ele>946.4</ele>
        <time>2022-05-14 18:07:48</time>
      </trkpt>
      <trkpt lat="10.00138" lon="-84.2001">
        <ele>946.8</ele>
        <time>2022-05-14 18:07:49</time>
      </trkpt>
      <trkpt lat="10.00137" lon="-84.20006">
        <ele>947</ele>
        <time>2022-05-14 18:07:50</time>
      </trkpt>
      <trkpt lat="10.00136" lon="-84.19998">
        <ele>947.2</ele>
        <time>2022-05-14 18:07:51</time>
      </trkpt>
      <trkpt lat="10.00136" lon="-84.19998">
        <ele>947.4</ele>
        <time>2022-05-14 18:07:52</time>
      </trkpt>
      <trkpt lat="10.00135" lon="-84.19993">
        <ele>947.6</ele>
        <time>2022-05-14 18:07:53</time>
      </trkpt>
      <trkpt lat="10.00134" lon="-84.19989">
        <ele>948</ele>
        <time>2022-05-14 18:07:54</time>
      </trkpt>
      <trkpt lat="10.00133" lon="-84.19985">
        <ele>948.2</ele>
        <time>2022-05-14 18:07:55</time>
      </trkpt>
      <trkpt lat="10.00132" lon="-84.19981">
        <ele>948.6</ele>
        <time>2022-05-14 18:07:56</time>
      </trkpt>
      <trkpt lat="10.0013" lon="-84.19976">
        <ele>948.8</ele>
        <time>2022-05-14 18:07:57</time>
      </trkpt>
      <trkpt lat="10.00129" lon="-84.19972">
        <ele>949</ele>
        <time>2022-05-14 18:07:58</time>
      </trkpt>
      <trkpt lat="10.00128" lon="-84.19967">
        <ele>949</ele>
        <time>2022-05-14 18:07:59</time>
      </trkpt>
      <trkpt lat="10.00128" lon="-84.19967">
        <ele>949.2</ele>
        <time>2022-05-14 18:08:00</time>
      </trkpt>
      <trkpt lat="10.00124" lon="-84.19956">
        <ele>949.4</ele>
        <time>2022-05-14 18:08:01</time>
      </trkpt>
      <trkpt lat="10.00122" lon="-84.19951">
        <ele>949.6</ele>
        <time>2022-05-14 18:08:02</time>
      </trkpt>
      <trkpt lat="10.00122" lon="-84.19951">
        <ele>949.6</ele>
        <time>2022-05-14 18:08:03</time>
      </trkpt>
      <trkpt lat="10.0012" lon="-84.19947">
        <ele>949.6</ele>
        <time>2022-05-14 18:08:04</time>
      </trkpt>
      <trkpt lat="10.00119" lon="-84.19942">
        <ele>949.8</ele>
        <time>2022-05-14 18:08:05</time>
      </trkpt>
      <trkpt lat="10.00117" lon="-84.19937">
        <ele>949.8</ele>
        <time>2022-05-14 18:08:06</time>
      </trkpt>
      <trkpt lat="10.00116" lon="-84.19933">
        <ele>949.8</ele>
        <time>2022-05-14 18:08:07</time>
      </trkpt>
      <trkpt lat="10.00115" lon="-84.19927">
        <ele>949.8</ele>
        <time>2022-05-14 18:08:08</time>
      </trkpt>
      <trkpt lat="10.00113" lon="-84.19922">
        <ele>949.8</ele>
        <time>2022-05-14 18:08:09</time>
      </trkpt>
      <trkpt lat="10.00111" lon="-84.19917">
        <ele>949.8</ele>
        <time>2022-05-14 18:08:10</time>
      </trkpt>
      <trkpt lat="10.00111" lon="-84.19917">
        <ele>950</ele>
        <time>2022-05-14 18:08:11</time>
      </trkpt>
      <trkpt lat="10.00108" lon="-84.19903">
        <ele>950</ele>
        <time>2022-05-14 18:08:12</time>
      </trkpt>
      <trkpt lat="10.00108" lon="-84.19903">
        <ele>950.2</ele>
        <time>2022-05-14 18:08:13</time>
      </trkpt>
      <trkpt lat="10.00106" lon="-84.19898">
        <ele>950.2</ele>
        <time>2022-05-14 18:08:14</time>
      </trkpt>
      <trkpt lat="10.00104" lon="-84.19893">
        <ele>950.2</ele>
        <time>2022-05-14 18:08:15</time>
      </trkpt>
      <trkpt lat="10.00103" lon="-84.19888">
        <ele>950.2</ele>
        <time>2022-05-14 18:08:16</time>
      </trkpt>
      <trkpt lat="10.00101" lon="-84.19884">
        <ele>950.2</ele>
        <time>2022-05-14 18:08:17</time>
      </trkpt>
      <trkpt lat="10.00099" lon="-84.19878">
        <ele>950.2</ele>
        <time>2022-05-14 18:08:18</time>
      </trkpt>
      <trkpt lat="10.00097" lon="-84.19874">
        <ele>950.2</ele>
        <time>2022-05-14 18:08:19</time>
      </trkpt>
      <trkpt lat="10.00096" lon="-84.19868">
        <ele>950.2</ele>
        <time>2022-05-14 18:08:20</time>
      </trkpt>
      <trkpt lat="10.00096" lon="-84.19868">
        <ele>950.4</ele>
        <time>2022-05-14 18:08:21</time>
      </trkpt>
      <trkpt lat="10.0009" lon="-84.19853">
        <ele>950.6</ele>
        <time>2022-05-14 18:08:22</time>
      </trkpt>
      <trkpt lat="10.00088" lon="-84.19848">
        <ele>950.4</ele>
        <time>2022-05-14 18:08:23</time>
      </trkpt>
      <trkpt lat="10.00088" lon="-84.19848">
        <ele>950.4</ele>
        <time>2022-05-14 18:08:24</time>
      </trkpt>
      <trkpt lat="10.00086" lon="-84.19842">
        <ele>950.4</ele>
        <time>2022-05-14 18:08:25</time>
      </trkpt>
      <trkpt lat="10.00084" lon="-84.19837">
        <ele>950.2</ele>
        <time>2022-05-14 18:08:26</time>
      </trkpt>
      <trkpt lat="10.00082" lon="-84.19831">
        <ele>950.4</ele>
        <time>2022-05-14 18:08:27</time>
      </trkpt>
      <trkpt lat="10.00081" lon="-84.19825">
        <ele>950.4</ele>
        <time>2022-05-14 18:08:28</time>
      </trkpt>
      <trkpt lat="10.00078" lon="-84.19819">
        <ele>950.4</ele>
        <time>2022-05-14 18:08:29</time>
      </trkpt>
      <trkpt lat="10.00077" lon="-84.19814">
        <ele>950.4</ele>
        <time>2022-05-14 18:08:30</time>
      </trkpt>
      <trkpt lat="10.00075" lon="-84.19808">
        <ele>950.4</ele>
        <time>2022-05-14 18:08:31</time>
      </trkpt>
      <trkpt lat="10.00071" lon="-84.19796">
        <ele>950.4</ele>
        <time>2022-05-14 18:08:32</time>
      </trkpt>
      <trkpt lat="10.00069" lon="-84.1979">
        <ele>950.6</ele>
        <time>2022-05-14 18:08:33</time>
      </trkpt>
      <trkpt lat="10.00069" lon="-84.1979">
        <ele>950.6</ele>
        <time>2022-05-14 18:08:34</time>
      </trkpt>
      <trkpt lat="10.00067" lon="-84.19785">
        <ele>950.6</ele>
        <time>2022-05-14 18:08:35</time>
      </trkpt>
      <trkpt lat="10.00065" lon="-84.19779">
        <ele>950.6</ele>
        <time>2022-05-14 18:08:36</time>
      </trkpt>
      <trkpt lat="10.00063" lon="-84.19772">
        <ele>950.6</ele>
        <time>2022-05-14 18:08:37</time>
      </trkpt>
      <trkpt lat="10.00061" lon="-84.19766">
        <ele>950.8</ele>
        <time>2022-05-14 18:08:38</time>
      </trkpt>
      <trkpt lat="10.00059" lon="-84.1976">
        <ele>950.8</ele>
        <time>2022-05-14 18:08:39</time>
      </trkpt>
      <trkpt lat="10.00058" lon="-84.19754">
        <ele>950.8</ele>
        <time>2022-05-14 18:08:40</time>
      </trkpt>
      <trkpt lat="10.00056" lon="-84.19749">
        <ele>950.8</ele>
        <time>2022-05-14 18:08:41</time>
      </trkpt>
      <trkpt lat="10.00053" lon="-84.19736">
        <ele>951</ele>
        <time>2022-05-14 18:08:42</time>
      </trkpt>
      <trkpt lat="10.00051" lon="-84.1973">
        <ele>951.2</ele>
        <time>2022-05-14 18:08:43</time>
      </trkpt>
      <trkpt lat="10.00049" lon="-84.19725">
        <ele>951.4</ele>
        <time>2022-05-14 18:08:44</time>
      </trkpt>
      <trkpt lat="10.00049" lon="-84.19725">
        <ele>951.4</ele>
        <time>2022-05-14 18:08:45</time>
      </trkpt>
      <trkpt lat="10.00047" lon="-84.19719">
        <ele>951.4</ele>
        <time>2022-05-14 18:08:46</time>
      </trkpt>
      <trkpt lat="10.00046" lon="-84.19713">
        <ele>951.6</ele>
        <time>2022-05-14 18:08:47</time>
      </trkpt>
      <trkpt lat="10.00044" lon="-84.19708">
        <ele>951.6</ele>
        <time>2022-05-14 18:08:48</time>
      </trkpt>
      <trkpt lat="10.00043" lon="-84.19702">
        <ele>951.8</ele>
        <time>2022-05-14 18:08:49</time>
      </trkpt>
      <trkpt lat="10.00041" lon="-84.19697">
        <ele>952</ele>
        <time>2022-05-14 18:08:50</time>
      </trkpt>
      <trkpt lat="10.00039" lon="-84.19692">
        <ele>952.2</ele>
        <time>2022-05-14 18:08:51</time>
      </trkpt>
      <trkpt lat="10.00037" lon="-84.19686">
        <ele>952.4</ele>
        <time>2022-05-14 18:08:52</time>
      </trkpt>
      <trkpt lat="10.00034" lon="-84.19676">
        <ele>952.6</ele>
        <time>2022-05-14 18:08:53</time>
      </trkpt>
      <trkpt lat="10.00033" lon="-84.1967">
        <ele>952.8</ele>
        <time>2022-05-14 18:08:54</time>
      </trkpt>
      <trkpt lat="10.00033" lon="-84.1967">
        <ele>953</ele>
        <time>2022-05-14 18:08:55</time>
      </trkpt>
      <trkpt lat="10.00031" lon="-84.19665">
        <ele>953</ele>
        <time>2022-05-14 18:08:56</time>
      </trkpt>
      <trkpt lat="10.00031" lon="-84.1966">
        <ele>953.2</ele>
        <time>2022-05-14 18:08:57</time>
      </trkpt>
      <trkpt lat="10.0003" lon="-84.19653">
        <ele>953.4</ele>
        <time>2022-05-14 18:08:58</time>
      </trkpt>
      <trkpt lat="10.00029" lon="-84.19647">
        <ele>953.6</ele>
        <time>2022-05-14 18:08:59</time>
      </trkpt>
      <trkpt lat="10.00028" lon="-84.19642">
        <ele>953.8</ele>
        <time>2022-05-14 18:09:00</time>
      </trkpt>
      <trkpt lat="10.00027" lon="-84.19636">
        <ele>954</ele>
        <time>2022-05-14 18:09:01</time>
      </trkpt>
      <trkpt lat="10.00027" lon="-84.19636">
        <ele>954.2</ele>
        <time>2022-05-14 18:09:02</time>
      </trkpt>
      <trkpt lat="10.00027" lon="-84.19618">
        <ele>954.4</ele>
        <time>2022-05-14 18:09:03</time>
      </trkpt>
      <trkpt lat="10.00027" lon="-84.19612">
        <ele>954.6</ele>
        <time>2022-05-14 18:09:04</time>
      </trkpt>
      <trkpt lat="10.00027" lon="-84.19607">
        <ele>954.8</ele>
        <time>2022-05-14 18:09:05</time>
      </trkpt>
      <trkpt lat="10.00027" lon="-84.19607">
        <ele>954.8</ele>
        <time>2022-05-14 18:09:06</time>
      </trkpt>
      <trkpt lat="10.00027" lon="-84.19601">
        <ele>955</ele>
        <time>2022-05-14 18:09:07</time>
      </trkpt>
      <trkpt lat="10.00027" lon="-84.19595">
        <ele>955.2</ele>
        <time>2022-05-14 18:09:08</time>
      </trkpt>
      <trkpt lat="10.00027" lon="-84.1959">
        <ele>955.2</ele>
        <time>2022-05-14 18:09:09</time>
      </trkpt>
      <trkpt lat="10.00028" lon="-84.19584">
        <ele>955.4</ele>
        <time>2022-05-14 18:09:10</time>
      </trkpt>
      <trkpt lat="10.00029" lon="-84.19579">
        <ele>955.4</ele>
        <time>2022-05-14 18:09:11</time>
      </trkpt>
      <trkpt lat="10.0003" lon="-84.19573">
        <ele>955.6</ele>
        <time>2022-05-14 18:09:12</time>
      </trkpt>
      <trkpt lat="10.0003" lon="-84.19573">
        <ele>955.6</ele>
        <time>2022-05-14 18:09:13</time>
      </trkpt>
      <trkpt lat="10.00033" lon="-84.19559">
        <ele>955.8</ele>
        <time>2022-05-14 18:09:14</time>
      </trkpt>
      <trkpt lat="10.00034" lon="-84.19555">
        <ele>955.8</ele>
        <time>2022-05-14 18:09:15</time>
      </trkpt>
      <trkpt lat="10.00034" lon="-84.19555">
        <ele>956</ele>
        <time>2022-05-14 18:09:16</time>
      </trkpt>
      <trkpt lat="10.00035" lon="-84.19552">
        <ele>956</ele>
        <time>2022-05-14 18:09:17</time>
      </trkpt>
      <trkpt lat="10.00036" lon="-84.19548">
        <ele>956.2</ele>
        <time>2022-05-14 18:09:18</time>
      </trkpt>
      <trkpt lat="10.00037" lon="-84.19544">
        <ele>956.2</ele>
        <time>2022-05-14 18:09:19</time>
      </trkpt>
      <trkpt lat="10.00038" lon="-84.1954">
        <ele>956.4</ele>
        <time>2022-05-14 18:09:20</time>
      </trkpt>
      <trkpt lat="10.0004" lon="-84.19536">
        <ele>956.4</ele>
        <time>2022-05-14 18:09:21</time>
      </trkpt>
      <trkpt lat="10.00041" lon="-84.19532">
        <ele>956.4</ele>
        <time>2022-05-14 18:09:22</time>
      </trkpt>
      <trkpt lat="10.00045" lon="-84.19523">
        <ele>956.6</ele>
        <time>2022-05-14 18:09:23</time>
      </trkpt>
      <trkpt lat="10.00046" lon="-84.19517">
        <ele>956.8</ele>
        <time>2022-05-14 18:09:24</time>
      </trkpt>
      <trkpt lat="10.00048" lon="-84.19513">
        <ele>957</ele>
        <time>2022-05-14 18:09:25</time>
      </trkpt>
      <trkpt lat="10.00049" lon="-84.19508">
        <ele>957</ele>
        <time>2022-05-14 18:09:26</time>
      </trkpt>
      <trkpt lat="10.00049" lon="-84.19508">
        <ele>957</ele>
        <time>2022-05-14 18:09:27</time>
      </trkpt>
      <trkpt lat="10.0005" lon="-84.19503">
        <ele>957.2</ele>
        <time>2022-05-14 18:09:28</time>
      </trkpt>
      <trkpt lat="10.0005" lon="-84.19498">
        <ele>957.2</ele>
        <time>2022-05-14 18:09:29</time>
      </trkpt>
      <trkpt lat="10.00051" lon="-84.19492">
        <ele>957.4</ele>
        <time>2022-05-14 18:09:30</time>
      </trkpt>
      <trkpt lat="10.00052" lon="-84.19487">
        <ele>957.6</ele>
        <time>2022-05-14 18:09:31</time>
      </trkpt>
      <trkpt lat="10.00054" lon="-84.19481">
        <ele>957.6</ele>
        <time>2022-05-14 18:09:32</time>
      </trkpt>
      <trkpt lat="10.00055" lon="-84.19476">
        <ele>957.8</ele>
        <time>2022-05-14 18:09:33</time>
      </trkpt>
      <trkpt lat="10.00057" lon="-84.19465">
        <ele>958</ele>
        <time>2022-05-14 18:09:34</time>
      </trkpt>
      <trkpt lat="10.00058" lon="-84.19459">
        <ele>958.2</ele>
        <time>2022-05-14 18:09:35</time>
      </trkpt>
      <trkpt lat="10.0006" lon="-84.19455">
        <ele>958.2</ele>
        <time>2022-05-14 18:09:36</time>
      </trkpt>
      <trkpt lat="10.0006" lon="-84.19455">
        <ele>958.2</ele>
        <time>2022-05-14 18:09:37</time>
      </trkpt>
      <trkpt lat="10.00061" lon="-84.1945">
        <ele>958.4</ele>
        <time>2022-05-14 18:09:38</time>
      </trkpt>
      <trkpt lat="10.00062" lon="-84.19445">
        <ele>958.4</ele>
        <time>2022-05-14 18:09:39</time>
      </trkpt>
      <trkpt lat="10.00062" lon="-84.19441">
        <ele>958.4</ele>
        <time>2022-05-14 18:09:40</time>
      </trkpt>
      <trkpt lat="10.00062" lon="-84.19437">
        <ele>958.4</ele>
        <time>2022-05-14 18:09:41</time>
      </trkpt>
      <trkpt lat="10.00062" lon="-84.19434">
        <ele>958.6</ele>
        <time>2022-05-14 18:09:42</time>
      </trkpt>
      <trkpt lat="10.00062" lon="-84.19434">
        <ele>958.6</ele>
        <time>2022-05-14 18:09:43</time>
      </trkpt>
      <trkpt lat="10.00063" lon="-84.19422">
        <ele>958.6</ele>
        <time>2022-05-14 18:09:44</time>
      </trkpt>
      <trkpt lat="10.00064" lon="-84.19418">
        <ele>958.8</ele>
        <time>2022-05-14 18:09:45</time>
      </trkpt>
      <trkpt lat="10.00066" lon="-84.19414">
        <ele>958.8</ele>
        <time>2022-05-14 18:09:46</time>
      </trkpt>
      <trkpt lat="10.00067" lon="-84.19411">
        <ele>958.8</ele>
        <time>2022-05-14 18:09:47</time>
      </trkpt>
      <trkpt lat="10.00067" lon="-84.19411">
        <ele>958.8</ele>
        <time>2022-05-14 18:09:48</time>
      </trkpt>
      <trkpt lat="10.00068" lon="-84.19407">
        <ele>958.8</ele>
        <time>2022-05-14 18:09:49</time>
      </trkpt>
      <trkpt lat="10.0007" lon="-84.19402">
        <ele>958.8</ele>
        <time>2022-05-14 18:09:50</time>
      </trkpt>
      <trkpt lat="10.00071" lon="-84.19398">
        <ele>959</ele>
        <time>2022-05-14 18:09:51</time>
      </trkpt>
      <trkpt lat="10.00072" lon="-84.19395">
        <ele>959</ele>
        <time>2022-05-14 18:09:52</time>
      </trkpt>
      <trkpt lat="10.00073" lon="-84.19389">
        <ele>959.2</ele>
        <time>2022-05-14 18:09:53</time>
      </trkpt>
      <trkpt lat="10.00073" lon="-84.19389">
        <ele>959.4</ele>
        <time>2022-05-14 18:09:54</time>
      </trkpt>
      <trkpt lat="10.00076" lon="-84.19376">
        <ele>959.6</ele>
        <time>2022-05-14 18:09:55</time>
      </trkpt>
      <trkpt lat="10.00077" lon="-84.19372">
        <ele>959.6</ele>
        <time>2022-05-14 18:09:56</time>
      </trkpt>
      <trkpt lat="10.00078" lon="-84.19367">
        <ele>959.6</ele>
        <time>2022-05-14 18:09:57</time>
      </trkpt>
      <trkpt lat="10.00078" lon="-84.19367">
        <ele>959.6</ele>
        <time>2022-05-14 18:09:58</time>
      </trkpt>
      <trkpt lat="10.00079" lon="-84.19363">
        <ele>959.6</ele>
        <time>2022-05-14 18:09:59</time>
      </trkpt>
      <trkpt lat="10.0008" lon="-84.19358">
        <ele>959.6</ele>
        <time>2022-05-14 18:10:00</time>
      </trkpt>
      <trkpt lat="10.00081" lon="-84.19353">
        <ele>959.8</ele>
        <time>2022-05-14 18:10:01</time>
      </trkpt>
      <trkpt lat="10.00082" lon="-84.19349">
        <ele>959.8</ele>
        <time>2022-05-14 18:10:02</time>
      </trkpt>
      <trkpt lat="10.00083" lon="-84.19346">
        <ele>959.8</ele>
        <time>2022-05-14 18:10:03</time>
      </trkpt>
      <trkpt lat="10.00084" lon="-84.19338">
        <ele>960</ele>
        <time>2022-05-14 18:10:04</time>
      </trkpt>
      <trkpt lat="10.00086" lon="-84.19334">
        <ele>960</ele>
        <time>2022-05-14 18:10:05</time>
      </trkpt>
      <trkpt lat="10.00087" lon="-84.19331">
        <ele>960</ele>
        <time>2022-05-14 18:10:06</time>
      </trkpt>
      <trkpt lat="10.00088" lon="-84.19326">
        <ele>960</ele>
        <time>2022-05-14 18:10:07</time>
      </trkpt>
      <trkpt lat="10.00089" lon="-84.19321">
        <ele>960.2</ele>
        <time>2022-05-14 18:10:08</time>
      </trkpt>
      <trkpt lat="10.00089" lon="-84.19321">
        <ele>960.2</ele>
        <time>2022-05-14 18:10:09</time>
      </trkpt>
      <trkpt lat="10.0009" lon="-84.19316">
        <ele>960.4</ele>
        <time>2022-05-14 18:10:10</time>
      </trkpt>
      <trkpt lat="10.00091" lon="-84.19311">
        <ele>960.6</ele>
        <time>2022-05-14 18:10:11</time>
      </trkpt>
      <trkpt lat="10.00092" lon="-84.19306">
        <ele>960.6</ele>
        <time>2022-05-14 18:10:12</time>
      </trkpt>
      <trkpt lat="10.00093" lon="-84.19301">
        <ele>960.6</ele>
        <time>2022-05-14 18:10:13</time>
      </trkpt>
      <trkpt lat="10.00094" lon="-84.19295">
        <ele>960.6</ele>
        <time>2022-05-14 18:10:14</time>
      </trkpt>
      <trkpt lat="10.00096" lon="-84.19284">
        <ele>960.6</ele>
        <time>2022-05-14 18:10:15</time>
      </trkpt>
      <trkpt lat="10.00097" lon="-84.19279">
        <ele>960.6</ele>
        <time>2022-05-14 18:10:16</time>
      </trkpt>
      <trkpt lat="10.00099" lon="-84.19274">
        <ele>960.6</ele>
        <time>2022-05-14 18:10:17</time>
      </trkpt>
      <trkpt lat="10.001" lon="-84.19269">
        <ele>960.8</ele>
        <time>2022-05-14 18:10:18</time>
      </trkpt>
      <trkpt lat="10.001" lon="-84.19269">
        <ele>960.8</ele>
        <time>2022-05-14 18:10:19</time>
      </trkpt>
      <trkpt lat="10.00102" lon="-84.19264">
        <ele>961</ele>
        <time>2022-05-14 18:10:20</time>
      </trkpt>
      <trkpt lat="10.00105" lon="-84.1926">
        <ele>961.2</ele>
        <time>2022-05-14 18:10:21</time>
      </trkpt>
      <trkpt lat="10.00107" lon="-84.19256">
        <ele>961.2</ele>
        <time>2022-05-14 18:10:22</time>
      </trkpt>
      <trkpt lat="10.00109" lon="-84.19252">
        <ele>961.2</ele>
        <time>2022-05-14 18:10:23</time>
      </trkpt>
      <trkpt lat="10.00111" lon="-84.19248">
        <ele>961.2</ele>
        <time>2022-05-14 18:10:24</time>
      </trkpt>
      <trkpt lat="10.00114" lon="-84.19241">
        <ele>961.2</ele>
        <time>2022-05-14 18:10:25</time>
      </trkpt>
      <trkpt lat="10.00116" lon="-84.19237">
        <ele>961.2</ele>
        <time>2022-05-14 18:10:26</time>
      </trkpt>
      <trkpt lat="10.00117" lon="-84.19232">
        <ele>961.4</ele>
        <time>2022-05-14 18:10:27</time>
      </trkpt>
      <trkpt lat="10.00119" lon="-84.19227">
        <ele>961.4</ele>
        <time>2022-05-14 18:10:28</time>
      </trkpt>
      <trkpt lat="10.00121" lon="-84.19222">
        <ele>961.6</ele>
        <time>2022-05-14 18:10:29</time>
      </trkpt>
      <trkpt lat="10.00121" lon="-84.19222">
        <ele>961.6</ele>
        <time>2022-05-14 18:10:30</time>
      </trkpt>
      <trkpt lat="10.00123" lon="-84.19218">
        <ele>961.6</ele>
        <time>2022-05-14 18:10:31</time>
      </trkpt>
      <trkpt lat="10.00126" lon="-84.19212">
        <ele>961.8</ele>
        <time>2022-05-14 18:10:32</time>
      </trkpt>
      <trkpt lat="10.00128" lon="-84.19207">
        <ele>962</ele>
        <time>2022-05-14 18:10:33</time>
      </trkpt>
      <trkpt lat="10.0013" lon="-84.19203">
        <ele>962</ele>
        <time>2022-05-14 18:10:34</time>
      </trkpt>
      <trkpt lat="10.00132" lon="-84.19197">
        <ele>962</ele>
        <time>2022-05-14 18:10:35</time>
      </trkpt>
      <trkpt lat="10.00137" lon="-84.19187">
        <ele>962.2</ele>
        <time>2022-05-14 18:10:36</time>
      </trkpt>
      <trkpt lat="10.00139" lon="-84.19182">
        <ele>962.2</ele>
        <time>2022-05-14 18:10:37</time>
      </trkpt>
      <trkpt lat="10.00141" lon="-84.19177">
        <ele>962.4</ele>
        <time>2022-05-14 18:10:38</time>
      </trkpt>
      <trkpt lat="10.00144" lon="-84.19172">
        <ele>962.4</ele>
        <time>2022-05-14 18:10:39</time>
      </trkpt>
      <trkpt lat="10.00144" lon="-84.19172">
        <ele>962.4</ele>
        <time>2022-05-14 18:10:40</time>
      </trkpt>
      <trkpt lat="10.00146" lon="-84.19167">
        <ele>962.6</ele>
        <time>2022-05-14 18:10:41</time>
      </trkpt>
      <trkpt lat="10.00148" lon="-84.19162">
        <ele>962.6</ele>
        <time>2022-05-14 18:10:42</time>
      </trkpt>
      <trkpt lat="10.0015" lon="-84.19157">
        <ele>962.8</ele>
        <time>2022-05-14 18:10:43</time>
      </trkpt>
      <trkpt lat="10.00152" lon="-84.19152">
        <ele>962.8</ele>
        <time>2022-05-14 18:10:44</time>
      </trkpt>
      <trkpt lat="10.00152" lon="-84.19152">
        <ele>962.8</ele>
        <time>2022-05-14 18:10:45</time>
      </trkpt>
      <trkpt lat="10.00157" lon="-84.1914">
        <ele>963</ele>
        <time>2022-05-14 18:10:46</time>
      </trkpt>
      <trkpt lat="10.00159" lon="-84.19137">
        <ele>963</ele>
        <time>2022-05-14 18:10:47</time>
      </trkpt>
      <trkpt lat="10.0016" lon="-84.19134">
        <ele>963</ele>
        <time>2022-05-14 18:10:48</time>
      </trkpt>
      <trkpt lat="10.00162" lon="-84.19132">
        <ele>963.2</ele>
        <time>2022-05-14 18:10:49</time>
      </trkpt>
      <trkpt lat="10.00163" lon="-84.19128">
        <ele>963.2</ele>
        <time>2022-05-14 18:10:50</time>
      </trkpt>
      <trkpt lat="10.00163" lon="-84.19128">
        <ele>963.2</ele>
        <time>2022-05-14 18:10:51</time>
      </trkpt>
      <trkpt lat="10.00164" lon="-84.19125">
        <ele>963.4</ele>
        <time>2022-05-14 18:10:52</time>
      </trkpt>
      <trkpt lat="10.00166" lon="-84.19123">
        <ele>963.6</ele>
        <time>2022-05-14 18:10:53</time>
      </trkpt>
      <trkpt lat="10.00167" lon="-84.19118">
        <ele>963.6</ele>
        <time>2022-05-14 18:10:54</time>
      </trkpt>
      <trkpt lat="10.00168" lon="-84.19114">
        <ele>963.6</ele>
        <time>2022-05-14 18:10:55</time>
      </trkpt>
      <trkpt lat="10.00168" lon="-84.19114">
        <ele>963.6</ele>
        <time>2022-05-14 18:10:56</time>
      </trkpt>
      <trkpt lat="10.00172" lon="-84.191">
        <ele>963.8</ele>
        <time>2022-05-14 18:10:57</time>
      </trkpt>
      <trkpt lat="10.00174" lon="-84.19095">
        <ele>964.2</ele>
        <time>2022-05-14 18:10:58</time>
      </trkpt>
      <trkpt lat="10.00175" lon="-84.19089">
        <ele>964.2</ele>
        <time>2022-05-14 18:10:59</time>
      </trkpt>
      <trkpt lat="10.00177" lon="-84.19084">
        <ele>964.4</ele>
        <time>2022-05-14 18:11:00</time>
      </trkpt>
      <trkpt lat="10.00177" lon="-84.19084">
        <ele>964.4</ele>
        <time>2022-05-14 18:11:01</time>
      </trkpt>
      <trkpt lat="10.00178" lon="-84.1908">
        <ele>964.4</ele>
        <time>2022-05-14 18:11:02</time>
      </trkpt>
      <trkpt lat="10.00179" lon="-84.19076">
        <ele>964.6</ele>
        <time>2022-05-14 18:11:03</time>
      </trkpt>
      <trkpt lat="10.00181" lon="-84.19072">
        <ele>964.6</ele>
        <time>2022-05-14 18:11:04</time>
      </trkpt>
      <trkpt lat="10.00181" lon="-84.19069">
        <ele>964.6</ele>
        <time>2022-05-14 18:11:05</time>
      </trkpt>
      <trkpt lat="10.00183" lon="-84.19064">
        <ele>964.6</ele>
        <time>2022-05-14 18:11:06</time>
      </trkpt>
      <trkpt lat="10.00183" lon="-84.1906">
        <ele>964.8</ele>
        <time>2022-05-14 18:11:07</time>
      </trkpt>
      <trkpt lat="10.00183" lon="-84.19057">
        <ele>965</ele>
        <time>2022-05-14 18:11:08</time>
      </trkpt>
      <trkpt lat="10.00184" lon="-84.19054">
        <ele>965.2</ele>
        <time>2022-05-14 18:11:09</time>
      </trkpt>
      <trkpt lat="10.00185" lon="-84.19051">
        <ele>965.4</ele>
        <time>2022-05-14 18:11:10</time>
      </trkpt>
      <trkpt lat="10.00187" lon="-84.19046">
        <ele>965.4</ele>
        <time>2022-05-14 18:11:11</time>
      </trkpt>
      <trkpt lat="10.00187" lon="-84.19046">
        <ele>965.4</ele>
        <time>2022-05-14 18:11:12</time>
      </trkpt>
      <trkpt lat="10.00188" lon="-84.19042">
        <ele>965.6</ele>
        <time>2022-05-14 18:11:13</time>
      </trkpt>
      <trkpt lat="10.00189" lon="-84.19038">
        <ele>965.8</ele>
        <time>2022-05-14 18:11:14</time>
      </trkpt>
      <trkpt lat="10.00191" lon="-84.19033">
        <ele>965.8</ele>
        <time>2022-05-14 18:11:15</time>
      </trkpt>
      <trkpt lat="10.00192" lon="-84.19029">
        <ele>965.8</ele>
        <time>2022-05-14 18:11:16</time>
      </trkpt>
      <trkpt lat="10.00194" lon="-84.19018">
        <ele>965.8</ele>
        <time>2022-05-14 18:11:17</time>
      </trkpt>
      <trkpt lat="10.00196" lon="-84.19013">
        <ele>966</ele>
        <time>2022-05-14 18:11:18</time>
      </trkpt>
      <trkpt lat="10.00197" lon="-84.19008">
        <ele>966</ele>
        <time>2022-05-14 18:11:19</time>
      </trkpt>
      <trkpt lat="10.00199" lon="-84.19003">
        <ele>966.2</ele>
        <time>2022-05-14 18:11:20</time>
      </trkpt>
      <trkpt lat="10.002" lon="-84.18998">
        <ele>966.2</ele>
        <time>2022-05-14 18:11:21</time>
      </trkpt>
      <trkpt lat="10.002" lon="-84.18998">
        <ele>966.4</ele>
        <time>2022-05-14 18:11:22</time>
      </trkpt>
      <trkpt lat="10.00202" lon="-84.18993">
        <ele>966.6</ele>
        <time>2022-05-14 18:11:23</time>
      </trkpt>
      <trkpt lat="10.00203" lon="-84.18989">
        <ele>966.8</ele>
        <time>2022-05-14 18:11:24</time>
      </trkpt>
      <trkpt lat="10.00204" lon="-84.18986">
        <ele>966.6</ele>
        <time>2022-05-14 18:11:25</time>
      </trkpt>
      <trkpt lat="10.00204" lon="-84.18986">
        <ele>966.8</ele>
        <time>2022-05-14 18:11:26</time>
      </trkpt>
      <trkpt lat="10.00209" lon="-84.18973">
        <ele>966.6</ele>
        <time>2022-05-14 18:11:27</time>
      </trkpt>
      <trkpt lat="10.00211" lon="-84.18968">
        <ele>966.6</ele>
        <time>2022-05-14 18:11:28</time>
      </trkpt>
      <trkpt lat="10.00213" lon="-84.18964">
        <ele>966.6</ele>
        <time>2022-05-14 18:11:29</time>
      </trkpt>
      <trkpt lat="10.00214" lon="-84.1896">
        <ele>966.8</ele>
        <time>2022-05-14 18:11:30</time>
      </trkpt>
      <trkpt lat="10.00216" lon="-84.18955">
        <ele>966.8</ele>
        <time>2022-05-14 18:11:31</time>
      </trkpt>
      <trkpt lat="10.00217" lon="-84.1895">
        <ele>967</ele>
        <time>2022-05-14 18:11:32</time>
      </trkpt>
      <trkpt lat="10.00217" lon="-84.1895">
        <ele>967</ele>
        <time>2022-05-14 18:11:33</time>
      </trkpt>
      <trkpt lat="10.00219" lon="-84.18944">
        <ele>967</ele>
        <time>2022-05-14 18:11:34</time>
      </trkpt>
      <trkpt lat="10.0022" lon="-84.1894">
        <ele>967</ele>
        <time>2022-05-14 18:11:35</time>
      </trkpt>
      <trkpt lat="10.00221" lon="-84.18936">
        <ele>967.2</ele>
        <time>2022-05-14 18:11:36</time>
      </trkpt>
      <trkpt lat="10.00221" lon="-84.18936">
        <ele>967.2</ele>
        <time>2022-05-14 18:11:37</time>
      </trkpt>
      <trkpt lat="10.00224" lon="-84.18924">
        <ele>967.4</ele>
        <time>2022-05-14 18:11:38</time>
      </trkpt>
      <trkpt lat="10.00225" lon="-84.18921">
        <ele>967.6</ele>
        <time>2022-05-14 18:11:39</time>
      </trkpt>
      <trkpt lat="10.00226" lon="-84.18917">
        <ele>967.8</ele>
        <time>2022-05-14 18:11:40</time>
      </trkpt>
      <trkpt lat="10.00227" lon="-84.18913">
        <ele>968</ele>
        <time>2022-05-14 18:11:41</time>
      </trkpt>
      <trkpt lat="10.00229" lon="-84.18909">
        <ele>968.2</ele>
        <time>2022-05-14 18:11:42</time>
      </trkpt>
      <trkpt lat="10.00229" lon="-84.18909">
        <ele>968.4</ele>
        <time>2022-05-14 18:11:43</time>
      </trkpt>
      <trkpt lat="10.0023" lon="-84.18905">
        <ele>968.8</ele>
        <time>2022-05-14 18:11:44</time>
      </trkpt>
      <trkpt lat="10.00232" lon="-84.18901">
        <ele>968.8</ele>
        <time>2022-05-14 18:11:45</time>
      </trkpt>
      <trkpt lat="10.00234" lon="-84.18897">
        <ele>968.8</ele>
        <time>2022-05-14 18:11:46</time>
      </trkpt>
      <trkpt lat="10.00237" lon="-84.18887">
        <ele>968.8</ele>
        <time>2022-05-14 18:11:47</time>
      </trkpt>
      <trkpt lat="10.00239" lon="-84.18882">
        <ele>969</ele>
        <time>2022-05-14 18:11:48</time>
      </trkpt>
      <trkpt lat="10.00241" lon="-84.18876">
        <ele>969.2</ele>
        <time>2022-05-14 18:11:49</time>
      </trkpt>
      <trkpt lat="10.00243" lon="-84.1887">
        <ele>969.2</ele>
        <time>2022-05-14 18:11:50</time>
      </trkpt>
      <trkpt lat="10.00245" lon="-84.18865">
        <ele>969.4</ele>
        <time>2022-05-14 18:11:51</time>
      </trkpt>
      <trkpt lat="10.00248" lon="-84.18859">
        <ele>969.6</ele>
        <time>2022-05-14 18:11:52</time>
      </trkpt>
      <trkpt lat="10.0025" lon="-84.18853">
        <ele>969.8</ele>
        <time>2022-05-14 18:11:53</time>
      </trkpt>
      <trkpt lat="10.0025" lon="-84.18853">
        <ele>969.8</ele>
        <time>2022-05-14 18:11:54</time>
      </trkpt>
      <trkpt lat="10.00252" lon="-84.18848">
        <ele>970</ele>
        <time>2022-05-14 18:11:55</time>
      </trkpt>
      <trkpt lat="10.00253" lon="-84.18841">
        <ele>970.2</ele>
        <time>2022-05-14 18:11:56</time>
      </trkpt>
      <trkpt lat="10.00255" lon="-84.18835">
        <ele>970.4</ele>
        <time>2022-05-14 18:11:57</time>
      </trkpt>
      <trkpt lat="10.00259" lon="-84.18823">
        <ele>970.6</ele>
        <time>2022-05-14 18:11:58</time>
      </trkpt>
      <trkpt lat="10.00261" lon="-84.18816">
        <ele>970.8</ele>
        <time>2022-05-14 18:11:59</time>
      </trkpt>
      <trkpt lat="10.00262" lon="-84.1881">
        <ele>970.8</ele>
        <time>2022-05-14 18:12:00</time>
      </trkpt>
      <trkpt lat="10.00264" lon="-84.18804">
        <ele>970.8</ele>
        <time>2022-05-14 18:12:01</time>
      </trkpt>
      <trkpt lat="10.00266" lon="-84.18798">
        <ele>971</ele>
        <time>2022-05-14 18:12:02</time>
      </trkpt>
      <trkpt lat="10.00268" lon="-84.18793">
        <ele>971.2</ele>
        <time>2022-05-14 18:12:03</time>
      </trkpt>
      <trkpt lat="10.00268" lon="-84.18793">
        <ele>971.2</ele>
        <time>2022-05-14 18:12:04</time>
      </trkpt>
      <trkpt lat="10.0027" lon="-84.18787">
        <ele>971.4</ele>
        <time>2022-05-14 18:12:05</time>
      </trkpt>
      <trkpt lat="10.00271" lon="-84.18782">
        <ele>971.6</ele>
        <time>2022-05-14 18:12:06</time>
      </trkpt>
      <trkpt lat="10.00273" lon="-84.18777">
        <ele>971.6</ele>
        <time>2022-05-14 18:12:07</time>
      </trkpt>
      <trkpt lat="10.00276" lon="-84.18766">
        <ele>971.8</ele>
        <time>2022-05-14 18:12:08</time>
      </trkpt>
      <trkpt lat="10.00278" lon="-84.1876">
        <ele>972</ele>
        <time>2022-05-14 18:12:09</time>
      </trkpt>
      <trkpt lat="10.00279" lon="-84.18755">
        <ele>972.2</ele>
        <time>2022-05-14 18:12:10</time>
      </trkpt>
      <trkpt lat="10.00281" lon="-84.1875">
        <ele>972.4</ele>
        <time>2022-05-14 18:12:11</time>
      </trkpt>
      <trkpt lat="10.00283" lon="-84.18745">
        <ele>972.6</ele>
        <time>2022-05-14 18:12:12</time>
      </trkpt>
      <trkpt lat="10.00284" lon="-84.1874">
        <ele>972.6</ele>
        <time>2022-05-14 18:12:13</time>
      </trkpt>
      <trkpt lat="10.00285" lon="-84.18735">
        <ele>972.6</ele>
        <time>2022-05-14 18:12:14</time>
      </trkpt>
      <trkpt lat="10.00285" lon="-84.18735">
        <ele>972.6</ele>
        <time>2022-05-14 18:12:15</time>
      </trkpt>
      <trkpt lat="10.00286" lon="-84.18729">
        <ele>972.6</ele>
        <time>2022-05-14 18:12:16</time>
      </trkpt>
      <trkpt lat="10.00288" lon="-84.18725">
        <ele>972.6</ele>
        <time>2022-05-14 18:12:17</time>
      </trkpt>
      <trkpt lat="10.0029" lon="-84.1872">
        <ele>972.8</ele>
        <time>2022-05-14 18:12:18</time>
      </trkpt>
      <trkpt lat="10.00293" lon="-84.18709">
        <ele>973</ele>
        <time>2022-05-14 18:12:19</time>
      </trkpt>
      <trkpt lat="10.00295" lon="-84.18703">
        <ele>973.2</ele>
        <time>2022-05-14 18:12:20</time>
      </trkpt>
      <trkpt lat="10.00297" lon="-84.18697">
        <ele>973.4</ele>
        <time>2022-05-14 18:12:21</time>
      </trkpt>
      <trkpt lat="10.00298" lon="-84.18691">
        <ele>973.6</ele>
        <time>2022-05-14 18:12:22</time>
      </trkpt>
      <trkpt lat="10.003" lon="-84.18686">
        <ele>973.6</ele>
        <time>2022-05-14 18:12:23</time>
      </trkpt>
      <trkpt lat="10.00301" lon="-84.18681">
        <ele>973.8</ele>
        <time>2022-05-14 18:12:24</time>
      </trkpt>
      <trkpt lat="10.00301" lon="-84.18681">
        <ele>974</ele>
        <time>2022-05-14 18:12:25</time>
      </trkpt>
      <trkpt lat="10.00303" lon="-84.18677">
        <ele>974.2</ele>
        <time>2022-05-14 18:12:26</time>
      </trkpt>
      <trkpt lat="10.00304" lon="-84.18673">
        <ele>974.2</ele>
        <time>2022-05-14 18:12:27</time>
      </trkpt>
      <trkpt lat="10.00304" lon="-84.18673">
        <ele>974.2</ele>
        <time>2022-05-14 18:12:28</time>
      </trkpt>
      <trkpt lat="10.00307" lon="-84.18664">
        <ele>974.4</ele>
        <time>2022-05-14 18:12:29</time>
      </trkpt>
      <trkpt lat="10.00307" lon="-84.18661">
        <ele>974.2</ele>
        <time>2022-05-14 18:12:30</time>
      </trkpt>
      <trkpt lat="10.00308" lon="-84.18659">
        <ele>974.2</ele>
        <time>2022-05-14 18:12:31</time>
      </trkpt>
      <trkpt lat="10.0031" lon="-84.18657">
        <ele>974.2</ele>
        <time>2022-05-14 18:12:32</time>
      </trkpt>
      <trkpt lat="10.00311" lon="-84.18653">
        <ele>974.4</ele>
        <time>2022-05-14 18:12:33</time>
      </trkpt>
      <trkpt lat="10.00312" lon="-84.1865">
        <ele>974.6</ele>
        <time>2022-05-14 18:12:34</time>
      </trkpt>
      <trkpt lat="10.00313" lon="-84.18646">
        <ele>974.6</ele>
        <time>2022-05-14 18:12:35</time>
      </trkpt>
      <trkpt lat="10.00313" lon="-84.18646">
        <ele>974.6</ele>
        <time>2022-05-14 18:12:36</time>
      </trkpt>
      <trkpt lat="10.00314" lon="-84.18642">
        <ele>974.8</ele>
        <time>2022-05-14 18:12:37</time>
      </trkpt>
      <trkpt lat="10.00316" lon="-84.18638">
        <ele>975</ele>
        <time>2022-05-14 18:12:38</time>
      </trkpt>
      <trkpt lat="10.00316" lon="-84.18638">
        <ele>975.2</ele>
        <time>2022-05-14 18:12:39</time>
      </trkpt>
      <trkpt lat="10.0032" lon="-84.18623">
        <ele>975.2</ele>
        <time>2022-05-14 18:12:40</time>
      </trkpt>
      <trkpt lat="10.00322" lon="-84.18618">
        <ele>975.4</ele>
        <time>2022-05-14 18:12:41</time>
      </trkpt>
      <trkpt lat="10.00324" lon="-84.18612">
        <ele>975.4</ele>
        <time>2022-05-14 18:12:42</time>
      </trkpt>
      <trkpt lat="10.00326" lon="-84.18608">
        <ele>975.4</ele>
        <time>2022-05-14 18:12:43</time>
      </trkpt>
      <trkpt lat="10.00328" lon="-84.18603">
        <ele>975.6</ele>
        <time>2022-05-14 18:12:44</time>
      </trkpt>
      <trkpt lat="10.00329" lon="-84.18599">
        <ele>975.6</ele>
        <time>2022-05-14 18:12:45</time>
      </trkpt>
      <trkpt lat="10.00329" lon="-84.18599">
        <ele>975.6</ele>
        <time>2022-05-14 18:12:46</time>
      </trkpt>
      <trkpt lat="10.00331" lon="-84.18594">
        <ele>975.8</ele>
        <time>2022-05-14 18:12:47</time>
      </trkpt>
      <trkpt lat="10.00333" lon="-84.1859">
        <ele>976</ele>
        <time>2022-05-14 18:12:48</time>
      </trkpt>
      <trkpt lat="10.00336" lon="-84.18578">
        <ele>975.8</ele>
        <time>2022-05-14 18:12:49</time>
      </trkpt>
      <trkpt lat="10.00339" lon="-84.18572">
        <ele>975.8</ele>
        <time>2022-05-14 18:12:50</time>
      </trkpt>
      <trkpt lat="10.00341" lon="-84.18566">
        <ele>975.8</ele>
        <time>2022-05-14 18:12:51</time>
      </trkpt>
      <trkpt lat="10.00343" lon="-84.1856">
        <ele>976</ele>
        <time>2022-05-14 18:12:52</time>
      </trkpt>
      <trkpt lat="10.00345" lon="-84.18554">
        <ele>976</ele>
        <time>2022-05-14 18:12:53</time>
      </trkpt>
      <trkpt lat="10.00347" lon="-84.18548">
        <ele>976</ele>
        <time>2022-05-14 18:12:54</time>
      </trkpt>
      <trkpt lat="10.00349" lon="-84.18542">
        <ele>976</ele>
        <time>2022-05-14 18:12:55</time>
      </trkpt>
      <trkpt lat="10.00352" lon="-84.18536">
        <ele>976.2</ele>
        <time>2022-05-14 18:12:56</time>
      </trkpt>
      <trkpt lat="10.00352" lon="-84.18536">
        <ele>976.2</ele>
        <time>2022-05-14 18:12:57</time>
      </trkpt>
      <trkpt lat="10.00354" lon="-84.18529">
        <ele>976.4</ele>
        <time>2022-05-14 18:12:58</time>
      </trkpt>
      <trkpt lat="10.00356" lon="-84.18523">
        <ele>976.4</ele>
        <time>2022-05-14 18:12:59</time>
      </trkpt>
      <trkpt lat="10.0036" lon="-84.18511">
        <ele>976.6</ele>
        <time>2022-05-14 18:13:00</time>
      </trkpt>
      <trkpt lat="10.00362" lon="-84.18506">
        <ele>976.8</ele>
        <time>2022-05-14 18:13:01</time>
      </trkpt>
      <trkpt lat="10.00364" lon="-84.185">
        <ele>976.8</ele>
        <time>2022-05-14 18:13:02</time>
      </trkpt>
      <trkpt lat="10.00366" lon="-84.18494">
        <ele>976.6</ele>
        <time>2022-05-14 18:13:03</time>
      </trkpt>
      <trkpt lat="10.00368" lon="-84.18489">
        <ele>976.6</ele>
        <time>2022-05-14 18:13:04</time>
      </trkpt>
      <trkpt lat="10.0037" lon="-84.18484">
        <ele>976.6</ele>
        <time>2022-05-14 18:13:05</time>
      </trkpt>
      <trkpt lat="10.00371" lon="-84.18479">
        <ele>976.6</ele>
        <time>2022-05-14 18:13:06</time>
      </trkpt>
      <trkpt lat="10.00371" lon="-84.18479">
        <ele>976.6</ele>
        <time>2022-05-14 18:13:07</time>
      </trkpt>
      <trkpt lat="10.00373" lon="-84.18475">
        <ele>976.6</ele>
        <time>2022-05-14 18:13:08</time>
      </trkpt>
      <trkpt lat="10.00373" lon="-84.18475">
        <ele>976.8</ele>
        <time>2022-05-14 18:13:09</time>
      </trkpt>
      <trkpt lat="10.00376" lon="-84.18463">
        <ele>977</ele>
        <time>2022-05-14 18:13:10</time>
      </trkpt>
      <trkpt lat="10.00378" lon="-84.18458">
        <ele>977.2</ele>
        <time>2022-05-14 18:13:11</time>
      </trkpt>
      <trkpt lat="10.00379" lon="-84.18453">
        <ele>977.4</ele>
        <time>2022-05-14 18:13:12</time>
      </trkpt>
      <trkpt lat="10.00381" lon="-84.18449">
        <ele>977.6</ele>
        <time>2022-05-14 18:13:13</time>
      </trkpt>
      <trkpt lat="10.00383" lon="-84.18443">
        <ele>977.6</ele>
        <time>2022-05-14 18:13:14</time>
      </trkpt>
      <trkpt lat="10.00385" lon="-84.18438">
        <ele>977.8</ele>
        <time>2022-05-14 18:13:15</time>
      </trkpt>
      <trkpt lat="10.00386" lon="-84.18433">
        <ele>978</ele>
        <time>2022-05-14 18:13:16</time>
      </trkpt>
      <trkpt lat="10.00388" lon="-84.18428">
        <ele>978</ele>
        <time>2022-05-14 18:13:17</time>
      </trkpt>
      <trkpt lat="10.00388" lon="-84.18428">
        <ele>978</ele>
        <time>2022-05-14 18:13:18</time>
      </trkpt>
      <trkpt lat="10.00389" lon="-84.18423">
        <ele>978</ele>
        <time>2022-05-14 18:13:19</time>
      </trkpt>
      <trkpt lat="10.00389" lon="-84.18423">
        <ele>978</ele>
        <time>2022-05-14 18:13:20</time>
      </trkpt>
      <trkpt lat="10.00395" lon="-84.18406">
        <ele>978</ele>
        <time>2022-05-14 18:13:21</time>
      </trkpt>
      <trkpt lat="10.00397" lon="-84.18402">
        <ele>978.2</ele>
        <time>2022-05-14 18:13:22</time>
      </trkpt>
      <trkpt lat="10.00399" lon="-84.18397">
        <ele>978.4</ele>
        <time>2022-05-14 18:13:23</time>
      </trkpt>
      <trkpt lat="10.00401" lon="-84.18393">
        <ele>978.6</ele>
        <time>2022-05-14 18:13:24</time>
      </trkpt>
      <trkpt lat="10.00402" lon="-84.18389">
        <ele>978.8</ele>
        <time>2022-05-14 18:13:25</time>
      </trkpt>
      <trkpt lat="10.00403" lon="-84.18384">
        <ele>979</ele>
        <time>2022-05-14 18:13:26</time>
      </trkpt>
      <trkpt lat="10.00404" lon="-84.1838">
        <ele>979</ele>
        <time>2022-05-14 18:13:27</time>
      </trkpt>
      <trkpt lat="10.00404" lon="-84.1838">
        <ele>979.2</ele>
        <time>2022-05-14 18:13:28</time>
      </trkpt>
      <trkpt lat="10.00405" lon="-84.18376">
        <ele>979.2</ele>
        <time>2022-05-14 18:13:29</time>
      </trkpt>
      <trkpt lat="10.00405" lon="-84.18376">
        <ele>979.4</ele>
        <time>2022-05-14 18:13:30</time>
      </trkpt>
      <trkpt lat="10.0041" lon="-84.18362">
        <ele>979.4</ele>
        <time>2022-05-14 18:13:31</time>
      </trkpt>
      <trkpt lat="10.00412" lon="-84.18355">
        <ele>979.6</ele>
        <time>2022-05-14 18:13:32</time>
      </trkpt>
      <trkpt lat="10.00414" lon="-84.18351">
        <ele>979.8</ele>
        <time>2022-05-14 18:13:33</time>
      </trkpt>
      <trkpt lat="10.00416" lon="-84.18346">
        <ele>980.2</ele>
        <time>2022-05-14 18:13:34</time>
      </trkpt>
      <trkpt lat="10.00418" lon="-84.18341">
        <ele>980.4</ele>
        <time>2022-05-14 18:13:35</time>
      </trkpt>
      <trkpt lat="10.0042" lon="-84.18336">
        <ele>980.4</ele>
        <time>2022-05-14 18:13:36</time>
      </trkpt>
      <trkpt lat="10.00422" lon="-84.18331">
        <ele>980.6</ele>
        <time>2022-05-14 18:13:37</time>
      </trkpt>
      <trkpt lat="10.00424" lon="-84.18326">
        <ele>980.6</ele>
        <time>2022-05-14 18:13:38</time>
      </trkpt>
      <trkpt lat="10.00424" lon="-84.18326">
        <ele>980.6</ele>
        <time>2022-05-14 18:13:39</time>
      </trkpt>
      <trkpt lat="10.00426" lon="-84.18321">
        <ele>980.8</ele>
        <time>2022-05-14 18:13:40</time>
      </trkpt>
      <trkpt lat="10.00428" lon="-84.18313">
        <ele>980.8</ele>
        <time>2022-05-14 18:13:41</time>
      </trkpt>
      <trkpt lat="10.00429" lon="-84.18308">
        <ele>981</ele>
        <time>2022-05-14 18:13:42</time>
      </trkpt>
      <trkpt lat="10.00431" lon="-84.18303">
        <ele>981.2</ele>
        <time>2022-05-14 18:13:43</time>
      </trkpt>
      <trkpt lat="10.00431" lon="-84.18299">
        <ele>981</ele>
        <time>2022-05-14 18:13:44</time>
      </trkpt>
      <trkpt lat="10.00433" lon="-84.18294">
        <ele>981.2</ele>
        <time>2022-05-14 18:13:45</time>
      </trkpt>
      <trkpt lat="10.00434" lon="-84.1829">
        <ele>981.4</ele>
        <time>2022-05-14 18:13:46</time>
      </trkpt>
      <trkpt lat="10.00436" lon="-84.18285">
        <ele>981.8</ele>
        <time>2022-05-14 18:13:47</time>
      </trkpt>
      <trkpt lat="10.00437" lon="-84.1828">
        <ele>982</ele>
        <time>2022-05-14 18:13:48</time>
      </trkpt>
      <trkpt lat="10.00437" lon="-84.1828">
        <ele>982.2</ele>
        <time>2022-05-14 18:13:49</time>
      </trkpt>
      <trkpt lat="10.00439" lon="-84.18276">
        <ele>982.4</ele>
        <time>2022-05-14 18:13:50</time>
      </trkpt>
      <trkpt lat="10.00443" lon="-84.18265">
        <ele>982.6</ele>
        <time>2022-05-14 18:13:51</time>
      </trkpt>
      <trkpt lat="10.00445" lon="-84.1826">
        <ele>982.8</ele>
        <time>2022-05-14 18:13:52</time>
      </trkpt>
      <trkpt lat="10.00447" lon="-84.18255">
        <ele>983.2</ele>
        <time>2022-05-14 18:13:53</time>
      </trkpt>
      <trkpt lat="10.00449" lon="-84.1825">
        <ele>983.4</ele>
        <time>2022-05-14 18:13:54</time>
      </trkpt>
      <trkpt lat="10.00452" lon="-84.18244">
        <ele>983.6</ele>
        <time>2022-05-14 18:13:55</time>
      </trkpt>
      <trkpt lat="10.00455" lon="-84.18239">
        <ele>983.6</ele>
        <time>2022-05-14 18:13:56</time>
      </trkpt>
      <trkpt lat="10.00457" lon="-84.18234">
        <ele>984</ele>
        <time>2022-05-14 18:13:57</time>
      </trkpt>
      <trkpt lat="10.0046" lon="-84.18228">
        <ele>984.2</ele>
        <time>2022-05-14 18:13:58</time>
      </trkpt>
      <trkpt lat="10.00462" lon="-84.18223">
        <ele>984.6</ele>
        <time>2022-05-14 18:13:59</time>
      </trkpt>
      <trkpt lat="10.00462" lon="-84.18223">
        <ele>984.6</ele>
        <time>2022-05-14 18:14:00</time>
      </trkpt>
      <trkpt lat="10.00465" lon="-84.18218">
        <ele>984.8</ele>
        <time>2022-05-14 18:14:01</time>
      </trkpt>
      <trkpt lat="10.0047" lon="-84.18207">
        <ele>985</ele>
        <time>2022-05-14 18:14:02</time>
      </trkpt>
      <trkpt lat="10.00473" lon="-84.18202">
        <ele>985.2</ele>
        <time>2022-05-14 18:14:03</time>
      </trkpt>
      <trkpt lat="10.00476" lon="-84.18198">
        <ele>985.4</ele>
        <time>2022-05-14 18:14:04</time>
      </trkpt>
      <trkpt lat="10.00479" lon="-84.18192">
        <ele>985.6</ele>
        <time>2022-05-14 18:14:05</time>
      </trkpt>
      <trkpt lat="10.00482" lon="-84.18186">
        <ele>986</ele>
        <time>2022-05-14 18:14:06</time>
      </trkpt>
      <trkpt lat="10.00486" lon="-84.1818">
        <ele>986.2</ele>
        <time>2022-05-14 18:14:07</time>
      </trkpt>
      <trkpt lat="10.00489" lon="-84.18175">
        <ele>986.2</ele>
        <time>2022-05-14 18:14:08</time>
      </trkpt>
      <trkpt lat="10.00492" lon="-84.18169">
        <ele>986.4</ele>
        <time>2022-05-14 18:14:09</time>
      </trkpt>
      <trkpt lat="10.00492" lon="-84.18169">
        <ele>986.6</ele>
        <time>2022-05-14 18:14:10</time>
      </trkpt>
      <trkpt lat="10.00492" lon="-84.18169">
        <ele>987</ele>
        <time>2022-05-14 18:14:11</time>
      </trkpt>
      <trkpt lat="10.005" lon="-84.18152">
        <ele>987.2</ele>
        <time>2022-05-14 18:14:12</time>
      </trkpt>
      <trkpt lat="10.00503" lon="-84.18146">
        <ele>987.6</ele>
        <time>2022-05-14 18:14:13</time>
      </trkpt>
      <trkpt lat="10.00506" lon="-84.18141">
        <ele>987.8</ele>
        <time>2022-05-14 18:14:14</time>
      </trkpt>
      <trkpt lat="10.00508" lon="-84.18136">
        <ele>987.8</ele>
        <time>2022-05-14 18:14:15</time>
      </trkpt>
      <trkpt lat="10.00511" lon="-84.1813">
        <ele>987.8</ele>
        <time>2022-05-14 18:14:16</time>
      </trkpt>
      <trkpt lat="10.00514" lon="-84.18124">
        <ele>987.8</ele>
        <time>2022-05-14 18:14:17</time>
      </trkpt>
      <trkpt lat="10.00516" lon="-84.18118">
        <ele>988</ele>
        <time>2022-05-14 18:14:18</time>
      </trkpt>
      <trkpt lat="10.00519" lon="-84.18113">
        <ele>988.2</ele>
        <time>2022-05-14 18:14:19</time>
      </trkpt>
      <trkpt lat="10.00521" lon="-84.18108">
        <ele>988.2</ele>
        <time>2022-05-14 18:14:20</time>
      </trkpt>
      <trkpt lat="10.00521" lon="-84.18108">
        <ele>988.2</ele>
        <time>2022-05-14 18:14:21</time>
      </trkpt>
      <trkpt lat="10.00521" lon="-84.18108">
        <ele>988.6</ele>
        <time>2022-05-14 18:14:22</time>
      </trkpt>
      <trkpt lat="10.00529" lon="-84.18091">
        <ele>988.8</ele>
        <time>2022-05-14 18:14:23</time>
      </trkpt>
      <trkpt lat="10.00531" lon="-84.18086">
        <ele>989</ele>
        <time>2022-05-14 18:14:24</time>
      </trkpt>
      <trkpt lat="10.00534" lon="-84.18079">
        <ele>989.2</ele>
        <time>2022-05-14 18:14:25</time>
      </trkpt>
      <trkpt lat="10.00537" lon="-84.18073">
        <ele>989.4</ele>
        <time>2022-05-14 18:14:26</time>
      </trkpt>
      <trkpt lat="10.00539" lon="-84.18067">
        <ele>989.4</ele>
        <time>2022-05-14 18:14:27</time>
      </trkpt>
      <trkpt lat="10.00542" lon="-84.18061">
        <ele>989.6</ele>
        <time>2022-05-14 18:14:28</time>
      </trkpt>
      <trkpt lat="10.00545" lon="-84.18055">
        <ele>989.8</ele>
        <time>2022-05-14 18:14:29</time>
      </trkpt>
      <trkpt lat="10.00548" lon="-84.18049">
        <ele>990</ele>
        <time>2022-05-14 18:14:30</time>
      </trkpt>
      <trkpt lat="10.00548" lon="-84.18049">
        <ele>990.2</ele>
        <time>2022-05-14 18:14:31</time>
      </trkpt>
      <trkpt lat="10.00554" lon="-84.18036">
        <ele>990.6</ele>
        <time>2022-05-14 18:14:32</time>
      </trkpt>
      <trkpt lat="10.00557" lon="-84.18029">
        <ele>990.8</ele>
        <time>2022-05-14 18:14:33</time>
      </trkpt>
      <trkpt lat="10.0056" lon="-84.18023">
        <ele>990.8</ele>
        <time>2022-05-14 18:14:34</time>
      </trkpt>
      <trkpt lat="10.00563" lon="-84.18016">
        <ele>990.8</ele>
        <time>2022-05-14 18:14:35</time>
      </trkpt>
      <trkpt lat="10.00566" lon="-84.1801">
        <ele>991</ele>
        <time>2022-05-14 18:14:36</time>
      </trkpt>
      <trkpt lat="10.00568" lon="-84.18003">
        <ele>991.2</ele>
        <time>2022-05-14 18:14:37</time>
      </trkpt>
      <trkpt lat="10.00571" lon="-84.17996">
        <ele>991.6</ele>
        <time>2022-05-14 18:14:38</time>
      </trkpt>
      <trkpt lat="10.00574" lon="-84.1799">
        <ele>991.8</ele>
        <time>2022-05-14 18:14:39</time>
      </trkpt>
      <trkpt lat="10.00577" lon="-84.17983">
        <ele>992</ele>
        <time>2022-05-14 18:14:40</time>
      </trkpt>
      <trkpt lat="10.00581" lon="-84.17976">
        <ele>992.2</ele>
        <time>2022-05-14 18:14:41</time>
      </trkpt>
      <trkpt lat="10.00581" lon="-84.17976">
        <ele>992.2</ele>
        <time>2022-05-14 18:14:42</time>
      </trkpt>
      <trkpt lat="10.00587" lon="-84.17963">
        <ele>992.2</ele>
        <time>2022-05-14 18:14:43</time>
      </trkpt>
      <trkpt lat="10.00591" lon="-84.17956">
        <ele>992.4</ele>
        <time>2022-05-14 18:14:44</time>
      </trkpt>
      <trkpt lat="10.00594" lon="-84.17949">
        <ele>992.6</ele>
        <time>2022-05-14 18:14:45</time>
      </trkpt>
      <trkpt lat="10.00598" lon="-84.17942">
        <ele>992.8</ele>
        <time>2022-05-14 18:14:46</time>
      </trkpt>
      <trkpt lat="10.00601" lon="-84.17934">
        <ele>993</ele>
        <time>2022-05-14 18:14:47</time>
      </trkpt>
      <trkpt lat="10.00605" lon="-84.17927">
        <ele>993</ele>
        <time>2022-05-14 18:14:48</time>
      </trkpt>
      <trkpt lat="10.00608" lon="-84.17919">
        <ele>993.4</ele>
        <time>2022-05-14 18:14:49</time>
      </trkpt>
      <trkpt lat="10.00611" lon="-84.17911">
        <ele>993.6</ele>
        <time>2022-05-14 18:14:50</time>
      </trkpt>
      <trkpt lat="10.00615" lon="-84.17904">
        <ele>994.2</ele>
        <time>2022-05-14 18:14:51</time>
      </trkpt>
      <trkpt lat="10.00615" lon="-84.17904">
        <ele>994.6</ele>
        <time>2022-05-14 18:14:52</time>
      </trkpt>
      <trkpt lat="10.00622" lon="-84.17889">
        <ele>995</ele>
        <time>2022-05-14 18:14:53</time>
      </trkpt>
      <trkpt lat="10.00625" lon="-84.17882">
        <ele>995</ele>
        <time>2022-05-14 18:14:54</time>
      </trkpt>
      <trkpt lat="10.00629" lon="-84.17874">
        <ele>995.2</ele>
        <time>2022-05-14 18:14:55</time>
      </trkpt>
      <trkpt lat="10.00632" lon="-84.17867">
        <ele>995.4</ele>
        <time>2022-05-14 18:14:56</time>
      </trkpt>
      <trkpt lat="10.00636" lon="-84.1786">
        <ele>995.6</ele>
        <time>2022-05-14 18:14:57</time>
      </trkpt>
      <trkpt lat="10.00639" lon="-84.17853">
        <ele>995.8</ele>
        <time>2022-05-14 18:14:58</time>
      </trkpt>
      <trkpt lat="10.00642" lon="-84.17845">
        <ele>996</ele>
        <time>2022-05-14 18:14:59</time>
      </trkpt>
      <trkpt lat="10.00646" lon="-84.17838">
        <ele>996</ele>
        <time>2022-05-14 18:15:00</time>
      </trkpt>
      <trkpt lat="10.00649" lon="-84.17831">
        <ele>996</ele>
        <time>2022-05-14 18:15:01</time>
      </trkpt>
      <trkpt lat="10.00649" lon="-84.17831">
        <ele>996.2</ele>
        <time>2022-05-14 18:15:02</time>
      </trkpt>
      <trkpt lat="10.00649" lon="-84.17831">
        <ele>996.2</ele>
        <time>2022-05-14 18:15:03</time>
      </trkpt>
      <trkpt lat="10.00659" lon="-84.17809">
        <ele>996.2</ele>
        <time>2022-05-14 18:15:04</time>
      </trkpt>
      <trkpt lat="10.00663" lon="-84.17802">
        <ele>996.2</ele>
        <time>2022-05-14 18:15:05</time>
      </trkpt>
      <trkpt lat="10.00665" lon="-84.17795">
        <ele>996.2</ele>
        <time>2022-05-14 18:15:06</time>
      </trkpt>
      <trkpt lat="10.00668" lon="-84.17787">
        <ele>996.4</ele>
        <time>2022-05-14 18:15:07</time>
      </trkpt>
      <trkpt lat="10.0067" lon="-84.17779">
        <ele>996.4</ele>
        <time>2022-05-14 18:15:08</time>
      </trkpt>
      <trkpt lat="10.00672" lon="-84.17772">
        <ele>996.2</ele>
        <time>2022-05-14 18:15:09</time>
      </trkpt>
      <trkpt lat="10.00674" lon="-84.17764">
        <ele>996.2</ele>
        <time>2022-05-14 18:15:10</time>
      </trkpt>
      <trkpt lat="10.00676" lon="-84.17756">
        <ele>996.2</ele>
        <time>2022-05-14 18:15:11</time>
      </trkpt>
      <trkpt lat="10.00676" lon="-84.17756">
        <ele>996.2</ele>
        <time>2022-05-14 18:15:12</time>
      </trkpt>
      <trkpt lat="10.00676" lon="-84.17756">
        <ele>996</ele>
        <time>2022-05-14 18:15:13</time>
      </trkpt>
      <trkpt lat="10.0068" lon="-84.17733">
        <ele>995.8</ele>
        <time>2022-05-14 18:15:14</time>
      </trkpt>
      <trkpt lat="10.0068" lon="-84.17725">
        <ele>995.8</ele>
        <time>2022-05-14 18:15:15</time>
      </trkpt>
      <trkpt lat="10.00681" lon="-84.17717">
        <ele>996</ele>
        <time>2022-05-14 18:15:16</time>
      </trkpt>
      <trkpt lat="10.00682" lon="-84.1771">
        <ele>996</ele>
        <time>2022-05-14 18:15:17</time>
      </trkpt>
      <trkpt lat="10.00682" lon="-84.17703">
        <ele>995.8</ele>
        <time>2022-05-14 18:15:18</time>
      </trkpt>
      <trkpt lat="10.00683" lon="-84.17695">
        <ele>995.6</ele>
        <time>2022-05-14 18:15:19</time>
      </trkpt>
      <trkpt lat="10.00683" lon="-84.17688">
        <ele>995.6</ele>
        <time>2022-05-14 18:15:20</time>
      </trkpt>
      <trkpt lat="10.00683" lon="-84.17681">
        <ele>995.4</ele>
        <time>2022-05-14 18:15:21</time>
      </trkpt>
      <trkpt lat="10.00683" lon="-84.17673">
        <ele>995.2</ele>
        <time>2022-05-14 18:15:22</time>
      </trkpt>
      <trkpt lat="10.00683" lon="-84.17673">
        <ele>995.2</ele>
        <time>2022-05-14 18:15:23</time>
      </trkpt>
      <trkpt lat="10.00682" lon="-84.17658">
        <ele>995.2</ele>
        <time>2022-05-14 18:15:24</time>
      </trkpt>
      <trkpt lat="10.00681" lon="-84.1765">
        <ele>995</ele>
        <time>2022-05-14 18:15:25</time>
      </trkpt>
      <trkpt lat="10.0068" lon="-84.17641">
        <ele>994.8</ele>
        <time>2022-05-14 18:15:26</time>
      </trkpt>
      <trkpt lat="10.00679" lon="-84.17634">
        <ele>994.8</ele>
        <time>2022-05-14 18:15:27</time>
      </trkpt>
      <trkpt lat="10.00677" lon="-84.17626">
        <ele>994.6</ele>
        <time>2022-05-14 18:15:28</time>
      </trkpt>
      <trkpt lat="10.00675" lon="-84.17618">
        <ele>994.2</ele>
        <time>2022-05-14 18:15:29</time>
      </trkpt>
      <trkpt lat="10.00672" lon="-84.17612">
        <ele>993.8</ele>
        <time>2022-05-14 18:15:30</time>
      </trkpt>
      <trkpt lat="10.00669" lon="-84.17604">
        <ele>993.4</ele>
        <time>2022-05-14 18:15:31</time>
      </trkpt>
      <trkpt lat="10.00665" lon="-84.17596">
        <ele>993</ele>
        <time>2022-05-14 18:15:32</time>
      </trkpt>
      <trkpt lat="10.00665" lon="-84.17596">
        <ele>992.6</ele>
        <time>2022-05-14 18:15:33</time>
      </trkpt>
      <trkpt lat="10.00656" lon="-84.17581">
        <ele>992.2</ele>
        <time>2022-05-14 18:15:34</time>
      </trkpt>
      <trkpt lat="10.00651" lon="-84.17573">
        <ele>991.8</ele>
        <time>2022-05-14 18:15:35</time>
      </trkpt>
      <trkpt lat="10.00645" lon="-84.17566">
        <ele>991</ele>
        <time>2022-05-14 18:15:36</time>
      </trkpt>
      <trkpt lat="10.00639" lon="-84.17558">
        <ele>990.6</ele>
        <time>2022-05-14 18:15:37</time>
      </trkpt>
      <trkpt lat="10.00633" lon="-84.17551">
        <ele>990.2</ele>
        <time>2022-05-14 18:15:38</time>
      </trkpt>
      <trkpt lat="10.00626" lon="-84.17542">
        <ele>989.8</ele>
        <time>2022-05-14 18:15:39</time>
      </trkpt>
      <trkpt lat="10.0062" lon="-84.17534">
        <ele>989.2</ele>
        <time>2022-05-14 18:15:40</time>
      </trkpt>
      <trkpt lat="10.00613" lon="-84.17526">
        <ele>988.4</ele>
        <time>2022-05-14 18:15:41</time>
      </trkpt>
      <trkpt lat="10.00607" lon="-84.17518">
        <ele>987.8</ele>
        <time>2022-05-14 18:15:42</time>
      </trkpt>
      <trkpt lat="10.006" lon="-84.17509">
        <ele>987.4</ele>
        <time>2022-05-14 18:15:43</time>
      </trkpt>
      <trkpt lat="10.006" lon="-84.17509">
        <ele>986.8</ele>
        <time>2022-05-14 18:15:44</time>
      </trkpt>
      <trkpt lat="10.00586" lon="-84.17493">
        <ele>986.8</ele>
        <time>2022-05-14 18:15:45</time>
      </trkpt>
      <trkpt lat="10.00579" lon="-84.17484">
        <ele>986</ele>
        <time>2022-05-14 18:15:46</time>
      </trkpt>
      <trkpt lat="10.00573" lon="-84.17475">
        <ele>985.4</ele>
        <time>2022-05-14 18:15:47</time>
      </trkpt>
      <trkpt lat="10.00566" lon="-84.17467">
        <ele>985</ele>
        <time>2022-05-14 18:15:48</time>
      </trkpt>
      <trkpt lat="10.00559" lon="-84.17459">
        <ele>984.6</ele>
        <time>2022-05-14 18:15:49</time>
      </trkpt>
      <trkpt lat="10.00552" lon="-84.1745">
        <ele>984.4</ele>
        <time>2022-05-14 18:15:50</time>
      </trkpt>
      <trkpt lat="10.00545" lon="-84.17441">
        <ele>984</ele>
        <time>2022-05-14 18:15:51</time>
      </trkpt>
      <trkpt lat="10.00538" lon="-84.17433">
        <ele>983.6</ele>
        <time>2022-05-14 18:15:52</time>
      </trkpt>
      <trkpt lat="10.00538" lon="-84.17433">
        <ele>983.4</ele>
        <time>2022-05-14 18:15:53</time>
      </trkpt>
      <trkpt lat="10.00538" lon="-84.17433">
        <ele>983.2</ele>
        <time>2022-05-14 18:15:54</time>
      </trkpt>
      <trkpt lat="10.00517" lon="-84.17406">
        <ele>983</ele>
        <time>2022-05-14 18:15:55</time>
      </trkpt>
      <trkpt lat="10.0051" lon="-84.17398">
        <ele>983</ele>
        <time>2022-05-14 18:15:56</time>
      </trkpt>
      <trkpt lat="10.00503" lon="-84.1739">
        <ele>983.2</ele>
        <time>2022-05-14 18:15:57</time>
      </trkpt>
      <trkpt lat="10.00497" lon="-84.17381">
        <ele>983.2</ele>
        <time>2022-05-14 18:15:58</time>
      </trkpt>
      <trkpt lat="10.00492" lon="-84.17371">
        <ele>983.2</ele>
        <time>2022-05-14 18:15:59</time>
      </trkpt>
      <trkpt lat="10.00486" lon="-84.17362">
        <ele>983.2</ele>
        <time>2022-05-14 18:16:00</time>
      </trkpt>
      <trkpt lat="10.0048" lon="-84.17352">
        <ele>983.2</ele>
        <time>2022-05-14 18:16:01</time>
      </trkpt>
      <trkpt lat="10.00476" lon="-84.17342">
        <ele>983.2</ele>
        <time>2022-05-14 18:16:02</time>
      </trkpt>
      <trkpt lat="10.00472" lon="-84.17333">
        <ele>983.2</ele>
        <time>2022-05-14 18:16:03</time>
      </trkpt>
      <trkpt lat="10.00472" lon="-84.17333">
        <ele>983.6</ele>
        <time>2022-05-14 18:16:04</time>
      </trkpt>
      <trkpt lat="10.00472" lon="-84.17333">
        <ele>984</ele>
        <time>2022-05-14 18:16:05</time>
      </trkpt>
      <trkpt lat="10.00461" lon="-84.17307">
        <ele>984</ele>
        <time>2022-05-14 18:16:06</time>
      </trkpt>
      <trkpt lat="10.00458" lon="-84.173">
        <ele>984.4</ele>
        <time>2022-05-14 18:16:07</time>
      </trkpt>
      <trkpt lat="10.00455" lon="-84.17293">
        <ele>985</ele>
        <time>2022-05-14 18:16:08</time>
      </trkpt>
      <trkpt lat="10.00452" lon="-84.17286">
        <ele>985.4</ele>
        <time>2022-05-14 18:16:09</time>
      </trkpt>
      <trkpt lat="10.0045" lon="-84.1728">
        <ele>986</ele>
        <time>2022-05-14 18:16:10</time>
      </trkpt>
      <trkpt lat="10.00447" lon="-84.17273">
        <ele>986.4</ele>
        <time>2022-05-14 18:16:11</time>
      </trkpt>
      <trkpt lat="10.00445" lon="-84.17269">
        <ele>986.8</ele>
        <time>2022-05-14 18:16:12</time>
      </trkpt>
      <trkpt lat="10.00443" lon="-84.17263">
        <ele>987.2</ele>
        <time>2022-05-14 18:16:13</time>
      </trkpt>
      <trkpt lat="10.00443" lon="-84.17263">
        <ele>987.6</ele>
        <time>2022-05-14 18:16:14</time>
      </trkpt>
      <trkpt lat="10.00439" lon="-84.17251">
        <ele>988.2</ele>
        <time>2022-05-14 18:16:15</time>
      </trkpt>
      <trkpt lat="10.00438" lon="-84.17246">
        <ele>988.6</ele>
        <time>2022-05-14 18:16:16</time>
      </trkpt>
      <trkpt lat="10.00436" lon="-84.1724">
        <ele>989.2</ele>
        <time>2022-05-14 18:16:17</time>
      </trkpt>
      <trkpt lat="10.00435" lon="-84.17234">
        <ele>989.6</ele>
        <time>2022-05-14 18:16:18</time>
      </trkpt>
      <trkpt lat="10.00433" lon="-84.17229">
        <ele>990</ele>
        <time>2022-05-14 18:16:19</time>
      </trkpt>
      <trkpt lat="10.00431" lon="-84.17224">
        <ele>990.6</ele>
        <time>2022-05-14 18:16:20</time>
      </trkpt>
      <trkpt lat="10.0043" lon="-84.17219">
        <ele>991</ele>
        <time>2022-05-14 18:16:21</time>
      </trkpt>
      <trkpt lat="10.00429" lon="-84.17216">
        <ele>991.4</ele>
        <time>2022-05-14 18:16:22</time>
      </trkpt>
      <trkpt lat="10.00428" lon="-84.17212">
        <ele>991.6</ele>
        <time>2022-05-14 18:16:23</time>
      </trkpt>
      <trkpt lat="10.00426" lon="-84.1721">
        <ele>991.8</ele>
        <time>2022-05-14 18:16:24</time>
      </trkpt>
      <trkpt lat="10.00426" lon="-84.1721">
        <ele>992</ele>
        <time>2022-05-14 18:16:25</time>
      </trkpt>
      <trkpt lat="10.00424" lon="-84.17204">
        <ele>992.2</ele>
        <time>2022-05-14 18:16:26</time>
      </trkpt>
      <trkpt lat="10.00423" lon="-84.17201">
        <ele>992.2</ele>
        <time>2022-05-14 18:16:27</time>
      </trkpt>
      <trkpt lat="10.00422" lon="-84.17197">
        <ele>992.4</ele>
        <time>2022-05-14 18:16:28</time>
      </trkpt>
      <trkpt lat="10.0042" lon="-84.17194">
        <ele>992.8</ele>
        <time>2022-05-14 18:16:29</time>
      </trkpt>
      <trkpt lat="10.00418" lon="-84.1719">
        <ele>993.2</ele>
        <time>2022-05-14 18:16:30</time>
      </trkpt>
      <trkpt lat="10.00416" lon="-84.17185">
        <ele>993.8</ele>
        <time>2022-05-14 18:16:31</time>
      </trkpt>
      <trkpt lat="10.00414" lon="-84.17181">
        <ele>994</ele>
        <time>2022-05-14 18:16:32</time>
      </trkpt>
      <trkpt lat="10.00413" lon="-84.17175">
        <ele>994.6</ele>
        <time>2022-05-14 18:16:33</time>
      </trkpt>
      <trkpt lat="10.00411" lon="-84.1717">
        <ele>995</ele>
        <time>2022-05-14 18:16:34</time>
      </trkpt>
      <trkpt lat="10.00411" lon="-84.1717">
        <ele>995.4</ele>
        <time>2022-05-14 18:16:35</time>
      </trkpt>
      <trkpt lat="10.00407" lon="-84.17161">
        <ele>995.8</ele>
        <time>2022-05-14 18:16:36</time>
      </trkpt>
      <trkpt lat="10.00405" lon="-84.17156">
        <ele>996.2</ele>
        <time>2022-05-14 18:16:37</time>
      </trkpt>
      <trkpt lat="10.00401" lon="-84.17152">
        <ele>996.4</ele>
        <time>2022-05-14 18:16:38</time>
      </trkpt>
      <trkpt lat="10.00398" lon="-84.17148">
        <ele>996.8</ele>
        <time>2022-05-14 18:16:39</time>
      </trkpt>
      <trkpt lat="10.00394" lon="-84.17144">
        <ele>997.2</ele>
        <time>2022-05-14 18:16:40</time>
      </trkpt>
      <trkpt lat="10.0039" lon="-84.1714">
        <ele>997.6</ele>
        <time>2022-05-14 18:16:41</time>
      </trkpt>
      <trkpt lat="10.00386" lon="-84.17137">
        <ele>998</ele>
        <time>2022-05-14 18:16:42</time>
      </trkpt>
      <trkpt lat="10.00382" lon="-84.17135">
        <ele>998.6</ele>
        <time>2022-05-14 18:16:43</time>
      </trkpt>
      <trkpt lat="10.00377" lon="-84.17132">
        <ele>999</ele>
        <time>2022-05-14 18:16:44</time>
      </trkpt>
      <trkpt lat="10.00377" lon="-84.17132">
        <ele>999.2</ele>
        <time>2022-05-14 18:16:45</time>
      </trkpt>
      <trkpt lat="10.00377" lon="-84.17132">
        <ele>999.4</ele>
        <time>2022-05-14 18:16:46</time>
      </trkpt>
      <trkpt lat="10.00365" lon="-84.17127">
        <ele>999.6</ele>
        <time>2022-05-14 18:16:47</time>
      </trkpt>
      <trkpt lat="10.00361" lon="-84.17126">
        <ele>999.6</ele>
        <time>2022-05-14 18:16:48</time>
      </trkpt>
      <trkpt lat="10.00356" lon="-84.17124">
        <ele>1000</ele>
        <time>2022-05-14 18:16:49</time>
      </trkpt>
      <trkpt lat="10.00351" lon="-84.17122">
        <ele>1000.2</ele>
        <time>2022-05-14 18:16:50</time>
      </trkpt>
      <trkpt lat="10.00347" lon="-84.17121">
        <ele>1000.4</ele>
        <time>2022-05-14 18:16:51</time>
      </trkpt>
      <trkpt lat="10.00342" lon="-84.17119">
        <ele>1000.4</ele>
        <time>2022-05-14 18:16:52</time>
      </trkpt>
      <trkpt lat="10.00337" lon="-84.17116">
        <ele>1000.4</ele>
        <time>2022-05-14 18:16:53</time>
      </trkpt>
      <trkpt lat="10.00332" lon="-84.17115">
        <ele>1000.6</ele>
        <time>2022-05-14 18:16:54</time>
      </trkpt>
      <trkpt lat="10.00332" lon="-84.17115">
        <ele>1000.8</ele>
        <time>2022-05-14 18:16:55</time>
      </trkpt>
      <trkpt lat="10.00332" lon="-84.17115">
        <ele>1001.2</ele>
        <time>2022-05-14 18:16:56</time>
      </trkpt>
      <trkpt lat="10.00317" lon="-84.17109">
        <ele>1001.4</ele>
        <time>2022-05-14 18:16:57</time>
      </trkpt>
      <trkpt lat="10.00313" lon="-84.17107">
        <ele>1001.4</ele>
        <time>2022-05-14 18:16:58</time>
      </trkpt>
      <trkpt lat="10.00308" lon="-84.17105">
        <ele>1001.6</ele>
        <time>2022-05-14 18:16:59</time>
      </trkpt>
      <trkpt lat="10.00303" lon="-84.17103">
        <ele>1001.8</ele>
        <time>2022-05-14 18:17:00</time>
      </trkpt>
      <trkpt lat="10.00298" lon="-84.17101">
        <ele>1002.2</ele>
        <time>2022-05-14 18:17:01</time>
      </trkpt>
      <trkpt lat="10.00293" lon="-84.17099">
        <ele>1002.2</ele>
        <time>2022-05-14 18:17:02</time>
      </trkpt>
      <trkpt lat="10.00288" lon="-84.17098">
        <ele>1002.4</ele>
        <time>2022-05-14 18:17:03</time>
      </trkpt>
      <trkpt lat="10.00283" lon="-84.17095">
        <ele>1002.6</ele>
        <time>2022-05-14 18:17:04</time>
      </trkpt>
      <trkpt lat="10.00278" lon="-84.17094">
        <ele>1002.8</ele>
        <time>2022-05-14 18:17:05</time>
      </trkpt>
      <trkpt lat="10.00278" lon="-84.17094">
        <ele>1003</ele>
        <time>2022-05-14 18:17:06</time>
      </trkpt>
      <trkpt lat="10.00278" lon="-84.17094">
        <ele>1003.2</ele>
        <time>2022-05-14 18:17:07</time>
      </trkpt>
      <trkpt lat="10.00263" lon="-84.17088">
        <ele>1003.2</ele>
        <time>2022-05-14 18:17:08</time>
      </trkpt>
      <trkpt lat="10.00259" lon="-84.17086">
        <ele>1003.2</ele>
        <time>2022-05-14 18:17:09</time>
      </trkpt>
      <trkpt lat="10.00254" lon="-84.17085">
        <ele>1003.4</ele>
        <time>2022-05-14 18:17:10</time>
      </trkpt>
      <trkpt lat="10.00249" lon="-84.17082">
        <ele>1003.4</ele>
        <time>2022-05-14 18:17:11</time>
      </trkpt>
      <trkpt lat="10.00244" lon="-84.17081">
        <ele>1003.6</ele>
        <time>2022-05-14 18:17:12</time>
      </trkpt>
      <trkpt lat="10.00239" lon="-84.17079">
        <ele>1003.8</ele>
        <time>2022-05-14 18:17:13</time>
      </trkpt>
      <trkpt lat="10.00233" lon="-84.17077">
        <ele>1004</ele>
        <time>2022-05-14 18:17:14</time>
      </trkpt>
      <trkpt lat="10.00227" lon="-84.17074">
        <ele>1004.2</ele>
        <time>2022-05-14 18:17:15</time>
      </trkpt>
      <trkpt lat="10.00227" lon="-84.17074">
        <ele>1004.2</ele>
        <time>2022-05-14 18:17:16</time>
      </trkpt>
      <trkpt lat="10.00216" lon="-84.1707">
        <ele>1004.4</ele>
        <time>2022-05-14 18:17:17</time>
      </trkpt>
      <trkpt lat="10.00211" lon="-84.17067">
        <ele>1004.4</ele>
        <time>2022-05-14 18:17:18</time>
      </trkpt>
      <trkpt lat="10.00205" lon="-84.17065">
        <ele>1004.4</ele>
        <time>2022-05-14 18:17:19</time>
      </trkpt>
      <trkpt lat="10.00199" lon="-84.17063">
        <ele>1004.6</ele>
        <time>2022-05-14 18:17:20</time>
      </trkpt>
      <trkpt lat="10.00194" lon="-84.17059">
        <ele>1004.8</ele>
        <time>2022-05-14 18:17:21</time>
      </trkpt>
      <trkpt lat="10.00188" lon="-84.17057">
        <ele>1005</ele>
        <time>2022-05-14 18:17:22</time>
      </trkpt>
      <trkpt lat="10.00182" lon="-84.17054">
        <ele>1005.2</ele>
        <time>2022-05-14 18:17:23</time>
      </trkpt>
      <trkpt lat="10.00176" lon="-84.17052">
        <ele>1005.2</ele>
        <time>2022-05-14 18:17:24</time>
      </trkpt>
      <trkpt lat="10.00171" lon="-84.17049">
        <ele>1005.4</ele>
        <time>2022-05-14 18:17:25</time>
      </trkpt>
      <trkpt lat="10.00165" lon="-84.17047">
        <ele>1005.6</ele>
        <time>2022-05-14 18:17:26</time>
      </trkpt>
      <trkpt lat="10.00165" lon="-84.17047">
        <ele>1006</ele>
        <time>2022-05-14 18:17:27</time>
      </trkpt>
      <trkpt lat="10.00154" lon="-84.17042">
        <ele>1006.2</ele>
        <time>2022-05-14 18:17:28</time>
      </trkpt>
      <trkpt lat="10.00149" lon="-84.1704">
        <ele>1006.6</ele>
        <time>2022-05-14 18:17:29</time>
      </trkpt>
      <trkpt lat="10.00144" lon="-84.17037">
        <ele>1006.6</ele>
        <time>2022-05-14 18:17:30</time>
      </trkpt>
      <trkpt lat="10.00138" lon="-84.17035">
        <ele>1007</ele>
        <time>2022-05-14 18:17:31</time>
      </trkpt>
      <trkpt lat="10.00133" lon="-84.17033">
        <ele>1007.2</ele>
        <time>2022-05-14 18:17:32</time>
      </trkpt>
      <trkpt lat="10.00128" lon="-84.1703">
        <ele>1007.6</ele>
        <time>2022-05-14 18:17:33</time>
      </trkpt>
      <trkpt lat="10.00123" lon="-84.17029">
        <ele>1008</ele>
        <time>2022-05-14 18:17:34</time>
      </trkpt>
      <trkpt lat="10.00118" lon="-84.17027">
        <ele>1008.6</ele>
        <time>2022-05-14 18:17:35</time>
      </trkpt>
      <trkpt lat="10.00118" lon="-84.17027">
        <ele>1008.8</ele>
        <time>2022-05-14 18:17:36</time>
      </trkpt>
      <trkpt lat="10.00118" lon="-84.17027">
        <ele>1008.8</ele>
        <time>2022-05-14 18:17:37</time>
      </trkpt>
      <trkpt lat="10.00102" lon="-84.17018">
        <ele>1009</ele>
        <time>2022-05-14 18:17:38</time>
      </trkpt>
      <trkpt lat="10.00098" lon="-84.17015">
        <ele>1009.2</ele>
        <time>2022-05-14 18:17:39</time>
      </trkpt>
      <trkpt lat="10.00093" lon="-84.17012">
        <ele>1009.6</ele>
        <time>2022-05-14 18:17:40</time>
      </trkpt>
      <trkpt lat="10.00088" lon="-84.17009">
        <ele>1009.8</ele>
        <time>2022-05-14 18:17:41</time>
      </trkpt>
      <trkpt lat="10.00083" lon="-84.17007">
        <ele>1010</ele>
        <time>2022-05-14 18:17:42</time>
      </trkpt>
      <trkpt lat="10.00077" lon="-84.17004">
        <ele>1010.2</ele>
        <time>2022-05-14 18:17:43</time>
      </trkpt>
      <trkpt lat="10.00072" lon="-84.17">
        <ele>1010.4</ele>
        <time>2022-05-14 18:17:44</time>
      </trkpt>
      <trkpt lat="10.00067" lon="-84.16998">
        <ele>1010.8</ele>
        <time>2022-05-14 18:17:45</time>
      </trkpt>
      <trkpt lat="10.00061" lon="-84.16995">
        <ele>1011</ele>
        <time>2022-05-14 18:17:46</time>
      </trkpt>
      <trkpt lat="10.00061" lon="-84.16995">
        <ele>1011.2</ele>
        <time>2022-05-14 18:17:47</time>
      </trkpt>
      <trkpt lat="10.00061" lon="-84.16995">
        <ele>1011.4</ele>
        <time>2022-05-14 18:17:48</time>
      </trkpt>
      <trkpt lat="10.00045" lon="-84.16986">
        <ele>1011.6</ele>
        <time>2022-05-14 18:17:49</time>
      </trkpt>
      <trkpt lat="10.0004" lon="-84.16983">
        <ele>1011.8</ele>
        <time>2022-05-14 18:17:50</time>
      </trkpt>
      <trkpt lat="10.00035" lon="-84.1698">
        <ele>1011.8</ele>
        <time>2022-05-14 18:17:51</time>
      </trkpt>
      <trkpt lat="10.00029" lon="-84.16977">
        <ele>1012</ele>
        <time>2022-05-14 18:17:52</time>
      </trkpt>
      <trkpt lat="10.00024" lon="-84.16974">
        <ele>1012</ele>
        <time>2022-05-14 18:17:53</time>
      </trkpt>
      <trkpt lat="10.00019" lon="-84.16971">
        <ele>1012.4</ele>
        <time>2022-05-14 18:17:54</time>
      </trkpt>
      <trkpt lat="10.00013" lon="-84.16968">
        <ele>1012.6</ele>
        <time>2022-05-14 18:17:55</time>
      </trkpt>
      <trkpt lat="10.00008" lon="-84.16964">
        <ele>1012.8</ele>
        <time>2022-05-14 18:17:56</time>
      </trkpt>
      <trkpt lat="10.00008" lon="-84.16964">
        <ele>1013</ele>
        <time>2022-05-14 18:17:57</time>
      </trkpt>
      <trkpt lat="9.99997" lon="-84.16958">
        <ele>1013</ele>
        <time>2022-05-14 18:17:58</time>
      </trkpt>
      <trkpt lat="9.99992" lon="-84.16955">
        <ele>1013.2</ele>
        <time>2022-05-14 18:17:59</time>
      </trkpt>
      <trkpt lat="9.99986" lon="-84.16951">
        <ele>1013.2</ele>
        <time>2022-05-14 18:18:00</time>
      </trkpt>
      <trkpt lat="9.99981" lon="-84.16948">
        <ele>1013.4</ele>
        <time>2022-05-14 18:18:01</time>
      </trkpt>
      <trkpt lat="9.99975" lon="-84.16944">
        <ele>1013.6</ele>
        <time>2022-05-14 18:18:02</time>
      </trkpt>
      <trkpt lat="9.9997" lon="-84.16941">
        <ele>1013.8</ele>
        <time>2022-05-14 18:18:03</time>
      </trkpt>
      <trkpt lat="9.99965" lon="-84.16937">
        <ele>1014</ele>
        <time>2022-05-14 18:18:04</time>
      </trkpt>
      <trkpt lat="9.99959" lon="-84.16933">
        <ele>1014.2</ele>
        <time>2022-05-14 18:18:05</time>
      </trkpt>
      <trkpt lat="9.99953" lon="-84.1693">
        <ele>1014.2</ele>
        <time>2022-05-14 18:18:06</time>
      </trkpt>
      <trkpt lat="9.99948" lon="-84.16926">
        <ele>1014</ele>
        <time>2022-05-14 18:18:07</time>
      </trkpt>
      <trkpt lat="9.99948" lon="-84.16926">
        <ele>1014.2</ele>
        <time>2022-05-14 18:18:08</time>
      </trkpt>
      <trkpt lat="9.99937" lon="-84.1692">
        <ele>1014.2</ele>
        <time>2022-05-14 18:18:09</time>
      </trkpt>
      <trkpt lat="9.99931" lon="-84.16917">
        <ele>1014.4</ele>
        <time>2022-05-14 18:18:10</time>
      </trkpt>
      <trkpt lat="9.99925" lon="-84.16913">
        <ele>1014.4</ele>
        <time>2022-05-14 18:18:11</time>
      </trkpt>
      <trkpt lat="9.9992" lon="-84.16909">
        <ele>1014.4</ele>
        <time>2022-05-14 18:18:12</time>
      </trkpt>
      <trkpt lat="9.99914" lon="-84.16906">
        <ele>1014.6</ele>
        <time>2022-05-14 18:18:13</time>
      </trkpt>
      <trkpt lat="9.99908" lon="-84.16903">
        <ele>1014.6</ele>
        <time>2022-05-14 18:18:14</time>
      </trkpt>
      <trkpt lat="9.99904" lon="-84.169">
        <ele>1014.8</ele>
        <time>2022-05-14 18:18:15</time>
      </trkpt>
      <trkpt lat="9.999" lon="-84.16897">
        <ele>1014.8</ele>
        <time>2022-05-14 18:18:16</time>
      </trkpt>
      <trkpt lat="9.99896" lon="-84.16896">
        <ele>1014.6</ele>
        <time>2022-05-14 18:18:17</time>
      </trkpt>
      <trkpt lat="9.99896" lon="-84.16896">
        <ele>1014.6</ele>
        <time>2022-05-14 18:18:18</time>
      </trkpt>
      <trkpt lat="9.99888" lon="-84.16892">
        <ele>1014.6</ele>
        <time>2022-05-14 18:18:19</time>
      </trkpt>
      <trkpt lat="9.99884" lon="-84.1689">
        <ele>1014.6</ele>
        <time>2022-05-14 18:18:20</time>
      </trkpt>
      <trkpt lat="9.99879" lon="-84.16888">
        <ele>1015</ele>
        <time>2022-05-14 18:18:21</time>
      </trkpt>
      <trkpt lat="9.99874" lon="-84.16886">
        <ele>1015</ele>
        <time>2022-05-14 18:18:22</time>
      </trkpt>
      <trkpt lat="9.99869" lon="-84.16883">
        <ele>1015</ele>
        <time>2022-05-14 18:18:23</time>
      </trkpt>
      <trkpt lat="9.99864" lon="-84.16881">
        <ele>1015</ele>
        <time>2022-05-14 18:18:24</time>
      </trkpt>
      <trkpt lat="9.99859" lon="-84.16879">
        <ele>1015</ele>
        <time>2022-05-14 18:18:25</time>
      </trkpt>
      <trkpt lat="9.99853" lon="-84.16875">
        <ele>1015.2</ele>
        <time>2022-05-14 18:18:26</time>
      </trkpt>
      <trkpt lat="9.99848" lon="-84.16873">
        <ele>1015.4</ele>
        <time>2022-05-14 18:18:27</time>
      </trkpt>
      <trkpt lat="9.99848" lon="-84.16873">
        <ele>1015.6</ele>
        <time>2022-05-14 18:18:28</time>
      </trkpt>
      <trkpt lat="9.99848" lon="-84.16873">
        <ele>1015.6</ele>
        <time>2022-05-14 18:18:29</time>
      </trkpt>
      <trkpt lat="9.99831" lon="-84.16864">
        <ele>1015.6</ele>
        <time>2022-05-14 18:18:30</time>
      </trkpt>
      <trkpt lat="9.99825" lon="-84.16861">
        <ele>1015.8</ele>
        <time>2022-05-14 18:18:31</time>
      </trkpt>
      <trkpt lat="9.9982" lon="-84.16858">
        <ele>1015.8</ele>
        <time>2022-05-14 18:18:32</time>
      </trkpt>
      <trkpt lat="9.99814" lon="-84.16855">
        <ele>1015.8</ele>
        <time>2022-05-14 18:18:33</time>
      </trkpt>
      <trkpt lat="9.99808" lon="-84.16852">
        <ele>1015.8</ele>
        <time>2022-05-14 18:18:34</time>
      </trkpt>
      <trkpt lat="9.99803" lon="-84.1685">
        <ele>1015.8</ele>
        <time>2022-05-14 18:18:35</time>
      </trkpt>
      <trkpt lat="9.99797" lon="-84.16846">
        <ele>1016</ele>
        <time>2022-05-14 18:18:36</time>
      </trkpt>
      <trkpt lat="9.99792" lon="-84.16843">
        <ele>1015.6</ele>
        <time>2022-05-14 18:18:37</time>
      </trkpt>
      <trkpt lat="9.99792" lon="-84.16843">
        <ele>1015.8</ele>
        <time>2022-05-14 18:18:38</time>
      </trkpt>
      <trkpt lat="9.9978" lon="-84.16837">
        <ele>1016</ele>
        <time>2022-05-14 18:18:39</time>
      </trkpt>
      <trkpt lat="9.99773" lon="-84.16834">
        <ele>1016.4</ele>
        <time>2022-05-14 18:18:40</time>
      </trkpt>
      <trkpt lat="9.99768" lon="-84.16831">
        <ele>1016.6</ele>
        <time>2022-05-14 18:18:41</time>
      </trkpt>
      <trkpt lat="9.99762" lon="-84.16828">
        <ele>1016.6</ele>
        <time>2022-05-14 18:18:42</time>
      </trkpt>
      <trkpt lat="9.99757" lon="-84.16826">
        <ele>1016.8</ele>
        <time>2022-05-14 18:18:43</time>
      </trkpt>
      <trkpt lat="9.9975" lon="-84.16823">
        <ele>1016.8</ele>
        <time>2022-05-14 18:18:44</time>
      </trkpt>
      <trkpt lat="9.99745" lon="-84.16821">
        <ele>1017</ele>
        <time>2022-05-14 18:18:45</time>
      </trkpt>
      <trkpt lat="9.99739" lon="-84.16817">
        <ele>1017.2</ele>
        <time>2022-05-14 18:18:46</time>
      </trkpt>
      <trkpt lat="9.99734" lon="-84.16814">
        <ele>1017.2</ele>
        <time>2022-05-14 18:18:47</time>
      </trkpt>
      <trkpt lat="9.99728" lon="-84.16812">
        <ele>1017.4</ele>
        <time>2022-05-14 18:18:48</time>
      </trkpt>
      <trkpt lat="9.99728" lon="-84.16812">
        <ele>1017.4</ele>
        <time>2022-05-14 18:18:49</time>
      </trkpt>
      <trkpt lat="9.99717" lon="-84.16805">
        <ele>1017.4</ele>
        <time>2022-05-14 18:18:50</time>
      </trkpt>
      <trkpt lat="9.99712" lon="-84.16802">
        <ele>1017.4</ele>
        <time>2022-05-14 18:18:51</time>
      </trkpt>
      <trkpt lat="9.99707" lon="-84.16801">
        <ele>1017.2</ele>
        <time>2022-05-14 18:18:52</time>
      </trkpt>
      <trkpt lat="9.99703" lon="-84.16798">
        <ele>1017.2</ele>
        <time>2022-05-14 18:18:53</time>
      </trkpt>
      <trkpt lat="9.99699" lon="-84.16794">
        <ele>1017.2</ele>
        <time>2022-05-14 18:18:54</time>
      </trkpt>
      <trkpt lat="9.99695" lon="-84.1679">
        <ele>1017</ele>
        <time>2022-05-14 18:18:55</time>
      </trkpt>
      <trkpt lat="9.99692" lon="-84.16785">
        <ele>1016.8</ele>
        <time>2022-05-14 18:18:56</time>
      </trkpt>
      <trkpt lat="9.99687" lon="-84.16783">
        <ele>1016.8</ele>
        <time>2022-05-14 18:18:57</time>
      </trkpt>
      <trkpt lat="9.99682" lon="-84.16781">
        <ele>1016.6</ele>
        <time>2022-05-14 18:18:58</time>
      </trkpt>
      <trkpt lat="9.99682" lon="-84.16781">
        <ele>1016.6</ele>
        <time>2022-05-14 18:18:59</time>
      </trkpt>
      <trkpt lat="9.99671" lon="-84.16776">
        <ele>1016.4</ele>
        <time>2022-05-14 18:19:00</time>
      </trkpt>
      <trkpt lat="9.99666" lon="-84.16774">
        <ele>1016.4</ele>
        <time>2022-05-14 18:19:01</time>
      </trkpt>
      <trkpt lat="9.9966" lon="-84.16772">
        <ele>1016.2</ele>
        <time>2022-05-14 18:19:02</time>
      </trkpt>
      <trkpt lat="9.99655" lon="-84.16769">
        <ele>1016.2</ele>
        <time>2022-05-14 18:19:03</time>
      </trkpt>
      <trkpt lat="9.9965" lon="-84.16767">
        <ele>1016.2</ele>
        <time>2022-05-14 18:19:04</time>
      </trkpt>
      <trkpt lat="9.99645" lon="-84.16764">
        <ele>1016.2</ele>
        <time>2022-05-14 18:19:05</time>
      </trkpt>
      <trkpt lat="9.99641" lon="-84.16762">
        <ele>1016.4</ele>
        <time>2022-05-14 18:19:06</time>
      </trkpt>
      <trkpt lat="9.99636" lon="-84.1676">
        <ele>1016.6</ele>
        <time>2022-05-14 18:19:07</time>
      </trkpt>
      <trkpt lat="9.99632" lon="-84.16757">
        <ele>1016.6</ele>
        <time>2022-05-14 18:19:08</time>
      </trkpt>
      <trkpt lat="9.99632" lon="-84.16757">
        <ele>1016.6</ele>
        <time>2022-05-14 18:19:09</time>
      </trkpt>
      <trkpt lat="9.99632" lon="-84.16757">
        <ele>1016.4</ele>
        <time>2022-05-14 18:19:10</time>
      </trkpt>
      <trkpt lat="9.99619" lon="-84.1675">
        <ele>1016.4</ele>
        <time>2022-05-14 18:19:11</time>
      </trkpt>
      <trkpt lat="9.99615" lon="-84.16748">
        <ele>1016.4</ele>
        <time>2022-05-14 18:19:12</time>
      </trkpt>
      <trkpt lat="9.99611" lon="-84.16746">
        <ele>1016.4</ele>
        <time>2022-05-14 18:19:13</time>
      </trkpt>
      <trkpt lat="9.99608" lon="-84.16744">
        <ele>1016.2</ele>
        <time>2022-05-14 18:19:14</time>
      </trkpt>
      <trkpt lat="9.99606" lon="-84.16743">
        <ele>1016.2</ele>
        <time>2022-05-14 18:19:15</time>
      </trkpt>
      <trkpt lat="9.99604" lon="-84.16743">
        <ele>1016.2</ele>
        <time>2022-05-14 18:19:16</time>
      </trkpt>
      <trkpt lat="9.99601" lon="-84.16741">
        <ele>1016</ele>
        <time>2022-05-14 18:19:17</time>
      </trkpt>
      <trkpt lat="9.99599" lon="-84.1674">
        <ele>1015.8</ele>
        <time>2022-05-14 18:19:18</time>
      </trkpt>
      <trkpt lat="9.99599" lon="-84.1674">
        <ele>1015.8</ele>
        <time>2022-05-14 18:19:19</time>
      </trkpt>
      <trkpt lat="9.99593" lon="-84.16739">
        <ele>1015.6</ele>
        <time>2022-05-14 18:19:20</time>
      </trkpt>
      <trkpt lat="9.9959" lon="-84.16739">
        <ele>1015.4</ele>
        <time>2022-05-14 18:19:21</time>
      </trkpt>
      <trkpt lat="9.99587" lon="-84.16738">
        <ele>1015.2</ele>
        <time>2022-05-14 18:19:22</time>
      </trkpt>
      <trkpt lat="9.99584" lon="-84.16738">
        <ele>1015.2</ele>
        <time>2022-05-14 18:19:23</time>
      </trkpt>
      <trkpt lat="9.99582" lon="-84.16738">
        <ele>1015.2</ele>
        <time>2022-05-14 18:19:24</time>
      </trkpt>
      <trkpt lat="9.99581" lon="-84.1674">
        <ele>1015.2</ele>
        <time>2022-05-14 18:19:25</time>
      </trkpt>
      <trkpt lat="9.9958" lon="-84.16743">
        <ele>1015</ele>
        <time>2022-05-14 18:19:26</time>
      </trkpt>
      <trkpt lat="9.9958" lon="-84.16747">
        <ele>1014.8</ele>
        <time>2022-05-14 18:19:27</time>
      </trkpt>
      <trkpt lat="9.99579" lon="-84.1675">
        <ele>1014.6</ele>
        <time>2022-05-14 18:19:28</time>
      </trkpt>
      <trkpt lat="9.99578" lon="-84.16755">
        <ele>1014.2</ele>
        <time>2022-05-14 18:19:29</time>
      </trkpt>
      <trkpt lat="9.99578" lon="-84.16755">
        <ele>1014</ele>
        <time>2022-05-14 18:19:30</time>
      </trkpt>
      <trkpt lat="9.99576" lon="-84.16765">
        <ele>1013.8</ele>
        <time>2022-05-14 18:19:31</time>
      </trkpt>
      <trkpt lat="9.99575" lon="-84.16769">
        <ele>1013.6</ele>
        <time>2022-05-14 18:19:32</time>
      </trkpt>
      <trkpt lat="9.99574" lon="-84.16774">
        <ele>1013.2</ele>
        <time>2022-05-14 18:19:33</time>
      </trkpt>
      <trkpt lat="9.99574" lon="-84.16778">
        <ele>1013</ele>
        <time>2022-05-14 18:19:34</time>
      </trkpt>
      <trkpt lat="9.99573" lon="-84.16783">
        <ele>1012.8</ele>
        <time>2022-05-14 18:19:35</time>
      </trkpt>
      <trkpt lat="9.99571" lon="-84.16789">
        <ele>1012.8</ele>
        <time>2022-05-14 18:19:36</time>
      </trkpt>
      <trkpt lat="9.9957" lon="-84.16794">
        <ele>1012.6</ele>
        <time>2022-05-14 18:19:37</time>
      </trkpt>
      <trkpt lat="9.99568" lon="-84.16801">
        <ele>1012.4</ele>
        <time>2022-05-14 18:19:38</time>
      </trkpt>
      <trkpt lat="9.99567" lon="-84.16805">
        <ele>1012.2</ele>
        <time>2022-05-14 18:19:39</time>
      </trkpt>
      <trkpt lat="9.99567" lon="-84.16805">
        <ele>1012.2</ele>
        <time>2022-05-14 18:19:40</time>
      </trkpt>
      <trkpt lat="9.99564" lon="-84.16812">
        <ele>1012.2</ele>
        <time>2022-05-14 18:19:41</time>
      </trkpt>
      <trkpt lat="9.99562" lon="-84.16814">
        <ele>1012.4</ele>
        <time>2022-05-14 18:19:42</time>
      </trkpt>
      <trkpt lat="9.99558" lon="-84.16813">
        <ele>1012.4</ele>
        <time>2022-05-14 18:19:43</time>
      </trkpt>
      <trkpt lat="9.99555" lon="-84.16812">
        <ele>1012.2</ele>
        <time>2022-05-14 18:19:44</time>
      </trkpt>
      <trkpt lat="9.99551" lon="-84.16809">
        <ele>1012.2</ele>
        <time>2022-05-14 18:19:45</time>
      </trkpt>
      <trkpt lat="9.99548" lon="-84.16806">
        <ele>1012.2</ele>
        <time>2022-05-14 18:19:46</time>
      </trkpt>
      <trkpt lat="9.99544" lon="-84.16803">
        <ele>1012.2</ele>
        <time>2022-05-14 18:19:47</time>
      </trkpt>
      <trkpt lat="9.9954" lon="-84.16801">
        <ele>1012.4</ele>
        <time>2022-05-14 18:19:48</time>
      </trkpt>
      <trkpt lat="9.99535" lon="-84.16798">
        <ele>1012.4</ele>
        <time>2022-05-14 18:19:49</time>
      </trkpt>
      <trkpt lat="9.99535" lon="-84.16798">
        <ele>1012.4</ele>
        <time>2022-05-14 18:19:50</time>
      </trkpt>
      <trkpt lat="9.99535" lon="-84.16798">
        <ele>1012.4</ele>
        <time>2022-05-14 18:19:51</time>
      </trkpt>
      <trkpt lat="9.99521" lon="-84.16791">
        <ele>1012.4</ele>
        <time>2022-05-14 18:19:52</time>
      </trkpt>
      <trkpt lat="9.99516" lon="-84.16788">
        <ele>1012.4</ele>
        <time>2022-05-14 18:19:53</time>
      </trkpt>
      <trkpt lat="9.99511" lon="-84.16785">
        <ele>1012.4</ele>
        <time>2022-05-14 18:19:54</time>
      </trkpt>
      <trkpt lat="9.99506" lon="-84.16782">
        <ele>1012.6</ele>
        <time>2022-05-14 18:19:55</time>
      </trkpt>
      <trkpt lat="9.99501" lon="-84.16779">
        <ele>1012.6</ele>
        <time>2022-05-14 18:19:56</time>
      </trkpt>
      <trkpt lat="9.99495" lon="-84.16776">
        <ele>1012.6</ele>
        <time>2022-05-14 18:19:57</time>
      </trkpt>
      <trkpt lat="9.9949" lon="-84.16774">
        <ele>1012.6</ele>
        <time>2022-05-14 18:19:58</time>
      </trkpt>
      <trkpt lat="9.99484" lon="-84.16772">
        <ele>1012.2</ele>
        <time>2022-05-14 18:19:59</time>
      </trkpt>
      <trkpt lat="9.99484" lon="-84.16772">
        <ele>1012.2</ele>
        <time>2022-05-14 18:20:00</time>
      </trkpt>
      <trkpt lat="9.99484" lon="-84.16772">
        <ele>1012.2</ele>
        <time>2022-05-14 18:20:01</time>
      </trkpt>
      <trkpt lat="9.99468" lon="-84.16764">
        <ele>1012.2</ele>
        <time>2022-05-14 18:20:02</time>
      </trkpt>
      <trkpt lat="9.99462" lon="-84.16761">
        <ele>1012</ele>
        <time>2022-05-14 18:20:03</time>
      </trkpt>
      <trkpt lat="9.99457" lon="-84.16758">
        <ele>1011.8</ele>
        <time>2022-05-14 18:20:04</time>
      </trkpt>
      <trkpt lat="9.99451" lon="-84.16756">
        <ele>1011.8</ele>
        <time>2022-05-14 18:20:05</time>
      </trkpt>
      <trkpt lat="9.99445" lon="-84.16754">
        <ele>1011.8</ele>
        <time>2022-05-14 18:20:06</time>
      </trkpt>
      <trkpt lat="9.99439" lon="-84.16752">
        <ele>1011.8</ele>
        <time>2022-05-14 18:20:07</time>
      </trkpt>
      <trkpt lat="9.99434" lon="-84.16749">
        <ele>1011.6</ele>
        <time>2022-05-14 18:20:08</time>
      </trkpt>
      <trkpt lat="9.99428" lon="-84.16747">
        <ele>1011.6</ele>
        <time>2022-05-14 18:20:09</time>
      </trkpt>
      <trkpt lat="9.99422" lon="-84.16745">
        <ele>1011.4</ele>
        <time>2022-05-14 18:20:10</time>
      </trkpt>
      <trkpt lat="9.99422" lon="-84.16745">
        <ele>1011.2</ele>
        <time>2022-05-14 18:20:11</time>
      </trkpt>
      <trkpt lat="9.99422" lon="-84.16745">
        <ele>1011.2</ele>
        <time>2022-05-14 18:20:12</time>
      </trkpt>
      <trkpt lat="9.99404" lon="-84.16738">
        <ele>1011</ele>
        <time>2022-05-14 18:20:13</time>
      </trkpt>
      <trkpt lat="9.99398" lon="-84.16735">
        <ele>1011.4</ele>
        <time>2022-05-14 18:20:14</time>
      </trkpt>
      <trkpt lat="9.99392" lon="-84.16733">
        <ele>1011.4</ele>
        <time>2022-05-14 18:20:15</time>
      </trkpt>
      <trkpt lat="9.99387" lon="-84.16731">
        <ele>1011.4</ele>
        <time>2022-05-14 18:20:16</time>
      </trkpt>
      <trkpt lat="9.99382" lon="-84.16728">
        <ele>1011.2</ele>
        <time>2022-05-14 18:20:17</time>
      </trkpt>
      <trkpt lat="9.99376" lon="-84.16726">
        <ele>1011.2</ele>
        <time>2022-05-14 18:20:18</time>
      </trkpt>
      <trkpt lat="9.99371" lon="-84.16724">
        <ele>1010.8</ele>
        <time>2022-05-14 18:20:19</time>
      </trkpt>
      <trkpt lat="9.99366" lon="-84.16722">
        <ele>1010.8</ele>
        <time>2022-05-14 18:20:20</time>
      </trkpt>
      <trkpt lat="9.99366" lon="-84.16722">
        <ele>1010.8</ele>
        <time>2022-05-14 18:20:21</time>
      </trkpt>
      <trkpt lat="9.99354" lon="-84.16718">
        <ele>1010.6</ele>
        <time>2022-05-14 18:20:22</time>
      </trkpt>
      <trkpt lat="9.99348" lon="-84.16716">
        <ele>1010.2</ele>
        <time>2022-05-14 18:20:23</time>
      </trkpt>
      <trkpt lat="9.99343" lon="-84.16714">
        <ele>1009.8</ele>
        <time>2022-05-14 18:20:24</time>
      </trkpt>
      <trkpt lat="9.99336" lon="-84.16711">
        <ele>1009.6</ele>
        <time>2022-05-14 18:20:25</time>
      </trkpt>
      <trkpt lat="9.9933" lon="-84.16709">
        <ele>1009.4</ele>
        <time>2022-05-14 18:20:26</time>
      </trkpt>
      <trkpt lat="9.99324" lon="-84.16707">
        <ele>1009.2</ele>
        <time>2022-05-14 18:20:27</time>
      </trkpt>
      <trkpt lat="9.99317" lon="-84.16704">
        <ele>1008.8</ele>
        <time>2022-05-14 18:20:28</time>
      </trkpt>
      <trkpt lat="9.9931" lon="-84.16702">
        <ele>1008.4</ele>
        <time>2022-05-14 18:20:29</time>
      </trkpt>
      <trkpt lat="9.99303" lon="-84.16698">
        <ele>1008</ele>
        <time>2022-05-14 18:20:30</time>
      </trkpt>
      <trkpt lat="9.99296" lon="-84.16695">
        <ele>1007.4</ele>
        <time>2022-05-14 18:20:31</time>
      </trkpt>
      <trkpt lat="9.99296" lon="-84.16695">
        <ele>1007</ele>
        <time>2022-05-14 18:20:32</time>
      </trkpt>
      <trkpt lat="9.99281" lon="-84.16691">
        <ele>1006.6</ele>
        <time>2022-05-14 18:20:33</time>
      </trkpt>
      <trkpt lat="9.99273" lon="-84.16688">
        <ele>1006.2</ele>
        <time>2022-05-14 18:20:34</time>
      </trkpt>
      <trkpt lat="9.99265" lon="-84.16685">
        <ele>1005.6</ele>
        <time>2022-05-14 18:20:35</time>
      </trkpt>
      <trkpt lat="9.99256" lon="-84.16682">
        <ele>1005.2</ele>
        <time>2022-05-14 18:20:36</time>
      </trkpt>
      <trkpt lat="9.99248" lon="-84.16679">
        <ele>1005</ele>
        <time>2022-05-14 18:20:37</time>
      </trkpt>
      <trkpt lat="9.9924" lon="-84.16675">
        <ele>1004.6</ele>
        <time>2022-05-14 18:20:38</time>
      </trkpt>
      <trkpt lat="9.99232" lon="-84.16673">
        <ele>1004.6</ele>
        <time>2022-05-14 18:20:39</time>
      </trkpt>
      <trkpt lat="9.99224" lon="-84.16669">
        <ele>1004.4</ele>
        <time>2022-05-14 18:20:40</time>
      </trkpt>
      <trkpt lat="9.99224" lon="-84.16669">
        <ele>1004</ele>
        <time>2022-05-14 18:20:41</time>
      </trkpt>
      <trkpt lat="9.99224" lon="-84.16669">
        <ele>1003.6</ele>
        <time>2022-05-14 18:20:42</time>
      </trkpt>
      <trkpt lat="9.99202" lon="-84.16662">
        <ele>1003.2</ele>
        <time>2022-05-14 18:20:43</time>
      </trkpt>
      <trkpt lat="9.99195" lon="-84.1666">
        <ele>1003.2</ele>
        <time>2022-05-14 18:20:44</time>
      </trkpt>
      <trkpt lat="9.99188" lon="-84.16659">
        <ele>1003.4</ele>
        <time>2022-05-14 18:20:45</time>
      </trkpt>
      <trkpt lat="9.99181" lon="-84.16661">
        <ele>1003.2</ele>
        <time>2022-05-14 18:20:46</time>
      </trkpt>
      <trkpt lat="9.99175" lon="-84.16664">
        <ele>1002.6</ele>
        <time>2022-05-14 18:20:47</time>
      </trkpt>
      <trkpt lat="9.9917" lon="-84.16669">
        <ele>1002.4</ele>
        <time>2022-05-14 18:20:48</time>
      </trkpt>
      <trkpt lat="9.99167" lon="-84.16676">
        <ele>1002.4</ele>
        <time>2022-05-14 18:20:49</time>
      </trkpt>
      <trkpt lat="9.99165" lon="-84.16684">
        <ele>1002.4</ele>
        <time>2022-05-14 18:20:50</time>
      </trkpt>
      <trkpt lat="9.99162" lon="-84.16691">
        <ele>1002.8</ele>
        <time>2022-05-14 18:20:51</time>
      </trkpt>
      <trkpt lat="9.99162" lon="-84.16691">
        <ele>1003.4</ele>
        <time>2022-05-14 18:20:52</time>
      </trkpt>
      <trkpt lat="9.99162" lon="-84.16691">
        <ele>1003.6</ele>
        <time>2022-05-14 18:20:53</time>
      </trkpt>
      <trkpt lat="9.99156" lon="-84.1671">
        <ele>1003.8</ele>
        <time>2022-05-14 18:20:54</time>
      </trkpt>
      <trkpt lat="9.99154" lon="-84.16716">
        <ele>1003.8</ele>
        <time>2022-05-14 18:20:55</time>
      </trkpt>
      <trkpt lat="9.99152" lon="-84.16722">
        <ele>1004</ele>
        <time>2022-05-14 18:20:56</time>
      </trkpt>
      <trkpt lat="9.9915" lon="-84.16727">
        <ele>1004</ele>
        <time>2022-05-14 18:20:57</time>
      </trkpt>
      <trkpt lat="9.99149" lon="-84.16733">
        <ele>1004.2</ele>
        <time>2022-05-14 18:20:58</time>
      </trkpt>
      <trkpt lat="9.99147" lon="-84.16739">
        <ele>1004.2</ele>
        <time>2022-05-14 18:20:59</time>
      </trkpt>
      <trkpt lat="9.99145" lon="-84.16744">
        <ele>1004.2</ele>
        <time>2022-05-14 18:21:00</time>
      </trkpt>
      <trkpt lat="9.99143" lon="-84.1675">
        <ele>1004</ele>
        <time>2022-05-14 18:21:01</time>
      </trkpt>
      <trkpt lat="9.99143" lon="-84.1675">
        <ele>1004.2</ele>
        <time>2022-05-14 18:21:02</time>
      </trkpt>
      <trkpt lat="9.99139" lon="-84.16763">
        <ele>1004.2</ele>
        <time>2022-05-14 18:21:03</time>
      </trkpt>
      <trkpt lat="9.99137" lon="-84.16769">
        <ele>1004.2</ele>
        <time>2022-05-14 18:21:04</time>
      </trkpt>
      <trkpt lat="9.99135" lon="-84.16774">
        <ele>1004.2</ele>
        <time>2022-05-14 18:21:05</time>
      </trkpt>
      <trkpt lat="9.99132" lon="-84.16781">
        <ele>1004.2</ele>
        <time>2022-05-14 18:21:06</time>
      </trkpt>
      <trkpt lat="9.9913" lon="-84.16787">
        <ele>1004.2</ele>
        <time>2022-05-14 18:21:07</time>
      </trkpt>
      <trkpt lat="9.99128" lon="-84.16793">
        <ele>1004</ele>
        <time>2022-05-14 18:21:08</time>
      </trkpt>
      <trkpt lat="9.99126" lon="-84.16799">
        <ele>1004</ele>
        <time>2022-05-14 18:21:09</time>
      </trkpt>
      <trkpt lat="9.99124" lon="-84.16805">
        <ele>1003.8</ele>
        <time>2022-05-14 18:21:10</time>
      </trkpt>
      <trkpt lat="9.99121" lon="-84.16812">
        <ele>1003.8</ele>
        <time>2022-05-14 18:21:11</time>
      </trkpt>
      <trkpt lat="9.99119" lon="-84.16817">
        <ele>1003.6</ele>
        <time>2022-05-14 18:21:12</time>
      </trkpt>
      <trkpt lat="9.99119" lon="-84.16817">
        <ele>1003.4</ele>
        <time>2022-05-14 18:21:13</time>
      </trkpt>
      <trkpt lat="9.99115" lon="-84.1683">
        <ele>1003.2</ele>
        <time>2022-05-14 18:21:14</time>
      </trkpt>
      <trkpt lat="9.99113" lon="-84.16836">
        <ele>1003.2</ele>
        <time>2022-05-14 18:21:15</time>
      </trkpt>
      <trkpt lat="9.99111" lon="-84.16841">
        <ele>1002.8</ele>
        <time>2022-05-14 18:21:16</time>
      </trkpt>
      <trkpt lat="9.99108" lon="-84.16847">
        <ele>1002.6</ele>
        <time>2022-05-14 18:21:17</time>
      </trkpt>
      <trkpt lat="9.99106" lon="-84.16853">
        <ele>1002.4</ele>
        <time>2022-05-14 18:21:18</time>
      </trkpt>
      <trkpt lat="9.99104" lon="-84.16859">
        <ele>1002.2</ele>
        <time>2022-05-14 18:21:19</time>
      </trkpt>
      <trkpt lat="9.99102" lon="-84.16866">
        <ele>1002</ele>
        <time>2022-05-14 18:21:20</time>
      </trkpt>
      <trkpt lat="9.99099" lon="-84.16872">
        <ele>1002</ele>
        <time>2022-05-14 18:21:21</time>
      </trkpt>
      <trkpt lat="9.99097" lon="-84.16878">
        <ele>1001.6</ele>
        <time>2022-05-14 18:21:22</time>
      </trkpt>
      <trkpt lat="9.99097" lon="-84.16878">
        <ele>1001.2</ele>
        <time>2022-05-14 18:21:23</time>
      </trkpt>
      <trkpt lat="9.99093" lon="-84.16892">
        <ele>1001.2</ele>
        <time>2022-05-14 18:21:24</time>
      </trkpt>
      <trkpt lat="9.9909" lon="-84.16898">
        <ele>1000.8</ele>
        <time>2022-05-14 18:21:25</time>
      </trkpt>
      <trkpt lat="9.99087" lon="-84.16905">
        <ele>1000.6</ele>
        <time>2022-05-14 18:21:26</time>
      </trkpt>
      <trkpt lat="9.99085" lon="-84.16911">
        <ele>1000.4</ele>
        <time>2022-05-14 18:21:27</time>
      </trkpt>
      <trkpt lat="9.99082" lon="-84.16918">
        <ele>1000.2</ele>
        <time>2022-05-14 18:21:28</time>
      </trkpt>
      <trkpt lat="9.9908" lon="-84.16925">
        <ele>1000</ele>
        <time>2022-05-14 18:21:29</time>
      </trkpt>
      <trkpt lat="9.99077" lon="-84.16932">
        <ele>999.6</ele>
        <time>2022-05-14 18:21:30</time>
      </trkpt>
      <trkpt lat="9.99075" lon="-84.16939">
        <ele>999.6</ele>
        <time>2022-05-14 18:21:31</time>
      </trkpt>
      <trkpt lat="9.99073" lon="-84.16945">
        <ele>999.4</ele>
        <time>2022-05-14 18:21:32</time>
      </trkpt>
      <trkpt lat="9.99071" lon="-84.16951">
        <ele>999.6</ele>
        <time>2022-05-14 18:21:33</time>
      </trkpt>
      <trkpt lat="9.99071" lon="-84.16951">
        <ele>999.6</ele>
        <time>2022-05-14 18:21:34</time>
      </trkpt>
      <trkpt lat="9.99065" lon="-84.16963">
        <ele>999.4</ele>
        <time>2022-05-14 18:21:35</time>
      </trkpt>
      <trkpt lat="9.99062" lon="-84.16967">
        <ele>999.2</ele>
        <time>2022-05-14 18:21:36</time>
      </trkpt>
      <trkpt lat="9.99059" lon="-84.1697">
        <ele>999</ele>
        <time>2022-05-14 18:21:37</time>
      </trkpt>
      <trkpt lat="9.99056" lon="-84.16974">
        <ele>998.8</ele>
        <time>2022-05-14 18:21:38</time>
      </trkpt>
      <trkpt lat="9.99052" lon="-84.16976">
        <ele>998.6</ele>
        <time>2022-05-14 18:21:39</time>
      </trkpt>
      <trkpt lat="9.99048" lon="-84.16978">
        <ele>998.2</ele>
        <time>2022-05-14 18:21:40</time>
      </trkpt>
      <trkpt lat="9.99043" lon="-84.16978">
        <ele>997.8</ele>
        <time>2022-05-14 18:21:41</time>
      </trkpt>
      <trkpt lat="9.99037" lon="-84.16977">
        <ele>997.8</ele>
        <time>2022-05-14 18:21:42</time>
      </trkpt>
      <trkpt lat="9.99037" lon="-84.16977">
        <ele>997.4</ele>
        <time>2022-05-14 18:21:43</time>
      </trkpt>
      <trkpt lat="9.99037" lon="-84.16977">
        <ele>997.2</ele>
        <time>2022-05-14 18:21:44</time>
      </trkpt>
      <trkpt lat="9.99017" lon="-84.16973">
        <ele>996.6</ele>
        <time>2022-05-14 18:21:45</time>
      </trkpt>
      <trkpt lat="9.9901" lon="-84.1697">
        <ele>996</ele>
        <time>2022-05-14 18:21:46</time>
      </trkpt>
      <trkpt lat="9.99002" lon="-84.16969">
        <ele>995.2</ele>
        <time>2022-05-14 18:21:47</time>
      </trkpt>
      <trkpt lat="9.98995" lon="-84.16966">
        <ele>994.4</ele>
        <time>2022-05-14 18:21:48</time>
      </trkpt>
      <trkpt lat="9.98987" lon="-84.16964">
        <ele>993.8</ele>
        <time>2022-05-14 18:21:49</time>
      </trkpt>
      <trkpt lat="9.98979" lon="-84.16961">
        <ele>993.4</ele>
        <time>2022-05-14 18:21:50</time>
      </trkpt>
      <trkpt lat="9.98971" lon="-84.16959">
        <ele>992.8</ele>
        <time>2022-05-14 18:21:51</time>
      </trkpt>
      <trkpt lat="9.98963" lon="-84.16955">
        <ele>992.2</ele>
        <time>2022-05-14 18:21:52</time>
      </trkpt>
      <trkpt lat="9.98955" lon="-84.16953">
        <ele>991.8</ele>
        <time>2022-05-14 18:21:53</time>
      </trkpt>
      <trkpt lat="9.98955" lon="-84.16953">
        <ele>991.2</ele>
        <time>2022-05-14 18:21:54</time>
      </trkpt>
      <trkpt lat="9.98955" lon="-84.16953">
        <ele>990.8</ele>
        <time>2022-05-14 18:21:55</time>
      </trkpt>
      <trkpt lat="9.98928" lon="-84.16946">
        <ele>990.4</ele>
        <time>2022-05-14 18:21:56</time>
      </trkpt>
      <trkpt lat="9.98919" lon="-84.16944">
        <ele>990</ele>
        <time>2022-05-14 18:21:57</time>
      </trkpt>
      <trkpt lat="9.98909" lon="-84.16941">
        <ele>989.4</ele>
        <time>2022-05-14 18:21:58</time>
      </trkpt>
      <trkpt lat="9.98899" lon="-84.16939">
        <ele>988.8</ele>
        <time>2022-05-14 18:21:59</time>
      </trkpt>
      <trkpt lat="9.9889" lon="-84.16937">
        <ele>988</ele>
        <time>2022-05-14 18:22:00</time>
      </trkpt>
      <trkpt lat="9.98879" lon="-84.16933">
        <ele>987.2</ele>
        <time>2022-05-14 18:22:01</time>
      </trkpt>
      <trkpt lat="9.98869" lon="-84.1693">
        <ele>986.4</ele>
        <time>2022-05-14 18:22:02</time>
      </trkpt>
      <trkpt lat="9.98859" lon="-84.16927">
        <ele>986.4</ele>
        <time>2022-05-14 18:22:03</time>
      </trkpt>
      <trkpt lat="9.98859" lon="-84.16927">
        <ele>985.8</ele>
        <time>2022-05-14 18:22:04</time>
      </trkpt>
      <trkpt lat="9.98838" lon="-84.16922">
        <ele>985</ele>
        <time>2022-05-14 18:22:05</time>
      </trkpt>
      <trkpt lat="9.98827" lon="-84.1692">
        <ele>984.6</ele>
        <time>2022-05-14 18:22:06</time>
      </trkpt>
      <trkpt lat="9.98816" lon="-84.16916">
        <ele>983.6</ele>
        <time>2022-05-14 18:22:07</time>
      </trkpt>
      <trkpt lat="9.98805" lon="-84.16913">
        <ele>982.6</ele>
        <time>2022-05-14 18:22:08</time>
      </trkpt>
      <trkpt lat="9.98794" lon="-84.16911">
        <ele>981.6</ele>
        <time>2022-05-14 18:22:09</time>
      </trkpt>
      <trkpt lat="9.98783" lon="-84.16909">
        <ele>980.6</ele>
        <time>2022-05-14 18:22:10</time>
      </trkpt>
      <trkpt lat="9.98772" lon="-84.16908">
        <ele>980.2</ele>
        <time>2022-05-14 18:22:11</time>
      </trkpt>
      <trkpt lat="9.9876" lon="-84.16905">
        <ele>979.6</ele>
        <time>2022-05-14 18:22:12</time>
      </trkpt>
      <trkpt lat="9.98749" lon="-84.16904">
        <ele>978.8</ele>
        <time>2022-05-14 18:22:13</time>
      </trkpt>
      <trkpt lat="9.98738" lon="-84.16902">
        <ele>978</ele>
        <time>2022-05-14 18:22:14</time>
      </trkpt>
      <trkpt lat="9.98738" lon="-84.16902">
        <ele>977.8</ele>
        <time>2022-05-14 18:22:15</time>
      </trkpt>
      <trkpt lat="9.98717" lon="-84.16899">
        <ele>978</ele>
        <time>2022-05-14 18:22:16</time>
      </trkpt>
      <trkpt lat="9.98706" lon="-84.16897">
        <ele>978.4</ele>
        <time>2022-05-14 18:22:17</time>
      </trkpt>
      <trkpt lat="9.98695" lon="-84.16896">
        <ele>979</ele>
        <time>2022-05-14 18:22:18</time>
      </trkpt>
      <trkpt lat="9.98685" lon="-84.16895">
        <ele>979.6</ele>
        <time>2022-05-14 18:22:19</time>
      </trkpt>
      <trkpt lat="9.98676" lon="-84.16893">
        <ele>980</ele>
        <time>2022-05-14 18:22:20</time>
      </trkpt>
      <trkpt lat="9.98666" lon="-84.16892">
        <ele>980.2</ele>
        <time>2022-05-14 18:22:21</time>
      </trkpt>
      <trkpt lat="9.98657" lon="-84.1689">
        <ele>980.4</ele>
        <time>2022-05-14 18:22:22</time>
      </trkpt>
      <trkpt lat="9.98648" lon="-84.16888">
        <ele>980.8</ele>
        <time>2022-05-14 18:22:23</time>
      </trkpt>
      <trkpt lat="9.98648" lon="-84.16888">
        <ele>980.8</ele>
        <time>2022-05-14 18:22:24</time>
      </trkpt>
      <trkpt lat="9.98648" lon="-84.16888">
        <ele>981.2</ele>
        <time>2022-05-14 18:22:25</time>
      </trkpt>
      <trkpt lat="9.98623" lon="-84.16886">
        <ele>981.8</ele>
        <time>2022-05-14 18:22:26</time>
      </trkpt>
      <trkpt lat="9.98615" lon="-84.16884">
        <ele>982.2</ele>
        <time>2022-05-14 18:22:27</time>
      </trkpt>
      <trkpt lat="9.98608" lon="-84.16883">
        <ele>983</ele>
        <time>2022-05-14 18:22:28</time>
      </trkpt>
      <trkpt lat="9.98601" lon="-84.16882">
        <ele>983.4</ele>
        <time>2022-05-14 18:22:29</time>
      </trkpt>
      <trkpt lat="9.98594" lon="-84.16881">
        <ele>983.8</ele>
        <time>2022-05-14 18:22:30</time>
      </trkpt>
      <trkpt lat="9.98587" lon="-84.1688">
        <ele>984.2</ele>
        <time>2022-05-14 18:22:31</time>
      </trkpt>
      <trkpt lat="9.9858" lon="-84.16879">
        <ele>984.6</ele>
        <time>2022-05-14 18:22:32</time>
      </trkpt>
      <trkpt lat="9.98574" lon="-84.16879">
        <ele>985</ele>
        <time>2022-05-14 18:22:33</time>
      </trkpt>
      <trkpt lat="9.98568" lon="-84.16878">
        <ele>985.6</ele>
        <time>2022-05-14 18:22:34</time>
      </trkpt>
      <trkpt lat="9.98568" lon="-84.16878">
        <ele>986.2</ele>
        <time>2022-05-14 18:22:35</time>
      </trkpt>
      <trkpt lat="9.98568" lon="-84.16878">
        <ele>987</ele>
        <time>2022-05-14 18:22:36</time>
      </trkpt>
      <trkpt lat="9.98548" lon="-84.16875">
        <ele>987.8</ele>
        <time>2022-05-14 18:22:37</time>
      </trkpt>
      <trkpt lat="9.98542" lon="-84.16874">
        <ele>988.4</ele>
        <time>2022-05-14 18:22:38</time>
      </trkpt>
      <trkpt lat="9.98536" lon="-84.16872">
        <ele>989</ele>
        <time>2022-05-14 18:22:39</time>
      </trkpt>
      <trkpt lat="9.98529" lon="-84.16872">
        <ele>989.4</ele>
        <time>2022-05-14 18:22:40</time>
      </trkpt>
      <trkpt lat="9.98523" lon="-84.16871">
        <ele>990</ele>
        <time>2022-05-14 18:22:41</time>
      </trkpt>
      <trkpt lat="9.98517" lon="-84.1687">
        <ele>990.6</ele>
        <time>2022-05-14 18:22:42</time>
      </trkpt>
      <trkpt lat="9.98511" lon="-84.1687">
        <ele>991.4</ele>
        <time>2022-05-14 18:22:43</time>
      </trkpt>
      <trkpt lat="9.98505" lon="-84.16868">
        <ele>992</ele>
        <time>2022-05-14 18:22:44</time>
      </trkpt>
      <trkpt lat="9.98505" lon="-84.16868">
        <ele>992</ele>
        <time>2022-05-14 18:22:45</time>
      </trkpt>
      <trkpt lat="9.98505" lon="-84.16868">
        <ele>992.4</ele>
        <time>2022-05-14 18:22:46</time>
      </trkpt>
      <trkpt lat="9.98487" lon="-84.16866">
        <ele>993</ele>
        <time>2022-05-14 18:22:47</time>
      </trkpt>
      <trkpt lat="9.98481" lon="-84.16865">
        <ele>993.4</ele>
        <time>2022-05-14 18:22:48</time>
      </trkpt>
      <trkpt lat="9.98475" lon="-84.16865">
        <ele>994</ele>
        <time>2022-05-14 18:22:49</time>
      </trkpt>
      <trkpt lat="9.98469" lon="-84.16864">
        <ele>994.6</ele>
        <time>2022-05-14 18:22:50</time>
      </trkpt>
      <trkpt lat="9.98464" lon="-84.16863">
        <ele>995</ele>
        <time>2022-05-14 18:22:51</time>
      </trkpt>
      <trkpt lat="9.98458" lon="-84.16863">
        <ele>995.6</ele>
        <time>2022-05-14 18:22:52</time>
      </trkpt>
      <trkpt lat="9.98453" lon="-84.16861">
        <ele>996</ele>
        <time>2022-05-14 18:22:53</time>
      </trkpt>
      <trkpt lat="9.98448" lon="-84.1686">
        <ele>996.2</ele>
        <time>2022-05-14 18:22:54</time>
      </trkpt>
      <trkpt lat="9.98443" lon="-84.16859">
        <ele>996.6</ele>
        <time>2022-05-14 18:22:55</time>
      </trkpt>
      <trkpt lat="9.98443" lon="-84.16859">
        <ele>996.8</ele>
        <time>2022-05-14 18:22:56</time>
      </trkpt>
      <trkpt lat="9.98433" lon="-84.16858">
        <ele>997</ele>
        <time>2022-05-14 18:22:57</time>
      </trkpt>
      <trkpt lat="9.98428" lon="-84.16858">
        <ele>997.2</ele>
        <time>2022-05-14 18:22:58</time>
      </trkpt>
      <trkpt lat="9.98424" lon="-84.16857">
        <ele>997.4</ele>
        <time>2022-05-14 18:22:59</time>
      </trkpt>
      <trkpt lat="9.98419" lon="-84.16857">
        <ele>997.6</ele>
        <time>2022-05-14 18:23:00</time>
      </trkpt>
      <trkpt lat="9.98414" lon="-84.16856">
        <ele>997.6</ele>
        <time>2022-05-14 18:23:01</time>
      </trkpt>
      <trkpt lat="9.9841" lon="-84.16856">
        <ele>997.8</ele>
        <time>2022-05-14 18:23:02</time>
      </trkpt>
      <trkpt lat="9.98405" lon="-84.16855">
        <ele>998</ele>
        <time>2022-05-14 18:23:03</time>
      </trkpt>
      <trkpt lat="9.98401" lon="-84.16854">
        <ele>998</ele>
        <time>2022-05-14 18:23:04</time>
      </trkpt>
      <trkpt lat="9.98397" lon="-84.16853">
        <ele>998</ele>
        <time>2022-05-14 18:23:05</time>
      </trkpt>
      <trkpt lat="9.98397" lon="-84.16853">
        <ele>998</ele>
        <time>2022-05-14 18:23:06</time>
      </trkpt>
      <trkpt lat="9.98388" lon="-84.16852">
        <ele>998</ele>
        <time>2022-05-14 18:23:07</time>
      </trkpt>
      <trkpt lat="9.98383" lon="-84.16851">
        <ele>998.2</ele>
        <time>2022-05-14 18:23:08</time>
      </trkpt>
      <trkpt lat="9.98378" lon="-84.16851">
        <ele>998.2</ele>
        <time>2022-05-14 18:23:09</time>
      </trkpt>
      <trkpt lat="9.98374" lon="-84.1685">
        <ele>998.2</ele>
        <time>2022-05-14 18:23:10</time>
      </trkpt>
      <trkpt lat="9.98368" lon="-84.1685">
        <ele>998</ele>
        <time>2022-05-14 18:23:11</time>
      </trkpt>
      <trkpt lat="9.98363" lon="-84.1685">
        <ele>997.8</ele>
        <time>2022-05-14 18:23:12</time>
      </trkpt>
      <trkpt lat="9.98358" lon="-84.16848">
        <ele>997.8</ele>
        <time>2022-05-14 18:23:13</time>
      </trkpt>
      <trkpt lat="9.98352" lon="-84.16847">
        <ele>997.6</ele>
        <time>2022-05-14 18:23:14</time>
      </trkpt>
      <trkpt lat="9.98346" lon="-84.16846">
        <ele>997.4</ele>
        <time>2022-05-14 18:23:15</time>
      </trkpt>
      <trkpt lat="9.98346" lon="-84.16846">
        <ele>997.2</ele>
        <time>2022-05-14 18:23:16</time>
      </trkpt>
      <trkpt lat="9.98346" lon="-84.16846">
        <ele>997.2</ele>
        <time>2022-05-14 18:23:17</time>
      </trkpt>
      <trkpt lat="9.98328" lon="-84.16843">
        <ele>997</ele>
        <time>2022-05-14 18:23:18</time>
      </trkpt>
      <trkpt lat="9.98322" lon="-84.16842">
        <ele>996.8</ele>
        <time>2022-05-14 18:23:19</time>
      </trkpt>
      <trkpt lat="9.98315" lon="-84.16841">
        <ele>996.6</ele>
        <time>2022-05-14 18:23:20</time>
      </trkpt>
      <trkpt lat="9.98308" lon="-84.16839">
        <ele>996.4</ele>
        <time>2022-05-14 18:23:21</time>
      </trkpt>
      <trkpt lat="9.98301" lon="-84.16839">
        <ele>996.2</ele>
        <time>2022-05-14 18:23:22</time>
      </trkpt>
      <trkpt lat="9.98295" lon="-84.16837">
        <ele>996</ele>
        <time>2022-05-14 18:23:23</time>
      </trkpt>
      <trkpt lat="9.98288" lon="-84.16837">
        <ele>995.8</ele>
        <time>2022-05-14 18:23:24</time>
      </trkpt>
      <trkpt lat="9.98281" lon="-84.16835">
        <ele>995.6</ele>
        <time>2022-05-14 18:23:25</time>
      </trkpt>
      <trkpt lat="9.98281" lon="-84.16835">
        <ele>995.4</ele>
        <time>2022-05-14 18:23:26</time>
      </trkpt>
      <trkpt lat="9.98281" lon="-84.16835">
        <ele>995.4</ele>
        <time>2022-05-14 18:23:27</time>
      </trkpt>
      <trkpt lat="9.9826" lon="-84.16832">
        <ele>995.4</ele>
        <time>2022-05-14 18:23:28</time>
      </trkpt>
      <trkpt lat="9.98253" lon="-84.16831">
        <ele>995.4</ele>
        <time>2022-05-14 18:23:29</time>
      </trkpt>
      <trkpt lat="9.98246" lon="-84.1683">
        <ele>995.4</ele>
        <time>2022-05-14 18:23:30</time>
      </trkpt>
      <trkpt lat="9.98239" lon="-84.16829">
        <ele>995.6</ele>
        <time>2022-05-14 18:23:31</time>
      </trkpt>
      <trkpt lat="9.98232" lon="-84.16828">
        <ele>995.6</ele>
        <time>2022-05-14 18:23:32</time>
      </trkpt>
      <trkpt lat="9.98226" lon="-84.16827">
        <ele>995.6</ele>
        <time>2022-05-14 18:23:33</time>
      </trkpt>
      <trkpt lat="9.98219" lon="-84.16826">
        <ele>995.8</ele>
        <time>2022-05-14 18:23:34</time>
      </trkpt>
      <trkpt lat="9.98213" lon="-84.16824">
        <ele>995.8</ele>
        <time>2022-05-14 18:23:35</time>
      </trkpt>
      <trkpt lat="9.98206" lon="-84.16823">
        <ele>996</ele>
        <time>2022-05-14 18:23:36</time>
      </trkpt>
      <trkpt lat="9.98206" lon="-84.16823">
        <ele>996.2</ele>
        <time>2022-05-14 18:23:37</time>
      </trkpt>
      <trkpt lat="9.98206" lon="-84.16823">
        <ele>996.2</ele>
        <time>2022-05-14 18:23:38</time>
      </trkpt>
      <trkpt lat="9.98187" lon="-84.16821">
        <ele>996.2</ele>
        <time>2022-05-14 18:23:39</time>
      </trkpt>
      <trkpt lat="9.98181" lon="-84.1682">
        <ele>996.2</ele>
        <time>2022-05-14 18:23:40</time>
      </trkpt>
      <trkpt lat="9.98174" lon="-84.16819">
        <ele>996.4</ele>
        <time>2022-05-14 18:23:41</time>
      </trkpt>
      <trkpt lat="9.98168" lon="-84.16817">
        <ele>996.4</ele>
        <time>2022-05-14 18:23:42</time>
      </trkpt>
      <trkpt lat="9.98162" lon="-84.16816">
        <ele>996.4</ele>
        <time>2022-05-14 18:23:43</time>
      </trkpt>
      <trkpt lat="9.98156" lon="-84.16815">
        <ele>996.6</ele>
        <time>2022-05-14 18:23:44</time>
      </trkpt>
      <trkpt lat="9.98149" lon="-84.16814">
        <ele>996.6</ele>
        <time>2022-05-14 18:23:45</time>
      </trkpt>
      <trkpt lat="9.98143" lon="-84.16813">
        <ele>996.8</ele>
        <time>2022-05-14 18:23:46</time>
      </trkpt>
      <trkpt lat="9.9813" lon="-84.16811">
        <ele>997</ele>
        <time>2022-05-14 18:23:47</time>
      </trkpt>
      <trkpt lat="9.9813" lon="-84.16811">
        <ele>997</ele>
        <time>2022-05-14 18:23:48</time>
      </trkpt>
      <trkpt lat="9.98124" lon="-84.1681">
        <ele>997.2</ele>
        <time>2022-05-14 18:23:49</time>
      </trkpt>
      <trkpt lat="9.98117" lon="-84.16809">
        <ele>997.2</ele>
        <time>2022-05-14 18:23:50</time>
      </trkpt>
      <trkpt lat="9.98111" lon="-84.16808">
        <ele>997.4</ele>
        <time>2022-05-14 18:23:51</time>
      </trkpt>
      <trkpt lat="9.98104" lon="-84.16807">
        <ele>997.4</ele>
        <time>2022-05-14 18:23:52</time>
      </trkpt>
      <trkpt lat="9.98098" lon="-84.16806">
        <ele>997.6</ele>
        <time>2022-05-14 18:23:53</time>
      </trkpt>
      <trkpt lat="9.98091" lon="-84.16805">
        <ele>997.8</ele>
        <time>2022-05-14 18:23:54</time>
      </trkpt>
      <trkpt lat="9.98084" lon="-84.16804">
        <ele>997.8</ele>
        <time>2022-05-14 18:23:55</time>
      </trkpt>
      <trkpt lat="9.98078" lon="-84.16803">
        <ele>998</ele>
        <time>2022-05-14 18:23:56</time>
      </trkpt>
      <trkpt lat="9.98072" lon="-84.16802">
        <ele>998</ele>
        <time>2022-05-14 18:23:57</time>
      </trkpt>
      <trkpt lat="9.98072" lon="-84.16802">
        <ele>998</ele>
        <time>2022-05-14 18:23:58</time>
      </trkpt>
      <trkpt lat="9.98058" lon="-84.16801">
        <ele>998</ele>
        <time>2022-05-14 18:23:59</time>
      </trkpt>
      <trkpt lat="9.98052" lon="-84.16799">
        <ele>998.4</ele>
        <time>2022-05-14 18:24:00</time>
      </trkpt>
      <trkpt lat="9.98046" lon="-84.16798">
        <ele>998.8</ele>
        <time>2022-05-14 18:24:01</time>
      </trkpt>
      <trkpt lat="9.9804" lon="-84.16798">
        <ele>999</ele>
        <time>2022-05-14 18:24:02</time>
      </trkpt>
      <trkpt lat="9.98033" lon="-84.16797">
        <ele>999</ele>
        <time>2022-05-14 18:24:03</time>
      </trkpt>
      <trkpt lat="9.98027" lon="-84.16796">
        <ele>999</ele>
        <time>2022-05-14 18:24:04</time>
      </trkpt>
      <trkpt lat="9.98021" lon="-84.16795">
        <ele>999.2</ele>
        <time>2022-05-14 18:24:05</time>
      </trkpt>
      <trkpt lat="9.98016" lon="-84.16794">
        <ele>999.4</ele>
        <time>2022-05-14 18:24:06</time>
      </trkpt>
      <trkpt lat="9.98016" lon="-84.16794">
        <ele>999.6</ele>
        <time>2022-05-14 18:24:07</time>
      </trkpt>
      <trkpt lat="9.98001" lon="-84.16792">
        <ele>999.8</ele>
        <time>2022-05-14 18:24:08</time>
      </trkpt>
      <trkpt lat="9.98001" lon="-84.16792">
        <ele>999.8</ele>
        <time>2022-05-14 18:24:09</time>
      </trkpt>
      <trkpt lat="9.97997" lon="-84.16792">
        <ele>999.8</ele>
        <time>2022-05-14 18:24:10</time>
      </trkpt>
      <trkpt lat="9.97993" lon="-84.16791">
        <ele>999.8</ele>
        <time>2022-05-14 18:24:11</time>
      </trkpt>
      <trkpt lat="9.9799" lon="-84.16791">
        <ele>999.8</ele>
        <time>2022-05-14 18:24:12</time>
      </trkpt>
      <trkpt lat="9.97987" lon="-84.16791">
        <ele>1000</ele>
        <time>2022-05-14 18:24:13</time>
      </trkpt>
      <trkpt lat="9.97984" lon="-84.16791">
        <ele>1000</ele>
        <time>2022-05-14 18:24:14</time>
      </trkpt>
      <trkpt lat="9.97982" lon="-84.16791">
        <ele>1000</ele>
        <time>2022-05-14 18:24:15</time>
      </trkpt>
      <trkpt lat="9.9798" lon="-84.16791">
        <ele>1000</ele>
        <time>2022-05-14 18:24:16</time>
      </trkpt>
      <trkpt lat="9.97979" lon="-84.16791">
        <ele>1000</ele>
        <time>2022-05-14 18:24:17</time>
      </trkpt>
      <trkpt lat="9.97979" lon="-84.16791">
        <ele>999.8</ele>
        <time>2022-05-14 18:24:18</time>
      </trkpt>
      <trkpt lat="9.97979" lon="-84.16791">
        <ele>999.8</ele>
        <time>2022-05-14 18:24:19</time>
      </trkpt>
      <trkpt lat="9.97978" lon="-84.16791">
        <ele>999.8</ele>
        <time>2022-05-14 18:24:20</time>
      </trkpt>
      <trkpt lat="9.97973" lon="-84.16792">
        <ele>1000</ele>
        <time>2022-05-14 18:24:50</time>
      </trkpt>
      <trkpt lat="9.97973" lon="-84.16792">
        <ele>1000</ele>
        <time>2022-05-14 18:24:51</time>
      </trkpt>
      <trkpt lat="9.97971" lon="-84.16793">
        <ele>1000</ele>
        <time>2022-05-14 18:24:52</time>
      </trkpt>
      <trkpt lat="9.97968" lon="-84.16792">
        <ele>999.8</ele>
        <time>2022-05-14 18:24:53</time>
      </trkpt>
      <trkpt lat="9.97966" lon="-84.16791">
        <ele>999.8</ele>
        <time>2022-05-14 18:24:54</time>
      </trkpt>
      <trkpt lat="9.97966" lon="-84.16788">
        <ele>999.8</ele>
        <time>2022-05-14 18:24:55</time>
      </trkpt>
      <trkpt lat="9.97964" lon="-84.16785">
        <ele>999.8</ele>
        <time>2022-05-14 18:24:56</time>
      </trkpt>
      <trkpt lat="9.97964" lon="-84.16782">
        <ele>1000</ele>
        <time>2022-05-14 18:24:57</time>
      </trkpt>
      <trkpt lat="9.97964" lon="-84.16778">
        <ele>1000</ele>
        <time>2022-05-14 18:24:58</time>
      </trkpt>
      <trkpt lat="9.97964" lon="-84.16774">
        <ele>1000.2</ele>
        <time>2022-05-14 18:24:59</time>
      </trkpt>
      <trkpt lat="9.97964" lon="-84.16765">
        <ele>1000.2</ele>
        <time>2022-05-14 18:25:00</time>
      </trkpt>
      <trkpt lat="9.97964" lon="-84.16765">
        <ele>1000.4</ele>
        <time>2022-05-14 18:25:01</time>
      </trkpt>
      <trkpt lat="9.97964" lon="-84.16761">
        <ele>1000.6</ele>
        <time>2022-05-14 18:25:02</time>
      </trkpt>
      <trkpt lat="9.97963" lon="-84.16756">
        <ele>1000.8</ele>
        <time>2022-05-14 18:25:03</time>
      </trkpt>
      <trkpt lat="9.97963" lon="-84.1675">
        <ele>1000.8</ele>
        <time>2022-05-14 18:25:04</time>
      </trkpt>
      <trkpt lat="9.97963" lon="-84.16746">
        <ele>1000.8</ele>
        <time>2022-05-14 18:25:05</time>
      </trkpt>
      <trkpt lat="9.97963" lon="-84.1674">
        <ele>1000.8</ele>
        <time>2022-05-14 18:25:06</time>
      </trkpt>
      <trkpt lat="9.97963" lon="-84.16735">
        <ele>1000.8</ele>
        <time>2022-05-14 18:25:07</time>
      </trkpt>
      <trkpt lat="9.97962" lon="-84.1673">
        <ele>1000.8</ele>
        <time>2022-05-14 18:25:08</time>
      </trkpt>
      <trkpt lat="9.97962" lon="-84.1673">
        <ele>1001</ele>
        <time>2022-05-14 18:25:09</time>
      </trkpt>
      <trkpt lat="9.97963" lon="-84.16712">
        <ele>1001.2</ele>
        <time>2022-05-14 18:25:10</time>
      </trkpt>
      <trkpt lat="9.97963" lon="-84.16706">
        <ele>1001.2</ele>
        <time>2022-05-14 18:25:11</time>
      </trkpt>
      <trkpt lat="9.97963" lon="-84.16706">
        <ele>1001.2</ele>
        <time>2022-05-14 18:25:12</time>
      </trkpt>
      <trkpt lat="9.97964" lon="-84.167">
        <ele>1001.4</ele>
        <time>2022-05-14 18:25:13</time>
      </trkpt>
      <trkpt lat="9.97964" lon="-84.16694">
        <ele>1001.4</ele>
        <time>2022-05-14 18:25:14</time>
      </trkpt>
      <trkpt lat="9.97964" lon="-84.16688">
        <ele>1001.4</ele>
        <time>2022-05-14 18:25:15</time>
      </trkpt>
      <trkpt lat="9.97965" lon="-84.16682">
        <ele>1001.6</ele>
        <time>2022-05-14 18:25:16</time>
      </trkpt>
      <trkpt lat="9.97965" lon="-84.16675">
        <ele>1001.6</ele>
        <time>2022-05-14 18:25:17</time>
      </trkpt>
      <trkpt lat="9.97964" lon="-84.16669">
        <ele>1001.6</ele>
        <time>2022-05-14 18:25:18</time>
      </trkpt>
      <trkpt lat="9.97964" lon="-84.16662">
        <ele>1001.6</ele>
        <time>2022-05-14 18:25:19</time>
      </trkpt>
      <trkpt lat="9.97964" lon="-84.16662">
        <ele>1001.6</ele>
        <time>2022-05-14 18:25:20</time>
      </trkpt>
      <trkpt lat="9.97965" lon="-84.16644">
        <ele>1001.8</ele>
        <time>2022-05-14 18:25:21</time>
      </trkpt>
      <trkpt lat="9.97965" lon="-84.16644">
        <ele>1002</ele>
        <time>2022-05-14 18:25:22</time>
      </trkpt>
      <trkpt lat="9.97966" lon="-84.16637">
        <ele>1002.2</ele>
        <time>2022-05-14 18:25:23</time>
      </trkpt>
      <trkpt lat="9.97966" lon="-84.16631">
        <ele>1002.2</ele>
        <time>2022-05-14 18:25:24</time>
      </trkpt>
      <trkpt lat="9.97967" lon="-84.16624">
        <ele>1002.4</ele>
        <time>2022-05-14 18:25:25</time>
      </trkpt>
      <trkpt lat="9.97968" lon="-84.16617">
        <ele>1002.6</ele>
        <time>2022-05-14 18:25:26</time>
      </trkpt>
      <trkpt lat="9.97969" lon="-84.16611">
        <ele>1002.8</ele>
        <time>2022-05-14 18:25:27</time>
      </trkpt>
      <trkpt lat="9.97969" lon="-84.16605">
        <ele>1003</ele>
        <time>2022-05-14 18:25:28</time>
      </trkpt>
      <trkpt lat="9.97971" lon="-84.16599">
        <ele>1003.2</ele>
        <time>2022-05-14 18:25:29</time>
      </trkpt>
      <trkpt lat="9.97972" lon="-84.16587">
        <ele>1003.4</ele>
        <time>2022-05-14 18:25:30</time>
      </trkpt>
      <trkpt lat="9.97972" lon="-84.16582">
        <ele>1004</ele>
        <time>2022-05-14 18:25:31</time>
      </trkpt>
      <trkpt lat="9.97973" lon="-84.16577">
        <ele>1004.2</ele>
        <time>2022-05-14 18:25:32</time>
      </trkpt>
      <trkpt lat="9.97973" lon="-84.16577">
        <ele>1004.2</ele>
        <time>2022-05-14 18:25:33</time>
      </trkpt>
      <trkpt lat="9.97974" lon="-84.16571">
        <ele>1004.4</ele>
        <time>2022-05-14 18:25:34</time>
      </trkpt>
      <trkpt lat="9.97975" lon="-84.16566">
        <ele>1004.2</ele>
        <time>2022-05-14 18:25:35</time>
      </trkpt>
      <trkpt lat="9.97976" lon="-84.16561">
        <ele>1004.6</ele>
        <time>2022-05-14 18:25:36</time>
      </trkpt>
      <trkpt lat="9.97978" lon="-84.16556">
        <ele>1004.6</ele>
        <time>2022-05-14 18:25:37</time>
      </trkpt>
      <trkpt lat="9.97979" lon="-84.1655">
        <ele>1004.6</ele>
        <time>2022-05-14 18:25:38</time>
      </trkpt>
      <trkpt lat="9.97981" lon="-84.16544">
        <ele>1004.6</ele>
        <time>2022-05-14 18:25:39</time>
      </trkpt>
      <trkpt lat="9.97983" lon="-84.16539">
        <ele>1004.6</ele>
        <time>2022-05-14 18:25:40</time>
      </trkpt>
      <trkpt lat="9.97986" lon="-84.16528">
        <ele>1004.8</ele>
        <time>2022-05-14 18:25:41</time>
      </trkpt>
      <trkpt lat="9.97987" lon="-84.16522">
        <ele>1005</ele>
        <time>2022-05-14 18:25:42</time>
      </trkpt>
      <trkpt lat="9.97987" lon="-84.16522">
        <ele>1005.4</ele>
        <time>2022-05-14 18:25:43</time>
      </trkpt>
      <trkpt lat="9.97989" lon="-84.16515">
        <ele>1005.8</ele>
        <time>2022-05-14 18:25:44</time>
      </trkpt>
      <trkpt lat="9.97991" lon="-84.1651">
        <ele>1006</ele>
        <time>2022-05-14 18:25:45</time>
      </trkpt>
      <trkpt lat="9.97992" lon="-84.16504">
        <ele>1006</ele>
        <time>2022-05-14 18:25:46</time>
      </trkpt>
      <trkpt lat="9.97995" lon="-84.16498">
        <ele>1006.2</ele>
        <time>2022-05-14 18:25:47</time>
      </trkpt>
      <trkpt lat="9.97996" lon="-84.16492">
        <ele>1006</ele>
        <time>2022-05-14 18:25:48</time>
      </trkpt>
      <trkpt lat="9.97998" lon="-84.16487">
        <ele>1006</ele>
        <time>2022-05-14 18:25:49</time>
      </trkpt>
      <trkpt lat="9.97999" lon="-84.1648">
        <ele>1006</ele>
        <time>2022-05-14 18:25:50</time>
      </trkpt>
      <trkpt lat="9.98004" lon="-84.16467">
        <ele>1006.2</ele>
        <time>2022-05-14 18:25:51</time>
      </trkpt>
      <trkpt lat="9.98006" lon="-84.16461">
        <ele>1006.2</ele>
        <time>2022-05-14 18:25:52</time>
      </trkpt>
      <trkpt lat="9.98007" lon="-84.16454">
        <ele>1006.2</ele>
        <time>2022-05-14 18:25:53</time>
      </trkpt>
      <trkpt lat="9.98007" lon="-84.16454">
        <ele>1006.2</ele>
        <time>2022-05-14 18:25:54</time>
      </trkpt>
      <trkpt lat="9.98009" lon="-84.16447">
        <ele>1006.2</ele>
        <time>2022-05-14 18:25:55</time>
      </trkpt>
      <trkpt lat="9.98011" lon="-84.16441">
        <ele>1006.4</ele>
        <time>2022-05-14 18:25:56</time>
      </trkpt>
      <trkpt lat="9.98012" lon="-84.16434">
        <ele>1006.4</ele>
        <time>2022-05-14 18:25:57</time>
      </trkpt>
      <trkpt lat="9.98014" lon="-84.16427">
        <ele>1006.4</ele>
        <time>2022-05-14 18:25:58</time>
      </trkpt>
      <trkpt lat="9.98016" lon="-84.1642">
        <ele>1006.6</ele>
        <time>2022-05-14 18:25:59</time>
      </trkpt>
      <trkpt lat="9.98018" lon="-84.16414">
        <ele>1006.8</ele>
        <time>2022-05-14 18:26:00</time>
      </trkpt>
      <trkpt lat="9.98018" lon="-84.16414">
        <ele>1006.8</ele>
        <time>2022-05-14 18:26:01</time>
      </trkpt>
      <trkpt lat="9.98025" lon="-84.16393">
        <ele>1007</ele>
        <time>2022-05-14 18:26:02</time>
      </trkpt>
      <trkpt lat="9.98027" lon="-84.16387">
        <ele>1007</ele>
        <time>2022-05-14 18:26:03</time>
      </trkpt>
      <trkpt lat="9.98027" lon="-84.16387">
        <ele>1007.2</ele>
        <time>2022-05-14 18:26:04</time>
      </trkpt>
      <trkpt lat="9.98029" lon="-84.1638">
        <ele>1007.2</ele>
        <time>2022-05-14 18:26:05</time>
      </trkpt>
      <trkpt lat="9.98032" lon="-84.16373">
        <ele>1007.4</ele>
        <time>2022-05-14 18:26:06</time>
      </trkpt>
      <trkpt lat="9.98034" lon="-84.16366">
        <ele>1007.4</ele>
        <time>2022-05-14 18:26:07</time>
      </trkpt>
      <trkpt lat="9.98036" lon="-84.1636">
        <ele>1007.8</ele>
        <time>2022-05-14 18:26:08</time>
      </trkpt>
      <trkpt lat="9.98039" lon="-84.16353">
        <ele>1008</ele>
        <time>2022-05-14 18:26:09</time>
      </trkpt>
      <trkpt lat="9.98041" lon="-84.16346">
        <ele>1008</ele>
        <time>2022-05-14 18:26:10</time>
      </trkpt>
      <trkpt lat="9.98041" lon="-84.16346">
        <ele>1008</ele>
        <time>2022-05-14 18:26:11</time>
      </trkpt>
      <trkpt lat="9.98048" lon="-84.16326">
        <ele>1008.2</ele>
        <time>2022-05-14 18:26:12</time>
      </trkpt>
      <trkpt lat="9.9805" lon="-84.16319">
        <ele>1008.6</ele>
        <time>2022-05-14 18:26:13</time>
      </trkpt>
      <trkpt lat="9.98052" lon="-84.16313">
        <ele>1008.8</ele>
        <time>2022-05-14 18:26:14</time>
      </trkpt>
      <trkpt lat="9.98052" lon="-84.16313">
        <ele>1008.8</ele>
        <time>2022-05-14 18:26:15</time>
      </trkpt>
      <trkpt lat="9.98054" lon="-84.16307">
        <ele>1008.6</ele>
        <time>2022-05-14 18:26:16</time>
      </trkpt>
      <trkpt lat="9.98057" lon="-84.16301">
        <ele>1008.6</ele>
        <time>2022-05-14 18:26:17</time>
      </trkpt>
      <trkpt lat="9.98059" lon="-84.16294">
        <ele>1009</ele>
        <time>2022-05-14 18:26:18</time>
      </trkpt>
      <trkpt lat="9.98061" lon="-84.16288">
        <ele>1009.4</ele>
        <time>2022-05-14 18:26:19</time>
      </trkpt>
      <trkpt lat="9.98063" lon="-84.16282">
        <ele>1009.6</ele>
        <time>2022-05-14 18:26:20</time>
      </trkpt>
      <trkpt lat="9.98065" lon="-84.16276">
        <ele>1009.6</ele>
        <time>2022-05-14 18:26:21</time>
      </trkpt>
      <trkpt lat="9.98069" lon="-84.16263">
        <ele>1009.6</ele>
        <time>2022-05-14 18:26:22</time>
      </trkpt>
      <trkpt lat="9.98071" lon="-84.16257">
        <ele>1009.6</ele>
        <time>2022-05-14 18:26:23</time>
      </trkpt>
      <trkpt lat="9.98073" lon="-84.16252">
        <ele>1009.6</ele>
        <time>2022-05-14 18:26:24</time>
      </trkpt>
      <trkpt lat="9.98073" lon="-84.16252">
        <ele>1009.8</ele>
        <time>2022-05-14 18:26:25</time>
      </trkpt>
      <trkpt lat="9.98074" lon="-84.16245">
        <ele>1010</ele>
        <time>2022-05-14 18:26:26</time>
      </trkpt>
      <trkpt lat="9.98074" lon="-84.16239">
        <ele>1010.2</ele>
        <time>2022-05-14 18:26:27</time>
      </trkpt>
      <trkpt lat="9.98073" lon="-84.16234">
        <ele>1010.2</ele>
        <time>2022-05-14 18:26:28</time>
      </trkpt>
      <trkpt lat="9.98071" lon="-84.16228">
        <ele>1010.2</ele>
        <time>2022-05-14 18:26:29</time>
      </trkpt>
      <trkpt lat="9.98069" lon="-84.16223">
        <ele>1010.2</ele>
        <time>2022-05-14 18:26:30</time>
      </trkpt>
      <trkpt lat="9.98067" lon="-84.16217">
        <ele>1010</ele>
        <time>2022-05-14 18:26:31</time>
      </trkpt>
      <trkpt lat="9.98062" lon="-84.16205">
        <ele>1009.8</ele>
        <time>2022-05-14 18:26:32</time>
      </trkpt>
      <trkpt lat="9.98059" lon="-84.16199">
        <ele>1009.4</ele>
        <time>2022-05-14 18:26:33</time>
      </trkpt>
      <trkpt lat="9.98055" lon="-84.16193">
        <ele>1008.8</ele>
        <time>2022-05-14 18:26:34</time>
      </trkpt>
      <trkpt lat="9.9805" lon="-84.16187">
        <ele>1008.2</ele>
        <time>2022-05-14 18:26:35</time>
      </trkpt>
      <trkpt lat="9.9805" lon="-84.16187">
        <ele>1008.2</ele>
        <time>2022-05-14 18:26:36</time>
      </trkpt>
      <trkpt lat="9.98044" lon="-84.16181">
        <ele>1007.6</ele>
        <time>2022-05-14 18:26:37</time>
      </trkpt>
      <trkpt lat="9.98038" lon="-84.16176">
        <ele>1007.2</ele>
        <time>2022-05-14 18:26:38</time>
      </trkpt>
      <trkpt lat="9.98031" lon="-84.1617">
        <ele>1006.6</ele>
        <time>2022-05-14 18:26:39</time>
      </trkpt>
      <trkpt lat="9.98025" lon="-84.16163">
        <ele>1006</ele>
        <time>2022-05-14 18:26:40</time>
      </trkpt>
      <trkpt lat="9.9802" lon="-84.16157">
        <ele>1005.8</ele>
        <time>2022-05-14 18:26:41</time>
      </trkpt>
      <trkpt lat="9.98014" lon="-84.1615">
        <ele>1005.8</ele>
        <time>2022-05-14 18:26:42</time>
      </trkpt>
      <trkpt lat="9.98004" lon="-84.16136">
        <ele>1005.6</ele>
        <time>2022-05-14 18:26:43</time>
      </trkpt>
      <trkpt lat="9.97999" lon="-84.16129">
        <ele>1005.4</ele>
        <time>2022-05-14 18:26:44</time>
      </trkpt>
      <trkpt lat="9.97993" lon="-84.16122">
        <ele>1005.2</ele>
        <time>2022-05-14 18:26:45</time>
      </trkpt>
      <trkpt lat="9.97993" lon="-84.16122">
        <ele>1004.8</ele>
        <time>2022-05-14 18:26:46</time>
      </trkpt>
      <trkpt lat="9.97988" lon="-84.16114">
        <ele>1004.6</ele>
        <time>2022-05-14 18:26:47</time>
      </trkpt>
      <trkpt lat="9.97984" lon="-84.16107">
        <ele>1004.6</ele>
        <time>2022-05-14 18:26:48</time>
      </trkpt>
      <trkpt lat="9.97979" lon="-84.161">
        <ele>1004.8</ele>
        <time>2022-05-14 18:26:49</time>
      </trkpt>
      <trkpt lat="9.97975" lon="-84.16092">
        <ele>1004.8</ele>
        <time>2022-05-14 18:26:50</time>
      </trkpt>
      <trkpt lat="9.97971" lon="-84.16084">
        <ele>1004.8</ele>
        <time>2022-05-14 18:26:51</time>
      </trkpt>
      <trkpt lat="9.97971" lon="-84.16084">
        <ele>1005</ele>
        <time>2022-05-14 18:26:52</time>
      </trkpt>
      <trkpt lat="9.97958" lon="-84.16062">
        <ele>1005.2</ele>
        <time>2022-05-14 18:26:53</time>
      </trkpt>
      <trkpt lat="9.97954" lon="-84.16055">
        <ele>1005.2</ele>
        <time>2022-05-14 18:26:54</time>
      </trkpt>
      <trkpt lat="9.9795" lon="-84.16047">
        <ele>1005.2</ele>
        <time>2022-05-14 18:26:55</time>
      </trkpt>
      <trkpt lat="9.97946" lon="-84.16039">
        <ele>1004.8</ele>
        <time>2022-05-14 18:26:56</time>
      </trkpt>
      <trkpt lat="9.97946" lon="-84.16039">
        <ele>1004.8</ele>
        <time>2022-05-14 18:26:57</time>
      </trkpt>
      <trkpt lat="9.97942" lon="-84.16032">
        <ele>1004.8</ele>
        <time>2022-05-14 18:26:58</time>
      </trkpt>
      <trkpt lat="9.97938" lon="-84.16024">
        <ele>1004.8</ele>
        <time>2022-05-14 18:26:59</time>
      </trkpt>
      <trkpt lat="9.97934" lon="-84.16017">
        <ele>1004.6</ele>
        <time>2022-05-14 18:27:00</time>
      </trkpt>
      <trkpt lat="9.9793" lon="-84.1601">
        <ele>1004.4</ele>
        <time>2022-05-14 18:27:01</time>
      </trkpt>
      <trkpt lat="9.97926" lon="-84.16002">
        <ele>1004</ele>
        <time>2022-05-14 18:27:02</time>
      </trkpt>
      <trkpt lat="9.97926" lon="-84.16002">
        <ele>1003.8</ele>
        <time>2022-05-14 18:27:03</time>
      </trkpt>
      <trkpt lat="9.97913" lon="-84.15981">
        <ele>1003.4</ele>
        <time>2022-05-14 18:27:04</time>
      </trkpt>
      <trkpt lat="9.97909" lon="-84.15974">
        <ele>1003</ele>
        <time>2022-05-14 18:27:05</time>
      </trkpt>
      <trkpt lat="9.97905" lon="-84.15966">
        <ele>1002.8</ele>
        <time>2022-05-14 18:27:06</time>
      </trkpt>
      <trkpt lat="9.97905" lon="-84.15966">
        <ele>1002.6</ele>
        <time>2022-05-14 18:27:07</time>
      </trkpt>
      <trkpt lat="9.97901" lon="-84.15959">
        <ele>1002.4</ele>
        <time>2022-05-14 18:27:08</time>
      </trkpt>
      <trkpt lat="9.97898" lon="-84.15952">
        <ele>1002.2</ele>
        <time>2022-05-14 18:27:09</time>
      </trkpt>
      <trkpt lat="9.97894" lon="-84.15943">
        <ele>1001.8</ele>
        <time>2022-05-14 18:27:10</time>
      </trkpt>
      <trkpt lat="9.9789" lon="-84.15936">
        <ele>1001.6</ele>
        <time>2022-05-14 18:27:11</time>
      </trkpt>
      <trkpt lat="9.97886" lon="-84.15928">
        <ele>1001.2</ele>
        <time>2022-05-14 18:27:12</time>
      </trkpt>
      <trkpt lat="9.97877" lon="-84.15913">
        <ele>1001</ele>
        <time>2022-05-14 18:27:13</time>
      </trkpt>
      <trkpt lat="9.97873" lon="-84.15904">
        <ele>1000.6</ele>
        <time>2022-05-14 18:27:14</time>
      </trkpt>
      <trkpt lat="9.97869" lon="-84.15896">
        <ele>1000.2</ele>
        <time>2022-05-14 18:27:15</time>
      </trkpt>
      <trkpt lat="9.97864" lon="-84.15888">
        <ele>999.6</ele>
        <time>2022-05-14 18:27:16</time>
      </trkpt>
      <trkpt lat="9.9786" lon="-84.1588">
        <ele>999.2</ele>
        <time>2022-05-14 18:27:17</time>
      </trkpt>
      <trkpt lat="9.9786" lon="-84.1588">
        <ele>999.2</ele>
        <time>2022-05-14 18:27:18</time>
      </trkpt>
      <trkpt lat="9.97855" lon="-84.15871">
        <ele>998.6</ele>
        <time>2022-05-14 18:27:19</time>
      </trkpt>
      <trkpt lat="9.97851" lon="-84.15863">
        <ele>998</ele>
        <time>2022-05-14 18:27:20</time>
      </trkpt>
      <trkpt lat="9.97846" lon="-84.15854">
        <ele>997.4</ele>
        <time>2022-05-14 18:27:21</time>
      </trkpt>
      <trkpt lat="9.97841" lon="-84.15845">
        <ele>996.8</ele>
        <time>2022-05-14 18:27:22</time>
      </trkpt>
      <trkpt lat="9.97837" lon="-84.15836">
        <ele>996.8</ele>
        <time>2022-05-14 18:27:23</time>
      </trkpt>
      <trkpt lat="9.97828" lon="-84.15819">
        <ele>996.8</ele>
        <time>2022-05-14 18:27:24</time>
      </trkpt>
      <trkpt lat="9.97823" lon="-84.15811">
        <ele>996.8</ele>
        <time>2022-05-14 18:27:25</time>
      </trkpt>
      <trkpt lat="9.97819" lon="-84.15802">
        <ele>996.8</ele>
        <time>2022-05-14 18:27:26</time>
      </trkpt>
      <trkpt lat="9.97814" lon="-84.15793">
        <ele>996.8</ele>
        <time>2022-05-14 18:27:27</time>
      </trkpt>
      <trkpt lat="9.97814" lon="-84.15793">
        <ele>997.2</ele>
        <time>2022-05-14 18:27:28</time>
      </trkpt>
      <trkpt lat="9.9781" lon="-84.15786">
        <ele>997.2</ele>
        <time>2022-05-14 18:27:29</time>
      </trkpt>
      <trkpt lat="9.97805" lon="-84.15778">
        <ele>997.4</ele>
        <time>2022-05-14 18:27:30</time>
      </trkpt>
      <trkpt lat="9.97801" lon="-84.15771">
        <ele>997.2</ele>
        <time>2022-05-14 18:27:31</time>
      </trkpt>
      <trkpt lat="9.97796" lon="-84.15763">
        <ele>997.2</ele>
        <time>2022-05-14 18:27:32</time>
      </trkpt>
      <trkpt lat="9.97796" lon="-84.15763">
        <ele>997.2</ele>
        <time>2022-05-14 18:27:33</time>
      </trkpt>
      <trkpt lat="9.97784" lon="-84.1574">
        <ele>997.2</ele>
        <time>2022-05-14 18:27:34</time>
      </trkpt>
      <trkpt lat="9.9778" lon="-84.15733">
        <ele>997.4</ele>
        <time>2022-05-14 18:27:35</time>
      </trkpt>
      <trkpt lat="9.97776" lon="-84.15726">
        <ele>997.4</ele>
        <time>2022-05-14 18:27:36</time>
      </trkpt>
      <trkpt lat="9.97772" lon="-84.15719">
        <ele>997.6</ele>
        <time>2022-05-14 18:27:37</time>
      </trkpt>
      <trkpt lat="9.97768" lon="-84.15713">
        <ele>997.4</ele>
        <time>2022-05-14 18:27:38</time>
      </trkpt>
      <trkpt lat="9.97768" lon="-84.15713">
        <ele>997.4</ele>
        <time>2022-05-14 18:27:39</time>
      </trkpt>
      <trkpt lat="9.97765" lon="-84.15706">
        <ele>997.4</ele>
        <time>2022-05-14 18:27:40</time>
      </trkpt>
      <trkpt lat="9.97761" lon="-84.157">
        <ele>997.2</ele>
        <time>2022-05-14 18:27:41</time>
      </trkpt>
      <trkpt lat="9.97758" lon="-84.15693">
        <ele>997.2</ele>
        <time>2022-05-14 18:27:42</time>
      </trkpt>
      <trkpt lat="9.97754" lon="-84.15687">
        <ele>997</ele>
        <time>2022-05-14 18:27:43</time>
      </trkpt>
      <trkpt lat="9.97754" lon="-84.15687">
        <ele>997.2</ele>
        <time>2022-05-14 18:27:44</time>
      </trkpt>
      <trkpt lat="9.97744" lon="-84.15668">
        <ele>997.2</ele>
        <time>2022-05-14 18:27:45</time>
      </trkpt>
      <trkpt lat="9.97741" lon="-84.15661">
        <ele>997.4</ele>
        <time>2022-05-14 18:27:46</time>
      </trkpt>
      <trkpt lat="9.97737" lon="-84.15656">
        <ele>997.2</ele>
        <time>2022-05-14 18:27:47</time>
      </trkpt>
      <trkpt lat="9.97734" lon="-84.1565">
        <ele>997</ele>
        <time>2022-05-14 18:27:48</time>
      </trkpt>
      <trkpt lat="9.97734" lon="-84.1565">
        <ele>996.8</ele>
        <time>2022-05-14 18:27:49</time>
      </trkpt>
      <trkpt lat="9.97731" lon="-84.15643">
        <ele>996.8</ele>
        <time>2022-05-14 18:27:50</time>
      </trkpt>
      <trkpt lat="9.97728" lon="-84.15638">
        <ele>996.8</ele>
        <time>2022-05-14 18:27:51</time>
      </trkpt>
      <trkpt lat="9.97725" lon="-84.15632">
        <ele>996.6</ele>
        <time>2022-05-14 18:27:52</time>
      </trkpt>
      <trkpt lat="9.97722" lon="-84.15626">
        <ele>996.8</ele>
        <time>2022-05-14 18:27:53</time>
      </trkpt>
      <trkpt lat="9.97715" lon="-84.15614">
        <ele>996.4</ele>
        <time>2022-05-14 18:27:54</time>
      </trkpt>
      <trkpt lat="9.97712" lon="-84.15607">
        <ele>996.2</ele>
        <time>2022-05-14 18:27:55</time>
      </trkpt>
      <trkpt lat="9.97709" lon="-84.15602">
        <ele>996</ele>
        <time>2022-05-14 18:27:56</time>
      </trkpt>
      <trkpt lat="9.97706" lon="-84.15596">
        <ele>996.2</ele>
        <time>2022-05-14 18:27:57</time>
      </trkpt>
      <trkpt lat="9.97702" lon="-84.15591">
        <ele>996.2</ele>
        <time>2022-05-14 18:27:58</time>
      </trkpt>
      <trkpt lat="9.977" lon="-84.15585">
        <ele>996.4</ele>
        <time>2022-05-14 18:27:59</time>
      </trkpt>
      <trkpt lat="9.977" lon="-84.15585">
        <ele>996.4</ele>
        <time>2022-05-14 18:28:00</time>
      </trkpt>
      <trkpt lat="9.97697" lon="-84.15578">
        <ele>996.4</ele>
        <time>2022-05-14 18:28:01</time>
      </trkpt>
      <trkpt lat="9.97694" lon="-84.15573">
        <ele>996.2</ele>
        <time>2022-05-14 18:28:02</time>
      </trkpt>
      <trkpt lat="9.97691" lon="-84.15568">
        <ele>995.8</ele>
        <time>2022-05-14 18:28:03</time>
      </trkpt>
      <trkpt lat="9.97688" lon="-84.15562">
        <ele>995.6</ele>
        <time>2022-05-14 18:28:04</time>
      </trkpt>
      <trkpt lat="9.97682" lon="-84.1555">
        <ele>995.6</ele>
        <time>2022-05-14 18:28:05</time>
      </trkpt>
      <trkpt lat="9.97678" lon="-84.15544">
        <ele>995.4</ele>
        <time>2022-05-14 18:28:06</time>
      </trkpt>
      <trkpt lat="9.97675" lon="-84.15539">
        <ele>995.4</ele>
        <time>2022-05-14 18:28:07</time>
      </trkpt>
      <trkpt lat="9.97672" lon="-84.15533">
        <ele>995.2</ele>
        <time>2022-05-14 18:28:08</time>
      </trkpt>
      <trkpt lat="9.97668" lon="-84.15527">
        <ele>995</ele>
        <time>2022-05-14 18:28:09</time>
      </trkpt>
      <trkpt lat="9.97668" lon="-84.15527">
        <ele>994.6</ele>
        <time>2022-05-14 18:28:10</time>
      </trkpt>
      <trkpt lat="9.97665" lon="-84.1552">
        <ele>994.2</ele>
        <time>2022-05-14 18:28:11</time>
      </trkpt>
      <trkpt lat="9.97661" lon="-84.15513">
        <ele>994.2</ele>
        <time>2022-05-14 18:28:12</time>
      </trkpt>
      <trkpt lat="9.97658" lon="-84.15507">
        <ele>993.8</ele>
        <time>2022-05-14 18:28:13</time>
      </trkpt>
      <trkpt lat="9.97654" lon="-84.15501">
        <ele>993.8</ele>
        <time>2022-05-14 18:28:14</time>
      </trkpt>
      <trkpt lat="9.97647" lon="-84.15487">
        <ele>993.8</ele>
        <time>2022-05-14 18:28:15</time>
      </trkpt>
      <trkpt lat="9.97644" lon="-84.1548">
        <ele>993.8</ele>
        <time>2022-05-14 18:28:16</time>
      </trkpt>
      <trkpt lat="9.9764" lon="-84.15474">
        <ele>993.6</ele>
        <time>2022-05-14 18:28:17</time>
      </trkpt>
      <trkpt lat="9.97637" lon="-84.15468">
        <ele>993.4</ele>
        <time>2022-05-14 18:28:18</time>
      </trkpt>
      <trkpt lat="9.97633" lon="-84.15462">
        <ele>993.4</ele>
        <time>2022-05-14 18:28:19</time>
      </trkpt>
      <trkpt lat="9.9763" lon="-84.15455">
        <ele>993.6</ele>
        <time>2022-05-14 18:28:20</time>
      </trkpt>
      <trkpt lat="9.9763" lon="-84.15455">
        <ele>993.6</ele>
        <time>2022-05-14 18:28:21</time>
      </trkpt>
      <trkpt lat="9.97626" lon="-84.1545">
        <ele>993.6</ele>
        <time>2022-05-14 18:28:22</time>
      </trkpt>
      <trkpt lat="9.97623" lon="-84.15444">
        <ele>993.8</ele>
        <time>2022-05-14 18:28:23</time>
      </trkpt>
      <trkpt lat="9.9762" lon="-84.15438">
        <ele>993.8</ele>
        <time>2022-05-14 18:28:24</time>
      </trkpt>
      <trkpt lat="9.9762" lon="-84.15438">
        <ele>994</ele>
        <time>2022-05-14 18:28:25</time>
      </trkpt>
      <trkpt lat="9.97611" lon="-84.15422">
        <ele>994.2</ele>
        <time>2022-05-14 18:28:26</time>
      </trkpt>
      <trkpt lat="9.97608" lon="-84.15417">
        <ele>994.6</ele>
        <time>2022-05-14 18:28:27</time>
      </trkpt>
      <trkpt lat="9.97605" lon="-84.15411">
        <ele>994.8</ele>
        <time>2022-05-14 18:28:28</time>
      </trkpt>
      <trkpt lat="9.97602" lon="-84.15407">
        <ele>995</ele>
        <time>2022-05-14 18:28:29</time>
      </trkpt>
      <trkpt lat="9.97599" lon="-84.15401">
        <ele>995</ele>
        <time>2022-05-14 18:28:30</time>
      </trkpt>
      <trkpt lat="9.97599" lon="-84.15401">
        <ele>995.2</ele>
        <time>2022-05-14 18:28:31</time>
      </trkpt>
      <trkpt lat="9.97597" lon="-84.15397">
        <ele>995.4</ele>
        <time>2022-05-14 18:28:32</time>
      </trkpt>
      <trkpt lat="9.97594" lon="-84.15392">
        <ele>995.6</ele>
        <time>2022-05-14 18:28:33</time>
      </trkpt>
      <trkpt lat="9.97592" lon="-84.15387">
        <ele>995.8</ele>
        <time>2022-05-14 18:28:34</time>
      </trkpt>
      <trkpt lat="9.97592" lon="-84.15387">
        <ele>996.2</ele>
        <time>2022-05-14 18:28:35</time>
      </trkpt>
      <trkpt lat="9.97583" lon="-84.15373">
        <ele>996.4</ele>
        <time>2022-05-14 18:28:36</time>
      </trkpt>
      <trkpt lat="9.97581" lon="-84.15369">
        <ele>996.6</ele>
        <time>2022-05-14 18:28:37</time>
      </trkpt>
      <trkpt lat="9.97578" lon="-84.15365">
        <ele>996.8</ele>
        <time>2022-05-14 18:28:38</time>
      </trkpt>
      <trkpt lat="9.97576" lon="-84.15359">
        <ele>996.8</ele>
        <time>2022-05-14 18:28:39</time>
      </trkpt>
      <trkpt lat="9.97574" lon="-84.15356">
        <ele>997</ele>
        <time>2022-05-14 18:28:40</time>
      </trkpt>
      <trkpt lat="9.97573" lon="-84.1535">
        <ele>997.2</ele>
        <time>2022-05-14 18:28:41</time>
      </trkpt>
      <trkpt lat="9.97573" lon="-84.1535">
        <ele>997.2</ele>
        <time>2022-05-14 18:28:42</time>
      </trkpt>
      <trkpt lat="9.9757" lon="-84.15345">
        <ele>997.4</ele>
        <time>2022-05-14 18:28:43</time>
      </trkpt>
      <trkpt lat="9.97567" lon="-84.1534">
        <ele>997.6</ele>
        <time>2022-05-14 18:28:44</time>
      </trkpt>
      <trkpt lat="9.97565" lon="-84.15334">
        <ele>997.6</ele>
        <time>2022-05-14 18:28:45</time>
      </trkpt>
      <trkpt lat="9.97565" lon="-84.15334">
        <ele>997.8</ele>
        <time>2022-05-14 18:28:46</time>
      </trkpt>
      <trkpt lat="9.97556" lon="-84.15319">
        <ele>997.8</ele>
        <time>2022-05-14 18:28:47</time>
      </trkpt>
      <trkpt lat="9.97553" lon="-84.15314">
        <ele>998</ele>
        <time>2022-05-14 18:28:48</time>
      </trkpt>
      <trkpt lat="9.9755" lon="-84.15309">
        <ele>998.2</ele>
        <time>2022-05-14 18:28:49</time>
      </trkpt>
      <trkpt lat="9.97546" lon="-84.15304">
        <ele>998.4</ele>
        <time>2022-05-14 18:28:50</time>
      </trkpt>
      <trkpt lat="9.97544" lon="-84.15298">
        <ele>998.4</ele>
        <time>2022-05-14 18:28:51</time>
      </trkpt>
      <trkpt lat="9.97544" lon="-84.15298">
        <ele>998.6</ele>
        <time>2022-05-14 18:28:52</time>
      </trkpt>
      <trkpt lat="9.97541" lon="-84.15294">
        <ele>998.8</ele>
        <time>2022-05-14 18:28:53</time>
      </trkpt>
      <trkpt lat="9.97538" lon="-84.15289">
        <ele>999</ele>
        <time>2022-05-14 18:28:54</time>
      </trkpt>
      <trkpt lat="9.97534" lon="-84.15285">
        <ele>999</ele>
        <time>2022-05-14 18:28:55</time>
      </trkpt>
      <trkpt lat="9.97529" lon="-84.15275">
        <ele>999.2</ele>
        <time>2022-05-14 18:28:56</time>
      </trkpt>
      <trkpt lat="9.97527" lon="-84.15269">
        <ele>999.2</ele>
        <time>2022-05-14 18:28:57</time>
      </trkpt>
      <trkpt lat="9.97524" lon="-84.15265">
        <ele>999.2</ele>
        <time>2022-05-14 18:28:58</time>
      </trkpt>
      <trkpt lat="9.97521" lon="-84.15261">
        <ele>999</ele>
        <time>2022-05-14 18:28:59</time>
      </trkpt>
      <trkpt lat="9.97519" lon="-84.15256">
        <ele>999</ele>
        <time>2022-05-14 18:29:00</time>
      </trkpt>
      <trkpt lat="9.97516" lon="-84.15251">
        <ele>999</ele>
        <time>2022-05-14 18:29:01</time>
      </trkpt>
      <trkpt lat="9.97514" lon="-84.15247">
        <ele>999</ele>
        <time>2022-05-14 18:29:02</time>
      </trkpt>
      <trkpt lat="9.97514" lon="-84.15247">
        <ele>999</ele>
        <time>2022-05-14 18:29:03</time>
      </trkpt>
      <trkpt lat="9.97511" lon="-84.15242">
        <ele>999</ele>
        <time>2022-05-14 18:29:04</time>
      </trkpt>
      <trkpt lat="9.97509" lon="-84.15238">
        <ele>999</ele>
        <time>2022-05-14 18:29:05</time>
      </trkpt>
      <trkpt lat="9.97506" lon="-84.15233">
        <ele>998.8</ele>
        <time>2022-05-14 18:29:06</time>
      </trkpt>
      <trkpt lat="9.97502" lon="-84.15224">
        <ele>999.2</ele>
        <time>2022-05-14 18:29:07</time>
      </trkpt>
      <trkpt lat="9.97499" lon="-84.15219">
        <ele>999.2</ele>
        <time>2022-05-14 18:29:08</time>
      </trkpt>
      <trkpt lat="9.97497" lon="-84.15215">
        <ele>999.2</ele>
        <time>2022-05-14 18:29:09</time>
      </trkpt>
      <trkpt lat="9.97494" lon="-84.15211">
        <ele>998.8</ele>
        <time>2022-05-14 18:29:10</time>
      </trkpt>
      <trkpt lat="9.97492" lon="-84.15206">
        <ele>998.8</ele>
        <time>2022-05-14 18:29:11</time>
      </trkpt>
      <trkpt lat="9.97489" lon="-84.15202">
        <ele>998.8</ele>
        <time>2022-05-14 18:29:12</time>
      </trkpt>
      <trkpt lat="9.97489" lon="-84.15202">
        <ele>998.6</ele>
        <time>2022-05-14 18:29:13</time>
      </trkpt>
      <trkpt lat="9.97486" lon="-84.152">
        <ele>998</ele>
        <time>2022-05-14 18:29:14</time>
      </trkpt>
      <trkpt lat="9.97482" lon="-84.15198">
        <ele>997.6</ele>
        <time>2022-05-14 18:29:15</time>
      </trkpt>
      <trkpt lat="9.97482" lon="-84.15198">
        <ele>997.4</ele>
        <time>2022-05-14 18:29:16</time>
      </trkpt>
      <trkpt lat="9.97471" lon="-84.15194">
        <ele>997.4</ele>
        <time>2022-05-14 18:29:17</time>
      </trkpt>
      <trkpt lat="9.97467" lon="-84.15193">
        <ele>997</ele>
        <time>2022-05-14 18:29:18</time>
      </trkpt>
      <trkpt lat="9.97463" lon="-84.15193">
        <ele>996.8</ele>
        <time>2022-05-14 18:29:19</time>
      </trkpt>
      <trkpt lat="9.97459" lon="-84.15193">
        <ele>996.6</ele>
        <time>2022-05-14 18:29:20</time>
      </trkpt>
      <trkpt lat="9.97455" lon="-84.15192">
        <ele>996.4</ele>
        <time>2022-05-14 18:29:21</time>
      </trkpt>
      <trkpt lat="9.97451" lon="-84.15192">
        <ele>996.2</ele>
        <time>2022-05-14 18:29:22</time>
      </trkpt>
      <trkpt lat="9.97448" lon="-84.15192">
        <ele>996</ele>
        <time>2022-05-14 18:29:23</time>
      </trkpt>
      <trkpt lat="9.97448" lon="-84.15192">
        <ele>996</ele>
        <time>2022-05-14 18:29:24</time>
      </trkpt>
      <trkpt lat="9.97445" lon="-84.15192">
        <ele>996</ele>
        <time>2022-05-14 18:29:25</time>
      </trkpt>
      <trkpt lat="9.97442" lon="-84.15192">
        <ele>995.6</ele>
        <time>2022-05-14 18:29:26</time>
      </trkpt>
      <trkpt lat="9.97442" lon="-84.15192">
        <ele>995.6</ele>
        <time>2022-05-14 18:29:27</time>
      </trkpt>
      <trkpt lat="9.97433" lon="-84.1519">
        <ele>995.4</ele>
        <time>2022-05-14 18:29:28</time>
      </trkpt>
      <trkpt lat="9.9743" lon="-84.15189">
        <ele>995.6</ele>
        <time>2022-05-14 18:29:29</time>
      </trkpt>
      <trkpt lat="9.97427" lon="-84.15189">
        <ele>995.4</ele>
        <time>2022-05-14 18:29:30</time>
      </trkpt>
      <trkpt lat="9.97424" lon="-84.15188">
        <ele>995.4</ele>
        <time>2022-05-14 18:29:31</time>
      </trkpt>
      <trkpt lat="9.97422" lon="-84.15188">
        <ele>995.4</ele>
        <time>2022-05-14 18:29:32</time>
      </trkpt>
      <trkpt lat="9.97421" lon="-84.15186">
        <ele>995</ele>
        <time>2022-05-14 18:29:33</time>
      </trkpt>
      <trkpt lat="9.97421" lon="-84.15186">
        <ele>994.8</ele>
        <time>2022-05-14 18:29:34</time>
      </trkpt>
      <trkpt lat="9.97419" lon="-84.15186">
        <ele>994.6</ele>
        <time>2022-05-14 18:29:35</time>
      </trkpt>
      <trkpt lat="9.97417" lon="-84.15186">
        <ele>994.6</ele>
        <time>2022-05-14 18:29:36</time>
      </trkpt>
      <trkpt lat="9.9741" lon="-84.15186">
        <ele>994.6</ele>
        <time>2022-05-14 18:29:37</time>
      </trkpt>
      <trkpt lat="9.97406" lon="-84.15187">
        <ele>994.4</ele>
        <time>2022-05-14 18:29:38</time>
      </trkpt>
      <trkpt lat="9.97403" lon="-84.15188">
        <ele>994.2</ele>
        <time>2022-05-14 18:29:39</time>
      </trkpt>
      <trkpt lat="9.974" lon="-84.15188">
        <ele>993.8</ele>
        <time>2022-05-14 18:29:40</time>
      </trkpt>
      <trkpt lat="9.97396" lon="-84.15188">
        <ele>993.6</ele>
        <time>2022-05-14 18:29:41</time>
      </trkpt>
      <trkpt lat="9.97392" lon="-84.15188">
        <ele>993.4</ele>
        <time>2022-05-14 18:29:42</time>
      </trkpt>
      <trkpt lat="9.97388" lon="-84.15188">
        <ele>993.2</ele>
        <time>2022-05-14 18:29:43</time>
      </trkpt>
      <trkpt lat="9.97383" lon="-84.15188">
        <ele>993</ele>
        <time>2022-05-14 18:29:44</time>
      </trkpt>
      <trkpt lat="9.97383" lon="-84.15188">
        <ele>993</ele>
        <time>2022-05-14 18:29:45</time>
      </trkpt>
      <trkpt lat="9.97379" lon="-84.15188">
        <ele>993</ele>
        <time>2022-05-14 18:29:46</time>
      </trkpt>
      <trkpt lat="9.97375" lon="-84.1519">
        <ele>992.8</ele>
        <time>2022-05-14 18:29:47</time>
      </trkpt>
      <trkpt lat="9.97366" lon="-84.15194">
        <ele>992.6</ele>
        <time>2022-05-14 18:29:48</time>
      </trkpt>
      <trkpt lat="9.97361" lon="-84.15195">
        <ele>992.2</ele>
        <time>2022-05-14 18:29:49</time>
      </trkpt>
      <trkpt lat="9.97357" lon="-84.15197">
        <ele>992.2</ele>
        <time>2022-05-14 18:29:50</time>
      </trkpt>
      <trkpt lat="9.97351" lon="-84.15198">
        <ele>992</ele>
        <time>2022-05-14 18:29:51</time>
      </trkpt>
      <trkpt lat="9.97346" lon="-84.15199">
        <ele>991.8</ele>
        <time>2022-05-14 18:29:52</time>
      </trkpt>
      <trkpt lat="9.97341" lon="-84.15199">
        <ele>991.8</ele>
        <time>2022-05-14 18:29:53</time>
      </trkpt>
      <trkpt lat="9.97335" lon="-84.15199">
        <ele>991.6</ele>
        <time>2022-05-14 18:29:54</time>
      </trkpt>
      <trkpt lat="9.97335" lon="-84.15199">
        <ele>991.4</ele>
        <time>2022-05-14 18:29:55</time>
      </trkpt>
      <trkpt lat="9.9733" lon="-84.152">
        <ele>991.2</ele>
        <time>2022-05-14 18:29:56</time>
      </trkpt>
      <trkpt lat="9.97324" lon="-84.152">
        <ele>991</ele>
        <time>2022-05-14 18:29:57</time>
      </trkpt>
      <trkpt lat="9.97313" lon="-84.15201">
        <ele>991</ele>
        <time>2022-05-14 18:29:58</time>
      </trkpt>
      <trkpt lat="9.97308" lon="-84.15202">
        <ele>991</ele>
        <time>2022-05-14 18:29:59</time>
      </trkpt>
      <trkpt lat="9.97304" lon="-84.15202">
        <ele>990.8</ele>
        <time>2022-05-14 18:30:00</time>
      </trkpt>
      <trkpt lat="9.973" lon="-84.15202">
        <ele>990.8</ele>
        <time>2022-05-14 18:30:01</time>
      </trkpt>
      <trkpt lat="9.97297" lon="-84.15203">
        <ele>990.6</ele>
        <time>2022-05-14 18:30:02</time>
      </trkpt>
      <trkpt lat="9.97293" lon="-84.15204">
        <ele>990.6</ele>
        <time>2022-05-14 18:30:03</time>
      </trkpt>
      <trkpt lat="9.97291" lon="-84.15206">
        <ele>990.4</ele>
        <time>2022-05-14 18:30:04</time>
      </trkpt>
      <trkpt lat="9.97288" lon="-84.15209">
        <ele>990.4</ele>
        <time>2022-05-14 18:30:05</time>
      </trkpt>
      <trkpt lat="9.97288" lon="-84.15209">
        <ele>990.4</ele>
        <time>2022-05-14 18:30:06</time>
      </trkpt>
      <trkpt lat="9.97286" lon="-84.15211">
        <ele>990.6</ele>
        <time>2022-05-14 18:30:07</time>
      </trkpt>
      <trkpt lat="9.97286" lon="-84.15211">
        <ele>990.4</ele>
        <time>2022-05-14 18:30:08</time>
      </trkpt>
      <trkpt lat="9.97276" lon="-84.15218">
        <ele>990.4</ele>
        <time>2022-05-14 18:30:09</time>
      </trkpt>
      <trkpt lat="9.97272" lon="-84.15219">
        <ele>990.2</ele>
        <time>2022-05-14 18:30:10</time>
      </trkpt>
      <trkpt lat="9.97268" lon="-84.15219">
        <ele>990.2</ele>
        <time>2022-05-14 18:30:11</time>
      </trkpt>
      <trkpt lat="9.97264" lon="-84.15218">
        <ele>990.2</ele>
        <time>2022-05-14 18:30:12</time>
      </trkpt>
      <trkpt lat="9.9726" lon="-84.15217">
        <ele>989.8</ele>
        <time>2022-05-14 18:30:13</time>
      </trkpt>
      <trkpt lat="9.97256" lon="-84.15214">
        <ele>989.6</ele>
        <time>2022-05-14 18:30:14</time>
      </trkpt>
      <trkpt lat="9.97253" lon="-84.15211">
        <ele>989.4</ele>
        <time>2022-05-14 18:30:15</time>
      </trkpt>
      <trkpt lat="9.97253" lon="-84.15211">
        <ele>989.4</ele>
        <time>2022-05-14 18:30:16</time>
      </trkpt>
      <trkpt lat="9.97249" lon="-84.15208">
        <ele>989.2</ele>
        <time>2022-05-14 18:30:17</time>
      </trkpt>
      <trkpt lat="9.97249" lon="-84.15208">
        <ele>989.2</ele>
        <time>2022-05-14 18:30:18</time>
      </trkpt>
      <trkpt lat="9.97241" lon="-84.15202">
        <ele>989.2</ele>
        <time>2022-05-14 18:30:19</time>
      </trkpt>
      <trkpt lat="9.97238" lon="-84.152">
        <ele>989</ele>
        <time>2022-05-14 18:30:20</time>
      </trkpt>
      <trkpt lat="9.97236" lon="-84.15199">
        <ele>989</ele>
        <time>2022-05-14 18:30:21</time>
      </trkpt>
      <trkpt lat="9.97234" lon="-84.15199">
        <ele>988.8</ele>
        <time>2022-05-14 18:30:22</time>
      </trkpt>
      <trkpt lat="9.97233" lon="-84.15199">
        <ele>988.8</ele>
        <time>2022-05-14 18:30:23</time>
      </trkpt>
      <trkpt lat="9.97232" lon="-84.15199">
        <ele>988.6</ele>
        <time>2022-05-14 18:30:24</time>
      </trkpt>
      <trkpt lat="9.97231" lon="-84.15199">
        <ele>988.6</ele>
        <time>2022-05-14 18:30:25</time>
      </trkpt>
      <trkpt lat="9.97231" lon="-84.15199">
        <ele>988.4</ele>
        <time>2022-05-14 18:30:26</time>
      </trkpt>
      <trkpt lat="9.97227" lon="-84.15198">
        <ele>988.2</ele>
        <time>2022-05-14 18:30:52</time>
      </trkpt>
      <trkpt lat="9.97226" lon="-84.15197">
        <ele>988</ele>
        <time>2022-05-14 18:30:53</time>
      </trkpt>
      <trkpt lat="9.97224" lon="-84.15197">
        <ele>987.8</ele>
        <time>2022-05-14 18:30:54</time>
      </trkpt>
      <trkpt lat="9.97223" lon="-84.15196">
        <ele>988</ele>
        <time>2022-05-14 18:30:55</time>
      </trkpt>
      <trkpt lat="9.97223" lon="-84.15197">
        <ele>988.4</ele>
        <time>2022-05-14 18:30:56</time>
      </trkpt>
      <trkpt lat="9.97223" lon="-84.15197">
        <ele>988.6</ele>
        <time>2022-05-14 18:30:57</time>
      </trkpt>
    </trkseg>
  </trk>
</gpx>
